<?xml version="1.0" encoding="UTF-8"?>
<gpx version="1.1" creator="https://www.youtrack.es" xsi:schemaLocation="http://www.topografix.com/GPX/1/1 http://www.topografix.com/GPX/1/1/gpx.xsd http://www.garmin.com/xmlschemas/GpxExtensions/v3 http://www.garmin.com/xmlschemas/GpxExtensionsv3.xsd http://www.garmin.com/xmlschemas/TrackPointExtension/v1 http://www.garmin.com/xmlschemas/TrackPointExtensionv1.xsd" xmlns:gpxtpx="http://www.garmin.com/xmlschemas/TrackPointExtension/v1" xmlns:gpxx="http://www.garmin.com/xmlschemas/GpxExtensions/v3" xmlns:xsi="http://www.w3.org/2001/XMLSchema-instance">
  <metadata>
    <link href="https://www.youtrack.es">
      <text>YouTrack.es</text>
    </link>
    <time>2026-05-10T17:45:11Z</time>
  </metadata>
  <trk>
    <src>https://www.youtrack.es</src>
    <link href="https://www.youtrack.es/ruta/28736-pontarron">
      <text>YouTrack.es</text>
    </link>
    <trkseg>
      <trkpt lat="43.2874300" lon="-2.9779370">
        <ele>99.6</ele>
        <time>2022-01-16T08:18:12Z</time>
      </trkpt>
      <trkpt lat="43.2874450" lon="-2.9778970">
        <ele>99.6</ele>
        <time>2022-01-16T08:18:13Z</time>
      </trkpt>
      <trkpt lat="43.2874480" lon="-2.9778460">
        <ele>99.0</ele>
        <time>2022-01-16T08:18:14Z</time>
      </trkpt>
      <trkpt lat="43.2874500" lon="-2.9777810">
        <ele>99.0</ele>
        <time>2022-01-16T08:18:15Z</time>
      </trkpt>
      <trkpt lat="43.2874530" lon="-2.9777100">
        <ele>98.4</ele>
        <time>2022-01-16T08:18:16Z</time>
      </trkpt>
      <trkpt lat="43.2874530" lon="-2.9776340">
        <ele>98.2</ele>
        <time>2022-01-16T08:18:17Z</time>
      </trkpt>
      <trkpt lat="43.2874640" lon="-2.9775540">
        <ele>97.6</ele>
        <time>2022-01-16T08:18:18Z</time>
      </trkpt>
      <trkpt lat="43.2874860" lon="-2.9774740">
        <ele>98.0</ele>
        <time>2022-01-16T08:18:19Z</time>
      </trkpt>
      <trkpt lat="43.2875160" lon="-2.9773870">
        <ele>97.8</ele>
        <time>2022-01-16T08:18:20Z</time>
      </trkpt>
      <trkpt lat="43.2875430" lon="-2.9772970">
        <ele>97.2</ele>
        <time>2022-01-16T08:18:21Z</time>
      </trkpt>
      <trkpt lat="43.2875730" lon="-2.9772010">
        <ele>96.6</ele>
        <time>2022-01-16T08:18:22Z</time>
      </trkpt>
      <trkpt lat="43.2876110" lon="-2.9771040">
        <ele>95.8</ele>
        <time>2022-01-16T08:18:23Z</time>
      </trkpt>
      <trkpt lat="43.2876480" lon="-2.9770030">
        <ele>95.0</ele>
        <time>2022-01-16T08:18:24Z</time>
      </trkpt>
      <trkpt lat="43.2876790" lon="-2.9769020">
        <ele>94.2</ele>
        <time>2022-01-16T08:18:25Z</time>
      </trkpt>
      <trkpt lat="43.2877120" lon="-2.9768050">
        <ele>93.6</ele>
        <time>2022-01-16T08:18:26Z</time>
      </trkpt>
      <trkpt lat="43.2877500" lon="-2.9767090">
        <ele>92.6</ele>
        <time>2022-01-16T08:18:27Z</time>
      </trkpt>
      <trkpt lat="43.2877900" lon="-2.9766120">
        <ele>92.0</ele>
        <time>2022-01-16T08:18:28Z</time>
      </trkpt>
      <trkpt lat="43.2878250" lon="-2.9765120">
        <ele>91.4</ele>
        <time>2022-01-16T08:18:29Z</time>
      </trkpt>
      <trkpt lat="43.2878570" lon="-2.9764110">
        <ele>89.6</ele>
        <time>2022-01-16T08:18:30Z</time>
      </trkpt>
      <trkpt lat="43.2878830" lon="-2.9763120">
        <ele>88.4</ele>
        <time>2022-01-16T08:18:31Z</time>
      </trkpt>
      <trkpt lat="43.2879050" lon="-2.9762140">
        <ele>87.4</ele>
        <time>2022-01-16T08:18:32Z</time>
      </trkpt>
      <trkpt lat="43.2879220" lon="-2.9761090">
        <ele>85.8</ele>
        <time>2022-01-16T08:18:33Z</time>
      </trkpt>
      <trkpt lat="43.2879100" lon="-2.9760210">
        <ele>84.4</ele>
        <time>2022-01-16T08:18:34Z</time>
      </trkpt>
      <trkpt lat="43.2879100" lon="-2.9759290">
        <ele>83.6</ele>
        <time>2022-01-16T08:18:35Z</time>
      </trkpt>
      <trkpt lat="43.2879070" lon="-2.9758450">
        <ele>82.6</ele>
        <time>2022-01-16T08:18:36Z</time>
      </trkpt>
      <trkpt lat="43.2879050" lon="-2.9757670">
        <ele>81.2</ele>
        <time>2022-01-16T08:18:37Z</time>
      </trkpt>
      <trkpt lat="43.2879040" lon="-2.9757040">
        <ele>80.0</ele>
        <time>2022-01-16T08:18:38Z</time>
      </trkpt>
      <trkpt lat="43.2879030" lon="-2.9756610">
        <ele>79.0</ele>
        <time>2022-01-16T08:18:39Z</time>
      </trkpt>
      <trkpt lat="43.2879040" lon="-2.9756370">
        <ele>78.2</ele>
        <time>2022-01-16T08:18:40Z</time>
      </trkpt>
      <trkpt lat="43.2879070" lon="-2.9756280">
        <ele>77.6</ele>
        <time>2022-01-16T08:18:41Z</time>
      </trkpt>
      <trkpt lat="43.2879070" lon="-2.9756270">
        <ele>77.4</ele>
        <time>2022-01-16T08:18:42Z</time>
      </trkpt>
      <trkpt lat="43.2879040" lon="-2.9756280">
        <ele>77.2</ele>
        <time>2022-01-16T08:18:43Z</time>
      </trkpt>
      <trkpt lat="43.2879270" lon="-2.9755850">
        <ele>76.6</ele>
        <time>2022-01-16T08:18:48Z</time>
      </trkpt>
      <trkpt lat="43.2879470" lon="-2.9755730">
        <ele>76.6</ele>
        <time>2022-01-16T08:18:49Z</time>
      </trkpt>
      <trkpt lat="43.2879780" lon="-2.9755650">
        <ele>76.6</ele>
        <time>2022-01-16T08:18:50Z</time>
      </trkpt>
      <trkpt lat="43.2880190" lon="-2.9755620">
        <ele>76.6</ele>
        <time>2022-01-16T08:18:51Z</time>
      </trkpt>
      <trkpt lat="43.2880640" lon="-2.9755590">
        <ele>76.6</ele>
        <time>2022-01-16T08:18:52Z</time>
      </trkpt>
      <trkpt lat="43.2881150" lon="-2.9755600">
        <ele>76.6</ele>
        <time>2022-01-16T08:18:53Z</time>
      </trkpt>
      <trkpt lat="43.2881670" lon="-2.9755630">
        <ele>76.6</ele>
        <time>2022-01-16T08:18:54Z</time>
      </trkpt>
      <trkpt lat="43.2882250" lon="-2.9755640">
        <ele>76.6</ele>
        <time>2022-01-16T08:18:55Z</time>
      </trkpt>
      <trkpt lat="43.2882730" lon="-2.9755660">
        <ele>76.6</ele>
        <time>2022-01-16T08:18:56Z</time>
      </trkpt>
      <trkpt lat="43.2883340" lon="-2.9755690">
        <ele>76.6</ele>
        <time>2022-01-16T08:18:57Z</time>
      </trkpt>
      <trkpt lat="43.2883950" lon="-2.9755730">
        <ele>76.6</ele>
        <time>2022-01-16T08:18:58Z</time>
      </trkpt>
      <trkpt lat="43.2884590" lon="-2.9755800">
        <ele>76.8</ele>
        <time>2022-01-16T08:18:59Z</time>
      </trkpt>
      <trkpt lat="43.2885210" lon="-2.9755860">
        <ele>76.6</ele>
        <time>2022-01-16T08:19:00Z</time>
      </trkpt>
      <trkpt lat="43.2885810" lon="-2.9755880">
        <ele>76.2</ele>
        <time>2022-01-16T08:19:01Z</time>
      </trkpt>
      <trkpt lat="43.2886430" lon="-2.9755930">
        <ele>76.0</ele>
        <time>2022-01-16T08:19:02Z</time>
      </trkpt>
      <trkpt lat="43.2887040" lon="-2.9755990">
        <ele>75.6</ele>
        <time>2022-01-16T08:19:03Z</time>
      </trkpt>
      <trkpt lat="43.2887670" lon="-2.9756010">
        <ele>75.4</ele>
        <time>2022-01-16T08:19:04Z</time>
      </trkpt>
      <trkpt lat="43.2888300" lon="-2.9756050">
        <ele>75.4</ele>
        <time>2022-01-16T08:19:05Z</time>
      </trkpt>
      <trkpt lat="43.2888940" lon="-2.9756110">
        <ele>75.4</ele>
        <time>2022-01-16T08:19:06Z</time>
      </trkpt>
      <trkpt lat="43.2889600" lon="-2.9756140">
        <ele>75.4</ele>
        <time>2022-01-16T08:19:07Z</time>
      </trkpt>
      <trkpt lat="43.2890250" lon="-2.9756170">
        <ele>75.4</ele>
        <time>2022-01-16T08:19:08Z</time>
      </trkpt>
      <trkpt lat="43.2890890" lon="-2.9756240">
        <ele>75.8</ele>
        <time>2022-01-16T08:19:09Z</time>
      </trkpt>
      <trkpt lat="43.2891530" lon="-2.9756320">
        <ele>76.0</ele>
        <time>2022-01-16T08:19:10Z</time>
      </trkpt>
      <trkpt lat="43.2892170" lon="-2.9756380">
        <ele>76.0</ele>
        <time>2022-01-16T08:19:11Z</time>
      </trkpt>
      <trkpt lat="43.2892830" lon="-2.9756420">
        <ele>76.0</ele>
        <time>2022-01-16T08:19:12Z</time>
      </trkpt>
      <trkpt lat="43.2893480" lon="-2.9756490">
        <ele>76.0</ele>
        <time>2022-01-16T08:19:13Z</time>
      </trkpt>
      <trkpt lat="43.2894120" lon="-2.9756530">
        <ele>76.0</ele>
        <time>2022-01-16T08:19:14Z</time>
      </trkpt>
      <trkpt lat="43.2894750" lon="-2.9756530">
        <ele>76.0</ele>
        <time>2022-01-16T08:19:15Z</time>
      </trkpt>
      <trkpt lat="43.2895230" lon="-2.9756560">
        <ele>75.8</ele>
        <time>2022-01-16T08:19:16Z</time>
      </trkpt>
      <trkpt lat="43.2895490" lon="-2.9756670">
        <ele>75.6</ele>
        <time>2022-01-16T08:19:17Z</time>
      </trkpt>
      <trkpt lat="43.2895550" lon="-2.9756770">
        <ele>75.6</ele>
        <time>2022-01-16T08:19:18Z</time>
      </trkpt>
      <trkpt lat="43.2895610" lon="-2.9756810">
        <ele>75.8</ele>
        <time>2022-01-16T08:19:19Z</time>
      </trkpt>
      <trkpt lat="43.2895760" lon="-2.9756760">
        <ele>75.8</ele>
        <time>2022-01-16T08:19:20Z</time>
      </trkpt>
      <trkpt lat="43.2896000" lon="-2.9756720">
        <ele>75.8</ele>
        <time>2022-01-16T08:19:21Z</time>
      </trkpt>
      <trkpt lat="43.2896210" lon="-2.9756700">
        <ele>75.8</ele>
        <time>2022-01-16T08:19:22Z</time>
      </trkpt>
      <trkpt lat="43.2896390" lon="-2.9756740">
        <ele>75.8</ele>
        <time>2022-01-16T08:19:23Z</time>
      </trkpt>
      <trkpt lat="43.2896510" lon="-2.9756760">
        <ele>75.6</ele>
        <time>2022-01-16T08:19:24Z</time>
      </trkpt>
      <trkpt lat="43.2896630" lon="-2.9756730">
        <ele>75.6</ele>
        <time>2022-01-16T08:19:25Z</time>
      </trkpt>
      <trkpt lat="43.2896770" lon="-2.9756730">
        <ele>75.4</ele>
        <time>2022-01-16T08:19:26Z</time>
      </trkpt>
      <trkpt lat="43.2896920" lon="-2.9756740">
        <ele>75.4</ele>
        <time>2022-01-16T08:19:27Z</time>
      </trkpt>
      <trkpt lat="43.2897060" lon="-2.9756740">
        <ele>75.4</ele>
        <time>2022-01-16T08:19:28Z</time>
      </trkpt>
      <trkpt lat="43.2897200" lon="-2.9756740">
        <ele>75.4</ele>
        <time>2022-01-16T08:19:29Z</time>
      </trkpt>
      <trkpt lat="43.2897330" lon="-2.9756670">
        <ele>75.4</ele>
        <time>2022-01-16T08:19:30Z</time>
      </trkpt>
      <trkpt lat="43.2897470" lon="-2.9756620">
        <ele>75.4</ele>
        <time>2022-01-16T08:19:31Z</time>
      </trkpt>
      <trkpt lat="43.2897610" lon="-2.9756600">
        <ele>75.4</ele>
        <time>2022-01-16T08:19:32Z</time>
      </trkpt>
      <trkpt lat="43.2897760" lon="-2.9756580">
        <ele>75.6</ele>
        <time>2022-01-16T08:19:33Z</time>
      </trkpt>
      <trkpt lat="43.2897800" lon="-2.9756590">
        <ele>75.6</ele>
        <time>2022-01-16T08:19:34Z</time>
      </trkpt>
      <trkpt lat="43.2897830" lon="-2.9756590">
        <ele>75.6</ele>
        <time>2022-01-16T08:19:35Z</time>
      </trkpt>
      <trkpt lat="43.2897870" lon="-2.9756580">
        <ele>75.6</ele>
        <time>2022-01-16T08:19:36Z</time>
      </trkpt>
      <trkpt lat="43.2897760" lon="-2.9756590">
        <ele>75.4</ele>
        <time>2022-01-16T08:19:37Z</time>
      </trkpt>
      <trkpt lat="43.2898120" lon="-2.9756660">
        <ele>75.4</ele>
        <time>2022-01-16T08:19:49Z</time>
      </trkpt>
      <trkpt lat="43.2898370" lon="-2.9756680">
        <ele>75.4</ele>
        <time>2022-01-16T08:19:50Z</time>
      </trkpt>
      <trkpt lat="43.2898680" lon="-2.9756700">
        <ele>75.4</ele>
        <time>2022-01-16T08:19:51Z</time>
      </trkpt>
      <trkpt lat="43.2899000" lon="-2.9756720">
        <ele>75.4</ele>
        <time>2022-01-16T08:19:52Z</time>
      </trkpt>
      <trkpt lat="43.2899400" lon="-2.9756750">
        <ele>75.4</ele>
        <time>2022-01-16T08:19:53Z</time>
      </trkpt>
      <trkpt lat="43.2899870" lon="-2.9756760">
        <ele>75.4</ele>
        <time>2022-01-16T08:19:54Z</time>
      </trkpt>
      <trkpt lat="43.2900350" lon="-2.9756720">
        <ele>75.4</ele>
        <time>2022-01-16T08:19:55Z</time>
      </trkpt>
      <trkpt lat="43.2900840" lon="-2.9756630">
        <ele>75.4</ele>
        <time>2022-01-16T08:19:56Z</time>
      </trkpt>
      <trkpt lat="43.2901350" lon="-2.9756450">
        <ele>75.4</ele>
        <time>2022-01-16T08:19:57Z</time>
      </trkpt>
      <trkpt lat="43.2901810" lon="-2.9756190">
        <ele>75.2</ele>
        <time>2022-01-16T08:19:58Z</time>
      </trkpt>
      <trkpt lat="43.2902180" lon="-2.9755820">
        <ele>75.2</ele>
        <time>2022-01-16T08:19:59Z</time>
      </trkpt>
      <trkpt lat="43.2902580" lon="-2.9755340">
        <ele>75.2</ele>
        <time>2022-01-16T08:20:00Z</time>
      </trkpt>
      <trkpt lat="43.2903070" lon="-2.9754820">
        <ele>75.0</ele>
        <time>2022-01-16T08:20:01Z</time>
      </trkpt>
      <trkpt lat="43.2903610" lon="-2.9754300">
        <ele>75.0</ele>
        <time>2022-01-16T08:20:02Z</time>
      </trkpt>
      <trkpt lat="43.2904180" lon="-2.9753740">
        <ele>75.0</ele>
        <time>2022-01-16T08:20:03Z</time>
      </trkpt>
      <trkpt lat="43.2904740" lon="-2.9753150">
        <ele>75.0</ele>
        <time>2022-01-16T08:20:04Z</time>
      </trkpt>
      <trkpt lat="43.2905310" lon="-2.9752570">
        <ele>75.2</ele>
        <time>2022-01-16T08:20:05Z</time>
      </trkpt>
      <trkpt lat="43.2905820" lon="-2.9752020">
        <ele>75.2</ele>
        <time>2022-01-16T08:20:06Z</time>
      </trkpt>
      <trkpt lat="43.2906380" lon="-2.9751470">
        <ele>75.2</ele>
        <time>2022-01-16T08:20:07Z</time>
      </trkpt>
      <trkpt lat="43.2906970" lon="-2.9750990">
        <ele>75.4</ele>
        <time>2022-01-16T08:20:08Z</time>
      </trkpt>
      <trkpt lat="43.2907580" lon="-2.9750570">
        <ele>75.4</ele>
        <time>2022-01-16T08:20:09Z</time>
      </trkpt>
      <trkpt lat="43.2908200" lon="-2.9750220">
        <ele>75.8</ele>
        <time>2022-01-16T08:20:10Z</time>
      </trkpt>
      <trkpt lat="43.2908860" lon="-2.9749910">
        <ele>76.0</ele>
        <time>2022-01-16T08:20:11Z</time>
      </trkpt>
      <trkpt lat="43.2909540" lon="-2.9749630">
        <ele>76.2</ele>
        <time>2022-01-16T08:20:12Z</time>
      </trkpt>
      <trkpt lat="43.2910210" lon="-2.9749340">
        <ele>76.2</ele>
        <time>2022-01-16T08:20:13Z</time>
      </trkpt>
      <trkpt lat="43.2910880" lon="-2.9749050">
        <ele>76.4</ele>
        <time>2022-01-16T08:20:14Z</time>
      </trkpt>
      <trkpt lat="43.2911560" lon="-2.9748750">
        <ele>76.4</ele>
        <time>2022-01-16T08:20:15Z</time>
      </trkpt>
      <trkpt lat="43.2912250" lon="-2.9748450">
        <ele>76.4</ele>
        <time>2022-01-16T08:20:16Z</time>
      </trkpt>
      <trkpt lat="43.2912930" lon="-2.9748160">
        <ele>76.4</ele>
        <time>2022-01-16T08:20:17Z</time>
      </trkpt>
      <trkpt lat="43.2913610" lon="-2.9747870">
        <ele>76.4</ele>
        <time>2022-01-16T08:20:18Z</time>
      </trkpt>
      <trkpt lat="43.2914310" lon="-2.9747570">
        <ele>76.4</ele>
        <time>2022-01-16T08:20:19Z</time>
      </trkpt>
      <trkpt lat="43.2915000" lon="-2.9747270">
        <ele>76.4</ele>
        <time>2022-01-16T08:20:20Z</time>
      </trkpt>
      <trkpt lat="43.2915690" lon="-2.9746960">
        <ele>76.4</ele>
        <time>2022-01-16T08:20:21Z</time>
      </trkpt>
      <trkpt lat="43.2916390" lon="-2.9746660">
        <ele>76.4</ele>
        <time>2022-01-16T08:20:22Z</time>
      </trkpt>
      <trkpt lat="43.2917090" lon="-2.9746350">
        <ele>76.4</ele>
        <time>2022-01-16T08:20:23Z</time>
      </trkpt>
      <trkpt lat="43.2917780" lon="-2.9746040">
        <ele>76.6</ele>
        <time>2022-01-16T08:20:24Z</time>
      </trkpt>
      <trkpt lat="43.2918430" lon="-2.9745760">
        <ele>76.6</ele>
        <time>2022-01-16T08:20:25Z</time>
      </trkpt>
      <trkpt lat="43.2919080" lon="-2.9745490">
        <ele>76.8</ele>
        <time>2022-01-16T08:20:26Z</time>
      </trkpt>
      <trkpt lat="43.2919740" lon="-2.9745220">
        <ele>76.6</ele>
        <time>2022-01-16T08:20:27Z</time>
      </trkpt>
      <trkpt lat="43.2920400" lon="-2.9744950">
        <ele>76.8</ele>
        <time>2022-01-16T08:20:28Z</time>
      </trkpt>
      <trkpt lat="43.2921060" lon="-2.9744680">
        <ele>77.0</ele>
        <time>2022-01-16T08:20:29Z</time>
      </trkpt>
      <trkpt lat="43.2921740" lon="-2.9744430">
        <ele>77.2</ele>
        <time>2022-01-16T08:20:30Z</time>
      </trkpt>
      <trkpt lat="43.2922420" lon="-2.9744220">
        <ele>77.2</ele>
        <time>2022-01-16T08:20:31Z</time>
      </trkpt>
      <trkpt lat="43.2923130" lon="-2.9744030">
        <ele>77.2</ele>
        <time>2022-01-16T08:20:32Z</time>
      </trkpt>
      <trkpt lat="43.2923850" lon="-2.9743880">
        <ele>77.4</ele>
        <time>2022-01-16T08:20:33Z</time>
      </trkpt>
      <trkpt lat="43.2924600" lon="-2.9743750">
        <ele>77.6</ele>
        <time>2022-01-16T08:20:34Z</time>
      </trkpt>
      <trkpt lat="43.2925390" lon="-2.9743580">
        <ele>77.6</ele>
        <time>2022-01-16T08:20:35Z</time>
      </trkpt>
      <trkpt lat="43.2926190" lon="-2.9743430">
        <ele>77.8</ele>
        <time>2022-01-16T08:20:36Z</time>
      </trkpt>
      <trkpt lat="43.2926880" lon="-2.9743420">
        <ele>78.0</ele>
        <time>2022-01-16T08:20:37Z</time>
      </trkpt>
      <trkpt lat="43.2927540" lon="-2.9743490">
        <ele>78.2</ele>
        <time>2022-01-16T08:20:38Z</time>
      </trkpt>
      <trkpt lat="43.2928200" lon="-2.9743600">
        <ele>78.4</ele>
        <time>2022-01-16T08:20:39Z</time>
      </trkpt>
      <trkpt lat="43.2928840" lon="-2.9743790">
        <ele>78.6</ele>
        <time>2022-01-16T08:20:40Z</time>
      </trkpt>
      <trkpt lat="43.2929440" lon="-2.9744060">
        <ele>78.8</ele>
        <time>2022-01-16T08:20:41Z</time>
      </trkpt>
      <trkpt lat="43.2930010" lon="-2.9744390">
        <ele>79.0</ele>
        <time>2022-01-16T08:20:42Z</time>
      </trkpt>
      <trkpt lat="43.2930550" lon="-2.9744720">
        <ele>79.4</ele>
        <time>2022-01-16T08:20:43Z</time>
      </trkpt>
      <trkpt lat="43.2931100" lon="-2.9745050">
        <ele>79.6</ele>
        <time>2022-01-16T08:20:44Z</time>
      </trkpt>
      <trkpt lat="43.2931650" lon="-2.9745390">
        <ele>80.0</ele>
        <time>2022-01-16T08:20:45Z</time>
      </trkpt>
      <trkpt lat="43.2932200" lon="-2.9745740">
        <ele>80.2</ele>
        <time>2022-01-16T08:20:46Z</time>
      </trkpt>
      <trkpt lat="43.2932750" lon="-2.9746090">
        <ele>80.6</ele>
        <time>2022-01-16T08:20:47Z</time>
      </trkpt>
      <trkpt lat="43.2933280" lon="-2.9746430">
        <ele>80.8</ele>
        <time>2022-01-16T08:20:48Z</time>
      </trkpt>
      <trkpt lat="43.2933800" lon="-2.9746780">
        <ele>81.2</ele>
        <time>2022-01-16T08:20:49Z</time>
      </trkpt>
      <trkpt lat="43.2934320" lon="-2.9747110">
        <ele>81.4</ele>
        <time>2022-01-16T08:20:50Z</time>
      </trkpt>
      <trkpt lat="43.2934830" lon="-2.9747440">
        <ele>81.8</ele>
        <time>2022-01-16T08:20:51Z</time>
      </trkpt>
      <trkpt lat="43.2935340" lon="-2.9747780">
        <ele>82.0</ele>
        <time>2022-01-16T08:20:52Z</time>
      </trkpt>
      <trkpt lat="43.2935830" lon="-2.9748130">
        <ele>82.4</ele>
        <time>2022-01-16T08:20:53Z</time>
      </trkpt>
      <trkpt lat="43.2936320" lon="-2.9748520">
        <ele>82.6</ele>
        <time>2022-01-16T08:20:54Z</time>
      </trkpt>
      <trkpt lat="43.2936810" lon="-2.9748930">
        <ele>82.8</ele>
        <time>2022-01-16T08:20:55Z</time>
      </trkpt>
      <trkpt lat="43.2937320" lon="-2.9749380">
        <ele>83.0</ele>
        <time>2022-01-16T08:20:56Z</time>
      </trkpt>
      <trkpt lat="43.2937820" lon="-2.9749850">
        <ele>83.2</ele>
        <time>2022-01-16T08:20:57Z</time>
      </trkpt>
      <trkpt lat="43.2938350" lon="-2.9750340">
        <ele>83.4</ele>
        <time>2022-01-16T08:20:58Z</time>
      </trkpt>
      <trkpt lat="43.2938870" lon="-2.9750850">
        <ele>83.8</ele>
        <time>2022-01-16T08:20:59Z</time>
      </trkpt>
      <trkpt lat="43.2939410" lon="-2.9751370">
        <ele>83.8</ele>
        <time>2022-01-16T08:21:00Z</time>
      </trkpt>
      <trkpt lat="43.2939960" lon="-2.9751900">
        <ele>83.8</ele>
        <time>2022-01-16T08:21:01Z</time>
      </trkpt>
      <trkpt lat="43.2940510" lon="-2.9752450">
        <ele>83.8</ele>
        <time>2022-01-16T08:21:02Z</time>
      </trkpt>
      <trkpt lat="43.2941050" lon="-2.9753010">
        <ele>84.0</ele>
        <time>2022-01-16T08:21:03Z</time>
      </trkpt>
      <trkpt lat="43.2941600" lon="-2.9753600">
        <ele>83.8</ele>
        <time>2022-01-16T08:21:04Z</time>
      </trkpt>
      <trkpt lat="43.2942130" lon="-2.9754200">
        <ele>83.8</ele>
        <time>2022-01-16T08:21:05Z</time>
      </trkpt>
      <trkpt lat="43.2942670" lon="-2.9754800">
        <ele>83.8</ele>
        <time>2022-01-16T08:21:06Z</time>
      </trkpt>
      <trkpt lat="43.2943220" lon="-2.9755400">
        <ele>83.8</ele>
        <time>2022-01-16T08:21:07Z</time>
      </trkpt>
      <trkpt lat="43.2943760" lon="-2.9756020">
        <ele>83.8</ele>
        <time>2022-01-16T08:21:08Z</time>
      </trkpt>
      <trkpt lat="43.2944290" lon="-2.9756660">
        <ele>83.8</ele>
        <time>2022-01-16T08:21:09Z</time>
      </trkpt>
      <trkpt lat="43.2944810" lon="-2.9757340">
        <ele>83.6</ele>
        <time>2022-01-16T08:21:10Z</time>
      </trkpt>
      <trkpt lat="43.2945290" lon="-2.9758090">
        <ele>83.8</ele>
        <time>2022-01-16T08:21:11Z</time>
      </trkpt>
      <trkpt lat="43.2945750" lon="-2.9758880">
        <ele>83.8</ele>
        <time>2022-01-16T08:21:12Z</time>
      </trkpt>
      <trkpt lat="43.2946180" lon="-2.9759720">
        <ele>83.8</ele>
        <time>2022-01-16T08:21:13Z</time>
      </trkpt>
      <trkpt lat="43.2946600" lon="-2.9760600">
        <ele>83.4</ele>
        <time>2022-01-16T08:21:14Z</time>
      </trkpt>
      <trkpt lat="43.2946980" lon="-2.9761520">
        <ele>83.4</ele>
        <time>2022-01-16T08:21:15Z</time>
      </trkpt>
      <trkpt lat="43.2947330" lon="-2.9762470">
        <ele>83.4</ele>
        <time>2022-01-16T08:21:16Z</time>
      </trkpt>
      <trkpt lat="43.2947640" lon="-2.9763420">
        <ele>83.4</ele>
        <time>2022-01-16T08:21:17Z</time>
      </trkpt>
      <trkpt lat="43.2947920" lon="-2.9764370">
        <ele>83.4</ele>
        <time>2022-01-16T08:21:18Z</time>
      </trkpt>
      <trkpt lat="43.2948210" lon="-2.9765340">
        <ele>83.4</ele>
        <time>2022-01-16T08:21:19Z</time>
      </trkpt>
      <trkpt lat="43.2948500" lon="-2.9766330">
        <ele>83.4</ele>
        <time>2022-01-16T08:21:20Z</time>
      </trkpt>
      <trkpt lat="43.2948790" lon="-2.9767270">
        <ele>83.4</ele>
        <time>2022-01-16T08:21:21Z</time>
      </trkpt>
      <trkpt lat="43.2949050" lon="-2.9768160">
        <ele>83.4</ele>
        <time>2022-01-16T08:21:22Z</time>
      </trkpt>
      <trkpt lat="43.2949350" lon="-2.9769080">
        <ele>83.6</ele>
        <time>2022-01-16T08:21:23Z</time>
      </trkpt>
      <trkpt lat="43.2949660" lon="-2.9770040">
        <ele>83.8</ele>
        <time>2022-01-16T08:21:24Z</time>
      </trkpt>
      <trkpt lat="43.2949980" lon="-2.9770980">
        <ele>83.8</ele>
        <time>2022-01-16T08:21:25Z</time>
      </trkpt>
      <trkpt lat="43.2950290" lon="-2.9771970">
        <ele>83.8</ele>
        <time>2022-01-16T08:21:26Z</time>
      </trkpt>
      <trkpt lat="43.2950650" lon="-2.9773030">
        <ele>84.0</ele>
        <time>2022-01-16T08:21:27Z</time>
      </trkpt>
      <trkpt lat="43.2951000" lon="-2.9774100">
        <ele>84.0</ele>
        <time>2022-01-16T08:21:28Z</time>
      </trkpt>
      <trkpt lat="43.2951320" lon="-2.9775160">
        <ele>83.8</ele>
        <time>2022-01-16T08:21:29Z</time>
      </trkpt>
      <trkpt lat="43.2951620" lon="-2.9776240">
        <ele>83.6</ele>
        <time>2022-01-16T08:21:30Z</time>
      </trkpt>
      <trkpt lat="43.2951970" lon="-2.9777340">
        <ele>83.4</ele>
        <time>2022-01-16T08:21:31Z</time>
      </trkpt>
      <trkpt lat="43.2952320" lon="-2.9778440">
        <ele>83.2</ele>
        <time>2022-01-16T08:21:32Z</time>
      </trkpt>
      <trkpt lat="43.2952670" lon="-2.9779510">
        <ele>83.2</ele>
        <time>2022-01-16T08:21:33Z</time>
      </trkpt>
      <trkpt lat="43.2953050" lon="-2.9780600">
        <ele>83.4</ele>
        <time>2022-01-16T08:21:34Z</time>
      </trkpt>
      <trkpt lat="43.2953510" lon="-2.9781570">
        <ele>83.4</ele>
        <time>2022-01-16T08:21:35Z</time>
      </trkpt>
      <trkpt lat="43.2954090" lon="-2.9782430">
        <ele>83.6</ele>
        <time>2022-01-16T08:21:36Z</time>
      </trkpt>
      <trkpt lat="43.2954770" lon="-2.9783090">
        <ele>83.6</ele>
        <time>2022-01-16T08:21:37Z</time>
      </trkpt>
      <trkpt lat="43.2955480" lon="-2.9783630">
        <ele>83.6</ele>
        <time>2022-01-16T08:21:38Z</time>
      </trkpt>
      <trkpt lat="43.2956190" lon="-2.9784200">
        <ele>83.6</ele>
        <time>2022-01-16T08:21:39Z</time>
      </trkpt>
      <trkpt lat="43.2956870" lon="-2.9784810">
        <ele>83.6</ele>
        <time>2022-01-16T08:21:40Z</time>
      </trkpt>
      <trkpt lat="43.2957530" lon="-2.9785440">
        <ele>83.4</ele>
        <time>2022-01-16T08:21:41Z</time>
      </trkpt>
      <trkpt lat="43.2958190" lon="-2.9786060">
        <ele>83.6</ele>
        <time>2022-01-16T08:21:42Z</time>
      </trkpt>
      <trkpt lat="43.2958870" lon="-2.9786660">
        <ele>83.6</ele>
        <time>2022-01-16T08:21:43Z</time>
      </trkpt>
      <trkpt lat="43.2959600" lon="-2.9787170">
        <ele>83.6</ele>
        <time>2022-01-16T08:21:44Z</time>
      </trkpt>
      <trkpt lat="43.2960340" lon="-2.9787630">
        <ele>83.6</ele>
        <time>2022-01-16T08:21:45Z</time>
      </trkpt>
      <trkpt lat="43.2961110" lon="-2.9788070">
        <ele>83.6</ele>
        <time>2022-01-16T08:21:46Z</time>
      </trkpt>
      <trkpt lat="43.2961890" lon="-2.9788500">
        <ele>83.6</ele>
        <time>2022-01-16T08:21:47Z</time>
      </trkpt>
      <trkpt lat="43.2962670" lon="-2.9788910">
        <ele>83.4</ele>
        <time>2022-01-16T08:21:48Z</time>
      </trkpt>
      <trkpt lat="43.2963460" lon="-2.9789320">
        <ele>83.2</ele>
        <time>2022-01-16T08:21:49Z</time>
      </trkpt>
      <trkpt lat="43.2964260" lon="-2.9789730">
        <ele>83.2</ele>
        <time>2022-01-16T08:21:50Z</time>
      </trkpt>
      <trkpt lat="43.2965040" lon="-2.9790140">
        <ele>83.0</ele>
        <time>2022-01-16T08:21:51Z</time>
      </trkpt>
      <trkpt lat="43.2965820" lon="-2.9790560">
        <ele>82.8</ele>
        <time>2022-01-16T08:21:52Z</time>
      </trkpt>
      <trkpt lat="43.2966600" lon="-2.9790980">
        <ele>82.6</ele>
        <time>2022-01-16T08:21:53Z</time>
      </trkpt>
      <trkpt lat="43.2967360" lon="-2.9791420">
        <ele>82.6</ele>
        <time>2022-01-16T08:21:54Z</time>
      </trkpt>
      <trkpt lat="43.2968120" lon="-2.9791860">
        <ele>82.6</ele>
        <time>2022-01-16T08:21:55Z</time>
      </trkpt>
      <trkpt lat="43.2968880" lon="-2.9792310">
        <ele>82.6</ele>
        <time>2022-01-16T08:21:56Z</time>
      </trkpt>
      <trkpt lat="43.2969630" lon="-2.9792780">
        <ele>82.6</ele>
        <time>2022-01-16T08:21:57Z</time>
      </trkpt>
      <trkpt lat="43.2970380" lon="-2.9793240">
        <ele>82.6</ele>
        <time>2022-01-16T08:21:58Z</time>
      </trkpt>
      <trkpt lat="43.2971140" lon="-2.9793680">
        <ele>82.6</ele>
        <time>2022-01-16T08:21:59Z</time>
      </trkpt>
      <trkpt lat="43.2971890" lon="-2.9794140">
        <ele>82.6</ele>
        <time>2022-01-16T08:22:00Z</time>
      </trkpt>
      <trkpt lat="43.2972660" lon="-2.9794610">
        <ele>82.6</ele>
        <time>2022-01-16T08:22:01Z</time>
      </trkpt>
      <trkpt lat="43.2973420" lon="-2.9795090">
        <ele>82.6</ele>
        <time>2022-01-16T08:22:02Z</time>
      </trkpt>
      <trkpt lat="43.2974190" lon="-2.9795570">
        <ele>82.6</ele>
        <time>2022-01-16T08:22:03Z</time>
      </trkpt>
      <trkpt lat="43.2974960" lon="-2.9796040">
        <ele>82.6</ele>
        <time>2022-01-16T08:22:04Z</time>
      </trkpt>
      <trkpt lat="43.2975730" lon="-2.9796500">
        <ele>82.6</ele>
        <time>2022-01-16T08:22:05Z</time>
      </trkpt>
      <trkpt lat="43.2976510" lon="-2.9796980">
        <ele>82.6</ele>
        <time>2022-01-16T08:22:06Z</time>
      </trkpt>
      <trkpt lat="43.2977270" lon="-2.9797480">
        <ele>82.6</ele>
        <time>2022-01-16T08:22:07Z</time>
      </trkpt>
      <trkpt lat="43.2978040" lon="-2.9797970">
        <ele>82.6</ele>
        <time>2022-01-16T08:22:08Z</time>
      </trkpt>
      <trkpt lat="43.2978820" lon="-2.9798450">
        <ele>82.6</ele>
        <time>2022-01-16T08:22:09Z</time>
      </trkpt>
      <trkpt lat="43.2979610" lon="-2.9798920">
        <ele>82.4</ele>
        <time>2022-01-16T08:22:10Z</time>
      </trkpt>
      <trkpt lat="43.2980400" lon="-2.9799380">
        <ele>82.4</ele>
        <time>2022-01-16T08:22:11Z</time>
      </trkpt>
      <trkpt lat="43.2981200" lon="-2.9799830">
        <ele>82.4</ele>
        <time>2022-01-16T08:22:12Z</time>
      </trkpt>
      <trkpt lat="43.2981990" lon="-2.9800310">
        <ele>82.0</ele>
        <time>2022-01-16T08:22:13Z</time>
      </trkpt>
      <trkpt lat="43.2982790" lon="-2.9800780">
        <ele>81.8</ele>
        <time>2022-01-16T08:22:14Z</time>
      </trkpt>
      <trkpt lat="43.2983590" lon="-2.9801230">
        <ele>81.8</ele>
        <time>2022-01-16T08:22:15Z</time>
      </trkpt>
      <trkpt lat="43.2984380" lon="-2.9801680">
        <ele>81.8</ele>
        <time>2022-01-16T08:22:16Z</time>
      </trkpt>
      <trkpt lat="43.2985160" lon="-2.9802130">
        <ele>81.8</ele>
        <time>2022-01-16T08:22:17Z</time>
      </trkpt>
      <trkpt lat="43.2985950" lon="-2.9802570">
        <ele>81.8</ele>
        <time>2022-01-16T08:22:18Z</time>
      </trkpt>
      <trkpt lat="43.2986760" lon="-2.9803000">
        <ele>81.8</ele>
        <time>2022-01-16T08:22:19Z</time>
      </trkpt>
      <trkpt lat="43.2987580" lon="-2.9803460">
        <ele>81.8</ele>
        <time>2022-01-16T08:22:20Z</time>
      </trkpt>
      <trkpt lat="43.2988400" lon="-2.9803950">
        <ele>81.8</ele>
        <time>2022-01-16T08:22:21Z</time>
      </trkpt>
      <trkpt lat="43.2989230" lon="-2.9804420">
        <ele>81.4</ele>
        <time>2022-01-16T08:22:22Z</time>
      </trkpt>
      <trkpt lat="43.2990070" lon="-2.9804850">
        <ele>81.2</ele>
        <time>2022-01-16T08:22:23Z</time>
      </trkpt>
      <trkpt lat="43.2990910" lon="-2.9805300">
        <ele>81.2</ele>
        <time>2022-01-16T08:22:24Z</time>
      </trkpt>
      <trkpt lat="43.2991750" lon="-2.9805780">
        <ele>80.8</ele>
        <time>2022-01-16T08:22:25Z</time>
      </trkpt>
      <trkpt lat="43.2992600" lon="-2.9806260">
        <ele>80.6</ele>
        <time>2022-01-16T08:22:26Z</time>
      </trkpt>
      <trkpt lat="43.2993450" lon="-2.9806730">
        <ele>80.2</ele>
        <time>2022-01-16T08:22:27Z</time>
      </trkpt>
      <trkpt lat="43.2994310" lon="-2.9807200">
        <ele>80.0</ele>
        <time>2022-01-16T08:22:28Z</time>
      </trkpt>
      <trkpt lat="43.2995180" lon="-2.9807650">
        <ele>79.8</ele>
        <time>2022-01-16T08:22:29Z</time>
      </trkpt>
      <trkpt lat="43.2996050" lon="-2.9808110">
        <ele>79.4</ele>
        <time>2022-01-16T08:22:30Z</time>
      </trkpt>
      <trkpt lat="43.2996910" lon="-2.9808570">
        <ele>79.2</ele>
        <time>2022-01-16T08:22:31Z</time>
      </trkpt>
      <trkpt lat="43.2997770" lon="-2.9809040">
        <ele>78.6</ele>
        <time>2022-01-16T08:22:32Z</time>
      </trkpt>
      <trkpt lat="43.2998620" lon="-2.9809530">
        <ele>78.6</ele>
        <time>2022-01-16T08:22:33Z</time>
      </trkpt>
      <trkpt lat="43.2999460" lon="-2.9810050">
        <ele>78.0</ele>
        <time>2022-01-16T08:22:34Z</time>
      </trkpt>
      <trkpt lat="43.3000300" lon="-2.9810570">
        <ele>77.6</ele>
        <time>2022-01-16T08:22:35Z</time>
      </trkpt>
      <trkpt lat="43.3001130" lon="-2.9811060">
        <ele>77.4</ele>
        <time>2022-01-16T08:22:36Z</time>
      </trkpt>
      <trkpt lat="43.3001970" lon="-2.9811560">
        <ele>77.2</ele>
        <time>2022-01-16T08:22:37Z</time>
      </trkpt>
      <trkpt lat="43.3002790" lon="-2.9812080">
        <ele>77.2</ele>
        <time>2022-01-16T08:22:38Z</time>
      </trkpt>
      <trkpt lat="43.3003610" lon="-2.9812610">
        <ele>77.2</ele>
        <time>2022-01-16T08:22:39Z</time>
      </trkpt>
      <trkpt lat="43.3004440" lon="-2.9813120">
        <ele>76.8</ele>
        <time>2022-01-16T08:22:40Z</time>
      </trkpt>
      <trkpt lat="43.3005280" lon="-2.9813550">
        <ele>76.6</ele>
        <time>2022-01-16T08:22:41Z</time>
      </trkpt>
      <trkpt lat="43.3006140" lon="-2.9813910">
        <ele>76.6</ele>
        <time>2022-01-16T08:22:42Z</time>
      </trkpt>
      <trkpt lat="43.3006990" lon="-2.9814240">
        <ele>76.2</ele>
        <time>2022-01-16T08:22:43Z</time>
      </trkpt>
      <trkpt lat="43.3007820" lon="-2.9814670">
        <ele>76.0</ele>
        <time>2022-01-16T08:22:44Z</time>
      </trkpt>
      <trkpt lat="43.3008610" lon="-2.9815240">
        <ele>75.8</ele>
        <time>2022-01-16T08:22:45Z</time>
      </trkpt>
      <trkpt lat="43.3009350" lon="-2.9815890">
        <ele>75.4</ele>
        <time>2022-01-16T08:22:46Z</time>
      </trkpt>
      <trkpt lat="43.3010090" lon="-2.9816530">
        <ele>75.4</ele>
        <time>2022-01-16T08:22:47Z</time>
      </trkpt>
      <trkpt lat="43.3010860" lon="-2.9817030">
        <ele>75.6</ele>
        <time>2022-01-16T08:22:48Z</time>
      </trkpt>
      <trkpt lat="43.3011660" lon="-2.9817430">
        <ele>75.6</ele>
        <time>2022-01-16T08:22:49Z</time>
      </trkpt>
      <trkpt lat="43.3012460" lon="-2.9817820">
        <ele>76.0</ele>
        <time>2022-01-16T08:22:50Z</time>
      </trkpt>
      <trkpt lat="43.3013240" lon="-2.9818200">
        <ele>76.0</ele>
        <time>2022-01-16T08:22:51Z</time>
      </trkpt>
      <trkpt lat="43.3014020" lon="-2.9818580">
        <ele>76.0</ele>
        <time>2022-01-16T08:22:52Z</time>
      </trkpt>
      <trkpt lat="43.3014820" lon="-2.9818970">
        <ele>76.0</ele>
        <time>2022-01-16T08:22:53Z</time>
      </trkpt>
      <trkpt lat="43.3015600" lon="-2.9819410">
        <ele>76.0</ele>
        <time>2022-01-16T08:22:54Z</time>
      </trkpt>
      <trkpt lat="43.3016400" lon="-2.9819820">
        <ele>76.0</ele>
        <time>2022-01-16T08:22:55Z</time>
      </trkpt>
      <trkpt lat="43.3017200" lon="-2.9820220">
        <ele>75.6</ele>
        <time>2022-01-16T08:22:56Z</time>
      </trkpt>
      <trkpt lat="43.3017990" lon="-2.9820640">
        <ele>75.6</ele>
        <time>2022-01-16T08:22:57Z</time>
      </trkpt>
      <trkpt lat="43.3018780" lon="-2.9821040">
        <ele>75.6</ele>
        <time>2022-01-16T08:22:58Z</time>
      </trkpt>
      <trkpt lat="43.3019580" lon="-2.9821470">
        <ele>75.6</ele>
        <time>2022-01-16T08:22:59Z</time>
      </trkpt>
      <trkpt lat="43.3020380" lon="-2.9821890">
        <ele>75.6</ele>
        <time>2022-01-16T08:23:00Z</time>
      </trkpt>
      <trkpt lat="43.3021150" lon="-2.9822330">
        <ele>75.6</ele>
        <time>2022-01-16T08:23:01Z</time>
      </trkpt>
      <trkpt lat="43.3021940" lon="-2.9822770">
        <ele>75.6</ele>
        <time>2022-01-16T08:23:02Z</time>
      </trkpt>
      <trkpt lat="43.3022610" lon="-2.9823190">
        <ele>75.6</ele>
        <time>2022-01-16T08:23:03Z</time>
      </trkpt>
      <trkpt lat="43.3023340" lon="-2.9823630">
        <ele>75.6</ele>
        <time>2022-01-16T08:23:04Z</time>
      </trkpt>
      <trkpt lat="43.3024070" lon="-2.9824060">
        <ele>75.6</ele>
        <time>2022-01-16T08:23:05Z</time>
      </trkpt>
      <trkpt lat="43.3024810" lon="-2.9824450">
        <ele>75.6</ele>
        <time>2022-01-16T08:23:06Z</time>
      </trkpt>
      <trkpt lat="43.3025550" lon="-2.9824820">
        <ele>75.6</ele>
        <time>2022-01-16T08:23:07Z</time>
      </trkpt>
      <trkpt lat="43.3026260" lon="-2.9825190">
        <ele>75.6</ele>
        <time>2022-01-16T08:23:08Z</time>
      </trkpt>
      <trkpt lat="43.3026960" lon="-2.9825530">
        <ele>75.6</ele>
        <time>2022-01-16T08:23:09Z</time>
      </trkpt>
      <trkpt lat="43.3027660" lon="-2.9825770">
        <ele>75.6</ele>
        <time>2022-01-16T08:23:10Z</time>
      </trkpt>
      <trkpt lat="43.3028360" lon="-2.9825810">
        <ele>75.6</ele>
        <time>2022-01-16T08:23:11Z</time>
      </trkpt>
      <trkpt lat="43.3029020" lon="-2.9825650">
        <ele>76.0</ele>
        <time>2022-01-16T08:23:12Z</time>
      </trkpt>
      <trkpt lat="43.3029680" lon="-2.9825420">
        <ele>76.0</ele>
        <time>2022-01-16T08:23:13Z</time>
      </trkpt>
      <trkpt lat="43.3030330" lon="-2.9825250">
        <ele>76.0</ele>
        <time>2022-01-16T08:23:14Z</time>
      </trkpt>
      <trkpt lat="43.3030970" lon="-2.9825150">
        <ele>76.6</ele>
        <time>2022-01-16T08:23:15Z</time>
      </trkpt>
      <trkpt lat="43.3031620" lon="-2.9825040">
        <ele>76.8</ele>
        <time>2022-01-16T08:23:16Z</time>
      </trkpt>
      <trkpt lat="43.3032250" lon="-2.9824830">
        <ele>77.2</ele>
        <time>2022-01-16T08:23:17Z</time>
      </trkpt>
      <trkpt lat="43.3032830" lon="-2.9824490">
        <ele>77.4</ele>
        <time>2022-01-16T08:23:18Z</time>
      </trkpt>
      <trkpt lat="43.3033350" lon="-2.9824000">
        <ele>77.6</ele>
        <time>2022-01-16T08:23:19Z</time>
      </trkpt>
      <trkpt lat="43.3033780" lon="-2.9823450">
        <ele>77.8</ele>
        <time>2022-01-16T08:23:20Z</time>
      </trkpt>
      <trkpt lat="43.3034170" lon="-2.9822860">
        <ele>78.0</ele>
        <time>2022-01-16T08:23:21Z</time>
      </trkpt>
      <trkpt lat="43.3034530" lon="-2.9822240">
        <ele>78.2</ele>
        <time>2022-01-16T08:23:22Z</time>
      </trkpt>
      <trkpt lat="43.3034870" lon="-2.9821630">
        <ele>78.4</ele>
        <time>2022-01-16T08:23:23Z</time>
      </trkpt>
      <trkpt lat="43.3035230" lon="-2.9821040">
        <ele>78.6</ele>
        <time>2022-01-16T08:23:24Z</time>
      </trkpt>
      <trkpt lat="43.3035610" lon="-2.9820450">
        <ele>78.8</ele>
        <time>2022-01-16T08:23:25Z</time>
      </trkpt>
      <trkpt lat="43.3035990" lon="-2.9819900">
        <ele>79.0</ele>
        <time>2022-01-16T08:23:26Z</time>
      </trkpt>
      <trkpt lat="43.3036400" lon="-2.9819370">
        <ele>79.4</ele>
        <time>2022-01-16T08:23:27Z</time>
      </trkpt>
      <trkpt lat="43.3036880" lon="-2.9818860">
        <ele>79.6</ele>
        <time>2022-01-16T08:23:28Z</time>
      </trkpt>
      <trkpt lat="43.3037330" lon="-2.9818350">
        <ele>79.8</ele>
        <time>2022-01-16T08:23:29Z</time>
      </trkpt>
      <trkpt lat="43.3037780" lon="-2.9817860">
        <ele>80.0</ele>
        <time>2022-01-16T08:23:30Z</time>
      </trkpt>
      <trkpt lat="43.3038240" lon="-2.9817420">
        <ele>80.2</ele>
        <time>2022-01-16T08:23:31Z</time>
      </trkpt>
      <trkpt lat="43.3038670" lon="-2.9816940">
        <ele>80.4</ele>
        <time>2022-01-16T08:23:32Z</time>
      </trkpt>
      <trkpt lat="43.3039140" lon="-2.9816490">
        <ele>80.6</ele>
        <time>2022-01-16T08:23:33Z</time>
      </trkpt>
      <trkpt lat="43.3039620" lon="-2.9816040">
        <ele>80.8</ele>
        <time>2022-01-16T08:23:34Z</time>
      </trkpt>
      <trkpt lat="43.3040140" lon="-2.9815640">
        <ele>81.0</ele>
        <time>2022-01-16T08:23:35Z</time>
      </trkpt>
      <trkpt lat="43.3040670" lon="-2.9815240">
        <ele>81.2</ele>
        <time>2022-01-16T08:23:36Z</time>
      </trkpt>
      <trkpt lat="43.3041210" lon="-2.9814780">
        <ele>81.2</ele>
        <time>2022-01-16T08:23:37Z</time>
      </trkpt>
      <trkpt lat="43.3041750" lon="-2.9814340">
        <ele>81.6</ele>
        <time>2022-01-16T08:23:38Z</time>
      </trkpt>
      <trkpt lat="43.3042290" lon="-2.9813930">
        <ele>81.8</ele>
        <time>2022-01-16T08:23:39Z</time>
      </trkpt>
      <trkpt lat="43.3042870" lon="-2.9813550">
        <ele>82.0</ele>
        <time>2022-01-16T08:23:40Z</time>
      </trkpt>
      <trkpt lat="43.3043450" lon="-2.9813180">
        <ele>82.0</ele>
        <time>2022-01-16T08:23:41Z</time>
      </trkpt>
      <trkpt lat="43.3044060" lon="-2.9812820">
        <ele>82.2</ele>
        <time>2022-01-16T08:23:42Z</time>
      </trkpt>
      <trkpt lat="43.3044670" lon="-2.9812480">
        <ele>82.4</ele>
        <time>2022-01-16T08:23:43Z</time>
      </trkpt>
      <trkpt lat="43.3045310" lon="-2.9812160">
        <ele>82.4</ele>
        <time>2022-01-16T08:23:44Z</time>
      </trkpt>
      <trkpt lat="43.3045960" lon="-2.9811840">
        <ele>82.6</ele>
        <time>2022-01-16T08:23:45Z</time>
      </trkpt>
      <trkpt lat="43.3046620" lon="-2.9811560">
        <ele>82.6</ele>
        <time>2022-01-16T08:23:46Z</time>
      </trkpt>
      <trkpt lat="43.3047300" lon="-2.9811300">
        <ele>82.8</ele>
        <time>2022-01-16T08:23:47Z</time>
      </trkpt>
      <trkpt lat="43.3047960" lon="-2.9811030">
        <ele>82.8</ele>
        <time>2022-01-16T08:23:48Z</time>
      </trkpt>
      <trkpt lat="43.3048600" lon="-2.9810630">
        <ele>83.0</ele>
        <time>2022-01-16T08:23:49Z</time>
      </trkpt>
      <trkpt lat="43.3049180" lon="-2.9810060">
        <ele>83.4</ele>
        <time>2022-01-16T08:23:50Z</time>
      </trkpt>
      <trkpt lat="43.3049700" lon="-2.9809350">
        <ele>83.8</ele>
        <time>2022-01-16T08:23:51Z</time>
      </trkpt>
      <trkpt lat="43.3050190" lon="-2.9808570">
        <ele>83.8</ele>
        <time>2022-01-16T08:23:52Z</time>
      </trkpt>
      <trkpt lat="43.3050680" lon="-2.9807750">
        <ele>83.8</ele>
        <time>2022-01-16T08:23:53Z</time>
      </trkpt>
      <trkpt lat="43.3051210" lon="-2.9806940">
        <ele>84.0</ele>
        <time>2022-01-16T08:23:54Z</time>
      </trkpt>
      <trkpt lat="43.3051860" lon="-2.9806250">
        <ele>84.4</ele>
        <time>2022-01-16T08:23:55Z</time>
      </trkpt>
      <trkpt lat="43.3052590" lon="-2.9805750">
        <ele>84.4</ele>
        <time>2022-01-16T08:23:56Z</time>
      </trkpt>
      <trkpt lat="43.3053390" lon="-2.9805560">
        <ele>84.4</ele>
        <time>2022-01-16T08:23:57Z</time>
      </trkpt>
      <trkpt lat="43.3054200" lon="-2.9805740">
        <ele>84.4</ele>
        <time>2022-01-16T08:23:58Z</time>
      </trkpt>
      <trkpt lat="43.3054910" lon="-2.9806280">
        <ele>84.0</ele>
        <time>2022-01-16T08:23:59Z</time>
      </trkpt>
      <trkpt lat="43.3055500" lon="-2.9807100">
        <ele>84.0</ele>
        <time>2022-01-16T08:24:00Z</time>
      </trkpt>
      <trkpt lat="43.3055880" lon="-2.9808140">
        <ele>83.8</ele>
        <time>2022-01-16T08:24:01Z</time>
      </trkpt>
      <trkpt lat="43.3056070" lon="-2.9809330">
        <ele>83.8</ele>
        <time>2022-01-16T08:24:02Z</time>
      </trkpt>
      <trkpt lat="43.3056080" lon="-2.9810560">
        <ele>83.4</ele>
        <time>2022-01-16T08:24:03Z</time>
      </trkpt>
      <trkpt lat="43.3055960" lon="-2.9811780">
        <ele>83.2</ele>
        <time>2022-01-16T08:24:04Z</time>
      </trkpt>
      <trkpt lat="43.3055790" lon="-2.9812960">
        <ele>83.2</ele>
        <time>2022-01-16T08:24:05Z</time>
      </trkpt>
      <trkpt lat="43.3055610" lon="-2.9814140">
        <ele>83.2</ele>
        <time>2022-01-16T08:24:06Z</time>
      </trkpt>
      <trkpt lat="43.3055480" lon="-2.9815370">
        <ele>83.0</ele>
        <time>2022-01-16T08:24:07Z</time>
      </trkpt>
      <trkpt lat="43.3055420" lon="-2.9816630">
        <ele>83.0</ele>
        <time>2022-01-16T08:24:08Z</time>
      </trkpt>
      <trkpt lat="43.3055420" lon="-2.9817900">
        <ele>82.8</ele>
        <time>2022-01-16T08:24:09Z</time>
      </trkpt>
      <trkpt lat="43.3055470" lon="-2.9819180">
        <ele>82.6</ele>
        <time>2022-01-16T08:24:10Z</time>
      </trkpt>
      <trkpt lat="43.3055540" lon="-2.9820470">
        <ele>82.6</ele>
        <time>2022-01-16T08:24:11Z</time>
      </trkpt>
      <trkpt lat="43.3055640" lon="-2.9821760">
        <ele>82.4</ele>
        <time>2022-01-16T08:24:12Z</time>
      </trkpt>
      <trkpt lat="43.3055810" lon="-2.9823060">
        <ele>82.4</ele>
        <time>2022-01-16T08:24:13Z</time>
      </trkpt>
      <trkpt lat="43.3056010" lon="-2.9824340">
        <ele>82.2</ele>
        <time>2022-01-16T08:24:14Z</time>
      </trkpt>
      <trkpt lat="43.3056210" lon="-2.9825630">
        <ele>82.2</ele>
        <time>2022-01-16T08:24:15Z</time>
      </trkpt>
      <trkpt lat="43.3056420" lon="-2.9826910">
        <ele>82.2</ele>
        <time>2022-01-16T08:24:16Z</time>
      </trkpt>
      <trkpt lat="43.3056610" lon="-2.9828180">
        <ele>82.2</ele>
        <time>2022-01-16T08:24:17Z</time>
      </trkpt>
      <trkpt lat="43.3056780" lon="-2.9829450">
        <ele>82.2</ele>
        <time>2022-01-16T08:24:18Z</time>
      </trkpt>
      <trkpt lat="43.3056970" lon="-2.9830710">
        <ele>82.2</ele>
        <time>2022-01-16T08:24:19Z</time>
      </trkpt>
      <trkpt lat="43.3057170" lon="-2.9831950">
        <ele>82.4</ele>
        <time>2022-01-16T08:24:20Z</time>
      </trkpt>
      <trkpt lat="43.3057360" lon="-2.9833200">
        <ele>82.4</ele>
        <time>2022-01-16T08:24:21Z</time>
      </trkpt>
      <trkpt lat="43.3057540" lon="-2.9834460">
        <ele>82.6</ele>
        <time>2022-01-16T08:24:22Z</time>
      </trkpt>
      <trkpt lat="43.3057730" lon="-2.9835690">
        <ele>82.6</ele>
        <time>2022-01-16T08:24:23Z</time>
      </trkpt>
      <trkpt lat="43.3057930" lon="-2.9836940">
        <ele>82.6</ele>
        <time>2022-01-16T08:24:24Z</time>
      </trkpt>
      <trkpt lat="43.3058120" lon="-2.9838180">
        <ele>82.6</ele>
        <time>2022-01-16T08:24:25Z</time>
      </trkpt>
      <trkpt lat="43.3058310" lon="-2.9839420">
        <ele>82.6</ele>
        <time>2022-01-16T08:24:26Z</time>
      </trkpt>
      <trkpt lat="43.3058490" lon="-2.9840650">
        <ele>82.8</ele>
        <time>2022-01-16T08:24:27Z</time>
      </trkpt>
      <trkpt lat="43.3058670" lon="-2.9841890">
        <ele>82.8</ele>
        <time>2022-01-16T08:24:28Z</time>
      </trkpt>
      <trkpt lat="43.3058870" lon="-2.9843130">
        <ele>83.0</ele>
        <time>2022-01-16T08:24:29Z</time>
      </trkpt>
      <trkpt lat="43.3059050" lon="-2.9844400">
        <ele>83.0</ele>
        <time>2022-01-16T08:24:30Z</time>
      </trkpt>
      <trkpt lat="43.3059230" lon="-2.9845670">
        <ele>83.2</ele>
        <time>2022-01-16T08:24:31Z</time>
      </trkpt>
      <trkpt lat="43.3059420" lon="-2.9846930">
        <ele>83.2</ele>
        <time>2022-01-16T08:24:32Z</time>
      </trkpt>
      <trkpt lat="43.3059620" lon="-2.9848180">
        <ele>83.2</ele>
        <time>2022-01-16T08:24:33Z</time>
      </trkpt>
      <trkpt lat="43.3059810" lon="-2.9849390">
        <ele>83.2</ele>
        <time>2022-01-16T08:24:34Z</time>
      </trkpt>
      <trkpt lat="43.3060000" lon="-2.9850620">
        <ele>83.2</ele>
        <time>2022-01-16T08:24:35Z</time>
      </trkpt>
      <trkpt lat="43.3060180" lon="-2.9851810">
        <ele>83.2</ele>
        <time>2022-01-16T08:24:36Z</time>
      </trkpt>
      <trkpt lat="43.3060370" lon="-2.9852980">
        <ele>83.2</ele>
        <time>2022-01-16T08:24:37Z</time>
      </trkpt>
      <trkpt lat="43.3060560" lon="-2.9854130">
        <ele>83.2</ele>
        <time>2022-01-16T08:24:38Z</time>
      </trkpt>
      <trkpt lat="43.3060730" lon="-2.9855290">
        <ele>83.4</ele>
        <time>2022-01-16T08:24:39Z</time>
      </trkpt>
      <trkpt lat="43.3060880" lon="-2.9856440">
        <ele>83.4</ele>
        <time>2022-01-16T08:24:40Z</time>
      </trkpt>
      <trkpt lat="43.3061010" lon="-2.9857570">
        <ele>83.4</ele>
        <time>2022-01-16T08:24:41Z</time>
      </trkpt>
      <trkpt lat="43.3061140" lon="-2.9858670">
        <ele>83.6</ele>
        <time>2022-01-16T08:24:42Z</time>
      </trkpt>
      <trkpt lat="43.3061290" lon="-2.9859740">
        <ele>83.6</ele>
        <time>2022-01-16T08:24:43Z</time>
      </trkpt>
      <trkpt lat="43.3061370" lon="-2.9860900">
        <ele>83.4</ele>
        <time>2022-01-16T08:24:44Z</time>
      </trkpt>
      <trkpt lat="43.3061480" lon="-2.9861990">
        <ele>83.4</ele>
        <time>2022-01-16T08:24:45Z</time>
      </trkpt>
      <trkpt lat="43.3061570" lon="-2.9863100">
        <ele>83.4</ele>
        <time>2022-01-16T08:24:46Z</time>
      </trkpt>
      <trkpt lat="43.3061680" lon="-2.9864210">
        <ele>83.4</ele>
        <time>2022-01-16T08:24:47Z</time>
      </trkpt>
      <trkpt lat="43.3061730" lon="-2.9865340">
        <ele>83.2</ele>
        <time>2022-01-16T08:24:48Z</time>
      </trkpt>
      <trkpt lat="43.3061700" lon="-2.9866460">
        <ele>83.2</ele>
        <time>2022-01-16T08:24:49Z</time>
      </trkpt>
      <trkpt lat="43.3061560" lon="-2.9867570">
        <ele>83.0</ele>
        <time>2022-01-16T08:24:50Z</time>
      </trkpt>
      <trkpt lat="43.3061290" lon="-2.9868640">
        <ele>83.0</ele>
        <time>2022-01-16T08:24:51Z</time>
      </trkpt>
      <trkpt lat="43.3060940" lon="-2.9869660">
        <ele>83.2</ele>
        <time>2022-01-16T08:24:52Z</time>
      </trkpt>
      <trkpt lat="43.3060610" lon="-2.9870630">
        <ele>83.2</ele>
        <time>2022-01-16T08:24:53Z</time>
      </trkpt>
      <trkpt lat="43.3060340" lon="-2.9871630">
        <ele>83.4</ele>
        <time>2022-01-16T08:24:54Z</time>
      </trkpt>
      <trkpt lat="43.3060150" lon="-2.9872650">
        <ele>83.6</ele>
        <time>2022-01-16T08:24:55Z</time>
      </trkpt>
      <trkpt lat="43.3060040" lon="-2.9873650">
        <ele>83.8</ele>
        <time>2022-01-16T08:24:56Z</time>
      </trkpt>
      <trkpt lat="43.3059990" lon="-2.9874620">
        <ele>84.2</ele>
        <time>2022-01-16T08:24:57Z</time>
      </trkpt>
      <trkpt lat="43.3060000" lon="-2.9875570">
        <ele>84.6</ele>
        <time>2022-01-16T08:24:58Z</time>
      </trkpt>
      <trkpt lat="43.3060060" lon="-2.9876510">
        <ele>84.8</ele>
        <time>2022-01-16T08:24:59Z</time>
      </trkpt>
      <trkpt lat="43.3060210" lon="-2.9877410">
        <ele>84.8</ele>
        <time>2022-01-16T08:25:00Z</time>
      </trkpt>
      <trkpt lat="43.3060420" lon="-2.9878240">
        <ele>84.8</ele>
        <time>2022-01-16T08:25:01Z</time>
      </trkpt>
      <trkpt lat="43.3060650" lon="-2.9879030">
        <ele>84.8</ele>
        <time>2022-01-16T08:25:02Z</time>
      </trkpt>
      <trkpt lat="43.3060840" lon="-2.9879770">
        <ele>84.8</ele>
        <time>2022-01-16T08:25:03Z</time>
      </trkpt>
      <trkpt lat="43.3061010" lon="-2.9880450">
        <ele>84.8</ele>
        <time>2022-01-16T08:25:04Z</time>
      </trkpt>
      <trkpt lat="43.3061200" lon="-2.9881040">
        <ele>84.8</ele>
        <time>2022-01-16T08:25:05Z</time>
      </trkpt>
      <trkpt lat="43.3061360" lon="-2.9881660">
        <ele>84.6</ele>
        <time>2022-01-16T08:25:06Z</time>
      </trkpt>
      <trkpt lat="43.3061480" lon="-2.9882300">
        <ele>84.6</ele>
        <time>2022-01-16T08:25:07Z</time>
      </trkpt>
      <trkpt lat="43.3061550" lon="-2.9882940">
        <ele>85.0</ele>
        <time>2022-01-16T08:25:08Z</time>
      </trkpt>
      <trkpt lat="43.3061520" lon="-2.9883540">
        <ele>85.0</ele>
        <time>2022-01-16T08:25:09Z</time>
      </trkpt>
      <trkpt lat="43.3061360" lon="-2.9884140">
        <ele>85.0</ele>
        <time>2022-01-16T08:25:10Z</time>
      </trkpt>
      <trkpt lat="43.3061090" lon="-2.9884590">
        <ele>84.8</ele>
        <time>2022-01-16T08:25:11Z</time>
      </trkpt>
      <trkpt lat="43.3060730" lon="-2.9885030">
        <ele>84.8</ele>
        <time>2022-01-16T08:25:12Z</time>
      </trkpt>
      <trkpt lat="43.3060310" lon="-2.9885420">
        <ele>84.8</ele>
        <time>2022-01-16T08:25:13Z</time>
      </trkpt>
      <trkpt lat="43.3059860" lon="-2.9885840">
        <ele>84.6</ele>
        <time>2022-01-16T08:25:14Z</time>
      </trkpt>
      <trkpt lat="43.3059390" lon="-2.9886350">
        <ele>84.4</ele>
        <time>2022-01-16T08:25:15Z</time>
      </trkpt>
      <trkpt lat="43.3058900" lon="-2.9886920">
        <ele>84.4</ele>
        <time>2022-01-16T08:25:16Z</time>
      </trkpt>
      <trkpt lat="43.3058370" lon="-2.9887510">
        <ele>83.8</ele>
        <time>2022-01-16T08:25:17Z</time>
      </trkpt>
      <trkpt lat="43.3057890" lon="-2.9888150">
        <ele>83.2</ele>
        <time>2022-01-16T08:25:18Z</time>
      </trkpt>
      <trkpt lat="43.3057460" lon="-2.9888940">
        <ele>82.6</ele>
        <time>2022-01-16T08:25:19Z</time>
      </trkpt>
      <trkpt lat="43.3057160" lon="-2.9889810">
        <ele>81.8</ele>
        <time>2022-01-16T08:25:20Z</time>
      </trkpt>
      <trkpt lat="43.3057000" lon="-2.9890740">
        <ele>81.4</ele>
        <time>2022-01-16T08:25:21Z</time>
      </trkpt>
      <trkpt lat="43.3056990" lon="-2.9891660">
        <ele>81.2</ele>
        <time>2022-01-16T08:25:22Z</time>
      </trkpt>
      <trkpt lat="43.3057120" lon="-2.9892580">
        <ele>81.0</ele>
        <time>2022-01-16T08:25:23Z</time>
      </trkpt>
      <trkpt lat="43.3057380" lon="-2.9893490">
        <ele>80.4</ele>
        <time>2022-01-16T08:25:24Z</time>
      </trkpt>
      <trkpt lat="43.3057780" lon="-2.9894370">
        <ele>79.8</ele>
        <time>2022-01-16T08:25:25Z</time>
      </trkpt>
      <trkpt lat="43.3058280" lon="-2.9895180">
        <ele>79.2</ele>
        <time>2022-01-16T08:25:26Z</time>
      </trkpt>
      <trkpt lat="43.3058850" lon="-2.9895950">
        <ele>78.6</ele>
        <time>2022-01-16T08:25:27Z</time>
      </trkpt>
      <trkpt lat="43.3059470" lon="-2.9896650">
        <ele>78.0</ele>
        <time>2022-01-16T08:25:28Z</time>
      </trkpt>
      <trkpt lat="43.3060090" lon="-2.9897330">
        <ele>77.6</ele>
        <time>2022-01-16T08:25:29Z</time>
      </trkpt>
      <trkpt lat="43.3060710" lon="-2.9898000">
        <ele>77.6</ele>
        <time>2022-01-16T08:25:30Z</time>
      </trkpt>
      <trkpt lat="43.3061300" lon="-2.9898680">
        <ele>77.6</ele>
        <time>2022-01-16T08:25:31Z</time>
      </trkpt>
      <trkpt lat="43.3061890" lon="-2.9899330">
        <ele>77.4</ele>
        <time>2022-01-16T08:25:32Z</time>
      </trkpt>
      <trkpt lat="43.3062430" lon="-2.9900050">
        <ele>77.4</ele>
        <time>2022-01-16T08:25:33Z</time>
      </trkpt>
      <trkpt lat="43.3062910" lon="-2.9900860">
        <ele>77.4</ele>
        <time>2022-01-16T08:25:34Z</time>
      </trkpt>
      <trkpt lat="43.3063320" lon="-2.9901720">
        <ele>77.2</ele>
        <time>2022-01-16T08:25:35Z</time>
      </trkpt>
      <trkpt lat="43.3063660" lon="-2.9902660">
        <ele>77.2</ele>
        <time>2022-01-16T08:25:36Z</time>
      </trkpt>
      <trkpt lat="43.3063940" lon="-2.9903650">
        <ele>77.2</ele>
        <time>2022-01-16T08:25:37Z</time>
      </trkpt>
      <trkpt lat="43.3064200" lon="-2.9904650">
        <ele>77.2</ele>
        <time>2022-01-16T08:25:38Z</time>
      </trkpt>
      <trkpt lat="43.3064440" lon="-2.9905650">
        <ele>77.0</ele>
        <time>2022-01-16T08:25:39Z</time>
      </trkpt>
      <trkpt lat="43.3064620" lon="-2.9906620">
        <ele>77.0</ele>
        <time>2022-01-16T08:25:40Z</time>
      </trkpt>
      <trkpt lat="43.3064730" lon="-2.9907610">
        <ele>76.8</ele>
        <time>2022-01-16T08:25:41Z</time>
      </trkpt>
      <trkpt lat="43.3064840" lon="-2.9908650">
        <ele>76.8</ele>
        <time>2022-01-16T08:25:42Z</time>
      </trkpt>
      <trkpt lat="43.3064940" lon="-2.9909660">
        <ele>76.6</ele>
        <time>2022-01-16T08:25:43Z</time>
      </trkpt>
      <trkpt lat="43.3065040" lon="-2.9910650">
        <ele>76.6</ele>
        <time>2022-01-16T08:25:44Z</time>
      </trkpt>
      <trkpt lat="43.3065160" lon="-2.9911620">
        <ele>76.4</ele>
        <time>2022-01-16T08:25:45Z</time>
      </trkpt>
      <trkpt lat="43.3065240" lon="-2.9912560">
        <ele>76.4</ele>
        <time>2022-01-16T08:25:46Z</time>
      </trkpt>
      <trkpt lat="43.3065320" lon="-2.9913490">
        <ele>76.4</ele>
        <time>2022-01-16T08:25:47Z</time>
      </trkpt>
      <trkpt lat="43.3065410" lon="-2.9914410">
        <ele>76.4</ele>
        <time>2022-01-16T08:25:48Z</time>
      </trkpt>
      <trkpt lat="43.3065470" lon="-2.9915340">
        <ele>76.0</ele>
        <time>2022-01-16T08:25:49Z</time>
      </trkpt>
      <trkpt lat="43.3065550" lon="-2.9916330">
        <ele>75.8</ele>
        <time>2022-01-16T08:25:50Z</time>
      </trkpt>
      <trkpt lat="43.3065600" lon="-2.9917290">
        <ele>75.8</ele>
        <time>2022-01-16T08:25:51Z</time>
      </trkpt>
      <trkpt lat="43.3065610" lon="-2.9918250">
        <ele>75.8</ele>
        <time>2022-01-16T08:25:52Z</time>
      </trkpt>
      <trkpt lat="43.3065660" lon="-2.9919310">
        <ele>75.6</ele>
        <time>2022-01-16T08:25:53Z</time>
      </trkpt>
      <trkpt lat="43.3065680" lon="-2.9920290">
        <ele>75.8</ele>
        <time>2022-01-16T08:25:54Z</time>
      </trkpt>
      <trkpt lat="43.3065710" lon="-2.9921310">
        <ele>75.8</ele>
        <time>2022-01-16T08:25:55Z</time>
      </trkpt>
      <trkpt lat="43.3065780" lon="-2.9922380">
        <ele>75.8</ele>
        <time>2022-01-16T08:25:56Z</time>
      </trkpt>
      <trkpt lat="43.3065850" lon="-2.9923380">
        <ele>75.6</ele>
        <time>2022-01-16T08:25:57Z</time>
      </trkpt>
      <trkpt lat="43.3065910" lon="-2.9924320">
        <ele>75.6</ele>
        <time>2022-01-16T08:25:58Z</time>
      </trkpt>
      <trkpt lat="43.3066090" lon="-2.9925030">
        <ele>75.6</ele>
        <time>2022-01-16T08:25:59Z</time>
      </trkpt>
      <trkpt lat="43.3066140" lon="-2.9925910">
        <ele>75.6</ele>
        <time>2022-01-16T08:26:00Z</time>
      </trkpt>
      <trkpt lat="43.3066120" lon="-2.9926780">
        <ele>75.4</ele>
        <time>2022-01-16T08:26:01Z</time>
      </trkpt>
      <trkpt lat="43.3066140" lon="-2.9927660">
        <ele>75.4</ele>
        <time>2022-01-16T08:26:02Z</time>
      </trkpt>
      <trkpt lat="43.3066180" lon="-2.9928490">
        <ele>75.6</ele>
        <time>2022-01-16T08:26:03Z</time>
      </trkpt>
      <trkpt lat="43.3066220" lon="-2.9929330">
        <ele>75.6</ele>
        <time>2022-01-16T08:26:04Z</time>
      </trkpt>
      <trkpt lat="43.3066300" lon="-2.9930150">
        <ele>75.8</ele>
        <time>2022-01-16T08:26:05Z</time>
      </trkpt>
      <trkpt lat="43.3066430" lon="-2.9931040">
        <ele>76.0</ele>
        <time>2022-01-16T08:26:06Z</time>
      </trkpt>
      <trkpt lat="43.3066570" lon="-2.9932130">
        <ele>76.4</ele>
        <time>2022-01-16T08:26:07Z</time>
      </trkpt>
      <trkpt lat="43.3066690" lon="-2.9933030">
        <ele>76.8</ele>
        <time>2022-01-16T08:26:08Z</time>
      </trkpt>
      <trkpt lat="43.3066810" lon="-2.9933780">
        <ele>77.2</ele>
        <time>2022-01-16T08:26:09Z</time>
      </trkpt>
      <trkpt lat="43.3066900" lon="-2.9934400">
        <ele>77.4</ele>
        <time>2022-01-16T08:26:10Z</time>
      </trkpt>
      <trkpt lat="43.3067030" lon="-2.9935090">
        <ele>77.6</ele>
        <time>2022-01-16T08:26:11Z</time>
      </trkpt>
      <trkpt lat="43.3067180" lon="-2.9935760">
        <ele>78.0</ele>
        <time>2022-01-16T08:26:12Z</time>
      </trkpt>
      <trkpt lat="43.3067310" lon="-2.9936440">
        <ele>78.2</ele>
        <time>2022-01-16T08:26:13Z</time>
      </trkpt>
      <trkpt lat="43.3067460" lon="-2.9937070">
        <ele>78.6</ele>
        <time>2022-01-16T08:26:14Z</time>
      </trkpt>
      <trkpt lat="43.3067550" lon="-2.9937650">
        <ele>78.8</ele>
        <time>2022-01-16T08:26:15Z</time>
      </trkpt>
      <trkpt lat="43.3067720" lon="-2.9938230">
        <ele>79.0</ele>
        <time>2022-01-16T08:26:16Z</time>
      </trkpt>
      <trkpt lat="43.3067910" lon="-2.9938800">
        <ele>79.4</ele>
        <time>2022-01-16T08:26:17Z</time>
      </trkpt>
      <trkpt lat="43.3068080" lon="-2.9939350">
        <ele>79.6</ele>
        <time>2022-01-16T08:26:18Z</time>
      </trkpt>
      <trkpt lat="43.3068230" lon="-2.9939890">
        <ele>79.8</ele>
        <time>2022-01-16T08:26:19Z</time>
      </trkpt>
      <trkpt lat="43.3068370" lon="-2.9940460">
        <ele>80.2</ele>
        <time>2022-01-16T08:26:20Z</time>
      </trkpt>
      <trkpt lat="43.3068500" lon="-2.9941020">
        <ele>80.4</ele>
        <time>2022-01-16T08:26:21Z</time>
      </trkpt>
      <trkpt lat="43.3068610" lon="-2.9941570">
        <ele>80.8</ele>
        <time>2022-01-16T08:26:22Z</time>
      </trkpt>
      <trkpt lat="43.3068750" lon="-2.9942160">
        <ele>81.2</ele>
        <time>2022-01-16T08:26:23Z</time>
      </trkpt>
      <trkpt lat="43.3068860" lon="-2.9942730">
        <ele>81.4</ele>
        <time>2022-01-16T08:26:24Z</time>
      </trkpt>
      <trkpt lat="43.3068960" lon="-2.9943300">
        <ele>81.6</ele>
        <time>2022-01-16T08:26:25Z</time>
      </trkpt>
      <trkpt lat="43.3069020" lon="-2.9943900">
        <ele>81.8</ele>
        <time>2022-01-16T08:26:26Z</time>
      </trkpt>
      <trkpt lat="43.3069070" lon="-2.9944500">
        <ele>82.0</ele>
        <time>2022-01-16T08:26:27Z</time>
      </trkpt>
      <trkpt lat="43.3069090" lon="-2.9945080">
        <ele>82.2</ele>
        <time>2022-01-16T08:26:28Z</time>
      </trkpt>
      <trkpt lat="43.3069090" lon="-2.9945650">
        <ele>82.6</ele>
        <time>2022-01-16T08:26:29Z</time>
      </trkpt>
      <trkpt lat="43.3069080" lon="-2.9946230">
        <ele>83.0</ele>
        <time>2022-01-16T08:26:30Z</time>
      </trkpt>
      <trkpt lat="43.3069040" lon="-2.9946810">
        <ele>83.4</ele>
        <time>2022-01-16T08:26:31Z</time>
      </trkpt>
      <trkpt lat="43.3068940" lon="-2.9947370">
        <ele>83.8</ele>
        <time>2022-01-16T08:26:32Z</time>
      </trkpt>
      <trkpt lat="43.3068790" lon="-2.9947910">
        <ele>84.0</ele>
        <time>2022-01-16T08:26:33Z</time>
      </trkpt>
      <trkpt lat="43.3068620" lon="-2.9948440">
        <ele>84.2</ele>
        <time>2022-01-16T08:26:34Z</time>
      </trkpt>
      <trkpt lat="43.3068430" lon="-2.9948940">
        <ele>84.4</ele>
        <time>2022-01-16T08:26:35Z</time>
      </trkpt>
      <trkpt lat="43.3068200" lon="-2.9949420">
        <ele>84.6</ele>
        <time>2022-01-16T08:26:36Z</time>
      </trkpt>
      <trkpt lat="43.3067960" lon="-2.9949900">
        <ele>84.8</ele>
        <time>2022-01-16T08:26:37Z</time>
      </trkpt>
      <trkpt lat="43.3067700" lon="-2.9950340">
        <ele>85.0</ele>
        <time>2022-01-16T08:26:38Z</time>
      </trkpt>
      <trkpt lat="43.3067360" lon="-2.9950740">
        <ele>85.0</ele>
        <time>2022-01-16T08:26:39Z</time>
      </trkpt>
      <trkpt lat="43.3067000" lon="-2.9951070">
        <ele>85.2</ele>
        <time>2022-01-16T08:26:40Z</time>
      </trkpt>
      <trkpt lat="43.3066660" lon="-2.9951360">
        <ele>85.2</ele>
        <time>2022-01-16T08:26:41Z</time>
      </trkpt>
      <trkpt lat="43.3066260" lon="-2.9951720">
        <ele>85.4</ele>
        <time>2022-01-16T08:26:42Z</time>
      </trkpt>
      <trkpt lat="43.3065880" lon="-2.9952160">
        <ele>85.6</ele>
        <time>2022-01-16T08:26:43Z</time>
      </trkpt>
      <trkpt lat="43.3065490" lon="-2.9952590">
        <ele>85.6</ele>
        <time>2022-01-16T08:26:44Z</time>
      </trkpt>
      <trkpt lat="43.3065100" lon="-2.9953050">
        <ele>86.0</ele>
        <time>2022-01-16T08:26:45Z</time>
      </trkpt>
      <trkpt lat="43.3064700" lon="-2.9953520">
        <ele>86.0</ele>
        <time>2022-01-16T08:26:46Z</time>
      </trkpt>
      <trkpt lat="43.3064330" lon="-2.9954050">
        <ele>86.0</ele>
        <time>2022-01-16T08:26:47Z</time>
      </trkpt>
      <trkpt lat="43.3063980" lon="-2.9954610">
        <ele>85.8</ele>
        <time>2022-01-16T08:26:48Z</time>
      </trkpt>
      <trkpt lat="43.3063660" lon="-2.9955200">
        <ele>85.6</ele>
        <time>2022-01-16T08:26:49Z</time>
      </trkpt>
      <trkpt lat="43.3063360" lon="-2.9955860">
        <ele>85.6</ele>
        <time>2022-01-16T08:26:50Z</time>
      </trkpt>
      <trkpt lat="43.3063140" lon="-2.9956570">
        <ele>85.4</ele>
        <time>2022-01-16T08:26:51Z</time>
      </trkpt>
      <trkpt lat="43.3063020" lon="-2.9957360">
        <ele>85.2</ele>
        <time>2022-01-16T08:26:52Z</time>
      </trkpt>
      <trkpt lat="43.3062960" lon="-2.9958200">
        <ele>85.2</ele>
        <time>2022-01-16T08:26:53Z</time>
      </trkpt>
      <trkpt lat="43.3062930" lon="-2.9959020">
        <ele>85.2</ele>
        <time>2022-01-16T08:26:54Z</time>
      </trkpt>
      <trkpt lat="43.3062910" lon="-2.9959800">
        <ele>85.0</ele>
        <time>2022-01-16T08:26:55Z</time>
      </trkpt>
      <trkpt lat="43.3062920" lon="-2.9960570">
        <ele>84.8</ele>
        <time>2022-01-16T08:26:56Z</time>
      </trkpt>
      <trkpt lat="43.3062930" lon="-2.9961360">
        <ele>84.8</ele>
        <time>2022-01-16T08:26:57Z</time>
      </trkpt>
      <trkpt lat="43.3062950" lon="-2.9962140">
        <ele>84.8</ele>
        <time>2022-01-16T08:26:58Z</time>
      </trkpt>
      <trkpt lat="43.3062930" lon="-2.9962920">
        <ele>84.6</ele>
        <time>2022-01-16T08:26:59Z</time>
      </trkpt>
      <trkpt lat="43.3062950" lon="-2.9963670">
        <ele>84.6</ele>
        <time>2022-01-16T08:27:00Z</time>
      </trkpt>
      <trkpt lat="43.3062970" lon="-2.9964490">
        <ele>84.6</ele>
        <time>2022-01-16T08:27:01Z</time>
      </trkpt>
      <trkpt lat="43.3063010" lon="-2.9965320">
        <ele>84.6</ele>
        <time>2022-01-16T08:27:02Z</time>
      </trkpt>
      <trkpt lat="43.3063020" lon="-2.9966150">
        <ele>84.6</ele>
        <time>2022-01-16T08:27:03Z</time>
      </trkpt>
      <trkpt lat="43.3063040" lon="-2.9966980">
        <ele>84.6</ele>
        <time>2022-01-16T08:27:04Z</time>
      </trkpt>
      <trkpt lat="43.3063040" lon="-2.9967810">
        <ele>84.6</ele>
        <time>2022-01-16T08:27:05Z</time>
      </trkpt>
      <trkpt lat="43.3063040" lon="-2.9968640">
        <ele>84.4</ele>
        <time>2022-01-16T08:27:06Z</time>
      </trkpt>
      <trkpt lat="43.3063020" lon="-2.9969470">
        <ele>84.4</ele>
        <time>2022-01-16T08:27:07Z</time>
      </trkpt>
      <trkpt lat="43.3063000" lon="-2.9970300">
        <ele>84.2</ele>
        <time>2022-01-16T08:27:08Z</time>
      </trkpt>
      <trkpt lat="43.3062960" lon="-2.9971120">
        <ele>84.2</ele>
        <time>2022-01-16T08:27:09Z</time>
      </trkpt>
      <trkpt lat="43.3062910" lon="-2.9971940">
        <ele>84.2</ele>
        <time>2022-01-16T08:27:10Z</time>
      </trkpt>
      <trkpt lat="43.3062850" lon="-2.9972770">
        <ele>84.2</ele>
        <time>2022-01-16T08:27:11Z</time>
      </trkpt>
      <trkpt lat="43.3062790" lon="-2.9973610">
        <ele>84.4</ele>
        <time>2022-01-16T08:27:12Z</time>
      </trkpt>
      <trkpt lat="43.3062740" lon="-2.9974440">
        <ele>84.4</ele>
        <time>2022-01-16T08:27:13Z</time>
      </trkpt>
      <trkpt lat="43.3062680" lon="-2.9975260">
        <ele>84.6</ele>
        <time>2022-01-16T08:27:14Z</time>
      </trkpt>
      <trkpt lat="43.3062620" lon="-2.9976070">
        <ele>84.6</ele>
        <time>2022-01-16T08:27:15Z</time>
      </trkpt>
      <trkpt lat="43.3062570" lon="-2.9976880">
        <ele>84.8</ele>
        <time>2022-01-16T08:27:16Z</time>
      </trkpt>
      <trkpt lat="43.3062510" lon="-2.9977690">
        <ele>84.8</ele>
        <time>2022-01-16T08:27:17Z</time>
      </trkpt>
      <trkpt lat="43.3062420" lon="-2.9978490">
        <ele>85.0</ele>
        <time>2022-01-16T08:27:18Z</time>
      </trkpt>
      <trkpt lat="43.3062340" lon="-2.9979280">
        <ele>85.0</ele>
        <time>2022-01-16T08:27:19Z</time>
      </trkpt>
      <trkpt lat="43.3062300" lon="-2.9980070">
        <ele>85.2</ele>
        <time>2022-01-16T08:27:20Z</time>
      </trkpt>
      <trkpt lat="43.3062260" lon="-2.9980860">
        <ele>85.2</ele>
        <time>2022-01-16T08:27:21Z</time>
      </trkpt>
      <trkpt lat="43.3062230" lon="-2.9981650">
        <ele>85.2</ele>
        <time>2022-01-16T08:27:22Z</time>
      </trkpt>
      <trkpt lat="43.3062230" lon="-2.9982430">
        <ele>85.2</ele>
        <time>2022-01-16T08:27:23Z</time>
      </trkpt>
      <trkpt lat="43.3062240" lon="-2.9983220">
        <ele>85.2</ele>
        <time>2022-01-16T08:27:24Z</time>
      </trkpt>
      <trkpt lat="43.3062260" lon="-2.9984010">
        <ele>85.2</ele>
        <time>2022-01-16T08:27:25Z</time>
      </trkpt>
      <trkpt lat="43.3062310" lon="-2.9984790">
        <ele>85.4</ele>
        <time>2022-01-16T08:27:26Z</time>
      </trkpt>
      <trkpt lat="43.3062380" lon="-2.9985580">
        <ele>85.4</ele>
        <time>2022-01-16T08:27:27Z</time>
      </trkpt>
      <trkpt lat="43.3062500" lon="-2.9986390">
        <ele>85.4</ele>
        <time>2022-01-16T08:27:28Z</time>
      </trkpt>
      <trkpt lat="43.3062640" lon="-2.9987180">
        <ele>85.4</ele>
        <time>2022-01-16T08:27:29Z</time>
      </trkpt>
      <trkpt lat="43.3062800" lon="-2.9987960">
        <ele>85.6</ele>
        <time>2022-01-16T08:27:30Z</time>
      </trkpt>
      <trkpt lat="43.3062980" lon="-2.9988730">
        <ele>85.6</ele>
        <time>2022-01-16T08:27:31Z</time>
      </trkpt>
      <trkpt lat="43.3063200" lon="-2.9989480">
        <ele>85.8</ele>
        <time>2022-01-16T08:27:32Z</time>
      </trkpt>
      <trkpt lat="43.3063440" lon="-2.9990220">
        <ele>86.0</ele>
        <time>2022-01-16T08:27:33Z</time>
      </trkpt>
      <trkpt lat="43.3063700" lon="-2.9990940">
        <ele>86.0</ele>
        <time>2022-01-16T08:27:34Z</time>
      </trkpt>
      <trkpt lat="43.3063960" lon="-2.9991660">
        <ele>86.2</ele>
        <time>2022-01-16T08:27:35Z</time>
      </trkpt>
      <trkpt lat="43.3064240" lon="-2.9992370">
        <ele>86.2</ele>
        <time>2022-01-16T08:27:36Z</time>
      </trkpt>
      <trkpt lat="43.3064530" lon="-2.9993060">
        <ele>86.2</ele>
        <time>2022-01-16T08:27:37Z</time>
      </trkpt>
      <trkpt lat="43.3064810" lon="-2.9993750">
        <ele>86.2</ele>
        <time>2022-01-16T08:27:38Z</time>
      </trkpt>
      <trkpt lat="43.3065110" lon="-2.9994430">
        <ele>86.4</ele>
        <time>2022-01-16T08:27:39Z</time>
      </trkpt>
      <trkpt lat="43.3065400" lon="-2.9995100">
        <ele>86.4</ele>
        <time>2022-01-16T08:27:40Z</time>
      </trkpt>
      <trkpt lat="43.3065690" lon="-2.9995790">
        <ele>86.4</ele>
        <time>2022-01-16T08:27:41Z</time>
      </trkpt>
      <trkpt lat="43.3065960" lon="-2.9996490">
        <ele>86.4</ele>
        <time>2022-01-16T08:27:42Z</time>
      </trkpt>
      <trkpt lat="43.3066200" lon="-2.9997200">
        <ele>86.4</ele>
        <time>2022-01-16T08:27:43Z</time>
      </trkpt>
      <trkpt lat="43.3066430" lon="-2.9997920">
        <ele>86.4</ele>
        <time>2022-01-16T08:27:44Z</time>
      </trkpt>
      <trkpt lat="43.3066640" lon="-2.9998620">
        <ele>86.4</ele>
        <time>2022-01-16T08:27:45Z</time>
      </trkpt>
      <trkpt lat="43.3066800" lon="-2.9999310">
        <ele>86.4</ele>
        <time>2022-01-16T08:27:46Z</time>
      </trkpt>
      <trkpt lat="43.3066900" lon="-3.0000020">
        <ele>86.6</ele>
        <time>2022-01-16T08:27:47Z</time>
      </trkpt>
      <trkpt lat="43.3066980" lon="-3.0000770">
        <ele>86.6</ele>
        <time>2022-01-16T08:27:48Z</time>
      </trkpt>
      <trkpt lat="43.3067080" lon="-3.0001580">
        <ele>86.8</ele>
        <time>2022-01-16T08:27:49Z</time>
      </trkpt>
      <trkpt lat="43.3067110" lon="-3.0002390">
        <ele>86.8</ele>
        <time>2022-01-16T08:27:50Z</time>
      </trkpt>
      <trkpt lat="43.3067130" lon="-3.0003200">
        <ele>86.8</ele>
        <time>2022-01-16T08:27:51Z</time>
      </trkpt>
      <trkpt lat="43.3067110" lon="-3.0004020">
        <ele>86.8</ele>
        <time>2022-01-16T08:27:52Z</time>
      </trkpt>
      <trkpt lat="43.3067110" lon="-3.0004780">
        <ele>86.6</ele>
        <time>2022-01-16T08:27:53Z</time>
      </trkpt>
      <trkpt lat="43.3067090" lon="-3.0005600">
        <ele>86.4</ele>
        <time>2022-01-16T08:27:54Z</time>
      </trkpt>
      <trkpt lat="43.3067100" lon="-3.0006460">
        <ele>86.2</ele>
        <time>2022-01-16T08:27:55Z</time>
      </trkpt>
      <trkpt lat="43.3067130" lon="-3.0007340">
        <ele>86.2</ele>
        <time>2022-01-16T08:27:56Z</time>
      </trkpt>
      <trkpt lat="43.3067200" lon="-3.0008230">
        <ele>86.0</ele>
        <time>2022-01-16T08:27:57Z</time>
      </trkpt>
      <trkpt lat="43.3067270" lon="-3.0009110">
        <ele>85.8</ele>
        <time>2022-01-16T08:27:58Z</time>
      </trkpt>
      <trkpt lat="43.3067390" lon="-3.0009930">
        <ele>85.8</ele>
        <time>2022-01-16T08:27:59Z</time>
      </trkpt>
      <trkpt lat="43.3067470" lon="-3.0010750">
        <ele>85.6</ele>
        <time>2022-01-16T08:28:00Z</time>
      </trkpt>
      <trkpt lat="43.3067490" lon="-3.0011580">
        <ele>85.6</ele>
        <time>2022-01-16T08:28:01Z</time>
      </trkpt>
      <trkpt lat="43.3067420" lon="-3.0012400">
        <ele>85.6</ele>
        <time>2022-01-16T08:28:02Z</time>
      </trkpt>
      <trkpt lat="43.3067280" lon="-3.0013190">
        <ele>85.6</ele>
        <time>2022-01-16T08:28:03Z</time>
      </trkpt>
      <trkpt lat="43.3067040" lon="-3.0013910">
        <ele>85.6</ele>
        <time>2022-01-16T08:28:04Z</time>
      </trkpt>
      <trkpt lat="43.3066720" lon="-3.0014570">
        <ele>85.8</ele>
        <time>2022-01-16T08:28:05Z</time>
      </trkpt>
      <trkpt lat="43.3066320" lon="-3.0015110">
        <ele>85.8</ele>
        <time>2022-01-16T08:28:06Z</time>
      </trkpt>
      <trkpt lat="43.3065860" lon="-3.0015530">
        <ele>85.8</ele>
        <time>2022-01-16T08:28:07Z</time>
      </trkpt>
      <trkpt lat="43.3065340" lon="-3.0015960">
        <ele>86.0</ele>
        <time>2022-01-16T08:28:08Z</time>
      </trkpt>
      <trkpt lat="43.3064820" lon="-3.0016290">
        <ele>86.2</ele>
        <time>2022-01-16T08:28:09Z</time>
      </trkpt>
      <trkpt lat="43.3064300" lon="-3.0016600">
        <ele>86.4</ele>
        <time>2022-01-16T08:28:10Z</time>
      </trkpt>
      <trkpt lat="43.3063790" lon="-3.0016880">
        <ele>86.6</ele>
        <time>2022-01-16T08:28:11Z</time>
      </trkpt>
      <trkpt lat="43.3063260" lon="-3.0017200">
        <ele>86.8</ele>
        <time>2022-01-16T08:28:12Z</time>
      </trkpt>
      <trkpt lat="43.3062710" lon="-3.0017580">
        <ele>86.8</ele>
        <time>2022-01-16T08:28:13Z</time>
      </trkpt>
      <trkpt lat="43.3062150" lon="-3.0017980">
        <ele>86.6</ele>
        <time>2022-01-16T08:28:14Z</time>
      </trkpt>
      <trkpt lat="43.3061620" lon="-3.0018430">
        <ele>86.2</ele>
        <time>2022-01-16T08:28:15Z</time>
      </trkpt>
      <trkpt lat="43.3061090" lon="-3.0018960">
        <ele>86.0</ele>
        <time>2022-01-16T08:28:16Z</time>
      </trkpt>
      <trkpt lat="43.3060590" lon="-3.0019550">
        <ele>85.8</ele>
        <time>2022-01-16T08:28:17Z</time>
      </trkpt>
      <trkpt lat="43.3060130" lon="-3.0020190">
        <ele>86.0</ele>
        <time>2022-01-16T08:28:18Z</time>
      </trkpt>
      <trkpt lat="43.3059730" lon="-3.0020870">
        <ele>85.6</ele>
        <time>2022-01-16T08:28:19Z</time>
      </trkpt>
      <trkpt lat="43.3059310" lon="-3.0021540">
        <ele>85.8</ele>
        <time>2022-01-16T08:28:20Z</time>
      </trkpt>
      <trkpt lat="43.3058900" lon="-3.0022190">
        <ele>85.8</ele>
        <time>2022-01-16T08:28:21Z</time>
      </trkpt>
      <trkpt lat="43.3058510" lon="-3.0022840">
        <ele>85.8</ele>
        <time>2022-01-16T08:28:22Z</time>
      </trkpt>
      <trkpt lat="43.3058120" lon="-3.0023500">
        <ele>85.8</ele>
        <time>2022-01-16T08:28:23Z</time>
      </trkpt>
      <trkpt lat="43.3057740" lon="-3.0024170">
        <ele>85.8</ele>
        <time>2022-01-16T08:28:24Z</time>
      </trkpt>
      <trkpt lat="43.3057370" lon="-3.0024840">
        <ele>85.8</ele>
        <time>2022-01-16T08:28:25Z</time>
      </trkpt>
      <trkpt lat="43.3057010" lon="-3.0025530">
        <ele>85.8</ele>
        <time>2022-01-16T08:28:26Z</time>
      </trkpt>
      <trkpt lat="43.3056670" lon="-3.0026230">
        <ele>85.8</ele>
        <time>2022-01-16T08:28:27Z</time>
      </trkpt>
      <trkpt lat="43.3056330" lon="-3.0026940">
        <ele>86.0</ele>
        <time>2022-01-16T08:28:28Z</time>
      </trkpt>
      <trkpt lat="43.3056010" lon="-3.0027660">
        <ele>86.0</ele>
        <time>2022-01-16T08:28:29Z</time>
      </trkpt>
      <trkpt lat="43.3055690" lon="-3.0028390">
        <ele>86.0</ele>
        <time>2022-01-16T08:28:30Z</time>
      </trkpt>
      <trkpt lat="43.3055390" lon="-3.0029120">
        <ele>86.0</ele>
        <time>2022-01-16T08:28:31Z</time>
      </trkpt>
      <trkpt lat="43.3055090" lon="-3.0029870">
        <ele>86.0</ele>
        <time>2022-01-16T08:28:32Z</time>
      </trkpt>
      <trkpt lat="43.3054820" lon="-3.0030630">
        <ele>86.0</ele>
        <time>2022-01-16T08:28:33Z</time>
      </trkpt>
      <trkpt lat="43.3054570" lon="-3.0031390">
        <ele>86.0</ele>
        <time>2022-01-16T08:28:34Z</time>
      </trkpt>
      <trkpt lat="43.3054310" lon="-3.0032160">
        <ele>86.2</ele>
        <time>2022-01-16T08:28:35Z</time>
      </trkpt>
      <trkpt lat="43.3054080" lon="-3.0032940">
        <ele>86.0</ele>
        <time>2022-01-16T08:28:36Z</time>
      </trkpt>
      <trkpt lat="43.3053840" lon="-3.0033710">
        <ele>86.2</ele>
        <time>2022-01-16T08:28:37Z</time>
      </trkpt>
      <trkpt lat="43.3053610" lon="-3.0034490">
        <ele>86.2</ele>
        <time>2022-01-16T08:28:38Z</time>
      </trkpt>
      <trkpt lat="43.3053370" lon="-3.0035280">
        <ele>86.4</ele>
        <time>2022-01-16T08:28:39Z</time>
      </trkpt>
      <trkpt lat="43.3053140" lon="-3.0036080">
        <ele>86.4</ele>
        <time>2022-01-16T08:28:40Z</time>
      </trkpt>
      <trkpt lat="43.3052910" lon="-3.0036880">
        <ele>86.4</ele>
        <time>2022-01-16T08:28:41Z</time>
      </trkpt>
      <trkpt lat="43.3052690" lon="-3.0037680">
        <ele>86.4</ele>
        <time>2022-01-16T08:28:42Z</time>
      </trkpt>
      <trkpt lat="43.3052470" lon="-3.0038480">
        <ele>86.4</ele>
        <time>2022-01-16T08:28:43Z</time>
      </trkpt>
      <trkpt lat="43.3052250" lon="-3.0039310">
        <ele>86.4</ele>
        <time>2022-01-16T08:28:44Z</time>
      </trkpt>
      <trkpt lat="43.3052040" lon="-3.0040160">
        <ele>86.4</ele>
        <time>2022-01-16T08:28:45Z</time>
      </trkpt>
      <trkpt lat="43.3051840" lon="-3.0040990">
        <ele>86.2</ele>
        <time>2022-01-16T08:28:46Z</time>
      </trkpt>
      <trkpt lat="43.3051640" lon="-3.0041830">
        <ele>86.2</ele>
        <time>2022-01-16T08:28:47Z</time>
      </trkpt>
      <trkpt lat="43.3051430" lon="-3.0042660">
        <ele>86.2</ele>
        <time>2022-01-16T08:28:48Z</time>
      </trkpt>
      <trkpt lat="43.3051230" lon="-3.0043510">
        <ele>86.2</ele>
        <time>2022-01-16T08:28:49Z</time>
      </trkpt>
      <trkpt lat="43.3051020" lon="-3.0044360">
        <ele>86.0</ele>
        <time>2022-01-16T08:28:50Z</time>
      </trkpt>
      <trkpt lat="43.3050820" lon="-3.0045190">
        <ele>85.8</ele>
        <time>2022-01-16T08:28:51Z</time>
      </trkpt>
      <trkpt lat="43.3050600" lon="-3.0046010">
        <ele>85.8</ele>
        <time>2022-01-16T08:28:52Z</time>
      </trkpt>
      <trkpt lat="43.3050390" lon="-3.0046860">
        <ele>85.6</ele>
        <time>2022-01-16T08:28:53Z</time>
      </trkpt>
      <trkpt lat="43.3050170" lon="-3.0047720">
        <ele>85.4</ele>
        <time>2022-01-16T08:28:54Z</time>
      </trkpt>
      <trkpt lat="43.3049940" lon="-3.0048560">
        <ele>85.4</ele>
        <time>2022-01-16T08:28:55Z</time>
      </trkpt>
      <trkpt lat="43.3049700" lon="-3.0049420">
        <ele>85.2</ele>
        <time>2022-01-16T08:28:56Z</time>
      </trkpt>
      <trkpt lat="43.3049450" lon="-3.0050260">
        <ele>85.0</ele>
        <time>2022-01-16T08:28:57Z</time>
      </trkpt>
      <trkpt lat="43.3049190" lon="-3.0051120">
        <ele>84.8</ele>
        <time>2022-01-16T08:28:58Z</time>
      </trkpt>
      <trkpt lat="43.3048950" lon="-3.0052000">
        <ele>84.4</ele>
        <time>2022-01-16T08:28:59Z</time>
      </trkpt>
      <trkpt lat="43.3048710" lon="-3.0052900">
        <ele>84.4</ele>
        <time>2022-01-16T08:29:00Z</time>
      </trkpt>
      <trkpt lat="43.3048480" lon="-3.0053810">
        <ele>84.2</ele>
        <time>2022-01-16T08:29:01Z</time>
      </trkpt>
      <trkpt lat="43.3048240" lon="-3.0054730">
        <ele>84.0</ele>
        <time>2022-01-16T08:29:02Z</time>
      </trkpt>
      <trkpt lat="43.3048000" lon="-3.0055660">
        <ele>83.8</ele>
        <time>2022-01-16T08:29:03Z</time>
      </trkpt>
      <trkpt lat="43.3047760" lon="-3.0056590">
        <ele>83.8</ele>
        <time>2022-01-16T08:29:04Z</time>
      </trkpt>
      <trkpt lat="43.3047510" lon="-3.0057540">
        <ele>83.6</ele>
        <time>2022-01-16T08:29:05Z</time>
      </trkpt>
      <trkpt lat="43.3047280" lon="-3.0058510">
        <ele>83.4</ele>
        <time>2022-01-16T08:29:06Z</time>
      </trkpt>
      <trkpt lat="43.3047050" lon="-3.0059480">
        <ele>83.2</ele>
        <time>2022-01-16T08:29:07Z</time>
      </trkpt>
      <trkpt lat="43.3046800" lon="-3.0060460">
        <ele>82.8</ele>
        <time>2022-01-16T08:29:08Z</time>
      </trkpt>
      <trkpt lat="43.3046560" lon="-3.0061450">
        <ele>82.6</ele>
        <time>2022-01-16T08:29:09Z</time>
      </trkpt>
      <trkpt lat="43.3046310" lon="-3.0062440">
        <ele>82.4</ele>
        <time>2022-01-16T08:29:10Z</time>
      </trkpt>
      <trkpt lat="43.3046090" lon="-3.0063410">
        <ele>82.2</ele>
        <time>2022-01-16T08:29:11Z</time>
      </trkpt>
      <trkpt lat="43.3045870" lon="-3.0064380">
        <ele>82.2</ele>
        <time>2022-01-16T08:29:12Z</time>
      </trkpt>
      <trkpt lat="43.3045670" lon="-3.0065330">
        <ele>82.2</ele>
        <time>2022-01-16T08:29:13Z</time>
      </trkpt>
      <trkpt lat="43.3045490" lon="-3.0066260">
        <ele>82.2</ele>
        <time>2022-01-16T08:29:14Z</time>
      </trkpt>
      <trkpt lat="43.3045320" lon="-3.0067160">
        <ele>82.2</ele>
        <time>2022-01-16T08:29:15Z</time>
      </trkpt>
      <trkpt lat="43.3045170" lon="-3.0068050">
        <ele>82.2</ele>
        <time>2022-01-16T08:29:16Z</time>
      </trkpt>
      <trkpt lat="43.3045030" lon="-3.0068900">
        <ele>82.4</ele>
        <time>2022-01-16T08:29:17Z</time>
      </trkpt>
      <trkpt lat="43.3044910" lon="-3.0069740">
        <ele>82.6</ele>
        <time>2022-01-16T08:29:18Z</time>
      </trkpt>
      <trkpt lat="43.3044810" lon="-3.0070550">
        <ele>83.0</ele>
        <time>2022-01-16T08:29:19Z</time>
      </trkpt>
      <trkpt lat="43.3044710" lon="-3.0071330">
        <ele>83.4</ele>
        <time>2022-01-16T08:29:20Z</time>
      </trkpt>
      <trkpt lat="43.3044630" lon="-3.0072100">
        <ele>83.6</ele>
        <time>2022-01-16T08:29:21Z</time>
      </trkpt>
      <trkpt lat="43.3044560" lon="-3.0072850">
        <ele>84.0</ele>
        <time>2022-01-16T08:29:22Z</time>
      </trkpt>
      <trkpt lat="43.3044500" lon="-3.0073570">
        <ele>84.4</ele>
        <time>2022-01-16T08:29:23Z</time>
      </trkpt>
      <trkpt lat="43.3044450" lon="-3.0074280">
        <ele>84.6</ele>
        <time>2022-01-16T08:29:24Z</time>
      </trkpt>
      <trkpt lat="43.3044430" lon="-3.0074970">
        <ele>85.0</ele>
        <time>2022-01-16T08:29:25Z</time>
      </trkpt>
      <trkpt lat="43.3044430" lon="-3.0075630">
        <ele>85.4</ele>
        <time>2022-01-16T08:29:26Z</time>
      </trkpt>
      <trkpt lat="43.3044440" lon="-3.0076290">
        <ele>85.6</ele>
        <time>2022-01-16T08:29:27Z</time>
      </trkpt>
      <trkpt lat="43.3044470" lon="-3.0076930">
        <ele>86.0</ele>
        <time>2022-01-16T08:29:28Z</time>
      </trkpt>
      <trkpt lat="43.3044530" lon="-3.0077560">
        <ele>86.4</ele>
        <time>2022-01-16T08:29:29Z</time>
      </trkpt>
      <trkpt lat="43.3044630" lon="-3.0078190">
        <ele>86.6</ele>
        <time>2022-01-16T08:29:30Z</time>
      </trkpt>
      <trkpt lat="43.3044750" lon="-3.0078820">
        <ele>86.8</ele>
        <time>2022-01-16T08:29:31Z</time>
      </trkpt>
      <trkpt lat="43.3044900" lon="-3.0079470">
        <ele>87.0</ele>
        <time>2022-01-16T08:29:32Z</time>
      </trkpt>
      <trkpt lat="43.3045060" lon="-3.0080120">
        <ele>87.2</ele>
        <time>2022-01-16T08:29:33Z</time>
      </trkpt>
      <trkpt lat="43.3045230" lon="-3.0080770">
        <ele>87.2</ele>
        <time>2022-01-16T08:29:34Z</time>
      </trkpt>
      <trkpt lat="43.3045400" lon="-3.0081440">
        <ele>87.2</ele>
        <time>2022-01-16T08:29:35Z</time>
      </trkpt>
      <trkpt lat="43.3045580" lon="-3.0082120">
        <ele>87.4</ele>
        <time>2022-01-16T08:29:36Z</time>
      </trkpt>
      <trkpt lat="43.3045760" lon="-3.0082810">
        <ele>87.0</ele>
        <time>2022-01-16T08:29:37Z</time>
      </trkpt>
      <trkpt lat="43.3045940" lon="-3.0083510">
        <ele>87.2</ele>
        <time>2022-01-16T08:29:38Z</time>
      </trkpt>
      <trkpt lat="43.3046160" lon="-3.0084200">
        <ele>87.2</ele>
        <time>2022-01-16T08:29:39Z</time>
      </trkpt>
      <trkpt lat="43.3046410" lon="-3.0084860">
        <ele>87.2</ele>
        <time>2022-01-16T08:29:40Z</time>
      </trkpt>
      <trkpt lat="43.3046690" lon="-3.0085510">
        <ele>87.0</ele>
        <time>2022-01-16T08:29:41Z</time>
      </trkpt>
      <trkpt lat="43.3047030" lon="-3.0086160">
        <ele>87.0</ele>
        <time>2022-01-16T08:29:42Z</time>
      </trkpt>
      <trkpt lat="43.3047390" lon="-3.0086790">
        <ele>86.8</ele>
        <time>2022-01-16T08:29:43Z</time>
      </trkpt>
      <trkpt lat="43.3047800" lon="-3.0087390">
        <ele>86.6</ele>
        <time>2022-01-16T08:29:44Z</time>
      </trkpt>
      <trkpt lat="43.3048240" lon="-3.0087970">
        <ele>86.4</ele>
        <time>2022-01-16T08:29:45Z</time>
      </trkpt>
      <trkpt lat="43.3048680" lon="-3.0088530">
        <ele>86.4</ele>
        <time>2022-01-16T08:29:46Z</time>
      </trkpt>
      <trkpt lat="43.3049110" lon="-3.0089070">
        <ele>86.4</ele>
        <time>2022-01-16T08:29:47Z</time>
      </trkpt>
      <trkpt lat="43.3049530" lon="-3.0089590">
        <ele>86.4</ele>
        <time>2022-01-16T08:29:48Z</time>
      </trkpt>
      <trkpt lat="43.3049940" lon="-3.0090090">
        <ele>86.4</ele>
        <time>2022-01-16T08:29:49Z</time>
      </trkpt>
      <trkpt lat="43.3050340" lon="-3.0090560">
        <ele>86.8</ele>
        <time>2022-01-16T08:29:50Z</time>
      </trkpt>
      <trkpt lat="43.3050750" lon="-3.0090980">
        <ele>86.8</ele>
        <time>2022-01-16T08:29:51Z</time>
      </trkpt>
      <trkpt lat="43.3051180" lon="-3.0091340">
        <ele>87.0</ele>
        <time>2022-01-16T08:29:52Z</time>
      </trkpt>
      <trkpt lat="43.3051630" lon="-3.0091620">
        <ele>87.4</ele>
        <time>2022-01-16T08:29:53Z</time>
      </trkpt>
      <trkpt lat="43.3052080" lon="-3.0091810">
        <ele>87.6</ele>
        <time>2022-01-16T08:29:54Z</time>
      </trkpt>
      <trkpt lat="43.3052530" lon="-3.0091950">
        <ele>87.6</ele>
        <time>2022-01-16T08:29:55Z</time>
      </trkpt>
      <trkpt lat="43.3052950" lon="-3.0092040">
        <ele>88.0</ele>
        <time>2022-01-16T08:29:56Z</time>
      </trkpt>
      <trkpt lat="43.3053330" lon="-3.0092060">
        <ele>88.4</ele>
        <time>2022-01-16T08:29:57Z</time>
      </trkpt>
      <trkpt lat="43.3053650" lon="-3.0092010">
        <ele>88.6</ele>
        <time>2022-01-16T08:29:58Z</time>
      </trkpt>
      <trkpt lat="43.3053910" lon="-3.0091950">
        <ele>89.0</ele>
        <time>2022-01-16T08:29:59Z</time>
      </trkpt>
      <trkpt lat="43.3054140" lon="-3.0091940">
        <ele>89.4</ele>
        <time>2022-01-16T08:30:00Z</time>
      </trkpt>
      <trkpt lat="43.3054300" lon="-3.0092010">
        <ele>89.8</ele>
        <time>2022-01-16T08:30:01Z</time>
      </trkpt>
      <trkpt lat="43.3054440" lon="-3.0092140">
        <ele>90.2</ele>
        <time>2022-01-16T08:30:02Z</time>
      </trkpt>
      <trkpt lat="43.3054540" lon="-3.0092290">
        <ele>90.2</ele>
        <time>2022-01-16T08:30:03Z</time>
      </trkpt>
      <trkpt lat="43.3054590" lon="-3.0092530">
        <ele>90.2</ele>
        <time>2022-01-16T08:30:04Z</time>
      </trkpt>
      <trkpt lat="43.3054540" lon="-3.0092830">
        <ele>90.2</ele>
        <time>2022-01-16T08:30:05Z</time>
      </trkpt>
      <trkpt lat="43.3054500" lon="-3.0093130">
        <ele>90.2</ele>
        <time>2022-01-16T08:30:06Z</time>
      </trkpt>
      <trkpt lat="43.3054430" lon="-3.0093410">
        <ele>90.2</ele>
        <time>2022-01-16T08:30:07Z</time>
      </trkpt>
      <trkpt lat="43.3054340" lon="-3.0093510">
        <ele>90.2</ele>
        <time>2022-01-16T08:30:08Z</time>
      </trkpt>
      <trkpt lat="43.3054240" lon="-3.0093600">
        <ele>90.0</ele>
        <time>2022-01-16T08:30:09Z</time>
      </trkpt>
      <trkpt lat="43.3054150" lon="-3.0093690">
        <ele>90.2</ele>
        <time>2022-01-16T08:30:10Z</time>
      </trkpt>
      <trkpt lat="43.3054050" lon="-3.0093780">
        <ele>89.8</ele>
        <time>2022-01-16T08:31:16Z</time>
      </trkpt>
      <trkpt lat="43.3053960" lon="-3.0093870">
        <ele>89.6</ele>
        <time>2022-01-16T08:31:17Z</time>
      </trkpt>
      <trkpt lat="43.3053590" lon="-3.0094240">
        <ele>89.2</ele>
        <time>2022-01-16T08:31:18Z</time>
      </trkpt>
      <trkpt lat="43.3053180" lon="-3.0094670">
        <ele>88.8</ele>
        <time>2022-01-16T08:31:19Z</time>
      </trkpt>
      <trkpt lat="43.3052740" lon="-3.0095160">
        <ele>88.4</ele>
        <time>2022-01-16T08:31:20Z</time>
      </trkpt>
      <trkpt lat="43.3052270" lon="-3.0095720">
        <ele>87.8</ele>
        <time>2022-01-16T08:31:21Z</time>
      </trkpt>
      <trkpt lat="43.3051760" lon="-3.0096300">
        <ele>87.2</ele>
        <time>2022-01-16T08:31:22Z</time>
      </trkpt>
      <trkpt lat="43.3051220" lon="-3.0096860">
        <ele>86.6</ele>
        <time>2022-01-16T08:31:23Z</time>
      </trkpt>
      <trkpt lat="43.3050740" lon="-3.0097390">
        <ele>86.2</ele>
        <time>2022-01-16T08:31:24Z</time>
      </trkpt>
      <trkpt lat="43.3050340" lon="-3.0097870">
        <ele>85.4</ele>
        <time>2022-01-16T08:31:25Z</time>
      </trkpt>
      <trkpt lat="43.3050030" lon="-3.0098320">
        <ele>84.8</ele>
        <time>2022-01-16T08:31:26Z</time>
      </trkpt>
      <trkpt lat="43.3049880" lon="-3.0098850">
        <ele>84.4</ele>
        <time>2022-01-16T08:31:27Z</time>
      </trkpt>
      <trkpt lat="43.3049920" lon="-3.0099430">
        <ele>83.8</ele>
        <time>2022-01-16T08:31:28Z</time>
      </trkpt>
      <trkpt lat="43.3050150" lon="-3.0099950">
        <ele>83.0</ele>
        <time>2022-01-16T08:31:29Z</time>
      </trkpt>
      <trkpt lat="43.3050550" lon="-3.0100410">
        <ele>82.4</ele>
        <time>2022-01-16T08:31:30Z</time>
      </trkpt>
      <trkpt lat="43.3051000" lon="-3.0100910">
        <ele>82.0</ele>
        <time>2022-01-16T08:31:31Z</time>
      </trkpt>
      <trkpt lat="43.3051500" lon="-3.0101480">
        <ele>81.4</ele>
        <time>2022-01-16T08:31:32Z</time>
      </trkpt>
      <trkpt lat="43.3052020" lon="-3.0102120">
        <ele>80.8</ele>
        <time>2022-01-16T08:31:33Z</time>
      </trkpt>
      <trkpt lat="43.3052550" lon="-3.0102850">
        <ele>80.2</ele>
        <time>2022-01-16T08:31:34Z</time>
      </trkpt>
      <trkpt lat="43.3053050" lon="-3.0103630">
        <ele>79.8</ele>
        <time>2022-01-16T08:31:35Z</time>
      </trkpt>
      <trkpt lat="43.3053540" lon="-3.0104420">
        <ele>79.6</ele>
        <time>2022-01-16T08:31:36Z</time>
      </trkpt>
      <trkpt lat="43.3054060" lon="-3.0105130">
        <ele>79.6</ele>
        <time>2022-01-16T08:31:37Z</time>
      </trkpt>
      <trkpt lat="43.3054610" lon="-3.0105760">
        <ele>79.6</ele>
        <time>2022-01-16T08:31:38Z</time>
      </trkpt>
      <trkpt lat="43.3055160" lon="-3.0106340">
        <ele>79.6</ele>
        <time>2022-01-16T08:31:39Z</time>
      </trkpt>
      <trkpt lat="43.3055730" lon="-3.0106870">
        <ele>79.8</ele>
        <time>2022-01-16T08:31:40Z</time>
      </trkpt>
      <trkpt lat="43.3056280" lon="-3.0107410">
        <ele>79.8</ele>
        <time>2022-01-16T08:31:41Z</time>
      </trkpt>
      <trkpt lat="43.3056810" lon="-3.0108000">
        <ele>80.0</ele>
        <time>2022-01-16T08:31:42Z</time>
      </trkpt>
      <trkpt lat="43.3057240" lon="-3.0108610">
        <ele>80.0</ele>
        <time>2022-01-16T08:31:43Z</time>
      </trkpt>
      <trkpt lat="43.3057680" lon="-3.0109290">
        <ele>80.0</ele>
        <time>2022-01-16T08:31:44Z</time>
      </trkpt>
      <trkpt lat="43.3058100" lon="-3.0110010">
        <ele>80.0</ele>
        <time>2022-01-16T08:31:45Z</time>
      </trkpt>
      <trkpt lat="43.3058480" lon="-3.0110770">
        <ele>80.2</ele>
        <time>2022-01-16T08:31:46Z</time>
      </trkpt>
      <trkpt lat="43.3058830" lon="-3.0111570">
        <ele>80.4</ele>
        <time>2022-01-16T08:31:47Z</time>
      </trkpt>
      <trkpt lat="43.3059140" lon="-3.0112410">
        <ele>80.4</ele>
        <time>2022-01-16T08:31:48Z</time>
      </trkpt>
      <trkpt lat="43.3059420" lon="-3.0113270">
        <ele>80.4</ele>
        <time>2022-01-16T08:31:49Z</time>
      </trkpt>
      <trkpt lat="43.3059700" lon="-3.0114100">
        <ele>80.8</ele>
        <time>2022-01-16T08:31:50Z</time>
      </trkpt>
      <trkpt lat="43.3059960" lon="-3.0114950">
        <ele>80.8</ele>
        <time>2022-01-16T08:31:51Z</time>
      </trkpt>
      <trkpt lat="43.3060220" lon="-3.0115770">
        <ele>80.8</ele>
        <time>2022-01-16T08:31:52Z</time>
      </trkpt>
      <trkpt lat="43.3060480" lon="-3.0116590">
        <ele>80.8</ele>
        <time>2022-01-16T08:31:53Z</time>
      </trkpt>
      <trkpt lat="43.3060740" lon="-3.0117400">
        <ele>80.8</ele>
        <time>2022-01-16T08:31:54Z</time>
      </trkpt>
      <trkpt lat="43.3060990" lon="-3.0118210">
        <ele>80.8</ele>
        <time>2022-01-16T08:31:55Z</time>
      </trkpt>
      <trkpt lat="43.3061230" lon="-3.0119010">
        <ele>80.8</ele>
        <time>2022-01-16T08:31:56Z</time>
      </trkpt>
      <trkpt lat="43.3061460" lon="-3.0119780">
        <ele>81.0</ele>
        <time>2022-01-16T08:31:57Z</time>
      </trkpt>
      <trkpt lat="43.3061700" lon="-3.0120570">
        <ele>81.0</ele>
        <time>2022-01-16T08:31:58Z</time>
      </trkpt>
      <trkpt lat="43.3061950" lon="-3.0121360">
        <ele>81.2</ele>
        <time>2022-01-16T08:31:59Z</time>
      </trkpt>
      <trkpt lat="43.3062210" lon="-3.0122160">
        <ele>81.2</ele>
        <time>2022-01-16T08:32:00Z</time>
      </trkpt>
      <trkpt lat="43.3062480" lon="-3.0122960">
        <ele>81.2</ele>
        <time>2022-01-16T08:32:01Z</time>
      </trkpt>
      <trkpt lat="43.3062740" lon="-3.0123750">
        <ele>81.2</ele>
        <time>2022-01-16T08:32:02Z</time>
      </trkpt>
      <trkpt lat="43.3062990" lon="-3.0124530">
        <ele>81.2</ele>
        <time>2022-01-16T08:32:03Z</time>
      </trkpt>
      <trkpt lat="43.3063240" lon="-3.0125320">
        <ele>81.4</ele>
        <time>2022-01-16T08:32:04Z</time>
      </trkpt>
      <trkpt lat="43.3063490" lon="-3.0126120">
        <ele>81.4</ele>
        <time>2022-01-16T08:32:05Z</time>
      </trkpt>
      <trkpt lat="43.3063740" lon="-3.0126930">
        <ele>81.4</ele>
        <time>2022-01-16T08:32:06Z</time>
      </trkpt>
      <trkpt lat="43.3063980" lon="-3.0127740">
        <ele>81.6</ele>
        <time>2022-01-16T08:32:07Z</time>
      </trkpt>
      <trkpt lat="43.3064220" lon="-3.0128540">
        <ele>81.6</ele>
        <time>2022-01-16T08:32:08Z</time>
      </trkpt>
      <trkpt lat="43.3064460" lon="-3.0129330">
        <ele>81.8</ele>
        <time>2022-01-16T08:32:09Z</time>
      </trkpt>
      <trkpt lat="43.3064700" lon="-3.0130110">
        <ele>81.8</ele>
        <time>2022-01-16T08:32:10Z</time>
      </trkpt>
      <trkpt lat="43.3064940" lon="-3.0130910">
        <ele>81.6</ele>
        <time>2022-01-16T08:32:11Z</time>
      </trkpt>
      <trkpt lat="43.3065200" lon="-3.0131690">
        <ele>81.8</ele>
        <time>2022-01-16T08:32:12Z</time>
      </trkpt>
      <trkpt lat="43.3065440" lon="-3.0132460">
        <ele>81.8</ele>
        <time>2022-01-16T08:32:13Z</time>
      </trkpt>
      <trkpt lat="43.3065690" lon="-3.0133250">
        <ele>81.8</ele>
        <time>2022-01-16T08:32:14Z</time>
      </trkpt>
      <trkpt lat="43.3065940" lon="-3.0134020">
        <ele>81.8</ele>
        <time>2022-01-16T08:32:15Z</time>
      </trkpt>
      <trkpt lat="43.3066180" lon="-3.0134790">
        <ele>81.8</ele>
        <time>2022-01-16T08:32:16Z</time>
      </trkpt>
      <trkpt lat="43.3066420" lon="-3.0135570">
        <ele>82.0</ele>
        <time>2022-01-16T08:32:17Z</time>
      </trkpt>
      <trkpt lat="43.3066670" lon="-3.0136350">
        <ele>82.0</ele>
        <time>2022-01-16T08:32:18Z</time>
      </trkpt>
      <trkpt lat="43.3066920" lon="-3.0137130">
        <ele>82.0</ele>
        <time>2022-01-16T08:32:19Z</time>
      </trkpt>
      <trkpt lat="43.3067160" lon="-3.0137920">
        <ele>82.0</ele>
        <time>2022-01-16T08:32:20Z</time>
      </trkpt>
      <trkpt lat="43.3067380" lon="-3.0138690">
        <ele>82.0</ele>
        <time>2022-01-16T08:32:21Z</time>
      </trkpt>
      <trkpt lat="43.3067610" lon="-3.0139450">
        <ele>82.2</ele>
        <time>2022-01-16T08:32:22Z</time>
      </trkpt>
      <trkpt lat="43.3067840" lon="-3.0140220">
        <ele>82.2</ele>
        <time>2022-01-16T08:32:23Z</time>
      </trkpt>
      <trkpt lat="43.3068080" lon="-3.0140950">
        <ele>82.4</ele>
        <time>2022-01-16T08:32:24Z</time>
      </trkpt>
      <trkpt lat="43.3068330" lon="-3.0141670">
        <ele>82.6</ele>
        <time>2022-01-16T08:32:25Z</time>
      </trkpt>
      <trkpt lat="43.3068570" lon="-3.0142380">
        <ele>82.8</ele>
        <time>2022-01-16T08:32:26Z</time>
      </trkpt>
      <trkpt lat="43.3068790" lon="-3.0143070">
        <ele>83.0</ele>
        <time>2022-01-16T08:32:27Z</time>
      </trkpt>
      <trkpt lat="43.3069020" lon="-3.0143730">
        <ele>83.2</ele>
        <time>2022-01-16T08:32:28Z</time>
      </trkpt>
      <trkpt lat="43.3069310" lon="-3.0144430">
        <ele>83.4</ele>
        <time>2022-01-16T08:32:29Z</time>
      </trkpt>
      <trkpt lat="43.3069610" lon="-3.0145080">
        <ele>83.6</ele>
        <time>2022-01-16T08:32:30Z</time>
      </trkpt>
      <trkpt lat="43.3069930" lon="-3.0145690">
        <ele>83.6</ele>
        <time>2022-01-16T08:32:31Z</time>
      </trkpt>
      <trkpt lat="43.3070310" lon="-3.0146230">
        <ele>83.8</ele>
        <time>2022-01-16T08:32:32Z</time>
      </trkpt>
      <trkpt lat="43.3070680" lon="-3.0146680">
        <ele>83.8</ele>
        <time>2022-01-16T08:32:33Z</time>
      </trkpt>
      <trkpt lat="43.3071080" lon="-3.0147100">
        <ele>83.8</ele>
        <time>2022-01-16T08:32:34Z</time>
      </trkpt>
      <trkpt lat="43.3071530" lon="-3.0147460">
        <ele>84.0</ele>
        <time>2022-01-16T08:32:35Z</time>
      </trkpt>
      <trkpt lat="43.3072020" lon="-3.0147760">
        <ele>84.0</ele>
        <time>2022-01-16T08:32:36Z</time>
      </trkpt>
      <trkpt lat="43.3072620" lon="-3.0148100">
        <ele>84.2</ele>
        <time>2022-01-16T08:32:37Z</time>
      </trkpt>
      <trkpt lat="43.3073130" lon="-3.0148450">
        <ele>84.2</ele>
        <time>2022-01-16T08:32:38Z</time>
      </trkpt>
      <trkpt lat="43.3073550" lon="-3.0148880">
        <ele>84.2</ele>
        <time>2022-01-16T08:32:39Z</time>
      </trkpt>
      <trkpt lat="43.3073870" lon="-3.0149450">
        <ele>84.2</ele>
        <time>2022-01-16T08:32:40Z</time>
      </trkpt>
      <trkpt lat="43.3074060" lon="-3.0150110">
        <ele>84.4</ele>
        <time>2022-01-16T08:32:41Z</time>
      </trkpt>
      <trkpt lat="43.3074070" lon="-3.0150900">
        <ele>84.4</ele>
        <time>2022-01-16T08:32:42Z</time>
      </trkpt>
      <trkpt lat="43.3073990" lon="-3.0151700">
        <ele>84.6</ele>
        <time>2022-01-16T08:32:43Z</time>
      </trkpt>
      <trkpt lat="43.3073810" lon="-3.0152490">
        <ele>85.0</ele>
        <time>2022-01-16T08:32:44Z</time>
      </trkpt>
      <trkpt lat="43.3073570" lon="-3.0153180">
        <ele>85.2</ele>
        <time>2022-01-16T08:32:45Z</time>
      </trkpt>
      <trkpt lat="43.3073240" lon="-3.0153750">
        <ele>85.4</ele>
        <time>2022-01-16T08:32:46Z</time>
      </trkpt>
      <trkpt lat="43.3072850" lon="-3.0154220">
        <ele>85.6</ele>
        <time>2022-01-16T08:32:47Z</time>
      </trkpt>
      <trkpt lat="43.3072400" lon="-3.0154570">
        <ele>85.8</ele>
        <time>2022-01-16T08:32:48Z</time>
      </trkpt>
      <trkpt lat="43.3071910" lon="-3.0154830">
        <ele>86.4</ele>
        <time>2022-01-16T08:32:49Z</time>
      </trkpt>
      <trkpt lat="43.3071400" lon="-3.0155010">
        <ele>86.6</ele>
        <time>2022-01-16T08:32:50Z</time>
      </trkpt>
      <trkpt lat="43.3070920" lon="-3.0155160">
        <ele>86.8</ele>
        <time>2022-01-16T08:32:51Z</time>
      </trkpt>
      <trkpt lat="43.3070420" lon="-3.0155360">
        <ele>87.0</ele>
        <time>2022-01-16T08:32:52Z</time>
      </trkpt>
      <trkpt lat="43.3069950" lon="-3.0155610">
        <ele>87.2</ele>
        <time>2022-01-16T08:32:53Z</time>
      </trkpt>
      <trkpt lat="43.3069570" lon="-3.0155950">
        <ele>87.6</ele>
        <time>2022-01-16T08:32:54Z</time>
      </trkpt>
      <trkpt lat="43.3069240" lon="-3.0156380">
        <ele>88.0</ele>
        <time>2022-01-16T08:32:55Z</time>
      </trkpt>
      <trkpt lat="43.3069040" lon="-3.0156940">
        <ele>88.4</ele>
        <time>2022-01-16T08:32:56Z</time>
      </trkpt>
      <trkpt lat="43.3068990" lon="-3.0157590">
        <ele>88.6</ele>
        <time>2022-01-16T08:32:57Z</time>
      </trkpt>
      <trkpt lat="43.3069030" lon="-3.0158250">
        <ele>88.8</ele>
        <time>2022-01-16T08:32:58Z</time>
      </trkpt>
      <trkpt lat="43.3069110" lon="-3.0158880">
        <ele>89.0</ele>
        <time>2022-01-16T08:32:59Z</time>
      </trkpt>
      <trkpt lat="43.3069260" lon="-3.0159500">
        <ele>89.4</ele>
        <time>2022-01-16T08:33:00Z</time>
      </trkpt>
      <trkpt lat="43.3069480" lon="-3.0160080">
        <ele>89.8</ele>
        <time>2022-01-16T08:33:01Z</time>
      </trkpt>
      <trkpt lat="43.3069760" lon="-3.0160610">
        <ele>90.0</ele>
        <time>2022-01-16T08:33:02Z</time>
      </trkpt>
      <trkpt lat="43.3070070" lon="-3.0161090">
        <ele>90.2</ele>
        <time>2022-01-16T08:33:03Z</time>
      </trkpt>
      <trkpt lat="43.3070390" lon="-3.0161560">
        <ele>90.8</ele>
        <time>2022-01-16T08:33:04Z</time>
      </trkpt>
      <trkpt lat="43.3070710" lon="-3.0162040">
        <ele>91.0</ele>
        <time>2022-01-16T08:33:05Z</time>
      </trkpt>
      <trkpt lat="43.3071040" lon="-3.0162520">
        <ele>91.2</ele>
        <time>2022-01-16T08:33:06Z</time>
      </trkpt>
      <trkpt lat="43.3071360" lon="-3.0163050">
        <ele>91.4</ele>
        <time>2022-01-16T08:33:07Z</time>
      </trkpt>
      <trkpt lat="43.3071680" lon="-3.0163580">
        <ele>91.8</ele>
        <time>2022-01-16T08:33:08Z</time>
      </trkpt>
      <trkpt lat="43.3072000" lon="-3.0164100">
        <ele>92.0</ele>
        <time>2022-01-16T08:33:09Z</time>
      </trkpt>
      <trkpt lat="43.3072310" lon="-3.0164620">
        <ele>92.2</ele>
        <time>2022-01-16T08:33:10Z</time>
      </trkpt>
      <trkpt lat="43.3072610" lon="-3.0165190">
        <ele>92.4</ele>
        <time>2022-01-16T08:33:11Z</time>
      </trkpt>
      <trkpt lat="43.3072900" lon="-3.0165750">
        <ele>92.4</ele>
        <time>2022-01-16T08:33:12Z</time>
      </trkpt>
      <trkpt lat="43.3073180" lon="-3.0166310">
        <ele>92.6</ele>
        <time>2022-01-16T08:33:13Z</time>
      </trkpt>
      <trkpt lat="43.3073460" lon="-3.0166890">
        <ele>92.6</ele>
        <time>2022-01-16T08:33:14Z</time>
      </trkpt>
      <trkpt lat="43.3073750" lon="-3.0167470">
        <ele>92.8</ele>
        <time>2022-01-16T08:33:15Z</time>
      </trkpt>
      <trkpt lat="43.3074020" lon="-3.0168060">
        <ele>93.0</ele>
        <time>2022-01-16T08:33:16Z</time>
      </trkpt>
      <trkpt lat="43.3074280" lon="-3.0168660">
        <ele>93.2</ele>
        <time>2022-01-16T08:33:17Z</time>
      </trkpt>
      <trkpt lat="43.3074530" lon="-3.0169270">
        <ele>93.4</ele>
        <time>2022-01-16T08:33:18Z</time>
      </trkpt>
      <trkpt lat="43.3074780" lon="-3.0169880">
        <ele>93.4</ele>
        <time>2022-01-16T08:33:19Z</time>
      </trkpt>
      <trkpt lat="43.3075030" lon="-3.0170500">
        <ele>93.6</ele>
        <time>2022-01-16T08:33:20Z</time>
      </trkpt>
      <trkpt lat="43.3075280" lon="-3.0171120">
        <ele>93.6</ele>
        <time>2022-01-16T08:33:21Z</time>
      </trkpt>
      <trkpt lat="43.3075500" lon="-3.0171770">
        <ele>93.8</ele>
        <time>2022-01-16T08:33:22Z</time>
      </trkpt>
      <trkpt lat="43.3075720" lon="-3.0172420">
        <ele>94.0</ele>
        <time>2022-01-16T08:33:23Z</time>
      </trkpt>
      <trkpt lat="43.3075930" lon="-3.0173070">
        <ele>94.0</ele>
        <time>2022-01-16T08:33:24Z</time>
      </trkpt>
      <trkpt lat="43.3076130" lon="-3.0173710">
        <ele>94.2</ele>
        <time>2022-01-16T08:33:25Z</time>
      </trkpt>
      <trkpt lat="43.3076320" lon="-3.0174360">
        <ele>94.2</ele>
        <time>2022-01-16T08:33:26Z</time>
      </trkpt>
      <trkpt lat="43.3076500" lon="-3.0175020">
        <ele>94.4</ele>
        <time>2022-01-16T08:33:27Z</time>
      </trkpt>
      <trkpt lat="43.3076690" lon="-3.0175670">
        <ele>94.6</ele>
        <time>2022-01-16T08:33:28Z</time>
      </trkpt>
      <trkpt lat="43.3076850" lon="-3.0176320">
        <ele>95.0</ele>
        <time>2022-01-16T08:33:29Z</time>
      </trkpt>
      <trkpt lat="43.3077000" lon="-3.0176980">
        <ele>95.2</ele>
        <time>2022-01-16T08:33:30Z</time>
      </trkpt>
      <trkpt lat="43.3077160" lon="-3.0177640">
        <ele>95.4</ele>
        <time>2022-01-16T08:33:31Z</time>
      </trkpt>
      <trkpt lat="43.3077310" lon="-3.0178300">
        <ele>95.6</ele>
        <time>2022-01-16T08:33:32Z</time>
      </trkpt>
      <trkpt lat="43.3077430" lon="-3.0178970">
        <ele>95.8</ele>
        <time>2022-01-16T08:33:33Z</time>
      </trkpt>
      <trkpt lat="43.3077540" lon="-3.0179650">
        <ele>96.0</ele>
        <time>2022-01-16T08:33:34Z</time>
      </trkpt>
      <trkpt lat="43.3077650" lon="-3.0180340">
        <ele>96.2</ele>
        <time>2022-01-16T08:33:35Z</time>
      </trkpt>
      <trkpt lat="43.3077780" lon="-3.0181000">
        <ele>96.4</ele>
        <time>2022-01-16T08:33:36Z</time>
      </trkpt>
      <trkpt lat="43.3077930" lon="-3.0181640">
        <ele>96.8</ele>
        <time>2022-01-16T08:33:37Z</time>
      </trkpt>
      <trkpt lat="43.3078080" lon="-3.0182270">
        <ele>97.0</ele>
        <time>2022-01-16T08:33:38Z</time>
      </trkpt>
      <trkpt lat="43.3078260" lon="-3.0182900">
        <ele>97.2</ele>
        <time>2022-01-16T08:33:39Z</time>
      </trkpt>
      <trkpt lat="43.3078450" lon="-3.0183540">
        <ele>97.4</ele>
        <time>2022-01-16T08:33:40Z</time>
      </trkpt>
      <trkpt lat="43.3078650" lon="-3.0184180">
        <ele>97.6</ele>
        <time>2022-01-16T08:33:41Z</time>
      </trkpt>
      <trkpt lat="43.3078860" lon="-3.0184840">
        <ele>97.8</ele>
        <time>2022-01-16T08:33:42Z</time>
      </trkpt>
      <trkpt lat="43.3079070" lon="-3.0185490">
        <ele>98.2</ele>
        <time>2022-01-16T08:33:43Z</time>
      </trkpt>
      <trkpt lat="43.3079240" lon="-3.0186170">
        <ele>98.4</ele>
        <time>2022-01-16T08:33:44Z</time>
      </trkpt>
      <trkpt lat="43.3079370" lon="-3.0186830">
        <ele>98.6</ele>
        <time>2022-01-16T08:33:45Z</time>
      </trkpt>
      <trkpt lat="43.3079460" lon="-3.0187520">
        <ele>98.8</ele>
        <time>2022-01-16T08:33:46Z</time>
      </trkpt>
      <trkpt lat="43.3079530" lon="-3.0188220">
        <ele>99.0</ele>
        <time>2022-01-16T08:33:47Z</time>
      </trkpt>
      <trkpt lat="43.3079580" lon="-3.0188920">
        <ele>99.0</ele>
        <time>2022-01-16T08:33:48Z</time>
      </trkpt>
      <trkpt lat="43.3079630" lon="-3.0189630">
        <ele>99.2</ele>
        <time>2022-01-16T08:33:49Z</time>
      </trkpt>
      <trkpt lat="43.3079690" lon="-3.0190350">
        <ele>99.2</ele>
        <time>2022-01-16T08:33:50Z</time>
      </trkpt>
      <trkpt lat="43.3079760" lon="-3.0191090">
        <ele>99.4</ele>
        <time>2022-01-16T08:33:51Z</time>
      </trkpt>
      <trkpt lat="43.3079850" lon="-3.0191840">
        <ele>99.4</ele>
        <time>2022-01-16T08:33:52Z</time>
      </trkpt>
      <trkpt lat="43.3079960" lon="-3.0192580">
        <ele>99.6</ele>
        <time>2022-01-16T08:33:53Z</time>
      </trkpt>
      <trkpt lat="43.3080060" lon="-3.0193320">
        <ele>99.6</ele>
        <time>2022-01-16T08:33:54Z</time>
      </trkpt>
      <trkpt lat="43.3080160" lon="-3.0194050">
        <ele>99.8</ele>
        <time>2022-01-16T08:33:55Z</time>
      </trkpt>
      <trkpt lat="43.3080280" lon="-3.0194810">
        <ele>99.8</ele>
        <time>2022-01-16T08:33:56Z</time>
      </trkpt>
      <trkpt lat="43.3080410" lon="-3.0195580">
        <ele>100.0</ele>
        <time>2022-01-16T08:33:57Z</time>
      </trkpt>
      <trkpt lat="43.3080550" lon="-3.0196340">
        <ele>100.0</ele>
        <time>2022-01-16T08:33:58Z</time>
      </trkpt>
      <trkpt lat="43.3080670" lon="-3.0197130">
        <ele>100.0</ele>
        <time>2022-01-16T08:33:59Z</time>
      </trkpt>
      <trkpt lat="43.3080810" lon="-3.0197940">
        <ele>100.0</ele>
        <time>2022-01-16T08:34:00Z</time>
      </trkpt>
      <trkpt lat="43.3080970" lon="-3.0198690">
        <ele>100.0</ele>
        <time>2022-01-16T08:34:01Z</time>
      </trkpt>
      <trkpt lat="43.3081120" lon="-3.0199490">
        <ele>100.0</ele>
        <time>2022-01-16T08:34:02Z</time>
      </trkpt>
      <trkpt lat="43.3081290" lon="-3.0200280">
        <ele>100.2</ele>
        <time>2022-01-16T08:34:03Z</time>
      </trkpt>
      <trkpt lat="43.3081450" lon="-3.0201060">
        <ele>100.0</ele>
        <time>2022-01-16T08:34:04Z</time>
      </trkpt>
      <trkpt lat="43.3081620" lon="-3.0201830">
        <ele>100.2</ele>
        <time>2022-01-16T08:34:05Z</time>
      </trkpt>
      <trkpt lat="43.3081790" lon="-3.0202610">
        <ele>100.4</ele>
        <time>2022-01-16T08:34:06Z</time>
      </trkpt>
      <trkpt lat="43.3081970" lon="-3.0203400">
        <ele>100.4</ele>
        <time>2022-01-16T08:34:07Z</time>
      </trkpt>
      <trkpt lat="43.3082160" lon="-3.0204170">
        <ele>100.6</ele>
        <time>2022-01-16T08:34:08Z</time>
      </trkpt>
      <trkpt lat="43.3082340" lon="-3.0204960">
        <ele>100.6</ele>
        <time>2022-01-16T08:34:09Z</time>
      </trkpt>
      <trkpt lat="43.3082530" lon="-3.0205740">
        <ele>100.6</ele>
        <time>2022-01-16T08:34:10Z</time>
      </trkpt>
      <trkpt lat="43.3082720" lon="-3.0206520">
        <ele>100.8</ele>
        <time>2022-01-16T08:34:11Z</time>
      </trkpt>
      <trkpt lat="43.3082900" lon="-3.0207310">
        <ele>100.8</ele>
        <time>2022-01-16T08:34:12Z</time>
      </trkpt>
      <trkpt lat="43.3083090" lon="-3.0208090">
        <ele>101.0</ele>
        <time>2022-01-16T08:34:13Z</time>
      </trkpt>
      <trkpt lat="43.3083280" lon="-3.0208870">
        <ele>101.0</ele>
        <time>2022-01-16T08:34:14Z</time>
      </trkpt>
      <trkpt lat="43.3083460" lon="-3.0209650">
        <ele>101.0</ele>
        <time>2022-01-16T08:34:15Z</time>
      </trkpt>
      <trkpt lat="43.3083640" lon="-3.0210440">
        <ele>101.2</ele>
        <time>2022-01-16T08:34:16Z</time>
      </trkpt>
      <trkpt lat="43.3083820" lon="-3.0211240">
        <ele>101.4</ele>
        <time>2022-01-16T08:34:17Z</time>
      </trkpt>
      <trkpt lat="43.3084000" lon="-3.0212030">
        <ele>101.4</ele>
        <time>2022-01-16T08:34:18Z</time>
      </trkpt>
      <trkpt lat="43.3084190" lon="-3.0212820">
        <ele>101.4</ele>
        <time>2022-01-16T08:34:19Z</time>
      </trkpt>
      <trkpt lat="43.3084400" lon="-3.0213610">
        <ele>101.4</ele>
        <time>2022-01-16T08:34:20Z</time>
      </trkpt>
      <trkpt lat="43.3084620" lon="-3.0214390">
        <ele>101.6</ele>
        <time>2022-01-16T08:34:21Z</time>
      </trkpt>
      <trkpt lat="43.3084840" lon="-3.0215160">
        <ele>101.6</ele>
        <time>2022-01-16T08:34:22Z</time>
      </trkpt>
      <trkpt lat="43.3085060" lon="-3.0215920">
        <ele>101.8</ele>
        <time>2022-01-16T08:34:23Z</time>
      </trkpt>
      <trkpt lat="43.3085300" lon="-3.0216670">
        <ele>101.8</ele>
        <time>2022-01-16T08:34:24Z</time>
      </trkpt>
      <trkpt lat="43.3085520" lon="-3.0217440">
        <ele>102.0</ele>
        <time>2022-01-16T08:34:25Z</time>
      </trkpt>
      <trkpt lat="43.3085750" lon="-3.0218200">
        <ele>102.0</ele>
        <time>2022-01-16T08:34:26Z</time>
      </trkpt>
      <trkpt lat="43.3086000" lon="-3.0218950">
        <ele>102.2</ele>
        <time>2022-01-16T08:34:27Z</time>
      </trkpt>
      <trkpt lat="43.3086250" lon="-3.0219690">
        <ele>102.2</ele>
        <time>2022-01-16T08:34:28Z</time>
      </trkpt>
      <trkpt lat="43.3086510" lon="-3.0220440">
        <ele>102.2</ele>
        <time>2022-01-16T08:34:29Z</time>
      </trkpt>
      <trkpt lat="43.3086770" lon="-3.0221190">
        <ele>102.2</ele>
        <time>2022-01-16T08:34:30Z</time>
      </trkpt>
      <trkpt lat="43.3087040" lon="-3.0221930">
        <ele>102.2</ele>
        <time>2022-01-16T08:34:31Z</time>
      </trkpt>
      <trkpt lat="43.3087320" lon="-3.0222640">
        <ele>102.4</ele>
        <time>2022-01-16T08:34:32Z</time>
      </trkpt>
      <trkpt lat="43.3087610" lon="-3.0223360">
        <ele>102.4</ele>
        <time>2022-01-16T08:34:33Z</time>
      </trkpt>
      <trkpt lat="43.3087890" lon="-3.0224080">
        <ele>102.4</ele>
        <time>2022-01-16T08:34:34Z</time>
      </trkpt>
      <trkpt lat="43.3088180" lon="-3.0224810">
        <ele>102.6</ele>
        <time>2022-01-16T08:34:35Z</time>
      </trkpt>
      <trkpt lat="43.3088490" lon="-3.0225510">
        <ele>102.8</ele>
        <time>2022-01-16T08:34:36Z</time>
      </trkpt>
      <trkpt lat="43.3088800" lon="-3.0226220">
        <ele>102.8</ele>
        <time>2022-01-16T08:34:37Z</time>
      </trkpt>
      <trkpt lat="43.3089110" lon="-3.0226920">
        <ele>102.8</ele>
        <time>2022-01-16T08:34:38Z</time>
      </trkpt>
      <trkpt lat="43.3089440" lon="-3.0227610">
        <ele>103.0</ele>
        <time>2022-01-16T08:34:39Z</time>
      </trkpt>
      <trkpt lat="43.3089760" lon="-3.0228300">
        <ele>103.0</ele>
        <time>2022-01-16T08:34:40Z</time>
      </trkpt>
      <trkpt lat="43.3090100" lon="-3.0228990">
        <ele>103.0</ele>
        <time>2022-01-16T08:34:41Z</time>
      </trkpt>
      <trkpt lat="43.3090440" lon="-3.0229670">
        <ele>103.0</ele>
        <time>2022-01-16T08:34:42Z</time>
      </trkpt>
      <trkpt lat="43.3090780" lon="-3.0230350">
        <ele>103.2</ele>
        <time>2022-01-16T08:34:43Z</time>
      </trkpt>
      <trkpt lat="43.3091110" lon="-3.0231010">
        <ele>103.2</ele>
        <time>2022-01-16T08:34:44Z</time>
      </trkpt>
      <trkpt lat="43.3091460" lon="-3.0231680">
        <ele>103.4</ele>
        <time>2022-01-16T08:34:45Z</time>
      </trkpt>
      <trkpt lat="43.3091800" lon="-3.0232340">
        <ele>103.4</ele>
        <time>2022-01-16T08:34:46Z</time>
      </trkpt>
      <trkpt lat="43.3092160" lon="-3.0232980">
        <ele>103.6</ele>
        <time>2022-01-16T08:34:47Z</time>
      </trkpt>
      <trkpt lat="43.3092520" lon="-3.0233610">
        <ele>103.6</ele>
        <time>2022-01-16T08:34:48Z</time>
      </trkpt>
      <trkpt lat="43.3092890" lon="-3.0234260">
        <ele>103.6</ele>
        <time>2022-01-16T08:34:49Z</time>
      </trkpt>
      <trkpt lat="43.3093250" lon="-3.0234930">
        <ele>103.8</ele>
        <time>2022-01-16T08:34:50Z</time>
      </trkpt>
      <trkpt lat="43.3093610" lon="-3.0235610">
        <ele>103.8</ele>
        <time>2022-01-16T08:34:51Z</time>
      </trkpt>
      <trkpt lat="43.3093970" lon="-3.0236280">
        <ele>104.0</ele>
        <time>2022-01-16T08:34:52Z</time>
      </trkpt>
      <trkpt lat="43.3094330" lon="-3.0236950">
        <ele>104.2</ele>
        <time>2022-01-16T08:34:53Z</time>
      </trkpt>
      <trkpt lat="43.3094700" lon="-3.0237610">
        <ele>104.2</ele>
        <time>2022-01-16T08:34:54Z</time>
      </trkpt>
      <trkpt lat="43.3095060" lon="-3.0238270">
        <ele>104.2</ele>
        <time>2022-01-16T08:34:55Z</time>
      </trkpt>
      <trkpt lat="43.3095430" lon="-3.0238940">
        <ele>104.4</ele>
        <time>2022-01-16T08:34:56Z</time>
      </trkpt>
      <trkpt lat="43.3095820" lon="-3.0239590">
        <ele>104.4</ele>
        <time>2022-01-16T08:34:57Z</time>
      </trkpt>
      <trkpt lat="43.3096200" lon="-3.0240220">
        <ele>104.6</ele>
        <time>2022-01-16T08:34:58Z</time>
      </trkpt>
      <trkpt lat="43.3096590" lon="-3.0240860">
        <ele>104.6</ele>
        <time>2022-01-16T08:34:59Z</time>
      </trkpt>
      <trkpt lat="43.3096990" lon="-3.0241490">
        <ele>104.8</ele>
        <time>2022-01-16T08:35:00Z</time>
      </trkpt>
      <trkpt lat="43.3097380" lon="-3.0242120">
        <ele>105.0</ele>
        <time>2022-01-16T08:35:01Z</time>
      </trkpt>
      <trkpt lat="43.3097780" lon="-3.0242750">
        <ele>105.0</ele>
        <time>2022-01-16T08:35:02Z</time>
      </trkpt>
      <trkpt lat="43.3098180" lon="-3.0243370">
        <ele>105.2</ele>
        <time>2022-01-16T08:35:03Z</time>
      </trkpt>
      <trkpt lat="43.3098600" lon="-3.0243980">
        <ele>105.2</ele>
        <time>2022-01-16T08:35:04Z</time>
      </trkpt>
      <trkpt lat="43.3099010" lon="-3.0244580">
        <ele>105.2</ele>
        <time>2022-01-16T08:35:05Z</time>
      </trkpt>
      <trkpt lat="43.3099430" lon="-3.0245180">
        <ele>105.2</ele>
        <time>2022-01-16T08:35:06Z</time>
      </trkpt>
      <trkpt lat="43.3099840" lon="-3.0245770">
        <ele>105.4</ele>
        <time>2022-01-16T08:35:07Z</time>
      </trkpt>
      <trkpt lat="43.3100250" lon="-3.0246350">
        <ele>105.4</ele>
        <time>2022-01-16T08:35:08Z</time>
      </trkpt>
      <trkpt lat="43.3100670" lon="-3.0246930">
        <ele>105.6</ele>
        <time>2022-01-16T08:35:09Z</time>
      </trkpt>
      <trkpt lat="43.3101090" lon="-3.0247510">
        <ele>105.8</ele>
        <time>2022-01-16T08:35:10Z</time>
      </trkpt>
      <trkpt lat="43.3101520" lon="-3.0248110">
        <ele>105.8</ele>
        <time>2022-01-16T08:35:11Z</time>
      </trkpt>
      <trkpt lat="43.3101950" lon="-3.0248690">
        <ele>106.0</ele>
        <time>2022-01-16T08:35:12Z</time>
      </trkpt>
      <trkpt lat="43.3102380" lon="-3.0249260">
        <ele>106.0</ele>
        <time>2022-01-16T08:35:13Z</time>
      </trkpt>
      <trkpt lat="43.3102810" lon="-3.0249810">
        <ele>106.2</ele>
        <time>2022-01-16T08:35:14Z</time>
      </trkpt>
      <trkpt lat="43.3103250" lon="-3.0250340">
        <ele>106.2</ele>
        <time>2022-01-16T08:35:15Z</time>
      </trkpt>
      <trkpt lat="43.3103690" lon="-3.0250870">
        <ele>106.2</ele>
        <time>2022-01-16T08:35:16Z</time>
      </trkpt>
      <trkpt lat="43.3104140" lon="-3.0251390">
        <ele>106.4</ele>
        <time>2022-01-16T08:35:17Z</time>
      </trkpt>
      <trkpt lat="43.3104570" lon="-3.0251920">
        <ele>106.4</ele>
        <time>2022-01-16T08:35:18Z</time>
      </trkpt>
      <trkpt lat="43.3105010" lon="-3.0252440">
        <ele>106.4</ele>
        <time>2022-01-16T08:35:19Z</time>
      </trkpt>
      <trkpt lat="43.3105470" lon="-3.0252920">
        <ele>106.4</ele>
        <time>2022-01-16T08:35:20Z</time>
      </trkpt>
      <trkpt lat="43.3105960" lon="-3.0253350">
        <ele>106.6</ele>
        <time>2022-01-16T08:35:21Z</time>
      </trkpt>
      <trkpt lat="43.3106470" lon="-3.0253750">
        <ele>106.6</ele>
        <time>2022-01-16T08:35:22Z</time>
      </trkpt>
      <trkpt lat="43.3106980" lon="-3.0254110">
        <ele>106.8</ele>
        <time>2022-01-16T08:35:23Z</time>
      </trkpt>
      <trkpt lat="43.3107500" lon="-3.0254440">
        <ele>107.0</ele>
        <time>2022-01-16T08:35:24Z</time>
      </trkpt>
      <trkpt lat="43.3108030" lon="-3.0254720">
        <ele>107.2</ele>
        <time>2022-01-16T08:35:25Z</time>
      </trkpt>
      <trkpt lat="43.3108550" lon="-3.0254990">
        <ele>107.2</ele>
        <time>2022-01-16T08:35:26Z</time>
      </trkpt>
      <trkpt lat="43.3109080" lon="-3.0255260">
        <ele>107.6</ele>
        <time>2022-01-16T08:35:27Z</time>
      </trkpt>
      <trkpt lat="43.3109610" lon="-3.0255530">
        <ele>107.8</ele>
        <time>2022-01-16T08:35:28Z</time>
      </trkpt>
      <trkpt lat="43.3110130" lon="-3.0255830">
        <ele>108.0</ele>
        <time>2022-01-16T08:35:29Z</time>
      </trkpt>
      <trkpt lat="43.3110640" lon="-3.0256130">
        <ele>108.2</ele>
        <time>2022-01-16T08:35:30Z</time>
      </trkpt>
      <trkpt lat="43.3111140" lon="-3.0256430">
        <ele>108.6</ele>
        <time>2022-01-16T08:35:31Z</time>
      </trkpt>
      <trkpt lat="43.3111640" lon="-3.0256730">
        <ele>108.6</ele>
        <time>2022-01-16T08:35:32Z</time>
      </trkpt>
      <trkpt lat="43.3112140" lon="-3.0257030">
        <ele>109.0</ele>
        <time>2022-01-16T08:35:33Z</time>
      </trkpt>
      <trkpt lat="43.3112630" lon="-3.0257340">
        <ele>109.2</ele>
        <time>2022-01-16T08:35:34Z</time>
      </trkpt>
      <trkpt lat="43.3113120" lon="-3.0257640">
        <ele>109.4</ele>
        <time>2022-01-16T08:35:35Z</time>
      </trkpt>
      <trkpt lat="43.3113610" lon="-3.0257940">
        <ele>109.6</ele>
        <time>2022-01-16T08:35:36Z</time>
      </trkpt>
      <trkpt lat="43.3114100" lon="-3.0258240">
        <ele>109.8</ele>
        <time>2022-01-16T08:35:37Z</time>
      </trkpt>
      <trkpt lat="43.3114600" lon="-3.0258560">
        <ele>110.0</ele>
        <time>2022-01-16T08:35:38Z</time>
      </trkpt>
      <trkpt lat="43.3115090" lon="-3.0258890">
        <ele>110.2</ele>
        <time>2022-01-16T08:35:39Z</time>
      </trkpt>
      <trkpt lat="43.3115570" lon="-3.0259220">
        <ele>110.2</ele>
        <time>2022-01-16T08:35:40Z</time>
      </trkpt>
      <trkpt lat="43.3116050" lon="-3.0259570">
        <ele>110.4</ele>
        <time>2022-01-16T08:35:41Z</time>
      </trkpt>
      <trkpt lat="43.3116500" lon="-3.0259940">
        <ele>110.6</ele>
        <time>2022-01-16T08:35:42Z</time>
      </trkpt>
      <trkpt lat="43.3116940" lon="-3.0260300">
        <ele>110.8</ele>
        <time>2022-01-16T08:35:43Z</time>
      </trkpt>
      <trkpt lat="43.3117370" lon="-3.0260690">
        <ele>111.0</ele>
        <time>2022-01-16T08:35:44Z</time>
      </trkpt>
      <trkpt lat="43.3117770" lon="-3.0261130">
        <ele>111.4</ele>
        <time>2022-01-16T08:35:45Z</time>
      </trkpt>
      <trkpt lat="43.3118140" lon="-3.0261620">
        <ele>111.8</ele>
        <time>2022-01-16T08:35:46Z</time>
      </trkpt>
      <trkpt lat="43.3118500" lon="-3.0262160">
        <ele>112.0</ele>
        <time>2022-01-16T08:35:47Z</time>
      </trkpt>
      <trkpt lat="43.3118810" lon="-3.0262710">
        <ele>112.2</ele>
        <time>2022-01-16T08:35:48Z</time>
      </trkpt>
      <trkpt lat="43.3119140" lon="-3.0263300">
        <ele>112.6</ele>
        <time>2022-01-16T08:35:49Z</time>
      </trkpt>
      <trkpt lat="43.3119460" lon="-3.0263870">
        <ele>112.8</ele>
        <time>2022-01-16T08:35:50Z</time>
      </trkpt>
      <trkpt lat="43.3119780" lon="-3.0264460">
        <ele>113.0</ele>
        <time>2022-01-16T08:35:51Z</time>
      </trkpt>
      <trkpt lat="43.3120100" lon="-3.0265050">
        <ele>113.2</ele>
        <time>2022-01-16T08:35:52Z</time>
      </trkpt>
      <trkpt lat="43.3120430" lon="-3.0265590">
        <ele>113.4</ele>
        <time>2022-01-16T08:35:53Z</time>
      </trkpt>
      <trkpt lat="43.3120800" lon="-3.0266080">
        <ele>113.6</ele>
        <time>2022-01-16T08:35:54Z</time>
      </trkpt>
      <trkpt lat="43.3121190" lon="-3.0266560">
        <ele>113.8</ele>
        <time>2022-01-16T08:35:55Z</time>
      </trkpt>
      <trkpt lat="43.3121590" lon="-3.0267050">
        <ele>113.8</ele>
        <time>2022-01-16T08:35:56Z</time>
      </trkpt>
      <trkpt lat="43.3121990" lon="-3.0267550">
        <ele>113.8</ele>
        <time>2022-01-16T08:35:57Z</time>
      </trkpt>
      <trkpt lat="43.3122390" lon="-3.0268070">
        <ele>113.8</ele>
        <time>2022-01-16T08:35:58Z</time>
      </trkpt>
      <trkpt lat="43.3122800" lon="-3.0268590">
        <ele>113.8</ele>
        <time>2022-01-16T08:35:59Z</time>
      </trkpt>
      <trkpt lat="43.3123210" lon="-3.0269130">
        <ele>113.8</ele>
        <time>2022-01-16T08:36:00Z</time>
      </trkpt>
      <trkpt lat="43.3123650" lon="-3.0269670">
        <ele>113.6</ele>
        <time>2022-01-16T08:36:01Z</time>
      </trkpt>
      <trkpt lat="43.3124110" lon="-3.0270210">
        <ele>113.4</ele>
        <time>2022-01-16T08:36:02Z</time>
      </trkpt>
      <trkpt lat="43.3124590" lon="-3.0270790">
        <ele>113.2</ele>
        <time>2022-01-16T08:36:03Z</time>
      </trkpt>
      <trkpt lat="43.3125080" lon="-3.0271400">
        <ele>112.8</ele>
        <time>2022-01-16T08:36:04Z</time>
      </trkpt>
      <trkpt lat="43.3125580" lon="-3.0272030">
        <ele>112.4</ele>
        <time>2022-01-16T08:36:05Z</time>
      </trkpt>
      <trkpt lat="43.3126080" lon="-3.0272680">
        <ele>112.2</ele>
        <time>2022-01-16T08:36:06Z</time>
      </trkpt>
      <trkpt lat="43.3126580" lon="-3.0273360">
        <ele>112.0</ele>
        <time>2022-01-16T08:36:07Z</time>
      </trkpt>
      <trkpt lat="43.3127060" lon="-3.0274050">
        <ele>111.8</ele>
        <time>2022-01-16T08:36:08Z</time>
      </trkpt>
      <trkpt lat="43.3127550" lon="-3.0274750">
        <ele>111.6</ele>
        <time>2022-01-16T08:36:09Z</time>
      </trkpt>
      <trkpt lat="43.3128040" lon="-3.0275460">
        <ele>111.2</ele>
        <time>2022-01-16T08:36:10Z</time>
      </trkpt>
      <trkpt lat="43.3128540" lon="-3.0276160">
        <ele>111.0</ele>
        <time>2022-01-16T08:36:11Z</time>
      </trkpt>
      <trkpt lat="43.3129050" lon="-3.0276850">
        <ele>110.8</ele>
        <time>2022-01-16T08:36:12Z</time>
      </trkpt>
      <trkpt lat="43.3129540" lon="-3.0277540">
        <ele>110.4</ele>
        <time>2022-01-16T08:36:13Z</time>
      </trkpt>
      <trkpt lat="43.3130030" lon="-3.0278230">
        <ele>110.2</ele>
        <time>2022-01-16T08:36:14Z</time>
      </trkpt>
      <trkpt lat="43.3130520" lon="-3.0278920">
        <ele>110.2</ele>
        <time>2022-01-16T08:36:15Z</time>
      </trkpt>
      <trkpt lat="43.3130990" lon="-3.0279580">
        <ele>110.0</ele>
        <time>2022-01-16T08:36:16Z</time>
      </trkpt>
      <trkpt lat="43.3131450" lon="-3.0280210">
        <ele>110.0</ele>
        <time>2022-01-16T08:36:17Z</time>
      </trkpt>
      <trkpt lat="43.3131920" lon="-3.0280850">
        <ele>109.8</ele>
        <time>2022-01-16T08:36:18Z</time>
      </trkpt>
      <trkpt lat="43.3132370" lon="-3.0281500">
        <ele>109.8</ele>
        <time>2022-01-16T08:36:19Z</time>
      </trkpt>
      <trkpt lat="43.3132810" lon="-3.0282140">
        <ele>109.6</ele>
        <time>2022-01-16T08:36:20Z</time>
      </trkpt>
      <trkpt lat="43.3133250" lon="-3.0282770">
        <ele>109.4</ele>
        <time>2022-01-16T08:36:21Z</time>
      </trkpt>
      <trkpt lat="43.3133660" lon="-3.0283360">
        <ele>109.4</ele>
        <time>2022-01-16T08:36:22Z</time>
      </trkpt>
      <trkpt lat="43.3134010" lon="-3.0283890">
        <ele>109.4</ele>
        <time>2022-01-16T08:36:23Z</time>
      </trkpt>
      <trkpt lat="43.3134320" lon="-3.0284340">
        <ele>109.2</ele>
        <time>2022-01-16T08:36:24Z</time>
      </trkpt>
      <trkpt lat="43.3134610" lon="-3.0284730">
        <ele>109.2</ele>
        <time>2022-01-16T08:36:25Z</time>
      </trkpt>
      <trkpt lat="43.3134820" lon="-3.0285060">
        <ele>109.0</ele>
        <time>2022-01-16T08:36:26Z</time>
      </trkpt>
      <trkpt lat="43.3135000" lon="-3.0285320">
        <ele>109.0</ele>
        <time>2022-01-16T08:36:27Z</time>
      </trkpt>
      <trkpt lat="43.3135130" lon="-3.0285490">
        <ele>108.8</ele>
        <time>2022-01-16T08:36:28Z</time>
      </trkpt>
      <trkpt lat="43.3135230" lon="-3.0285600">
        <ele>108.8</ele>
        <time>2022-01-16T08:36:29Z</time>
      </trkpt>
      <trkpt lat="43.3135270" lon="-3.0285770">
        <ele>108.8</ele>
        <time>2022-01-16T08:36:30Z</time>
      </trkpt>
      <trkpt lat="43.3135210" lon="-3.0286000">
        <ele>108.6</ele>
        <time>2022-01-16T08:36:31Z</time>
      </trkpt>
      <trkpt lat="43.3135090" lon="-3.0286220">
        <ele>108.6</ele>
        <time>2022-01-16T08:36:32Z</time>
      </trkpt>
      <trkpt lat="43.3134960" lon="-3.0286370">
        <ele>108.6</ele>
        <time>2022-01-16T08:36:33Z</time>
      </trkpt>
      <trkpt lat="43.3134890" lon="-3.0286420">
        <ele>108.6</ele>
        <time>2022-01-16T08:36:34Z</time>
      </trkpt>
      <trkpt lat="43.3134880" lon="-3.0286440">
        <ele>108.6</ele>
        <time>2022-01-16T08:36:35Z</time>
      </trkpt>
      <trkpt lat="43.3134260" lon="-3.0287190">
        <ele>108.8</ele>
        <time>2022-01-16T08:36:46Z</time>
      </trkpt>
      <trkpt lat="43.3134060" lon="-3.0287440">
        <ele>108.8</ele>
        <time>2022-01-16T08:36:47Z</time>
      </trkpt>
      <trkpt lat="43.3133810" lon="-3.0287720">
        <ele>108.8</ele>
        <time>2022-01-16T08:36:48Z</time>
      </trkpt>
      <trkpt lat="43.3133510" lon="-3.0288030">
        <ele>109.0</ele>
        <time>2022-01-16T08:36:49Z</time>
      </trkpt>
      <trkpt lat="43.3133200" lon="-3.0288400">
        <ele>109.0</ele>
        <time>2022-01-16T08:36:50Z</time>
      </trkpt>
      <trkpt lat="43.3132850" lon="-3.0288810">
        <ele>109.0</ele>
        <time>2022-01-16T08:36:51Z</time>
      </trkpt>
      <trkpt lat="43.3132470" lon="-3.0289210">
        <ele>109.0</ele>
        <time>2022-01-16T08:36:52Z</time>
      </trkpt>
      <trkpt lat="43.3132060" lon="-3.0289690">
        <ele>109.0</ele>
        <time>2022-01-16T08:36:53Z</time>
      </trkpt>
      <trkpt lat="43.3131630" lon="-3.0290160">
        <ele>109.2</ele>
        <time>2022-01-16T08:36:54Z</time>
      </trkpt>
      <trkpt lat="43.3131210" lon="-3.0290640">
        <ele>109.2</ele>
        <time>2022-01-16T08:36:55Z</time>
      </trkpt>
      <trkpt lat="43.3130780" lon="-3.0291120">
        <ele>109.2</ele>
        <time>2022-01-16T08:36:56Z</time>
      </trkpt>
      <trkpt lat="43.3130340" lon="-3.0291630">
        <ele>109.2</ele>
        <time>2022-01-16T08:36:57Z</time>
      </trkpt>
      <trkpt lat="43.3129910" lon="-3.0292150">
        <ele>109.2</ele>
        <time>2022-01-16T08:36:58Z</time>
      </trkpt>
      <trkpt lat="43.3129470" lon="-3.0292700">
        <ele>109.2</ele>
        <time>2022-01-16T08:36:59Z</time>
      </trkpt>
      <trkpt lat="43.3129030" lon="-3.0293270">
        <ele>109.2</ele>
        <time>2022-01-16T08:37:00Z</time>
      </trkpt>
      <trkpt lat="43.3128570" lon="-3.0293810">
        <ele>109.4</ele>
        <time>2022-01-16T08:37:01Z</time>
      </trkpt>
      <trkpt lat="43.3128100" lon="-3.0294340">
        <ele>109.4</ele>
        <time>2022-01-16T08:37:02Z</time>
      </trkpt>
      <trkpt lat="43.3127610" lon="-3.0294840">
        <ele>109.4</ele>
        <time>2022-01-16T08:37:03Z</time>
      </trkpt>
      <trkpt lat="43.3127130" lon="-3.0295360">
        <ele>109.6</ele>
        <time>2022-01-16T08:37:04Z</time>
      </trkpt>
      <trkpt lat="43.3126660" lon="-3.0295920">
        <ele>109.8</ele>
        <time>2022-01-16T08:37:05Z</time>
      </trkpt>
      <trkpt lat="43.3126200" lon="-3.0296500">
        <ele>109.8</ele>
        <time>2022-01-16T08:37:06Z</time>
      </trkpt>
      <trkpt lat="43.3125770" lon="-3.0297090">
        <ele>109.8</ele>
        <time>2022-01-16T08:37:07Z</time>
      </trkpt>
      <trkpt lat="43.3125350" lon="-3.0297700">
        <ele>110.0</ele>
        <time>2022-01-16T08:37:08Z</time>
      </trkpt>
      <trkpt lat="43.3124940" lon="-3.0298320">
        <ele>110.2</ele>
        <time>2022-01-16T08:37:09Z</time>
      </trkpt>
      <trkpt lat="43.3124520" lon="-3.0298970">
        <ele>110.4</ele>
        <time>2022-01-16T08:37:10Z</time>
      </trkpt>
      <trkpt lat="43.3124140" lon="-3.0299670">
        <ele>110.4</ele>
        <time>2022-01-16T08:37:11Z</time>
      </trkpt>
      <trkpt lat="43.3123790" lon="-3.0300380">
        <ele>110.4</ele>
        <time>2022-01-16T08:37:12Z</time>
      </trkpt>
      <trkpt lat="43.3123450" lon="-3.0301110">
        <ele>110.6</ele>
        <time>2022-01-16T08:37:13Z</time>
      </trkpt>
      <trkpt lat="43.3123130" lon="-3.0301840">
        <ele>110.6</ele>
        <time>2022-01-16T08:37:14Z</time>
      </trkpt>
      <trkpt lat="43.3122810" lon="-3.0302570">
        <ele>110.8</ele>
        <time>2022-01-16T08:37:15Z</time>
      </trkpt>
      <trkpt lat="43.3122480" lon="-3.0303290">
        <ele>111.0</ele>
        <time>2022-01-16T08:37:16Z</time>
      </trkpt>
      <trkpt lat="43.3122170" lon="-3.0304010">
        <ele>111.0</ele>
        <time>2022-01-16T08:37:17Z</time>
      </trkpt>
      <trkpt lat="43.3121870" lon="-3.0304720">
        <ele>111.2</ele>
        <time>2022-01-16T08:37:18Z</time>
      </trkpt>
      <trkpt lat="43.3121560" lon="-3.0305420">
        <ele>111.2</ele>
        <time>2022-01-16T08:37:19Z</time>
      </trkpt>
      <trkpt lat="43.3121260" lon="-3.0306120">
        <ele>111.2</ele>
        <time>2022-01-16T08:37:20Z</time>
      </trkpt>
      <trkpt lat="43.3120940" lon="-3.0306820">
        <ele>111.2</ele>
        <time>2022-01-16T08:37:21Z</time>
      </trkpt>
      <trkpt lat="43.3120630" lon="-3.0307530">
        <ele>111.2</ele>
        <time>2022-01-16T08:37:22Z</time>
      </trkpt>
      <trkpt lat="43.3120320" lon="-3.0308240">
        <ele>111.4</ele>
        <time>2022-01-16T08:37:23Z</time>
      </trkpt>
      <trkpt lat="43.3120020" lon="-3.0308950">
        <ele>111.4</ele>
        <time>2022-01-16T08:37:24Z</time>
      </trkpt>
      <trkpt lat="43.3119710" lon="-3.0309650">
        <ele>111.4</ele>
        <time>2022-01-16T08:37:25Z</time>
      </trkpt>
      <trkpt lat="43.3119400" lon="-3.0310370">
        <ele>111.4</ele>
        <time>2022-01-16T08:37:26Z</time>
      </trkpt>
      <trkpt lat="43.3119070" lon="-3.0311110">
        <ele>111.4</ele>
        <time>2022-01-16T08:37:27Z</time>
      </trkpt>
      <trkpt lat="43.3118720" lon="-3.0311870">
        <ele>111.2</ele>
        <time>2022-01-16T08:37:28Z</time>
      </trkpt>
      <trkpt lat="43.3118350" lon="-3.0312620">
        <ele>111.2</ele>
        <time>2022-01-16T08:37:29Z</time>
      </trkpt>
      <trkpt lat="43.3117970" lon="-3.0313370">
        <ele>111.0</ele>
        <time>2022-01-16T08:37:30Z</time>
      </trkpt>
      <trkpt lat="43.3117550" lon="-3.0314130">
        <ele>110.6</ele>
        <time>2022-01-16T08:37:31Z</time>
      </trkpt>
      <trkpt lat="43.3117100" lon="-3.0314870">
        <ele>110.4</ele>
        <time>2022-01-16T08:37:32Z</time>
      </trkpt>
      <trkpt lat="43.3116650" lon="-3.0315610">
        <ele>110.2</ele>
        <time>2022-01-16T08:37:33Z</time>
      </trkpt>
      <trkpt lat="43.3116170" lon="-3.0316330">
        <ele>110.2</ele>
        <time>2022-01-16T08:37:34Z</time>
      </trkpt>
      <trkpt lat="43.3115710" lon="-3.0317000">
        <ele>110.2</ele>
        <time>2022-01-16T08:37:35Z</time>
      </trkpt>
      <trkpt lat="43.3115240" lon="-3.0317610">
        <ele>110.2</ele>
        <time>2022-01-16T08:37:36Z</time>
      </trkpt>
      <trkpt lat="43.3114750" lon="-3.0318200">
        <ele>110.6</ele>
        <time>2022-01-16T08:37:37Z</time>
      </trkpt>
      <trkpt lat="43.3114270" lon="-3.0318740">
        <ele>111.2</ele>
        <time>2022-01-16T08:37:38Z</time>
      </trkpt>
      <trkpt lat="43.3113810" lon="-3.0319240">
        <ele>111.4</ele>
        <time>2022-01-16T08:37:39Z</time>
      </trkpt>
      <trkpt lat="43.3113350" lon="-3.0319720">
        <ele>112.0</ele>
        <time>2022-01-16T08:37:40Z</time>
      </trkpt>
      <trkpt lat="43.3112890" lon="-3.0320150">
        <ele>112.2</ele>
        <time>2022-01-16T08:37:41Z</time>
      </trkpt>
      <trkpt lat="43.3112420" lon="-3.0320570">
        <ele>112.6</ele>
        <time>2022-01-16T08:37:42Z</time>
      </trkpt>
      <trkpt lat="43.3111960" lon="-3.0320980">
        <ele>112.8</ele>
        <time>2022-01-16T08:37:43Z</time>
      </trkpt>
      <trkpt lat="43.3111500" lon="-3.0321380">
        <ele>113.0</ele>
        <time>2022-01-16T08:37:44Z</time>
      </trkpt>
      <trkpt lat="43.3111040" lon="-3.0321780">
        <ele>113.4</ele>
        <time>2022-01-16T08:37:45Z</time>
      </trkpt>
      <trkpt lat="43.3110590" lon="-3.0322170">
        <ele>113.6</ele>
        <time>2022-01-16T08:37:46Z</time>
      </trkpt>
      <trkpt lat="43.3110130" lon="-3.0322530">
        <ele>113.8</ele>
        <time>2022-01-16T08:37:47Z</time>
      </trkpt>
      <trkpt lat="43.3109690" lon="-3.0322860">
        <ele>114.0</ele>
        <time>2022-01-16T08:37:48Z</time>
      </trkpt>
      <trkpt lat="43.3109250" lon="-3.0323180">
        <ele>114.0</ele>
        <time>2022-01-16T08:37:49Z</time>
      </trkpt>
      <trkpt lat="43.3108840" lon="-3.0323560">
        <ele>114.4</ele>
        <time>2022-01-16T08:37:50Z</time>
      </trkpt>
      <trkpt lat="43.3108480" lon="-3.0324050">
        <ele>114.6</ele>
        <time>2022-01-16T08:37:51Z</time>
      </trkpt>
      <trkpt lat="43.3108110" lon="-3.0324580">
        <ele>115.0</ele>
        <time>2022-01-16T08:37:52Z</time>
      </trkpt>
      <trkpt lat="43.3107790" lon="-3.0325160">
        <ele>115.2</ele>
        <time>2022-01-16T08:37:53Z</time>
      </trkpt>
      <trkpt lat="43.3107530" lon="-3.0325790">
        <ele>115.4</ele>
        <time>2022-01-16T08:37:54Z</time>
      </trkpt>
      <trkpt lat="43.3107310" lon="-3.0326400">
        <ele>115.8</ele>
        <time>2022-01-16T08:37:55Z</time>
      </trkpt>
      <trkpt lat="43.3107160" lon="-3.0327010">
        <ele>116.0</ele>
        <time>2022-01-16T08:37:56Z</time>
      </trkpt>
      <trkpt lat="43.3107090" lon="-3.0327690">
        <ele>116.4</ele>
        <time>2022-01-16T08:37:57Z</time>
      </trkpt>
      <trkpt lat="43.3107080" lon="-3.0328370">
        <ele>116.6</ele>
        <time>2022-01-16T08:37:58Z</time>
      </trkpt>
      <trkpt lat="43.3107140" lon="-3.0329050">
        <ele>116.8</ele>
        <time>2022-01-16T08:37:59Z</time>
      </trkpt>
      <trkpt lat="43.3107280" lon="-3.0329710">
        <ele>117.0</ele>
        <time>2022-01-16T08:38:00Z</time>
      </trkpt>
      <trkpt lat="43.3107480" lon="-3.0330360">
        <ele>117.2</ele>
        <time>2022-01-16T08:38:01Z</time>
      </trkpt>
      <trkpt lat="43.3107720" lon="-3.0330970">
        <ele>117.6</ele>
        <time>2022-01-16T08:38:02Z</time>
      </trkpt>
      <trkpt lat="43.3108020" lon="-3.0331530">
        <ele>117.8</ele>
        <time>2022-01-16T08:38:03Z</time>
      </trkpt>
      <trkpt lat="43.3108390" lon="-3.0332070">
        <ele>118.0</ele>
        <time>2022-01-16T08:38:04Z</time>
      </trkpt>
      <trkpt lat="43.3108770" lon="-3.0332550">
        <ele>118.4</ele>
        <time>2022-01-16T08:38:05Z</time>
      </trkpt>
      <trkpt lat="43.3109170" lon="-3.0332970">
        <ele>118.8</ele>
        <time>2022-01-16T08:38:06Z</time>
      </trkpt>
      <trkpt lat="43.3109590" lon="-3.0333340">
        <ele>119.0</ele>
        <time>2022-01-16T08:38:07Z</time>
      </trkpt>
      <trkpt lat="43.3110000" lon="-3.0333710">
        <ele>119.4</ele>
        <time>2022-01-16T08:38:08Z</time>
      </trkpt>
      <trkpt lat="43.3110420" lon="-3.0334070">
        <ele>119.6</ele>
        <time>2022-01-16T08:38:09Z</time>
      </trkpt>
      <trkpt lat="43.3110850" lon="-3.0334370">
        <ele>120.0</ele>
        <time>2022-01-16T08:38:10Z</time>
      </trkpt>
      <trkpt lat="43.3111270" lon="-3.0334720">
        <ele>120.2</ele>
        <time>2022-01-16T08:38:11Z</time>
      </trkpt>
      <trkpt lat="43.3111680" lon="-3.0335080">
        <ele>120.6</ele>
        <time>2022-01-16T08:38:12Z</time>
      </trkpt>
      <trkpt lat="43.3112080" lon="-3.0335460">
        <ele>120.8</ele>
        <time>2022-01-16T08:38:13Z</time>
      </trkpt>
      <trkpt lat="43.3112490" lon="-3.0335830">
        <ele>121.0</ele>
        <time>2022-01-16T08:38:14Z</time>
      </trkpt>
      <trkpt lat="43.3112880" lon="-3.0336220">
        <ele>121.4</ele>
        <time>2022-01-16T08:38:15Z</time>
      </trkpt>
      <trkpt lat="43.3113240" lon="-3.0336640">
        <ele>121.6</ele>
        <time>2022-01-16T08:38:16Z</time>
      </trkpt>
      <trkpt lat="43.3113590" lon="-3.0337090">
        <ele>121.8</ele>
        <time>2022-01-16T08:38:17Z</time>
      </trkpt>
      <trkpt lat="43.3113930" lon="-3.0337570">
        <ele>122.0</ele>
        <time>2022-01-16T08:38:18Z</time>
      </trkpt>
      <trkpt lat="43.3114250" lon="-3.0338080">
        <ele>122.4</ele>
        <time>2022-01-16T08:38:19Z</time>
      </trkpt>
      <trkpt lat="43.3114560" lon="-3.0338630">
        <ele>122.8</ele>
        <time>2022-01-16T08:38:20Z</time>
      </trkpt>
      <trkpt lat="43.3114820" lon="-3.0339210">
        <ele>123.0</ele>
        <time>2022-01-16T08:38:21Z</time>
      </trkpt>
      <trkpt lat="43.3115040" lon="-3.0339790">
        <ele>123.2</ele>
        <time>2022-01-16T08:38:22Z</time>
      </trkpt>
      <trkpt lat="43.3115210" lon="-3.0340370">
        <ele>123.4</ele>
        <time>2022-01-16T08:38:23Z</time>
      </trkpt>
      <trkpt lat="43.3115340" lon="-3.0340990">
        <ele>123.6</ele>
        <time>2022-01-16T08:38:24Z</time>
      </trkpt>
      <trkpt lat="43.3115460" lon="-3.0341620">
        <ele>124.0</ele>
        <time>2022-01-16T08:38:25Z</time>
      </trkpt>
      <trkpt lat="43.3115550" lon="-3.0342250">
        <ele>124.2</ele>
        <time>2022-01-16T08:38:26Z</time>
      </trkpt>
      <trkpt lat="43.3115610" lon="-3.0342930">
        <ele>124.4</ele>
        <time>2022-01-16T08:38:27Z</time>
      </trkpt>
      <trkpt lat="43.3115620" lon="-3.0343620">
        <ele>124.4</ele>
        <time>2022-01-16T08:38:28Z</time>
      </trkpt>
      <trkpt lat="43.3115610" lon="-3.0344330">
        <ele>124.4</ele>
        <time>2022-01-16T08:38:29Z</time>
      </trkpt>
      <trkpt lat="43.3115570" lon="-3.0345000">
        <ele>124.4</ele>
        <time>2022-01-16T08:38:30Z</time>
      </trkpt>
      <trkpt lat="43.3115520" lon="-3.0345650">
        <ele>124.4</ele>
        <time>2022-01-16T08:38:31Z</time>
      </trkpt>
      <trkpt lat="43.3115430" lon="-3.0346280">
        <ele>124.4</ele>
        <time>2022-01-16T08:38:32Z</time>
      </trkpt>
      <trkpt lat="43.3115340" lon="-3.0346900">
        <ele>124.4</ele>
        <time>2022-01-16T08:38:33Z</time>
      </trkpt>
      <trkpt lat="43.3115270" lon="-3.0347530">
        <ele>124.6</ele>
        <time>2022-01-16T08:38:34Z</time>
      </trkpt>
      <trkpt lat="43.3115190" lon="-3.0348140">
        <ele>124.6</ele>
        <time>2022-01-16T08:38:35Z</time>
      </trkpt>
      <trkpt lat="43.3115120" lon="-3.0348760">
        <ele>124.6</ele>
        <time>2022-01-16T08:38:36Z</time>
      </trkpt>
      <trkpt lat="43.3115050" lon="-3.0349380">
        <ele>124.6</ele>
        <time>2022-01-16T08:38:37Z</time>
      </trkpt>
      <trkpt lat="43.3114990" lon="-3.0349990">
        <ele>124.4</ele>
        <time>2022-01-16T08:38:38Z</time>
      </trkpt>
      <trkpt lat="43.3114940" lon="-3.0350610">
        <ele>124.4</ele>
        <time>2022-01-16T08:38:39Z</time>
      </trkpt>
      <trkpt lat="43.3114920" lon="-3.0351240">
        <ele>124.4</ele>
        <time>2022-01-16T08:38:40Z</time>
      </trkpt>
      <trkpt lat="43.3114920" lon="-3.0351860">
        <ele>124.2</ele>
        <time>2022-01-16T08:38:41Z</time>
      </trkpt>
      <trkpt lat="43.3114960" lon="-3.0352420">
        <ele>124.2</ele>
        <time>2022-01-16T08:38:42Z</time>
      </trkpt>
      <trkpt lat="43.3115040" lon="-3.0352880">
        <ele>124.0</ele>
        <time>2022-01-16T08:38:43Z</time>
      </trkpt>
      <trkpt lat="43.3115100" lon="-3.0353230">
        <ele>124.0</ele>
        <time>2022-01-16T08:38:44Z</time>
      </trkpt>
      <trkpt lat="43.3115120" lon="-3.0353480">
        <ele>123.8</ele>
        <time>2022-01-16T08:38:45Z</time>
      </trkpt>
      <trkpt lat="43.3115120" lon="-3.0353670">
        <ele>123.8</ele>
        <time>2022-01-16T08:38:46Z</time>
      </trkpt>
      <trkpt lat="43.3115140" lon="-3.0353800">
        <ele>123.8</ele>
        <time>2022-01-16T08:38:47Z</time>
      </trkpt>
      <trkpt lat="43.3115140" lon="-3.0353850">
        <ele>123.8</ele>
        <time>2022-01-16T08:38:48Z</time>
      </trkpt>
      <trkpt lat="43.3114300" lon="-3.0353490">
        <ele>122.8</ele>
        <time>2022-01-16T08:43:04Z</time>
      </trkpt>
      <trkpt lat="43.3114160" lon="-3.0353340">
        <ele>122.8</ele>
        <time>2022-01-16T08:43:05Z</time>
      </trkpt>
      <trkpt lat="43.3113970" lon="-3.0353210">
        <ele>122.8</ele>
        <time>2022-01-16T08:43:06Z</time>
      </trkpt>
      <trkpt lat="43.3113740" lon="-3.0353160">
        <ele>122.8</ele>
        <time>2022-01-16T08:43:07Z</time>
      </trkpt>
      <trkpt lat="43.3113470" lon="-3.0353250">
        <ele>122.8</ele>
        <time>2022-01-16T08:43:08Z</time>
      </trkpt>
      <trkpt lat="43.3113200" lon="-3.0353470">
        <ele>122.6</ele>
        <time>2022-01-16T08:43:09Z</time>
      </trkpt>
      <trkpt lat="43.3112960" lon="-3.0353720">
        <ele>122.6</ele>
        <time>2022-01-16T08:43:10Z</time>
      </trkpt>
      <trkpt lat="43.3112770" lon="-3.0354020">
        <ele>122.4</ele>
        <time>2022-01-16T08:43:11Z</time>
      </trkpt>
      <trkpt lat="43.3112640" lon="-3.0354360">
        <ele>122.4</ele>
        <time>2022-01-16T08:43:12Z</time>
      </trkpt>
      <trkpt lat="43.3112540" lon="-3.0354650">
        <ele>122.6</ele>
        <time>2022-01-16T08:43:13Z</time>
      </trkpt>
      <trkpt lat="43.3112460" lon="-3.0354920">
        <ele>122.8</ele>
        <time>2022-01-16T08:43:14Z</time>
      </trkpt>
      <trkpt lat="43.3112350" lon="-3.0355290">
        <ele>123.0</ele>
        <time>2022-01-16T08:43:15Z</time>
      </trkpt>
      <trkpt lat="43.3112320" lon="-3.0355510">
        <ele>123.2</ele>
        <time>2022-01-16T08:43:16Z</time>
      </trkpt>
      <trkpt lat="43.3112300" lon="-3.0355770">
        <ele>123.2</ele>
        <time>2022-01-16T08:43:17Z</time>
      </trkpt>
      <trkpt lat="43.3112310" lon="-3.0356050">
        <ele>123.4</ele>
        <time>2022-01-16T08:43:18Z</time>
      </trkpt>
      <trkpt lat="43.3112330" lon="-3.0356380">
        <ele>123.6</ele>
        <time>2022-01-16T08:43:19Z</time>
      </trkpt>
      <trkpt lat="43.3112320" lon="-3.0356760">
        <ele>123.6</ele>
        <time>2022-01-16T08:43:20Z</time>
      </trkpt>
      <trkpt lat="43.3112330" lon="-3.0357180">
        <ele>123.8</ele>
        <time>2022-01-16T08:43:21Z</time>
      </trkpt>
      <trkpt lat="43.3112340" lon="-3.0357610">
        <ele>123.8</ele>
        <time>2022-01-16T08:43:22Z</time>
      </trkpt>
      <trkpt lat="43.3112360" lon="-3.0358050">
        <ele>124.0</ele>
        <time>2022-01-16T08:43:23Z</time>
      </trkpt>
      <trkpt lat="43.3112400" lon="-3.0358500">
        <ele>124.2</ele>
        <time>2022-01-16T08:43:24Z</time>
      </trkpt>
      <trkpt lat="43.3112450" lon="-3.0358950">
        <ele>124.4</ele>
        <time>2022-01-16T08:43:25Z</time>
      </trkpt>
      <trkpt lat="43.3112520" lon="-3.0359380">
        <ele>124.6</ele>
        <time>2022-01-16T08:43:26Z</time>
      </trkpt>
      <trkpt lat="43.3112580" lon="-3.0359780">
        <ele>124.8</ele>
        <time>2022-01-16T08:43:27Z</time>
      </trkpt>
      <trkpt lat="43.3112650" lon="-3.0360070">
        <ele>125.0</ele>
        <time>2022-01-16T08:43:28Z</time>
      </trkpt>
      <trkpt lat="43.3112720" lon="-3.0360370">
        <ele>125.2</ele>
        <time>2022-01-16T08:43:29Z</time>
      </trkpt>
      <trkpt lat="43.3112780" lon="-3.0360700">
        <ele>125.4</ele>
        <time>2022-01-16T08:43:30Z</time>
      </trkpt>
      <trkpt lat="43.3112820" lon="-3.0361080">
        <ele>125.4</ele>
        <time>2022-01-16T08:43:31Z</time>
      </trkpt>
      <trkpt lat="43.3112920" lon="-3.0361460">
        <ele>125.6</ele>
        <time>2022-01-16T08:43:32Z</time>
      </trkpt>
      <trkpt lat="43.3113020" lon="-3.0361850">
        <ele>125.6</ele>
        <time>2022-01-16T08:43:33Z</time>
      </trkpt>
      <trkpt lat="43.3113110" lon="-3.0362260">
        <ele>125.8</ele>
        <time>2022-01-16T08:43:34Z</time>
      </trkpt>
      <trkpt lat="43.3113210" lon="-3.0362710">
        <ele>126.0</ele>
        <time>2022-01-16T08:43:35Z</time>
      </trkpt>
      <trkpt lat="43.3113300" lon="-3.0363150">
        <ele>126.2</ele>
        <time>2022-01-16T08:43:36Z</time>
      </trkpt>
      <trkpt lat="43.3113360" lon="-3.0363600">
        <ele>126.4</ele>
        <time>2022-01-16T08:43:37Z</time>
      </trkpt>
      <trkpt lat="43.3113450" lon="-3.0364050">
        <ele>126.6</ele>
        <time>2022-01-16T08:43:38Z</time>
      </trkpt>
      <trkpt lat="43.3113540" lon="-3.0364580">
        <ele>126.8</ele>
        <time>2022-01-16T08:43:39Z</time>
      </trkpt>
      <trkpt lat="43.3113540" lon="-3.0365090">
        <ele>126.8</ele>
        <time>2022-01-16T08:43:40Z</time>
      </trkpt>
      <trkpt lat="43.3113450" lon="-3.0365650">
        <ele>127.0</ele>
        <time>2022-01-16T08:43:41Z</time>
      </trkpt>
      <trkpt lat="43.3113300" lon="-3.0366170">
        <ele>127.2</ele>
        <time>2022-01-16T08:43:42Z</time>
      </trkpt>
      <trkpt lat="43.3113100" lon="-3.0366670">
        <ele>127.4</ele>
        <time>2022-01-16T08:43:43Z</time>
      </trkpt>
      <trkpt lat="43.3112860" lon="-3.0367130">
        <ele>127.6</ele>
        <time>2022-01-16T08:43:44Z</time>
      </trkpt>
      <trkpt lat="43.3112570" lon="-3.0367570">
        <ele>127.8</ele>
        <time>2022-01-16T08:43:45Z</time>
      </trkpt>
      <trkpt lat="43.3112270" lon="-3.0367960">
        <ele>127.8</ele>
        <time>2022-01-16T08:43:46Z</time>
      </trkpt>
      <trkpt lat="43.3111930" lon="-3.0368350">
        <ele>127.8</ele>
        <time>2022-01-16T08:43:47Z</time>
      </trkpt>
      <trkpt lat="43.3111590" lon="-3.0368710">
        <ele>128.0</ele>
        <time>2022-01-16T08:43:48Z</time>
      </trkpt>
      <trkpt lat="43.3111240" lon="-3.0369020">
        <ele>128.2</ele>
        <time>2022-01-16T08:43:49Z</time>
      </trkpt>
      <trkpt lat="43.3110860" lon="-3.0369280">
        <ele>128.4</ele>
        <time>2022-01-16T08:43:50Z</time>
      </trkpt>
      <trkpt lat="43.3110490" lon="-3.0369560">
        <ele>128.4</ele>
        <time>2022-01-16T08:43:51Z</time>
      </trkpt>
      <trkpt lat="43.3110110" lon="-3.0369890">
        <ele>128.6</ele>
        <time>2022-01-16T08:43:52Z</time>
      </trkpt>
      <trkpt lat="43.3109760" lon="-3.0370280">
        <ele>128.8</ele>
        <time>2022-01-16T08:43:53Z</time>
      </trkpt>
      <trkpt lat="43.3109430" lon="-3.0370710">
        <ele>129.0</ele>
        <time>2022-01-16T08:43:54Z</time>
      </trkpt>
      <trkpt lat="43.3109080" lon="-3.0371130">
        <ele>129.2</ele>
        <time>2022-01-16T08:43:55Z</time>
      </trkpt>
      <trkpt lat="43.3108700" lon="-3.0371540">
        <ele>129.6</ele>
        <time>2022-01-16T08:43:56Z</time>
      </trkpt>
      <trkpt lat="43.3108360" lon="-3.0371990">
        <ele>129.6</ele>
        <time>2022-01-16T08:43:57Z</time>
      </trkpt>
      <trkpt lat="43.3108010" lon="-3.0372460">
        <ele>129.8</ele>
        <time>2022-01-16T08:43:58Z</time>
      </trkpt>
      <trkpt lat="43.3107660" lon="-3.0372920">
        <ele>130.0</ele>
        <time>2022-01-16T08:43:59Z</time>
      </trkpt>
      <trkpt lat="43.3107310" lon="-3.0373360">
        <ele>130.2</ele>
        <time>2022-01-16T08:44:00Z</time>
      </trkpt>
      <trkpt lat="43.3106980" lon="-3.0373840">
        <ele>130.6</ele>
        <time>2022-01-16T08:44:01Z</time>
      </trkpt>
      <trkpt lat="43.3106650" lon="-3.0374320">
        <ele>131.0</ele>
        <time>2022-01-16T08:44:02Z</time>
      </trkpt>
      <trkpt lat="43.3106320" lon="-3.0374820">
        <ele>131.2</ele>
        <time>2022-01-16T08:44:03Z</time>
      </trkpt>
      <trkpt lat="43.3105990" lon="-3.0375290">
        <ele>131.4</ele>
        <time>2022-01-16T08:44:04Z</time>
      </trkpt>
      <trkpt lat="43.3105670" lon="-3.0375750">
        <ele>131.6</ele>
        <time>2022-01-16T08:44:05Z</time>
      </trkpt>
      <trkpt lat="43.3105360" lon="-3.0376210">
        <ele>131.8</ele>
        <time>2022-01-16T08:44:06Z</time>
      </trkpt>
      <trkpt lat="43.3105040" lon="-3.0376670">
        <ele>132.0</ele>
        <time>2022-01-16T08:44:07Z</time>
      </trkpt>
      <trkpt lat="43.3104720" lon="-3.0377120">
        <ele>132.0</ele>
        <time>2022-01-16T08:44:08Z</time>
      </trkpt>
      <trkpt lat="43.3104410" lon="-3.0377580">
        <ele>132.2</ele>
        <time>2022-01-16T08:44:09Z</time>
      </trkpt>
      <trkpt lat="43.3104090" lon="-3.0378040">
        <ele>132.2</ele>
        <time>2022-01-16T08:44:10Z</time>
      </trkpt>
      <trkpt lat="43.3103760" lon="-3.0378520">
        <ele>132.4</ele>
        <time>2022-01-16T08:44:11Z</time>
      </trkpt>
      <trkpt lat="43.3103420" lon="-3.0379010">
        <ele>132.8</ele>
        <time>2022-01-16T08:44:12Z</time>
      </trkpt>
      <trkpt lat="43.3103090" lon="-3.0379500">
        <ele>133.2</ele>
        <time>2022-01-16T08:44:13Z</time>
      </trkpt>
      <trkpt lat="43.3102760" lon="-3.0379990">
        <ele>133.6</ele>
        <time>2022-01-16T08:44:14Z</time>
      </trkpt>
      <trkpt lat="43.3102430" lon="-3.0380470">
        <ele>133.6</ele>
        <time>2022-01-16T08:44:15Z</time>
      </trkpt>
      <trkpt lat="43.3102130" lon="-3.0380970">
        <ele>134.0</ele>
        <time>2022-01-16T08:44:16Z</time>
      </trkpt>
      <trkpt lat="43.3101870" lon="-3.0381450">
        <ele>134.2</ele>
        <time>2022-01-16T08:44:17Z</time>
      </trkpt>
      <trkpt lat="43.3101630" lon="-3.0381910">
        <ele>134.4</ele>
        <time>2022-01-16T08:44:18Z</time>
      </trkpt>
      <trkpt lat="43.3101380" lon="-3.0382360">
        <ele>134.6</ele>
        <time>2022-01-16T08:44:19Z</time>
      </trkpt>
      <trkpt lat="43.3101080" lon="-3.0382780">
        <ele>134.8</ele>
        <time>2022-01-16T08:44:20Z</time>
      </trkpt>
      <trkpt lat="43.3100800" lon="-3.0383250">
        <ele>135.0</ele>
        <time>2022-01-16T08:44:21Z</time>
      </trkpt>
      <trkpt lat="43.3100520" lon="-3.0383720">
        <ele>135.0</ele>
        <time>2022-01-16T08:44:22Z</time>
      </trkpt>
      <trkpt lat="43.3100240" lon="-3.0384210">
        <ele>135.2</ele>
        <time>2022-01-16T08:44:23Z</time>
      </trkpt>
      <trkpt lat="43.3099990" lon="-3.0384740">
        <ele>135.2</ele>
        <time>2022-01-16T08:44:24Z</time>
      </trkpt>
      <trkpt lat="43.3099750" lon="-3.0385310">
        <ele>135.2</ele>
        <time>2022-01-16T08:44:25Z</time>
      </trkpt>
      <trkpt lat="43.3099500" lon="-3.0385930">
        <ele>135.0</ele>
        <time>2022-01-16T08:44:26Z</time>
      </trkpt>
      <trkpt lat="43.3099250" lon="-3.0386590">
        <ele>135.0</ele>
        <time>2022-01-16T08:44:27Z</time>
      </trkpt>
      <trkpt lat="43.3099030" lon="-3.0387320">
        <ele>134.8</ele>
        <time>2022-01-16T08:44:28Z</time>
      </trkpt>
      <trkpt lat="43.3098880" lon="-3.0388100">
        <ele>134.8</ele>
        <time>2022-01-16T08:44:29Z</time>
      </trkpt>
      <trkpt lat="43.3098770" lon="-3.0388880">
        <ele>134.6</ele>
        <time>2022-01-16T08:44:30Z</time>
      </trkpt>
      <trkpt lat="43.3098700" lon="-3.0389680">
        <ele>134.6</ele>
        <time>2022-01-16T08:44:31Z</time>
      </trkpt>
      <trkpt lat="43.3098630" lon="-3.0390520">
        <ele>134.6</ele>
        <time>2022-01-16T08:44:32Z</time>
      </trkpt>
      <trkpt lat="43.3098560" lon="-3.0391360">
        <ele>134.4</ele>
        <time>2022-01-16T08:44:33Z</time>
      </trkpt>
      <trkpt lat="43.3098490" lon="-3.0392210">
        <ele>134.4</ele>
        <time>2022-01-16T08:44:34Z</time>
      </trkpt>
      <trkpt lat="43.3098420" lon="-3.0393050">
        <ele>134.4</ele>
        <time>2022-01-16T08:44:35Z</time>
      </trkpt>
      <trkpt lat="43.3098340" lon="-3.0393870">
        <ele>134.4</ele>
        <time>2022-01-16T08:44:36Z</time>
      </trkpt>
      <trkpt lat="43.3098250" lon="-3.0394630">
        <ele>134.4</ele>
        <time>2022-01-16T08:44:37Z</time>
      </trkpt>
      <trkpt lat="43.3098150" lon="-3.0395370">
        <ele>134.4</ele>
        <time>2022-01-16T08:44:38Z</time>
      </trkpt>
      <trkpt lat="43.3098050" lon="-3.0396090">
        <ele>134.4</ele>
        <time>2022-01-16T08:44:39Z</time>
      </trkpt>
      <trkpt lat="43.3097930" lon="-3.0396770">
        <ele>134.6</ele>
        <time>2022-01-16T08:44:40Z</time>
      </trkpt>
      <trkpt lat="43.3097820" lon="-3.0397430">
        <ele>134.8</ele>
        <time>2022-01-16T08:44:41Z</time>
      </trkpt>
      <trkpt lat="43.3097670" lon="-3.0398080">
        <ele>135.2</ele>
        <time>2022-01-16T08:44:42Z</time>
      </trkpt>
      <trkpt lat="43.3097530" lon="-3.0398650">
        <ele>135.8</ele>
        <time>2022-01-16T08:44:43Z</time>
      </trkpt>
      <trkpt lat="43.3097410" lon="-3.0399150">
        <ele>136.0</ele>
        <time>2022-01-16T08:44:44Z</time>
      </trkpt>
      <trkpt lat="43.3097290" lon="-3.0399520">
        <ele>136.2</ele>
        <time>2022-01-16T08:44:45Z</time>
      </trkpt>
      <trkpt lat="43.3097180" lon="-3.0399880">
        <ele>136.4</ele>
        <time>2022-01-16T08:44:46Z</time>
      </trkpt>
      <trkpt lat="43.3097070" lon="-3.0400200">
        <ele>136.4</ele>
        <time>2022-01-16T08:44:47Z</time>
      </trkpt>
      <trkpt lat="43.3096980" lon="-3.0400460">
        <ele>136.4</ele>
        <time>2022-01-16T08:44:48Z</time>
      </trkpt>
      <trkpt lat="43.3096900" lon="-3.0400670">
        <ele>136.4</ele>
        <time>2022-01-16T08:44:49Z</time>
      </trkpt>
      <trkpt lat="43.3096830" lon="-3.0400860">
        <ele>136.4</ele>
        <time>2022-01-16T08:44:50Z</time>
      </trkpt>
      <trkpt lat="43.3096780" lon="-3.0401010">
        <ele>136.6</ele>
        <time>2022-01-16T08:44:51Z</time>
      </trkpt>
      <trkpt lat="43.3096730" lon="-3.0401170">
        <ele>136.6</ele>
        <time>2022-01-16T08:44:52Z</time>
      </trkpt>
      <trkpt lat="43.3096690" lon="-3.0401300">
        <ele>136.6</ele>
        <time>2022-01-16T08:44:53Z</time>
      </trkpt>
      <trkpt lat="43.3096650" lon="-3.0401420">
        <ele>136.6</ele>
        <time>2022-01-16T08:44:54Z</time>
      </trkpt>
      <trkpt lat="43.3096590" lon="-3.0401540">
        <ele>136.8</ele>
        <time>2022-01-16T08:44:55Z</time>
      </trkpt>
      <trkpt lat="43.3096520" lon="-3.0401700">
        <ele>136.8</ele>
        <time>2022-01-16T08:44:56Z</time>
      </trkpt>
      <trkpt lat="43.3096430" lon="-3.0401960">
        <ele>136.8</ele>
        <time>2022-01-16T08:44:57Z</time>
      </trkpt>
      <trkpt lat="43.3096280" lon="-3.0402230">
        <ele>136.8</ele>
        <time>2022-01-16T08:44:58Z</time>
      </trkpt>
      <trkpt lat="43.3096110" lon="-3.0402570">
        <ele>136.8</ele>
        <time>2022-01-16T08:44:59Z</time>
      </trkpt>
      <trkpt lat="43.3095910" lon="-3.0402960">
        <ele>136.8</ele>
        <time>2022-01-16T08:45:00Z</time>
      </trkpt>
      <trkpt lat="43.3095700" lon="-3.0403430">
        <ele>136.8</ele>
        <time>2022-01-16T08:45:01Z</time>
      </trkpt>
      <trkpt lat="43.3095480" lon="-3.0403950">
        <ele>136.8</ele>
        <time>2022-01-16T08:45:02Z</time>
      </trkpt>
      <trkpt lat="43.3095260" lon="-3.0404500">
        <ele>136.8</ele>
        <time>2022-01-16T08:45:03Z</time>
      </trkpt>
      <trkpt lat="43.3095030" lon="-3.0405100">
        <ele>136.8</ele>
        <time>2022-01-16T08:45:04Z</time>
      </trkpt>
      <trkpt lat="43.3094820" lon="-3.0405750">
        <ele>136.8</ele>
        <time>2022-01-16T08:45:05Z</time>
      </trkpt>
      <trkpt lat="43.3094600" lon="-3.0406410">
        <ele>136.8</ele>
        <time>2022-01-16T08:45:06Z</time>
      </trkpt>
      <trkpt lat="43.3094380" lon="-3.0407100">
        <ele>136.8</ele>
        <time>2022-01-16T08:45:07Z</time>
      </trkpt>
      <trkpt lat="43.3094160" lon="-3.0407820">
        <ele>137.0</ele>
        <time>2022-01-16T08:45:08Z</time>
      </trkpt>
      <trkpt lat="43.3093920" lon="-3.0408560">
        <ele>137.0</ele>
        <time>2022-01-16T08:45:09Z</time>
      </trkpt>
      <trkpt lat="43.3093670" lon="-3.0409310">
        <ele>137.0</ele>
        <time>2022-01-16T08:45:10Z</time>
      </trkpt>
      <trkpt lat="43.3093400" lon="-3.0410090">
        <ele>136.8</ele>
        <time>2022-01-16T08:45:11Z</time>
      </trkpt>
      <trkpt lat="43.3093150" lon="-3.0410870">
        <ele>136.8</ele>
        <time>2022-01-16T08:45:12Z</time>
      </trkpt>
      <trkpt lat="43.3092880" lon="-3.0411640">
        <ele>136.8</ele>
        <time>2022-01-16T08:45:13Z</time>
      </trkpt>
      <trkpt lat="43.3092600" lon="-3.0412380">
        <ele>136.8</ele>
        <time>2022-01-16T08:45:14Z</time>
      </trkpt>
      <trkpt lat="43.3092330" lon="-3.0413080">
        <ele>137.0</ele>
        <time>2022-01-16T08:45:15Z</time>
      </trkpt>
      <trkpt lat="43.3092090" lon="-3.0413780">
        <ele>137.0</ele>
        <time>2022-01-16T08:45:16Z</time>
      </trkpt>
      <trkpt lat="43.3091870" lon="-3.0414490">
        <ele>137.0</ele>
        <time>2022-01-16T08:45:17Z</time>
      </trkpt>
      <trkpt lat="43.3091640" lon="-3.0415190">
        <ele>137.2</ele>
        <time>2022-01-16T08:45:18Z</time>
      </trkpt>
      <trkpt lat="43.3091360" lon="-3.0415980">
        <ele>137.4</ele>
        <time>2022-01-16T08:45:19Z</time>
      </trkpt>
      <trkpt lat="43.3091110" lon="-3.0416740">
        <ele>137.4</ele>
        <time>2022-01-16T08:45:20Z</time>
      </trkpt>
      <trkpt lat="43.3090870" lon="-3.0417510">
        <ele>137.4</ele>
        <time>2022-01-16T08:45:21Z</time>
      </trkpt>
      <trkpt lat="43.3090630" lon="-3.0418260">
        <ele>137.6</ele>
        <time>2022-01-16T08:45:22Z</time>
      </trkpt>
      <trkpt lat="43.3090400" lon="-3.0418970">
        <ele>137.8</ele>
        <time>2022-01-16T08:45:23Z</time>
      </trkpt>
      <trkpt lat="43.3090160" lon="-3.0419690">
        <ele>137.8</ele>
        <time>2022-01-16T08:45:24Z</time>
      </trkpt>
      <trkpt lat="43.3089920" lon="-3.0420420">
        <ele>138.0</ele>
        <time>2022-01-16T08:45:25Z</time>
      </trkpt>
      <trkpt lat="43.3089650" lon="-3.0421160">
        <ele>138.2</ele>
        <time>2022-01-16T08:45:26Z</time>
      </trkpt>
      <trkpt lat="43.3089360" lon="-3.0421910">
        <ele>138.2</ele>
        <time>2022-01-16T08:45:27Z</time>
      </trkpt>
      <trkpt lat="43.3089060" lon="-3.0422640">
        <ele>138.2</ele>
        <time>2022-01-16T08:45:28Z</time>
      </trkpt>
      <trkpt lat="43.3088740" lon="-3.0423340">
        <ele>138.4</ele>
        <time>2022-01-16T08:45:29Z</time>
      </trkpt>
      <trkpt lat="43.3088390" lon="-3.0424000">
        <ele>138.4</ele>
        <time>2022-01-16T08:45:30Z</time>
      </trkpt>
      <trkpt lat="43.3088020" lon="-3.0424630">
        <ele>138.6</ele>
        <time>2022-01-16T08:45:31Z</time>
      </trkpt>
      <trkpt lat="43.3087640" lon="-3.0425250">
        <ele>138.6</ele>
        <time>2022-01-16T08:45:32Z</time>
      </trkpt>
      <trkpt lat="43.3087260" lon="-3.0425870">
        <ele>138.6</ele>
        <time>2022-01-16T08:45:33Z</time>
      </trkpt>
      <trkpt lat="43.3086870" lon="-3.0426490">
        <ele>138.8</ele>
        <time>2022-01-16T08:45:34Z</time>
      </trkpt>
      <trkpt lat="43.3086460" lon="-3.0427080">
        <ele>139.0</ele>
        <time>2022-01-16T08:45:35Z</time>
      </trkpt>
      <trkpt lat="43.3086070" lon="-3.0427700">
        <ele>139.0</ele>
        <time>2022-01-16T08:45:36Z</time>
      </trkpt>
      <trkpt lat="43.3085700" lon="-3.0428340">
        <ele>139.2</ele>
        <time>2022-01-16T08:45:37Z</time>
      </trkpt>
      <trkpt lat="43.3085360" lon="-3.0429010">
        <ele>139.2</ele>
        <time>2022-01-16T08:45:38Z</time>
      </trkpt>
      <trkpt lat="43.3085090" lon="-3.0429760">
        <ele>139.4</ele>
        <time>2022-01-16T08:45:39Z</time>
      </trkpt>
      <trkpt lat="43.3084870" lon="-3.0430520">
        <ele>139.4</ele>
        <time>2022-01-16T08:45:40Z</time>
      </trkpt>
      <trkpt lat="43.3084590" lon="-3.0431240">
        <ele>139.4</ele>
        <time>2022-01-16T08:45:41Z</time>
      </trkpt>
      <trkpt lat="43.3084300" lon="-3.0431940">
        <ele>139.4</ele>
        <time>2022-01-16T08:45:42Z</time>
      </trkpt>
      <trkpt lat="43.3084060" lon="-3.0432710">
        <ele>139.4</ele>
        <time>2022-01-16T08:45:43Z</time>
      </trkpt>
      <trkpt lat="43.3083850" lon="-3.0433500">
        <ele>139.4</ele>
        <time>2022-01-16T08:45:44Z</time>
      </trkpt>
      <trkpt lat="43.3083640" lon="-3.0434290">
        <ele>139.4</ele>
        <time>2022-01-16T08:45:45Z</time>
      </trkpt>
      <trkpt lat="43.3083440" lon="-3.0435080">
        <ele>139.2</ele>
        <time>2022-01-16T08:45:46Z</time>
      </trkpt>
      <trkpt lat="43.3083250" lon="-3.0435880">
        <ele>139.4</ele>
        <time>2022-01-16T08:45:47Z</time>
      </trkpt>
      <trkpt lat="43.3083050" lon="-3.0436680">
        <ele>139.6</ele>
        <time>2022-01-16T08:45:48Z</time>
      </trkpt>
      <trkpt lat="43.3082860" lon="-3.0437480">
        <ele>139.6</ele>
        <time>2022-01-16T08:45:49Z</time>
      </trkpt>
      <trkpt lat="43.3082660" lon="-3.0438300">
        <ele>139.8</ele>
        <time>2022-01-16T08:45:50Z</time>
      </trkpt>
      <trkpt lat="43.3082460" lon="-3.0439120">
        <ele>139.8</ele>
        <time>2022-01-16T08:45:51Z</time>
      </trkpt>
      <trkpt lat="43.3082270" lon="-3.0439960">
        <ele>139.8</ele>
        <time>2022-01-16T08:45:52Z</time>
      </trkpt>
      <trkpt lat="43.3082070" lon="-3.0440810">
        <ele>139.6</ele>
        <time>2022-01-16T08:45:53Z</time>
      </trkpt>
      <trkpt lat="43.3081870" lon="-3.0441660">
        <ele>139.4</ele>
        <time>2022-01-16T08:45:54Z</time>
      </trkpt>
      <trkpt lat="43.3081650" lon="-3.0442520">
        <ele>139.4</ele>
        <time>2022-01-16T08:45:55Z</time>
      </trkpt>
      <trkpt lat="43.3081440" lon="-3.0443390">
        <ele>139.4</ele>
        <time>2022-01-16T08:45:56Z</time>
      </trkpt>
      <trkpt lat="43.3081230" lon="-3.0444260">
        <ele>139.2</ele>
        <time>2022-01-16T08:45:57Z</time>
      </trkpt>
      <trkpt lat="43.3081020" lon="-3.0445120">
        <ele>139.2</ele>
        <time>2022-01-16T08:45:58Z</time>
      </trkpt>
      <trkpt lat="43.3080780" lon="-3.0445960">
        <ele>139.0</ele>
        <time>2022-01-16T08:45:59Z</time>
      </trkpt>
      <trkpt lat="43.3080570" lon="-3.0446810">
        <ele>139.0</ele>
        <time>2022-01-16T08:46:00Z</time>
      </trkpt>
      <trkpt lat="43.3080360" lon="-3.0447680">
        <ele>139.2</ele>
        <time>2022-01-16T08:46:01Z</time>
      </trkpt>
      <trkpt lat="43.3080160" lon="-3.0448560">
        <ele>139.2</ele>
        <time>2022-01-16T08:46:02Z</time>
      </trkpt>
      <trkpt lat="43.3079960" lon="-3.0449430">
        <ele>139.2</ele>
        <time>2022-01-16T08:46:03Z</time>
      </trkpt>
      <trkpt lat="43.3079750" lon="-3.0450290">
        <ele>139.2</ele>
        <time>2022-01-16T08:46:04Z</time>
      </trkpt>
      <trkpt lat="43.3079520" lon="-3.0451130">
        <ele>139.4</ele>
        <time>2022-01-16T08:46:05Z</time>
      </trkpt>
      <trkpt lat="43.3079310" lon="-3.0451940">
        <ele>139.6</ele>
        <time>2022-01-16T08:46:06Z</time>
      </trkpt>
      <trkpt lat="43.3079070" lon="-3.0452730">
        <ele>140.0</ele>
        <time>2022-01-16T08:46:07Z</time>
      </trkpt>
      <trkpt lat="43.3078850" lon="-3.0453540">
        <ele>140.2</ele>
        <time>2022-01-16T08:46:08Z</time>
      </trkpt>
      <trkpt lat="43.3078670" lon="-3.0454310">
        <ele>140.4</ele>
        <time>2022-01-16T08:46:09Z</time>
      </trkpt>
      <trkpt lat="43.3078420" lon="-3.0455160">
        <ele>140.6</ele>
        <time>2022-01-16T08:46:10Z</time>
      </trkpt>
      <trkpt lat="43.3078180" lon="-3.0456000">
        <ele>140.8</ele>
        <time>2022-01-16T08:46:11Z</time>
      </trkpt>
      <trkpt lat="43.3077930" lon="-3.0456820">
        <ele>140.8</ele>
        <time>2022-01-16T08:46:12Z</time>
      </trkpt>
      <trkpt lat="43.3077710" lon="-3.0457620">
        <ele>141.0</ele>
        <time>2022-01-16T08:46:13Z</time>
      </trkpt>
      <trkpt lat="43.3077470" lon="-3.0458430">
        <ele>141.0</ele>
        <time>2022-01-16T08:46:14Z</time>
      </trkpt>
      <trkpt lat="43.3077250" lon="-3.0459230">
        <ele>141.0</ele>
        <time>2022-01-16T08:46:15Z</time>
      </trkpt>
      <trkpt lat="43.3077020" lon="-3.0460020">
        <ele>141.0</ele>
        <time>2022-01-16T08:46:16Z</time>
      </trkpt>
      <trkpt lat="43.3076780" lon="-3.0460830">
        <ele>141.2</ele>
        <time>2022-01-16T08:46:17Z</time>
      </trkpt>
      <trkpt lat="43.3076550" lon="-3.0461610">
        <ele>141.4</ele>
        <time>2022-01-16T08:46:18Z</time>
      </trkpt>
      <trkpt lat="43.3076330" lon="-3.0462390">
        <ele>141.4</ele>
        <time>2022-01-16T08:46:19Z</time>
      </trkpt>
      <trkpt lat="43.3076110" lon="-3.0463170">
        <ele>141.8</ele>
        <time>2022-01-16T08:46:20Z</time>
      </trkpt>
      <trkpt lat="43.3075910" lon="-3.0463950">
        <ele>141.8</ele>
        <time>2022-01-16T08:46:21Z</time>
      </trkpt>
      <trkpt lat="43.3075690" lon="-3.0464730">
        <ele>142.0</ele>
        <time>2022-01-16T08:46:22Z</time>
      </trkpt>
      <trkpt lat="43.3075510" lon="-3.0465530">
        <ele>142.0</ele>
        <time>2022-01-16T08:46:23Z</time>
      </trkpt>
      <trkpt lat="43.3075350" lon="-3.0466360">
        <ele>142.2</ele>
        <time>2022-01-16T08:46:24Z</time>
      </trkpt>
      <trkpt lat="43.3075190" lon="-3.0467160">
        <ele>142.2</ele>
        <time>2022-01-16T08:46:25Z</time>
      </trkpt>
      <trkpt lat="43.3075030" lon="-3.0467980">
        <ele>142.2</ele>
        <time>2022-01-16T08:46:26Z</time>
      </trkpt>
      <trkpt lat="43.3074890" lon="-3.0468820">
        <ele>142.4</ele>
        <time>2022-01-16T08:46:27Z</time>
      </trkpt>
      <trkpt lat="43.3074770" lon="-3.0469660">
        <ele>142.8</ele>
        <time>2022-01-16T08:46:28Z</time>
      </trkpt>
      <trkpt lat="43.3074650" lon="-3.0470490">
        <ele>143.0</ele>
        <time>2022-01-16T08:46:29Z</time>
      </trkpt>
      <trkpt lat="43.3074510" lon="-3.0471320">
        <ele>143.0</ele>
        <time>2022-01-16T08:46:30Z</time>
      </trkpt>
      <trkpt lat="43.3074360" lon="-3.0472160">
        <ele>143.0</ele>
        <time>2022-01-16T08:46:31Z</time>
      </trkpt>
      <trkpt lat="43.3074210" lon="-3.0472990">
        <ele>143.0</ele>
        <time>2022-01-16T08:46:32Z</time>
      </trkpt>
      <trkpt lat="43.3074050" lon="-3.0473830">
        <ele>143.2</ele>
        <time>2022-01-16T08:46:33Z</time>
      </trkpt>
      <trkpt lat="43.3073910" lon="-3.0474680">
        <ele>143.4</ele>
        <time>2022-01-16T08:46:34Z</time>
      </trkpt>
      <trkpt lat="43.3073760" lon="-3.0475510">
        <ele>143.4</ele>
        <time>2022-01-16T08:46:35Z</time>
      </trkpt>
      <trkpt lat="43.3073600" lon="-3.0476370">
        <ele>143.4</ele>
        <time>2022-01-16T08:46:36Z</time>
      </trkpt>
      <trkpt lat="43.3073440" lon="-3.0477250">
        <ele>143.4</ele>
        <time>2022-01-16T08:46:37Z</time>
      </trkpt>
      <trkpt lat="43.3073280" lon="-3.0478130">
        <ele>143.6</ele>
        <time>2022-01-16T08:46:38Z</time>
      </trkpt>
      <trkpt lat="43.3073140" lon="-3.0479010">
        <ele>143.8</ele>
        <time>2022-01-16T08:46:39Z</time>
      </trkpt>
      <trkpt lat="43.3073030" lon="-3.0479910">
        <ele>143.6</ele>
        <time>2022-01-16T08:46:40Z</time>
      </trkpt>
      <trkpt lat="43.3072950" lon="-3.0480830">
        <ele>143.8</ele>
        <time>2022-01-16T08:46:41Z</time>
      </trkpt>
      <trkpt lat="43.3072960" lon="-3.0481760">
        <ele>143.6</ele>
        <time>2022-01-16T08:46:42Z</time>
      </trkpt>
      <trkpt lat="43.3073050" lon="-3.0482690">
        <ele>143.4</ele>
        <time>2022-01-16T08:46:43Z</time>
      </trkpt>
      <trkpt lat="43.3073210" lon="-3.0483590">
        <ele>143.4</ele>
        <time>2022-01-16T08:46:44Z</time>
      </trkpt>
      <trkpt lat="43.3073400" lon="-3.0484480">
        <ele>143.4</ele>
        <time>2022-01-16T08:46:45Z</time>
      </trkpt>
      <trkpt lat="43.3073640" lon="-3.0485370">
        <ele>143.2</ele>
        <time>2022-01-16T08:46:46Z</time>
      </trkpt>
      <trkpt lat="43.3073920" lon="-3.0486230">
        <ele>143.0</ele>
        <time>2022-01-16T08:46:47Z</time>
      </trkpt>
      <trkpt lat="43.3074220" lon="-3.0487110">
        <ele>143.0</ele>
        <time>2022-01-16T08:46:48Z</time>
      </trkpt>
      <trkpt lat="43.3074550" lon="-3.0487990">
        <ele>142.8</ele>
        <time>2022-01-16T08:46:49Z</time>
      </trkpt>
      <trkpt lat="43.3074880" lon="-3.0488870">
        <ele>142.6</ele>
        <time>2022-01-16T08:46:50Z</time>
      </trkpt>
      <trkpt lat="43.3075220" lon="-3.0489750">
        <ele>142.4</ele>
        <time>2022-01-16T08:46:51Z</time>
      </trkpt>
      <trkpt lat="43.3075530" lon="-3.0490650">
        <ele>142.2</ele>
        <time>2022-01-16T08:46:52Z</time>
      </trkpt>
      <trkpt lat="43.3075850" lon="-3.0491560">
        <ele>142.0</ele>
        <time>2022-01-16T08:46:53Z</time>
      </trkpt>
      <trkpt lat="43.3076180" lon="-3.0492490">
        <ele>141.6</ele>
        <time>2022-01-16T08:46:54Z</time>
      </trkpt>
      <trkpt lat="43.3076520" lon="-3.0493450">
        <ele>141.6</ele>
        <time>2022-01-16T08:46:55Z</time>
      </trkpt>
      <trkpt lat="43.3076850" lon="-3.0494410">
        <ele>141.2</ele>
        <time>2022-01-16T08:46:56Z</time>
      </trkpt>
      <trkpt lat="43.3077200" lon="-3.0495390">
        <ele>141.0</ele>
        <time>2022-01-16T08:46:57Z</time>
      </trkpt>
      <trkpt lat="43.3077560" lon="-3.0496370">
        <ele>140.8</ele>
        <time>2022-01-16T08:46:58Z</time>
      </trkpt>
      <trkpt lat="43.3077910" lon="-3.0497360">
        <ele>140.6</ele>
        <time>2022-01-16T08:46:59Z</time>
      </trkpt>
      <trkpt lat="43.3078260" lon="-3.0498360">
        <ele>140.4</ele>
        <time>2022-01-16T08:47:00Z</time>
      </trkpt>
      <trkpt lat="43.3078610" lon="-3.0499360">
        <ele>140.0</ele>
        <time>2022-01-16T08:47:01Z</time>
      </trkpt>
      <trkpt lat="43.3078960" lon="-3.0500350">
        <ele>139.8</ele>
        <time>2022-01-16T08:47:02Z</time>
      </trkpt>
      <trkpt lat="43.3079310" lon="-3.0501350">
        <ele>139.6</ele>
        <time>2022-01-16T08:47:03Z</time>
      </trkpt>
      <trkpt lat="43.3079670" lon="-3.0502360">
        <ele>139.4</ele>
        <time>2022-01-16T08:47:04Z</time>
      </trkpt>
      <trkpt lat="43.3080050" lon="-3.0503370">
        <ele>139.0</ele>
        <time>2022-01-16T08:47:05Z</time>
      </trkpt>
      <trkpt lat="43.3080430" lon="-3.0504380">
        <ele>138.8</ele>
        <time>2022-01-16T08:47:06Z</time>
      </trkpt>
      <trkpt lat="43.3080840" lon="-3.0505390">
        <ele>138.6</ele>
        <time>2022-01-16T08:47:07Z</time>
      </trkpt>
      <trkpt lat="43.3081250" lon="-3.0506400">
        <ele>138.2</ele>
        <time>2022-01-16T08:47:08Z</time>
      </trkpt>
      <trkpt lat="43.3081660" lon="-3.0507400">
        <ele>137.8</ele>
        <time>2022-01-16T08:47:09Z</time>
      </trkpt>
      <trkpt lat="43.3082050" lon="-3.0508400">
        <ele>137.6</ele>
        <time>2022-01-16T08:47:10Z</time>
      </trkpt>
      <trkpt lat="43.3082440" lon="-3.0509410">
        <ele>137.4</ele>
        <time>2022-01-16T08:47:11Z</time>
      </trkpt>
      <trkpt lat="43.3082830" lon="-3.0510440">
        <ele>136.8</ele>
        <time>2022-01-16T08:47:12Z</time>
      </trkpt>
      <trkpt lat="43.3083240" lon="-3.0511460">
        <ele>136.6</ele>
        <time>2022-01-16T08:47:13Z</time>
      </trkpt>
      <trkpt lat="43.3083660" lon="-3.0512470">
        <ele>136.4</ele>
        <time>2022-01-16T08:47:14Z</time>
      </trkpt>
      <trkpt lat="43.3084070" lon="-3.0513480">
        <ele>136.4</ele>
        <time>2022-01-16T08:47:15Z</time>
      </trkpt>
      <trkpt lat="43.3084470" lon="-3.0514480">
        <ele>136.2</ele>
        <time>2022-01-16T08:47:16Z</time>
      </trkpt>
      <trkpt lat="43.3084860" lon="-3.0515470">
        <ele>136.2</ele>
        <time>2022-01-16T08:47:17Z</time>
      </trkpt>
      <trkpt lat="43.3085210" lon="-3.0516470">
        <ele>136.0</ele>
        <time>2022-01-16T08:47:18Z</time>
      </trkpt>
      <trkpt lat="43.3085600" lon="-3.0517400">
        <ele>136.0</ele>
        <time>2022-01-16T08:47:19Z</time>
      </trkpt>
      <trkpt lat="43.3085980" lon="-3.0518310">
        <ele>136.0</ele>
        <time>2022-01-16T08:47:20Z</time>
      </trkpt>
      <trkpt lat="43.3086380" lon="-3.0519190">
        <ele>136.0</ele>
        <time>2022-01-16T08:47:21Z</time>
      </trkpt>
      <trkpt lat="43.3086810" lon="-3.0520020">
        <ele>136.0</ele>
        <time>2022-01-16T08:47:22Z</time>
      </trkpt>
      <trkpt lat="43.3087190" lon="-3.0520870">
        <ele>136.0</ele>
        <time>2022-01-16T08:47:23Z</time>
      </trkpt>
      <trkpt lat="43.3087630" lon="-3.0521630">
        <ele>136.0</ele>
        <time>2022-01-16T08:47:24Z</time>
      </trkpt>
      <trkpt lat="43.3088020" lon="-3.0522460">
        <ele>136.0</ele>
        <time>2022-01-16T08:47:25Z</time>
      </trkpt>
      <trkpt lat="43.3088470" lon="-3.0523230">
        <ele>135.8</ele>
        <time>2022-01-16T08:47:26Z</time>
      </trkpt>
      <trkpt lat="43.3088890" lon="-3.0524060">
        <ele>135.6</ele>
        <time>2022-01-16T08:47:27Z</time>
      </trkpt>
      <trkpt lat="43.3089310" lon="-3.0524910">
        <ele>135.4</ele>
        <time>2022-01-16T08:47:28Z</time>
      </trkpt>
      <trkpt lat="43.3089740" lon="-3.0525750">
        <ele>135.2</ele>
        <time>2022-01-16T08:47:29Z</time>
      </trkpt>
      <trkpt lat="43.3090150" lon="-3.0526620">
        <ele>135.0</ele>
        <time>2022-01-16T08:47:30Z</time>
      </trkpt>
      <trkpt lat="43.3090560" lon="-3.0527480">
        <ele>135.0</ele>
        <time>2022-01-16T08:47:31Z</time>
      </trkpt>
      <trkpt lat="43.3090980" lon="-3.0528360">
        <ele>135.0</ele>
        <time>2022-01-16T08:47:32Z</time>
      </trkpt>
      <trkpt lat="43.3091400" lon="-3.0529240">
        <ele>135.0</ele>
        <time>2022-01-16T08:47:33Z</time>
      </trkpt>
      <trkpt lat="43.3091820" lon="-3.0530140">
        <ele>135.0</ele>
        <time>2022-01-16T08:47:34Z</time>
      </trkpt>
      <trkpt lat="43.3092250" lon="-3.0531040">
        <ele>135.0</ele>
        <time>2022-01-16T08:47:35Z</time>
      </trkpt>
      <trkpt lat="43.3092660" lon="-3.0531930">
        <ele>135.0</ele>
        <time>2022-01-16T08:47:36Z</time>
      </trkpt>
      <trkpt lat="43.3093030" lon="-3.0532850">
        <ele>135.0</ele>
        <time>2022-01-16T08:47:37Z</time>
      </trkpt>
      <trkpt lat="43.3093340" lon="-3.0533770">
        <ele>135.0</ele>
        <time>2022-01-16T08:47:38Z</time>
      </trkpt>
      <trkpt lat="43.3093610" lon="-3.0534680">
        <ele>135.2</ele>
        <time>2022-01-16T08:47:39Z</time>
      </trkpt>
      <trkpt lat="43.3093820" lon="-3.0535630">
        <ele>135.4</ele>
        <time>2022-01-16T08:47:40Z</time>
      </trkpt>
      <trkpt lat="43.3093930" lon="-3.0536590">
        <ele>135.6</ele>
        <time>2022-01-16T08:47:41Z</time>
      </trkpt>
      <trkpt lat="43.3093950" lon="-3.0537550">
        <ele>135.6</ele>
        <time>2022-01-16T08:47:42Z</time>
      </trkpt>
      <trkpt lat="43.3093930" lon="-3.0538430">
        <ele>135.8</ele>
        <time>2022-01-16T08:47:43Z</time>
      </trkpt>
      <trkpt lat="43.3093850" lon="-3.0539320">
        <ele>136.2</ele>
        <time>2022-01-16T08:47:44Z</time>
      </trkpt>
      <trkpt lat="43.3093700" lon="-3.0540090">
        <ele>136.4</ele>
        <time>2022-01-16T08:47:45Z</time>
      </trkpt>
      <trkpt lat="43.3093580" lon="-3.0540860">
        <ele>136.8</ele>
        <time>2022-01-16T08:47:46Z</time>
      </trkpt>
      <trkpt lat="43.3093500" lon="-3.0541600">
        <ele>137.2</ele>
        <time>2022-01-16T08:47:47Z</time>
      </trkpt>
      <trkpt lat="43.3093470" lon="-3.0542350">
        <ele>137.6</ele>
        <time>2022-01-16T08:47:48Z</time>
      </trkpt>
      <trkpt lat="43.3093450" lon="-3.0543150">
        <ele>137.8</ele>
        <time>2022-01-16T08:47:49Z</time>
      </trkpt>
      <trkpt lat="43.3093440" lon="-3.0543890">
        <ele>138.2</ele>
        <time>2022-01-16T08:47:50Z</time>
      </trkpt>
      <trkpt lat="43.3093510" lon="-3.0544620">
        <ele>138.4</ele>
        <time>2022-01-16T08:47:51Z</time>
      </trkpt>
      <trkpt lat="43.3093550" lon="-3.0545380">
        <ele>138.6</ele>
        <time>2022-01-16T08:47:52Z</time>
      </trkpt>
      <trkpt lat="43.3093670" lon="-3.0546110">
        <ele>139.0</ele>
        <time>2022-01-16T08:47:53Z</time>
      </trkpt>
      <trkpt lat="43.3093810" lon="-3.0546840">
        <ele>139.0</ele>
        <time>2022-01-16T08:47:54Z</time>
      </trkpt>
      <trkpt lat="43.3093930" lon="-3.0547570">
        <ele>139.2</ele>
        <time>2022-01-16T08:47:55Z</time>
      </trkpt>
      <trkpt lat="43.3094040" lon="-3.0548330">
        <ele>139.4</ele>
        <time>2022-01-16T08:47:56Z</time>
      </trkpt>
      <trkpt lat="43.3094130" lon="-3.0549100">
        <ele>139.6</ele>
        <time>2022-01-16T08:47:57Z</time>
      </trkpt>
      <trkpt lat="43.3094250" lon="-3.0549860">
        <ele>139.6</ele>
        <time>2022-01-16T08:47:58Z</time>
      </trkpt>
      <trkpt lat="43.3094380" lon="-3.0550600">
        <ele>140.2</ele>
        <time>2022-01-16T08:47:59Z</time>
      </trkpt>
      <trkpt lat="43.3094520" lon="-3.0551300">
        <ele>140.4</ele>
        <time>2022-01-16T08:48:00Z</time>
      </trkpt>
      <trkpt lat="43.3094690" lon="-3.0551980">
        <ele>140.6</ele>
        <time>2022-01-16T08:48:01Z</time>
      </trkpt>
      <trkpt lat="43.3094870" lon="-3.0552650">
        <ele>141.0</ele>
        <time>2022-01-16T08:48:02Z</time>
      </trkpt>
      <trkpt lat="43.3095060" lon="-3.0553290">
        <ele>141.2</ele>
        <time>2022-01-16T08:48:03Z</time>
      </trkpt>
      <trkpt lat="43.3095240" lon="-3.0553880">
        <ele>141.2</ele>
        <time>2022-01-16T08:48:04Z</time>
      </trkpt>
      <trkpt lat="43.3095410" lon="-3.0554420">
        <ele>141.4</ele>
        <time>2022-01-16T08:48:05Z</time>
      </trkpt>
      <trkpt lat="43.3095560" lon="-3.0554890">
        <ele>141.6</ele>
        <time>2022-01-16T08:48:06Z</time>
      </trkpt>
      <trkpt lat="43.3095690" lon="-3.0555270">
        <ele>141.8</ele>
        <time>2022-01-16T08:48:07Z</time>
      </trkpt>
      <trkpt lat="43.3095850" lon="-3.0555600">
        <ele>142.0</ele>
        <time>2022-01-16T08:48:08Z</time>
      </trkpt>
      <trkpt lat="43.3096010" lon="-3.0555900">
        <ele>142.2</ele>
        <time>2022-01-16T08:48:09Z</time>
      </trkpt>
      <trkpt lat="43.3096150" lon="-3.0556170">
        <ele>142.2</ele>
        <time>2022-01-16T08:48:10Z</time>
      </trkpt>
      <trkpt lat="43.3096260" lon="-3.0556400">
        <ele>142.2</ele>
        <time>2022-01-16T08:48:11Z</time>
      </trkpt>
      <trkpt lat="43.3096350" lon="-3.0556600">
        <ele>142.2</ele>
        <time>2022-01-16T08:48:12Z</time>
      </trkpt>
      <trkpt lat="43.3096430" lon="-3.0556720">
        <ele>142.4</ele>
        <time>2022-01-16T08:48:13Z</time>
      </trkpt>
      <trkpt lat="43.3096490" lon="-3.0556830">
        <ele>142.4</ele>
        <time>2022-01-16T08:48:14Z</time>
      </trkpt>
      <trkpt lat="43.3096510" lon="-3.0556880">
        <ele>142.4</ele>
        <time>2022-01-16T08:48:15Z</time>
      </trkpt>
      <trkpt lat="43.3096510" lon="-3.0556890">
        <ele>142.6</ele>
        <time>2022-01-16T08:48:16Z</time>
      </trkpt>
      <trkpt lat="43.3096700" lon="-3.0557260">
        <ele>142.6</ele>
        <time>2022-01-16T08:48:26Z</time>
      </trkpt>
      <trkpt lat="43.3096920" lon="-3.0557550">
        <ele>142.6</ele>
        <time>2022-01-16T08:48:27Z</time>
      </trkpt>
      <trkpt lat="43.3097160" lon="-3.0557860">
        <ele>142.6</ele>
        <time>2022-01-16T08:48:28Z</time>
      </trkpt>
      <trkpt lat="43.3097430" lon="-3.0558220">
        <ele>142.6</ele>
        <time>2022-01-16T08:48:29Z</time>
      </trkpt>
      <trkpt lat="43.3097780" lon="-3.0558610">
        <ele>142.8</ele>
        <time>2022-01-16T08:48:30Z</time>
      </trkpt>
      <trkpt lat="43.3098160" lon="-3.0559020">
        <ele>142.8</ele>
        <time>2022-01-16T08:48:31Z</time>
      </trkpt>
      <trkpt lat="43.3098600" lon="-3.0559410">
        <ele>143.0</ele>
        <time>2022-01-16T08:48:32Z</time>
      </trkpt>
      <trkpt lat="43.3099080" lon="-3.0559790">
        <ele>143.2</ele>
        <time>2022-01-16T08:48:33Z</time>
      </trkpt>
      <trkpt lat="43.3099590" lon="-3.0560160">
        <ele>143.4</ele>
        <time>2022-01-16T08:48:34Z</time>
      </trkpt>
      <trkpt lat="43.3100170" lon="-3.0560550">
        <ele>143.6</ele>
        <time>2022-01-16T08:48:35Z</time>
      </trkpt>
      <trkpt lat="43.3100750" lon="-3.0560870">
        <ele>143.8</ele>
        <time>2022-01-16T08:48:36Z</time>
      </trkpt>
      <trkpt lat="43.3101340" lon="-3.0561180">
        <ele>144.0</ele>
        <time>2022-01-16T08:48:37Z</time>
      </trkpt>
      <trkpt lat="43.3101930" lon="-3.0561580">
        <ele>144.2</ele>
        <time>2022-01-16T08:48:38Z</time>
      </trkpt>
      <trkpt lat="43.3102490" lon="-3.0561930">
        <ele>144.2</ele>
        <time>2022-01-16T08:48:39Z</time>
      </trkpt>
      <trkpt lat="43.3103040" lon="-3.0562260">
        <ele>144.4</ele>
        <time>2022-01-16T08:48:40Z</time>
      </trkpt>
      <trkpt lat="43.3103560" lon="-3.0562610">
        <ele>144.8</ele>
        <time>2022-01-16T08:48:41Z</time>
      </trkpt>
      <trkpt lat="43.3104090" lon="-3.0562930">
        <ele>145.0</ele>
        <time>2022-01-16T08:48:42Z</time>
      </trkpt>
      <trkpt lat="43.3104610" lon="-3.0563250">
        <ele>145.0</ele>
        <time>2022-01-16T08:48:43Z</time>
      </trkpt>
      <trkpt lat="43.3105100" lon="-3.0563600">
        <ele>145.2</ele>
        <time>2022-01-16T08:48:44Z</time>
      </trkpt>
      <trkpt lat="43.3105610" lon="-3.0563940">
        <ele>145.4</ele>
        <time>2022-01-16T08:48:45Z</time>
      </trkpt>
      <trkpt lat="43.3106120" lon="-3.0564250">
        <ele>145.6</ele>
        <time>2022-01-16T08:48:46Z</time>
      </trkpt>
      <trkpt lat="43.3106620" lon="-3.0564610">
        <ele>145.6</ele>
        <time>2022-01-16T08:48:47Z</time>
      </trkpt>
      <trkpt lat="43.3107130" lon="-3.0564980">
        <ele>145.8</ele>
        <time>2022-01-16T08:48:48Z</time>
      </trkpt>
      <trkpt lat="43.3107630" lon="-3.0565390">
        <ele>146.0</ele>
        <time>2022-01-16T08:48:49Z</time>
      </trkpt>
      <trkpt lat="43.3108120" lon="-3.0565840">
        <ele>146.0</ele>
        <time>2022-01-16T08:48:50Z</time>
      </trkpt>
      <trkpt lat="43.3108590" lon="-3.0566350">
        <ele>146.2</ele>
        <time>2022-01-16T08:48:51Z</time>
      </trkpt>
      <trkpt lat="43.3109060" lon="-3.0566850">
        <ele>146.4</ele>
        <time>2022-01-16T08:48:52Z</time>
      </trkpt>
      <trkpt lat="43.3109510" lon="-3.0567350">
        <ele>146.4</ele>
        <time>2022-01-16T08:48:53Z</time>
      </trkpt>
      <trkpt lat="43.3109960" lon="-3.0567860">
        <ele>146.6</ele>
        <time>2022-01-16T08:48:54Z</time>
      </trkpt>
      <trkpt lat="43.3110410" lon="-3.0568390">
        <ele>146.6</ele>
        <time>2022-01-16T08:48:55Z</time>
      </trkpt>
      <trkpt lat="43.3110870" lon="-3.0568910">
        <ele>146.8</ele>
        <time>2022-01-16T08:48:56Z</time>
      </trkpt>
      <trkpt lat="43.3111320" lon="-3.0569440">
        <ele>146.8</ele>
        <time>2022-01-16T08:48:57Z</time>
      </trkpt>
      <trkpt lat="43.3111770" lon="-3.0570000">
        <ele>146.8</ele>
        <time>2022-01-16T08:48:58Z</time>
      </trkpt>
      <trkpt lat="43.3112220" lon="-3.0570570">
        <ele>147.0</ele>
        <time>2022-01-16T08:48:59Z</time>
      </trkpt>
      <trkpt lat="43.3112650" lon="-3.0571120">
        <ele>147.0</ele>
        <time>2022-01-16T08:49:00Z</time>
      </trkpt>
      <trkpt lat="43.3113070" lon="-3.0571690">
        <ele>147.2</ele>
        <time>2022-01-16T08:49:01Z</time>
      </trkpt>
      <trkpt lat="43.3113480" lon="-3.0572300">
        <ele>147.2</ele>
        <time>2022-01-16T08:49:02Z</time>
      </trkpt>
      <trkpt lat="43.3113880" lon="-3.0572910">
        <ele>147.4</ele>
        <time>2022-01-16T08:49:03Z</time>
      </trkpt>
      <trkpt lat="43.3114280" lon="-3.0573520">
        <ele>147.4</ele>
        <time>2022-01-16T08:49:04Z</time>
      </trkpt>
      <trkpt lat="43.3114650" lon="-3.0574160">
        <ele>147.8</ele>
        <time>2022-01-16T08:49:05Z</time>
      </trkpt>
      <trkpt lat="43.3115030" lon="-3.0574800">
        <ele>148.2</ele>
        <time>2022-01-16T08:49:06Z</time>
      </trkpt>
      <trkpt lat="43.3115390" lon="-3.0575420">
        <ele>148.4</ele>
        <time>2022-01-16T08:49:07Z</time>
      </trkpt>
      <trkpt lat="43.3115740" lon="-3.0576060">
        <ele>148.6</ele>
        <time>2022-01-16T08:49:08Z</time>
      </trkpt>
      <trkpt lat="43.3116070" lon="-3.0576710">
        <ele>148.8</ele>
        <time>2022-01-16T08:49:09Z</time>
      </trkpt>
      <trkpt lat="43.3116390" lon="-3.0577350">
        <ele>149.0</ele>
        <time>2022-01-16T08:49:10Z</time>
      </trkpt>
      <trkpt lat="43.3116710" lon="-3.0578010">
        <ele>149.2</ele>
        <time>2022-01-16T08:49:11Z</time>
      </trkpt>
      <trkpt lat="43.3117020" lon="-3.0578680">
        <ele>149.8</ele>
        <time>2022-01-16T08:49:12Z</time>
      </trkpt>
      <trkpt lat="43.3117330" lon="-3.0579360">
        <ele>150.0</ele>
        <time>2022-01-16T08:49:13Z</time>
      </trkpt>
      <trkpt lat="43.3117650" lon="-3.0580040">
        <ele>150.0</ele>
        <time>2022-01-16T08:49:14Z</time>
      </trkpt>
      <trkpt lat="43.3117970" lon="-3.0580730">
        <ele>150.2</ele>
        <time>2022-01-16T08:49:15Z</time>
      </trkpt>
      <trkpt lat="43.3118300" lon="-3.0581400">
        <ele>150.4</ele>
        <time>2022-01-16T08:49:16Z</time>
      </trkpt>
      <trkpt lat="43.3118610" lon="-3.0582110">
        <ele>150.6</ele>
        <time>2022-01-16T08:49:17Z</time>
      </trkpt>
      <trkpt lat="43.3118920" lon="-3.0582810">
        <ele>150.6</ele>
        <time>2022-01-16T08:49:18Z</time>
      </trkpt>
      <trkpt lat="43.3119240" lon="-3.0583500">
        <ele>150.8</ele>
        <time>2022-01-16T08:49:19Z</time>
      </trkpt>
      <trkpt lat="43.3119560" lon="-3.0584200">
        <ele>150.8</ele>
        <time>2022-01-16T08:49:20Z</time>
      </trkpt>
      <trkpt lat="43.3119880" lon="-3.0584890">
        <ele>150.8</ele>
        <time>2022-01-16T08:49:21Z</time>
      </trkpt>
      <trkpt lat="43.3120130" lon="-3.0585600">
        <ele>151.0</ele>
        <time>2022-01-16T08:49:22Z</time>
      </trkpt>
      <trkpt lat="43.3120410" lon="-3.0586310">
        <ele>151.2</ele>
        <time>2022-01-16T08:49:23Z</time>
      </trkpt>
      <trkpt lat="43.3120710" lon="-3.0587000">
        <ele>151.4</ele>
        <time>2022-01-16T08:49:24Z</time>
      </trkpt>
      <trkpt lat="43.3121040" lon="-3.0587690">
        <ele>151.8</ele>
        <time>2022-01-16T08:49:25Z</time>
      </trkpt>
      <trkpt lat="43.3121380" lon="-3.0588390">
        <ele>152.0</ele>
        <time>2022-01-16T08:49:26Z</time>
      </trkpt>
      <trkpt lat="43.3121740" lon="-3.0589070">
        <ele>152.0</ele>
        <time>2022-01-16T08:49:27Z</time>
      </trkpt>
      <trkpt lat="43.3122150" lon="-3.0589740">
        <ele>152.0</ele>
        <time>2022-01-16T08:49:28Z</time>
      </trkpt>
      <trkpt lat="43.3122560" lon="-3.0590360">
        <ele>152.0</ele>
        <time>2022-01-16T08:49:29Z</time>
      </trkpt>
      <trkpt lat="43.3123010" lon="-3.0590960">
        <ele>152.0</ele>
        <time>2022-01-16T08:49:30Z</time>
      </trkpt>
      <trkpt lat="43.3123460" lon="-3.0591540">
        <ele>152.0</ele>
        <time>2022-01-16T08:49:31Z</time>
      </trkpt>
      <trkpt lat="43.3123930" lon="-3.0592070">
        <ele>152.0</ele>
        <time>2022-01-16T08:49:32Z</time>
      </trkpt>
      <trkpt lat="43.3124420" lon="-3.0592570">
        <ele>152.0</ele>
        <time>2022-01-16T08:49:33Z</time>
      </trkpt>
      <trkpt lat="43.3124940" lon="-3.0593040">
        <ele>152.0</ele>
        <time>2022-01-16T08:49:34Z</time>
      </trkpt>
      <trkpt lat="43.3125480" lon="-3.0593460">
        <ele>152.2</ele>
        <time>2022-01-16T08:49:35Z</time>
      </trkpt>
      <trkpt lat="43.3126020" lon="-3.0593880">
        <ele>152.4</ele>
        <time>2022-01-16T08:49:36Z</time>
      </trkpt>
      <trkpt lat="43.3126570" lon="-3.0594310">
        <ele>152.8</ele>
        <time>2022-01-16T08:49:37Z</time>
      </trkpt>
      <trkpt lat="43.3127090" lon="-3.0594730">
        <ele>153.0</ele>
        <time>2022-01-16T08:49:38Z</time>
      </trkpt>
      <trkpt lat="43.3127610" lon="-3.0595160">
        <ele>153.0</ele>
        <time>2022-01-16T08:49:39Z</time>
      </trkpt>
      <trkpt lat="43.3128140" lon="-3.0595600">
        <ele>153.2</ele>
        <time>2022-01-16T08:49:40Z</time>
      </trkpt>
      <trkpt lat="43.3128670" lon="-3.0596030">
        <ele>153.2</ele>
        <time>2022-01-16T08:49:41Z</time>
      </trkpt>
      <trkpt lat="43.3129210" lon="-3.0596470">
        <ele>153.2</ele>
        <time>2022-01-16T08:49:42Z</time>
      </trkpt>
      <trkpt lat="43.3129740" lon="-3.0596920">
        <ele>153.2</ele>
        <time>2022-01-16T08:49:43Z</time>
      </trkpt>
      <trkpt lat="43.3130270" lon="-3.0597380">
        <ele>153.2</ele>
        <time>2022-01-16T08:49:44Z</time>
      </trkpt>
      <trkpt lat="43.3130800" lon="-3.0597830">
        <ele>153.6</ele>
        <time>2022-01-16T08:49:45Z</time>
      </trkpt>
      <trkpt lat="43.3131340" lon="-3.0598270">
        <ele>153.8</ele>
        <time>2022-01-16T08:49:46Z</time>
      </trkpt>
      <trkpt lat="43.3131870" lon="-3.0598730">
        <ele>154.0</ele>
        <time>2022-01-16T08:49:47Z</time>
      </trkpt>
      <trkpt lat="43.3132410" lon="-3.0599180">
        <ele>154.0</ele>
        <time>2022-01-16T08:49:48Z</time>
      </trkpt>
      <trkpt lat="43.3132950" lon="-3.0599630">
        <ele>154.2</ele>
        <time>2022-01-16T08:49:49Z</time>
      </trkpt>
      <trkpt lat="43.3133480" lon="-3.0600080">
        <ele>154.2</ele>
        <time>2022-01-16T08:49:50Z</time>
      </trkpt>
      <trkpt lat="43.3134010" lon="-3.0600470">
        <ele>154.2</ele>
        <time>2022-01-16T08:49:51Z</time>
      </trkpt>
      <trkpt lat="43.3134540" lon="-3.0600910">
        <ele>154.2</ele>
        <time>2022-01-16T08:49:52Z</time>
      </trkpt>
      <trkpt lat="43.3135050" lon="-3.0601350">
        <ele>154.2</ele>
        <time>2022-01-16T08:49:53Z</time>
      </trkpt>
      <trkpt lat="43.3135570" lon="-3.0601810">
        <ele>154.4</ele>
        <time>2022-01-16T08:49:54Z</time>
      </trkpt>
      <trkpt lat="43.3136100" lon="-3.0602250">
        <ele>154.4</ele>
        <time>2022-01-16T08:49:55Z</time>
      </trkpt>
      <trkpt lat="43.3136620" lon="-3.0602700">
        <ele>154.6</ele>
        <time>2022-01-16T08:49:56Z</time>
      </trkpt>
      <trkpt lat="43.3137150" lon="-3.0603150">
        <ele>155.0</ele>
        <time>2022-01-16T08:49:57Z</time>
      </trkpt>
      <trkpt lat="43.3137670" lon="-3.0603590">
        <ele>155.2</ele>
        <time>2022-01-16T08:49:58Z</time>
      </trkpt>
      <trkpt lat="43.3138200" lon="-3.0604050">
        <ele>155.2</ele>
        <time>2022-01-16T08:49:59Z</time>
      </trkpt>
      <trkpt lat="43.3138710" lon="-3.0604490">
        <ele>155.2</ele>
        <time>2022-01-16T08:50:00Z</time>
      </trkpt>
      <trkpt lat="43.3139230" lon="-3.0604930">
        <ele>155.4</ele>
        <time>2022-01-16T08:50:01Z</time>
      </trkpt>
      <trkpt lat="43.3139740" lon="-3.0605390">
        <ele>155.4</ele>
        <time>2022-01-16T08:50:02Z</time>
      </trkpt>
      <trkpt lat="43.3140260" lon="-3.0605840">
        <ele>155.6</ele>
        <time>2022-01-16T08:50:03Z</time>
      </trkpt>
      <trkpt lat="43.3140780" lon="-3.0606310">
        <ele>155.6</ele>
        <time>2022-01-16T08:50:04Z</time>
      </trkpt>
      <trkpt lat="43.3141310" lon="-3.0606760">
        <ele>155.6</ele>
        <time>2022-01-16T08:50:05Z</time>
      </trkpt>
      <trkpt lat="43.3141820" lon="-3.0607220">
        <ele>155.8</ele>
        <time>2022-01-16T08:50:06Z</time>
      </trkpt>
      <trkpt lat="43.3142310" lon="-3.0607670">
        <ele>155.8</ele>
        <time>2022-01-16T08:50:07Z</time>
      </trkpt>
      <trkpt lat="43.3142810" lon="-3.0608150">
        <ele>156.0</ele>
        <time>2022-01-16T08:50:08Z</time>
      </trkpt>
      <trkpt lat="43.3143290" lon="-3.0608610">
        <ele>156.2</ele>
        <time>2022-01-16T08:50:09Z</time>
      </trkpt>
      <trkpt lat="43.3143790" lon="-3.0609060">
        <ele>156.4</ele>
        <time>2022-01-16T08:50:10Z</time>
      </trkpt>
      <trkpt lat="43.3144280" lon="-3.0609490">
        <ele>156.4</ele>
        <time>2022-01-16T08:50:11Z</time>
      </trkpt>
      <trkpt lat="43.3144810" lon="-3.0609900">
        <ele>156.6</ele>
        <time>2022-01-16T08:50:12Z</time>
      </trkpt>
      <trkpt lat="43.3145360" lon="-3.0610310">
        <ele>156.8</ele>
        <time>2022-01-16T08:50:13Z</time>
      </trkpt>
      <trkpt lat="43.3145890" lon="-3.0610740">
        <ele>157.0</ele>
        <time>2022-01-16T08:50:14Z</time>
      </trkpt>
      <trkpt lat="43.3146420" lon="-3.0611180">
        <ele>157.2</ele>
        <time>2022-01-16T08:50:15Z</time>
      </trkpt>
      <trkpt lat="43.3146940" lon="-3.0611600">
        <ele>157.2</ele>
        <time>2022-01-16T08:50:16Z</time>
      </trkpt>
      <trkpt lat="43.3147470" lon="-3.0612020">
        <ele>157.4</ele>
        <time>2022-01-16T08:50:17Z</time>
      </trkpt>
      <trkpt lat="43.3147990" lon="-3.0612430">
        <ele>157.6</ele>
        <time>2022-01-16T08:50:18Z</time>
      </trkpt>
      <trkpt lat="43.3148510" lon="-3.0612830">
        <ele>157.6</ele>
        <time>2022-01-16T08:50:19Z</time>
      </trkpt>
      <trkpt lat="43.3149030" lon="-3.0613260">
        <ele>157.6</ele>
        <time>2022-01-16T08:50:20Z</time>
      </trkpt>
      <trkpt lat="43.3149590" lon="-3.0613550">
        <ele>157.8</ele>
        <time>2022-01-16T08:50:21Z</time>
      </trkpt>
      <trkpt lat="43.3150160" lon="-3.0613810">
        <ele>158.0</ele>
        <time>2022-01-16T08:50:22Z</time>
      </trkpt>
      <trkpt lat="43.3150750" lon="-3.0614000">
        <ele>158.2</ele>
        <time>2022-01-16T08:50:23Z</time>
      </trkpt>
      <trkpt lat="43.3151320" lon="-3.0614150">
        <ele>158.6</ele>
        <time>2022-01-16T08:50:24Z</time>
      </trkpt>
      <trkpt lat="43.3151900" lon="-3.0614230">
        <ele>158.8</ele>
        <time>2022-01-16T08:50:25Z</time>
      </trkpt>
      <trkpt lat="43.3152470" lon="-3.0614290">
        <ele>158.8</ele>
        <time>2022-01-16T08:50:26Z</time>
      </trkpt>
      <trkpt lat="43.3153060" lon="-3.0614310">
        <ele>159.2</ele>
        <time>2022-01-16T08:50:27Z</time>
      </trkpt>
      <trkpt lat="43.3153640" lon="-3.0614320">
        <ele>159.2</ele>
        <time>2022-01-16T08:50:28Z</time>
      </trkpt>
      <trkpt lat="43.3154210" lon="-3.0614330">
        <ele>159.6</ele>
        <time>2022-01-16T08:50:29Z</time>
      </trkpt>
      <trkpt lat="43.3154770" lon="-3.0614330">
        <ele>159.6</ele>
        <time>2022-01-16T08:50:30Z</time>
      </trkpt>
      <trkpt lat="43.3155340" lon="-3.0614320">
        <ele>160.0</ele>
        <time>2022-01-16T08:50:31Z</time>
      </trkpt>
      <trkpt lat="43.3155890" lon="-3.0614310">
        <ele>160.0</ele>
        <time>2022-01-16T08:50:32Z</time>
      </trkpt>
      <trkpt lat="43.3156440" lon="-3.0614290">
        <ele>160.2</ele>
        <time>2022-01-16T08:50:33Z</time>
      </trkpt>
      <trkpt lat="43.3156990" lon="-3.0614260">
        <ele>160.6</ele>
        <time>2022-01-16T08:50:34Z</time>
      </trkpt>
      <trkpt lat="43.3157530" lon="-3.0614200">
        <ele>160.8</ele>
        <time>2022-01-16T08:50:35Z</time>
      </trkpt>
      <trkpt lat="43.3158080" lon="-3.0614120">
        <ele>160.8</ele>
        <time>2022-01-16T08:50:36Z</time>
      </trkpt>
      <trkpt lat="43.3158630" lon="-3.0614010">
        <ele>161.2</ele>
        <time>2022-01-16T08:50:37Z</time>
      </trkpt>
      <trkpt lat="43.3159190" lon="-3.0613880">
        <ele>161.2</ele>
        <time>2022-01-16T08:50:38Z</time>
      </trkpt>
      <trkpt lat="43.3159750" lon="-3.0613720">
        <ele>161.4</ele>
        <time>2022-01-16T08:50:39Z</time>
      </trkpt>
      <trkpt lat="43.3160320" lon="-3.0613550">
        <ele>161.6</ele>
        <time>2022-01-16T08:50:40Z</time>
      </trkpt>
      <trkpt lat="43.3160880" lon="-3.0613340">
        <ele>161.8</ele>
        <time>2022-01-16T08:50:41Z</time>
      </trkpt>
      <trkpt lat="43.3161440" lon="-3.0613090">
        <ele>162.0</ele>
        <time>2022-01-16T08:50:42Z</time>
      </trkpt>
      <trkpt lat="43.3161980" lon="-3.0612820">
        <ele>162.0</ele>
        <time>2022-01-16T08:50:43Z</time>
      </trkpt>
      <trkpt lat="43.3162510" lon="-3.0612560">
        <ele>162.2</ele>
        <time>2022-01-16T08:50:44Z</time>
      </trkpt>
      <trkpt lat="43.3163040" lon="-3.0612310">
        <ele>162.4</ele>
        <time>2022-01-16T08:50:45Z</time>
      </trkpt>
      <trkpt lat="43.3163570" lon="-3.0612040">
        <ele>162.4</ele>
        <time>2022-01-16T08:50:46Z</time>
      </trkpt>
      <trkpt lat="43.3164100" lon="-3.0611760">
        <ele>162.6</ele>
        <time>2022-01-16T08:50:47Z</time>
      </trkpt>
      <trkpt lat="43.3164620" lon="-3.0611470">
        <ele>162.8</ele>
        <time>2022-01-16T08:50:48Z</time>
      </trkpt>
      <trkpt lat="43.3165150" lon="-3.0611170">
        <ele>163.0</ele>
        <time>2022-01-16T08:50:49Z</time>
      </trkpt>
      <trkpt lat="43.3165670" lon="-3.0610870">
        <ele>163.4</ele>
        <time>2022-01-16T08:50:50Z</time>
      </trkpt>
      <trkpt lat="43.3166190" lon="-3.0610560">
        <ele>163.4</ele>
        <time>2022-01-16T08:50:51Z</time>
      </trkpt>
      <trkpt lat="43.3166730" lon="-3.0610260">
        <ele>163.6</ele>
        <time>2022-01-16T08:50:52Z</time>
      </trkpt>
      <trkpt lat="43.3167270" lon="-3.0609970">
        <ele>163.8</ele>
        <time>2022-01-16T08:50:53Z</time>
      </trkpt>
      <trkpt lat="43.3167830" lon="-3.0609670">
        <ele>164.0</ele>
        <time>2022-01-16T08:50:54Z</time>
      </trkpt>
      <trkpt lat="43.3168390" lon="-3.0609380">
        <ele>164.0</ele>
        <time>2022-01-16T08:50:55Z</time>
      </trkpt>
      <trkpt lat="43.3168960" lon="-3.0609100">
        <ele>164.2</ele>
        <time>2022-01-16T08:50:56Z</time>
      </trkpt>
      <trkpt lat="43.3169540" lon="-3.0608850">
        <ele>164.4</ele>
        <time>2022-01-16T08:50:57Z</time>
      </trkpt>
      <trkpt lat="43.3170130" lon="-3.0608610">
        <ele>164.4</ele>
        <time>2022-01-16T08:50:58Z</time>
      </trkpt>
      <trkpt lat="43.3170720" lon="-3.0608370">
        <ele>164.4</ele>
        <time>2022-01-16T08:50:59Z</time>
      </trkpt>
      <trkpt lat="43.3171310" lon="-3.0608140">
        <ele>164.6</ele>
        <time>2022-01-16T08:51:00Z</time>
      </trkpt>
      <trkpt lat="43.3171890" lon="-3.0607930">
        <ele>164.6</ele>
        <time>2022-01-16T08:51:01Z</time>
      </trkpt>
      <trkpt lat="43.3172470" lon="-3.0607740">
        <ele>164.8</ele>
        <time>2022-01-16T08:51:02Z</time>
      </trkpt>
      <trkpt lat="43.3173070" lon="-3.0607580">
        <ele>165.0</ele>
        <time>2022-01-16T08:51:03Z</time>
      </trkpt>
      <trkpt lat="43.3173680" lon="-3.0607440">
        <ele>165.2</ele>
        <time>2022-01-16T08:51:04Z</time>
      </trkpt>
      <trkpt lat="43.3174310" lon="-3.0607320">
        <ele>165.4</ele>
        <time>2022-01-16T08:51:05Z</time>
      </trkpt>
      <trkpt lat="43.3174930" lon="-3.0607230">
        <ele>165.6</ele>
        <time>2022-01-16T08:51:06Z</time>
      </trkpt>
      <trkpt lat="43.3175560" lon="-3.0607170">
        <ele>165.6</ele>
        <time>2022-01-16T08:51:07Z</time>
      </trkpt>
      <trkpt lat="43.3176200" lon="-3.0607150">
        <ele>165.6</ele>
        <time>2022-01-16T08:51:08Z</time>
      </trkpt>
      <trkpt lat="43.3176840" lon="-3.0607150">
        <ele>165.8</ele>
        <time>2022-01-16T08:51:09Z</time>
      </trkpt>
      <trkpt lat="43.3177480" lon="-3.0607190">
        <ele>165.8</ele>
        <time>2022-01-16T08:51:10Z</time>
      </trkpt>
      <trkpt lat="43.3178120" lon="-3.0607260">
        <ele>165.8</ele>
        <time>2022-01-16T08:51:11Z</time>
      </trkpt>
      <trkpt lat="43.3178750" lon="-3.0607370">
        <ele>165.8</ele>
        <time>2022-01-16T08:51:12Z</time>
      </trkpt>
      <trkpt lat="43.3179380" lon="-3.0607510">
        <ele>165.8</ele>
        <time>2022-01-16T08:51:13Z</time>
      </trkpt>
      <trkpt lat="43.3180010" lon="-3.0607680">
        <ele>165.8</ele>
        <time>2022-01-16T08:51:14Z</time>
      </trkpt>
      <trkpt lat="43.3180620" lon="-3.0607900">
        <ele>165.8</ele>
        <time>2022-01-16T08:51:15Z</time>
      </trkpt>
      <trkpt lat="43.3181210" lon="-3.0608180">
        <ele>166.0</ele>
        <time>2022-01-16T08:51:16Z</time>
      </trkpt>
      <trkpt lat="43.3181810" lon="-3.0608500">
        <ele>166.0</ele>
        <time>2022-01-16T08:51:17Z</time>
      </trkpt>
      <trkpt lat="43.3182390" lon="-3.0608860">
        <ele>166.2</ele>
        <time>2022-01-16T08:51:18Z</time>
      </trkpt>
      <trkpt lat="43.3182960" lon="-3.0609250">
        <ele>166.2</ele>
        <time>2022-01-16T08:51:19Z</time>
      </trkpt>
      <trkpt lat="43.3183510" lon="-3.0609680">
        <ele>166.4</ele>
        <time>2022-01-16T08:51:20Z</time>
      </trkpt>
      <trkpt lat="43.3184050" lon="-3.0610140">
        <ele>166.4</ele>
        <time>2022-01-16T08:51:21Z</time>
      </trkpt>
      <trkpt lat="43.3184570" lon="-3.0610640">
        <ele>166.6</ele>
        <time>2022-01-16T08:51:22Z</time>
      </trkpt>
      <trkpt lat="43.3185070" lon="-3.0611180">
        <ele>166.6</ele>
        <time>2022-01-16T08:51:23Z</time>
      </trkpt>
      <trkpt lat="43.3185570" lon="-3.0611750">
        <ele>166.6</ele>
        <time>2022-01-16T08:51:24Z</time>
      </trkpt>
      <trkpt lat="43.3186070" lon="-3.0612330">
        <ele>166.8</ele>
        <time>2022-01-16T08:51:25Z</time>
      </trkpt>
      <trkpt lat="43.3186550" lon="-3.0612910">
        <ele>166.8</ele>
        <time>2022-01-16T08:51:26Z</time>
      </trkpt>
      <trkpt lat="43.3187020" lon="-3.0613480">
        <ele>166.8</ele>
        <time>2022-01-16T08:51:27Z</time>
      </trkpt>
      <trkpt lat="43.3187490" lon="-3.0614030">
        <ele>167.0</ele>
        <time>2022-01-16T08:51:28Z</time>
      </trkpt>
      <trkpt lat="43.3187960" lon="-3.0614600">
        <ele>167.2</ele>
        <time>2022-01-16T08:51:29Z</time>
      </trkpt>
      <trkpt lat="43.3188420" lon="-3.0615200">
        <ele>167.2</ele>
        <time>2022-01-16T08:51:30Z</time>
      </trkpt>
      <trkpt lat="43.3188880" lon="-3.0615820">
        <ele>167.2</ele>
        <time>2022-01-16T08:51:31Z</time>
      </trkpt>
      <trkpt lat="43.3189330" lon="-3.0616450">
        <ele>167.4</ele>
        <time>2022-01-16T08:51:32Z</time>
      </trkpt>
      <trkpt lat="43.3189740" lon="-3.0617130">
        <ele>167.6</ele>
        <time>2022-01-16T08:51:33Z</time>
      </trkpt>
      <trkpt lat="43.3190130" lon="-3.0617840">
        <ele>167.8</ele>
        <time>2022-01-16T08:51:34Z</time>
      </trkpt>
      <trkpt lat="43.3190470" lon="-3.0618600">
        <ele>168.0</ele>
        <time>2022-01-16T08:51:35Z</time>
      </trkpt>
      <trkpt lat="43.3190770" lon="-3.0619400">
        <ele>168.2</ele>
        <time>2022-01-16T08:51:36Z</time>
      </trkpt>
      <trkpt lat="43.3191050" lon="-3.0620210">
        <ele>168.4</ele>
        <time>2022-01-16T08:51:37Z</time>
      </trkpt>
      <trkpt lat="43.3191300" lon="-3.0621030">
        <ele>168.4</ele>
        <time>2022-01-16T08:51:38Z</time>
      </trkpt>
      <trkpt lat="43.3191500" lon="-3.0621870">
        <ele>168.6</ele>
        <time>2022-01-16T08:51:39Z</time>
      </trkpt>
      <trkpt lat="43.3191680" lon="-3.0622720">
        <ele>168.6</ele>
        <time>2022-01-16T08:51:40Z</time>
      </trkpt>
      <trkpt lat="43.3191870" lon="-3.0623560">
        <ele>168.6</ele>
        <time>2022-01-16T08:51:41Z</time>
      </trkpt>
      <trkpt lat="43.3192070" lon="-3.0624390">
        <ele>168.6</ele>
        <time>2022-01-16T08:51:42Z</time>
      </trkpt>
      <trkpt lat="43.3192260" lon="-3.0625230">
        <ele>168.8</ele>
        <time>2022-01-16T08:51:43Z</time>
      </trkpt>
      <trkpt lat="43.3192450" lon="-3.0626060">
        <ele>168.8</ele>
        <time>2022-01-16T08:51:44Z</time>
      </trkpt>
      <trkpt lat="43.3192630" lon="-3.0626860">
        <ele>169.0</ele>
        <time>2022-01-16T08:51:45Z</time>
      </trkpt>
      <trkpt lat="43.3192830" lon="-3.0627640">
        <ele>169.2</ele>
        <time>2022-01-16T08:51:46Z</time>
      </trkpt>
      <trkpt lat="43.3193010" lon="-3.0628440">
        <ele>169.2</ele>
        <time>2022-01-16T08:51:47Z</time>
      </trkpt>
      <trkpt lat="43.3193200" lon="-3.0629250">
        <ele>169.2</ele>
        <time>2022-01-16T08:51:48Z</time>
      </trkpt>
      <trkpt lat="43.3193400" lon="-3.0630010">
        <ele>169.4</ele>
        <time>2022-01-16T08:51:49Z</time>
      </trkpt>
      <trkpt lat="43.3193570" lon="-3.0630810">
        <ele>169.6</ele>
        <time>2022-01-16T08:51:50Z</time>
      </trkpt>
      <trkpt lat="43.3193760" lon="-3.0631600">
        <ele>169.8</ele>
        <time>2022-01-16T08:51:51Z</time>
      </trkpt>
      <trkpt lat="43.3193940" lon="-3.0632410">
        <ele>170.0</ele>
        <time>2022-01-16T08:51:52Z</time>
      </trkpt>
      <trkpt lat="43.3194140" lon="-3.0633240">
        <ele>170.4</ele>
        <time>2022-01-16T08:51:53Z</time>
      </trkpt>
      <trkpt lat="43.3194340" lon="-3.0634040">
        <ele>170.4</ele>
        <time>2022-01-16T08:51:54Z</time>
      </trkpt>
      <trkpt lat="43.3194530" lon="-3.0634850">
        <ele>170.6</ele>
        <time>2022-01-16T08:51:55Z</time>
      </trkpt>
      <trkpt lat="43.3194700" lon="-3.0635650">
        <ele>170.8</ele>
        <time>2022-01-16T08:51:56Z</time>
      </trkpt>
      <trkpt lat="43.3194880" lon="-3.0636440">
        <ele>170.8</ele>
        <time>2022-01-16T08:51:57Z</time>
      </trkpt>
      <trkpt lat="43.3195060" lon="-3.0637220">
        <ele>171.2</ele>
        <time>2022-01-16T08:51:58Z</time>
      </trkpt>
      <trkpt lat="43.3195240" lon="-3.0637990">
        <ele>171.4</ele>
        <time>2022-01-16T08:51:59Z</time>
      </trkpt>
      <trkpt lat="43.3195430" lon="-3.0638750">
        <ele>171.6</ele>
        <time>2022-01-16T08:52:00Z</time>
      </trkpt>
      <trkpt lat="43.3195640" lon="-3.0639490">
        <ele>171.8</ele>
        <time>2022-01-16T08:52:01Z</time>
      </trkpt>
      <trkpt lat="43.3195880" lon="-3.0640190">
        <ele>172.0</ele>
        <time>2022-01-16T08:52:02Z</time>
      </trkpt>
      <trkpt lat="43.3196130" lon="-3.0640880">
        <ele>172.0</ele>
        <time>2022-01-16T08:52:03Z</time>
      </trkpt>
      <trkpt lat="43.3196420" lon="-3.0641540">
        <ele>172.2</ele>
        <time>2022-01-16T08:52:04Z</time>
      </trkpt>
      <trkpt lat="43.3196730" lon="-3.0642200">
        <ele>172.6</ele>
        <time>2022-01-16T08:52:05Z</time>
      </trkpt>
      <trkpt lat="43.3197090" lon="-3.0642800">
        <ele>172.6</ele>
        <time>2022-01-16T08:52:06Z</time>
      </trkpt>
      <trkpt lat="43.3197480" lon="-3.0643350">
        <ele>173.0</ele>
        <time>2022-01-16T08:52:07Z</time>
      </trkpt>
      <trkpt lat="43.3197870" lon="-3.0643880">
        <ele>173.2</ele>
        <time>2022-01-16T08:52:08Z</time>
      </trkpt>
      <trkpt lat="43.3198270" lon="-3.0644390">
        <ele>173.4</ele>
        <time>2022-01-16T08:52:09Z</time>
      </trkpt>
      <trkpt lat="43.3198680" lon="-3.0644890">
        <ele>173.6</ele>
        <time>2022-01-16T08:52:10Z</time>
      </trkpt>
      <trkpt lat="43.3199070" lon="-3.0645390">
        <ele>173.8</ele>
        <time>2022-01-16T08:52:11Z</time>
      </trkpt>
      <trkpt lat="43.3199460" lon="-3.0645840">
        <ele>174.2</ele>
        <time>2022-01-16T08:52:12Z</time>
      </trkpt>
      <trkpt lat="43.3199860" lon="-3.0646290">
        <ele>174.8</ele>
        <time>2022-01-16T08:52:13Z</time>
      </trkpt>
      <trkpt lat="43.3200240" lon="-3.0646750">
        <ele>175.2</ele>
        <time>2022-01-16T08:52:14Z</time>
      </trkpt>
      <trkpt lat="43.3200590" lon="-3.0647220">
        <ele>175.6</ele>
        <time>2022-01-16T08:52:15Z</time>
      </trkpt>
      <trkpt lat="43.3200890" lon="-3.0647670">
        <ele>176.0</ele>
        <time>2022-01-16T08:52:16Z</time>
      </trkpt>
      <trkpt lat="43.3201240" lon="-3.0648120">
        <ele>176.4</ele>
        <time>2022-01-16T08:52:17Z</time>
      </trkpt>
      <trkpt lat="43.3201580" lon="-3.0648540">
        <ele>176.6</ele>
        <time>2022-01-16T08:52:18Z</time>
      </trkpt>
      <trkpt lat="43.3201950" lon="-3.0648970">
        <ele>176.8</ele>
        <time>2022-01-16T08:52:19Z</time>
      </trkpt>
      <trkpt lat="43.3202330" lon="-3.0649390">
        <ele>177.2</ele>
        <time>2022-01-16T08:52:20Z</time>
      </trkpt>
      <trkpt lat="43.3202680" lon="-3.0649830">
        <ele>177.4</ele>
        <time>2022-01-16T08:52:21Z</time>
      </trkpt>
      <trkpt lat="43.3203080" lon="-3.0650270">
        <ele>177.8</ele>
        <time>2022-01-16T08:52:22Z</time>
      </trkpt>
      <trkpt lat="43.3203470" lon="-3.0650700">
        <ele>178.2</ele>
        <time>2022-01-16T08:52:23Z</time>
      </trkpt>
      <trkpt lat="43.3203860" lon="-3.0651130">
        <ele>178.6</ele>
        <time>2022-01-16T08:52:24Z</time>
      </trkpt>
      <trkpt lat="43.3204250" lon="-3.0651560">
        <ele>178.8</ele>
        <time>2022-01-16T08:52:25Z</time>
      </trkpt>
      <trkpt lat="43.3204640" lon="-3.0651990">
        <ele>179.0</ele>
        <time>2022-01-16T08:52:26Z</time>
      </trkpt>
      <trkpt lat="43.3205040" lon="-3.0652410">
        <ele>179.4</ele>
        <time>2022-01-16T08:52:27Z</time>
      </trkpt>
      <trkpt lat="43.3205430" lon="-3.0652820">
        <ele>179.6</ele>
        <time>2022-01-16T08:52:28Z</time>
      </trkpt>
      <trkpt lat="43.3205790" lon="-3.0653240">
        <ele>180.2</ele>
        <time>2022-01-16T08:52:29Z</time>
      </trkpt>
      <trkpt lat="43.3206140" lon="-3.0653660">
        <ele>180.6</ele>
        <time>2022-01-16T08:52:30Z</time>
      </trkpt>
      <trkpt lat="43.3206500" lon="-3.0654070">
        <ele>181.0</ele>
        <time>2022-01-16T08:52:31Z</time>
      </trkpt>
      <trkpt lat="43.3206870" lon="-3.0654470">
        <ele>181.2</ele>
        <time>2022-01-16T08:52:32Z</time>
      </trkpt>
      <trkpt lat="43.3207230" lon="-3.0654870">
        <ele>181.6</ele>
        <time>2022-01-16T08:52:33Z</time>
      </trkpt>
      <trkpt lat="43.3207600" lon="-3.0655280">
        <ele>181.8</ele>
        <time>2022-01-16T08:52:34Z</time>
      </trkpt>
      <trkpt lat="43.3207960" lon="-3.0655710">
        <ele>182.2</ele>
        <time>2022-01-16T08:52:35Z</time>
      </trkpt>
      <trkpt lat="43.3208330" lon="-3.0656150">
        <ele>182.6</ele>
        <time>2022-01-16T08:52:36Z</time>
      </trkpt>
      <trkpt lat="43.3208690" lon="-3.0656600">
        <ele>182.8</ele>
        <time>2022-01-16T08:52:37Z</time>
      </trkpt>
      <trkpt lat="43.3209040" lon="-3.0657050">
        <ele>183.2</ele>
        <time>2022-01-16T08:52:38Z</time>
      </trkpt>
      <trkpt lat="43.3209380" lon="-3.0657520">
        <ele>183.6</ele>
        <time>2022-01-16T08:52:39Z</time>
      </trkpt>
      <trkpt lat="43.3209710" lon="-3.0657990">
        <ele>183.8</ele>
        <time>2022-01-16T08:52:40Z</time>
      </trkpt>
      <trkpt lat="43.3210030" lon="-3.0658490">
        <ele>184.0</ele>
        <time>2022-01-16T08:52:41Z</time>
      </trkpt>
      <trkpt lat="43.3210330" lon="-3.0659010">
        <ele>184.2</ele>
        <time>2022-01-16T08:52:42Z</time>
      </trkpt>
      <trkpt lat="43.3210640" lon="-3.0659550">
        <ele>184.4</ele>
        <time>2022-01-16T08:52:43Z</time>
      </trkpt>
      <trkpt lat="43.3210950" lon="-3.0660070">
        <ele>184.6</ele>
        <time>2022-01-16T08:52:44Z</time>
      </trkpt>
      <trkpt lat="43.3211260" lon="-3.0660580">
        <ele>184.6</ele>
        <time>2022-01-16T08:52:45Z</time>
      </trkpt>
      <trkpt lat="43.3211560" lon="-3.0661110">
        <ele>184.8</ele>
        <time>2022-01-16T08:52:46Z</time>
      </trkpt>
      <trkpt lat="43.3211860" lon="-3.0661650">
        <ele>185.2</ele>
        <time>2022-01-16T08:52:47Z</time>
      </trkpt>
      <trkpt lat="43.3212160" lon="-3.0662180">
        <ele>185.4</ele>
        <time>2022-01-16T08:52:48Z</time>
      </trkpt>
      <trkpt lat="43.3212460" lon="-3.0662700">
        <ele>185.8</ele>
        <time>2022-01-16T08:52:49Z</time>
      </trkpt>
      <trkpt lat="43.3212750" lon="-3.0663230">
        <ele>186.2</ele>
        <time>2022-01-16T08:52:50Z</time>
      </trkpt>
      <trkpt lat="43.3213040" lon="-3.0663750">
        <ele>186.4</ele>
        <time>2022-01-16T08:52:51Z</time>
      </trkpt>
      <trkpt lat="43.3213340" lon="-3.0664290">
        <ele>186.8</ele>
        <time>2022-01-16T08:52:52Z</time>
      </trkpt>
      <trkpt lat="43.3213620" lon="-3.0664840">
        <ele>186.8</ele>
        <time>2022-01-16T08:52:53Z</time>
      </trkpt>
      <trkpt lat="43.3213900" lon="-3.0665410">
        <ele>187.0</ele>
        <time>2022-01-16T08:52:54Z</time>
      </trkpt>
      <trkpt lat="43.3214170" lon="-3.0665970">
        <ele>187.2</ele>
        <time>2022-01-16T08:52:55Z</time>
      </trkpt>
      <trkpt lat="43.3214440" lon="-3.0666540">
        <ele>187.8</ele>
        <time>2022-01-16T08:52:56Z</time>
      </trkpt>
      <trkpt lat="43.3214700" lon="-3.0667110">
        <ele>188.0</ele>
        <time>2022-01-16T08:52:57Z</time>
      </trkpt>
      <trkpt lat="43.3214950" lon="-3.0667720">
        <ele>188.0</ele>
        <time>2022-01-16T08:52:58Z</time>
      </trkpt>
      <trkpt lat="43.3215190" lon="-3.0668330">
        <ele>188.4</ele>
        <time>2022-01-16T08:52:59Z</time>
      </trkpt>
      <trkpt lat="43.3215410" lon="-3.0668930">
        <ele>188.6</ele>
        <time>2022-01-16T08:53:00Z</time>
      </trkpt>
      <trkpt lat="43.3215620" lon="-3.0669550">
        <ele>188.8</ele>
        <time>2022-01-16T08:53:01Z</time>
      </trkpt>
      <trkpt lat="43.3215820" lon="-3.0670160">
        <ele>189.0</ele>
        <time>2022-01-16T08:53:02Z</time>
      </trkpt>
      <trkpt lat="43.3216010" lon="-3.0670760">
        <ele>189.2</ele>
        <time>2022-01-16T08:53:03Z</time>
      </trkpt>
      <trkpt lat="43.3216200" lon="-3.0671380">
        <ele>189.4</ele>
        <time>2022-01-16T08:53:04Z</time>
      </trkpt>
      <trkpt lat="43.3216370" lon="-3.0672050">
        <ele>189.6</ele>
        <time>2022-01-16T08:53:05Z</time>
      </trkpt>
      <trkpt lat="43.3216520" lon="-3.0672710">
        <ele>189.8</ele>
        <time>2022-01-16T08:53:06Z</time>
      </trkpt>
      <trkpt lat="43.3216660" lon="-3.0673380">
        <ele>190.2</ele>
        <time>2022-01-16T08:53:07Z</time>
      </trkpt>
      <trkpt lat="43.3216760" lon="-3.0674050">
        <ele>190.2</ele>
        <time>2022-01-16T08:53:08Z</time>
      </trkpt>
      <trkpt lat="43.3216840" lon="-3.0674700">
        <ele>190.4</ele>
        <time>2022-01-16T08:53:09Z</time>
      </trkpt>
      <trkpt lat="43.3216920" lon="-3.0675350">
        <ele>190.8</ele>
        <time>2022-01-16T08:53:10Z</time>
      </trkpt>
      <trkpt lat="43.3216980" lon="-3.0676020">
        <ele>191.0</ele>
        <time>2022-01-16T08:53:11Z</time>
      </trkpt>
      <trkpt lat="43.3217030" lon="-3.0676680">
        <ele>191.4</ele>
        <time>2022-01-16T08:53:12Z</time>
      </trkpt>
      <trkpt lat="43.3217050" lon="-3.0677340">
        <ele>191.8</ele>
        <time>2022-01-16T08:53:13Z</time>
      </trkpt>
      <trkpt lat="43.3217050" lon="-3.0678000">
        <ele>192.2</ele>
        <time>2022-01-16T08:53:14Z</time>
      </trkpt>
      <trkpt lat="43.3217030" lon="-3.0678670">
        <ele>192.2</ele>
        <time>2022-01-16T08:53:15Z</time>
      </trkpt>
      <trkpt lat="43.3217010" lon="-3.0679320">
        <ele>192.6</ele>
        <time>2022-01-16T08:53:16Z</time>
      </trkpt>
      <trkpt lat="43.3216980" lon="-3.0679970">
        <ele>192.8</ele>
        <time>2022-01-16T08:53:17Z</time>
      </trkpt>
      <trkpt lat="43.3216920" lon="-3.0680630">
        <ele>193.4</ele>
        <time>2022-01-16T08:53:18Z</time>
      </trkpt>
      <trkpt lat="43.3216860" lon="-3.0681290">
        <ele>193.8</ele>
        <time>2022-01-16T08:53:19Z</time>
      </trkpt>
      <trkpt lat="43.3216810" lon="-3.0681960">
        <ele>194.2</ele>
        <time>2022-01-16T08:53:20Z</time>
      </trkpt>
      <trkpt lat="43.3216770" lon="-3.0682630">
        <ele>194.4</ele>
        <time>2022-01-16T08:53:21Z</time>
      </trkpt>
      <trkpt lat="43.3216720" lon="-3.0683280">
        <ele>194.6</ele>
        <time>2022-01-16T08:53:22Z</time>
      </trkpt>
      <trkpt lat="43.3216680" lon="-3.0683930">
        <ele>194.8</ele>
        <time>2022-01-16T08:53:23Z</time>
      </trkpt>
      <trkpt lat="43.3216670" lon="-3.0684580">
        <ele>195.0</ele>
        <time>2022-01-16T08:53:24Z</time>
      </trkpt>
      <trkpt lat="43.3216690" lon="-3.0685240">
        <ele>195.2</ele>
        <time>2022-01-16T08:53:25Z</time>
      </trkpt>
      <trkpt lat="43.3216780" lon="-3.0685860">
        <ele>195.4</ele>
        <time>2022-01-16T08:53:26Z</time>
      </trkpt>
      <trkpt lat="43.3216880" lon="-3.0686510">
        <ele>195.8</ele>
        <time>2022-01-16T08:53:27Z</time>
      </trkpt>
      <trkpt lat="43.3216990" lon="-3.0687180">
        <ele>196.0</ele>
        <time>2022-01-16T08:53:28Z</time>
      </trkpt>
      <trkpt lat="43.3217180" lon="-3.0687800">
        <ele>196.4</ele>
        <time>2022-01-16T08:53:29Z</time>
      </trkpt>
      <trkpt lat="43.3217450" lon="-3.0688360">
        <ele>196.6</ele>
        <time>2022-01-16T08:53:30Z</time>
      </trkpt>
      <trkpt lat="43.3217740" lon="-3.0688910">
        <ele>196.8</ele>
        <time>2022-01-16T08:53:31Z</time>
      </trkpt>
      <trkpt lat="43.3218030" lon="-3.0689450">
        <ele>197.2</ele>
        <time>2022-01-16T08:53:32Z</time>
      </trkpt>
      <trkpt lat="43.3218320" lon="-3.0689980">
        <ele>197.2</ele>
        <time>2022-01-16T08:53:33Z</time>
      </trkpt>
      <trkpt lat="43.3218610" lon="-3.0690530">
        <ele>197.4</ele>
        <time>2022-01-16T08:53:34Z</time>
      </trkpt>
      <trkpt lat="43.3218900" lon="-3.0691090">
        <ele>197.8</ele>
        <time>2022-01-16T08:53:35Z</time>
      </trkpt>
      <trkpt lat="43.3219190" lon="-3.0691660">
        <ele>198.2</ele>
        <time>2022-01-16T08:53:36Z</time>
      </trkpt>
      <trkpt lat="43.3219490" lon="-3.0692210">
        <ele>198.4</ele>
        <time>2022-01-16T08:53:37Z</time>
      </trkpt>
      <trkpt lat="43.3219790" lon="-3.0692750">
        <ele>198.6</ele>
        <time>2022-01-16T08:53:38Z</time>
      </trkpt>
      <trkpt lat="43.3220090" lon="-3.0693290">
        <ele>199.0</ele>
        <time>2022-01-16T08:53:39Z</time>
      </trkpt>
      <trkpt lat="43.3220370" lon="-3.0693800">
        <ele>199.2</ele>
        <time>2022-01-16T08:53:40Z</time>
      </trkpt>
      <trkpt lat="43.3220650" lon="-3.0694320">
        <ele>199.6</ele>
        <time>2022-01-16T08:53:41Z</time>
      </trkpt>
      <trkpt lat="43.3220940" lon="-3.0694820">
        <ele>199.8</ele>
        <time>2022-01-16T08:53:42Z</time>
      </trkpt>
      <trkpt lat="43.3221230" lon="-3.0695330">
        <ele>200.0</ele>
        <time>2022-01-16T08:53:43Z</time>
      </trkpt>
      <trkpt lat="43.3221520" lon="-3.0695850">
        <ele>200.2</ele>
        <time>2022-01-16T08:53:44Z</time>
      </trkpt>
      <trkpt lat="43.3221810" lon="-3.0696380">
        <ele>200.6</ele>
        <time>2022-01-16T08:53:45Z</time>
      </trkpt>
      <trkpt lat="43.3222110" lon="-3.0696910">
        <ele>200.8</ele>
        <time>2022-01-16T08:53:46Z</time>
      </trkpt>
      <trkpt lat="43.3222410" lon="-3.0697450">
        <ele>201.2</ele>
        <time>2022-01-16T08:53:47Z</time>
      </trkpt>
      <trkpt lat="43.3222700" lon="-3.0698000">
        <ele>201.2</ele>
        <time>2022-01-16T08:53:48Z</time>
      </trkpt>
      <trkpt lat="43.3223000" lon="-3.0698550">
        <ele>201.4</ele>
        <time>2022-01-16T08:53:49Z</time>
      </trkpt>
      <trkpt lat="43.3223290" lon="-3.0699090">
        <ele>201.8</ele>
        <time>2022-01-16T08:53:50Z</time>
      </trkpt>
      <trkpt lat="43.3223600" lon="-3.0699620">
        <ele>202.2</ele>
        <time>2022-01-16T08:53:51Z</time>
      </trkpt>
      <trkpt lat="43.3223900" lon="-3.0700150">
        <ele>202.6</ele>
        <time>2022-01-16T08:53:52Z</time>
      </trkpt>
      <trkpt lat="43.3224200" lon="-3.0700670">
        <ele>203.0</ele>
        <time>2022-01-16T08:53:53Z</time>
      </trkpt>
      <trkpt lat="43.3224500" lon="-3.0701230">
        <ele>203.2</ele>
        <time>2022-01-16T08:53:54Z</time>
      </trkpt>
      <trkpt lat="43.3224800" lon="-3.0701790">
        <ele>203.2</ele>
        <time>2022-01-16T08:53:55Z</time>
      </trkpt>
      <trkpt lat="43.3225110" lon="-3.0702350">
        <ele>203.4</ele>
        <time>2022-01-16T08:53:56Z</time>
      </trkpt>
      <trkpt lat="43.3225420" lon="-3.0702930">
        <ele>203.6</ele>
        <time>2022-01-16T08:53:57Z</time>
      </trkpt>
      <trkpt lat="43.3225730" lon="-3.0703510">
        <ele>204.0</ele>
        <time>2022-01-16T08:53:58Z</time>
      </trkpt>
      <trkpt lat="43.3226050" lon="-3.0704090">
        <ele>204.2</ele>
        <time>2022-01-16T08:53:59Z</time>
      </trkpt>
      <trkpt lat="43.3226390" lon="-3.0704670">
        <ele>204.4</ele>
        <time>2022-01-16T08:54:00Z</time>
      </trkpt>
      <trkpt lat="43.3226740" lon="-3.0705230">
        <ele>204.8</ele>
        <time>2022-01-16T08:54:01Z</time>
      </trkpt>
      <trkpt lat="43.3227100" lon="-3.0705790">
        <ele>204.8</ele>
        <time>2022-01-16T08:54:02Z</time>
      </trkpt>
      <trkpt lat="43.3227480" lon="-3.0706320">
        <ele>205.0</ele>
        <time>2022-01-16T08:54:03Z</time>
      </trkpt>
      <trkpt lat="43.3227890" lon="-3.0706850">
        <ele>205.2</ele>
        <time>2022-01-16T08:54:04Z</time>
      </trkpt>
      <trkpt lat="43.3228300" lon="-3.0707350">
        <ele>205.2</ele>
        <time>2022-01-16T08:54:05Z</time>
      </trkpt>
      <trkpt lat="43.3228730" lon="-3.0707840">
        <ele>205.4</ele>
        <time>2022-01-16T08:54:06Z</time>
      </trkpt>
      <trkpt lat="43.3229170" lon="-3.0708320">
        <ele>205.8</ele>
        <time>2022-01-16T08:54:07Z</time>
      </trkpt>
      <trkpt lat="43.3229600" lon="-3.0708790">
        <ele>206.0</ele>
        <time>2022-01-16T08:54:08Z</time>
      </trkpt>
      <trkpt lat="43.3230030" lon="-3.0709250">
        <ele>206.4</ele>
        <time>2022-01-16T08:54:09Z</time>
      </trkpt>
      <trkpt lat="43.3230450" lon="-3.0709710">
        <ele>206.6</ele>
        <time>2022-01-16T08:54:10Z</time>
      </trkpt>
      <trkpt lat="43.3230870" lon="-3.0710170">
        <ele>206.8</ele>
        <time>2022-01-16T08:54:11Z</time>
      </trkpt>
      <trkpt lat="43.3231310" lon="-3.0710610">
        <ele>207.0</ele>
        <time>2022-01-16T08:54:12Z</time>
      </trkpt>
      <trkpt lat="43.3231740" lon="-3.0711050">
        <ele>207.2</ele>
        <time>2022-01-16T08:54:13Z</time>
      </trkpt>
      <trkpt lat="43.3232140" lon="-3.0711490">
        <ele>207.6</ele>
        <time>2022-01-16T08:54:14Z</time>
      </trkpt>
      <trkpt lat="43.3232560" lon="-3.0711940">
        <ele>208.0</ele>
        <time>2022-01-16T08:54:15Z</time>
      </trkpt>
      <trkpt lat="43.3232980" lon="-3.0712400">
        <ele>208.2</ele>
        <time>2022-01-16T08:54:16Z</time>
      </trkpt>
      <trkpt lat="43.3233390" lon="-3.0712880">
        <ele>208.4</ele>
        <time>2022-01-16T08:54:17Z</time>
      </trkpt>
      <trkpt lat="43.3233800" lon="-3.0713370">
        <ele>208.6</ele>
        <time>2022-01-16T08:54:18Z</time>
      </trkpt>
      <trkpt lat="43.3234230" lon="-3.0713840">
        <ele>208.8</ele>
        <time>2022-01-16T08:54:19Z</time>
      </trkpt>
      <trkpt lat="43.3234640" lon="-3.0714350">
        <ele>209.0</ele>
        <time>2022-01-16T08:54:20Z</time>
      </trkpt>
      <trkpt lat="43.3235060" lon="-3.0714840">
        <ele>209.2</ele>
        <time>2022-01-16T08:54:21Z</time>
      </trkpt>
      <trkpt lat="43.3235490" lon="-3.0715290">
        <ele>209.4</ele>
        <time>2022-01-16T08:54:22Z</time>
      </trkpt>
      <trkpt lat="43.3235930" lon="-3.0715780">
        <ele>209.6</ele>
        <time>2022-01-16T08:54:23Z</time>
      </trkpt>
      <trkpt lat="43.3236380" lon="-3.0716260">
        <ele>209.8</ele>
        <time>2022-01-16T08:54:24Z</time>
      </trkpt>
      <trkpt lat="43.3236850" lon="-3.0716760">
        <ele>210.0</ele>
        <time>2022-01-16T08:54:25Z</time>
      </trkpt>
      <trkpt lat="43.3237330" lon="-3.0717280">
        <ele>210.0</ele>
        <time>2022-01-16T08:54:26Z</time>
      </trkpt>
      <trkpt lat="43.3237820" lon="-3.0717810">
        <ele>210.0</ele>
        <time>2022-01-16T08:54:27Z</time>
      </trkpt>
      <trkpt lat="43.3238310" lon="-3.0718340">
        <ele>210.0</ele>
        <time>2022-01-16T08:54:28Z</time>
      </trkpt>
      <trkpt lat="43.3238810" lon="-3.0718870">
        <ele>210.0</ele>
        <time>2022-01-16T08:54:29Z</time>
      </trkpt>
      <trkpt lat="43.3239320" lon="-3.0719410">
        <ele>210.0</ele>
        <time>2022-01-16T08:54:30Z</time>
      </trkpt>
      <trkpt lat="43.3239840" lon="-3.0719960">
        <ele>209.8</ele>
        <time>2022-01-16T08:54:31Z</time>
      </trkpt>
      <trkpt lat="43.3240370" lon="-3.0720490">
        <ele>209.6</ele>
        <time>2022-01-16T08:54:32Z</time>
      </trkpt>
      <trkpt lat="43.3240910" lon="-3.0721010">
        <ele>209.4</ele>
        <time>2022-01-16T08:54:33Z</time>
      </trkpt>
      <trkpt lat="43.3241450" lon="-3.0721520">
        <ele>209.2</ele>
        <time>2022-01-16T08:54:34Z</time>
      </trkpt>
      <trkpt lat="43.3242000" lon="-3.0722010">
        <ele>209.2</ele>
        <time>2022-01-16T08:54:35Z</time>
      </trkpt>
      <trkpt lat="43.3242580" lon="-3.0722510">
        <ele>209.0</ele>
        <time>2022-01-16T08:54:36Z</time>
      </trkpt>
      <trkpt lat="43.3243150" lon="-3.0722990">
        <ele>209.0</ele>
        <time>2022-01-16T08:54:37Z</time>
      </trkpt>
      <trkpt lat="43.3243730" lon="-3.0723460">
        <ele>209.0</ele>
        <time>2022-01-16T08:54:38Z</time>
      </trkpt>
      <trkpt lat="43.3244330" lon="-3.0723940">
        <ele>208.8</ele>
        <time>2022-01-16T08:54:39Z</time>
      </trkpt>
      <trkpt lat="43.3244930" lon="-3.0724420">
        <ele>208.8</ele>
        <time>2022-01-16T08:54:40Z</time>
      </trkpt>
      <trkpt lat="43.3245550" lon="-3.0724900">
        <ele>208.8</ele>
        <time>2022-01-16T08:54:41Z</time>
      </trkpt>
      <trkpt lat="43.3246180" lon="-3.0725390">
        <ele>208.8</ele>
        <time>2022-01-16T08:54:42Z</time>
      </trkpt>
      <trkpt lat="43.3246810" lon="-3.0725880">
        <ele>208.8</ele>
        <time>2022-01-16T08:54:43Z</time>
      </trkpt>
      <trkpt lat="43.3247430" lon="-3.0726380">
        <ele>208.8</ele>
        <time>2022-01-16T08:54:44Z</time>
      </trkpt>
      <trkpt lat="43.3248060" lon="-3.0726870">
        <ele>208.8</ele>
        <time>2022-01-16T08:54:45Z</time>
      </trkpt>
      <trkpt lat="43.3248680" lon="-3.0727370">
        <ele>208.8</ele>
        <time>2022-01-16T08:54:46Z</time>
      </trkpt>
      <trkpt lat="43.3249290" lon="-3.0727850">
        <ele>208.8</ele>
        <time>2022-01-16T08:54:47Z</time>
      </trkpt>
      <trkpt lat="43.3249880" lon="-3.0728330">
        <ele>208.8</ele>
        <time>2022-01-16T08:54:48Z</time>
      </trkpt>
      <trkpt lat="43.3250480" lon="-3.0728780">
        <ele>209.0</ele>
        <time>2022-01-16T08:54:49Z</time>
      </trkpt>
      <trkpt lat="43.3251070" lon="-3.0729220">
        <ele>209.0</ele>
        <time>2022-01-16T08:54:50Z</time>
      </trkpt>
      <trkpt lat="43.3251660" lon="-3.0729660">
        <ele>209.2</ele>
        <time>2022-01-16T08:54:51Z</time>
      </trkpt>
      <trkpt lat="43.3252260" lon="-3.0730110">
        <ele>209.4</ele>
        <time>2022-01-16T08:54:52Z</time>
      </trkpt>
      <trkpt lat="43.3252840" lon="-3.0730550">
        <ele>209.6</ele>
        <time>2022-01-16T08:54:53Z</time>
      </trkpt>
      <trkpt lat="43.3253410" lon="-3.0730980">
        <ele>209.8</ele>
        <time>2022-01-16T08:54:54Z</time>
      </trkpt>
      <trkpt lat="43.3253980" lon="-3.0731390">
        <ele>209.8</ele>
        <time>2022-01-16T08:54:55Z</time>
      </trkpt>
      <trkpt lat="43.3254530" lon="-3.0731790">
        <ele>210.2</ele>
        <time>2022-01-16T08:54:56Z</time>
      </trkpt>
      <trkpt lat="43.3255080" lon="-3.0732200">
        <ele>210.2</ele>
        <time>2022-01-16T08:54:57Z</time>
      </trkpt>
      <trkpt lat="43.3255630" lon="-3.0732600">
        <ele>210.4</ele>
        <time>2022-01-16T08:54:58Z</time>
      </trkpt>
      <trkpt lat="43.3256190" lon="-3.0733000">
        <ele>210.6</ele>
        <time>2022-01-16T08:54:59Z</time>
      </trkpt>
      <trkpt lat="43.3256750" lon="-3.0733400">
        <ele>210.6</ele>
        <time>2022-01-16T08:55:00Z</time>
      </trkpt>
      <trkpt lat="43.3257310" lon="-3.0733810">
        <ele>210.8</ele>
        <time>2022-01-16T08:55:01Z</time>
      </trkpt>
      <trkpt lat="43.3257870" lon="-3.0734230">
        <ele>211.0</ele>
        <time>2022-01-16T08:55:02Z</time>
      </trkpt>
      <trkpt lat="43.3258430" lon="-3.0734670">
        <ele>211.2</ele>
        <time>2022-01-16T08:55:03Z</time>
      </trkpt>
      <trkpt lat="43.3258980" lon="-3.0735100">
        <ele>211.2</ele>
        <time>2022-01-16T08:55:04Z</time>
      </trkpt>
      <trkpt lat="43.3259510" lon="-3.0735530">
        <ele>211.4</ele>
        <time>2022-01-16T08:55:05Z</time>
      </trkpt>
      <trkpt lat="43.3260050" lon="-3.0735930">
        <ele>211.8</ele>
        <time>2022-01-16T08:55:06Z</time>
      </trkpt>
      <trkpt lat="43.3260590" lon="-3.0736320">
        <ele>211.8</ele>
        <time>2022-01-16T08:55:07Z</time>
      </trkpt>
      <trkpt lat="43.3261130" lon="-3.0736730">
        <ele>212.0</ele>
        <time>2022-01-16T08:55:08Z</time>
      </trkpt>
      <trkpt lat="43.3261680" lon="-3.0737110">
        <ele>212.0</ele>
        <time>2022-01-16T08:55:09Z</time>
      </trkpt>
      <trkpt lat="43.3262260" lon="-3.0737460">
        <ele>212.2</ele>
        <time>2022-01-16T08:55:10Z</time>
      </trkpt>
      <trkpt lat="43.3262870" lon="-3.0737770">
        <ele>212.4</ele>
        <time>2022-01-16T08:55:11Z</time>
      </trkpt>
      <trkpt lat="43.3263480" lon="-3.0738050">
        <ele>212.6</ele>
        <time>2022-01-16T08:55:12Z</time>
      </trkpt>
      <trkpt lat="43.3264080" lon="-3.0738320">
        <ele>212.6</ele>
        <time>2022-01-16T08:55:13Z</time>
      </trkpt>
      <trkpt lat="43.3264670" lon="-3.0738550">
        <ele>212.4</ele>
        <time>2022-01-16T08:55:14Z</time>
      </trkpt>
      <trkpt lat="43.3265280" lon="-3.0738710">
        <ele>212.4</ele>
        <time>2022-01-16T08:55:15Z</time>
      </trkpt>
      <trkpt lat="43.3265900" lon="-3.0738830">
        <ele>212.2</ele>
        <time>2022-01-16T08:55:16Z</time>
      </trkpt>
      <trkpt lat="43.3266540" lon="-3.0738920">
        <ele>212.0</ele>
        <time>2022-01-16T08:55:17Z</time>
      </trkpt>
      <trkpt lat="43.3267200" lon="-3.0738960">
        <ele>211.8</ele>
        <time>2022-01-16T08:55:18Z</time>
      </trkpt>
      <trkpt lat="43.3267880" lon="-3.0738980">
        <ele>211.8</ele>
        <time>2022-01-16T08:55:19Z</time>
      </trkpt>
      <trkpt lat="43.3268570" lon="-3.0738950">
        <ele>211.6</ele>
        <time>2022-01-16T08:55:20Z</time>
      </trkpt>
      <trkpt lat="43.3269280" lon="-3.0738900">
        <ele>211.4</ele>
        <time>2022-01-16T08:55:21Z</time>
      </trkpt>
      <trkpt lat="43.3270000" lon="-3.0738850">
        <ele>211.2</ele>
        <time>2022-01-16T08:55:22Z</time>
      </trkpt>
      <trkpt lat="43.3270730" lon="-3.0738780">
        <ele>211.0</ele>
        <time>2022-01-16T08:55:23Z</time>
      </trkpt>
      <trkpt lat="43.3271470" lon="-3.0738690">
        <ele>210.6</ele>
        <time>2022-01-16T08:55:24Z</time>
      </trkpt>
      <trkpt lat="43.3272240" lon="-3.0738610">
        <ele>210.2</ele>
        <time>2022-01-16T08:55:25Z</time>
      </trkpt>
      <trkpt lat="43.3273010" lon="-3.0738520">
        <ele>209.8</ele>
        <time>2022-01-16T08:55:26Z</time>
      </trkpt>
      <trkpt lat="43.3273800" lon="-3.0738430">
        <ele>209.6</ele>
        <time>2022-01-16T08:55:27Z</time>
      </trkpt>
      <trkpt lat="43.3274600" lon="-3.0738360">
        <ele>209.2</ele>
        <time>2022-01-16T08:55:28Z</time>
      </trkpt>
      <trkpt lat="43.3275410" lon="-3.0738280">
        <ele>209.0</ele>
        <time>2022-01-16T08:55:29Z</time>
      </trkpt>
      <trkpt lat="43.3276220" lon="-3.0738200">
        <ele>208.8</ele>
        <time>2022-01-16T08:55:30Z</time>
      </trkpt>
      <trkpt lat="43.3277030" lon="-3.0738110">
        <ele>208.6</ele>
        <time>2022-01-16T08:55:31Z</time>
      </trkpt>
      <trkpt lat="43.3277830" lon="-3.0738010">
        <ele>208.4</ele>
        <time>2022-01-16T08:55:32Z</time>
      </trkpt>
      <trkpt lat="43.3278650" lon="-3.0737910">
        <ele>208.2</ele>
        <time>2022-01-16T08:55:33Z</time>
      </trkpt>
      <trkpt lat="43.3279480" lon="-3.0737810">
        <ele>208.2</ele>
        <time>2022-01-16T08:55:34Z</time>
      </trkpt>
      <trkpt lat="43.3280330" lon="-3.0737710">
        <ele>208.0</ele>
        <time>2022-01-16T08:55:35Z</time>
      </trkpt>
      <trkpt lat="43.3281180" lon="-3.0737620">
        <ele>207.8</ele>
        <time>2022-01-16T08:55:36Z</time>
      </trkpt>
      <trkpt lat="43.3282040" lon="-3.0737530">
        <ele>207.6</ele>
        <time>2022-01-16T08:55:37Z</time>
      </trkpt>
      <trkpt lat="43.3282900" lon="-3.0737420">
        <ele>207.2</ele>
        <time>2022-01-16T08:55:38Z</time>
      </trkpt>
      <trkpt lat="43.3283770" lon="-3.0737300">
        <ele>207.0</ele>
        <time>2022-01-16T08:55:39Z</time>
      </trkpt>
      <trkpt lat="43.3284630" lon="-3.0737090">
        <ele>206.6</ele>
        <time>2022-01-16T08:55:40Z</time>
      </trkpt>
      <trkpt lat="43.3285460" lon="-3.0736730">
        <ele>206.2</ele>
        <time>2022-01-16T08:55:41Z</time>
      </trkpt>
      <trkpt lat="43.3286260" lon="-3.0736230">
        <ele>205.8</ele>
        <time>2022-01-16T08:55:42Z</time>
      </trkpt>
      <trkpt lat="43.3287020" lon="-3.0735610">
        <ele>205.6</ele>
        <time>2022-01-16T08:55:43Z</time>
      </trkpt>
      <trkpt lat="43.3287770" lon="-3.0734940">
        <ele>205.2</ele>
        <time>2022-01-16T08:55:44Z</time>
      </trkpt>
      <trkpt lat="43.3288530" lon="-3.0734260">
        <ele>205.0</ele>
        <time>2022-01-16T08:55:45Z</time>
      </trkpt>
      <trkpt lat="43.3289290" lon="-3.0733570">
        <ele>204.8</ele>
        <time>2022-01-16T08:55:46Z</time>
      </trkpt>
      <trkpt lat="43.3290050" lon="-3.0732860">
        <ele>204.6</ele>
        <time>2022-01-16T08:55:47Z</time>
      </trkpt>
      <trkpt lat="43.3290810" lon="-3.0732130">
        <ele>204.2</ele>
        <time>2022-01-16T08:55:48Z</time>
      </trkpt>
      <trkpt lat="43.3291570" lon="-3.0731390">
        <ele>203.8</ele>
        <time>2022-01-16T08:55:49Z</time>
      </trkpt>
      <trkpt lat="43.3292320" lon="-3.0730640">
        <ele>203.4</ele>
        <time>2022-01-16T08:55:50Z</time>
      </trkpt>
      <trkpt lat="43.3293070" lon="-3.0729920">
        <ele>203.2</ele>
        <time>2022-01-16T08:55:51Z</time>
      </trkpt>
      <trkpt lat="43.3293830" lon="-3.0729250">
        <ele>203.0</ele>
        <time>2022-01-16T08:55:52Z</time>
      </trkpt>
      <trkpt lat="43.3294590" lon="-3.0728670">
        <ele>202.8</ele>
        <time>2022-01-16T08:55:53Z</time>
      </trkpt>
      <trkpt lat="43.3295380" lon="-3.0728200">
        <ele>202.8</ele>
        <time>2022-01-16T08:55:54Z</time>
      </trkpt>
      <trkpt lat="43.3296210" lon="-3.0727880">
        <ele>202.8</ele>
        <time>2022-01-16T08:55:55Z</time>
      </trkpt>
      <trkpt lat="43.3297060" lon="-3.0727680">
        <ele>202.6</ele>
        <time>2022-01-16T08:55:56Z</time>
      </trkpt>
      <trkpt lat="43.3297920" lon="-3.0727570">
        <ele>202.6</ele>
        <time>2022-01-16T08:55:57Z</time>
      </trkpt>
      <trkpt lat="43.3298790" lon="-3.0727580">
        <ele>202.8</ele>
        <time>2022-01-16T08:55:58Z</time>
      </trkpt>
      <trkpt lat="43.3299670" lon="-3.0727700">
        <ele>202.6</ele>
        <time>2022-01-16T08:55:59Z</time>
      </trkpt>
      <trkpt lat="43.3300530" lon="-3.0727940">
        <ele>202.6</ele>
        <time>2022-01-16T08:56:00Z</time>
      </trkpt>
      <trkpt lat="43.3301380" lon="-3.0728290">
        <ele>202.4</ele>
        <time>2022-01-16T08:56:01Z</time>
      </trkpt>
      <trkpt lat="43.3302210" lon="-3.0728780">
        <ele>202.2</ele>
        <time>2022-01-16T08:56:02Z</time>
      </trkpt>
      <trkpt lat="43.3303010" lon="-3.0729380">
        <ele>202.0</ele>
        <time>2022-01-16T08:56:03Z</time>
      </trkpt>
      <trkpt lat="43.3303770" lon="-3.0730080">
        <ele>201.8</ele>
        <time>2022-01-16T08:56:04Z</time>
      </trkpt>
      <trkpt lat="43.3304510" lon="-3.0730860">
        <ele>201.4</ele>
        <time>2022-01-16T08:56:05Z</time>
      </trkpt>
      <trkpt lat="43.3305210" lon="-3.0731730">
        <ele>201.4</ele>
        <time>2022-01-16T08:56:06Z</time>
      </trkpt>
      <trkpt lat="43.3305850" lon="-3.0732680">
        <ele>201.2</ele>
        <time>2022-01-16T08:56:07Z</time>
      </trkpt>
      <trkpt lat="43.3306450" lon="-3.0733700">
        <ele>200.8</ele>
        <time>2022-01-16T08:56:08Z</time>
      </trkpt>
      <trkpt lat="43.3307010" lon="-3.0734750">
        <ele>200.6</ele>
        <time>2022-01-16T08:56:09Z</time>
      </trkpt>
      <trkpt lat="43.3307560" lon="-3.0735820">
        <ele>200.4</ele>
        <time>2022-01-16T08:56:10Z</time>
      </trkpt>
      <trkpt lat="43.3308120" lon="-3.0736870">
        <ele>200.2</ele>
        <time>2022-01-16T08:56:11Z</time>
      </trkpt>
      <trkpt lat="43.3308680" lon="-3.0737930">
        <ele>200.0</ele>
        <time>2022-01-16T08:56:12Z</time>
      </trkpt>
      <trkpt lat="43.3309230" lon="-3.0739020">
        <ele>199.8</ele>
        <time>2022-01-16T08:56:13Z</time>
      </trkpt>
      <trkpt lat="43.3309800" lon="-3.0740090">
        <ele>199.6</ele>
        <time>2022-01-16T08:56:14Z</time>
      </trkpt>
      <trkpt lat="43.3310340" lon="-3.0741200">
        <ele>199.2</ele>
        <time>2022-01-16T08:56:15Z</time>
      </trkpt>
      <trkpt lat="43.3310890" lon="-3.0742300">
        <ele>199.0</ele>
        <time>2022-01-16T08:56:16Z</time>
      </trkpt>
      <trkpt lat="43.3311450" lon="-3.0743400">
        <ele>198.6</ele>
        <time>2022-01-16T08:56:17Z</time>
      </trkpt>
      <trkpt lat="43.3312010" lon="-3.0744500">
        <ele>198.4</ele>
        <time>2022-01-16T08:56:18Z</time>
      </trkpt>
      <trkpt lat="43.3312580" lon="-3.0745590">
        <ele>198.0</ele>
        <time>2022-01-16T08:56:19Z</time>
      </trkpt>
      <trkpt lat="43.3313140" lon="-3.0746680">
        <ele>198.0</ele>
        <time>2022-01-16T08:56:20Z</time>
      </trkpt>
      <trkpt lat="43.3313710" lon="-3.0747750">
        <ele>197.8</ele>
        <time>2022-01-16T08:56:21Z</time>
      </trkpt>
      <trkpt lat="43.3314280" lon="-3.0748790">
        <ele>197.8</ele>
        <time>2022-01-16T08:56:22Z</time>
      </trkpt>
      <trkpt lat="43.3314850" lon="-3.0749830">
        <ele>197.6</ele>
        <time>2022-01-16T08:56:23Z</time>
      </trkpt>
      <trkpt lat="43.3315460" lon="-3.0750810">
        <ele>197.4</ele>
        <time>2022-01-16T08:56:24Z</time>
      </trkpt>
      <trkpt lat="43.3316080" lon="-3.0751760">
        <ele>197.2</ele>
        <time>2022-01-16T08:56:25Z</time>
      </trkpt>
      <trkpt lat="43.3316720" lon="-3.0752670">
        <ele>197.0</ele>
        <time>2022-01-16T08:56:26Z</time>
      </trkpt>
      <trkpt lat="43.3317360" lon="-3.0753560">
        <ele>196.6</ele>
        <time>2022-01-16T08:56:27Z</time>
      </trkpt>
      <trkpt lat="43.3318000" lon="-3.0754460">
        <ele>196.6</ele>
        <time>2022-01-16T08:56:28Z</time>
      </trkpt>
      <trkpt lat="43.3318650" lon="-3.0755360">
        <ele>196.4</ele>
        <time>2022-01-16T08:56:29Z</time>
      </trkpt>
      <trkpt lat="43.3319290" lon="-3.0756260">
        <ele>196.2</ele>
        <time>2022-01-16T08:56:30Z</time>
      </trkpt>
      <trkpt lat="43.3319930" lon="-3.0757160">
        <ele>195.8</ele>
        <time>2022-01-16T08:56:31Z</time>
      </trkpt>
      <trkpt lat="43.3320560" lon="-3.0758050">
        <ele>195.6</ele>
        <time>2022-01-16T08:56:32Z</time>
      </trkpt>
      <trkpt lat="43.3321200" lon="-3.0758930">
        <ele>195.6</ele>
        <time>2022-01-16T08:56:33Z</time>
      </trkpt>
      <trkpt lat="43.3321840" lon="-3.0759830">
        <ele>195.4</ele>
        <time>2022-01-16T08:56:34Z</time>
      </trkpt>
      <trkpt lat="43.3322480" lon="-3.0760730">
        <ele>195.2</ele>
        <time>2022-01-16T08:56:35Z</time>
      </trkpt>
      <trkpt lat="43.3323110" lon="-3.0761630">
        <ele>195.2</ele>
        <time>2022-01-16T08:56:36Z</time>
      </trkpt>
      <trkpt lat="43.3323750" lon="-3.0762520">
        <ele>195.0</ele>
        <time>2022-01-16T08:56:37Z</time>
      </trkpt>
      <trkpt lat="43.3324380" lon="-3.0763430">
        <ele>195.0</ele>
        <time>2022-01-16T08:56:38Z</time>
      </trkpt>
      <trkpt lat="43.3324970" lon="-3.0764380">
        <ele>194.6</ele>
        <time>2022-01-16T08:56:39Z</time>
      </trkpt>
      <trkpt lat="43.3325540" lon="-3.0765340">
        <ele>194.4</ele>
        <time>2022-01-16T08:56:40Z</time>
      </trkpt>
      <trkpt lat="43.3326110" lon="-3.0766290">
        <ele>194.4</ele>
        <time>2022-01-16T08:56:41Z</time>
      </trkpt>
      <trkpt lat="43.3326720" lon="-3.0767190">
        <ele>194.2</ele>
        <time>2022-01-16T08:56:42Z</time>
      </trkpt>
      <trkpt lat="43.3327390" lon="-3.0767980">
        <ele>194.0</ele>
        <time>2022-01-16T08:56:43Z</time>
      </trkpt>
      <trkpt lat="43.3328090" lon="-3.0768700">
        <ele>194.0</ele>
        <time>2022-01-16T08:56:44Z</time>
      </trkpt>
      <trkpt lat="43.3328790" lon="-3.0769390">
        <ele>193.4</ele>
        <time>2022-01-16T08:56:45Z</time>
      </trkpt>
      <trkpt lat="43.3329490" lon="-3.0770080">
        <ele>193.2</ele>
        <time>2022-01-16T08:56:46Z</time>
      </trkpt>
      <trkpt lat="43.3330200" lon="-3.0770740">
        <ele>193.2</ele>
        <time>2022-01-16T08:56:47Z</time>
      </trkpt>
      <trkpt lat="43.3330920" lon="-3.0771410">
        <ele>193.0</ele>
        <time>2022-01-16T08:56:48Z</time>
      </trkpt>
      <trkpt lat="43.3331650" lon="-3.0772080">
        <ele>193.0</ele>
        <time>2022-01-16T08:56:49Z</time>
      </trkpt>
      <trkpt lat="43.3332380" lon="-3.0772740">
        <ele>193.0</ele>
        <time>2022-01-16T08:56:50Z</time>
      </trkpt>
      <trkpt lat="43.3333120" lon="-3.0773390">
        <ele>192.8</ele>
        <time>2022-01-16T08:56:51Z</time>
      </trkpt>
      <trkpt lat="43.3333870" lon="-3.0774030">
        <ele>192.8</ele>
        <time>2022-01-16T08:56:52Z</time>
      </trkpt>
      <trkpt lat="43.3334590" lon="-3.0774720">
        <ele>192.8</ele>
        <time>2022-01-16T08:56:53Z</time>
      </trkpt>
      <trkpt lat="43.3335300" lon="-3.0775440">
        <ele>192.6</ele>
        <time>2022-01-16T08:56:54Z</time>
      </trkpt>
      <trkpt lat="43.3335920" lon="-3.0776290">
        <ele>192.4</ele>
        <time>2022-01-16T08:56:55Z</time>
      </trkpt>
      <trkpt lat="43.3336380" lon="-3.0777310">
        <ele>192.6</ele>
        <time>2022-01-16T08:56:56Z</time>
      </trkpt>
      <trkpt lat="43.3336660" lon="-3.0778430">
        <ele>192.4</ele>
        <time>2022-01-16T08:56:57Z</time>
      </trkpt>
      <trkpt lat="43.3336700" lon="-3.0779620">
        <ele>192.2</ele>
        <time>2022-01-16T08:56:58Z</time>
      </trkpt>
      <trkpt lat="43.3336520" lon="-3.0780820">
        <ele>192.2</ele>
        <time>2022-01-16T08:56:59Z</time>
      </trkpt>
      <trkpt lat="43.3336200" lon="-3.0782000">
        <ele>192.0</ele>
        <time>2022-01-16T08:57:00Z</time>
      </trkpt>
      <trkpt lat="43.3335850" lon="-3.0783170">
        <ele>191.6</ele>
        <time>2022-01-16T08:57:01Z</time>
      </trkpt>
      <trkpt lat="43.3335560" lon="-3.0784430">
        <ele>190.8</ele>
        <time>2022-01-16T08:57:02Z</time>
      </trkpt>
      <trkpt lat="43.3335380" lon="-3.0785740">
        <ele>190.2</ele>
        <time>2022-01-16T08:57:03Z</time>
      </trkpt>
      <trkpt lat="43.3335340" lon="-3.0787060">
        <ele>189.6</ele>
        <time>2022-01-16T08:57:04Z</time>
      </trkpt>
      <trkpt lat="43.3335440" lon="-3.0788360">
        <ele>189.2</ele>
        <time>2022-01-16T08:57:05Z</time>
      </trkpt>
      <trkpt lat="43.3335750" lon="-3.0789530">
        <ele>189.0</ele>
        <time>2022-01-16T08:57:06Z</time>
      </trkpt>
      <trkpt lat="43.3336280" lon="-3.0790500">
        <ele>189.0</ele>
        <time>2022-01-16T08:57:07Z</time>
      </trkpt>
      <trkpt lat="43.3336940" lon="-3.0791320">
        <ele>189.0</ele>
        <time>2022-01-16T08:57:08Z</time>
      </trkpt>
      <trkpt lat="43.3337670" lon="-3.0792020">
        <ele>189.2</ele>
        <time>2022-01-16T08:57:09Z</time>
      </trkpt>
      <trkpt lat="43.3338400" lon="-3.0792720">
        <ele>189.2</ele>
        <time>2022-01-16T08:57:10Z</time>
      </trkpt>
      <trkpt lat="43.3339100" lon="-3.0793440">
        <ele>189.4</ele>
        <time>2022-01-16T08:57:11Z</time>
      </trkpt>
      <trkpt lat="43.3339800" lon="-3.0794140">
        <ele>190.0</ele>
        <time>2022-01-16T08:57:12Z</time>
      </trkpt>
      <trkpt lat="43.3340500" lon="-3.0794790">
        <ele>190.2</ele>
        <time>2022-01-16T08:57:13Z</time>
      </trkpt>
      <trkpt lat="43.3341190" lon="-3.0795430">
        <ele>190.4</ele>
        <time>2022-01-16T08:57:14Z</time>
      </trkpt>
      <trkpt lat="43.3341870" lon="-3.0796040">
        <ele>190.4</ele>
        <time>2022-01-16T08:57:15Z</time>
      </trkpt>
      <trkpt lat="43.3342550" lon="-3.0796640">
        <ele>190.6</ele>
        <time>2022-01-16T08:57:16Z</time>
      </trkpt>
      <trkpt lat="43.3343230" lon="-3.0797240">
        <ele>190.6</ele>
        <time>2022-01-16T08:57:17Z</time>
      </trkpt>
      <trkpt lat="43.3343920" lon="-3.0797830">
        <ele>190.8</ele>
        <time>2022-01-16T08:57:18Z</time>
      </trkpt>
      <trkpt lat="43.3344620" lon="-3.0798390">
        <ele>190.8</ele>
        <time>2022-01-16T08:57:19Z</time>
      </trkpt>
      <trkpt lat="43.3345320" lon="-3.0798930">
        <ele>191.2</ele>
        <time>2022-01-16T08:57:20Z</time>
      </trkpt>
      <trkpt lat="43.3346050" lon="-3.0799430">
        <ele>191.2</ele>
        <time>2022-01-16T08:57:21Z</time>
      </trkpt>
      <trkpt lat="43.3346800" lon="-3.0799880">
        <ele>191.2</ele>
        <time>2022-01-16T08:57:22Z</time>
      </trkpt>
      <trkpt lat="43.3347560" lon="-3.0800290">
        <ele>190.8</ele>
        <time>2022-01-16T08:57:23Z</time>
      </trkpt>
      <trkpt lat="43.3348350" lon="-3.0800660">
        <ele>191.0</ele>
        <time>2022-01-16T08:57:24Z</time>
      </trkpt>
      <trkpt lat="43.3349130" lon="-3.0801010">
        <ele>191.0</ele>
        <time>2022-01-16T08:57:25Z</time>
      </trkpt>
      <trkpt lat="43.3349930" lon="-3.0801330">
        <ele>191.0</ele>
        <time>2022-01-16T08:57:26Z</time>
      </trkpt>
      <trkpt lat="43.3350710" lon="-3.0801630">
        <ele>191.0</ele>
        <time>2022-01-16T08:57:27Z</time>
      </trkpt>
      <trkpt lat="43.3351490" lon="-3.0801920">
        <ele>191.0</ele>
        <time>2022-01-16T08:57:28Z</time>
      </trkpt>
      <trkpt lat="43.3352270" lon="-3.0802230">
        <ele>191.0</ele>
        <time>2022-01-16T08:57:29Z</time>
      </trkpt>
      <trkpt lat="43.3353030" lon="-3.0802530">
        <ele>190.8</ele>
        <time>2022-01-16T08:57:30Z</time>
      </trkpt>
      <trkpt lat="43.3353820" lon="-3.0802850">
        <ele>190.8</ele>
        <time>2022-01-16T08:57:31Z</time>
      </trkpt>
      <trkpt lat="43.3354590" lon="-3.0803180">
        <ele>190.8</ele>
        <time>2022-01-16T08:57:32Z</time>
      </trkpt>
      <trkpt lat="43.3355380" lon="-3.0803530">
        <ele>190.6</ele>
        <time>2022-01-16T08:57:33Z</time>
      </trkpt>
      <trkpt lat="43.3356160" lon="-3.0803910">
        <ele>190.6</ele>
        <time>2022-01-16T08:57:34Z</time>
      </trkpt>
      <trkpt lat="43.3356930" lon="-3.0804320">
        <ele>190.6</ele>
        <time>2022-01-16T08:57:35Z</time>
      </trkpt>
      <trkpt lat="43.3357700" lon="-3.0804740">
        <ele>190.6</ele>
        <time>2022-01-16T08:57:36Z</time>
      </trkpt>
      <trkpt lat="43.3358460" lon="-3.0805190">
        <ele>190.4</ele>
        <time>2022-01-16T08:57:37Z</time>
      </trkpt>
      <trkpt lat="43.3359200" lon="-3.0805680">
        <ele>190.4</ele>
        <time>2022-01-16T08:57:38Z</time>
      </trkpt>
      <trkpt lat="43.3359940" lon="-3.0806200">
        <ele>190.6</ele>
        <time>2022-01-16T08:57:39Z</time>
      </trkpt>
      <trkpt lat="43.3360660" lon="-3.0806750">
        <ele>190.4</ele>
        <time>2022-01-16T08:57:40Z</time>
      </trkpt>
      <trkpt lat="43.3361380" lon="-3.0807330">
        <ele>190.4</ele>
        <time>2022-01-16T08:57:41Z</time>
      </trkpt>
      <trkpt lat="43.3362090" lon="-3.0807950">
        <ele>190.4</ele>
        <time>2022-01-16T08:57:42Z</time>
      </trkpt>
      <trkpt lat="43.3362780" lon="-3.0808580">
        <ele>190.2</ele>
        <time>2022-01-16T08:57:43Z</time>
      </trkpt>
      <trkpt lat="43.3363440" lon="-3.0809250">
        <ele>190.2</ele>
        <time>2022-01-16T08:57:44Z</time>
      </trkpt>
      <trkpt lat="43.3364110" lon="-3.0809930">
        <ele>190.2</ele>
        <time>2022-01-16T08:57:45Z</time>
      </trkpt>
      <trkpt lat="43.3364760" lon="-3.0810610">
        <ele>190.0</ele>
        <time>2022-01-16T08:57:46Z</time>
      </trkpt>
      <trkpt lat="43.3365410" lon="-3.0811300">
        <ele>189.8</ele>
        <time>2022-01-16T08:57:47Z</time>
      </trkpt>
      <trkpt lat="43.3366050" lon="-3.0812000">
        <ele>189.6</ele>
        <time>2022-01-16T08:57:48Z</time>
      </trkpt>
      <trkpt lat="43.3366700" lon="-3.0812680">
        <ele>189.4</ele>
        <time>2022-01-16T08:57:49Z</time>
      </trkpt>
      <trkpt lat="43.3367340" lon="-3.0813400">
        <ele>189.4</ele>
        <time>2022-01-16T08:57:50Z</time>
      </trkpt>
      <trkpt lat="43.3367980" lon="-3.0814120">
        <ele>189.4</ele>
        <time>2022-01-16T08:57:51Z</time>
      </trkpt>
      <trkpt lat="43.3368640" lon="-3.0814850">
        <ele>189.2</ele>
        <time>2022-01-16T08:57:52Z</time>
      </trkpt>
      <trkpt lat="43.3369300" lon="-3.0815580">
        <ele>189.2</ele>
        <time>2022-01-16T08:57:53Z</time>
      </trkpt>
      <trkpt lat="43.3369960" lon="-3.0816310">
        <ele>189.0</ele>
        <time>2022-01-16T08:57:54Z</time>
      </trkpt>
      <trkpt lat="43.3370620" lon="-3.0817040">
        <ele>189.0</ele>
        <time>2022-01-16T08:57:55Z</time>
      </trkpt>
      <trkpt lat="43.3371280" lon="-3.0817780">
        <ele>188.8</ele>
        <time>2022-01-16T08:57:56Z</time>
      </trkpt>
      <trkpt lat="43.3371950" lon="-3.0818520">
        <ele>188.8</ele>
        <time>2022-01-16T08:57:57Z</time>
      </trkpt>
      <trkpt lat="43.3372610" lon="-3.0819280">
        <ele>188.6</ele>
        <time>2022-01-16T08:57:58Z</time>
      </trkpt>
      <trkpt lat="43.3373280" lon="-3.0820020">
        <ele>188.4</ele>
        <time>2022-01-16T08:57:59Z</time>
      </trkpt>
      <trkpt lat="43.3373950" lon="-3.0820750">
        <ele>188.2</ele>
        <time>2022-01-16T08:58:00Z</time>
      </trkpt>
      <trkpt lat="43.3374620" lon="-3.0821480">
        <ele>188.0</ele>
        <time>2022-01-16T08:58:01Z</time>
      </trkpt>
      <trkpt lat="43.3375280" lon="-3.0822210">
        <ele>188.0</ele>
        <time>2022-01-16T08:58:02Z</time>
      </trkpt>
      <trkpt lat="43.3375940" lon="-3.0822970">
        <ele>188.0</ele>
        <time>2022-01-16T08:58:03Z</time>
      </trkpt>
      <trkpt lat="43.3376610" lon="-3.0823700">
        <ele>187.8</ele>
        <time>2022-01-16T08:58:04Z</time>
      </trkpt>
      <trkpt lat="43.3377260" lon="-3.0824460">
        <ele>187.6</ele>
        <time>2022-01-16T08:58:05Z</time>
      </trkpt>
      <trkpt lat="43.3377920" lon="-3.0825210">
        <ele>187.4</ele>
        <time>2022-01-16T08:58:06Z</time>
      </trkpt>
      <trkpt lat="43.3378580" lon="-3.0825960">
        <ele>187.4</ele>
        <time>2022-01-16T08:58:07Z</time>
      </trkpt>
      <trkpt lat="43.3379250" lon="-3.0826710">
        <ele>187.4</ele>
        <time>2022-01-16T08:58:08Z</time>
      </trkpt>
      <trkpt lat="43.3379910" lon="-3.0827480">
        <ele>187.2</ele>
        <time>2022-01-16T08:58:09Z</time>
      </trkpt>
      <trkpt lat="43.3381270" lon="-3.0829070">
        <ele>187.2</ele>
        <time>2022-01-16T08:58:11Z</time>
      </trkpt>
      <trkpt lat="43.3381940" lon="-3.0829900">
        <ele>187.0</ele>
        <time>2022-01-16T08:58:12Z</time>
      </trkpt>
      <trkpt lat="43.3382600" lon="-3.0830730">
        <ele>186.8</ele>
        <time>2022-01-16T08:58:13Z</time>
      </trkpt>
      <trkpt lat="43.3383260" lon="-3.0831590">
        <ele>186.8</ele>
        <time>2022-01-16T08:58:14Z</time>
      </trkpt>
      <trkpt lat="43.3383910" lon="-3.0832430">
        <ele>186.6</ele>
        <time>2022-01-16T08:58:15Z</time>
      </trkpt>
      <trkpt lat="43.3384560" lon="-3.0833270">
        <ele>186.6</ele>
        <time>2022-01-16T08:58:16Z</time>
      </trkpt>
      <trkpt lat="43.3385190" lon="-3.0834140">
        <ele>186.6</ele>
        <time>2022-01-16T08:58:17Z</time>
      </trkpt>
      <trkpt lat="43.3385820" lon="-3.0834980">
        <ele>186.4</ele>
        <time>2022-01-16T08:58:18Z</time>
      </trkpt>
      <trkpt lat="43.3386450" lon="-3.0835820">
        <ele>186.2</ele>
        <time>2022-01-16T08:58:19Z</time>
      </trkpt>
      <trkpt lat="43.3387070" lon="-3.0836650">
        <ele>186.2</ele>
        <time>2022-01-16T08:58:20Z</time>
      </trkpt>
      <trkpt lat="43.3387690" lon="-3.0837490">
        <ele>186.0</ele>
        <time>2022-01-16T08:58:21Z</time>
      </trkpt>
      <trkpt lat="43.3388310" lon="-3.0838320">
        <ele>186.0</ele>
        <time>2022-01-16T08:58:22Z</time>
      </trkpt>
      <trkpt lat="43.3388920" lon="-3.0839160">
        <ele>186.0</ele>
        <time>2022-01-16T08:58:23Z</time>
      </trkpt>
      <trkpt lat="43.3389530" lon="-3.0839990">
        <ele>185.8</ele>
        <time>2022-01-16T08:58:24Z</time>
      </trkpt>
      <trkpt lat="43.3390130" lon="-3.0840850">
        <ele>185.6</ele>
        <time>2022-01-16T08:58:25Z</time>
      </trkpt>
      <trkpt lat="43.3390720" lon="-3.0841710">
        <ele>185.4</ele>
        <time>2022-01-16T08:58:26Z</time>
      </trkpt>
      <trkpt lat="43.3391310" lon="-3.0842560">
        <ele>185.4</ele>
        <time>2022-01-16T08:58:27Z</time>
      </trkpt>
      <trkpt lat="43.3391910" lon="-3.0843390">
        <ele>185.2</ele>
        <time>2022-01-16T08:58:28Z</time>
      </trkpt>
      <trkpt lat="43.3392520" lon="-3.0844230">
        <ele>185.0</ele>
        <time>2022-01-16T08:58:29Z</time>
      </trkpt>
      <trkpt lat="43.3393130" lon="-3.0845070">
        <ele>184.8</ele>
        <time>2022-01-16T08:58:30Z</time>
      </trkpt>
      <trkpt lat="43.3393720" lon="-3.0845960">
        <ele>184.6</ele>
        <time>2022-01-16T08:58:31Z</time>
      </trkpt>
      <trkpt lat="43.3394340" lon="-3.0846790">
        <ele>184.4</ele>
        <time>2022-01-16T08:58:32Z</time>
      </trkpt>
      <trkpt lat="43.3394950" lon="-3.0847650">
        <ele>184.2</ele>
        <time>2022-01-16T08:58:33Z</time>
      </trkpt>
      <trkpt lat="43.3395580" lon="-3.0848490">
        <ele>184.2</ele>
        <time>2022-01-16T08:58:34Z</time>
      </trkpt>
      <trkpt lat="43.3396210" lon="-3.0849310">
        <ele>184.2</ele>
        <time>2022-01-16T08:58:35Z</time>
      </trkpt>
      <trkpt lat="43.3396850" lon="-3.0850110">
        <ele>184.0</ele>
        <time>2022-01-16T08:58:36Z</time>
      </trkpt>
      <trkpt lat="43.3397480" lon="-3.0850900">
        <ele>184.0</ele>
        <time>2022-01-16T08:58:37Z</time>
      </trkpt>
      <trkpt lat="43.3398130" lon="-3.0851680">
        <ele>183.8</ele>
        <time>2022-01-16T08:58:38Z</time>
      </trkpt>
      <trkpt lat="43.3398780" lon="-3.0852450">
        <ele>183.8</ele>
        <time>2022-01-16T08:58:39Z</time>
      </trkpt>
      <trkpt lat="43.3399430" lon="-3.0853210">
        <ele>183.8</ele>
        <time>2022-01-16T08:58:40Z</time>
      </trkpt>
      <trkpt lat="43.3400100" lon="-3.0853940">
        <ele>183.8</ele>
        <time>2022-01-16T08:58:41Z</time>
      </trkpt>
      <trkpt lat="43.3400790" lon="-3.0854640">
        <ele>183.8</ele>
        <time>2022-01-16T08:58:42Z</time>
      </trkpt>
      <trkpt lat="43.3401490" lon="-3.0855320">
        <ele>183.8</ele>
        <time>2022-01-16T08:58:43Z</time>
      </trkpt>
      <trkpt lat="43.3402180" lon="-3.0856020">
        <ele>183.6</ele>
        <time>2022-01-16T08:58:44Z</time>
      </trkpt>
      <trkpt lat="43.3402890" lon="-3.0856700">
        <ele>183.6</ele>
        <time>2022-01-16T08:58:45Z</time>
      </trkpt>
      <trkpt lat="43.3403600" lon="-3.0857370">
        <ele>183.4</ele>
        <time>2022-01-16T08:58:46Z</time>
      </trkpt>
      <trkpt lat="43.3404330" lon="-3.0857990">
        <ele>183.4</ele>
        <time>2022-01-16T08:58:47Z</time>
      </trkpt>
      <trkpt lat="43.3405070" lon="-3.0858610">
        <ele>183.2</ele>
        <time>2022-01-16T08:58:48Z</time>
      </trkpt>
      <trkpt lat="43.3405830" lon="-3.0859220">
        <ele>183.0</ele>
        <time>2022-01-16T08:58:49Z</time>
      </trkpt>
      <trkpt lat="43.3406590" lon="-3.0859810">
        <ele>182.8</ele>
        <time>2022-01-16T08:58:50Z</time>
      </trkpt>
      <trkpt lat="43.3407370" lon="-3.0860380">
        <ele>182.8</ele>
        <time>2022-01-16T08:58:51Z</time>
      </trkpt>
      <trkpt lat="43.3408160" lon="-3.0860960">
        <ele>182.8</ele>
        <time>2022-01-16T08:58:52Z</time>
      </trkpt>
      <trkpt lat="43.3408930" lon="-3.0861570">
        <ele>182.6</ele>
        <time>2022-01-16T08:58:53Z</time>
      </trkpt>
      <trkpt lat="43.3409690" lon="-3.0862200">
        <ele>182.6</ele>
        <time>2022-01-16T08:58:54Z</time>
      </trkpt>
      <trkpt lat="43.3410440" lon="-3.0862860">
        <ele>182.4</ele>
        <time>2022-01-16T08:58:55Z</time>
      </trkpt>
      <trkpt lat="43.3411190" lon="-3.0863520">
        <ele>182.2</ele>
        <time>2022-01-16T08:58:56Z</time>
      </trkpt>
      <trkpt lat="43.3411930" lon="-3.0864170">
        <ele>182.2</ele>
        <time>2022-01-16T08:58:57Z</time>
      </trkpt>
      <trkpt lat="43.3412680" lon="-3.0864820">
        <ele>182.2</ele>
        <time>2022-01-16T08:58:58Z</time>
      </trkpt>
      <trkpt lat="43.3413430" lon="-3.0865450">
        <ele>182.2</ele>
        <time>2022-01-16T08:58:59Z</time>
      </trkpt>
      <trkpt lat="43.3414180" lon="-3.0866100">
        <ele>182.0</ele>
        <time>2022-01-16T08:59:00Z</time>
      </trkpt>
      <trkpt lat="43.3414940" lon="-3.0866760">
        <ele>181.8</ele>
        <time>2022-01-16T08:59:01Z</time>
      </trkpt>
      <trkpt lat="43.3415710" lon="-3.0867390">
        <ele>181.6</ele>
        <time>2022-01-16T08:59:02Z</time>
      </trkpt>
      <trkpt lat="43.3416490" lon="-3.0868010">
        <ele>181.6</ele>
        <time>2022-01-16T08:59:03Z</time>
      </trkpt>
      <trkpt lat="43.3417280" lon="-3.0868620">
        <ele>181.4</ele>
        <time>2022-01-16T08:59:04Z</time>
      </trkpt>
      <trkpt lat="43.3418060" lon="-3.0869220">
        <ele>181.2</ele>
        <time>2022-01-16T08:59:05Z</time>
      </trkpt>
      <trkpt lat="43.3418850" lon="-3.0869800">
        <ele>181.2</ele>
        <time>2022-01-16T08:59:06Z</time>
      </trkpt>
      <trkpt lat="43.3419650" lon="-3.0870350">
        <ele>181.0</ele>
        <time>2022-01-16T08:59:07Z</time>
      </trkpt>
      <trkpt lat="43.3420470" lon="-3.0870860">
        <ele>180.8</ele>
        <time>2022-01-16T08:59:08Z</time>
      </trkpt>
      <trkpt lat="43.3421290" lon="-3.0871350">
        <ele>180.8</ele>
        <time>2022-01-16T08:59:09Z</time>
      </trkpt>
      <trkpt lat="43.3422110" lon="-3.0871800">
        <ele>180.6</ele>
        <time>2022-01-16T08:59:10Z</time>
      </trkpt>
      <trkpt lat="43.3422940" lon="-3.0872210">
        <ele>180.6</ele>
        <time>2022-01-16T08:59:11Z</time>
      </trkpt>
      <trkpt lat="43.3423790" lon="-3.0872560">
        <ele>180.4</ele>
        <time>2022-01-16T08:59:12Z</time>
      </trkpt>
      <trkpt lat="43.3424630" lon="-3.0872910">
        <ele>180.4</ele>
        <time>2022-01-16T08:59:13Z</time>
      </trkpt>
      <trkpt lat="43.3425460" lon="-3.0873260">
        <ele>180.4</ele>
        <time>2022-01-16T08:59:14Z</time>
      </trkpt>
      <trkpt lat="43.3426300" lon="-3.0873600">
        <ele>180.2</ele>
        <time>2022-01-16T08:59:15Z</time>
      </trkpt>
      <trkpt lat="43.3427130" lon="-3.0873960">
        <ele>180.2</ele>
        <time>2022-01-16T08:59:16Z</time>
      </trkpt>
      <trkpt lat="43.3427960" lon="-3.0874360">
        <ele>180.0</ele>
        <time>2022-01-16T08:59:17Z</time>
      </trkpt>
      <trkpt lat="43.3428790" lon="-3.0874810">
        <ele>180.0</ele>
        <time>2022-01-16T08:59:18Z</time>
      </trkpt>
      <trkpt lat="43.3429590" lon="-3.0875320">
        <ele>180.0</ele>
        <time>2022-01-16T08:59:19Z</time>
      </trkpt>
      <trkpt lat="43.3430380" lon="-3.0875860">
        <ele>179.8</ele>
        <time>2022-01-16T08:59:20Z</time>
      </trkpt>
      <trkpt lat="43.3431170" lon="-3.0876390">
        <ele>179.8</ele>
        <time>2022-01-16T08:59:21Z</time>
      </trkpt>
      <trkpt lat="43.3431960" lon="-3.0876870">
        <ele>179.6</ele>
        <time>2022-01-16T08:59:22Z</time>
      </trkpt>
      <trkpt lat="43.3432760" lon="-3.0877330">
        <ele>179.4</ele>
        <time>2022-01-16T08:59:23Z</time>
      </trkpt>
      <trkpt lat="43.3433580" lon="-3.0877760">
        <ele>179.2</ele>
        <time>2022-01-16T08:59:24Z</time>
      </trkpt>
      <trkpt lat="43.3434420" lon="-3.0878120">
        <ele>179.0</ele>
        <time>2022-01-16T08:59:25Z</time>
      </trkpt>
      <trkpt lat="43.3435270" lon="-3.0878430">
        <ele>179.0</ele>
        <time>2022-01-16T08:59:26Z</time>
      </trkpt>
      <trkpt lat="43.3436120" lon="-3.0878730">
        <ele>178.8</ele>
        <time>2022-01-16T08:59:27Z</time>
      </trkpt>
      <trkpt lat="43.3436970" lon="-3.0879010">
        <ele>178.8</ele>
        <time>2022-01-16T08:59:28Z</time>
      </trkpt>
      <trkpt lat="43.3437820" lon="-3.0879260">
        <ele>178.8</ele>
        <time>2022-01-16T08:59:29Z</time>
      </trkpt>
      <trkpt lat="43.3438680" lon="-3.0879490">
        <ele>178.8</ele>
        <time>2022-01-16T08:59:30Z</time>
      </trkpt>
      <trkpt lat="43.3439530" lon="-3.0879740">
        <ele>178.6</ele>
        <time>2022-01-16T08:59:31Z</time>
      </trkpt>
      <trkpt lat="43.3440380" lon="-3.0880030">
        <ele>178.6</ele>
        <time>2022-01-16T08:59:32Z</time>
      </trkpt>
      <trkpt lat="43.3441230" lon="-3.0880350">
        <ele>178.6</ele>
        <time>2022-01-16T08:59:33Z</time>
      </trkpt>
      <trkpt lat="43.3442070" lon="-3.0880710">
        <ele>178.4</ele>
        <time>2022-01-16T08:59:34Z</time>
      </trkpt>
      <trkpt lat="43.3442910" lon="-3.0881110">
        <ele>178.4</ele>
        <time>2022-01-16T08:59:35Z</time>
      </trkpt>
      <trkpt lat="43.3443730" lon="-3.0881530">
        <ele>178.4</ele>
        <time>2022-01-16T08:59:36Z</time>
      </trkpt>
      <trkpt lat="43.3444520" lon="-3.0881990">
        <ele>178.2</ele>
        <time>2022-01-16T08:59:37Z</time>
      </trkpt>
      <trkpt lat="43.3445290" lon="-3.0882470">
        <ele>178.2</ele>
        <time>2022-01-16T08:59:38Z</time>
      </trkpt>
      <trkpt lat="43.3446060" lon="-3.0883000">
        <ele>178.0</ele>
        <time>2022-01-16T08:59:39Z</time>
      </trkpt>
      <trkpt lat="43.3446830" lon="-3.0883570">
        <ele>178.0</ele>
        <time>2022-01-16T08:59:40Z</time>
      </trkpt>
      <trkpt lat="43.3447600" lon="-3.0884160">
        <ele>178.0</ele>
        <time>2022-01-16T08:59:41Z</time>
      </trkpt>
      <trkpt lat="43.3448370" lon="-3.0884760">
        <ele>177.8</ele>
        <time>2022-01-16T08:59:42Z</time>
      </trkpt>
      <trkpt lat="43.3449150" lon="-3.0885350">
        <ele>177.8</ele>
        <time>2022-01-16T08:59:43Z</time>
      </trkpt>
      <trkpt lat="43.3449910" lon="-3.0885950">
        <ele>177.6</ele>
        <time>2022-01-16T08:59:44Z</time>
      </trkpt>
      <trkpt lat="43.3450670" lon="-3.0886570">
        <ele>177.6</ele>
        <time>2022-01-16T08:59:45Z</time>
      </trkpt>
      <trkpt lat="43.3451400" lon="-3.0887210">
        <ele>177.6</ele>
        <time>2022-01-16T08:59:46Z</time>
      </trkpt>
      <trkpt lat="43.3452130" lon="-3.0887820">
        <ele>177.6</ele>
        <time>2022-01-16T08:59:47Z</time>
      </trkpt>
      <trkpt lat="43.3452830" lon="-3.0888410">
        <ele>177.6</ele>
        <time>2022-01-16T08:59:48Z</time>
      </trkpt>
      <trkpt lat="43.3453540" lon="-3.0889010">
        <ele>177.6</ele>
        <time>2022-01-16T08:59:49Z</time>
      </trkpt>
      <trkpt lat="43.3454230" lon="-3.0889640">
        <ele>177.6</ele>
        <time>2022-01-16T08:59:50Z</time>
      </trkpt>
      <trkpt lat="43.3454920" lon="-3.0890310">
        <ele>177.6</ele>
        <time>2022-01-16T08:59:51Z</time>
      </trkpt>
      <trkpt lat="43.3455610" lon="-3.0890980">
        <ele>177.6</ele>
        <time>2022-01-16T08:59:52Z</time>
      </trkpt>
      <trkpt lat="43.3456310" lon="-3.0891650">
        <ele>177.6</ele>
        <time>2022-01-16T08:59:53Z</time>
      </trkpt>
      <trkpt lat="43.3457000" lon="-3.0892340">
        <ele>177.6</ele>
        <time>2022-01-16T08:59:54Z</time>
      </trkpt>
      <trkpt lat="43.3457700" lon="-3.0893010">
        <ele>177.4</ele>
        <time>2022-01-16T08:59:55Z</time>
      </trkpt>
      <trkpt lat="43.3458400" lon="-3.0893680">
        <ele>177.0</ele>
        <time>2022-01-16T08:59:56Z</time>
      </trkpt>
      <trkpt lat="43.3459060" lon="-3.0894390">
        <ele>176.6</ele>
        <time>2022-01-16T08:59:57Z</time>
      </trkpt>
      <trkpt lat="43.3459710" lon="-3.0895130">
        <ele>176.2</ele>
        <time>2022-01-16T08:59:58Z</time>
      </trkpt>
      <trkpt lat="43.3460360" lon="-3.0895880">
        <ele>176.0</ele>
        <time>2022-01-16T08:59:59Z</time>
      </trkpt>
      <trkpt lat="43.3461020" lon="-3.0896650">
        <ele>175.8</ele>
        <time>2022-01-16T09:00:00Z</time>
      </trkpt>
      <trkpt lat="43.3461680" lon="-3.0897440">
        <ele>175.8</ele>
        <time>2022-01-16T09:00:01Z</time>
      </trkpt>
      <trkpt lat="43.3462370" lon="-3.0898180">
        <ele>175.6</ele>
        <time>2022-01-16T09:00:02Z</time>
      </trkpt>
      <trkpt lat="43.3463030" lon="-3.0899020">
        <ele>175.4</ele>
        <time>2022-01-16T09:00:03Z</time>
      </trkpt>
      <trkpt lat="43.3463710" lon="-3.0899800">
        <ele>175.2</ele>
        <time>2022-01-16T09:00:04Z</time>
      </trkpt>
      <trkpt lat="43.3464380" lon="-3.0900630">
        <ele>175.2</ele>
        <time>2022-01-16T09:00:05Z</time>
      </trkpt>
      <trkpt lat="43.3465070" lon="-3.0901440">
        <ele>175.0</ele>
        <time>2022-01-16T09:00:06Z</time>
      </trkpt>
      <trkpt lat="43.3465770" lon="-3.0902230">
        <ele>174.8</ele>
        <time>2022-01-16T09:00:07Z</time>
      </trkpt>
      <trkpt lat="43.3466460" lon="-3.0903070">
        <ele>174.4</ele>
        <time>2022-01-16T09:00:08Z</time>
      </trkpt>
      <trkpt lat="43.3467150" lon="-3.0903910">
        <ele>174.2</ele>
        <time>2022-01-16T09:00:09Z</time>
      </trkpt>
      <trkpt lat="43.3467850" lon="-3.0904730">
        <ele>174.0</ele>
        <time>2022-01-16T09:00:10Z</time>
      </trkpt>
      <trkpt lat="43.3468550" lon="-3.0905580">
        <ele>173.6</ele>
        <time>2022-01-16T09:00:11Z</time>
      </trkpt>
      <trkpt lat="43.3469280" lon="-3.0906420">
        <ele>173.2</ele>
        <time>2022-01-16T09:00:12Z</time>
      </trkpt>
      <trkpt lat="43.3470010" lon="-3.0907280">
        <ele>172.8</ele>
        <time>2022-01-16T09:00:13Z</time>
      </trkpt>
      <trkpt lat="43.3470740" lon="-3.0908160">
        <ele>172.4</ele>
        <time>2022-01-16T09:00:14Z</time>
      </trkpt>
      <trkpt lat="43.3471470" lon="-3.0909020">
        <ele>172.0</ele>
        <time>2022-01-16T09:00:15Z</time>
      </trkpt>
      <trkpt lat="43.3472210" lon="-3.0909880">
        <ele>171.8</ele>
        <time>2022-01-16T09:00:16Z</time>
      </trkpt>
      <trkpt lat="43.3472960" lon="-3.0910730">
        <ele>171.4</ele>
        <time>2022-01-16T09:00:17Z</time>
      </trkpt>
      <trkpt lat="43.3473700" lon="-3.0911590">
        <ele>171.2</ele>
        <time>2022-01-16T09:00:18Z</time>
      </trkpt>
      <trkpt lat="43.3474420" lon="-3.0912470">
        <ele>171.0</ele>
        <time>2022-01-16T09:00:19Z</time>
      </trkpt>
      <trkpt lat="43.3475120" lon="-3.0913320">
        <ele>171.0</ele>
        <time>2022-01-16T09:00:20Z</time>
      </trkpt>
      <trkpt lat="43.3475820" lon="-3.0914150">
        <ele>171.0</ele>
        <time>2022-01-16T09:00:21Z</time>
      </trkpt>
      <trkpt lat="43.3476500" lon="-3.0914930">
        <ele>171.0</ele>
        <time>2022-01-16T09:00:22Z</time>
      </trkpt>
      <trkpt lat="43.3477150" lon="-3.0915690">
        <ele>171.2</ele>
        <time>2022-01-16T09:00:23Z</time>
      </trkpt>
      <trkpt lat="43.3477780" lon="-3.0916400">
        <ele>171.4</ele>
        <time>2022-01-16T09:00:24Z</time>
      </trkpt>
      <trkpt lat="43.3478390" lon="-3.0917080">
        <ele>171.8</ele>
        <time>2022-01-16T09:00:25Z</time>
      </trkpt>
      <trkpt lat="43.3478980" lon="-3.0917770">
        <ele>172.0</ele>
        <time>2022-01-16T09:00:26Z</time>
      </trkpt>
      <trkpt lat="43.3479560" lon="-3.0918470">
        <ele>172.2</ele>
        <time>2022-01-16T09:00:27Z</time>
      </trkpt>
      <trkpt lat="43.3480140" lon="-3.0919150">
        <ele>172.4</ele>
        <time>2022-01-16T09:00:28Z</time>
      </trkpt>
      <trkpt lat="43.3480690" lon="-3.0919790">
        <ele>172.8</ele>
        <time>2022-01-16T09:00:29Z</time>
      </trkpt>
      <trkpt lat="43.3481240" lon="-3.0920410">
        <ele>173.2</ele>
        <time>2022-01-16T09:00:30Z</time>
      </trkpt>
      <trkpt lat="43.3481780" lon="-3.0921030">
        <ele>173.6</ele>
        <time>2022-01-16T09:00:31Z</time>
      </trkpt>
      <trkpt lat="43.3482300" lon="-3.0921620">
        <ele>174.0</ele>
        <time>2022-01-16T09:00:32Z</time>
      </trkpt>
      <trkpt lat="43.3482790" lon="-3.0922210">
        <ele>174.4</ele>
        <time>2022-01-16T09:00:33Z</time>
      </trkpt>
      <trkpt lat="43.3483280" lon="-3.0922770">
        <ele>175.0</ele>
        <time>2022-01-16T09:00:34Z</time>
      </trkpt>
      <trkpt lat="43.3483760" lon="-3.0923330">
        <ele>175.2</ele>
        <time>2022-01-16T09:00:35Z</time>
      </trkpt>
      <trkpt lat="43.3484240" lon="-3.0923880">
        <ele>175.4</ele>
        <time>2022-01-16T09:00:36Z</time>
      </trkpt>
      <trkpt lat="43.3484720" lon="-3.0924430">
        <ele>175.8</ele>
        <time>2022-01-16T09:00:37Z</time>
      </trkpt>
      <trkpt lat="43.3485180" lon="-3.0924990">
        <ele>176.0</ele>
        <time>2022-01-16T09:00:38Z</time>
      </trkpt>
      <trkpt lat="43.3485630" lon="-3.0925560">
        <ele>176.4</ele>
        <time>2022-01-16T09:00:39Z</time>
      </trkpt>
      <trkpt lat="43.3486090" lon="-3.0926100">
        <ele>176.6</ele>
        <time>2022-01-16T09:00:40Z</time>
      </trkpt>
      <trkpt lat="43.3486550" lon="-3.0926660">
        <ele>176.8</ele>
        <time>2022-01-16T09:00:41Z</time>
      </trkpt>
      <trkpt lat="43.3487030" lon="-3.0927200">
        <ele>177.0</ele>
        <time>2022-01-16T09:00:42Z</time>
      </trkpt>
      <trkpt lat="43.3487540" lon="-3.0927750">
        <ele>177.0</ele>
        <time>2022-01-16T09:00:43Z</time>
      </trkpt>
      <trkpt lat="43.3488070" lon="-3.0928310">
        <ele>177.0</ele>
        <time>2022-01-16T09:00:44Z</time>
      </trkpt>
      <trkpt lat="43.3488630" lon="-3.0928890">
        <ele>177.0</ele>
        <time>2022-01-16T09:00:45Z</time>
      </trkpt>
      <trkpt lat="43.3489240" lon="-3.0929450">
        <ele>177.0</ele>
        <time>2022-01-16T09:00:46Z</time>
      </trkpt>
      <trkpt lat="43.3489870" lon="-3.0929990">
        <ele>176.8</ele>
        <time>2022-01-16T09:00:47Z</time>
      </trkpt>
      <trkpt lat="43.3490540" lon="-3.0930510">
        <ele>176.4</ele>
        <time>2022-01-16T09:00:48Z</time>
      </trkpt>
      <trkpt lat="43.3491230" lon="-3.0931040">
        <ele>176.2</ele>
        <time>2022-01-16T09:00:49Z</time>
      </trkpt>
      <trkpt lat="43.3491920" lon="-3.0931570">
        <ele>175.8</ele>
        <time>2022-01-16T09:00:50Z</time>
      </trkpt>
      <trkpt lat="43.3492620" lon="-3.0932120">
        <ele>175.4</ele>
        <time>2022-01-16T09:00:51Z</time>
      </trkpt>
      <trkpt lat="43.3493330" lon="-3.0932700">
        <ele>175.2</ele>
        <time>2022-01-16T09:00:52Z</time>
      </trkpt>
      <trkpt lat="43.3494060" lon="-3.0933330">
        <ele>174.8</ele>
        <time>2022-01-16T09:00:53Z</time>
      </trkpt>
      <trkpt lat="43.3494810" lon="-3.0933990">
        <ele>174.4</ele>
        <time>2022-01-16T09:00:54Z</time>
      </trkpt>
      <trkpt lat="43.3495580" lon="-3.0934730">
        <ele>174.0</ele>
        <time>2022-01-16T09:00:55Z</time>
      </trkpt>
      <trkpt lat="43.3496340" lon="-3.0935580">
        <ele>173.2</ele>
        <time>2022-01-16T09:00:56Z</time>
      </trkpt>
      <trkpt lat="43.3497100" lon="-3.0936550">
        <ele>172.4</ele>
        <time>2022-01-16T09:00:57Z</time>
      </trkpt>
      <trkpt lat="43.3497840" lon="-3.0937630">
        <ele>171.2</ele>
        <time>2022-01-16T09:00:58Z</time>
      </trkpt>
      <trkpt lat="43.3498550" lon="-3.0938830">
        <ele>170.6</ele>
        <time>2022-01-16T09:00:59Z</time>
      </trkpt>
      <trkpt lat="43.3499220" lon="-3.0940120">
        <ele>169.6</ele>
        <time>2022-01-16T09:01:00Z</time>
      </trkpt>
      <trkpt lat="43.3499830" lon="-3.0941470">
        <ele>168.2</ele>
        <time>2022-01-16T09:01:01Z</time>
      </trkpt>
      <trkpt lat="43.3500350" lon="-3.0942880">
        <ele>166.8</ele>
        <time>2022-01-16T09:01:02Z</time>
      </trkpt>
      <trkpt lat="43.3500780" lon="-3.0944320">
        <ele>165.8</ele>
        <time>2022-01-16T09:01:03Z</time>
      </trkpt>
      <trkpt lat="43.3501130" lon="-3.0945800">
        <ele>164.8</ele>
        <time>2022-01-16T09:01:04Z</time>
      </trkpt>
      <trkpt lat="43.3501410" lon="-3.0947350">
        <ele>164.0</ele>
        <time>2022-01-16T09:01:05Z</time>
      </trkpt>
      <trkpt lat="43.3501620" lon="-3.0948940">
        <ele>163.4</ele>
        <time>2022-01-16T09:01:06Z</time>
      </trkpt>
      <trkpt lat="43.3501750" lon="-3.0950570">
        <ele>163.0</ele>
        <time>2022-01-16T09:01:07Z</time>
      </trkpt>
      <trkpt lat="43.3501830" lon="-3.0952210">
        <ele>162.6</ele>
        <time>2022-01-16T09:01:08Z</time>
      </trkpt>
      <trkpt lat="43.3501890" lon="-3.0953820">
        <ele>162.2</ele>
        <time>2022-01-16T09:01:09Z</time>
      </trkpt>
      <trkpt lat="43.3501920" lon="-3.0955430">
        <ele>161.6</ele>
        <time>2022-01-16T09:01:10Z</time>
      </trkpt>
      <trkpt lat="43.3501950" lon="-3.0957000">
        <ele>161.2</ele>
        <time>2022-01-16T09:01:11Z</time>
      </trkpt>
      <trkpt lat="43.3502010" lon="-3.0958510">
        <ele>160.6</ele>
        <time>2022-01-16T09:01:12Z</time>
      </trkpt>
      <trkpt lat="43.3502160" lon="-3.0959970">
        <ele>160.4</ele>
        <time>2022-01-16T09:01:13Z</time>
      </trkpt>
      <trkpt lat="43.3502420" lon="-3.0961390">
        <ele>160.0</ele>
        <time>2022-01-16T09:01:14Z</time>
      </trkpt>
      <trkpt lat="43.3502760" lon="-3.0962760">
        <ele>159.8</ele>
        <time>2022-01-16T09:01:15Z</time>
      </trkpt>
      <trkpt lat="43.3503160" lon="-3.0964070">
        <ele>159.6</ele>
        <time>2022-01-16T09:01:16Z</time>
      </trkpt>
      <trkpt lat="43.3503620" lon="-3.0965350">
        <ele>159.4</ele>
        <time>2022-01-16T09:01:17Z</time>
      </trkpt>
      <trkpt lat="43.3504080" lon="-3.0966600">
        <ele>159.2</ele>
        <time>2022-01-16T09:01:18Z</time>
      </trkpt>
      <trkpt lat="43.3504530" lon="-3.0967810">
        <ele>159.2</ele>
        <time>2022-01-16T09:01:19Z</time>
      </trkpt>
      <trkpt lat="43.3504950" lon="-3.0969000">
        <ele>159.2</ele>
        <time>2022-01-16T09:01:20Z</time>
      </trkpt>
      <trkpt lat="43.3505360" lon="-3.0970150">
        <ele>159.4</ele>
        <time>2022-01-16T09:01:21Z</time>
      </trkpt>
      <trkpt lat="43.3505760" lon="-3.0971260">
        <ele>159.4</ele>
        <time>2022-01-16T09:01:22Z</time>
      </trkpt>
      <trkpt lat="43.3506170" lon="-3.0972290">
        <ele>159.4</ele>
        <time>2022-01-16T09:01:23Z</time>
      </trkpt>
      <trkpt lat="43.3506500" lon="-3.0973450">
        <ele>159.6</ele>
        <time>2022-01-16T09:01:24Z</time>
      </trkpt>
      <trkpt lat="43.3506870" lon="-3.0974480">
        <ele>159.8</ele>
        <time>2022-01-16T09:01:25Z</time>
      </trkpt>
      <trkpt lat="43.3507230" lon="-3.0975490">
        <ele>159.8</ele>
        <time>2022-01-16T09:01:26Z</time>
      </trkpt>
      <trkpt lat="43.3507590" lon="-3.0976480">
        <ele>160.0</ele>
        <time>2022-01-16T09:01:27Z</time>
      </trkpt>
      <trkpt lat="43.3507920" lon="-3.0977450">
        <ele>160.4</ele>
        <time>2022-01-16T09:01:28Z</time>
      </trkpt>
      <trkpt lat="43.3508260" lon="-3.0978370">
        <ele>160.6</ele>
        <time>2022-01-16T09:01:29Z</time>
      </trkpt>
      <trkpt lat="43.3508570" lon="-3.0979270">
        <ele>160.8</ele>
        <time>2022-01-16T09:01:30Z</time>
      </trkpt>
      <trkpt lat="43.3508880" lon="-3.0980160">
        <ele>161.2</ele>
        <time>2022-01-16T09:01:31Z</time>
      </trkpt>
      <trkpt lat="43.3509180" lon="-3.0981030">
        <ele>161.4</ele>
        <time>2022-01-16T09:01:32Z</time>
      </trkpt>
      <trkpt lat="43.3509450" lon="-3.0981900">
        <ele>161.8</ele>
        <time>2022-01-16T09:01:33Z</time>
      </trkpt>
      <trkpt lat="43.3509710" lon="-3.0982780">
        <ele>162.0</ele>
        <time>2022-01-16T09:01:34Z</time>
      </trkpt>
      <trkpt lat="43.3509960" lon="-3.0983690">
        <ele>162.2</ele>
        <time>2022-01-16T09:01:35Z</time>
      </trkpt>
      <trkpt lat="43.3510190" lon="-3.0984600">
        <ele>162.4</ele>
        <time>2022-01-16T09:01:36Z</time>
      </trkpt>
      <trkpt lat="43.3510390" lon="-3.0985540">
        <ele>162.6</ele>
        <time>2022-01-16T09:01:37Z</time>
      </trkpt>
      <trkpt lat="43.3510600" lon="-3.0986460">
        <ele>162.8</ele>
        <time>2022-01-16T09:01:38Z</time>
      </trkpt>
      <trkpt lat="43.3510790" lon="-3.0987390">
        <ele>162.8</ele>
        <time>2022-01-16T09:01:39Z</time>
      </trkpt>
      <trkpt lat="43.3510970" lon="-3.0988360">
        <ele>163.0</ele>
        <time>2022-01-16T09:01:40Z</time>
      </trkpt>
      <trkpt lat="43.3511170" lon="-3.0989300">
        <ele>163.0</ele>
        <time>2022-01-16T09:01:41Z</time>
      </trkpt>
      <trkpt lat="43.3511350" lon="-3.0990240">
        <ele>163.0</ele>
        <time>2022-01-16T09:01:42Z</time>
      </trkpt>
      <trkpt lat="43.3511530" lon="-3.0991210">
        <ele>162.8</ele>
        <time>2022-01-16T09:01:43Z</time>
      </trkpt>
      <trkpt lat="43.3511700" lon="-3.0992200">
        <ele>162.8</ele>
        <time>2022-01-16T09:01:44Z</time>
      </trkpt>
      <trkpt lat="43.3511850" lon="-3.0993220">
        <ele>162.6</ele>
        <time>2022-01-16T09:01:45Z</time>
      </trkpt>
      <trkpt lat="43.3511990" lon="-3.0994280">
        <ele>162.2</ele>
        <time>2022-01-16T09:01:46Z</time>
      </trkpt>
      <trkpt lat="43.3512100" lon="-3.0995380">
        <ele>162.0</ele>
        <time>2022-01-16T09:01:47Z</time>
      </trkpt>
      <trkpt lat="43.3512200" lon="-3.0996530">
        <ele>161.8</ele>
        <time>2022-01-16T09:01:48Z</time>
      </trkpt>
      <trkpt lat="43.3512290" lon="-3.0997740">
        <ele>161.4</ele>
        <time>2022-01-16T09:01:49Z</time>
      </trkpt>
      <trkpt lat="43.3512390" lon="-3.0998990">
        <ele>161.0</ele>
        <time>2022-01-16T09:01:50Z</time>
      </trkpt>
      <trkpt lat="43.3512470" lon="-3.1000290">
        <ele>160.2</ele>
        <time>2022-01-16T09:01:51Z</time>
      </trkpt>
      <trkpt lat="43.3512550" lon="-3.1001630">
        <ele>159.6</ele>
        <time>2022-01-16T09:01:52Z</time>
      </trkpt>
      <trkpt lat="43.3512620" lon="-3.1003020">
        <ele>158.8</ele>
        <time>2022-01-16T09:01:53Z</time>
      </trkpt>
      <trkpt lat="43.3512710" lon="-3.1004410">
        <ele>158.0</ele>
        <time>2022-01-16T09:01:54Z</time>
      </trkpt>
      <trkpt lat="43.3512780" lon="-3.1005830">
        <ele>157.2</ele>
        <time>2022-01-16T09:01:55Z</time>
      </trkpt>
      <trkpt lat="43.3512850" lon="-3.1007270">
        <ele>156.8</ele>
        <time>2022-01-16T09:01:56Z</time>
      </trkpt>
      <trkpt lat="43.3512930" lon="-3.1008740">
        <ele>156.4</ele>
        <time>2022-01-16T09:01:57Z</time>
      </trkpt>
      <trkpt lat="43.3513020" lon="-3.1010230">
        <ele>155.6</ele>
        <time>2022-01-16T09:01:58Z</time>
      </trkpt>
      <trkpt lat="43.3513110" lon="-3.1011760">
        <ele>155.2</ele>
        <time>2022-01-16T09:01:59Z</time>
      </trkpt>
      <trkpt lat="43.3513210" lon="-3.1013320">
        <ele>154.4</ele>
        <time>2022-01-16T09:02:00Z</time>
      </trkpt>
      <trkpt lat="43.3513310" lon="-3.1014900">
        <ele>153.8</ele>
        <time>2022-01-16T09:02:01Z</time>
      </trkpt>
      <trkpt lat="43.3513380" lon="-3.1016460">
        <ele>152.8</ele>
        <time>2022-01-16T09:02:02Z</time>
      </trkpt>
      <trkpt lat="43.3513470" lon="-3.1017990">
        <ele>151.8</ele>
        <time>2022-01-16T09:02:03Z</time>
      </trkpt>
      <trkpt lat="43.3513570" lon="-3.1019510">
        <ele>151.0</ele>
        <time>2022-01-16T09:02:04Z</time>
      </trkpt>
      <trkpt lat="43.3513670" lon="-3.1021050">
        <ele>150.2</ele>
        <time>2022-01-16T09:02:05Z</time>
      </trkpt>
      <trkpt lat="43.3513750" lon="-3.1022650">
        <ele>148.8</ele>
        <time>2022-01-16T09:02:06Z</time>
      </trkpt>
      <trkpt lat="43.3513840" lon="-3.1024270">
        <ele>148.0</ele>
        <time>2022-01-16T09:02:07Z</time>
      </trkpt>
      <trkpt lat="43.3513900" lon="-3.1025930">
        <ele>146.8</ele>
        <time>2022-01-16T09:02:08Z</time>
      </trkpt>
      <trkpt lat="43.3513890" lon="-3.1027640">
        <ele>146.0</ele>
        <time>2022-01-16T09:02:09Z</time>
      </trkpt>
      <trkpt lat="43.3513790" lon="-3.1029350">
        <ele>145.4</ele>
        <time>2022-01-16T09:02:10Z</time>
      </trkpt>
      <trkpt lat="43.3513550" lon="-3.1031070">
        <ele>144.4</ele>
        <time>2022-01-16T09:02:11Z</time>
      </trkpt>
      <trkpt lat="43.3513220" lon="-3.1032750">
        <ele>143.4</ele>
        <time>2022-01-16T09:02:12Z</time>
      </trkpt>
      <trkpt lat="43.3512820" lon="-3.1034430">
        <ele>142.4</ele>
        <time>2022-01-16T09:02:13Z</time>
      </trkpt>
      <trkpt lat="43.3512390" lon="-3.1036110">
        <ele>141.6</ele>
        <time>2022-01-16T09:02:14Z</time>
      </trkpt>
      <trkpt lat="43.3511990" lon="-3.1037800">
        <ele>140.4</ele>
        <time>2022-01-16T09:02:15Z</time>
      </trkpt>
      <trkpt lat="43.3511570" lon="-3.1039500">
        <ele>139.0</ele>
        <time>2022-01-16T09:02:16Z</time>
      </trkpt>
      <trkpt lat="43.3511150" lon="-3.1041210">
        <ele>138.0</ele>
        <time>2022-01-16T09:02:17Z</time>
      </trkpt>
      <trkpt lat="43.3510710" lon="-3.1042960">
        <ele>137.0</ele>
        <time>2022-01-16T09:02:18Z</time>
      </trkpt>
      <trkpt lat="43.3510280" lon="-3.1044680">
        <ele>136.0</ele>
        <time>2022-01-16T09:02:19Z</time>
      </trkpt>
      <trkpt lat="43.3509850" lon="-3.1046380">
        <ele>134.6</ele>
        <time>2022-01-16T09:02:20Z</time>
      </trkpt>
      <trkpt lat="43.3509440" lon="-3.1048050">
        <ele>133.6</ele>
        <time>2022-01-16T09:02:21Z</time>
      </trkpt>
      <trkpt lat="43.3509040" lon="-3.1049640">
        <ele>132.8</ele>
        <time>2022-01-16T09:02:22Z</time>
      </trkpt>
      <trkpt lat="43.3508650" lon="-3.1051220">
        <ele>132.2</ele>
        <time>2022-01-16T09:02:23Z</time>
      </trkpt>
      <trkpt lat="43.3508240" lon="-3.1052840">
        <ele>130.8</ele>
        <time>2022-01-16T09:02:24Z</time>
      </trkpt>
      <trkpt lat="43.3507810" lon="-3.1054480">
        <ele>129.6</ele>
        <time>2022-01-16T09:02:25Z</time>
      </trkpt>
      <trkpt lat="43.3507350" lon="-3.1056130">
        <ele>128.6</ele>
        <time>2022-01-16T09:02:26Z</time>
      </trkpt>
      <trkpt lat="43.3506830" lon="-3.1057800">
        <ele>127.6</ele>
        <time>2022-01-16T09:02:27Z</time>
      </trkpt>
      <trkpt lat="43.3506270" lon="-3.1059420">
        <ele>126.8</ele>
        <time>2022-01-16T09:02:28Z</time>
      </trkpt>
      <trkpt lat="43.3505650" lon="-3.1061010">
        <ele>126.0</ele>
        <time>2022-01-16T09:02:29Z</time>
      </trkpt>
      <trkpt lat="43.3504990" lon="-3.1062640">
        <ele>124.8</ele>
        <time>2022-01-16T09:02:30Z</time>
      </trkpt>
      <trkpt lat="43.3504340" lon="-3.1064210">
        <ele>124.0</ele>
        <time>2022-01-16T09:02:31Z</time>
      </trkpt>
      <trkpt lat="43.3503670" lon="-3.1065760">
        <ele>122.8</ele>
        <time>2022-01-16T09:02:32Z</time>
      </trkpt>
      <trkpt lat="43.3503010" lon="-3.1067320">
        <ele>121.2</ele>
        <time>2022-01-16T09:02:33Z</time>
      </trkpt>
      <trkpt lat="43.3502370" lon="-3.1068880">
        <ele>120.4</ele>
        <time>2022-01-16T09:02:34Z</time>
      </trkpt>
      <trkpt lat="43.3501830" lon="-3.1070430">
        <ele>119.4</ele>
        <time>2022-01-16T09:02:35Z</time>
      </trkpt>
      <trkpt lat="43.3501400" lon="-3.1071990">
        <ele>118.2</ele>
        <time>2022-01-16T09:02:36Z</time>
      </trkpt>
      <trkpt lat="43.3501060" lon="-3.1073630">
        <ele>117.0</ele>
        <time>2022-01-16T09:02:37Z</time>
      </trkpt>
      <trkpt lat="43.3500840" lon="-3.1075290">
        <ele>115.4</ele>
        <time>2022-01-16T09:02:38Z</time>
      </trkpt>
      <trkpt lat="43.3500700" lon="-3.1077040">
        <ele>114.2</ele>
        <time>2022-01-16T09:02:39Z</time>
      </trkpt>
      <trkpt lat="43.3500630" lon="-3.1078810">
        <ele>113.2</ele>
        <time>2022-01-16T09:02:40Z</time>
      </trkpt>
      <trkpt lat="43.3500590" lon="-3.1080500">
        <ele>112.2</ele>
        <time>2022-01-16T09:02:41Z</time>
      </trkpt>
      <trkpt lat="43.3500540" lon="-3.1082080">
        <ele>111.0</ele>
        <time>2022-01-16T09:02:42Z</time>
      </trkpt>
      <trkpt lat="43.3500460" lon="-3.1083640">
        <ele>110.0</ele>
        <time>2022-01-16T09:02:43Z</time>
      </trkpt>
      <trkpt lat="43.3500400" lon="-3.1085160">
        <ele>109.2</ele>
        <time>2022-01-16T09:02:44Z</time>
      </trkpt>
      <trkpt lat="43.3500360" lon="-3.1086620">
        <ele>108.4</ele>
        <time>2022-01-16T09:02:45Z</time>
      </trkpt>
      <trkpt lat="43.3500350" lon="-3.1088000">
        <ele>107.4</ele>
        <time>2022-01-16T09:02:46Z</time>
      </trkpt>
      <trkpt lat="43.3500360" lon="-3.1089300">
        <ele>106.6</ele>
        <time>2022-01-16T09:02:47Z</time>
      </trkpt>
      <trkpt lat="43.3500380" lon="-3.1090470">
        <ele>106.0</ele>
        <time>2022-01-16T09:02:48Z</time>
      </trkpt>
      <trkpt lat="43.3500380" lon="-3.1091500">
        <ele>105.2</ele>
        <time>2022-01-16T09:02:49Z</time>
      </trkpt>
      <trkpt lat="43.3500340" lon="-3.1092460">
        <ele>104.6</ele>
        <time>2022-01-16T09:02:50Z</time>
      </trkpt>
      <trkpt lat="43.3500160" lon="-3.1093360">
        <ele>104.2</ele>
        <time>2022-01-16T09:02:51Z</time>
      </trkpt>
      <trkpt lat="43.3499730" lon="-3.1094100">
        <ele>103.8</ele>
        <time>2022-01-16T09:02:52Z</time>
      </trkpt>
      <trkpt lat="43.3499110" lon="-3.1094570">
        <ele>103.0</ele>
        <time>2022-01-16T09:02:53Z</time>
      </trkpt>
      <trkpt lat="43.3498370" lon="-3.1094710">
        <ele>102.2</ele>
        <time>2022-01-16T09:02:54Z</time>
      </trkpt>
      <trkpt lat="43.3497590" lon="-3.1094510">
        <ele>101.4</ele>
        <time>2022-01-16T09:02:55Z</time>
      </trkpt>
      <trkpt lat="43.3496840" lon="-3.1094150">
        <ele>101.0</ele>
        <time>2022-01-16T09:02:56Z</time>
      </trkpt>
      <trkpt lat="43.3496100" lon="-3.1093720">
        <ele>100.6</ele>
        <time>2022-01-16T09:02:57Z</time>
      </trkpt>
      <trkpt lat="43.3495340" lon="-3.1093280">
        <ele>100.4</ele>
        <time>2022-01-16T09:02:58Z</time>
      </trkpt>
      <trkpt lat="43.3494600" lon="-3.1092890">
        <ele>100.4</ele>
        <time>2022-01-16T09:02:59Z</time>
      </trkpt>
      <trkpt lat="43.3493830" lon="-3.1092540">
        <ele>100.4</ele>
        <time>2022-01-16T09:03:00Z</time>
      </trkpt>
      <trkpt lat="43.3493060" lon="-3.1092230">
        <ele>100.4</ele>
        <time>2022-01-16T09:03:01Z</time>
      </trkpt>
      <trkpt lat="43.3492290" lon="-3.1091980">
        <ele>100.4</ele>
        <time>2022-01-16T09:03:02Z</time>
      </trkpt>
      <trkpt lat="43.3491550" lon="-3.1091760">
        <ele>100.6</ele>
        <time>2022-01-16T09:03:03Z</time>
      </trkpt>
      <trkpt lat="43.3490840" lon="-3.1091570">
        <ele>101.2</ele>
        <time>2022-01-16T09:03:04Z</time>
      </trkpt>
      <trkpt lat="43.3490090" lon="-3.1091440">
        <ele>101.6</ele>
        <time>2022-01-16T09:03:05Z</time>
      </trkpt>
      <trkpt lat="43.3489350" lon="-3.1091310">
        <ele>101.8</ele>
        <time>2022-01-16T09:03:06Z</time>
      </trkpt>
      <trkpt lat="43.3488620" lon="-3.1091200">
        <ele>102.0</ele>
        <time>2022-01-16T09:03:07Z</time>
      </trkpt>
      <trkpt lat="43.3487890" lon="-3.1091120">
        <ele>102.0</ele>
        <time>2022-01-16T09:03:08Z</time>
      </trkpt>
      <trkpt lat="43.3487180" lon="-3.1091080">
        <ele>102.0</ele>
        <time>2022-01-16T09:03:09Z</time>
      </trkpt>
      <trkpt lat="43.3486460" lon="-3.1091120">
        <ele>102.0</ele>
        <time>2022-01-16T09:03:10Z</time>
      </trkpt>
      <trkpt lat="43.3485690" lon="-3.1091140">
        <ele>101.8</ele>
        <time>2022-01-16T09:03:11Z</time>
      </trkpt>
      <trkpt lat="43.3484910" lon="-3.1091190">
        <ele>101.8</ele>
        <time>2022-01-16T09:03:12Z</time>
      </trkpt>
      <trkpt lat="43.3484110" lon="-3.1091300">
        <ele>101.8</ele>
        <time>2022-01-16T09:03:13Z</time>
      </trkpt>
      <trkpt lat="43.3483310" lon="-3.1091460">
        <ele>101.4</ele>
        <time>2022-01-16T09:03:14Z</time>
      </trkpt>
      <trkpt lat="43.3482490" lon="-3.1091660">
        <ele>100.8</ele>
        <time>2022-01-16T09:03:15Z</time>
      </trkpt>
      <trkpt lat="43.3481660" lon="-3.1091910">
        <ele>100.4</ele>
        <time>2022-01-16T09:03:16Z</time>
      </trkpt>
      <trkpt lat="43.3480830" lon="-3.1092190">
        <ele>100.0</ele>
        <time>2022-01-16T09:03:17Z</time>
      </trkpt>
      <trkpt lat="43.3479950" lon="-3.1092500">
        <ele>99.6</ele>
        <time>2022-01-16T09:03:18Z</time>
      </trkpt>
      <trkpt lat="43.3479070" lon="-3.1092830">
        <ele>99.0</ele>
        <time>2022-01-16T09:03:19Z</time>
      </trkpt>
      <trkpt lat="43.3478170" lon="-3.1093190">
        <ele>98.6</ele>
        <time>2022-01-16T09:03:20Z</time>
      </trkpt>
      <trkpt lat="43.3477250" lon="-3.1093580">
        <ele>97.8</ele>
        <time>2022-01-16T09:03:21Z</time>
      </trkpt>
      <trkpt lat="43.3476300" lon="-3.1093980">
        <ele>97.2</ele>
        <time>2022-01-16T09:03:22Z</time>
      </trkpt>
      <trkpt lat="43.3475360" lon="-3.1094410">
        <ele>96.6</ele>
        <time>2022-01-16T09:03:23Z</time>
      </trkpt>
      <trkpt lat="43.3474400" lon="-3.1094860">
        <ele>96.2</ele>
        <time>2022-01-16T09:03:24Z</time>
      </trkpt>
      <trkpt lat="43.3473410" lon="-3.1095330">
        <ele>95.8</ele>
        <time>2022-01-16T09:03:25Z</time>
      </trkpt>
      <trkpt lat="43.3472420" lon="-3.1095830">
        <ele>95.4</ele>
        <time>2022-01-16T09:03:26Z</time>
      </trkpt>
      <trkpt lat="43.3471420" lon="-3.1096330">
        <ele>95.0</ele>
        <time>2022-01-16T09:03:27Z</time>
      </trkpt>
      <trkpt lat="43.3470450" lon="-3.1096860">
        <ele>94.0</ele>
        <time>2022-01-16T09:03:28Z</time>
      </trkpt>
      <trkpt lat="43.3469480" lon="-3.1097390">
        <ele>93.2</ele>
        <time>2022-01-16T09:03:29Z</time>
      </trkpt>
      <trkpt lat="43.3468500" lon="-3.1097950">
        <ele>92.6</ele>
        <time>2022-01-16T09:03:30Z</time>
      </trkpt>
      <trkpt lat="43.3467520" lon="-3.1098540">
        <ele>92.4</ele>
        <time>2022-01-16T09:03:31Z</time>
      </trkpt>
      <trkpt lat="43.3466530" lon="-3.1099150">
        <ele>92.0</ele>
        <time>2022-01-16T09:03:32Z</time>
      </trkpt>
      <trkpt lat="43.3465540" lon="-3.1099790">
        <ele>91.4</ele>
        <time>2022-01-16T09:03:33Z</time>
      </trkpt>
      <trkpt lat="43.3464580" lon="-3.1100440">
        <ele>90.6</ele>
        <time>2022-01-16T09:03:34Z</time>
      </trkpt>
      <trkpt lat="43.3463620" lon="-3.1101090">
        <ele>89.8</ele>
        <time>2022-01-16T09:03:35Z</time>
      </trkpt>
      <trkpt lat="43.3462660" lon="-3.1101760">
        <ele>89.2</ele>
        <time>2022-01-16T09:03:36Z</time>
      </trkpt>
      <trkpt lat="43.3461690" lon="-3.1102440">
        <ele>88.6</ele>
        <time>2022-01-16T09:03:37Z</time>
      </trkpt>
      <trkpt lat="43.3460730" lon="-3.1103140">
        <ele>88.0</ele>
        <time>2022-01-16T09:03:38Z</time>
      </trkpt>
      <trkpt lat="43.3459800" lon="-3.1103850">
        <ele>86.6</ele>
        <time>2022-01-16T09:03:39Z</time>
      </trkpt>
      <trkpt lat="43.3458890" lon="-3.1104590">
        <ele>86.0</ele>
        <time>2022-01-16T09:03:40Z</time>
      </trkpt>
      <trkpt lat="43.3457980" lon="-3.1105340">
        <ele>85.2</ele>
        <time>2022-01-16T09:03:41Z</time>
      </trkpt>
      <trkpt lat="43.3457090" lon="-3.1106150">
        <ele>84.6</ele>
        <time>2022-01-16T09:03:42Z</time>
      </trkpt>
      <trkpt lat="43.3456220" lon="-3.1107000">
        <ele>84.2</ele>
        <time>2022-01-16T09:03:43Z</time>
      </trkpt>
      <trkpt lat="43.3455370" lon="-3.1107910">
        <ele>83.4</ele>
        <time>2022-01-16T09:03:44Z</time>
      </trkpt>
      <trkpt lat="43.3454570" lon="-3.1108870">
        <ele>82.8</ele>
        <time>2022-01-16T09:03:45Z</time>
      </trkpt>
      <trkpt lat="43.3453790" lon="-3.1109890">
        <ele>82.0</ele>
        <time>2022-01-16T09:03:46Z</time>
      </trkpt>
      <trkpt lat="43.3453010" lon="-3.1110950">
        <ele>81.4</ele>
        <time>2022-01-16T09:03:47Z</time>
      </trkpt>
      <trkpt lat="43.3452270" lon="-3.1112060">
        <ele>80.4</ele>
        <time>2022-01-16T09:03:48Z</time>
      </trkpt>
      <trkpt lat="43.3451560" lon="-3.1113230">
        <ele>79.8</ele>
        <time>2022-01-16T09:03:49Z</time>
      </trkpt>
      <trkpt lat="43.3450890" lon="-3.1114420">
        <ele>79.4</ele>
        <time>2022-01-16T09:03:50Z</time>
      </trkpt>
      <trkpt lat="43.3450280" lon="-3.1115590">
        <ele>78.8</ele>
        <time>2022-01-16T09:03:51Z</time>
      </trkpt>
      <trkpt lat="43.3449730" lon="-3.1116730">
        <ele>78.2</ele>
        <time>2022-01-16T09:03:52Z</time>
      </trkpt>
      <trkpt lat="43.3449230" lon="-3.1117860">
        <ele>78.0</ele>
        <time>2022-01-16T09:03:53Z</time>
      </trkpt>
      <trkpt lat="43.3448780" lon="-3.1118960">
        <ele>77.6</ele>
        <time>2022-01-16T09:03:54Z</time>
      </trkpt>
      <trkpt lat="43.3448330" lon="-3.1120020">
        <ele>77.4</ele>
        <time>2022-01-16T09:03:55Z</time>
      </trkpt>
      <trkpt lat="43.3447840" lon="-3.1120970">
        <ele>77.0</ele>
        <time>2022-01-16T09:03:56Z</time>
      </trkpt>
      <trkpt lat="43.3447270" lon="-3.1121770">
        <ele>76.8</ele>
        <time>2022-01-16T09:03:57Z</time>
      </trkpt>
      <trkpt lat="43.3446630" lon="-3.1122370">
        <ele>76.8</ele>
        <time>2022-01-16T09:03:58Z</time>
      </trkpt>
      <trkpt lat="43.3445970" lon="-3.1122750">
        <ele>76.8</ele>
        <time>2022-01-16T09:03:59Z</time>
      </trkpt>
      <trkpt lat="43.3445310" lon="-3.1123080">
        <ele>76.8</ele>
        <time>2022-01-16T09:04:00Z</time>
      </trkpt>
      <trkpt lat="43.3444690" lon="-3.1123510">
        <ele>76.6</ele>
        <time>2022-01-16T09:04:01Z</time>
      </trkpt>
      <trkpt lat="43.3444040" lon="-3.1123920">
        <ele>76.6</ele>
        <time>2022-01-16T09:04:02Z</time>
      </trkpt>
      <trkpt lat="43.3443330" lon="-3.1124170">
        <ele>76.6</ele>
        <time>2022-01-16T09:04:03Z</time>
      </trkpt>
      <trkpt lat="43.3442580" lon="-3.1124130">
        <ele>76.6</ele>
        <time>2022-01-16T09:04:04Z</time>
      </trkpt>
      <trkpt lat="43.3441840" lon="-3.1123860">
        <ele>76.6</ele>
        <time>2022-01-16T09:04:05Z</time>
      </trkpt>
      <trkpt lat="43.3441150" lon="-3.1123450">
        <ele>76.6</ele>
        <time>2022-01-16T09:04:06Z</time>
      </trkpt>
      <trkpt lat="43.3440450" lon="-3.1122990">
        <ele>76.6</ele>
        <time>2022-01-16T09:04:07Z</time>
      </trkpt>
      <trkpt lat="43.3439690" lon="-3.1122550">
        <ele>76.6</ele>
        <time>2022-01-16T09:04:08Z</time>
      </trkpt>
      <trkpt lat="43.3438980" lon="-3.1122120">
        <ele>76.6</ele>
        <time>2022-01-16T09:04:09Z</time>
      </trkpt>
      <trkpt lat="43.3438250" lon="-3.1121700">
        <ele>76.6</ele>
        <time>2022-01-16T09:04:10Z</time>
      </trkpt>
      <trkpt lat="43.3437520" lon="-3.1121290">
        <ele>76.6</ele>
        <time>2022-01-16T09:04:11Z</time>
      </trkpt>
      <trkpt lat="43.3436780" lon="-3.1120890">
        <ele>76.6</ele>
        <time>2022-01-16T09:04:12Z</time>
      </trkpt>
      <trkpt lat="43.3436010" lon="-3.1120520">
        <ele>76.6</ele>
        <time>2022-01-16T09:04:13Z</time>
      </trkpt>
      <trkpt lat="43.3435250" lon="-3.1120190">
        <ele>76.6</ele>
        <time>2022-01-16T09:04:14Z</time>
      </trkpt>
      <trkpt lat="43.3434470" lon="-3.1119880">
        <ele>76.6</ele>
        <time>2022-01-16T09:04:15Z</time>
      </trkpt>
      <trkpt lat="43.3433690" lon="-3.1119560">
        <ele>76.6</ele>
        <time>2022-01-16T09:04:16Z</time>
      </trkpt>
      <trkpt lat="43.3432900" lon="-3.1119270">
        <ele>76.6</ele>
        <time>2022-01-16T09:04:17Z</time>
      </trkpt>
      <trkpt lat="43.3432110" lon="-3.1119000">
        <ele>76.6</ele>
        <time>2022-01-16T09:04:18Z</time>
      </trkpt>
      <trkpt lat="43.3431320" lon="-3.1118750">
        <ele>76.6</ele>
        <time>2022-01-16T09:04:19Z</time>
      </trkpt>
      <trkpt lat="43.3430550" lon="-3.1118530">
        <ele>76.6</ele>
        <time>2022-01-16T09:04:20Z</time>
      </trkpt>
      <trkpt lat="43.3429790" lon="-3.1118290">
        <ele>76.6</ele>
        <time>2022-01-16T09:04:21Z</time>
      </trkpt>
      <trkpt lat="43.3429020" lon="-3.1118060">
        <ele>76.6</ele>
        <time>2022-01-16T09:04:22Z</time>
      </trkpt>
      <trkpt lat="43.3428240" lon="-3.1117830">
        <ele>76.6</ele>
        <time>2022-01-16T09:04:23Z</time>
      </trkpt>
      <trkpt lat="43.3427460" lon="-3.1117620">
        <ele>76.8</ele>
        <time>2022-01-16T09:04:24Z</time>
      </trkpt>
      <trkpt lat="43.3426690" lon="-3.1117420">
        <ele>76.8</ele>
        <time>2022-01-16T09:04:25Z</time>
      </trkpt>
      <trkpt lat="43.3425940" lon="-3.1117220">
        <ele>77.0</ele>
        <time>2022-01-16T09:04:26Z</time>
      </trkpt>
      <trkpt lat="43.3425200" lon="-3.1117040">
        <ele>77.0</ele>
        <time>2022-01-16T09:04:27Z</time>
      </trkpt>
      <trkpt lat="43.3424470" lon="-3.1116880">
        <ele>77.0</ele>
        <time>2022-01-16T09:04:28Z</time>
      </trkpt>
      <trkpt lat="43.3423740" lon="-3.1116770">
        <ele>77.0</ele>
        <time>2022-01-16T09:04:29Z</time>
      </trkpt>
      <trkpt lat="43.3423010" lon="-3.1116710">
        <ele>77.0</ele>
        <time>2022-01-16T09:04:30Z</time>
      </trkpt>
      <trkpt lat="43.3422290" lon="-3.1116710">
        <ele>77.0</ele>
        <time>2022-01-16T09:04:31Z</time>
      </trkpt>
      <trkpt lat="43.3421570" lon="-3.1116750">
        <ele>77.0</ele>
        <time>2022-01-16T09:04:32Z</time>
      </trkpt>
      <trkpt lat="43.3420850" lon="-3.1116830">
        <ele>77.0</ele>
        <time>2022-01-16T09:04:33Z</time>
      </trkpt>
      <trkpt lat="43.3420130" lon="-3.1116930">
        <ele>77.0</ele>
        <time>2022-01-16T09:04:34Z</time>
      </trkpt>
      <trkpt lat="43.3419410" lon="-3.1117060">
        <ele>77.0</ele>
        <time>2022-01-16T09:04:35Z</time>
      </trkpt>
      <trkpt lat="43.3418690" lon="-3.1117210">
        <ele>77.0</ele>
        <time>2022-01-16T09:04:36Z</time>
      </trkpt>
      <trkpt lat="43.3417970" lon="-3.1117360">
        <ele>76.8</ele>
        <time>2022-01-16T09:04:37Z</time>
      </trkpt>
      <trkpt lat="43.3417250" lon="-3.1117500">
        <ele>76.8</ele>
        <time>2022-01-16T09:04:38Z</time>
      </trkpt>
      <trkpt lat="43.3416530" lon="-3.1117640">
        <ele>76.8</ele>
        <time>2022-01-16T09:04:39Z</time>
      </trkpt>
      <trkpt lat="43.3415800" lon="-3.1117780">
        <ele>76.8</ele>
        <time>2022-01-16T09:04:40Z</time>
      </trkpt>
      <trkpt lat="43.3415050" lon="-3.1117910">
        <ele>76.8</ele>
        <time>2022-01-16T09:04:41Z</time>
      </trkpt>
      <trkpt lat="43.3414310" lon="-3.1118010">
        <ele>76.8</ele>
        <time>2022-01-16T09:04:42Z</time>
      </trkpt>
      <trkpt lat="43.3413580" lon="-3.1118090">
        <ele>76.8</ele>
        <time>2022-01-16T09:04:43Z</time>
      </trkpt>
      <trkpt lat="43.3412840" lon="-3.1118160">
        <ele>76.8</ele>
        <time>2022-01-16T09:04:44Z</time>
      </trkpt>
      <trkpt lat="43.3412120" lon="-3.1118200">
        <ele>77.0</ele>
        <time>2022-01-16T09:04:45Z</time>
      </trkpt>
      <trkpt lat="43.3411400" lon="-3.1118180">
        <ele>76.8</ele>
        <time>2022-01-16T09:04:46Z</time>
      </trkpt>
      <trkpt lat="43.3410680" lon="-3.1118100">
        <ele>76.8</ele>
        <time>2022-01-16T09:04:47Z</time>
      </trkpt>
      <trkpt lat="43.3409980" lon="-3.1118040">
        <ele>77.0</ele>
        <time>2022-01-16T09:04:48Z</time>
      </trkpt>
      <trkpt lat="43.3409280" lon="-3.1117980">
        <ele>77.0</ele>
        <time>2022-01-16T09:04:49Z</time>
      </trkpt>
      <trkpt lat="43.3408590" lon="-3.1117890">
        <ele>76.8</ele>
        <time>2022-01-16T09:04:50Z</time>
      </trkpt>
      <trkpt lat="43.3407900" lon="-3.1117770">
        <ele>77.2</ele>
        <time>2022-01-16T09:04:51Z</time>
      </trkpt>
      <trkpt lat="43.3407220" lon="-3.1117630">
        <ele>77.2</ele>
        <time>2022-01-16T09:04:52Z</time>
      </trkpt>
      <trkpt lat="43.3406570" lon="-3.1117410">
        <ele>77.4</ele>
        <time>2022-01-16T09:04:53Z</time>
      </trkpt>
      <trkpt lat="43.3405870" lon="-3.1117140">
        <ele>77.4</ele>
        <time>2022-01-16T09:04:54Z</time>
      </trkpt>
      <trkpt lat="43.3405180" lon="-3.1116840">
        <ele>77.4</ele>
        <time>2022-01-16T09:04:55Z</time>
      </trkpt>
      <trkpt lat="43.3404500" lon="-3.1116570">
        <ele>77.4</ele>
        <time>2022-01-16T09:04:56Z</time>
      </trkpt>
      <trkpt lat="43.3403820" lon="-3.1116300">
        <ele>77.4</ele>
        <time>2022-01-16T09:04:57Z</time>
      </trkpt>
      <trkpt lat="43.3403170" lon="-3.1116060">
        <ele>77.6</ele>
        <time>2022-01-16T09:04:58Z</time>
      </trkpt>
      <trkpt lat="43.3402510" lon="-3.1115830">
        <ele>77.6</ele>
        <time>2022-01-16T09:04:59Z</time>
      </trkpt>
      <trkpt lat="43.3401880" lon="-3.1115620">
        <ele>77.6</ele>
        <time>2022-01-16T09:05:00Z</time>
      </trkpt>
      <trkpt lat="43.3401280" lon="-3.1115410">
        <ele>77.6</ele>
        <time>2022-01-16T09:05:01Z</time>
      </trkpt>
      <trkpt lat="43.3400690" lon="-3.1115170">
        <ele>77.6</ele>
        <time>2022-01-16T09:05:02Z</time>
      </trkpt>
      <trkpt lat="43.3400100" lon="-3.1114940">
        <ele>77.4</ele>
        <time>2022-01-16T09:05:03Z</time>
      </trkpt>
      <trkpt lat="43.3399520" lon="-3.1114720">
        <ele>77.4</ele>
        <time>2022-01-16T09:05:04Z</time>
      </trkpt>
      <trkpt lat="43.3398920" lon="-3.1114500">
        <ele>77.6</ele>
        <time>2022-01-16T09:05:05Z</time>
      </trkpt>
      <trkpt lat="43.3398310" lon="-3.1114290">
        <ele>77.6</ele>
        <time>2022-01-16T09:05:06Z</time>
      </trkpt>
      <trkpt lat="43.3397700" lon="-3.1114120">
        <ele>77.6</ele>
        <time>2022-01-16T09:05:07Z</time>
      </trkpt>
      <trkpt lat="43.3397100" lon="-3.1113990">
        <ele>77.8</ele>
        <time>2022-01-16T09:05:08Z</time>
      </trkpt>
      <trkpt lat="43.3396490" lon="-3.1113870">
        <ele>77.8</ele>
        <time>2022-01-16T09:05:09Z</time>
      </trkpt>
      <trkpt lat="43.3395870" lon="-3.1113760">
        <ele>77.8</ele>
        <time>2022-01-16T09:05:10Z</time>
      </trkpt>
      <trkpt lat="43.3395220" lon="-3.1113640">
        <ele>77.8</ele>
        <time>2022-01-16T09:05:11Z</time>
      </trkpt>
      <trkpt lat="43.3394550" lon="-3.1113540">
        <ele>77.8</ele>
        <time>2022-01-16T09:05:12Z</time>
      </trkpt>
      <trkpt lat="43.3393870" lon="-3.1113500">
        <ele>77.8</ele>
        <time>2022-01-16T09:05:13Z</time>
      </trkpt>
      <trkpt lat="43.3393190" lon="-3.1113490">
        <ele>77.8</ele>
        <time>2022-01-16T09:05:14Z</time>
      </trkpt>
      <trkpt lat="43.3392510" lon="-3.1113510">
        <ele>77.8</ele>
        <time>2022-01-16T09:05:15Z</time>
      </trkpt>
      <trkpt lat="43.3391810" lon="-3.1113530">
        <ele>77.8</ele>
        <time>2022-01-16T09:05:16Z</time>
      </trkpt>
      <trkpt lat="43.3391110" lon="-3.1113580">
        <ele>77.8</ele>
        <time>2022-01-16T09:05:17Z</time>
      </trkpt>
      <trkpt lat="43.3390400" lon="-3.1113680">
        <ele>78.0</ele>
        <time>2022-01-16T09:05:18Z</time>
      </trkpt>
      <trkpt lat="43.3389670" lon="-3.1113820">
        <ele>78.0</ele>
        <time>2022-01-16T09:05:19Z</time>
      </trkpt>
      <trkpt lat="43.3388920" lon="-3.1113970">
        <ele>77.8</ele>
        <time>2022-01-16T09:05:20Z</time>
      </trkpt>
      <trkpt lat="43.3388160" lon="-3.1114140">
        <ele>77.8</ele>
        <time>2022-01-16T09:05:21Z</time>
      </trkpt>
      <trkpt lat="43.3387410" lon="-3.1114350">
        <ele>77.8</ele>
        <time>2022-01-16T09:05:22Z</time>
      </trkpt>
      <trkpt lat="43.3386640" lon="-3.1114570">
        <ele>77.8</ele>
        <time>2022-01-16T09:05:23Z</time>
      </trkpt>
      <trkpt lat="43.3385870" lon="-3.1114820">
        <ele>77.8</ele>
        <time>2022-01-16T09:05:24Z</time>
      </trkpt>
      <trkpt lat="43.3385110" lon="-3.1115110">
        <ele>77.8</ele>
        <time>2022-01-16T09:05:25Z</time>
      </trkpt>
      <trkpt lat="43.3384390" lon="-3.1115440">
        <ele>77.8</ele>
        <time>2022-01-16T09:05:26Z</time>
      </trkpt>
      <trkpt lat="43.3383670" lon="-3.1115800">
        <ele>77.8</ele>
        <time>2022-01-16T09:05:27Z</time>
      </trkpt>
      <trkpt lat="43.3382940" lon="-3.1116150">
        <ele>77.8</ele>
        <time>2022-01-16T09:05:28Z</time>
      </trkpt>
      <trkpt lat="43.3382210" lon="-3.1116510">
        <ele>77.8</ele>
        <time>2022-01-16T09:05:29Z</time>
      </trkpt>
      <trkpt lat="43.3381490" lon="-3.1116880">
        <ele>77.8</ele>
        <time>2022-01-16T09:05:30Z</time>
      </trkpt>
      <trkpt lat="43.3380780" lon="-3.1117260">
        <ele>77.8</ele>
        <time>2022-01-16T09:05:31Z</time>
      </trkpt>
      <trkpt lat="43.3380110" lon="-3.1117600">
        <ele>77.8</ele>
        <time>2022-01-16T09:05:32Z</time>
      </trkpt>
      <trkpt lat="43.3379460" lon="-3.1117910">
        <ele>77.8</ele>
        <time>2022-01-16T09:05:33Z</time>
      </trkpt>
      <trkpt lat="43.3378800" lon="-3.1118200">
        <ele>78.0</ele>
        <time>2022-01-16T09:05:34Z</time>
      </trkpt>
      <trkpt lat="43.3378140" lon="-3.1118480">
        <ele>78.0</ele>
        <time>2022-01-16T09:05:35Z</time>
      </trkpt>
      <trkpt lat="43.3377450" lon="-3.1118730">
        <ele>78.0</ele>
        <time>2022-01-16T09:05:36Z</time>
      </trkpt>
      <trkpt lat="43.3376750" lon="-3.1118940">
        <ele>78.0</ele>
        <time>2022-01-16T09:05:37Z</time>
      </trkpt>
      <trkpt lat="43.3376040" lon="-3.1119090">
        <ele>78.0</ele>
        <time>2022-01-16T09:05:38Z</time>
      </trkpt>
      <trkpt lat="43.3375340" lon="-3.1119200">
        <ele>78.2</ele>
        <time>2022-01-16T09:05:39Z</time>
      </trkpt>
      <trkpt lat="43.3374640" lon="-3.1119260">
        <ele>78.2</ele>
        <time>2022-01-16T09:05:40Z</time>
      </trkpt>
      <trkpt lat="43.3373950" lon="-3.1119270">
        <ele>78.2</ele>
        <time>2022-01-16T09:05:41Z</time>
      </trkpt>
      <trkpt lat="43.3373260" lon="-3.1119250">
        <ele>78.2</ele>
        <time>2022-01-16T09:05:42Z</time>
      </trkpt>
      <trkpt lat="43.3372570" lon="-3.1119170">
        <ele>78.2</ele>
        <time>2022-01-16T09:05:43Z</time>
      </trkpt>
      <trkpt lat="43.3371880" lon="-3.1119070">
        <ele>78.2</ele>
        <time>2022-01-16T09:05:44Z</time>
      </trkpt>
      <trkpt lat="43.3371210" lon="-3.1118930">
        <ele>78.4</ele>
        <time>2022-01-16T09:05:45Z</time>
      </trkpt>
      <trkpt lat="43.3370540" lon="-3.1118750">
        <ele>78.4</ele>
        <time>2022-01-16T09:05:46Z</time>
      </trkpt>
      <trkpt lat="43.3369890" lon="-3.1118530">
        <ele>78.4</ele>
        <time>2022-01-16T09:05:47Z</time>
      </trkpt>
      <trkpt lat="43.3369270" lon="-3.1118270">
        <ele>78.4</ele>
        <time>2022-01-16T09:05:48Z</time>
      </trkpt>
      <trkpt lat="43.3368660" lon="-3.1117990">
        <ele>78.4</ele>
        <time>2022-01-16T09:05:49Z</time>
      </trkpt>
      <trkpt lat="43.3368050" lon="-3.1117690">
        <ele>78.2</ele>
        <time>2022-01-16T09:05:50Z</time>
      </trkpt>
      <trkpt lat="43.3367460" lon="-3.1117350">
        <ele>78.0</ele>
        <time>2022-01-16T09:05:51Z</time>
      </trkpt>
      <trkpt lat="43.3366870" lon="-3.1116920">
        <ele>77.8</ele>
        <time>2022-01-16T09:05:52Z</time>
      </trkpt>
      <trkpt lat="43.3366280" lon="-3.1116440">
        <ele>77.6</ele>
        <time>2022-01-16T09:05:53Z</time>
      </trkpt>
      <trkpt lat="43.3365650" lon="-3.1115900">
        <ele>77.6</ele>
        <time>2022-01-16T09:05:54Z</time>
      </trkpt>
      <trkpt lat="43.3365020" lon="-3.1115300">
        <ele>77.4</ele>
        <time>2022-01-16T09:05:55Z</time>
      </trkpt>
      <trkpt lat="43.3364390" lon="-3.1114620">
        <ele>77.4</ele>
        <time>2022-01-16T09:05:56Z</time>
      </trkpt>
      <trkpt lat="43.3363760" lon="-3.1113890">
        <ele>77.2</ele>
        <time>2022-01-16T09:05:57Z</time>
      </trkpt>
      <trkpt lat="43.3363160" lon="-3.1113160">
        <ele>77.2</ele>
        <time>2022-01-16T09:05:58Z</time>
      </trkpt>
      <trkpt lat="43.3362560" lon="-3.1112440">
        <ele>77.2</ele>
        <time>2022-01-16T09:05:59Z</time>
      </trkpt>
      <trkpt lat="43.3361970" lon="-3.1111690">
        <ele>77.2</ele>
        <time>2022-01-16T09:06:00Z</time>
      </trkpt>
      <trkpt lat="43.3361380" lon="-3.1110940">
        <ele>77.2</ele>
        <time>2022-01-16T09:06:01Z</time>
      </trkpt>
      <trkpt lat="43.3360800" lon="-3.1110200">
        <ele>77.2</ele>
        <time>2022-01-16T09:06:02Z</time>
      </trkpt>
      <trkpt lat="43.3360230" lon="-3.1109460">
        <ele>77.0</ele>
        <time>2022-01-16T09:06:03Z</time>
      </trkpt>
      <trkpt lat="43.3359660" lon="-3.1108730">
        <ele>77.0</ele>
        <time>2022-01-16T09:06:04Z</time>
      </trkpt>
      <trkpt lat="43.3359090" lon="-3.1108000">
        <ele>77.0</ele>
        <time>2022-01-16T09:06:05Z</time>
      </trkpt>
      <trkpt lat="43.3358510" lon="-3.1107270">
        <ele>77.0</ele>
        <time>2022-01-16T09:06:06Z</time>
      </trkpt>
      <trkpt lat="43.3357940" lon="-3.1106530">
        <ele>77.0</ele>
        <time>2022-01-16T09:06:07Z</time>
      </trkpt>
      <trkpt lat="43.3357370" lon="-3.1105800">
        <ele>77.2</ele>
        <time>2022-01-16T09:06:08Z</time>
      </trkpt>
      <trkpt lat="43.3356790" lon="-3.1105090">
        <ele>77.2</ele>
        <time>2022-01-16T09:06:09Z</time>
      </trkpt>
      <trkpt lat="43.3356210" lon="-3.1104370">
        <ele>77.2</ele>
        <time>2022-01-16T09:06:10Z</time>
      </trkpt>
      <trkpt lat="43.3355640" lon="-3.1103630">
        <ele>77.2</ele>
        <time>2022-01-16T09:06:11Z</time>
      </trkpt>
      <trkpt lat="43.3355070" lon="-3.1102890">
        <ele>77.2</ele>
        <time>2022-01-16T09:06:12Z</time>
      </trkpt>
      <trkpt lat="43.3354490" lon="-3.1102180">
        <ele>77.2</ele>
        <time>2022-01-16T09:06:13Z</time>
      </trkpt>
      <trkpt lat="43.3353900" lon="-3.1101490">
        <ele>77.2</ele>
        <time>2022-01-16T09:06:14Z</time>
      </trkpt>
      <trkpt lat="43.3353330" lon="-3.1100800">
        <ele>77.2</ele>
        <time>2022-01-16T09:06:15Z</time>
      </trkpt>
      <trkpt lat="43.3352760" lon="-3.1100110">
        <ele>77.2</ele>
        <time>2022-01-16T09:06:16Z</time>
      </trkpt>
      <trkpt lat="43.3352190" lon="-3.1099430">
        <ele>77.2</ele>
        <time>2022-01-16T09:06:17Z</time>
      </trkpt>
      <trkpt lat="43.3351620" lon="-3.1098750">
        <ele>77.4</ele>
        <time>2022-01-16T09:06:18Z</time>
      </trkpt>
      <trkpt lat="43.3351050" lon="-3.1098110">
        <ele>77.4</ele>
        <time>2022-01-16T09:06:19Z</time>
      </trkpt>
      <trkpt lat="43.3350500" lon="-3.1097480">
        <ele>77.2</ele>
        <time>2022-01-16T09:06:20Z</time>
      </trkpt>
      <trkpt lat="43.3349940" lon="-3.1096850">
        <ele>77.2</ele>
        <time>2022-01-16T09:06:21Z</time>
      </trkpt>
      <trkpt lat="43.3349360" lon="-3.1096230">
        <ele>77.4</ele>
        <time>2022-01-16T09:06:22Z</time>
      </trkpt>
      <trkpt lat="43.3348770" lon="-3.1095610">
        <ele>77.4</ele>
        <time>2022-01-16T09:06:23Z</time>
      </trkpt>
      <trkpt lat="43.3348170" lon="-3.1094980">
        <ele>77.4</ele>
        <time>2022-01-16T09:06:24Z</time>
      </trkpt>
      <trkpt lat="43.3347570" lon="-3.1094340">
        <ele>77.4</ele>
        <time>2022-01-16T09:06:25Z</time>
      </trkpt>
      <trkpt lat="43.3346960" lon="-3.1093690">
        <ele>77.4</ele>
        <time>2022-01-16T09:06:26Z</time>
      </trkpt>
      <trkpt lat="43.3346360" lon="-3.1093040">
        <ele>77.4</ele>
        <time>2022-01-16T09:06:27Z</time>
      </trkpt>
      <trkpt lat="43.3345740" lon="-3.1092400">
        <ele>77.4</ele>
        <time>2022-01-16T09:06:28Z</time>
      </trkpt>
      <trkpt lat="43.3345140" lon="-3.1091770">
        <ele>77.4</ele>
        <time>2022-01-16T09:06:29Z</time>
      </trkpt>
      <trkpt lat="43.3344520" lon="-3.1091140">
        <ele>77.4</ele>
        <time>2022-01-16T09:06:30Z</time>
      </trkpt>
      <trkpt lat="43.3343920" lon="-3.1090500">
        <ele>77.6</ele>
        <time>2022-01-16T09:06:31Z</time>
      </trkpt>
      <trkpt lat="43.3343310" lon="-3.1089870">
        <ele>77.6</ele>
        <time>2022-01-16T09:06:32Z</time>
      </trkpt>
      <trkpt lat="43.3342680" lon="-3.1089250">
        <ele>77.6</ele>
        <time>2022-01-16T09:06:33Z</time>
      </trkpt>
      <trkpt lat="43.3342050" lon="-3.1088670">
        <ele>77.6</ele>
        <time>2022-01-16T09:06:34Z</time>
      </trkpt>
      <trkpt lat="43.3341390" lon="-3.1088150">
        <ele>77.6</ele>
        <time>2022-01-16T09:06:35Z</time>
      </trkpt>
      <trkpt lat="43.3340710" lon="-3.1087690">
        <ele>77.6</ele>
        <time>2022-01-16T09:06:36Z</time>
      </trkpt>
      <trkpt lat="43.3339990" lon="-3.1087290">
        <ele>77.6</ele>
        <time>2022-01-16T09:06:37Z</time>
      </trkpt>
      <trkpt lat="43.3339260" lon="-3.1086970">
        <ele>77.6</ele>
        <time>2022-01-16T09:06:38Z</time>
      </trkpt>
      <trkpt lat="43.3338520" lon="-3.1086720">
        <ele>77.6</ele>
        <time>2022-01-16T09:06:39Z</time>
      </trkpt>
      <trkpt lat="43.3337760" lon="-3.1086530">
        <ele>77.6</ele>
        <time>2022-01-16T09:06:40Z</time>
      </trkpt>
      <trkpt lat="43.3337000" lon="-3.1086400">
        <ele>77.6</ele>
        <time>2022-01-16T09:06:41Z</time>
      </trkpt>
      <trkpt lat="43.3336210" lon="-3.1086350">
        <ele>77.6</ele>
        <time>2022-01-16T09:06:42Z</time>
      </trkpt>
      <trkpt lat="43.3335420" lon="-3.1086400">
        <ele>77.6</ele>
        <time>2022-01-16T09:06:43Z</time>
      </trkpt>
      <trkpt lat="43.3334630" lon="-3.1086520">
        <ele>77.6</ele>
        <time>2022-01-16T09:06:44Z</time>
      </trkpt>
      <trkpt lat="43.3333850" lon="-3.1086720">
        <ele>77.6</ele>
        <time>2022-01-16T09:06:45Z</time>
      </trkpt>
      <trkpt lat="43.3333070" lon="-3.1086970">
        <ele>77.4</ele>
        <time>2022-01-16T09:06:46Z</time>
      </trkpt>
      <trkpt lat="43.3332310" lon="-3.1087280">
        <ele>77.4</ele>
        <time>2022-01-16T09:06:47Z</time>
      </trkpt>
      <trkpt lat="43.3331570" lon="-3.1087670">
        <ele>77.4</ele>
        <time>2022-01-16T09:06:48Z</time>
      </trkpt>
      <trkpt lat="43.3330850" lon="-3.1088140">
        <ele>77.4</ele>
        <time>2022-01-16T09:06:49Z</time>
      </trkpt>
      <trkpt lat="43.3330160" lon="-3.1088670">
        <ele>77.2</ele>
        <time>2022-01-16T09:06:50Z</time>
      </trkpt>
      <trkpt lat="43.3329500" lon="-3.1089260">
        <ele>77.2</ele>
        <time>2022-01-16T09:06:51Z</time>
      </trkpt>
      <trkpt lat="43.3328860" lon="-3.1089910">
        <ele>77.2</ele>
        <time>2022-01-16T09:06:52Z</time>
      </trkpt>
      <trkpt lat="43.3328270" lon="-3.1090630">
        <ele>77.2</ele>
        <time>2022-01-16T09:06:53Z</time>
      </trkpt>
      <trkpt lat="43.3327710" lon="-3.1091420">
        <ele>77.2</ele>
        <time>2022-01-16T09:06:54Z</time>
      </trkpt>
      <trkpt lat="43.3327200" lon="-3.1092260">
        <ele>77.0</ele>
        <time>2022-01-16T09:06:55Z</time>
      </trkpt>
      <trkpt lat="43.3326710" lon="-3.1093140">
        <ele>77.0</ele>
        <time>2022-01-16T09:06:56Z</time>
      </trkpt>
      <trkpt lat="43.3326240" lon="-3.1094070">
        <ele>76.8</ele>
        <time>2022-01-16T09:06:57Z</time>
      </trkpt>
      <trkpt lat="43.3325830" lon="-3.1095030">
        <ele>76.8</ele>
        <time>2022-01-16T09:06:58Z</time>
      </trkpt>
      <trkpt lat="43.3325480" lon="-3.1096030">
        <ele>76.8</ele>
        <time>2022-01-16T09:06:59Z</time>
      </trkpt>
      <trkpt lat="43.3325190" lon="-3.1097020">
        <ele>76.8</ele>
        <time>2022-01-16T09:07:00Z</time>
      </trkpt>
      <trkpt lat="43.3324940" lon="-3.1098040">
        <ele>76.8</ele>
        <time>2022-01-16T09:07:01Z</time>
      </trkpt>
      <trkpt lat="43.3324760" lon="-3.1099050">
        <ele>76.8</ele>
        <time>2022-01-16T09:07:02Z</time>
      </trkpt>
      <trkpt lat="43.3324590" lon="-3.1100110">
        <ele>76.8</ele>
        <time>2022-01-16T09:07:03Z</time>
      </trkpt>
      <trkpt lat="43.3324410" lon="-3.1101160">
        <ele>76.8</ele>
        <time>2022-01-16T09:07:04Z</time>
      </trkpt>
      <trkpt lat="43.3324230" lon="-3.1102220">
        <ele>76.8</ele>
        <time>2022-01-16T09:07:05Z</time>
      </trkpt>
      <trkpt lat="43.3324060" lon="-3.1103260">
        <ele>76.8</ele>
        <time>2022-01-16T09:07:06Z</time>
      </trkpt>
      <trkpt lat="43.3323880" lon="-3.1104290">
        <ele>76.8</ele>
        <time>2022-01-16T09:07:07Z</time>
      </trkpt>
      <trkpt lat="43.3323690" lon="-3.1105310">
        <ele>76.8</ele>
        <time>2022-01-16T09:07:08Z</time>
      </trkpt>
      <trkpt lat="43.3323510" lon="-3.1106300">
        <ele>76.8</ele>
        <time>2022-01-16T09:07:09Z</time>
      </trkpt>
      <trkpt lat="43.3323330" lon="-3.1107270">
        <ele>77.0</ele>
        <time>2022-01-16T09:07:10Z</time>
      </trkpt>
      <trkpt lat="43.3323140" lon="-3.1108230">
        <ele>77.0</ele>
        <time>2022-01-16T09:07:11Z</time>
      </trkpt>
      <trkpt lat="43.3322940" lon="-3.1109170">
        <ele>77.0</ele>
        <time>2022-01-16T09:07:12Z</time>
      </trkpt>
      <trkpt lat="43.3322730" lon="-3.1110090">
        <ele>77.2</ele>
        <time>2022-01-16T09:07:13Z</time>
      </trkpt>
      <trkpt lat="43.3322530" lon="-3.1111010">
        <ele>77.2</ele>
        <time>2022-01-16T09:07:14Z</time>
      </trkpt>
      <trkpt lat="43.3322320" lon="-3.1111920">
        <ele>77.2</ele>
        <time>2022-01-16T09:07:15Z</time>
      </trkpt>
      <trkpt lat="43.3322100" lon="-3.1112840">
        <ele>77.2</ele>
        <time>2022-01-16T09:07:16Z</time>
      </trkpt>
      <trkpt lat="43.3321880" lon="-3.1113750">
        <ele>77.2</ele>
        <time>2022-01-16T09:07:17Z</time>
      </trkpt>
      <trkpt lat="43.3321660" lon="-3.1114650">
        <ele>77.2</ele>
        <time>2022-01-16T09:07:18Z</time>
      </trkpt>
      <trkpt lat="43.3321440" lon="-3.1115540">
        <ele>77.2</ele>
        <time>2022-01-16T09:07:19Z</time>
      </trkpt>
      <trkpt lat="43.3321200" lon="-3.1116450">
        <ele>77.4</ele>
        <time>2022-01-16T09:07:20Z</time>
      </trkpt>
      <trkpt lat="43.3320960" lon="-3.1117340">
        <ele>77.4</ele>
        <time>2022-01-16T09:07:21Z</time>
      </trkpt>
      <trkpt lat="43.3320730" lon="-3.1118230">
        <ele>77.6</ele>
        <time>2022-01-16T09:07:22Z</time>
      </trkpt>
      <trkpt lat="43.3320490" lon="-3.1119140">
        <ele>77.6</ele>
        <time>2022-01-16T09:07:23Z</time>
      </trkpt>
      <trkpt lat="43.3320240" lon="-3.1120040">
        <ele>77.8</ele>
        <time>2022-01-16T09:07:24Z</time>
      </trkpt>
      <trkpt lat="43.3319990" lon="-3.1120940">
        <ele>77.6</ele>
        <time>2022-01-16T09:07:25Z</time>
      </trkpt>
      <trkpt lat="43.3319740" lon="-3.1121850">
        <ele>77.6</ele>
        <time>2022-01-16T09:07:26Z</time>
      </trkpt>
      <trkpt lat="43.3319500" lon="-3.1122740">
        <ele>77.4</ele>
        <time>2022-01-16T09:07:27Z</time>
      </trkpt>
      <trkpt lat="43.3319260" lon="-3.1123630">
        <ele>77.4</ele>
        <time>2022-01-16T09:07:28Z</time>
      </trkpt>
      <trkpt lat="43.3319010" lon="-3.1124530">
        <ele>77.6</ele>
        <time>2022-01-16T09:07:29Z</time>
      </trkpt>
      <trkpt lat="43.3318760" lon="-3.1125430">
        <ele>77.6</ele>
        <time>2022-01-16T09:07:30Z</time>
      </trkpt>
      <trkpt lat="43.3318490" lon="-3.1126350">
        <ele>77.6</ele>
        <time>2022-01-16T09:07:31Z</time>
      </trkpt>
      <trkpt lat="43.3318190" lon="-3.1127270">
        <ele>77.6</ele>
        <time>2022-01-16T09:07:32Z</time>
      </trkpt>
      <trkpt lat="43.3317860" lon="-3.1128200">
        <ele>77.6</ele>
        <time>2022-01-16T09:07:33Z</time>
      </trkpt>
      <trkpt lat="43.3317500" lon="-3.1129080">
        <ele>77.4</ele>
        <time>2022-01-16T09:07:34Z</time>
      </trkpt>
      <trkpt lat="43.3317090" lon="-3.1129930">
        <ele>77.2</ele>
        <time>2022-01-16T09:07:35Z</time>
      </trkpt>
      <trkpt lat="43.3316650" lon="-3.1130720">
        <ele>77.2</ele>
        <time>2022-01-16T09:07:36Z</time>
      </trkpt>
      <trkpt lat="43.3316170" lon="-3.1131480">
        <ele>77.0</ele>
        <time>2022-01-16T09:07:37Z</time>
      </trkpt>
      <trkpt lat="43.3315660" lon="-3.1132200">
        <ele>76.8</ele>
        <time>2022-01-16T09:07:38Z</time>
      </trkpt>
      <trkpt lat="43.3315110" lon="-3.1132880">
        <ele>76.8</ele>
        <time>2022-01-16T09:07:39Z</time>
      </trkpt>
      <trkpt lat="43.3314530" lon="-3.1133500">
        <ele>76.8</ele>
        <time>2022-01-16T09:07:40Z</time>
      </trkpt>
      <trkpt lat="43.3313930" lon="-3.1134080">
        <ele>76.8</ele>
        <time>2022-01-16T09:07:41Z</time>
      </trkpt>
      <trkpt lat="43.3313320" lon="-3.1134640">
        <ele>76.8</ele>
        <time>2022-01-16T09:07:42Z</time>
      </trkpt>
      <trkpt lat="43.3312720" lon="-3.1135220">
        <ele>76.8</ele>
        <time>2022-01-16T09:07:43Z</time>
      </trkpt>
      <trkpt lat="43.3312140" lon="-3.1135820">
        <ele>76.8</ele>
        <time>2022-01-16T09:07:44Z</time>
      </trkpt>
      <trkpt lat="43.3311570" lon="-3.1136470">
        <ele>77.0</ele>
        <time>2022-01-16T09:07:45Z</time>
      </trkpt>
      <trkpt lat="43.3311040" lon="-3.1137170">
        <ele>77.0</ele>
        <time>2022-01-16T09:07:46Z</time>
      </trkpt>
      <trkpt lat="43.3310540" lon="-3.1137900">
        <ele>77.2</ele>
        <time>2022-01-16T09:07:47Z</time>
      </trkpt>
      <trkpt lat="43.3310060" lon="-3.1138700">
        <ele>77.2</ele>
        <time>2022-01-16T09:07:48Z</time>
      </trkpt>
      <trkpt lat="43.3309620" lon="-3.1139550">
        <ele>77.2</ele>
        <time>2022-01-16T09:07:49Z</time>
      </trkpt>
      <trkpt lat="43.3309220" lon="-3.1140410">
        <ele>77.2</ele>
        <time>2022-01-16T09:07:50Z</time>
      </trkpt>
      <trkpt lat="43.3308830" lon="-3.1141290">
        <ele>77.2</ele>
        <time>2022-01-16T09:07:51Z</time>
      </trkpt>
      <trkpt lat="43.3308450" lon="-3.1142170">
        <ele>77.2</ele>
        <time>2022-01-16T09:07:52Z</time>
      </trkpt>
      <trkpt lat="43.3308080" lon="-3.1143040">
        <ele>77.2</ele>
        <time>2022-01-16T09:07:53Z</time>
      </trkpt>
      <trkpt lat="43.3307690" lon="-3.1143940">
        <ele>77.2</ele>
        <time>2022-01-16T09:07:54Z</time>
      </trkpt>
      <trkpt lat="43.3307300" lon="-3.1144840">
        <ele>77.0</ele>
        <time>2022-01-16T09:07:55Z</time>
      </trkpt>
      <trkpt lat="43.3306910" lon="-3.1145760">
        <ele>77.0</ele>
        <time>2022-01-16T09:07:56Z</time>
      </trkpt>
      <trkpt lat="43.3306530" lon="-3.1146670">
        <ele>77.0</ele>
        <time>2022-01-16T09:07:57Z</time>
      </trkpt>
      <trkpt lat="43.3306150" lon="-3.1147580">
        <ele>77.0</ele>
        <time>2022-01-16T09:07:58Z</time>
      </trkpt>
      <trkpt lat="43.3305780" lon="-3.1148480">
        <ele>77.0</ele>
        <time>2022-01-16T09:07:59Z</time>
      </trkpt>
      <trkpt lat="43.3305410" lon="-3.1149360">
        <ele>77.2</ele>
        <time>2022-01-16T09:08:00Z</time>
      </trkpt>
      <trkpt lat="43.3305050" lon="-3.1150260">
        <ele>77.2</ele>
        <time>2022-01-16T09:08:01Z</time>
      </trkpt>
      <trkpt lat="43.3304700" lon="-3.1151170">
        <ele>77.2</ele>
        <time>2022-01-16T09:08:02Z</time>
      </trkpt>
      <trkpt lat="43.3304360" lon="-3.1152080">
        <ele>77.2</ele>
        <time>2022-01-16T09:08:03Z</time>
      </trkpt>
      <trkpt lat="43.3304050" lon="-3.1153000">
        <ele>77.2</ele>
        <time>2022-01-16T09:08:04Z</time>
      </trkpt>
      <trkpt lat="43.3303770" lon="-3.1153900">
        <ele>77.2</ele>
        <time>2022-01-16T09:08:05Z</time>
      </trkpt>
      <trkpt lat="43.3303520" lon="-3.1154800">
        <ele>77.0</ele>
        <time>2022-01-16T09:08:06Z</time>
      </trkpt>
      <trkpt lat="43.3303300" lon="-3.1155690">
        <ele>77.0</ele>
        <time>2022-01-16T09:08:07Z</time>
      </trkpt>
      <trkpt lat="43.3303090" lon="-3.1156610">
        <ele>77.0</ele>
        <time>2022-01-16T09:08:08Z</time>
      </trkpt>
      <trkpt lat="43.3302870" lon="-3.1157570">
        <ele>77.0</ele>
        <time>2022-01-16T09:08:09Z</time>
      </trkpt>
      <trkpt lat="43.3302690" lon="-3.1158470">
        <ele>77.0</ele>
        <time>2022-01-16T09:08:10Z</time>
      </trkpt>
      <trkpt lat="43.3302510" lon="-3.1159410">
        <ele>77.0</ele>
        <time>2022-01-16T09:08:11Z</time>
      </trkpt>
      <trkpt lat="43.3302330" lon="-3.1160360">
        <ele>77.0</ele>
        <time>2022-01-16T09:08:12Z</time>
      </trkpt>
      <trkpt lat="43.3302150" lon="-3.1161320">
        <ele>77.0</ele>
        <time>2022-01-16T09:08:13Z</time>
      </trkpt>
      <trkpt lat="43.3301960" lon="-3.1162270">
        <ele>77.0</ele>
        <time>2022-01-16T09:08:14Z</time>
      </trkpt>
      <trkpt lat="43.3301780" lon="-3.1163210">
        <ele>76.8</ele>
        <time>2022-01-16T09:08:15Z</time>
      </trkpt>
      <trkpt lat="43.3301610" lon="-3.1164100">
        <ele>76.8</ele>
        <time>2022-01-16T09:08:16Z</time>
      </trkpt>
      <trkpt lat="43.3301450" lon="-3.1164960">
        <ele>76.8</ele>
        <time>2022-01-16T09:08:17Z</time>
      </trkpt>
      <trkpt lat="43.3301270" lon="-3.1165860">
        <ele>76.6</ele>
        <time>2022-01-16T09:08:18Z</time>
      </trkpt>
      <trkpt lat="43.3301080" lon="-3.1166750">
        <ele>76.6</ele>
        <time>2022-01-16T09:08:19Z</time>
      </trkpt>
      <trkpt lat="43.3300890" lon="-3.1167670">
        <ele>76.4</ele>
        <time>2022-01-16T09:08:20Z</time>
      </trkpt>
      <trkpt lat="43.3300680" lon="-3.1168600">
        <ele>76.4</ele>
        <time>2022-01-16T09:08:21Z</time>
      </trkpt>
      <trkpt lat="43.3300460" lon="-3.1169550">
        <ele>76.4</ele>
        <time>2022-01-16T09:08:22Z</time>
      </trkpt>
      <trkpt lat="43.3300210" lon="-3.1170500">
        <ele>76.2</ele>
        <time>2022-01-16T09:08:23Z</time>
      </trkpt>
      <trkpt lat="43.3299970" lon="-3.1171380">
        <ele>76.2</ele>
        <time>2022-01-16T09:08:24Z</time>
      </trkpt>
      <trkpt lat="43.3299690" lon="-3.1172280">
        <ele>76.2</ele>
        <time>2022-01-16T09:08:25Z</time>
      </trkpt>
      <trkpt lat="43.3299370" lon="-3.1173220">
        <ele>76.2</ele>
        <time>2022-01-16T09:08:26Z</time>
      </trkpt>
      <trkpt lat="43.3299040" lon="-3.1174100">
        <ele>76.2</ele>
        <time>2022-01-16T09:08:27Z</time>
      </trkpt>
      <trkpt lat="43.3298690" lon="-3.1174990">
        <ele>76.2</ele>
        <time>2022-01-16T09:08:28Z</time>
      </trkpt>
      <trkpt lat="43.3298310" lon="-3.1175850">
        <ele>76.4</ele>
        <time>2022-01-16T09:08:29Z</time>
      </trkpt>
      <trkpt lat="43.3297890" lon="-3.1176700">
        <ele>76.4</ele>
        <time>2022-01-16T09:08:30Z</time>
      </trkpt>
      <trkpt lat="43.3297440" lon="-3.1177530">
        <ele>76.4</ele>
        <time>2022-01-16T09:08:31Z</time>
      </trkpt>
      <trkpt lat="43.3296990" lon="-3.1178330">
        <ele>76.4</ele>
        <time>2022-01-16T09:08:32Z</time>
      </trkpt>
      <trkpt lat="43.3296530" lon="-3.1179110">
        <ele>76.4</ele>
        <time>2022-01-16T09:08:33Z</time>
      </trkpt>
      <trkpt lat="43.3296050" lon="-3.1179850">
        <ele>76.4</ele>
        <time>2022-01-16T09:08:34Z</time>
      </trkpt>
      <trkpt lat="43.3295560" lon="-3.1180560">
        <ele>76.4</ele>
        <time>2022-01-16T09:08:35Z</time>
      </trkpt>
      <trkpt lat="43.3295070" lon="-3.1181280">
        <ele>76.4</ele>
        <time>2022-01-16T09:08:36Z</time>
      </trkpt>
      <trkpt lat="43.3294590" lon="-3.1181980">
        <ele>76.4</ele>
        <time>2022-01-16T09:08:37Z</time>
      </trkpt>
      <trkpt lat="43.3294110" lon="-3.1182670">
        <ele>76.2</ele>
        <time>2022-01-16T09:08:38Z</time>
      </trkpt>
      <trkpt lat="43.3293630" lon="-3.1183360">
        <ele>76.0</ele>
        <time>2022-01-16T09:08:39Z</time>
      </trkpt>
      <trkpt lat="43.3293130" lon="-3.1184040">
        <ele>76.2</ele>
        <time>2022-01-16T09:08:40Z</time>
      </trkpt>
      <trkpt lat="43.3292620" lon="-3.1184700">
        <ele>76.2</ele>
        <time>2022-01-16T09:08:41Z</time>
      </trkpt>
      <trkpt lat="43.3292120" lon="-3.1185350">
        <ele>76.0</ele>
        <time>2022-01-16T09:08:42Z</time>
      </trkpt>
      <trkpt lat="43.3291620" lon="-3.1186020">
        <ele>76.0</ele>
        <time>2022-01-16T09:08:43Z</time>
      </trkpt>
      <trkpt lat="43.3291100" lon="-3.1186690">
        <ele>76.0</ele>
        <time>2022-01-16T09:08:44Z</time>
      </trkpt>
      <trkpt lat="43.3290570" lon="-3.1187360">
        <ele>76.2</ele>
        <time>2022-01-16T09:08:45Z</time>
      </trkpt>
      <trkpt lat="43.3290020" lon="-3.1188090">
        <ele>76.0</ele>
        <time>2022-01-16T09:08:46Z</time>
      </trkpt>
      <trkpt lat="43.3289490" lon="-3.1188810">
        <ele>76.0</ele>
        <time>2022-01-16T09:08:47Z</time>
      </trkpt>
      <trkpt lat="43.3288950" lon="-3.1189530">
        <ele>76.2</ele>
        <time>2022-01-16T09:08:48Z</time>
      </trkpt>
      <trkpt lat="43.3288410" lon="-3.1190250">
        <ele>76.0</ele>
        <time>2022-01-16T09:08:49Z</time>
      </trkpt>
      <trkpt lat="43.3287880" lon="-3.1190950">
        <ele>76.0</ele>
        <time>2022-01-16T09:08:50Z</time>
      </trkpt>
      <trkpt lat="43.3287360" lon="-3.1191650">
        <ele>76.4</ele>
        <time>2022-01-16T09:08:51Z</time>
      </trkpt>
      <trkpt lat="43.3286850" lon="-3.1192350">
        <ele>76.4</ele>
        <time>2022-01-16T09:08:52Z</time>
      </trkpt>
      <trkpt lat="43.3286330" lon="-3.1193050">
        <ele>76.2</ele>
        <time>2022-01-16T09:08:53Z</time>
      </trkpt>
      <trkpt lat="43.3285820" lon="-3.1193770">
        <ele>76.4</ele>
        <time>2022-01-16T09:08:54Z</time>
      </trkpt>
      <trkpt lat="43.3285310" lon="-3.1194490">
        <ele>76.4</ele>
        <time>2022-01-16T09:08:55Z</time>
      </trkpt>
      <trkpt lat="43.3284800" lon="-3.1195230">
        <ele>76.2</ele>
        <time>2022-01-16T09:08:56Z</time>
      </trkpt>
      <trkpt lat="43.3284300" lon="-3.1195980">
        <ele>76.4</ele>
        <time>2022-01-16T09:08:57Z</time>
      </trkpt>
      <trkpt lat="43.3283830" lon="-3.1196760">
        <ele>76.4</ele>
        <time>2022-01-16T09:08:58Z</time>
      </trkpt>
      <trkpt lat="43.3283370" lon="-3.1197570">
        <ele>76.4</ele>
        <time>2022-01-16T09:08:59Z</time>
      </trkpt>
      <trkpt lat="43.3282940" lon="-3.1198410">
        <ele>76.4</ele>
        <time>2022-01-16T09:09:00Z</time>
      </trkpt>
      <trkpt lat="43.3282520" lon="-3.1199280">
        <ele>76.4</ele>
        <time>2022-01-16T09:09:01Z</time>
      </trkpt>
      <trkpt lat="43.3282120" lon="-3.1200160">
        <ele>76.4</ele>
        <time>2022-01-16T09:09:02Z</time>
      </trkpt>
      <trkpt lat="43.3281730" lon="-3.1201060">
        <ele>76.4</ele>
        <time>2022-01-16T09:09:03Z</time>
      </trkpt>
      <trkpt lat="43.3281340" lon="-3.1201970">
        <ele>76.2</ele>
        <time>2022-01-16T09:09:04Z</time>
      </trkpt>
      <trkpt lat="43.3280950" lon="-3.1202880">
        <ele>76.0</ele>
        <time>2022-01-16T09:09:05Z</time>
      </trkpt>
      <trkpt lat="43.3280540" lon="-3.1203790">
        <ele>76.0</ele>
        <time>2022-01-16T09:09:06Z</time>
      </trkpt>
      <trkpt lat="43.3280120" lon="-3.1204680">
        <ele>76.0</ele>
        <time>2022-01-16T09:09:07Z</time>
      </trkpt>
      <trkpt lat="43.3279700" lon="-3.1205530">
        <ele>76.0</ele>
        <time>2022-01-16T09:09:08Z</time>
      </trkpt>
      <trkpt lat="43.3279260" lon="-3.1206350">
        <ele>75.8</ele>
        <time>2022-01-16T09:09:09Z</time>
      </trkpt>
      <trkpt lat="43.3278810" lon="-3.1207120">
        <ele>75.8</ele>
        <time>2022-01-16T09:09:10Z</time>
      </trkpt>
      <trkpt lat="43.3278350" lon="-3.1207870">
        <ele>75.8</ele>
        <time>2022-01-16T09:09:11Z</time>
      </trkpt>
      <trkpt lat="43.3277860" lon="-3.1208590">
        <ele>75.8</ele>
        <time>2022-01-16T09:09:12Z</time>
      </trkpt>
      <trkpt lat="43.3277350" lon="-3.1209280">
        <ele>75.8</ele>
        <time>2022-01-16T09:09:13Z</time>
      </trkpt>
      <trkpt lat="43.3276800" lon="-3.1209960">
        <ele>75.8</ele>
        <time>2022-01-16T09:09:14Z</time>
      </trkpt>
      <trkpt lat="43.3276240" lon="-3.1210670">
        <ele>75.8</ele>
        <time>2022-01-16T09:09:15Z</time>
      </trkpt>
      <trkpt lat="43.3275650" lon="-3.1211370">
        <ele>75.6</ele>
        <time>2022-01-16T09:09:16Z</time>
      </trkpt>
      <trkpt lat="43.3275030" lon="-3.1212040">
        <ele>75.6</ele>
        <time>2022-01-16T09:09:17Z</time>
      </trkpt>
      <trkpt lat="43.3274400" lon="-3.1212660">
        <ele>75.6</ele>
        <time>2022-01-16T09:09:18Z</time>
      </trkpt>
      <trkpt lat="43.3273740" lon="-3.1213250">
        <ele>75.6</ele>
        <time>2022-01-16T09:09:19Z</time>
      </trkpt>
      <trkpt lat="43.3273070" lon="-3.1213800">
        <ele>75.6</ele>
        <time>2022-01-16T09:09:20Z</time>
      </trkpt>
      <trkpt lat="43.3272370" lon="-3.1214330">
        <ele>75.8</ele>
        <time>2022-01-16T09:09:21Z</time>
      </trkpt>
      <trkpt lat="43.3271670" lon="-3.1214840">
        <ele>75.8</ele>
        <time>2022-01-16T09:09:22Z</time>
      </trkpt>
      <trkpt lat="43.3270940" lon="-3.1215300">
        <ele>75.8</ele>
        <time>2022-01-16T09:09:23Z</time>
      </trkpt>
      <trkpt lat="43.3270200" lon="-3.1215720">
        <ele>75.8</ele>
        <time>2022-01-16T09:09:24Z</time>
      </trkpt>
      <trkpt lat="43.3269430" lon="-3.1216060">
        <ele>75.8</ele>
        <time>2022-01-16T09:09:25Z</time>
      </trkpt>
      <trkpt lat="43.3268670" lon="-3.1216360">
        <ele>75.8</ele>
        <time>2022-01-16T09:09:26Z</time>
      </trkpt>
      <trkpt lat="43.3267890" lon="-3.1216590">
        <ele>75.8</ele>
        <time>2022-01-16T09:09:27Z</time>
      </trkpt>
      <trkpt lat="43.3267100" lon="-3.1216730">
        <ele>75.8</ele>
        <time>2022-01-16T09:09:28Z</time>
      </trkpt>
      <trkpt lat="43.3266320" lon="-3.1216780">
        <ele>75.8</ele>
        <time>2022-01-16T09:09:29Z</time>
      </trkpt>
      <trkpt lat="43.3265550" lon="-3.1216760">
        <ele>75.8</ele>
        <time>2022-01-16T09:09:30Z</time>
      </trkpt>
      <trkpt lat="43.3264790" lon="-3.1216650">
        <ele>76.0</ele>
        <time>2022-01-16T09:09:31Z</time>
      </trkpt>
      <trkpt lat="43.3264040" lon="-3.1216470">
        <ele>76.0</ele>
        <time>2022-01-16T09:09:32Z</time>
      </trkpt>
      <trkpt lat="43.3263300" lon="-3.1216220">
        <ele>76.0</ele>
        <time>2022-01-16T09:09:33Z</time>
      </trkpt>
      <trkpt lat="43.3262590" lon="-3.1215900">
        <ele>76.2</ele>
        <time>2022-01-16T09:09:34Z</time>
      </trkpt>
      <trkpt lat="43.3261890" lon="-3.1215520">
        <ele>76.2</ele>
        <time>2022-01-16T09:09:35Z</time>
      </trkpt>
      <trkpt lat="43.3261210" lon="-3.1215090">
        <ele>76.2</ele>
        <time>2022-01-16T09:09:36Z</time>
      </trkpt>
      <trkpt lat="43.3260540" lon="-3.1214590">
        <ele>76.2</ele>
        <time>2022-01-16T09:09:37Z</time>
      </trkpt>
      <trkpt lat="43.3259910" lon="-3.1214000">
        <ele>76.2</ele>
        <time>2022-01-16T09:09:38Z</time>
      </trkpt>
      <trkpt lat="43.3259310" lon="-3.1213340">
        <ele>76.4</ele>
        <time>2022-01-16T09:09:39Z</time>
      </trkpt>
      <trkpt lat="43.3258750" lon="-3.1212650">
        <ele>76.4</ele>
        <time>2022-01-16T09:09:40Z</time>
      </trkpt>
      <trkpt lat="43.3258230" lon="-3.1211880">
        <ele>76.4</ele>
        <time>2022-01-16T09:09:41Z</time>
      </trkpt>
      <trkpt lat="43.3257760" lon="-3.1211060">
        <ele>76.6</ele>
        <time>2022-01-16T09:09:42Z</time>
      </trkpt>
      <trkpt lat="43.3257330" lon="-3.1210200">
        <ele>76.8</ele>
        <time>2022-01-16T09:09:43Z</time>
      </trkpt>
      <trkpt lat="43.3256940" lon="-3.1209300">
        <ele>77.0</ele>
        <time>2022-01-16T09:09:44Z</time>
      </trkpt>
      <trkpt lat="43.3256580" lon="-3.1208390">
        <ele>76.8</ele>
        <time>2022-01-16T09:09:45Z</time>
      </trkpt>
      <trkpt lat="43.3256240" lon="-3.1207450">
        <ele>76.8</ele>
        <time>2022-01-16T09:09:46Z</time>
      </trkpt>
      <trkpt lat="43.3255920" lon="-3.1206480">
        <ele>76.8</ele>
        <time>2022-01-16T09:09:47Z</time>
      </trkpt>
      <trkpt lat="43.3255620" lon="-3.1205500">
        <ele>77.0</ele>
        <time>2022-01-16T09:09:48Z</time>
      </trkpt>
      <trkpt lat="43.3255300" lon="-3.1204540">
        <ele>76.8</ele>
        <time>2022-01-16T09:09:49Z</time>
      </trkpt>
      <trkpt lat="43.3254970" lon="-3.1203600">
        <ele>76.8</ele>
        <time>2022-01-16T09:09:50Z</time>
      </trkpt>
      <trkpt lat="43.3254640" lon="-3.1202680">
        <ele>77.0</ele>
        <time>2022-01-16T09:09:51Z</time>
      </trkpt>
      <trkpt lat="43.3254310" lon="-3.1201760">
        <ele>77.0</ele>
        <time>2022-01-16T09:09:52Z</time>
      </trkpt>
      <trkpt lat="43.3253950" lon="-3.1200860">
        <ele>77.0</ele>
        <time>2022-01-16T09:09:53Z</time>
      </trkpt>
      <trkpt lat="43.3253570" lon="-3.1199970">
        <ele>77.0</ele>
        <time>2022-01-16T09:09:54Z</time>
      </trkpt>
      <trkpt lat="43.3253190" lon="-3.1199110">
        <ele>77.0</ele>
        <time>2022-01-16T09:09:55Z</time>
      </trkpt>
      <trkpt lat="43.3252790" lon="-3.1198260">
        <ele>77.0</ele>
        <time>2022-01-16T09:09:56Z</time>
      </trkpt>
      <trkpt lat="43.3252380" lon="-3.1197420">
        <ele>77.0</ele>
        <time>2022-01-16T09:09:57Z</time>
      </trkpt>
      <trkpt lat="43.3251940" lon="-3.1196590">
        <ele>77.2</ele>
        <time>2022-01-16T09:09:58Z</time>
      </trkpt>
      <trkpt lat="43.3251480" lon="-3.1195780">
        <ele>77.4</ele>
        <time>2022-01-16T09:09:59Z</time>
      </trkpt>
      <trkpt lat="43.3251000" lon="-3.1194980">
        <ele>77.4</ele>
        <time>2022-01-16T09:10:00Z</time>
      </trkpt>
      <trkpt lat="43.3250500" lon="-3.1194190">
        <ele>77.4</ele>
        <time>2022-01-16T09:10:01Z</time>
      </trkpt>
      <trkpt lat="43.3249990" lon="-3.1193400">
        <ele>77.4</ele>
        <time>2022-01-16T09:10:02Z</time>
      </trkpt>
      <trkpt lat="43.3249460" lon="-3.1192630">
        <ele>77.4</ele>
        <time>2022-01-16T09:10:03Z</time>
      </trkpt>
      <trkpt lat="43.3248930" lon="-3.1191870">
        <ele>77.4</ele>
        <time>2022-01-16T09:10:04Z</time>
      </trkpt>
      <trkpt lat="43.3248390" lon="-3.1191140">
        <ele>77.2</ele>
        <time>2022-01-16T09:10:05Z</time>
      </trkpt>
      <trkpt lat="43.3247840" lon="-3.1190430">
        <ele>77.2</ele>
        <time>2022-01-16T09:10:06Z</time>
      </trkpt>
      <trkpt lat="43.3247300" lon="-3.1189720">
        <ele>77.0</ele>
        <time>2022-01-16T09:10:07Z</time>
      </trkpt>
      <trkpt lat="43.3246770" lon="-3.1189040">
        <ele>77.0</ele>
        <time>2022-01-16T09:10:08Z</time>
      </trkpt>
      <trkpt lat="43.3246240" lon="-3.1188390">
        <ele>77.0</ele>
        <time>2022-01-16T09:10:09Z</time>
      </trkpt>
      <trkpt lat="43.3245730" lon="-3.1187760">
        <ele>77.0</ele>
        <time>2022-01-16T09:10:10Z</time>
      </trkpt>
      <trkpt lat="43.3245250" lon="-3.1187150">
        <ele>77.0</ele>
        <time>2022-01-16T09:10:11Z</time>
      </trkpt>
      <trkpt lat="43.3244770" lon="-3.1186540">
        <ele>77.0</ele>
        <time>2022-01-16T09:10:12Z</time>
      </trkpt>
      <trkpt lat="43.3244300" lon="-3.1185920">
        <ele>77.0</ele>
        <time>2022-01-16T09:10:13Z</time>
      </trkpt>
      <trkpt lat="43.3243810" lon="-3.1185280">
        <ele>77.2</ele>
        <time>2022-01-16T09:10:14Z</time>
      </trkpt>
      <trkpt lat="43.3243320" lon="-3.1184640">
        <ele>77.2</ele>
        <time>2022-01-16T09:10:15Z</time>
      </trkpt>
      <trkpt lat="43.3242820" lon="-3.1183990">
        <ele>77.2</ele>
        <time>2022-01-16T09:10:16Z</time>
      </trkpt>
      <trkpt lat="43.3242330" lon="-3.1183310">
        <ele>77.2</ele>
        <time>2022-01-16T09:10:17Z</time>
      </trkpt>
      <trkpt lat="43.3241860" lon="-3.1182600">
        <ele>77.2</ele>
        <time>2022-01-16T09:10:18Z</time>
      </trkpt>
      <trkpt lat="43.3241380" lon="-3.1181900">
        <ele>77.4</ele>
        <time>2022-01-16T09:10:19Z</time>
      </trkpt>
      <trkpt lat="43.3240910" lon="-3.1181190">
        <ele>77.6</ele>
        <time>2022-01-16T09:10:20Z</time>
      </trkpt>
      <trkpt lat="43.3240440" lon="-3.1180450">
        <ele>77.6</ele>
        <time>2022-01-16T09:10:21Z</time>
      </trkpt>
      <trkpt lat="43.3240010" lon="-3.1179710">
        <ele>77.6</ele>
        <time>2022-01-16T09:10:22Z</time>
      </trkpt>
      <trkpt lat="43.3239620" lon="-3.1178970">
        <ele>77.8</ele>
        <time>2022-01-16T09:10:23Z</time>
      </trkpt>
      <trkpt lat="43.3239260" lon="-3.1178250">
        <ele>78.0</ele>
        <time>2022-01-16T09:10:24Z</time>
      </trkpt>
      <trkpt lat="43.3238930" lon="-3.1177550">
        <ele>78.2</ele>
        <time>2022-01-16T09:10:25Z</time>
      </trkpt>
      <trkpt lat="43.3238640" lon="-3.1176910">
        <ele>78.4</ele>
        <time>2022-01-16T09:10:26Z</time>
      </trkpt>
      <trkpt lat="43.3238370" lon="-3.1176320">
        <ele>78.6</ele>
        <time>2022-01-16T09:10:27Z</time>
      </trkpt>
      <trkpt lat="43.3238130" lon="-3.1175780">
        <ele>78.8</ele>
        <time>2022-01-16T09:10:28Z</time>
      </trkpt>
      <trkpt lat="43.3237880" lon="-3.1175300">
        <ele>78.8</ele>
        <time>2022-01-16T09:10:29Z</time>
      </trkpt>
      <trkpt lat="43.3237550" lon="-3.1174940">
        <ele>78.8</ele>
        <time>2022-01-16T09:10:30Z</time>
      </trkpt>
      <trkpt lat="43.3237130" lon="-3.1174810">
        <ele>78.6</ele>
        <time>2022-01-16T09:10:31Z</time>
      </trkpt>
      <trkpt lat="43.3236690" lon="-3.1174890">
        <ele>78.6</ele>
        <time>2022-01-16T09:10:32Z</time>
      </trkpt>
      <trkpt lat="43.3236260" lon="-3.1175130">
        <ele>78.4</ele>
        <time>2022-01-16T09:10:33Z</time>
      </trkpt>
      <trkpt lat="43.3235770" lon="-3.1175390">
        <ele>78.4</ele>
        <time>2022-01-16T09:10:34Z</time>
      </trkpt>
      <trkpt lat="43.3235250" lon="-3.1175740">
        <ele>78.4</ele>
        <time>2022-01-16T09:10:35Z</time>
      </trkpt>
      <trkpt lat="43.3234690" lon="-3.1176130">
        <ele>78.4</ele>
        <time>2022-01-16T09:10:36Z</time>
      </trkpt>
      <trkpt lat="43.3234110" lon="-3.1176530">
        <ele>78.4</ele>
        <time>2022-01-16T09:10:37Z</time>
      </trkpt>
      <trkpt lat="43.3233520" lon="-3.1176960">
        <ele>78.6</ele>
        <time>2022-01-16T09:10:38Z</time>
      </trkpt>
      <trkpt lat="43.3232920" lon="-3.1177370">
        <ele>78.6</ele>
        <time>2022-01-16T09:10:39Z</time>
      </trkpt>
      <trkpt lat="43.3232300" lon="-3.1177770">
        <ele>78.6</ele>
        <time>2022-01-16T09:10:40Z</time>
      </trkpt>
      <trkpt lat="43.3231670" lon="-3.1178190">
        <ele>78.6</ele>
        <time>2022-01-16T09:10:41Z</time>
      </trkpt>
      <trkpt lat="43.3231010" lon="-3.1178620">
        <ele>78.8</ele>
        <time>2022-01-16T09:10:42Z</time>
      </trkpt>
      <trkpt lat="43.3230360" lon="-3.1179030">
        <ele>78.8</ele>
        <time>2022-01-16T09:10:43Z</time>
      </trkpt>
      <trkpt lat="43.3229680" lon="-3.1179430">
        <ele>78.6</ele>
        <time>2022-01-16T09:10:44Z</time>
      </trkpt>
      <trkpt lat="43.3228990" lon="-3.1179810">
        <ele>78.6</ele>
        <time>2022-01-16T09:10:45Z</time>
      </trkpt>
      <trkpt lat="43.3228280" lon="-3.1180150">
        <ele>78.6</ele>
        <time>2022-01-16T09:10:46Z</time>
      </trkpt>
      <trkpt lat="43.3227580" lon="-3.1180420">
        <ele>78.4</ele>
        <time>2022-01-16T09:10:47Z</time>
      </trkpt>
      <trkpt lat="43.3226860" lon="-3.1180630">
        <ele>78.4</ele>
        <time>2022-01-16T09:10:48Z</time>
      </trkpt>
      <trkpt lat="43.3226140" lon="-3.1180780">
        <ele>78.4</ele>
        <time>2022-01-16T09:10:49Z</time>
      </trkpt>
      <trkpt lat="43.3225420" lon="-3.1180870">
        <ele>78.2</ele>
        <time>2022-01-16T09:10:50Z</time>
      </trkpt>
      <trkpt lat="43.3224690" lon="-3.1180870">
        <ele>78.0</ele>
        <time>2022-01-16T09:10:51Z</time>
      </trkpt>
      <trkpt lat="43.3223970" lon="-3.1180830">
        <ele>77.8</ele>
        <time>2022-01-16T09:10:52Z</time>
      </trkpt>
      <trkpt lat="43.3223270" lon="-3.1180750">
        <ele>77.6</ele>
        <time>2022-01-16T09:10:53Z</time>
      </trkpt>
      <trkpt lat="43.3222590" lon="-3.1180590">
        <ele>77.4</ele>
        <time>2022-01-16T09:10:54Z</time>
      </trkpt>
      <trkpt lat="43.3221970" lon="-3.1180410">
        <ele>77.2</ele>
        <time>2022-01-16T09:10:55Z</time>
      </trkpt>
      <trkpt lat="43.3221380" lon="-3.1180170">
        <ele>77.2</ele>
        <time>2022-01-16T09:10:56Z</time>
      </trkpt>
      <trkpt lat="43.3220840" lon="-3.1179900">
        <ele>77.0</ele>
        <time>2022-01-16T09:10:57Z</time>
      </trkpt>
      <trkpt lat="43.3220290" lon="-3.1179670">
        <ele>77.0</ele>
        <time>2022-01-16T09:10:58Z</time>
      </trkpt>
      <trkpt lat="43.3219720" lon="-3.1179590">
        <ele>76.8</ele>
        <time>2022-01-16T09:10:59Z</time>
      </trkpt>
      <trkpt lat="43.3219180" lon="-3.1179840">
        <ele>76.6</ele>
        <time>2022-01-16T09:11:00Z</time>
      </trkpt>
      <trkpt lat="43.3218780" lon="-3.1180440">
        <ele>76.6</ele>
        <time>2022-01-16T09:11:01Z</time>
      </trkpt>
      <trkpt lat="43.3218560" lon="-3.1181230">
        <ele>76.6</ele>
        <time>2022-01-16T09:11:02Z</time>
      </trkpt>
      <trkpt lat="43.3218390" lon="-3.1182090">
        <ele>76.6</ele>
        <time>2022-01-16T09:11:03Z</time>
      </trkpt>
      <trkpt lat="43.3218220" lon="-3.1182980">
        <ele>76.6</ele>
        <time>2022-01-16T09:11:04Z</time>
      </trkpt>
      <trkpt lat="43.3218050" lon="-3.1183880">
        <ele>76.6</ele>
        <time>2022-01-16T09:11:05Z</time>
      </trkpt>
      <trkpt lat="43.3217880" lon="-3.1184780">
        <ele>76.6</ele>
        <time>2022-01-16T09:11:06Z</time>
      </trkpt>
      <trkpt lat="43.3217690" lon="-3.1185690">
        <ele>76.6</ele>
        <time>2022-01-16T09:11:07Z</time>
      </trkpt>
      <trkpt lat="43.3217450" lon="-3.1186590">
        <ele>76.6</ele>
        <time>2022-01-16T09:11:08Z</time>
      </trkpt>
      <trkpt lat="43.3217120" lon="-3.1187450">
        <ele>76.6</ele>
        <time>2022-01-16T09:11:09Z</time>
      </trkpt>
      <trkpt lat="43.3216690" lon="-3.1188230">
        <ele>76.6</ele>
        <time>2022-01-16T09:11:10Z</time>
      </trkpt>
      <trkpt lat="43.3216220" lon="-3.1188980">
        <ele>76.6</ele>
        <time>2022-01-16T09:11:11Z</time>
      </trkpt>
      <trkpt lat="43.3215850" lon="-3.1189790">
        <ele>76.6</ele>
        <time>2022-01-16T09:11:12Z</time>
      </trkpt>
      <trkpt lat="43.3215600" lon="-3.1190730">
        <ele>76.6</ele>
        <time>2022-01-16T09:11:13Z</time>
      </trkpt>
      <trkpt lat="43.3215480" lon="-3.1191740">
        <ele>76.4</ele>
        <time>2022-01-16T09:11:14Z</time>
      </trkpt>
      <trkpt lat="43.3215430" lon="-3.1192790">
        <ele>76.4</ele>
        <time>2022-01-16T09:11:15Z</time>
      </trkpt>
      <trkpt lat="43.3215450" lon="-3.1193850">
        <ele>76.4</ele>
        <time>2022-01-16T09:11:16Z</time>
      </trkpt>
      <trkpt lat="43.3215590" lon="-3.1194860">
        <ele>76.4</ele>
        <time>2022-01-16T09:11:17Z</time>
      </trkpt>
      <trkpt lat="43.3215750" lon="-3.1195870">
        <ele>76.2</ele>
        <time>2022-01-16T09:11:18Z</time>
      </trkpt>
      <trkpt lat="43.3215950" lon="-3.1196890">
        <ele>76.2</ele>
        <time>2022-01-16T09:11:19Z</time>
      </trkpt>
      <trkpt lat="43.3216170" lon="-3.1197890">
        <ele>76.2</ele>
        <time>2022-01-16T09:11:20Z</time>
      </trkpt>
      <trkpt lat="43.3216400" lon="-3.1198870">
        <ele>76.2</ele>
        <time>2022-01-16T09:11:21Z</time>
      </trkpt>
      <trkpt lat="43.3216630" lon="-3.1199850">
        <ele>76.2</ele>
        <time>2022-01-16T09:11:22Z</time>
      </trkpt>
      <trkpt lat="43.3216880" lon="-3.1200790">
        <ele>76.2</ele>
        <time>2022-01-16T09:11:23Z</time>
      </trkpt>
      <trkpt lat="43.3217160" lon="-3.1201720">
        <ele>76.2</ele>
        <time>2022-01-16T09:11:24Z</time>
      </trkpt>
      <trkpt lat="43.3217460" lon="-3.1202610">
        <ele>76.2</ele>
        <time>2022-01-16T09:11:25Z</time>
      </trkpt>
      <trkpt lat="43.3217750" lon="-3.1203480">
        <ele>76.2</ele>
        <time>2022-01-16T09:11:26Z</time>
      </trkpt>
      <trkpt lat="43.3218120" lon="-3.1204300">
        <ele>76.2</ele>
        <time>2022-01-16T09:11:27Z</time>
      </trkpt>
      <trkpt lat="43.3218530" lon="-3.1205110">
        <ele>76.2</ele>
        <time>2022-01-16T09:11:28Z</time>
      </trkpt>
      <trkpt lat="43.3219060" lon="-3.1205790">
        <ele>76.2</ele>
        <time>2022-01-16T09:11:29Z</time>
      </trkpt>
      <trkpt lat="43.3219590" lon="-3.1206510">
        <ele>76.2</ele>
        <time>2022-01-16T09:11:30Z</time>
      </trkpt>
      <trkpt lat="43.3220070" lon="-3.1207250">
        <ele>76.2</ele>
        <time>2022-01-16T09:11:31Z</time>
      </trkpt>
      <trkpt lat="43.3220380" lon="-3.1208160">
        <ele>76.2</ele>
        <time>2022-01-16T09:11:32Z</time>
      </trkpt>
      <trkpt lat="43.3220500" lon="-3.1209160">
        <ele>76.2</ele>
        <time>2022-01-16T09:11:33Z</time>
      </trkpt>
      <trkpt lat="43.3220410" lon="-3.1210200">
        <ele>76.2</ele>
        <time>2022-01-16T09:11:34Z</time>
      </trkpt>
      <trkpt lat="43.3220280" lon="-3.1211260">
        <ele>76.4</ele>
        <time>2022-01-16T09:11:35Z</time>
      </trkpt>
      <trkpt lat="43.3220280" lon="-3.1212320">
        <ele>76.4</ele>
        <time>2022-01-16T09:11:36Z</time>
      </trkpt>
      <trkpt lat="43.3220480" lon="-3.1213380">
        <ele>76.4</ele>
        <time>2022-01-16T09:11:37Z</time>
      </trkpt>
      <trkpt lat="43.3220730" lon="-3.1214410">
        <ele>76.4</ele>
        <time>2022-01-16T09:11:38Z</time>
      </trkpt>
      <trkpt lat="43.3221020" lon="-3.1215390">
        <ele>76.4</ele>
        <time>2022-01-16T09:11:39Z</time>
      </trkpt>
      <trkpt lat="43.3221310" lon="-3.1216360">
        <ele>76.4</ele>
        <time>2022-01-16T09:11:40Z</time>
      </trkpt>
      <trkpt lat="43.3221610" lon="-3.1217280">
        <ele>76.6</ele>
        <time>2022-01-16T09:11:41Z</time>
      </trkpt>
      <trkpt lat="43.3221920" lon="-3.1218180">
        <ele>76.8</ele>
        <time>2022-01-16T09:11:42Z</time>
      </trkpt>
      <trkpt lat="43.3222230" lon="-3.1219050">
        <ele>77.2</ele>
        <time>2022-01-16T09:11:43Z</time>
      </trkpt>
      <trkpt lat="43.3222530" lon="-3.1219900">
        <ele>77.4</ele>
        <time>2022-01-16T09:11:44Z</time>
      </trkpt>
      <trkpt lat="43.3222820" lon="-3.1220720">
        <ele>77.6</ele>
        <time>2022-01-16T09:11:45Z</time>
      </trkpt>
      <trkpt lat="43.3223090" lon="-3.1221510">
        <ele>77.8</ele>
        <time>2022-01-16T09:11:46Z</time>
      </trkpt>
      <trkpt lat="43.3223360" lon="-3.1222300">
        <ele>78.0</ele>
        <time>2022-01-16T09:11:47Z</time>
      </trkpt>
      <trkpt lat="43.3223640" lon="-3.1223050">
        <ele>78.2</ele>
        <time>2022-01-16T09:11:48Z</time>
      </trkpt>
      <trkpt lat="43.3223920" lon="-3.1223840">
        <ele>78.6</ele>
        <time>2022-01-16T09:11:49Z</time>
      </trkpt>
      <trkpt lat="43.3224200" lon="-3.1224630">
        <ele>78.6</ele>
        <time>2022-01-16T09:11:50Z</time>
      </trkpt>
      <trkpt lat="43.3224480" lon="-3.1225410">
        <ele>78.8</ele>
        <time>2022-01-16T09:11:51Z</time>
      </trkpt>
      <trkpt lat="43.3224770" lon="-3.1226180">
        <ele>79.0</ele>
        <time>2022-01-16T09:11:52Z</time>
      </trkpt>
      <trkpt lat="43.3225070" lon="-3.1226960">
        <ele>79.0</ele>
        <time>2022-01-16T09:11:53Z</time>
      </trkpt>
      <trkpt lat="43.3225360" lon="-3.1227770">
        <ele>79.2</ele>
        <time>2022-01-16T09:11:54Z</time>
      </trkpt>
      <trkpt lat="43.3225680" lon="-3.1228520">
        <ele>79.4</ele>
        <time>2022-01-16T09:11:55Z</time>
      </trkpt>
      <trkpt lat="43.3226010" lon="-3.1229200">
        <ele>79.4</ele>
        <time>2022-01-16T09:11:56Z</time>
      </trkpt>
      <trkpt lat="43.3226340" lon="-3.1229860">
        <ele>79.6</ele>
        <time>2022-01-16T09:11:57Z</time>
      </trkpt>
      <trkpt lat="43.3226690" lon="-3.1230470">
        <ele>80.0</ele>
        <time>2022-01-16T09:11:58Z</time>
      </trkpt>
      <trkpt lat="43.3227040" lon="-3.1231060">
        <ele>80.6</ele>
        <time>2022-01-16T09:11:59Z</time>
      </trkpt>
      <trkpt lat="43.3227390" lon="-3.1231630">
        <ele>80.8</ele>
        <time>2022-01-16T09:12:00Z</time>
      </trkpt>
      <trkpt lat="43.3227710" lon="-3.1232210">
        <ele>81.4</ele>
        <time>2022-01-16T09:12:01Z</time>
      </trkpt>
      <trkpt lat="43.3228020" lon="-3.1232790">
        <ele>81.6</ele>
        <time>2022-01-16T09:12:02Z</time>
      </trkpt>
      <trkpt lat="43.3228340" lon="-3.1233330">
        <ele>82.0</ele>
        <time>2022-01-16T09:12:03Z</time>
      </trkpt>
      <trkpt lat="43.3228680" lon="-3.1233810">
        <ele>82.4</ele>
        <time>2022-01-16T09:12:04Z</time>
      </trkpt>
      <trkpt lat="43.3229020" lon="-3.1234280">
        <ele>82.6</ele>
        <time>2022-01-16T09:12:05Z</time>
      </trkpt>
      <trkpt lat="43.3229390" lon="-3.1234720">
        <ele>82.8</ele>
        <time>2022-01-16T09:12:06Z</time>
      </trkpt>
      <trkpt lat="43.3229780" lon="-3.1235180">
        <ele>83.0</ele>
        <time>2022-01-16T09:12:07Z</time>
      </trkpt>
      <trkpt lat="43.3230090" lon="-3.1235730">
        <ele>83.4</ele>
        <time>2022-01-16T09:12:08Z</time>
      </trkpt>
      <trkpt lat="43.3230370" lon="-3.1236290">
        <ele>83.6</ele>
        <time>2022-01-16T09:12:09Z</time>
      </trkpt>
      <trkpt lat="43.3230650" lon="-3.1236840">
        <ele>84.2</ele>
        <time>2022-01-16T09:12:10Z</time>
      </trkpt>
      <trkpt lat="43.3230950" lon="-3.1237380">
        <ele>84.4</ele>
        <time>2022-01-16T09:12:11Z</time>
      </trkpt>
      <trkpt lat="43.3231240" lon="-3.1237960">
        <ele>84.8</ele>
        <time>2022-01-16T09:12:12Z</time>
      </trkpt>
      <trkpt lat="43.3231540" lon="-3.1238530">
        <ele>85.0</ele>
        <time>2022-01-16T09:12:13Z</time>
      </trkpt>
      <trkpt lat="43.3231840" lon="-3.1239100">
        <ele>85.2</ele>
        <time>2022-01-16T09:12:14Z</time>
      </trkpt>
      <trkpt lat="43.3232130" lon="-3.1239680">
        <ele>85.6</ele>
        <time>2022-01-16T09:12:15Z</time>
      </trkpt>
      <trkpt lat="43.3232450" lon="-3.1240230">
        <ele>85.8</ele>
        <time>2022-01-16T09:12:16Z</time>
      </trkpt>
      <trkpt lat="43.3232770" lon="-3.1240770">
        <ele>86.2</ele>
        <time>2022-01-16T09:12:17Z</time>
      </trkpt>
      <trkpt lat="43.3233110" lon="-3.1241300">
        <ele>86.6</ele>
        <time>2022-01-16T09:12:18Z</time>
      </trkpt>
      <trkpt lat="43.3233440" lon="-3.1241830">
        <ele>86.8</ele>
        <time>2022-01-16T09:12:19Z</time>
      </trkpt>
      <trkpt lat="43.3233770" lon="-3.1242380">
        <ele>87.0</ele>
        <time>2022-01-16T09:12:20Z</time>
      </trkpt>
      <trkpt lat="43.3234090" lon="-3.1242870">
        <ele>87.2</ele>
        <time>2022-01-16T09:12:21Z</time>
      </trkpt>
      <trkpt lat="43.3234390" lon="-3.1243400">
        <ele>87.6</ele>
        <time>2022-01-16T09:12:22Z</time>
      </trkpt>
      <trkpt lat="43.3234710" lon="-3.1243920">
        <ele>88.0</ele>
        <time>2022-01-16T09:12:23Z</time>
      </trkpt>
      <trkpt lat="43.3235010" lon="-3.1244440">
        <ele>88.0</ele>
        <time>2022-01-16T09:12:24Z</time>
      </trkpt>
      <trkpt lat="43.3235300" lon="-3.1244960">
        <ele>88.2</ele>
        <time>2022-01-16T09:12:25Z</time>
      </trkpt>
      <trkpt lat="43.3235550" lon="-3.1245480">
        <ele>88.6</ele>
        <time>2022-01-16T09:12:26Z</time>
      </trkpt>
      <trkpt lat="43.3235820" lon="-3.1245970">
        <ele>89.0</ele>
        <time>2022-01-16T09:12:27Z</time>
      </trkpt>
      <trkpt lat="43.3236130" lon="-3.1246480">
        <ele>89.4</ele>
        <time>2022-01-16T09:12:28Z</time>
      </trkpt>
      <trkpt lat="43.3236420" lon="-3.1246990">
        <ele>89.8</ele>
        <time>2022-01-16T09:12:29Z</time>
      </trkpt>
      <trkpt lat="43.3236770" lon="-3.1247540">
        <ele>90.0</ele>
        <time>2022-01-16T09:12:30Z</time>
      </trkpt>
      <trkpt lat="43.3237110" lon="-3.1248090">
        <ele>90.0</ele>
        <time>2022-01-16T09:12:31Z</time>
      </trkpt>
      <trkpt lat="43.3237440" lon="-3.1248660">
        <ele>90.0</ele>
        <time>2022-01-16T09:12:32Z</time>
      </trkpt>
      <trkpt lat="43.3237780" lon="-3.1249220">
        <ele>90.2</ele>
        <time>2022-01-16T09:12:33Z</time>
      </trkpt>
      <trkpt lat="43.3238090" lon="-3.1249770">
        <ele>90.6</ele>
        <time>2022-01-16T09:12:34Z</time>
      </trkpt>
      <trkpt lat="43.3238390" lon="-3.1250300">
        <ele>90.8</ele>
        <time>2022-01-16T09:12:35Z</time>
      </trkpt>
      <trkpt lat="43.3238700" lon="-3.1250830">
        <ele>91.2</ele>
        <time>2022-01-16T09:12:36Z</time>
      </trkpt>
      <trkpt lat="43.3239000" lon="-3.1251380">
        <ele>91.4</ele>
        <time>2022-01-16T09:12:37Z</time>
      </trkpt>
      <trkpt lat="43.3239310" lon="-3.1251920">
        <ele>91.6</ele>
        <time>2022-01-16T09:12:38Z</time>
      </trkpt>
      <trkpt lat="43.3239620" lon="-3.1252480">
        <ele>91.8</ele>
        <time>2022-01-16T09:12:39Z</time>
      </trkpt>
      <trkpt lat="43.3239930" lon="-3.1253010">
        <ele>92.2</ele>
        <time>2022-01-16T09:12:40Z</time>
      </trkpt>
      <trkpt lat="43.3240220" lon="-3.1253570">
        <ele>92.6</ele>
        <time>2022-01-16T09:12:41Z</time>
      </trkpt>
      <trkpt lat="43.3240500" lon="-3.1254110">
        <ele>93.2</ele>
        <time>2022-01-16T09:12:42Z</time>
      </trkpt>
      <trkpt lat="43.3240780" lon="-3.1254640">
        <ele>93.6</ele>
        <time>2022-01-16T09:12:43Z</time>
      </trkpt>
      <trkpt lat="43.3241040" lon="-3.1255180">
        <ele>93.8</ele>
        <time>2022-01-16T09:12:44Z</time>
      </trkpt>
      <trkpt lat="43.3241270" lon="-3.1255760">
        <ele>94.2</ele>
        <time>2022-01-16T09:12:45Z</time>
      </trkpt>
      <trkpt lat="43.3241470" lon="-3.1256300">
        <ele>94.4</ele>
        <time>2022-01-16T09:12:46Z</time>
      </trkpt>
      <trkpt lat="43.3241600" lon="-3.1256910">
        <ele>94.6</ele>
        <time>2022-01-16T09:12:47Z</time>
      </trkpt>
      <trkpt lat="43.3241630" lon="-3.1257550">
        <ele>95.0</ele>
        <time>2022-01-16T09:12:48Z</time>
      </trkpt>
      <trkpt lat="43.3241550" lon="-3.1258180">
        <ele>95.4</ele>
        <time>2022-01-16T09:12:49Z</time>
      </trkpt>
      <trkpt lat="43.3241360" lon="-3.1258780">
        <ele>95.8</ele>
        <time>2022-01-16T09:12:50Z</time>
      </trkpt>
      <trkpt lat="43.3241070" lon="-3.1259300">
        <ele>96.0</ele>
        <time>2022-01-16T09:12:51Z</time>
      </trkpt>
      <trkpt lat="43.3240680" lon="-3.1259710">
        <ele>96.6</ele>
        <time>2022-01-16T09:12:52Z</time>
      </trkpt>
      <trkpt lat="43.3240240" lon="-3.1259960">
        <ele>96.8</ele>
        <time>2022-01-16T09:12:53Z</time>
      </trkpt>
      <trkpt lat="43.3239750" lon="-3.1260070">
        <ele>97.0</ele>
        <time>2022-01-16T09:12:54Z</time>
      </trkpt>
      <trkpt lat="43.3239240" lon="-3.1260000">
        <ele>97.2</ele>
        <time>2022-01-16T09:12:55Z</time>
      </trkpt>
      <trkpt lat="43.3238730" lon="-3.1259820">
        <ele>97.4</ele>
        <time>2022-01-16T09:12:56Z</time>
      </trkpt>
      <trkpt lat="43.3238240" lon="-3.1259570">
        <ele>97.8</ele>
        <time>2022-01-16T09:12:57Z</time>
      </trkpt>
      <trkpt lat="43.3237780" lon="-3.1259270">
        <ele>98.0</ele>
        <time>2022-01-16T09:12:58Z</time>
      </trkpt>
      <trkpt lat="43.3237320" lon="-3.1258940">
        <ele>98.2</ele>
        <time>2022-01-16T09:12:59Z</time>
      </trkpt>
      <trkpt lat="43.3236850" lon="-3.1258580">
        <ele>98.4</ele>
        <time>2022-01-16T09:13:00Z</time>
      </trkpt>
      <trkpt lat="43.3236380" lon="-3.1258230">
        <ele>98.6</ele>
        <time>2022-01-16T09:13:01Z</time>
      </trkpt>
      <trkpt lat="43.3235920" lon="-3.1257870">
        <ele>98.8</ele>
        <time>2022-01-16T09:13:02Z</time>
      </trkpt>
      <trkpt lat="43.3235470" lon="-3.1257510">
        <ele>99.0</ele>
        <time>2022-01-16T09:13:03Z</time>
      </trkpt>
      <trkpt lat="43.3235020" lon="-3.1257150">
        <ele>99.0</ele>
        <time>2022-01-16T09:13:04Z</time>
      </trkpt>
      <trkpt lat="43.3234590" lon="-3.1256810">
        <ele>99.2</ele>
        <time>2022-01-16T09:13:05Z</time>
      </trkpt>
      <trkpt lat="43.3234140" lon="-3.1256420">
        <ele>99.4</ele>
        <time>2022-01-16T09:13:06Z</time>
      </trkpt>
      <trkpt lat="43.3233690" lon="-3.1256050">
        <ele>99.6</ele>
        <time>2022-01-16T09:13:07Z</time>
      </trkpt>
      <trkpt lat="43.3233250" lon="-3.1255690">
        <ele>99.8</ele>
        <time>2022-01-16T09:13:08Z</time>
      </trkpt>
      <trkpt lat="43.3232820" lon="-3.1255340">
        <ele>99.8</ele>
        <time>2022-01-16T09:13:09Z</time>
      </trkpt>
      <trkpt lat="43.3232380" lon="-3.1254970">
        <ele>100.0</ele>
        <time>2022-01-16T09:13:10Z</time>
      </trkpt>
      <trkpt lat="43.3231920" lon="-3.1254610">
        <ele>100.2</ele>
        <time>2022-01-16T09:13:11Z</time>
      </trkpt>
      <trkpt lat="43.3231460" lon="-3.1254280">
        <ele>100.6</ele>
        <time>2022-01-16T09:13:12Z</time>
      </trkpt>
      <trkpt lat="43.3230990" lon="-3.1253790">
        <ele>100.8</ele>
        <time>2022-01-16T09:13:13Z</time>
      </trkpt>
      <trkpt lat="43.3230530" lon="-3.1253410">
        <ele>101.2</ele>
        <time>2022-01-16T09:13:14Z</time>
      </trkpt>
      <trkpt lat="43.3230070" lon="-3.1253030">
        <ele>101.2</ele>
        <time>2022-01-16T09:13:15Z</time>
      </trkpt>
      <trkpt lat="43.3229610" lon="-3.1252650">
        <ele>101.4</ele>
        <time>2022-01-16T09:13:16Z</time>
      </trkpt>
      <trkpt lat="43.3229150" lon="-3.1252280">
        <ele>101.8</ele>
        <time>2022-01-16T09:13:17Z</time>
      </trkpt>
      <trkpt lat="43.3228680" lon="-3.1251950">
        <ele>102.0</ele>
        <time>2022-01-16T09:13:18Z</time>
      </trkpt>
      <trkpt lat="43.3228170" lon="-3.1251690">
        <ele>102.2</ele>
        <time>2022-01-16T09:13:19Z</time>
      </trkpt>
      <trkpt lat="43.3227660" lon="-3.1251540">
        <ele>102.4</ele>
        <time>2022-01-16T09:13:20Z</time>
      </trkpt>
      <trkpt lat="43.3227140" lon="-3.1251560">
        <ele>102.6</ele>
        <time>2022-01-16T09:13:21Z</time>
      </trkpt>
      <trkpt lat="43.3226630" lon="-3.1251740">
        <ele>102.8</ele>
        <time>2022-01-16T09:13:22Z</time>
      </trkpt>
      <trkpt lat="43.3226150" lon="-3.1252040">
        <ele>102.8</ele>
        <time>2022-01-16T09:13:23Z</time>
      </trkpt>
      <trkpt lat="43.3225720" lon="-3.1252500">
        <ele>102.8</ele>
        <time>2022-01-16T09:13:24Z</time>
      </trkpt>
      <trkpt lat="43.3225400" lon="-3.1253070">
        <ele>103.0</ele>
        <time>2022-01-16T09:13:25Z</time>
      </trkpt>
      <trkpt lat="43.3225200" lon="-3.1253750">
        <ele>103.2</ele>
        <time>2022-01-16T09:13:26Z</time>
      </trkpt>
      <trkpt lat="43.3225140" lon="-3.1254460">
        <ele>103.4</ele>
        <time>2022-01-16T09:13:27Z</time>
      </trkpt>
      <trkpt lat="43.3225200" lon="-3.1255170">
        <ele>103.6</ele>
        <time>2022-01-16T09:13:28Z</time>
      </trkpt>
      <trkpt lat="43.3225360" lon="-3.1255850">
        <ele>104.0</ele>
        <time>2022-01-16T09:13:29Z</time>
      </trkpt>
      <trkpt lat="43.3225590" lon="-3.1256490">
        <ele>104.2</ele>
        <time>2022-01-16T09:13:30Z</time>
      </trkpt>
      <trkpt lat="43.3225850" lon="-3.1257130">
        <ele>104.6</ele>
        <time>2022-01-16T09:13:31Z</time>
      </trkpt>
      <trkpt lat="43.3226120" lon="-3.1257790">
        <ele>104.8</ele>
        <time>2022-01-16T09:13:32Z</time>
      </trkpt>
      <trkpt lat="43.3226390" lon="-3.1258410">
        <ele>105.0</ele>
        <time>2022-01-16T09:13:33Z</time>
      </trkpt>
      <trkpt lat="43.3226660" lon="-3.1259040">
        <ele>105.2</ele>
        <time>2022-01-16T09:13:34Z</time>
      </trkpt>
      <trkpt lat="43.3226950" lon="-3.1259630">
        <ele>105.6</ele>
        <time>2022-01-16T09:13:35Z</time>
      </trkpt>
      <trkpt lat="43.3227230" lon="-3.1260240">
        <ele>106.0</ele>
        <time>2022-01-16T09:13:36Z</time>
      </trkpt>
      <trkpt lat="43.3227510" lon="-3.1260870">
        <ele>106.2</ele>
        <time>2022-01-16T09:13:37Z</time>
      </trkpt>
      <trkpt lat="43.3227790" lon="-3.1261490">
        <ele>106.4</ele>
        <time>2022-01-16T09:13:38Z</time>
      </trkpt>
      <trkpt lat="43.3228100" lon="-3.1262060">
        <ele>106.4</ele>
        <time>2022-01-16T09:13:39Z</time>
      </trkpt>
      <trkpt lat="43.3228400" lon="-3.1262630">
        <ele>106.6</ele>
        <time>2022-01-16T09:13:40Z</time>
      </trkpt>
      <trkpt lat="43.3228720" lon="-3.1263190">
        <ele>106.8</ele>
        <time>2022-01-16T09:13:41Z</time>
      </trkpt>
      <trkpt lat="43.3229050" lon="-3.1263720">
        <ele>107.2</ele>
        <time>2022-01-16T09:13:42Z</time>
      </trkpt>
      <trkpt lat="43.3229400" lon="-3.1264250">
        <ele>107.6</ele>
        <time>2022-01-16T09:13:43Z</time>
      </trkpt>
      <trkpt lat="43.3229760" lon="-3.1264740">
        <ele>107.8</ele>
        <time>2022-01-16T09:13:44Z</time>
      </trkpt>
      <trkpt lat="43.3230120" lon="-3.1265240">
        <ele>108.0</ele>
        <time>2022-01-16T09:13:45Z</time>
      </trkpt>
      <trkpt lat="43.3230480" lon="-3.1265740">
        <ele>108.2</ele>
        <time>2022-01-16T09:13:46Z</time>
      </trkpt>
      <trkpt lat="43.3230840" lon="-3.1266240">
        <ele>108.4</ele>
        <time>2022-01-16T09:13:47Z</time>
      </trkpt>
      <trkpt lat="43.3231200" lon="-3.1266750">
        <ele>108.6</ele>
        <time>2022-01-16T09:13:48Z</time>
      </trkpt>
      <trkpt lat="43.3231550" lon="-3.1267270">
        <ele>108.8</ele>
        <time>2022-01-16T09:13:49Z</time>
      </trkpt>
      <trkpt lat="43.3231900" lon="-3.1267770">
        <ele>109.0</ele>
        <time>2022-01-16T09:13:50Z</time>
      </trkpt>
      <trkpt lat="43.3232250" lon="-3.1268260">
        <ele>109.2</ele>
        <time>2022-01-16T09:13:51Z</time>
      </trkpt>
      <trkpt lat="43.3232600" lon="-3.1268760">
        <ele>109.6</ele>
        <time>2022-01-16T09:13:52Z</time>
      </trkpt>
      <trkpt lat="43.3232940" lon="-3.1269270">
        <ele>109.8</ele>
        <time>2022-01-16T09:13:53Z</time>
      </trkpt>
      <trkpt lat="43.3233260" lon="-3.1269800">
        <ele>110.4</ele>
        <time>2022-01-16T09:13:54Z</time>
      </trkpt>
      <trkpt lat="43.3233580" lon="-3.1270340">
        <ele>110.8</ele>
        <time>2022-01-16T09:13:55Z</time>
      </trkpt>
      <trkpt lat="43.3233850" lon="-3.1270930">
        <ele>111.0</ele>
        <time>2022-01-16T09:13:56Z</time>
      </trkpt>
      <trkpt lat="43.3234090" lon="-3.1271540">
        <ele>111.4</ele>
        <time>2022-01-16T09:13:57Z</time>
      </trkpt>
      <trkpt lat="43.3234310" lon="-3.1272170">
        <ele>111.4</ele>
        <time>2022-01-16T09:13:58Z</time>
      </trkpt>
      <trkpt lat="43.3234480" lon="-3.1272840">
        <ele>111.6</ele>
        <time>2022-01-16T09:13:59Z</time>
      </trkpt>
      <trkpt lat="43.3234620" lon="-3.1273520">
        <ele>111.8</ele>
        <time>2022-01-16T09:14:00Z</time>
      </trkpt>
      <trkpt lat="43.3234750" lon="-3.1274210">
        <ele>111.8</ele>
        <time>2022-01-16T09:14:01Z</time>
      </trkpt>
      <trkpt lat="43.3234860" lon="-3.1274910">
        <ele>112.2</ele>
        <time>2022-01-16T09:14:02Z</time>
      </trkpt>
      <trkpt lat="43.3234990" lon="-3.1275610">
        <ele>112.4</ele>
        <time>2022-01-16T09:14:03Z</time>
      </trkpt>
      <trkpt lat="43.3235110" lon="-3.1276310">
        <ele>112.6</ele>
        <time>2022-01-16T09:14:04Z</time>
      </trkpt>
      <trkpt lat="43.3235230" lon="-3.1277020">
        <ele>112.6</ele>
        <time>2022-01-16T09:14:05Z</time>
      </trkpt>
      <trkpt lat="43.3235350" lon="-3.1277720">
        <ele>112.8</ele>
        <time>2022-01-16T09:14:06Z</time>
      </trkpt>
      <trkpt lat="43.3235480" lon="-3.1278390">
        <ele>113.0</ele>
        <time>2022-01-16T09:14:07Z</time>
      </trkpt>
      <trkpt lat="43.3235600" lon="-3.1279090">
        <ele>113.0</ele>
        <time>2022-01-16T09:14:08Z</time>
      </trkpt>
      <trkpt lat="43.3235730" lon="-3.1279790">
        <ele>113.2</ele>
        <time>2022-01-16T09:14:09Z</time>
      </trkpt>
      <trkpt lat="43.3235850" lon="-3.1280500">
        <ele>113.4</ele>
        <time>2022-01-16T09:14:10Z</time>
      </trkpt>
      <trkpt lat="43.3235990" lon="-3.1281200">
        <ele>113.6</ele>
        <time>2022-01-16T09:14:11Z</time>
      </trkpt>
      <trkpt lat="43.3236120" lon="-3.1281910">
        <ele>113.8</ele>
        <time>2022-01-16T09:14:12Z</time>
      </trkpt>
      <trkpt lat="43.3236250" lon="-3.1282630">
        <ele>114.2</ele>
        <time>2022-01-16T09:14:13Z</time>
      </trkpt>
      <trkpt lat="43.3236420" lon="-3.1283330">
        <ele>114.4</ele>
        <time>2022-01-16T09:14:14Z</time>
      </trkpt>
      <trkpt lat="43.3236630" lon="-3.1283980">
        <ele>114.6</ele>
        <time>2022-01-16T09:14:15Z</time>
      </trkpt>
      <trkpt lat="43.3236870" lon="-3.1284620">
        <ele>114.8</ele>
        <time>2022-01-16T09:14:16Z</time>
      </trkpt>
      <trkpt lat="43.3237160" lon="-3.1285230">
        <ele>115.2</ele>
        <time>2022-01-16T09:14:17Z</time>
      </trkpt>
      <trkpt lat="43.3237460" lon="-3.1285850">
        <ele>115.4</ele>
        <time>2022-01-16T09:14:18Z</time>
      </trkpt>
      <trkpt lat="43.3237780" lon="-3.1286420">
        <ele>115.6</ele>
        <time>2022-01-16T09:14:19Z</time>
      </trkpt>
      <trkpt lat="43.3238090" lon="-3.1287030">
        <ele>115.6</ele>
        <time>2022-01-16T09:14:20Z</time>
      </trkpt>
      <trkpt lat="43.3238440" lon="-3.1287560">
        <ele>115.6</ele>
        <time>2022-01-16T09:14:21Z</time>
      </trkpt>
      <trkpt lat="43.3238810" lon="-3.1288070">
        <ele>115.8</ele>
        <time>2022-01-16T09:14:22Z</time>
      </trkpt>
      <trkpt lat="43.3239180" lon="-3.1288600">
        <ele>116.0</ele>
        <time>2022-01-16T09:14:23Z</time>
      </trkpt>
      <trkpt lat="43.3239550" lon="-3.1289130">
        <ele>116.2</ele>
        <time>2022-01-16T09:14:24Z</time>
      </trkpt>
      <trkpt lat="43.3239920" lon="-3.1289650">
        <ele>116.4</ele>
        <time>2022-01-16T09:14:25Z</time>
      </trkpt>
      <trkpt lat="43.3240270" lon="-3.1290220">
        <ele>116.4</ele>
        <time>2022-01-16T09:14:26Z</time>
      </trkpt>
      <trkpt lat="43.3240630" lon="-3.1290780">
        <ele>116.6</ele>
        <time>2022-01-16T09:14:27Z</time>
      </trkpt>
      <trkpt lat="43.3240990" lon="-3.1291310">
        <ele>116.8</ele>
        <time>2022-01-16T09:14:28Z</time>
      </trkpt>
      <trkpt lat="43.3241340" lon="-3.1291860">
        <ele>117.2</ele>
        <time>2022-01-16T09:14:29Z</time>
      </trkpt>
      <trkpt lat="43.3241710" lon="-3.1292360">
        <ele>117.4</ele>
        <time>2022-01-16T09:14:30Z</time>
      </trkpt>
      <trkpt lat="43.3242070" lon="-3.1292890">
        <ele>117.6</ele>
        <time>2022-01-16T09:14:31Z</time>
      </trkpt>
      <trkpt lat="43.3242420" lon="-3.1293430">
        <ele>117.8</ele>
        <time>2022-01-16T09:14:32Z</time>
      </trkpt>
      <trkpt lat="43.3242770" lon="-3.1293970">
        <ele>118.0</ele>
        <time>2022-01-16T09:14:33Z</time>
      </trkpt>
      <trkpt lat="43.3243110" lon="-3.1294500">
        <ele>118.0</ele>
        <time>2022-01-16T09:14:34Z</time>
      </trkpt>
      <trkpt lat="43.3243460" lon="-3.1295030">
        <ele>118.2</ele>
        <time>2022-01-16T09:14:35Z</time>
      </trkpt>
      <trkpt lat="43.3243820" lon="-3.1295560">
        <ele>118.4</ele>
        <time>2022-01-16T09:14:36Z</time>
      </trkpt>
      <trkpt lat="43.3244190" lon="-3.1296060">
        <ele>118.6</ele>
        <time>2022-01-16T09:14:37Z</time>
      </trkpt>
      <trkpt lat="43.3244590" lon="-3.1296540">
        <ele>118.8</ele>
        <time>2022-01-16T09:14:38Z</time>
      </trkpt>
      <trkpt lat="43.3245010" lon="-3.1296990">
        <ele>119.0</ele>
        <time>2022-01-16T09:14:39Z</time>
      </trkpt>
      <trkpt lat="43.3245450" lon="-3.1297370">
        <ele>119.2</ele>
        <time>2022-01-16T09:14:40Z</time>
      </trkpt>
      <trkpt lat="43.3245920" lon="-3.1297690">
        <ele>119.2</ele>
        <time>2022-01-16T09:14:41Z</time>
      </trkpt>
      <trkpt lat="43.3246400" lon="-3.1297970">
        <ele>119.2</ele>
        <time>2022-01-16T09:14:42Z</time>
      </trkpt>
      <trkpt lat="43.3246900" lon="-3.1298200">
        <ele>119.0</ele>
        <time>2022-01-16T09:14:43Z</time>
      </trkpt>
      <trkpt lat="43.3247410" lon="-3.1298390">
        <ele>119.2</ele>
        <time>2022-01-16T09:14:44Z</time>
      </trkpt>
      <trkpt lat="43.3247930" lon="-3.1298570">
        <ele>119.4</ele>
        <time>2022-01-16T09:14:45Z</time>
      </trkpt>
      <trkpt lat="43.3248450" lon="-3.1298740">
        <ele>119.6</ele>
        <time>2022-01-16T09:14:46Z</time>
      </trkpt>
      <trkpt lat="43.3248990" lon="-3.1298880">
        <ele>120.0</ele>
        <time>2022-01-16T09:14:47Z</time>
      </trkpt>
      <trkpt lat="43.3249510" lon="-3.1298970">
        <ele>120.4</ele>
        <time>2022-01-16T09:14:48Z</time>
      </trkpt>
      <trkpt lat="43.3250020" lon="-3.1299040">
        <ele>120.6</ele>
        <time>2022-01-16T09:14:49Z</time>
      </trkpt>
      <trkpt lat="43.3250530" lon="-3.1299090">
        <ele>120.8</ele>
        <time>2022-01-16T09:14:50Z</time>
      </trkpt>
      <trkpt lat="43.3251030" lon="-3.1299080">
        <ele>120.8</ele>
        <time>2022-01-16T09:14:51Z</time>
      </trkpt>
      <trkpt lat="43.3251540" lon="-3.1298990">
        <ele>121.0</ele>
        <time>2022-01-16T09:14:52Z</time>
      </trkpt>
      <trkpt lat="43.3252040" lon="-3.1298840">
        <ele>121.4</ele>
        <time>2022-01-16T09:14:53Z</time>
      </trkpt>
      <trkpt lat="43.3252510" lon="-3.1298630">
        <ele>121.6</ele>
        <time>2022-01-16T09:14:54Z</time>
      </trkpt>
      <trkpt lat="43.3252960" lon="-3.1298390">
        <ele>121.8</ele>
        <time>2022-01-16T09:14:55Z</time>
      </trkpt>
      <trkpt lat="43.3253410" lon="-3.1298140">
        <ele>122.0</ele>
        <time>2022-01-16T09:14:56Z</time>
      </trkpt>
      <trkpt lat="43.3253850" lon="-3.1297940">
        <ele>122.2</ele>
        <time>2022-01-16T09:14:57Z</time>
      </trkpt>
      <trkpt lat="43.3254300" lon="-3.1297760">
        <ele>122.6</ele>
        <time>2022-01-16T09:14:58Z</time>
      </trkpt>
      <trkpt lat="43.3254770" lon="-3.1297610">
        <ele>122.8</ele>
        <time>2022-01-16T09:14:59Z</time>
      </trkpt>
      <trkpt lat="43.3255240" lon="-3.1297500">
        <ele>123.0</ele>
        <time>2022-01-16T09:15:00Z</time>
      </trkpt>
      <trkpt lat="43.3255710" lon="-3.1297440">
        <ele>123.2</ele>
        <time>2022-01-16T09:15:01Z</time>
      </trkpt>
      <trkpt lat="43.3256190" lon="-3.1297400">
        <ele>123.6</ele>
        <time>2022-01-16T09:15:02Z</time>
      </trkpt>
      <trkpt lat="43.3256660" lon="-3.1297410">
        <ele>123.6</ele>
        <time>2022-01-16T09:15:03Z</time>
      </trkpt>
      <trkpt lat="43.3257140" lon="-3.1297470">
        <ele>124.0</ele>
        <time>2022-01-16T09:15:04Z</time>
      </trkpt>
      <trkpt lat="43.3257610" lon="-3.1297560">
        <ele>124.4</ele>
        <time>2022-01-16T09:15:05Z</time>
      </trkpt>
      <trkpt lat="43.3258050" lon="-3.1297630">
        <ele>124.6</ele>
        <time>2022-01-16T09:15:06Z</time>
      </trkpt>
      <trkpt lat="43.3258480" lon="-3.1297700">
        <ele>124.6</ele>
        <time>2022-01-16T09:15:07Z</time>
      </trkpt>
      <trkpt lat="43.3258920" lon="-3.1297760">
        <ele>124.8</ele>
        <time>2022-01-16T09:15:08Z</time>
      </trkpt>
      <trkpt lat="43.3259370" lon="-3.1297840">
        <ele>125.0</ele>
        <time>2022-01-16T09:15:09Z</time>
      </trkpt>
      <trkpt lat="43.3259810" lon="-3.1297910">
        <ele>125.2</ele>
        <time>2022-01-16T09:15:10Z</time>
      </trkpt>
      <trkpt lat="43.3260270" lon="-3.1297990">
        <ele>125.4</ele>
        <time>2022-01-16T09:15:11Z</time>
      </trkpt>
      <trkpt lat="43.3260720" lon="-3.1298080">
        <ele>125.6</ele>
        <time>2022-01-16T09:15:12Z</time>
      </trkpt>
      <trkpt lat="43.3261160" lon="-3.1298220">
        <ele>125.8</ele>
        <time>2022-01-16T09:15:13Z</time>
      </trkpt>
      <trkpt lat="43.3261600" lon="-3.1298420">
        <ele>126.0</ele>
        <time>2022-01-16T09:15:14Z</time>
      </trkpt>
      <trkpt lat="43.3262010" lon="-3.1298670">
        <ele>126.2</ele>
        <time>2022-01-16T09:15:15Z</time>
      </trkpt>
      <trkpt lat="43.3262400" lon="-3.1298990">
        <ele>126.4</ele>
        <time>2022-01-16T09:15:16Z</time>
      </trkpt>
      <trkpt lat="43.3262820" lon="-3.1299340">
        <ele>126.8</ele>
        <time>2022-01-16T09:15:17Z</time>
      </trkpt>
      <trkpt lat="43.3263210" lon="-3.1299720">
        <ele>127.0</ele>
        <time>2022-01-16T09:15:18Z</time>
      </trkpt>
      <trkpt lat="43.3263560" lon="-3.1300150">
        <ele>127.2</ele>
        <time>2022-01-16T09:15:19Z</time>
      </trkpt>
      <trkpt lat="43.3263880" lon="-3.1300630">
        <ele>127.4</ele>
        <time>2022-01-16T09:15:20Z</time>
      </trkpt>
      <trkpt lat="43.3264170" lon="-3.1301150">
        <ele>127.6</ele>
        <time>2022-01-16T09:15:21Z</time>
      </trkpt>
      <trkpt lat="43.3264450" lon="-3.1301690">
        <ele>128.0</ele>
        <time>2022-01-16T09:15:22Z</time>
      </trkpt>
      <trkpt lat="43.3264700" lon="-3.1302250">
        <ele>128.4</ele>
        <time>2022-01-16T09:15:23Z</time>
      </trkpt>
      <trkpt lat="43.3264930" lon="-3.1302840">
        <ele>128.6</ele>
        <time>2022-01-16T09:15:24Z</time>
      </trkpt>
      <trkpt lat="43.3265130" lon="-3.1303450">
        <ele>128.6</ele>
        <time>2022-01-16T09:15:25Z</time>
      </trkpt>
      <trkpt lat="43.3265330" lon="-3.1304080">
        <ele>129.0</ele>
        <time>2022-01-16T09:15:26Z</time>
      </trkpt>
      <trkpt lat="43.3265550" lon="-3.1304720">
        <ele>129.2</ele>
        <time>2022-01-16T09:15:27Z</time>
      </trkpt>
      <trkpt lat="43.3265760" lon="-3.1305340">
        <ele>129.8</ele>
        <time>2022-01-16T09:15:28Z</time>
      </trkpt>
      <trkpt lat="43.3265980" lon="-3.1305960">
        <ele>129.8</ele>
        <time>2022-01-16T09:15:29Z</time>
      </trkpt>
      <trkpt lat="43.3266210" lon="-3.1306560">
        <ele>130.0</ele>
        <time>2022-01-16T09:15:30Z</time>
      </trkpt>
      <trkpt lat="43.3266460" lon="-3.1307140">
        <ele>130.4</ele>
        <time>2022-01-16T09:15:31Z</time>
      </trkpt>
      <trkpt lat="43.3266740" lon="-3.1307700">
        <ele>130.6</ele>
        <time>2022-01-16T09:15:32Z</time>
      </trkpt>
      <trkpt lat="43.3267060" lon="-3.1308220">
        <ele>130.6</ele>
        <time>2022-01-16T09:15:33Z</time>
      </trkpt>
      <trkpt lat="43.3267420" lon="-3.1308690">
        <ele>131.0</ele>
        <time>2022-01-16T09:15:34Z</time>
      </trkpt>
      <trkpt lat="43.3267810" lon="-3.1309120">
        <ele>131.0</ele>
        <time>2022-01-16T09:15:35Z</time>
      </trkpt>
      <trkpt lat="43.3268220" lon="-3.1309500">
        <ele>131.2</ele>
        <time>2022-01-16T09:15:36Z</time>
      </trkpt>
      <trkpt lat="43.3268630" lon="-3.1309870">
        <ele>131.6</ele>
        <time>2022-01-16T09:15:37Z</time>
      </trkpt>
      <trkpt lat="43.3269050" lon="-3.1310230">
        <ele>132.0</ele>
        <time>2022-01-16T09:15:38Z</time>
      </trkpt>
      <trkpt lat="43.3269480" lon="-3.1310580">
        <ele>132.2</ele>
        <time>2022-01-16T09:15:39Z</time>
      </trkpt>
      <trkpt lat="43.3269920" lon="-3.1310920">
        <ele>132.2</ele>
        <time>2022-01-16T09:15:40Z</time>
      </trkpt>
      <trkpt lat="43.3270360" lon="-3.1311250">
        <ele>132.4</ele>
        <time>2022-01-16T09:15:41Z</time>
      </trkpt>
      <trkpt lat="43.3270810" lon="-3.1311560">
        <ele>132.6</ele>
        <time>2022-01-16T09:15:42Z</time>
      </trkpt>
      <trkpt lat="43.3271260" lon="-3.1311880">
        <ele>132.8</ele>
        <time>2022-01-16T09:15:43Z</time>
      </trkpt>
      <trkpt lat="43.3271700" lon="-3.1312190">
        <ele>133.0</ele>
        <time>2022-01-16T09:15:44Z</time>
      </trkpt>
      <trkpt lat="43.3272150" lon="-3.1312510">
        <ele>133.2</ele>
        <time>2022-01-16T09:15:45Z</time>
      </trkpt>
      <trkpt lat="43.3272600" lon="-3.1312820">
        <ele>133.4</ele>
        <time>2022-01-16T09:15:46Z</time>
      </trkpt>
      <trkpt lat="43.3273050" lon="-3.1313150">
        <ele>133.6</ele>
        <time>2022-01-16T09:15:47Z</time>
      </trkpt>
      <trkpt lat="43.3273500" lon="-3.1313480">
        <ele>133.6</ele>
        <time>2022-01-16T09:15:48Z</time>
      </trkpt>
      <trkpt lat="43.3273960" lon="-3.1313810">
        <ele>134.0</ele>
        <time>2022-01-16T09:15:49Z</time>
      </trkpt>
      <trkpt lat="43.3274410" lon="-3.1314140">
        <ele>134.0</ele>
        <time>2022-01-16T09:15:50Z</time>
      </trkpt>
      <trkpt lat="43.3274860" lon="-3.1314490">
        <ele>134.2</ele>
        <time>2022-01-16T09:15:51Z</time>
      </trkpt>
      <trkpt lat="43.3275300" lon="-3.1314840">
        <ele>134.6</ele>
        <time>2022-01-16T09:15:52Z</time>
      </trkpt>
      <trkpt lat="43.3275750" lon="-3.1315210">
        <ele>134.8</ele>
        <time>2022-01-16T09:15:53Z</time>
      </trkpt>
      <trkpt lat="43.3276180" lon="-3.1315580">
        <ele>134.8</ele>
        <time>2022-01-16T09:15:54Z</time>
      </trkpt>
      <trkpt lat="43.3276610" lon="-3.1315940">
        <ele>135.0</ele>
        <time>2022-01-16T09:15:55Z</time>
      </trkpt>
      <trkpt lat="43.3277030" lon="-3.1316310">
        <ele>135.2</ele>
        <time>2022-01-16T09:15:56Z</time>
      </trkpt>
      <trkpt lat="43.3277440" lon="-3.1316690">
        <ele>135.6</ele>
        <time>2022-01-16T09:15:57Z</time>
      </trkpt>
      <trkpt lat="43.3277850" lon="-3.1317060">
        <ele>135.8</ele>
        <time>2022-01-16T09:15:58Z</time>
      </trkpt>
      <trkpt lat="43.3278250" lon="-3.1317430">
        <ele>136.2</ele>
        <time>2022-01-16T09:15:59Z</time>
      </trkpt>
      <trkpt lat="43.3278650" lon="-3.1317800">
        <ele>136.6</ele>
        <time>2022-01-16T09:16:00Z</time>
      </trkpt>
      <trkpt lat="43.3279060" lon="-3.1318150">
        <ele>137.0</ele>
        <time>2022-01-16T09:16:01Z</time>
      </trkpt>
      <trkpt lat="43.3279490" lon="-3.1318480">
        <ele>137.2</ele>
        <time>2022-01-16T09:16:02Z</time>
      </trkpt>
      <trkpt lat="43.3279930" lon="-3.1318790">
        <ele>137.6</ele>
        <time>2022-01-16T09:16:03Z</time>
      </trkpt>
      <trkpt lat="43.3280370" lon="-3.1319110">
        <ele>137.8</ele>
        <time>2022-01-16T09:16:04Z</time>
      </trkpt>
      <trkpt lat="43.3280820" lon="-3.1319420">
        <ele>138.2</ele>
        <time>2022-01-16T09:16:05Z</time>
      </trkpt>
      <trkpt lat="43.3281280" lon="-3.1319710">
        <ele>138.4</ele>
        <time>2022-01-16T09:16:06Z</time>
      </trkpt>
      <trkpt lat="43.3281740" lon="-3.1319970">
        <ele>138.8</ele>
        <time>2022-01-16T09:16:07Z</time>
      </trkpt>
      <trkpt lat="43.3282200" lon="-3.1320200">
        <ele>139.0</ele>
        <time>2022-01-16T09:16:08Z</time>
      </trkpt>
      <trkpt lat="43.3282670" lon="-3.1320410">
        <ele>139.2</ele>
        <time>2022-01-16T09:16:09Z</time>
      </trkpt>
      <trkpt lat="43.3283130" lon="-3.1320600">
        <ele>139.6</ele>
        <time>2022-01-16T09:16:10Z</time>
      </trkpt>
      <trkpt lat="43.3283600" lon="-3.1320770">
        <ele>139.8</ele>
        <time>2022-01-16T09:16:11Z</time>
      </trkpt>
      <trkpt lat="43.3284070" lon="-3.1320940">
        <ele>140.0</ele>
        <time>2022-01-16T09:16:12Z</time>
      </trkpt>
      <trkpt lat="43.3284540" lon="-3.1321100">
        <ele>140.2</ele>
        <time>2022-01-16T09:16:13Z</time>
      </trkpt>
      <trkpt lat="43.3285000" lon="-3.1321250">
        <ele>140.6</ele>
        <time>2022-01-16T09:16:14Z</time>
      </trkpt>
      <trkpt lat="43.3285480" lon="-3.1321390">
        <ele>140.8</ele>
        <time>2022-01-16T09:16:15Z</time>
      </trkpt>
      <trkpt lat="43.3285950" lon="-3.1321530">
        <ele>141.2</ele>
        <time>2022-01-16T09:16:16Z</time>
      </trkpt>
      <trkpt lat="43.3286410" lon="-3.1321670">
        <ele>141.4</ele>
        <time>2022-01-16T09:16:17Z</time>
      </trkpt>
      <trkpt lat="43.3286880" lon="-3.1321810">
        <ele>141.6</ele>
        <time>2022-01-16T09:16:18Z</time>
      </trkpt>
      <trkpt lat="43.3287340" lon="-3.1321940">
        <ele>142.0</ele>
        <time>2022-01-16T09:16:19Z</time>
      </trkpt>
      <trkpt lat="43.3287800" lon="-3.1322080">
        <ele>142.2</ele>
        <time>2022-01-16T09:16:20Z</time>
      </trkpt>
      <trkpt lat="43.3288250" lon="-3.1322240">
        <ele>142.4</ele>
        <time>2022-01-16T09:16:21Z</time>
      </trkpt>
      <trkpt lat="43.3288710" lon="-3.1322430">
        <ele>142.8</ele>
        <time>2022-01-16T09:16:22Z</time>
      </trkpt>
      <trkpt lat="43.3289170" lon="-3.1322630">
        <ele>143.0</ele>
        <time>2022-01-16T09:16:23Z</time>
      </trkpt>
      <trkpt lat="43.3289630" lon="-3.1322850">
        <ele>143.2</ele>
        <time>2022-01-16T09:16:24Z</time>
      </trkpt>
      <trkpt lat="43.3290100" lon="-3.1323080">
        <ele>143.4</ele>
        <time>2022-01-16T09:16:25Z</time>
      </trkpt>
      <trkpt lat="43.3290560" lon="-3.1323310">
        <ele>143.8</ele>
        <time>2022-01-16T09:16:26Z</time>
      </trkpt>
      <trkpt lat="43.3291020" lon="-3.1323570">
        <ele>144.0</ele>
        <time>2022-01-16T09:16:27Z</time>
      </trkpt>
      <trkpt lat="43.3291470" lon="-3.1323840">
        <ele>144.4</ele>
        <time>2022-01-16T09:16:28Z</time>
      </trkpt>
      <trkpt lat="43.3291920" lon="-3.1324110">
        <ele>144.6</ele>
        <time>2022-01-16T09:16:29Z</time>
      </trkpt>
      <trkpt lat="43.3292350" lon="-3.1324400">
        <ele>144.6</ele>
        <time>2022-01-16T09:16:30Z</time>
      </trkpt>
      <trkpt lat="43.3292780" lon="-3.1324690">
        <ele>144.8</ele>
        <time>2022-01-16T09:16:31Z</time>
      </trkpt>
      <trkpt lat="43.3293200" lon="-3.1325010">
        <ele>144.8</ele>
        <time>2022-01-16T09:16:32Z</time>
      </trkpt>
      <trkpt lat="43.3293630" lon="-3.1325330">
        <ele>145.2</ele>
        <time>2022-01-16T09:16:33Z</time>
      </trkpt>
      <trkpt lat="43.3294040" lon="-3.1325670">
        <ele>145.4</ele>
        <time>2022-01-16T09:16:34Z</time>
      </trkpt>
      <trkpt lat="43.3294460" lon="-3.1326020">
        <ele>145.8</ele>
        <time>2022-01-16T09:16:35Z</time>
      </trkpt>
      <trkpt lat="43.3294880" lon="-3.1326360">
        <ele>146.0</ele>
        <time>2022-01-16T09:16:36Z</time>
      </trkpt>
      <trkpt lat="43.3295280" lon="-3.1326720">
        <ele>146.4</ele>
        <time>2022-01-16T09:16:37Z</time>
      </trkpt>
      <trkpt lat="43.3295680" lon="-3.1327070">
        <ele>146.6</ele>
        <time>2022-01-16T09:16:38Z</time>
      </trkpt>
      <trkpt lat="43.3296080" lon="-3.1327420">
        <ele>146.8</ele>
        <time>2022-01-16T09:16:39Z</time>
      </trkpt>
      <trkpt lat="43.3296460" lon="-3.1327790">
        <ele>147.0</ele>
        <time>2022-01-16T09:16:40Z</time>
      </trkpt>
      <trkpt lat="43.3296860" lon="-3.1328160">
        <ele>147.2</ele>
        <time>2022-01-16T09:16:41Z</time>
      </trkpt>
      <trkpt lat="43.3297250" lon="-3.1328520">
        <ele>147.4</ele>
        <time>2022-01-16T09:16:42Z</time>
      </trkpt>
      <trkpt lat="43.3297650" lon="-3.1328890">
        <ele>147.6</ele>
        <time>2022-01-16T09:16:43Z</time>
      </trkpt>
      <trkpt lat="43.3298030" lon="-3.1329290">
        <ele>147.8</ele>
        <time>2022-01-16T09:16:44Z</time>
      </trkpt>
      <trkpt lat="43.3298410" lon="-3.1329730">
        <ele>148.0</ele>
        <time>2022-01-16T09:16:45Z</time>
      </trkpt>
      <trkpt lat="43.3298780" lon="-3.1330200">
        <ele>148.2</ele>
        <time>2022-01-16T09:16:46Z</time>
      </trkpt>
      <trkpt lat="43.3299110" lon="-3.1330700">
        <ele>148.4</ele>
        <time>2022-01-16T09:16:47Z</time>
      </trkpt>
      <trkpt lat="43.3299420" lon="-3.1331210">
        <ele>148.6</ele>
        <time>2022-01-16T09:16:48Z</time>
      </trkpt>
      <trkpt lat="43.3299710" lon="-3.1331760">
        <ele>148.8</ele>
        <time>2022-01-16T09:16:49Z</time>
      </trkpt>
      <trkpt lat="43.3299970" lon="-3.1332350">
        <ele>149.4</ele>
        <time>2022-01-16T09:16:50Z</time>
      </trkpt>
      <trkpt lat="43.3300200" lon="-3.1332940">
        <ele>149.6</ele>
        <time>2022-01-16T09:16:51Z</time>
      </trkpt>
      <trkpt lat="43.3300380" lon="-3.1333590">
        <ele>149.8</ele>
        <time>2022-01-16T09:16:52Z</time>
      </trkpt>
      <trkpt lat="43.3300550" lon="-3.1334220">
        <ele>149.8</ele>
        <time>2022-01-16T09:16:53Z</time>
      </trkpt>
      <trkpt lat="43.3300690" lon="-3.1334880">
        <ele>150.0</ele>
        <time>2022-01-16T09:16:54Z</time>
      </trkpt>
      <trkpt lat="43.3300830" lon="-3.1335520">
        <ele>150.4</ele>
        <time>2022-01-16T09:16:55Z</time>
      </trkpt>
      <trkpt lat="43.3300960" lon="-3.1336160">
        <ele>150.6</ele>
        <time>2022-01-16T09:16:56Z</time>
      </trkpt>
      <trkpt lat="43.3301090" lon="-3.1336780">
        <ele>150.8</ele>
        <time>2022-01-16T09:16:57Z</time>
      </trkpt>
      <trkpt lat="43.3301220" lon="-3.1337410">
        <ele>151.0</ele>
        <time>2022-01-16T09:16:58Z</time>
      </trkpt>
      <trkpt lat="43.3301350" lon="-3.1338060">
        <ele>151.2</ele>
        <time>2022-01-16T09:16:59Z</time>
      </trkpt>
      <trkpt lat="43.3301500" lon="-3.1338690">
        <ele>151.6</ele>
        <time>2022-01-16T09:17:00Z</time>
      </trkpt>
      <trkpt lat="43.3301650" lon="-3.1339350">
        <ele>151.8</ele>
        <time>2022-01-16T09:17:01Z</time>
      </trkpt>
      <trkpt lat="43.3301820" lon="-3.1339960">
        <ele>152.0</ele>
        <time>2022-01-16T09:17:02Z</time>
      </trkpt>
      <trkpt lat="43.3302010" lon="-3.1340570">
        <ele>152.2</ele>
        <time>2022-01-16T09:17:03Z</time>
      </trkpt>
      <trkpt lat="43.3302180" lon="-3.1341210">
        <ele>152.4</ele>
        <time>2022-01-16T09:17:04Z</time>
      </trkpt>
      <trkpt lat="43.3302380" lon="-3.1341800">
        <ele>152.8</ele>
        <time>2022-01-16T09:17:05Z</time>
      </trkpt>
      <trkpt lat="43.3302580" lon="-3.1342410">
        <ele>153.2</ele>
        <time>2022-01-16T09:17:06Z</time>
      </trkpt>
      <trkpt lat="43.3302770" lon="-3.1343040">
        <ele>153.4</ele>
        <time>2022-01-16T09:17:07Z</time>
      </trkpt>
      <trkpt lat="43.3303000" lon="-3.1343660">
        <ele>153.4</ele>
        <time>2022-01-16T09:17:08Z</time>
      </trkpt>
      <trkpt lat="43.3303210" lon="-3.1344320">
        <ele>153.6</ele>
        <time>2022-01-16T09:17:09Z</time>
      </trkpt>
      <trkpt lat="43.3303430" lon="-3.1344960">
        <ele>153.8</ele>
        <time>2022-01-16T09:17:10Z</time>
      </trkpt>
      <trkpt lat="43.3303640" lon="-3.1345600">
        <ele>153.8</ele>
        <time>2022-01-16T09:17:11Z</time>
      </trkpt>
      <trkpt lat="43.3303830" lon="-3.1346240">
        <ele>154.0</ele>
        <time>2022-01-16T09:17:12Z</time>
      </trkpt>
      <trkpt lat="43.3304030" lon="-3.1346860">
        <ele>154.0</ele>
        <time>2022-01-16T09:17:13Z</time>
      </trkpt>
      <trkpt lat="43.3304250" lon="-3.1347470">
        <ele>154.2</ele>
        <time>2022-01-16T09:17:14Z</time>
      </trkpt>
      <trkpt lat="43.3304480" lon="-3.1348060">
        <ele>154.4</ele>
        <time>2022-01-16T09:17:15Z</time>
      </trkpt>
      <trkpt lat="43.3304680" lon="-3.1348700">
        <ele>154.8</ele>
        <time>2022-01-16T09:17:16Z</time>
      </trkpt>
      <trkpt lat="43.3304870" lon="-3.1349320">
        <ele>155.0</ele>
        <time>2022-01-16T09:17:17Z</time>
      </trkpt>
      <trkpt lat="43.3305070" lon="-3.1349930">
        <ele>155.2</ele>
        <time>2022-01-16T09:17:18Z</time>
      </trkpt>
      <trkpt lat="43.3305280" lon="-3.1350560">
        <ele>155.2</ele>
        <time>2022-01-16T09:17:19Z</time>
      </trkpt>
      <trkpt lat="43.3305480" lon="-3.1351210">
        <ele>155.2</ele>
        <time>2022-01-16T09:17:20Z</time>
      </trkpt>
      <trkpt lat="43.3305680" lon="-3.1351860">
        <ele>155.2</ele>
        <time>2022-01-16T09:17:21Z</time>
      </trkpt>
      <trkpt lat="43.3305880" lon="-3.1352520">
        <ele>155.4</ele>
        <time>2022-01-16T09:17:22Z</time>
      </trkpt>
      <trkpt lat="43.3306100" lon="-3.1353180">
        <ele>155.4</ele>
        <time>2022-01-16T09:17:23Z</time>
      </trkpt>
      <trkpt lat="43.3306310" lon="-3.1353880">
        <ele>155.6</ele>
        <time>2022-01-16T09:17:24Z</time>
      </trkpt>
      <trkpt lat="43.3306530" lon="-3.1354550">
        <ele>155.8</ele>
        <time>2022-01-16T09:17:25Z</time>
      </trkpt>
      <trkpt lat="43.3306750" lon="-3.1355230">
        <ele>156.0</ele>
        <time>2022-01-16T09:17:26Z</time>
      </trkpt>
      <trkpt lat="43.3306980" lon="-3.1355910">
        <ele>156.0</ele>
        <time>2022-01-16T09:17:27Z</time>
      </trkpt>
      <trkpt lat="43.3307210" lon="-3.1356600">
        <ele>156.2</ele>
        <time>2022-01-16T09:17:28Z</time>
      </trkpt>
      <trkpt lat="43.3307440" lon="-3.1357300">
        <ele>156.2</ele>
        <time>2022-01-16T09:17:29Z</time>
      </trkpt>
      <trkpt lat="43.3307660" lon="-3.1357990">
        <ele>156.2</ele>
        <time>2022-01-16T09:17:30Z</time>
      </trkpt>
      <trkpt lat="43.3307880" lon="-3.1358670">
        <ele>156.4</ele>
        <time>2022-01-16T09:17:31Z</time>
      </trkpt>
      <trkpt lat="43.3308120" lon="-3.1359340">
        <ele>156.4</ele>
        <time>2022-01-16T09:17:32Z</time>
      </trkpt>
      <trkpt lat="43.3308350" lon="-3.1360020">
        <ele>156.6</ele>
        <time>2022-01-16T09:17:33Z</time>
      </trkpt>
      <trkpt lat="43.3308570" lon="-3.1360720">
        <ele>156.6</ele>
        <time>2022-01-16T09:17:34Z</time>
      </trkpt>
      <trkpt lat="43.3308790" lon="-3.1361450">
        <ele>157.0</ele>
        <time>2022-01-16T09:17:35Z</time>
      </trkpt>
      <trkpt lat="43.3309000" lon="-3.1362190">
        <ele>157.0</ele>
        <time>2022-01-16T09:17:36Z</time>
      </trkpt>
      <trkpt lat="43.3309240" lon="-3.1362920">
        <ele>157.2</ele>
        <time>2022-01-16T09:17:37Z</time>
      </trkpt>
      <trkpt lat="43.3309450" lon="-3.1363670">
        <ele>157.4</ele>
        <time>2022-01-16T09:17:38Z</time>
      </trkpt>
      <trkpt lat="43.3309670" lon="-3.1364390">
        <ele>157.6</ele>
        <time>2022-01-16T09:17:39Z</time>
      </trkpt>
      <trkpt lat="43.3309880" lon="-3.1365110">
        <ele>157.6</ele>
        <time>2022-01-16T09:17:40Z</time>
      </trkpt>
      <trkpt lat="43.3310120" lon="-3.1365820">
        <ele>157.8</ele>
        <time>2022-01-16T09:17:41Z</time>
      </trkpt>
      <trkpt lat="43.3310350" lon="-3.1366540">
        <ele>157.8</ele>
        <time>2022-01-16T09:17:42Z</time>
      </trkpt>
      <trkpt lat="43.3310600" lon="-3.1367250">
        <ele>158.0</ele>
        <time>2022-01-16T09:17:43Z</time>
      </trkpt>
      <trkpt lat="43.3310860" lon="-3.1367970">
        <ele>158.2</ele>
        <time>2022-01-16T09:17:44Z</time>
      </trkpt>
      <trkpt lat="43.3311140" lon="-3.1368690">
        <ele>158.2</ele>
        <time>2022-01-16T09:17:45Z</time>
      </trkpt>
      <trkpt lat="43.3311420" lon="-3.1369410">
        <ele>158.6</ele>
        <time>2022-01-16T09:17:46Z</time>
      </trkpt>
      <trkpt lat="43.3311700" lon="-3.1370140">
        <ele>158.6</ele>
        <time>2022-01-16T09:17:47Z</time>
      </trkpt>
      <trkpt lat="43.3312000" lon="-3.1370860">
        <ele>158.8</ele>
        <time>2022-01-16T09:17:48Z</time>
      </trkpt>
      <trkpt lat="43.3312320" lon="-3.1371540">
        <ele>158.8</ele>
        <time>2022-01-16T09:17:49Z</time>
      </trkpt>
      <trkpt lat="43.3312650" lon="-3.1372200">
        <ele>158.8</ele>
        <time>2022-01-16T09:17:50Z</time>
      </trkpt>
      <trkpt lat="43.3312990" lon="-3.1372840">
        <ele>159.0</ele>
        <time>2022-01-16T09:17:51Z</time>
      </trkpt>
      <trkpt lat="43.3313340" lon="-3.1373480">
        <ele>159.2</ele>
        <time>2022-01-16T09:17:52Z</time>
      </trkpt>
      <trkpt lat="43.3313700" lon="-3.1374100">
        <ele>159.4</ele>
        <time>2022-01-16T09:17:53Z</time>
      </trkpt>
      <trkpt lat="43.3314060" lon="-3.1374670">
        <ele>159.6</ele>
        <time>2022-01-16T09:17:54Z</time>
      </trkpt>
      <trkpt lat="43.3314420" lon="-3.1375230">
        <ele>159.8</ele>
        <time>2022-01-16T09:17:55Z</time>
      </trkpt>
      <trkpt lat="43.3314770" lon="-3.1375820">
        <ele>160.0</ele>
        <time>2022-01-16T09:17:56Z</time>
      </trkpt>
      <trkpt lat="43.3315130" lon="-3.1376380">
        <ele>160.0</ele>
        <time>2022-01-16T09:17:57Z</time>
      </trkpt>
      <trkpt lat="43.3315520" lon="-3.1376900">
        <ele>160.2</ele>
        <time>2022-01-16T09:17:58Z</time>
      </trkpt>
      <trkpt lat="43.3315920" lon="-3.1377430">
        <ele>160.4</ele>
        <time>2022-01-16T09:17:59Z</time>
      </trkpt>
      <trkpt lat="43.3316320" lon="-3.1377950">
        <ele>160.4</ele>
        <time>2022-01-16T09:18:00Z</time>
      </trkpt>
      <trkpt lat="43.3316740" lon="-3.1378470">
        <ele>160.6</ele>
        <time>2022-01-16T09:18:01Z</time>
      </trkpt>
      <trkpt lat="43.3317160" lon="-3.1378970">
        <ele>160.8</ele>
        <time>2022-01-16T09:18:02Z</time>
      </trkpt>
      <trkpt lat="43.3317590" lon="-3.1379490">
        <ele>161.0</ele>
        <time>2022-01-16T09:18:03Z</time>
      </trkpt>
      <trkpt lat="43.3318030" lon="-3.1379990">
        <ele>161.2</ele>
        <time>2022-01-16T09:18:04Z</time>
      </trkpt>
      <trkpt lat="43.3318490" lon="-3.1380480">
        <ele>161.2</ele>
        <time>2022-01-16T09:18:05Z</time>
      </trkpt>
      <trkpt lat="43.3318950" lon="-3.1380950">
        <ele>161.4</ele>
        <time>2022-01-16T09:18:06Z</time>
      </trkpt>
      <trkpt lat="43.3319410" lon="-3.1381430">
        <ele>161.6</ele>
        <time>2022-01-16T09:18:07Z</time>
      </trkpt>
      <trkpt lat="43.3319870" lon="-3.1381910">
        <ele>161.8</ele>
        <time>2022-01-16T09:18:08Z</time>
      </trkpt>
      <trkpt lat="43.3320330" lon="-3.1382390">
        <ele>162.0</ele>
        <time>2022-01-16T09:18:09Z</time>
      </trkpt>
      <trkpt lat="43.3320800" lon="-3.1382850">
        <ele>162.2</ele>
        <time>2022-01-16T09:18:10Z</time>
      </trkpt>
      <trkpt lat="43.3321260" lon="-3.1383320">
        <ele>162.4</ele>
        <time>2022-01-16T09:18:11Z</time>
      </trkpt>
      <trkpt lat="43.3321720" lon="-3.1383790">
        <ele>162.6</ele>
        <time>2022-01-16T09:18:12Z</time>
      </trkpt>
      <trkpt lat="43.3322170" lon="-3.1384250">
        <ele>162.8</ele>
        <time>2022-01-16T09:18:13Z</time>
      </trkpt>
      <trkpt lat="43.3322620" lon="-3.1384710">
        <ele>163.0</ele>
        <time>2022-01-16T09:18:14Z</time>
      </trkpt>
      <trkpt lat="43.3323070" lon="-3.1385160">
        <ele>163.2</ele>
        <time>2022-01-16T09:18:15Z</time>
      </trkpt>
      <trkpt lat="43.3323510" lon="-3.1385620">
        <ele>163.6</ele>
        <time>2022-01-16T09:18:16Z</time>
      </trkpt>
      <trkpt lat="43.3323950" lon="-3.1386100">
        <ele>163.8</ele>
        <time>2022-01-16T09:18:17Z</time>
      </trkpt>
      <trkpt lat="43.3324380" lon="-3.1386570">
        <ele>164.2</ele>
        <time>2022-01-16T09:18:18Z</time>
      </trkpt>
      <trkpt lat="43.3324820" lon="-3.1387050">
        <ele>164.4</ele>
        <time>2022-01-16T09:18:19Z</time>
      </trkpt>
      <trkpt lat="43.3325250" lon="-3.1387530">
        <ele>164.6</ele>
        <time>2022-01-16T09:18:20Z</time>
      </trkpt>
      <trkpt lat="43.3325680" lon="-3.1388030">
        <ele>164.8</ele>
        <time>2022-01-16T09:18:21Z</time>
      </trkpt>
      <trkpt lat="43.3326100" lon="-3.1388540">
        <ele>165.0</ele>
        <time>2022-01-16T09:18:22Z</time>
      </trkpt>
      <trkpt lat="43.3326500" lon="-3.1389070">
        <ele>165.2</ele>
        <time>2022-01-16T09:18:23Z</time>
      </trkpt>
      <trkpt lat="43.3326890" lon="-3.1389630">
        <ele>165.4</ele>
        <time>2022-01-16T09:18:24Z</time>
      </trkpt>
      <trkpt lat="43.3327250" lon="-3.1390210">
        <ele>165.6</ele>
        <time>2022-01-16T09:18:25Z</time>
      </trkpt>
      <trkpt lat="43.3327600" lon="-3.1390780">
        <ele>165.8</ele>
        <time>2022-01-16T09:18:26Z</time>
      </trkpt>
      <trkpt lat="43.3327930" lon="-3.1391340">
        <ele>166.2</ele>
        <time>2022-01-16T09:18:27Z</time>
      </trkpt>
      <trkpt lat="43.3328240" lon="-3.1391900">
        <ele>166.4</ele>
        <time>2022-01-16T09:18:28Z</time>
      </trkpt>
      <trkpt lat="43.3328580" lon="-3.1392450">
        <ele>166.6</ele>
        <time>2022-01-16T09:18:29Z</time>
      </trkpt>
      <trkpt lat="43.3328920" lon="-3.1392990">
        <ele>166.8</ele>
        <time>2022-01-16T09:18:30Z</time>
      </trkpt>
      <trkpt lat="43.3329250" lon="-3.1393550">
        <ele>167.2</ele>
        <time>2022-01-16T09:18:31Z</time>
      </trkpt>
      <trkpt lat="43.3329570" lon="-3.1394140">
        <ele>167.4</ele>
        <time>2022-01-16T09:18:32Z</time>
      </trkpt>
      <trkpt lat="43.3329890" lon="-3.1394730">
        <ele>167.6</ele>
        <time>2022-01-16T09:18:33Z</time>
      </trkpt>
      <trkpt lat="43.3330250" lon="-3.1395290">
        <ele>167.8</ele>
        <time>2022-01-16T09:18:34Z</time>
      </trkpt>
      <trkpt lat="43.3330600" lon="-3.1395860">
        <ele>167.8</ele>
        <time>2022-01-16T09:18:35Z</time>
      </trkpt>
      <trkpt lat="43.3330930" lon="-3.1396440">
        <ele>168.0</ele>
        <time>2022-01-16T09:18:36Z</time>
      </trkpt>
      <trkpt lat="43.3331280" lon="-3.1397020">
        <ele>168.2</ele>
        <time>2022-01-16T09:18:37Z</time>
      </trkpt>
      <trkpt lat="43.3331660" lon="-3.1397520">
        <ele>168.4</ele>
        <time>2022-01-16T09:18:38Z</time>
      </trkpt>
      <trkpt lat="43.3332050" lon="-3.1398070">
        <ele>168.6</ele>
        <time>2022-01-16T09:18:39Z</time>
      </trkpt>
      <trkpt lat="43.3332450" lon="-3.1398560">
        <ele>168.8</ele>
        <time>2022-01-16T09:18:40Z</time>
      </trkpt>
      <trkpt lat="43.3332860" lon="-3.1399000">
        <ele>169.2</ele>
        <time>2022-01-16T09:18:41Z</time>
      </trkpt>
      <trkpt lat="43.3333290" lon="-3.1399390">
        <ele>169.6</ele>
        <time>2022-01-16T09:18:42Z</time>
      </trkpt>
      <trkpt lat="43.3333720" lon="-3.1399780">
        <ele>169.6</ele>
        <time>2022-01-16T09:18:43Z</time>
      </trkpt>
      <trkpt lat="43.3334170" lon="-3.1400140">
        <ele>169.8</ele>
        <time>2022-01-16T09:18:44Z</time>
      </trkpt>
      <trkpt lat="43.3334620" lon="-3.1400500">
        <ele>170.2</ele>
        <time>2022-01-16T09:18:45Z</time>
      </trkpt>
      <trkpt lat="43.3335070" lon="-3.1400850">
        <ele>170.6</ele>
        <time>2022-01-16T09:18:46Z</time>
      </trkpt>
      <trkpt lat="43.3335520" lon="-3.1401210">
        <ele>170.8</ele>
        <time>2022-01-16T09:18:47Z</time>
      </trkpt>
      <trkpt lat="43.3335960" lon="-3.1401570">
        <ele>171.0</ele>
        <time>2022-01-16T09:18:48Z</time>
      </trkpt>
      <trkpt lat="43.3336410" lon="-3.1401930">
        <ele>171.4</ele>
        <time>2022-01-16T09:18:49Z</time>
      </trkpt>
      <trkpt lat="43.3336850" lon="-3.1402300">
        <ele>171.6</ele>
        <time>2022-01-16T09:18:50Z</time>
      </trkpt>
      <trkpt lat="43.3337300" lon="-3.1402660">
        <ele>171.8</ele>
        <time>2022-01-16T09:18:51Z</time>
      </trkpt>
      <trkpt lat="43.3337750" lon="-3.1403010">
        <ele>172.2</ele>
        <time>2022-01-16T09:18:52Z</time>
      </trkpt>
      <trkpt lat="43.3338210" lon="-3.1403360">
        <ele>172.4</ele>
        <time>2022-01-16T09:18:53Z</time>
      </trkpt>
      <trkpt lat="43.3338680" lon="-3.1403710">
        <ele>172.6</ele>
        <time>2022-01-16T09:18:54Z</time>
      </trkpt>
      <trkpt lat="43.3339160" lon="-3.1404080">
        <ele>172.8</ele>
        <time>2022-01-16T09:18:55Z</time>
      </trkpt>
      <trkpt lat="43.3339620" lon="-3.1404440">
        <ele>172.8</ele>
        <time>2022-01-16T09:18:56Z</time>
      </trkpt>
      <trkpt lat="43.3340080" lon="-3.1404800">
        <ele>173.2</ele>
        <time>2022-01-16T09:18:57Z</time>
      </trkpt>
      <trkpt lat="43.3340540" lon="-3.1405180">
        <ele>173.6</ele>
        <time>2022-01-16T09:18:58Z</time>
      </trkpt>
      <trkpt lat="43.3340990" lon="-3.1405580">
        <ele>173.8</ele>
        <time>2022-01-16T09:18:59Z</time>
      </trkpt>
      <trkpt lat="43.3341430" lon="-3.1406000">
        <ele>174.0</ele>
        <time>2022-01-16T09:19:00Z</time>
      </trkpt>
      <trkpt lat="43.3341860" lon="-3.1406440">
        <ele>174.2</ele>
        <time>2022-01-16T09:19:01Z</time>
      </trkpt>
      <trkpt lat="43.3342290" lon="-3.1406880">
        <ele>174.6</ele>
        <time>2022-01-16T09:19:02Z</time>
      </trkpt>
      <trkpt lat="43.3342710" lon="-3.1407340">
        <ele>174.8</ele>
        <time>2022-01-16T09:19:03Z</time>
      </trkpt>
      <trkpt lat="43.3343130" lon="-3.1407820">
        <ele>175.2</ele>
        <time>2022-01-16T09:19:04Z</time>
      </trkpt>
      <trkpt lat="43.3343530" lon="-3.1408310">
        <ele>175.4</ele>
        <time>2022-01-16T09:19:05Z</time>
      </trkpt>
      <trkpt lat="43.3343930" lon="-3.1408810">
        <ele>175.6</ele>
        <time>2022-01-16T09:19:06Z</time>
      </trkpt>
      <trkpt lat="43.3344330" lon="-3.1409310">
        <ele>175.6</ele>
        <time>2022-01-16T09:19:07Z</time>
      </trkpt>
      <trkpt lat="43.3344730" lon="-3.1409820">
        <ele>175.6</ele>
        <time>2022-01-16T09:19:08Z</time>
      </trkpt>
      <trkpt lat="43.3345110" lon="-3.1410350">
        <ele>175.8</ele>
        <time>2022-01-16T09:19:09Z</time>
      </trkpt>
      <trkpt lat="43.3345500" lon="-3.1410900">
        <ele>176.0</ele>
        <time>2022-01-16T09:19:10Z</time>
      </trkpt>
      <trkpt lat="43.3345890" lon="-3.1411440">
        <ele>176.2</ele>
        <time>2022-01-16T09:19:11Z</time>
      </trkpt>
      <trkpt lat="43.3346290" lon="-3.1411950">
        <ele>176.6</ele>
        <time>2022-01-16T09:19:12Z</time>
      </trkpt>
      <trkpt lat="43.3346680" lon="-3.1412470">
        <ele>176.6</ele>
        <time>2022-01-16T09:19:13Z</time>
      </trkpt>
      <trkpt lat="43.3347060" lon="-3.1412990">
        <ele>176.8</ele>
        <time>2022-01-16T09:19:14Z</time>
      </trkpt>
      <trkpt lat="43.3347440" lon="-3.1413490">
        <ele>177.0</ele>
        <time>2022-01-16T09:19:15Z</time>
      </trkpt>
      <trkpt lat="43.3347820" lon="-3.1414010">
        <ele>177.4</ele>
        <time>2022-01-16T09:19:16Z</time>
      </trkpt>
      <trkpt lat="43.3348200" lon="-3.1414530">
        <ele>177.6</ele>
        <time>2022-01-16T09:19:17Z</time>
      </trkpt>
      <trkpt lat="43.3348590" lon="-3.1415050">
        <ele>177.8</ele>
        <time>2022-01-16T09:19:18Z</time>
      </trkpt>
      <trkpt lat="43.3348980" lon="-3.1415580">
        <ele>178.0</ele>
        <time>2022-01-16T09:19:19Z</time>
      </trkpt>
      <trkpt lat="43.3349370" lon="-3.1416120">
        <ele>178.2</ele>
        <time>2022-01-16T09:19:20Z</time>
      </trkpt>
      <trkpt lat="43.3349750" lon="-3.1416650">
        <ele>178.4</ele>
        <time>2022-01-16T09:19:21Z</time>
      </trkpt>
      <trkpt lat="43.3350140" lon="-3.1417180">
        <ele>178.6</ele>
        <time>2022-01-16T09:19:22Z</time>
      </trkpt>
      <trkpt lat="43.3350530" lon="-3.1417700">
        <ele>178.8</ele>
        <time>2022-01-16T09:19:23Z</time>
      </trkpt>
      <trkpt lat="43.3350930" lon="-3.1418230">
        <ele>179.0</ele>
        <time>2022-01-16T09:19:24Z</time>
      </trkpt>
      <trkpt lat="43.3351330" lon="-3.1418760">
        <ele>179.6</ele>
        <time>2022-01-16T09:19:25Z</time>
      </trkpt>
      <trkpt lat="43.3351720" lon="-3.1419280">
        <ele>179.8</ele>
        <time>2022-01-16T09:19:26Z</time>
      </trkpt>
      <trkpt lat="43.3352120" lon="-3.1419800">
        <ele>179.8</ele>
        <time>2022-01-16T09:19:27Z</time>
      </trkpt>
      <trkpt lat="43.3352510" lon="-3.1420320">
        <ele>180.0</ele>
        <time>2022-01-16T09:19:28Z</time>
      </trkpt>
      <trkpt lat="43.3352890" lon="-3.1420840">
        <ele>180.4</ele>
        <time>2022-01-16T09:19:29Z</time>
      </trkpt>
      <trkpt lat="43.3353250" lon="-3.1421380">
        <ele>180.8</ele>
        <time>2022-01-16T09:19:30Z</time>
      </trkpt>
      <trkpt lat="43.3353610" lon="-3.1421930">
        <ele>181.2</ele>
        <time>2022-01-16T09:19:31Z</time>
      </trkpt>
      <trkpt lat="43.3353950" lon="-3.1422510">
        <ele>181.4</ele>
        <time>2022-01-16T09:19:32Z</time>
      </trkpt>
      <trkpt lat="43.3354270" lon="-3.1423120">
        <ele>181.6</ele>
        <time>2022-01-16T09:19:33Z</time>
      </trkpt>
      <trkpt lat="43.3354580" lon="-3.1423750">
        <ele>181.8</ele>
        <time>2022-01-16T09:19:34Z</time>
      </trkpt>
      <trkpt lat="43.3354890" lon="-3.1424350">
        <ele>182.0</ele>
        <time>2022-01-16T09:19:35Z</time>
      </trkpt>
      <trkpt lat="43.3355180" lon="-3.1424990">
        <ele>182.2</ele>
        <time>2022-01-16T09:19:36Z</time>
      </trkpt>
      <trkpt lat="43.3355460" lon="-3.1425660">
        <ele>182.4</ele>
        <time>2022-01-16T09:19:37Z</time>
      </trkpt>
      <trkpt lat="43.3355740" lon="-3.1426330">
        <ele>182.6</ele>
        <time>2022-01-16T09:19:38Z</time>
      </trkpt>
      <trkpt lat="43.3356000" lon="-3.1427040">
        <ele>182.8</ele>
        <time>2022-01-16T09:19:39Z</time>
      </trkpt>
      <trkpt lat="43.3356260" lon="-3.1427750">
        <ele>183.0</ele>
        <time>2022-01-16T09:19:40Z</time>
      </trkpt>
      <trkpt lat="43.3356510" lon="-3.1428490">
        <ele>183.0</ele>
        <time>2022-01-16T09:19:41Z</time>
      </trkpt>
      <trkpt lat="43.3356760" lon="-3.1429230">
        <ele>183.2</ele>
        <time>2022-01-16T09:19:42Z</time>
      </trkpt>
      <trkpt lat="43.3357010" lon="-3.1429970">
        <ele>183.4</ele>
        <time>2022-01-16T09:19:43Z</time>
      </trkpt>
      <trkpt lat="43.3357240" lon="-3.1430710">
        <ele>183.4</ele>
        <time>2022-01-16T09:19:44Z</time>
      </trkpt>
      <trkpt lat="43.3357500" lon="-3.1431440">
        <ele>183.6</ele>
        <time>2022-01-16T09:19:45Z</time>
      </trkpt>
      <trkpt lat="43.3357750" lon="-3.1432190">
        <ele>183.8</ele>
        <time>2022-01-16T09:19:46Z</time>
      </trkpt>
      <trkpt lat="43.3357990" lon="-3.1433000">
        <ele>184.0</ele>
        <time>2022-01-16T09:19:47Z</time>
      </trkpt>
      <trkpt lat="43.3358230" lon="-3.1433800">
        <ele>184.0</ele>
        <time>2022-01-16T09:19:48Z</time>
      </trkpt>
      <trkpt lat="43.3358470" lon="-3.1434660">
        <ele>183.8</ele>
        <time>2022-01-16T09:19:49Z</time>
      </trkpt>
      <trkpt lat="43.3358720" lon="-3.1435500">
        <ele>183.6</ele>
        <time>2022-01-16T09:19:50Z</time>
      </trkpt>
      <trkpt lat="43.3358950" lon="-3.1436340">
        <ele>183.6</ele>
        <time>2022-01-16T09:19:51Z</time>
      </trkpt>
      <trkpt lat="43.3359190" lon="-3.1437190">
        <ele>183.6</ele>
        <time>2022-01-16T09:19:52Z</time>
      </trkpt>
      <trkpt lat="43.3359430" lon="-3.1438060">
        <ele>183.6</ele>
        <time>2022-01-16T09:19:53Z</time>
      </trkpt>
      <trkpt lat="43.3359700" lon="-3.1438900">
        <ele>183.4</ele>
        <time>2022-01-16T09:19:54Z</time>
      </trkpt>
      <trkpt lat="43.3359970" lon="-3.1439740">
        <ele>183.4</ele>
        <time>2022-01-16T09:19:55Z</time>
      </trkpt>
      <trkpt lat="43.3360230" lon="-3.1440570">
        <ele>183.4</ele>
        <time>2022-01-16T09:19:56Z</time>
      </trkpt>
      <trkpt lat="43.3360500" lon="-3.1441390">
        <ele>183.4</ele>
        <time>2022-01-16T09:19:57Z</time>
      </trkpt>
      <trkpt lat="43.3360750" lon="-3.1442220">
        <ele>183.6</ele>
        <time>2022-01-16T09:19:58Z</time>
      </trkpt>
      <trkpt lat="43.3361010" lon="-3.1443040">
        <ele>183.6</ele>
        <time>2022-01-16T09:19:59Z</time>
      </trkpt>
      <trkpt lat="43.3361270" lon="-3.1443870">
        <ele>183.6</ele>
        <time>2022-01-16T09:20:00Z</time>
      </trkpt>
      <trkpt lat="43.3361540" lon="-3.1444700">
        <ele>183.6</ele>
        <time>2022-01-16T09:20:01Z</time>
      </trkpt>
      <trkpt lat="43.3361810" lon="-3.1445550">
        <ele>183.8</ele>
        <time>2022-01-16T09:20:02Z</time>
      </trkpt>
      <trkpt lat="43.3362090" lon="-3.1446390">
        <ele>183.8</ele>
        <time>2022-01-16T09:20:03Z</time>
      </trkpt>
      <trkpt lat="43.3362370" lon="-3.1447210">
        <ele>184.0</ele>
        <time>2022-01-16T09:20:04Z</time>
      </trkpt>
      <trkpt lat="43.3362650" lon="-3.1448040">
        <ele>184.0</ele>
        <time>2022-01-16T09:20:05Z</time>
      </trkpt>
      <trkpt lat="43.3362930" lon="-3.1448850">
        <ele>184.0</ele>
        <time>2022-01-16T09:20:06Z</time>
      </trkpt>
      <trkpt lat="43.3363210" lon="-3.1449660">
        <ele>184.0</ele>
        <time>2022-01-16T09:20:07Z</time>
      </trkpt>
      <trkpt lat="43.3363490" lon="-3.1450490">
        <ele>184.0</ele>
        <time>2022-01-16T09:20:08Z</time>
      </trkpt>
      <trkpt lat="43.3363760" lon="-3.1451330">
        <ele>184.0</ele>
        <time>2022-01-16T09:20:09Z</time>
      </trkpt>
      <trkpt lat="43.3364030" lon="-3.1452220">
        <ele>184.2</ele>
        <time>2022-01-16T09:20:10Z</time>
      </trkpt>
      <trkpt lat="43.3364320" lon="-3.1453100">
        <ele>184.2</ele>
        <time>2022-01-16T09:20:11Z</time>
      </trkpt>
      <trkpt lat="43.3364620" lon="-3.1453980">
        <ele>184.4</ele>
        <time>2022-01-16T09:20:12Z</time>
      </trkpt>
      <trkpt lat="43.3364910" lon="-3.1454870">
        <ele>184.4</ele>
        <time>2022-01-16T09:20:13Z</time>
      </trkpt>
      <trkpt lat="43.3365180" lon="-3.1455760">
        <ele>184.4</ele>
        <time>2022-01-16T09:20:14Z</time>
      </trkpt>
      <trkpt lat="43.3365440" lon="-3.1456660">
        <ele>184.4</ele>
        <time>2022-01-16T09:20:15Z</time>
      </trkpt>
      <trkpt lat="43.3365690" lon="-3.1457560">
        <ele>184.4</ele>
        <time>2022-01-16T09:20:16Z</time>
      </trkpt>
      <trkpt lat="43.3365960" lon="-3.1458460">
        <ele>184.4</ele>
        <time>2022-01-16T09:20:17Z</time>
      </trkpt>
      <trkpt lat="43.3366240" lon="-3.1459350">
        <ele>184.6</ele>
        <time>2022-01-16T09:20:18Z</time>
      </trkpt>
      <trkpt lat="43.3366520" lon="-3.1460240">
        <ele>184.6</ele>
        <time>2022-01-16T09:20:19Z</time>
      </trkpt>
      <trkpt lat="43.3366810" lon="-3.1461130">
        <ele>184.8</ele>
        <time>2022-01-16T09:20:20Z</time>
      </trkpt>
      <trkpt lat="43.3367110" lon="-3.1462000">
        <ele>184.8</ele>
        <time>2022-01-16T09:20:21Z</time>
      </trkpt>
      <trkpt lat="43.3367460" lon="-3.1462830">
        <ele>185.0</ele>
        <time>2022-01-16T09:20:22Z</time>
      </trkpt>
      <trkpt lat="43.3367830" lon="-3.1463610">
        <ele>185.2</ele>
        <time>2022-01-16T09:20:23Z</time>
      </trkpt>
      <trkpt lat="43.3368200" lon="-3.1464390">
        <ele>185.2</ele>
        <time>2022-01-16T09:20:24Z</time>
      </trkpt>
      <trkpt lat="43.3368580" lon="-3.1465160">
        <ele>185.4</ele>
        <time>2022-01-16T09:20:25Z</time>
      </trkpt>
      <trkpt lat="43.3368960" lon="-3.1465940">
        <ele>185.6</ele>
        <time>2022-01-16T09:20:26Z</time>
      </trkpt>
      <trkpt lat="43.3369340" lon="-3.1466690">
        <ele>185.6</ele>
        <time>2022-01-16T09:20:27Z</time>
      </trkpt>
      <trkpt lat="43.3369740" lon="-3.1467450">
        <ele>185.8</ele>
        <time>2022-01-16T09:20:28Z</time>
      </trkpt>
      <trkpt lat="43.3370130" lon="-3.1468220">
        <ele>185.8</ele>
        <time>2022-01-16T09:20:29Z</time>
      </trkpt>
      <trkpt lat="43.3370510" lon="-3.1468990">
        <ele>185.8</ele>
        <time>2022-01-16T09:20:30Z</time>
      </trkpt>
      <trkpt lat="43.3370910" lon="-3.1469750">
        <ele>185.8</ele>
        <time>2022-01-16T09:20:31Z</time>
      </trkpt>
      <trkpt lat="43.3371310" lon="-3.1470530">
        <ele>186.0</ele>
        <time>2022-01-16T09:20:32Z</time>
      </trkpt>
      <trkpt lat="43.3371700" lon="-3.1471310">
        <ele>186.2</ele>
        <time>2022-01-16T09:20:33Z</time>
      </trkpt>
      <trkpt lat="43.3372080" lon="-3.1472080">
        <ele>186.4</ele>
        <time>2022-01-16T09:20:34Z</time>
      </trkpt>
      <trkpt lat="43.3372470" lon="-3.1472850">
        <ele>186.6</ele>
        <time>2022-01-16T09:20:35Z</time>
      </trkpt>
      <trkpt lat="43.3372870" lon="-3.1473600">
        <ele>186.6</ele>
        <time>2022-01-16T09:20:36Z</time>
      </trkpt>
      <trkpt lat="43.3373270" lon="-3.1474340">
        <ele>186.8</ele>
        <time>2022-01-16T09:20:37Z</time>
      </trkpt>
      <trkpt lat="43.3373670" lon="-3.1475100">
        <ele>186.8</ele>
        <time>2022-01-16T09:20:38Z</time>
      </trkpt>
      <trkpt lat="43.3374080" lon="-3.1475840">
        <ele>187.0</ele>
        <time>2022-01-16T09:20:39Z</time>
      </trkpt>
      <trkpt lat="43.3374460" lon="-3.1476590">
        <ele>187.0</ele>
        <time>2022-01-16T09:20:40Z</time>
      </trkpt>
      <trkpt lat="43.3374840" lon="-3.1477320">
        <ele>187.4</ele>
        <time>2022-01-16T09:20:41Z</time>
      </trkpt>
      <trkpt lat="43.3375200" lon="-3.1478070">
        <ele>187.4</ele>
        <time>2022-01-16T09:20:42Z</time>
      </trkpt>
      <trkpt lat="43.3375550" lon="-3.1478860">
        <ele>187.6</ele>
        <time>2022-01-16T09:20:43Z</time>
      </trkpt>
      <trkpt lat="43.3375850" lon="-3.1479680">
        <ele>187.8</ele>
        <time>2022-01-16T09:20:44Z</time>
      </trkpt>
      <trkpt lat="43.3376120" lon="-3.1480510">
        <ele>187.8</ele>
        <time>2022-01-16T09:20:45Z</time>
      </trkpt>
      <trkpt lat="43.3376340" lon="-3.1481370">
        <ele>188.0</ele>
        <time>2022-01-16T09:20:46Z</time>
      </trkpt>
      <trkpt lat="43.3376560" lon="-3.1482240">
        <ele>188.4</ele>
        <time>2022-01-16T09:20:47Z</time>
      </trkpt>
      <trkpt lat="43.3376730" lon="-3.1483130">
        <ele>188.6</ele>
        <time>2022-01-16T09:20:48Z</time>
      </trkpt>
      <trkpt lat="43.3376860" lon="-3.1484050">
        <ele>188.6</ele>
        <time>2022-01-16T09:20:49Z</time>
      </trkpt>
      <trkpt lat="43.3377010" lon="-3.1484940">
        <ele>188.8</ele>
        <time>2022-01-16T09:20:50Z</time>
      </trkpt>
      <trkpt lat="43.3377140" lon="-3.1485900">
        <ele>188.8</ele>
        <time>2022-01-16T09:20:51Z</time>
      </trkpt>
      <trkpt lat="43.3377270" lon="-3.1486850">
        <ele>188.8</ele>
        <time>2022-01-16T09:20:52Z</time>
      </trkpt>
      <trkpt lat="43.3377410" lon="-3.1487810">
        <ele>188.8</ele>
        <time>2022-01-16T09:20:53Z</time>
      </trkpt>
      <trkpt lat="43.3377550" lon="-3.1488750">
        <ele>188.8</ele>
        <time>2022-01-16T09:20:54Z</time>
      </trkpt>
      <trkpt lat="43.3377690" lon="-3.1489690">
        <ele>188.8</ele>
        <time>2022-01-16T09:20:55Z</time>
      </trkpt>
      <trkpt lat="43.3377810" lon="-3.1490600">
        <ele>188.8</ele>
        <time>2022-01-16T09:20:56Z</time>
      </trkpt>
      <trkpt lat="43.3377940" lon="-3.1491500">
        <ele>189.0</ele>
        <time>2022-01-16T09:20:57Z</time>
      </trkpt>
      <trkpt lat="43.3378060" lon="-3.1492400">
        <ele>189.0</ele>
        <time>2022-01-16T09:20:58Z</time>
      </trkpt>
      <trkpt lat="43.3378160" lon="-3.1493260">
        <ele>189.4</ele>
        <time>2022-01-16T09:20:59Z</time>
      </trkpt>
      <trkpt lat="43.3378270" lon="-3.1494130">
        <ele>189.4</ele>
        <time>2022-01-16T09:21:00Z</time>
      </trkpt>
      <trkpt lat="43.3378390" lon="-3.1494990">
        <ele>189.6</ele>
        <time>2022-01-16T09:21:01Z</time>
      </trkpt>
      <trkpt lat="43.3378530" lon="-3.1495840">
        <ele>189.8</ele>
        <time>2022-01-16T09:21:02Z</time>
      </trkpt>
      <trkpt lat="43.3378670" lon="-3.1496700">
        <ele>190.0</ele>
        <time>2022-01-16T09:21:03Z</time>
      </trkpt>
      <trkpt lat="43.3378840" lon="-3.1497540">
        <ele>190.0</ele>
        <time>2022-01-16T09:21:04Z</time>
      </trkpt>
      <trkpt lat="43.3379050" lon="-3.1498380">
        <ele>190.2</ele>
        <time>2022-01-16T09:21:05Z</time>
      </trkpt>
      <trkpt lat="43.3379280" lon="-3.1499180">
        <ele>190.4</ele>
        <time>2022-01-16T09:21:06Z</time>
      </trkpt>
      <trkpt lat="43.3379530" lon="-3.1499960">
        <ele>190.4</ele>
        <time>2022-01-16T09:21:07Z</time>
      </trkpt>
      <trkpt lat="43.3379800" lon="-3.1500730">
        <ele>190.6</ele>
        <time>2022-01-16T09:21:08Z</time>
      </trkpt>
      <trkpt lat="43.3380110" lon="-3.1501480">
        <ele>190.8</ele>
        <time>2022-01-16T09:21:09Z</time>
      </trkpt>
      <trkpt lat="43.3380450" lon="-3.1502200">
        <ele>191.2</ele>
        <time>2022-01-16T09:21:10Z</time>
      </trkpt>
      <trkpt lat="43.3380840" lon="-3.1502870">
        <ele>191.4</ele>
        <time>2022-01-16T09:21:11Z</time>
      </trkpt>
      <trkpt lat="43.3381260" lon="-3.1503520">
        <ele>191.4</ele>
        <time>2022-01-16T09:21:12Z</time>
      </trkpt>
      <trkpt lat="43.3381680" lon="-3.1504190">
        <ele>191.8</ele>
        <time>2022-01-16T09:21:13Z</time>
      </trkpt>
      <trkpt lat="43.3382120" lon="-3.1504840">
        <ele>192.0</ele>
        <time>2022-01-16T09:21:14Z</time>
      </trkpt>
      <trkpt lat="43.3382570" lon="-3.1505480">
        <ele>192.2</ele>
        <time>2022-01-16T09:21:15Z</time>
      </trkpt>
      <trkpt lat="43.3383020" lon="-3.1506140">
        <ele>192.4</ele>
        <time>2022-01-16T09:21:16Z</time>
      </trkpt>
      <trkpt lat="43.3383470" lon="-3.1506800">
        <ele>192.6</ele>
        <time>2022-01-16T09:21:17Z</time>
      </trkpt>
      <trkpt lat="43.3383930" lon="-3.1507470">
        <ele>192.8</ele>
        <time>2022-01-16T09:21:18Z</time>
      </trkpt>
      <trkpt lat="43.3384370" lon="-3.1508130">
        <ele>193.0</ele>
        <time>2022-01-16T09:21:19Z</time>
      </trkpt>
      <trkpt lat="43.3384790" lon="-3.1508820">
        <ele>193.0</ele>
        <time>2022-01-16T09:21:20Z</time>
      </trkpt>
      <trkpt lat="43.3385210" lon="-3.1509530">
        <ele>193.2</ele>
        <time>2022-01-16T09:21:21Z</time>
      </trkpt>
      <trkpt lat="43.3385610" lon="-3.1510280">
        <ele>193.2</ele>
        <time>2022-01-16T09:21:22Z</time>
      </trkpt>
      <trkpt lat="43.3385990" lon="-3.1511020">
        <ele>193.2</ele>
        <time>2022-01-16T09:21:23Z</time>
      </trkpt>
      <trkpt lat="43.3386360" lon="-3.1511790">
        <ele>193.2</ele>
        <time>2022-01-16T09:21:24Z</time>
      </trkpt>
      <trkpt lat="43.3386700" lon="-3.1512580">
        <ele>193.4</ele>
        <time>2022-01-16T09:21:25Z</time>
      </trkpt>
      <trkpt lat="43.3387030" lon="-3.1513380">
        <ele>193.4</ele>
        <time>2022-01-16T09:21:26Z</time>
      </trkpt>
      <trkpt lat="43.3387350" lon="-3.1514200">
        <ele>193.4</ele>
        <time>2022-01-16T09:21:27Z</time>
      </trkpt>
      <trkpt lat="43.3387680" lon="-3.1515020">
        <ele>193.4</ele>
        <time>2022-01-16T09:21:28Z</time>
      </trkpt>
      <trkpt lat="43.3388010" lon="-3.1515820">
        <ele>193.4</ele>
        <time>2022-01-16T09:21:29Z</time>
      </trkpt>
      <trkpt lat="43.3388350" lon="-3.1516660">
        <ele>193.6</ele>
        <time>2022-01-16T09:21:30Z</time>
      </trkpt>
      <trkpt lat="43.3388690" lon="-3.1517490">
        <ele>193.6</ele>
        <time>2022-01-16T09:21:31Z</time>
      </trkpt>
      <trkpt lat="43.3389050" lon="-3.1518310">
        <ele>193.6</ele>
        <time>2022-01-16T09:21:32Z</time>
      </trkpt>
      <trkpt lat="43.3389410" lon="-3.1519120">
        <ele>193.8</ele>
        <time>2022-01-16T09:21:33Z</time>
      </trkpt>
      <trkpt lat="43.3389800" lon="-3.1519900">
        <ele>194.2</ele>
        <time>2022-01-16T09:21:34Z</time>
      </trkpt>
      <trkpt lat="43.3390230" lon="-3.1520650">
        <ele>194.2</ele>
        <time>2022-01-16T09:21:35Z</time>
      </trkpt>
      <trkpt lat="43.3390680" lon="-3.1521370">
        <ele>194.4</ele>
        <time>2022-01-16T09:21:36Z</time>
      </trkpt>
      <trkpt lat="43.3391180" lon="-3.1522050">
        <ele>194.4</ele>
        <time>2022-01-16T09:21:37Z</time>
      </trkpt>
      <trkpt lat="43.3391710" lon="-3.1522680">
        <ele>194.4</ele>
        <time>2022-01-16T09:21:38Z</time>
      </trkpt>
      <trkpt lat="43.3392270" lon="-3.1523270">
        <ele>194.2</ele>
        <time>2022-01-16T09:21:39Z</time>
      </trkpt>
      <trkpt lat="43.3392850" lon="-3.1523850">
        <ele>194.2</ele>
        <time>2022-01-16T09:21:40Z</time>
      </trkpt>
      <trkpt lat="43.3393450" lon="-3.1524440">
        <ele>194.2</ele>
        <time>2022-01-16T09:21:41Z</time>
      </trkpt>
      <trkpt lat="43.3394050" lon="-3.1525010">
        <ele>194.2</ele>
        <time>2022-01-16T09:21:42Z</time>
      </trkpt>
      <trkpt lat="43.3394640" lon="-3.1525590">
        <ele>194.2</ele>
        <time>2022-01-16T09:21:43Z</time>
      </trkpt>
      <trkpt lat="43.3395240" lon="-3.1526180">
        <ele>194.2</ele>
        <time>2022-01-16T09:21:44Z</time>
      </trkpt>
      <trkpt lat="43.3395840" lon="-3.1526760">
        <ele>194.2</ele>
        <time>2022-01-16T09:21:45Z</time>
      </trkpt>
      <trkpt lat="43.3396420" lon="-3.1527320">
        <ele>194.4</ele>
        <time>2022-01-16T09:21:46Z</time>
      </trkpt>
      <trkpt lat="43.3396990" lon="-3.1527890">
        <ele>194.4</ele>
        <time>2022-01-16T09:21:47Z</time>
      </trkpt>
      <trkpt lat="43.3397540" lon="-3.1528480">
        <ele>194.6</ele>
        <time>2022-01-16T09:21:48Z</time>
      </trkpt>
      <trkpt lat="43.3398100" lon="-3.1529060">
        <ele>194.8</ele>
        <time>2022-01-16T09:21:49Z</time>
      </trkpt>
      <trkpt lat="43.3398660" lon="-3.1529640">
        <ele>194.8</ele>
        <time>2022-01-16T09:21:50Z</time>
      </trkpt>
      <trkpt lat="43.3399220" lon="-3.1530210">
        <ele>195.2</ele>
        <time>2022-01-16T09:21:51Z</time>
      </trkpt>
      <trkpt lat="43.3399790" lon="-3.1530780">
        <ele>195.4</ele>
        <time>2022-01-16T09:21:52Z</time>
      </trkpt>
      <trkpt lat="43.3400350" lon="-3.1531370">
        <ele>195.4</ele>
        <time>2022-01-16T09:21:53Z</time>
      </trkpt>
      <trkpt lat="43.3400920" lon="-3.1531960">
        <ele>195.4</ele>
        <time>2022-01-16T09:21:54Z</time>
      </trkpt>
      <trkpt lat="43.3401460" lon="-3.1532580">
        <ele>195.4</ele>
        <time>2022-01-16T09:21:55Z</time>
      </trkpt>
      <trkpt lat="43.3401990" lon="-3.1533200">
        <ele>195.6</ele>
        <time>2022-01-16T09:21:56Z</time>
      </trkpt>
      <trkpt lat="43.3402510" lon="-3.1533840">
        <ele>195.6</ele>
        <time>2022-01-16T09:21:57Z</time>
      </trkpt>
      <trkpt lat="43.3403030" lon="-3.1534490">
        <ele>195.8</ele>
        <time>2022-01-16T09:21:58Z</time>
      </trkpt>
      <trkpt lat="43.3403550" lon="-3.1535140">
        <ele>195.8</ele>
        <time>2022-01-16T09:21:59Z</time>
      </trkpt>
      <trkpt lat="43.3404060" lon="-3.1535820">
        <ele>195.8</ele>
        <time>2022-01-16T09:22:00Z</time>
      </trkpt>
      <trkpt lat="43.3404580" lon="-3.1536510">
        <ele>195.8</ele>
        <time>2022-01-16T09:22:01Z</time>
      </trkpt>
      <trkpt lat="43.3405100" lon="-3.1537190">
        <ele>195.8</ele>
        <time>2022-01-16T09:22:02Z</time>
      </trkpt>
      <trkpt lat="43.3405610" lon="-3.1537910">
        <ele>195.8</ele>
        <time>2022-01-16T09:22:03Z</time>
      </trkpt>
      <trkpt lat="43.3406100" lon="-3.1538610">
        <ele>195.8</ele>
        <time>2022-01-16T09:22:04Z</time>
      </trkpt>
      <trkpt lat="43.3406600" lon="-3.1539310">
        <ele>195.8</ele>
        <time>2022-01-16T09:22:05Z</time>
      </trkpt>
      <trkpt lat="43.3407100" lon="-3.1540000">
        <ele>195.6</ele>
        <time>2022-01-16T09:22:06Z</time>
      </trkpt>
      <trkpt lat="43.3407600" lon="-3.1540680">
        <ele>195.6</ele>
        <time>2022-01-16T09:22:07Z</time>
      </trkpt>
      <trkpt lat="43.3408100" lon="-3.1541390">
        <ele>195.6</ele>
        <time>2022-01-16T09:22:08Z</time>
      </trkpt>
      <trkpt lat="43.3408610" lon="-3.1542100">
        <ele>195.4</ele>
        <time>2022-01-16T09:22:09Z</time>
      </trkpt>
      <trkpt lat="43.3409120" lon="-3.1542790">
        <ele>195.4</ele>
        <time>2022-01-16T09:22:10Z</time>
      </trkpt>
      <trkpt lat="43.3409620" lon="-3.1543490">
        <ele>195.4</ele>
        <time>2022-01-16T09:22:11Z</time>
      </trkpt>
      <trkpt lat="43.3410120" lon="-3.1544210">
        <ele>195.4</ele>
        <time>2022-01-16T09:22:12Z</time>
      </trkpt>
      <trkpt lat="43.3410610" lon="-3.1544920">
        <ele>195.2</ele>
        <time>2022-01-16T09:22:13Z</time>
      </trkpt>
      <trkpt lat="43.3411110" lon="-3.1545620">
        <ele>195.0</ele>
        <time>2022-01-16T09:22:14Z</time>
      </trkpt>
      <trkpt lat="43.3411610" lon="-3.1546310">
        <ele>195.0</ele>
        <time>2022-01-16T09:22:15Z</time>
      </trkpt>
      <trkpt lat="43.3412110" lon="-3.1546980">
        <ele>194.8</ele>
        <time>2022-01-16T09:22:16Z</time>
      </trkpt>
      <trkpt lat="43.3412610" lon="-3.1547660">
        <ele>194.8</ele>
        <time>2022-01-16T09:22:17Z</time>
      </trkpt>
      <trkpt lat="43.3413110" lon="-3.1548340">
        <ele>194.6</ele>
        <time>2022-01-16T09:22:18Z</time>
      </trkpt>
      <trkpt lat="43.3413590" lon="-3.1549050">
        <ele>194.4</ele>
        <time>2022-01-16T09:22:19Z</time>
      </trkpt>
      <trkpt lat="43.3414080" lon="-3.1549740">
        <ele>194.4</ele>
        <time>2022-01-16T09:22:20Z</time>
      </trkpt>
      <trkpt lat="43.3414580" lon="-3.1550400">
        <ele>194.2</ele>
        <time>2022-01-16T09:22:21Z</time>
      </trkpt>
      <trkpt lat="43.3415060" lon="-3.1551070">
        <ele>194.2</ele>
        <time>2022-01-16T09:22:22Z</time>
      </trkpt>
      <trkpt lat="43.3415540" lon="-3.1551790">
        <ele>194.0</ele>
        <time>2022-01-16T09:22:23Z</time>
      </trkpt>
      <trkpt lat="43.3416050" lon="-3.1552520">
        <ele>194.0</ele>
        <time>2022-01-16T09:22:24Z</time>
      </trkpt>
      <trkpt lat="43.3416590" lon="-3.1553260">
        <ele>193.8</ele>
        <time>2022-01-16T09:22:25Z</time>
      </trkpt>
      <trkpt lat="43.3417130" lon="-3.1554010">
        <ele>193.8</ele>
        <time>2022-01-16T09:22:26Z</time>
      </trkpt>
      <trkpt lat="43.3417690" lon="-3.1554750">
        <ele>193.6</ele>
        <time>2022-01-16T09:22:27Z</time>
      </trkpt>
      <trkpt lat="43.3418240" lon="-3.1555520">
        <ele>193.4</ele>
        <time>2022-01-16T09:22:28Z</time>
      </trkpt>
      <trkpt lat="43.3418790" lon="-3.1556280">
        <ele>193.4</ele>
        <time>2022-01-16T09:22:29Z</time>
      </trkpt>
      <trkpt lat="43.3419340" lon="-3.1557030">
        <ele>193.4</ele>
        <time>2022-01-16T09:22:30Z</time>
      </trkpt>
      <trkpt lat="43.3419870" lon="-3.1557770">
        <ele>193.6</ele>
        <time>2022-01-16T09:22:31Z</time>
      </trkpt>
      <trkpt lat="43.3420380" lon="-3.1558520">
        <ele>193.6</ele>
        <time>2022-01-16T09:22:32Z</time>
      </trkpt>
      <trkpt lat="43.3420870" lon="-3.1559290">
        <ele>193.4</ele>
        <time>2022-01-16T09:22:33Z</time>
      </trkpt>
      <trkpt lat="43.3421340" lon="-3.1560090">
        <ele>193.2</ele>
        <time>2022-01-16T09:22:34Z</time>
      </trkpt>
      <trkpt lat="43.3421810" lon="-3.1560880">
        <ele>193.2</ele>
        <time>2022-01-16T09:22:35Z</time>
      </trkpt>
      <trkpt lat="43.3422310" lon="-3.1561680">
        <ele>193.0</ele>
        <time>2022-01-16T09:22:36Z</time>
      </trkpt>
      <trkpt lat="43.3422810" lon="-3.1562490">
        <ele>192.6</ele>
        <time>2022-01-16T09:22:37Z</time>
      </trkpt>
      <trkpt lat="43.3423350" lon="-3.1563310">
        <ele>192.2</ele>
        <time>2022-01-16T09:22:38Z</time>
      </trkpt>
      <trkpt lat="43.3423960" lon="-3.1564090">
        <ele>191.6</ele>
        <time>2022-01-16T09:22:39Z</time>
      </trkpt>
      <trkpt lat="43.3424660" lon="-3.1564760">
        <ele>191.2</ele>
        <time>2022-01-16T09:22:40Z</time>
      </trkpt>
      <trkpt lat="43.3425450" lon="-3.1565160">
        <ele>190.8</ele>
        <time>2022-01-16T09:22:41Z</time>
      </trkpt>
      <trkpt lat="43.3426250" lon="-3.1565370">
        <ele>190.2</ele>
        <time>2022-01-16T09:22:42Z</time>
      </trkpt>
      <trkpt lat="43.3426990" lon="-3.1565760">
        <ele>189.8</ele>
        <time>2022-01-16T09:22:43Z</time>
      </trkpt>
      <trkpt lat="43.3427570" lon="-3.1566490">
        <ele>189.2</ele>
        <time>2022-01-16T09:22:44Z</time>
      </trkpt>
      <trkpt lat="43.3427830" lon="-3.1567500">
        <ele>188.6</ele>
        <time>2022-01-16T09:22:45Z</time>
      </trkpt>
      <trkpt lat="43.3427790" lon="-3.1568540">
        <ele>188.4</ele>
        <time>2022-01-16T09:22:46Z</time>
      </trkpt>
      <trkpt lat="43.3427560" lon="-3.1569540">
        <ele>188.2</ele>
        <time>2022-01-16T09:22:47Z</time>
      </trkpt>
      <trkpt lat="43.3427440" lon="-3.1570560">
        <ele>188.2</ele>
        <time>2022-01-16T09:22:48Z</time>
      </trkpt>
      <trkpt lat="43.3427620" lon="-3.1571590">
        <ele>187.8</ele>
        <time>2022-01-16T09:22:49Z</time>
      </trkpt>
      <trkpt lat="43.3428070" lon="-3.1572510">
        <ele>187.6</ele>
        <time>2022-01-16T09:22:50Z</time>
      </trkpt>
      <trkpt lat="43.3428640" lon="-3.1573350">
        <ele>187.2</ele>
        <time>2022-01-16T09:22:51Z</time>
      </trkpt>
      <trkpt lat="43.3429260" lon="-3.1574200">
        <ele>186.8</ele>
        <time>2022-01-16T09:22:52Z</time>
      </trkpt>
      <trkpt lat="43.3429920" lon="-3.1575090">
        <ele>186.0</ele>
        <time>2022-01-16T09:22:53Z</time>
      </trkpt>
      <trkpt lat="43.3430600" lon="-3.1576000">
        <ele>185.6</ele>
        <time>2022-01-16T09:22:54Z</time>
      </trkpt>
      <trkpt lat="43.3431310" lon="-3.1576950">
        <ele>185.0</ele>
        <time>2022-01-16T09:22:55Z</time>
      </trkpt>
      <trkpt lat="43.3432040" lon="-3.1577940">
        <ele>184.2</ele>
        <time>2022-01-16T09:22:56Z</time>
      </trkpt>
      <trkpt lat="43.3432780" lon="-3.1578960">
        <ele>183.6</ele>
        <time>2022-01-16T09:22:57Z</time>
      </trkpt>
      <trkpt lat="43.3433540" lon="-3.1580020">
        <ele>182.8</ele>
        <time>2022-01-16T09:22:58Z</time>
      </trkpt>
      <trkpt lat="43.3434310" lon="-3.1581120">
        <ele>182.0</ele>
        <time>2022-01-16T09:22:59Z</time>
      </trkpt>
      <trkpt lat="43.3435090" lon="-3.1582240">
        <ele>181.4</ele>
        <time>2022-01-16T09:23:00Z</time>
      </trkpt>
      <trkpt lat="43.3435890" lon="-3.1583380">
        <ele>180.8</ele>
        <time>2022-01-16T09:23:01Z</time>
      </trkpt>
      <trkpt lat="43.3436700" lon="-3.1584540">
        <ele>179.6</ele>
        <time>2022-01-16T09:23:02Z</time>
      </trkpt>
      <trkpt lat="43.3437530" lon="-3.1585710">
        <ele>178.6</ele>
        <time>2022-01-16T09:23:03Z</time>
      </trkpt>
      <trkpt lat="43.3438360" lon="-3.1586890">
        <ele>178.0</ele>
        <time>2022-01-16T09:23:04Z</time>
      </trkpt>
      <trkpt lat="43.3439180" lon="-3.1588050">
        <ele>177.2</ele>
        <time>2022-01-16T09:23:05Z</time>
      </trkpt>
      <trkpt lat="43.3439960" lon="-3.1589190">
        <ele>176.6</ele>
        <time>2022-01-16T09:23:06Z</time>
      </trkpt>
      <trkpt lat="43.3440760" lon="-3.1590320">
        <ele>175.6</ele>
        <time>2022-01-16T09:23:07Z</time>
      </trkpt>
      <trkpt lat="43.3441550" lon="-3.1591490">
        <ele>175.0</ele>
        <time>2022-01-16T09:23:08Z</time>
      </trkpt>
      <trkpt lat="43.3442360" lon="-3.1592690">
        <ele>174.0</ele>
        <time>2022-01-16T09:23:09Z</time>
      </trkpt>
      <trkpt lat="43.3443200" lon="-3.1593900">
        <ele>173.0</ele>
        <time>2022-01-16T09:23:10Z</time>
      </trkpt>
      <trkpt lat="43.3444060" lon="-3.1595110">
        <ele>172.0</ele>
        <time>2022-01-16T09:23:11Z</time>
      </trkpt>
      <trkpt lat="43.3444910" lon="-3.1596340">
        <ele>171.2</ele>
        <time>2022-01-16T09:23:12Z</time>
      </trkpt>
      <trkpt lat="43.3445750" lon="-3.1597550">
        <ele>170.6</ele>
        <time>2022-01-16T09:23:13Z</time>
      </trkpt>
      <trkpt lat="43.3446580" lon="-3.1598750">
        <ele>169.8</ele>
        <time>2022-01-16T09:23:14Z</time>
      </trkpt>
      <trkpt lat="43.3447400" lon="-3.1599920">
        <ele>169.2</ele>
        <time>2022-01-16T09:23:15Z</time>
      </trkpt>
      <trkpt lat="43.3448220" lon="-3.1601080">
        <ele>168.4</ele>
        <time>2022-01-16T09:23:16Z</time>
      </trkpt>
      <trkpt lat="43.3449040" lon="-3.1602280">
        <ele>167.8</ele>
        <time>2022-01-16T09:23:17Z</time>
      </trkpt>
      <trkpt lat="43.3449860" lon="-3.1603500">
        <ele>167.0</ele>
        <time>2022-01-16T09:23:18Z</time>
      </trkpt>
      <trkpt lat="43.3450670" lon="-3.1604780">
        <ele>166.4</ele>
        <time>2022-01-16T09:23:19Z</time>
      </trkpt>
      <trkpt lat="43.3451440" lon="-3.1606140">
        <ele>165.4</ele>
        <time>2022-01-16T09:23:20Z</time>
      </trkpt>
      <trkpt lat="43.3452170" lon="-3.1607580">
        <ele>164.6</ele>
        <time>2022-01-16T09:23:21Z</time>
      </trkpt>
      <trkpt lat="43.3452880" lon="-3.1609040">
        <ele>163.8</ele>
        <time>2022-01-16T09:23:22Z</time>
      </trkpt>
      <trkpt lat="43.3453600" lon="-3.1610490">
        <ele>162.6</ele>
        <time>2022-01-16T09:23:23Z</time>
      </trkpt>
      <trkpt lat="43.3454300" lon="-3.1611920">
        <ele>161.8</ele>
        <time>2022-01-16T09:23:24Z</time>
      </trkpt>
      <trkpt lat="43.3454980" lon="-3.1613360">
        <ele>160.8</ele>
        <time>2022-01-16T09:23:25Z</time>
      </trkpt>
      <trkpt lat="43.3455690" lon="-3.1614810">
        <ele>160.0</ele>
        <time>2022-01-16T09:23:26Z</time>
      </trkpt>
      <trkpt lat="43.3456410" lon="-3.1616260">
        <ele>159.4</ele>
        <time>2022-01-16T09:23:27Z</time>
      </trkpt>
      <trkpt lat="43.3457140" lon="-3.1617730">
        <ele>158.8</ele>
        <time>2022-01-16T09:23:28Z</time>
      </trkpt>
      <trkpt lat="43.3457910" lon="-3.1619180">
        <ele>157.4</ele>
        <time>2022-01-16T09:23:29Z</time>
      </trkpt>
      <trkpt lat="43.3458710" lon="-3.1620640">
        <ele>156.6</ele>
        <time>2022-01-16T09:23:30Z</time>
      </trkpt>
      <trkpt lat="43.3459540" lon="-3.1622080">
        <ele>156.0</ele>
        <time>2022-01-16T09:23:31Z</time>
      </trkpt>
      <trkpt lat="43.3460420" lon="-3.1623460">
        <ele>155.0</ele>
        <time>2022-01-16T09:23:32Z</time>
      </trkpt>
      <trkpt lat="43.3461350" lon="-3.1624800">
        <ele>154.4</ele>
        <time>2022-01-16T09:23:33Z</time>
      </trkpt>
      <trkpt lat="43.3462280" lon="-3.1626140">
        <ele>153.4</ele>
        <time>2022-01-16T09:23:34Z</time>
      </trkpt>
      <trkpt lat="43.3463220" lon="-3.1627490">
        <ele>152.6</ele>
        <time>2022-01-16T09:23:35Z</time>
      </trkpt>
      <trkpt lat="43.3464160" lon="-3.1628830">
        <ele>151.8</ele>
        <time>2022-01-16T09:23:36Z</time>
      </trkpt>
      <trkpt lat="43.3465090" lon="-3.1630170">
        <ele>150.6</ele>
        <time>2022-01-16T09:23:37Z</time>
      </trkpt>
      <trkpt lat="43.3466040" lon="-3.1631520">
        <ele>149.2</ele>
        <time>2022-01-16T09:23:38Z</time>
      </trkpt>
      <trkpt lat="43.3467000" lon="-3.1632870">
        <ele>148.6</ele>
        <time>2022-01-16T09:23:39Z</time>
      </trkpt>
      <trkpt lat="43.3467950" lon="-3.1634210">
        <ele>148.2</ele>
        <time>2022-01-16T09:23:40Z</time>
      </trkpt>
      <trkpt lat="43.3468880" lon="-3.1635540">
        <ele>147.4</ele>
        <time>2022-01-16T09:23:41Z</time>
      </trkpt>
      <trkpt lat="43.3469790" lon="-3.1636880">
        <ele>146.4</ele>
        <time>2022-01-16T09:23:42Z</time>
      </trkpt>
      <trkpt lat="43.3470690" lon="-3.1638250">
        <ele>145.4</ele>
        <time>2022-01-16T09:23:43Z</time>
      </trkpt>
      <trkpt lat="43.3471560" lon="-3.1639660">
        <ele>144.4</ele>
        <time>2022-01-16T09:23:44Z</time>
      </trkpt>
      <trkpt lat="43.3472370" lon="-3.1641090">
        <ele>143.6</ele>
        <time>2022-01-16T09:23:45Z</time>
      </trkpt>
      <trkpt lat="43.3473130" lon="-3.1642550">
        <ele>143.0</ele>
        <time>2022-01-16T09:23:46Z</time>
      </trkpt>
      <trkpt lat="43.3473880" lon="-3.1644020">
        <ele>141.4</ele>
        <time>2022-01-16T09:23:47Z</time>
      </trkpt>
      <trkpt lat="43.3474620" lon="-3.1645470">
        <ele>140.6</ele>
        <time>2022-01-16T09:23:48Z</time>
      </trkpt>
      <trkpt lat="43.3475370" lon="-3.1646930">
        <ele>139.8</ele>
        <time>2022-01-16T09:23:49Z</time>
      </trkpt>
      <trkpt lat="43.3476130" lon="-3.1648410">
        <ele>138.4</ele>
        <time>2022-01-16T09:23:50Z</time>
      </trkpt>
      <trkpt lat="43.3476890" lon="-3.1649880">
        <ele>137.2</ele>
        <time>2022-01-16T09:23:51Z</time>
      </trkpt>
      <trkpt lat="43.3477670" lon="-3.1651340">
        <ele>136.4</ele>
        <time>2022-01-16T09:23:52Z</time>
      </trkpt>
      <trkpt lat="43.3478430" lon="-3.1652790">
        <ele>135.8</ele>
        <time>2022-01-16T09:23:53Z</time>
      </trkpt>
      <trkpt lat="43.3479180" lon="-3.1654240">
        <ele>134.8</ele>
        <time>2022-01-16T09:23:54Z</time>
      </trkpt>
      <trkpt lat="43.3479950" lon="-3.1655680">
        <ele>133.6</ele>
        <time>2022-01-16T09:23:55Z</time>
      </trkpt>
      <trkpt lat="43.3480730" lon="-3.1657110">
        <ele>132.8</ele>
        <time>2022-01-16T09:23:56Z</time>
      </trkpt>
      <trkpt lat="43.3481500" lon="-3.1658510">
        <ele>132.2</ele>
        <time>2022-01-16T09:23:57Z</time>
      </trkpt>
      <trkpt lat="43.3482260" lon="-3.1659900">
        <ele>131.0</ele>
        <time>2022-01-16T09:23:58Z</time>
      </trkpt>
      <trkpt lat="43.3483030" lon="-3.1661280">
        <ele>130.0</ele>
        <time>2022-01-16T09:23:59Z</time>
      </trkpt>
      <trkpt lat="43.3483810" lon="-3.1662660">
        <ele>129.4</ele>
        <time>2022-01-16T09:24:00Z</time>
      </trkpt>
      <trkpt lat="43.3484600" lon="-3.1664050">
        <ele>128.6</ele>
        <time>2022-01-16T09:24:01Z</time>
      </trkpt>
      <trkpt lat="43.3485400" lon="-3.1665450">
        <ele>128.0</ele>
        <time>2022-01-16T09:24:02Z</time>
      </trkpt>
      <trkpt lat="43.3486210" lon="-3.1666850">
        <ele>126.8</ele>
        <time>2022-01-16T09:24:03Z</time>
      </trkpt>
      <trkpt lat="43.3487020" lon="-3.1668260">
        <ele>125.6</ele>
        <time>2022-01-16T09:24:04Z</time>
      </trkpt>
      <trkpt lat="43.3487810" lon="-3.1669650">
        <ele>125.0</ele>
        <time>2022-01-16T09:24:05Z</time>
      </trkpt>
      <trkpt lat="43.3488600" lon="-3.1671030">
        <ele>124.4</ele>
        <time>2022-01-16T09:24:06Z</time>
      </trkpt>
      <trkpt lat="43.3489400" lon="-3.1672420">
        <ele>123.8</ele>
        <time>2022-01-16T09:24:07Z</time>
      </trkpt>
      <trkpt lat="43.3490180" lon="-3.1673830">
        <ele>122.8</ele>
        <time>2022-01-16T09:24:08Z</time>
      </trkpt>
      <trkpt lat="43.3490960" lon="-3.1675230">
        <ele>121.8</ele>
        <time>2022-01-16T09:24:09Z</time>
      </trkpt>
      <trkpt lat="43.3491750" lon="-3.1676620">
        <ele>121.0</ele>
        <time>2022-01-16T09:24:10Z</time>
      </trkpt>
      <trkpt lat="43.3492540" lon="-3.1678010">
        <ele>119.8</ele>
        <time>2022-01-16T09:24:11Z</time>
      </trkpt>
      <trkpt lat="43.3493330" lon="-3.1679420">
        <ele>119.0</ele>
        <time>2022-01-16T09:24:12Z</time>
      </trkpt>
      <trkpt lat="43.3494120" lon="-3.1680830">
        <ele>118.2</ele>
        <time>2022-01-16T09:24:13Z</time>
      </trkpt>
      <trkpt lat="43.3494920" lon="-3.1682240">
        <ele>117.8</ele>
        <time>2022-01-16T09:24:14Z</time>
      </trkpt>
      <trkpt lat="43.3495750" lon="-3.1683610">
        <ele>117.4</ele>
        <time>2022-01-16T09:24:15Z</time>
      </trkpt>
      <trkpt lat="43.3496610" lon="-3.1684940">
        <ele>116.6</ele>
        <time>2022-01-16T09:24:16Z</time>
      </trkpt>
      <trkpt lat="43.3497470" lon="-3.1686200">
        <ele>115.4</ele>
        <time>2022-01-16T09:24:17Z</time>
      </trkpt>
      <trkpt lat="43.3498320" lon="-3.1687410">
        <ele>114.0</ele>
        <time>2022-01-16T09:24:18Z</time>
      </trkpt>
      <trkpt lat="43.3499190" lon="-3.1688590">
        <ele>113.2</ele>
        <time>2022-01-16T09:24:19Z</time>
      </trkpt>
      <trkpt lat="43.3500050" lon="-3.1689770">
        <ele>112.8</ele>
        <time>2022-01-16T09:24:20Z</time>
      </trkpt>
      <trkpt lat="43.3500920" lon="-3.1690940">
        <ele>111.8</ele>
        <time>2022-01-16T09:24:21Z</time>
      </trkpt>
      <trkpt lat="43.3501790" lon="-3.1692090">
        <ele>111.2</ele>
        <time>2022-01-16T09:24:22Z</time>
      </trkpt>
      <trkpt lat="43.3502620" lon="-3.1693220">
        <ele>110.6</ele>
        <time>2022-01-16T09:24:23Z</time>
      </trkpt>
      <trkpt lat="43.3503430" lon="-3.1694340">
        <ele>109.6</ele>
        <time>2022-01-16T09:24:24Z</time>
      </trkpt>
      <trkpt lat="43.3504240" lon="-3.1695470">
        <ele>108.8</ele>
        <time>2022-01-16T09:24:25Z</time>
      </trkpt>
      <trkpt lat="43.3505000" lon="-3.1696650">
        <ele>108.2</ele>
        <time>2022-01-16T09:24:26Z</time>
      </trkpt>
      <trkpt lat="43.3505650" lon="-3.1697910">
        <ele>107.6</ele>
        <time>2022-01-16T09:24:27Z</time>
      </trkpt>
      <trkpt lat="43.3506100" lon="-3.1699320">
        <ele>107.0</ele>
        <time>2022-01-16T09:24:28Z</time>
      </trkpt>
      <trkpt lat="43.3506340" lon="-3.1700810">
        <ele>106.0</ele>
        <time>2022-01-16T09:24:29Z</time>
      </trkpt>
      <trkpt lat="43.3506370" lon="-3.1702340">
        <ele>105.2</ele>
        <time>2022-01-16T09:24:30Z</time>
      </trkpt>
      <trkpt lat="43.3506190" lon="-3.1703930">
        <ele>104.6</ele>
        <time>2022-01-16T09:24:31Z</time>
      </trkpt>
      <trkpt lat="43.3505850" lon="-3.1705450">
        <ele>104.0</ele>
        <time>2022-01-16T09:24:32Z</time>
      </trkpt>
      <trkpt lat="43.3505440" lon="-3.1706820">
        <ele>103.4</ele>
        <time>2022-01-16T09:24:33Z</time>
      </trkpt>
      <trkpt lat="43.3505050" lon="-3.1708070">
        <ele>102.8</ele>
        <time>2022-01-16T09:24:34Z</time>
      </trkpt>
      <trkpt lat="43.3504770" lon="-3.1709230">
        <ele>101.8</ele>
        <time>2022-01-16T09:24:35Z</time>
      </trkpt>
      <trkpt lat="43.3504600" lon="-3.1710410">
        <ele>100.8</ele>
        <time>2022-01-16T09:24:36Z</time>
      </trkpt>
      <trkpt lat="43.3504530" lon="-3.1711620">
        <ele>100.2</ele>
        <time>2022-01-16T09:24:37Z</time>
      </trkpt>
      <trkpt lat="43.3504590" lon="-3.1712840">
        <ele>99.8</ele>
        <time>2022-01-16T09:24:38Z</time>
      </trkpt>
      <trkpt lat="43.3504710" lon="-3.1714100">
        <ele>99.0</ele>
        <time>2022-01-16T09:24:39Z</time>
      </trkpt>
      <trkpt lat="43.3504840" lon="-3.1715360">
        <ele>98.6</ele>
        <time>2022-01-16T09:24:40Z</time>
      </trkpt>
      <trkpt lat="43.3504970" lon="-3.1716620">
        <ele>98.4</ele>
        <time>2022-01-16T09:24:41Z</time>
      </trkpt>
      <trkpt lat="43.3505060" lon="-3.1717880">
        <ele>97.8</ele>
        <time>2022-01-16T09:24:42Z</time>
      </trkpt>
      <trkpt lat="43.3505020" lon="-3.1719100">
        <ele>97.2</ele>
        <time>2022-01-16T09:24:43Z</time>
      </trkpt>
      <trkpt lat="43.3504880" lon="-3.1720200">
        <ele>96.4</ele>
        <time>2022-01-16T09:24:44Z</time>
      </trkpt>
      <trkpt lat="43.3504620" lon="-3.1721180">
        <ele>96.0</ele>
        <time>2022-01-16T09:24:45Z</time>
      </trkpt>
      <trkpt lat="43.3504260" lon="-3.1722050">
        <ele>95.4</ele>
        <time>2022-01-16T09:24:46Z</time>
      </trkpt>
      <trkpt lat="43.3503800" lon="-3.1722780">
        <ele>95.2</ele>
        <time>2022-01-16T09:24:47Z</time>
      </trkpt>
      <trkpt lat="43.3503240" lon="-3.1723420">
        <ele>94.8</ele>
        <time>2022-01-16T09:24:48Z</time>
      </trkpt>
      <trkpt lat="43.3502640" lon="-3.1723950">
        <ele>94.6</ele>
        <time>2022-01-16T09:24:49Z</time>
      </trkpt>
      <trkpt lat="43.3501980" lon="-3.1724440">
        <ele>94.4</ele>
        <time>2022-01-16T09:24:50Z</time>
      </trkpt>
      <trkpt lat="43.3501300" lon="-3.1724880">
        <ele>94.0</ele>
        <time>2022-01-16T09:24:51Z</time>
      </trkpt>
      <trkpt lat="43.3500600" lon="-3.1725280">
        <ele>93.6</ele>
        <time>2022-01-16T09:24:52Z</time>
      </trkpt>
      <trkpt lat="43.3499960" lon="-3.1725710">
        <ele>93.2</ele>
        <time>2022-01-16T09:24:53Z</time>
      </trkpt>
      <trkpt lat="43.3499390" lon="-3.1726210">
        <ele>92.8</ele>
        <time>2022-01-16T09:24:54Z</time>
      </trkpt>
      <trkpt lat="43.3498920" lon="-3.1726880">
        <ele>92.4</ele>
        <time>2022-01-16T09:24:55Z</time>
      </trkpt>
      <trkpt lat="43.3498660" lon="-3.1727720">
        <ele>92.2</ele>
        <time>2022-01-16T09:24:56Z</time>
      </trkpt>
      <trkpt lat="43.3498670" lon="-3.1728590">
        <ele>92.2</ele>
        <time>2022-01-16T09:24:57Z</time>
      </trkpt>
      <trkpt lat="43.3498970" lon="-3.1729250">
        <ele>92.2</ele>
        <time>2022-01-16T09:24:58Z</time>
      </trkpt>
      <trkpt lat="43.3499460" lon="-3.1729690">
        <ele>92.2</ele>
        <time>2022-01-16T09:24:59Z</time>
      </trkpt>
      <trkpt lat="43.3500030" lon="-3.1729980">
        <ele>92.2</ele>
        <time>2022-01-16T09:25:00Z</time>
      </trkpt>
      <trkpt lat="43.3500620" lon="-3.1730210">
        <ele>92.4</ele>
        <time>2022-01-16T09:25:01Z</time>
      </trkpt>
      <trkpt lat="43.3501200" lon="-3.1730440">
        <ele>92.6</ele>
        <time>2022-01-16T09:25:02Z</time>
      </trkpt>
      <trkpt lat="43.3501770" lon="-3.1730700">
        <ele>93.0</ele>
        <time>2022-01-16T09:25:03Z</time>
      </trkpt>
      <trkpt lat="43.3502320" lon="-3.1730970">
        <ele>93.2</ele>
        <time>2022-01-16T09:25:04Z</time>
      </trkpt>
      <trkpt lat="43.3502870" lon="-3.1731240">
        <ele>93.6</ele>
        <time>2022-01-16T09:25:05Z</time>
      </trkpt>
      <trkpt lat="43.3503390" lon="-3.1731560">
        <ele>94.2</ele>
        <time>2022-01-16T09:25:06Z</time>
      </trkpt>
      <trkpt lat="43.3503880" lon="-3.1731920">
        <ele>94.6</ele>
        <time>2022-01-16T09:25:07Z</time>
      </trkpt>
      <trkpt lat="43.3504360" lon="-3.1732250">
        <ele>95.2</ele>
        <time>2022-01-16T09:25:08Z</time>
      </trkpt>
      <trkpt lat="43.3504810" lon="-3.1732560">
        <ele>95.2</ele>
        <time>2022-01-16T09:25:09Z</time>
      </trkpt>
      <trkpt lat="43.3505230" lon="-3.1732860">
        <ele>95.8</ele>
        <time>2022-01-16T09:25:10Z</time>
      </trkpt>
      <trkpt lat="43.3505620" lon="-3.1733140">
        <ele>96.2</ele>
        <time>2022-01-16T09:25:11Z</time>
      </trkpt>
      <trkpt lat="43.3505990" lon="-3.1733410">
        <ele>96.4</ele>
        <time>2022-01-16T09:25:12Z</time>
      </trkpt>
      <trkpt lat="43.3506340" lon="-3.1733660">
        <ele>96.4</ele>
        <time>2022-01-16T09:25:13Z</time>
      </trkpt>
      <trkpt lat="43.3506710" lon="-3.1733900">
        <ele>96.8</ele>
        <time>2022-01-16T09:25:14Z</time>
      </trkpt>
      <trkpt lat="43.3507070" lon="-3.1734140">
        <ele>97.2</ele>
        <time>2022-01-16T09:25:15Z</time>
      </trkpt>
      <trkpt lat="43.3507410" lon="-3.1734410">
        <ele>97.4</ele>
        <time>2022-01-16T09:25:16Z</time>
      </trkpt>
      <trkpt lat="43.3507750" lon="-3.1734660">
        <ele>97.6</ele>
        <time>2022-01-16T09:25:17Z</time>
      </trkpt>
      <trkpt lat="43.3508100" lon="-3.1734850">
        <ele>97.8</ele>
        <time>2022-01-16T09:25:18Z</time>
      </trkpt>
      <trkpt lat="43.3508460" lon="-3.1735040">
        <ele>98.0</ele>
        <time>2022-01-16T09:25:19Z</time>
      </trkpt>
      <trkpt lat="43.3508830" lon="-3.1735230">
        <ele>98.4</ele>
        <time>2022-01-16T09:25:20Z</time>
      </trkpt>
      <trkpt lat="43.3509190" lon="-3.1735420">
        <ele>98.6</ele>
        <time>2022-01-16T09:25:21Z</time>
      </trkpt>
      <trkpt lat="43.3509560" lon="-3.1735610">
        <ele>99.0</ele>
        <time>2022-01-16T09:25:22Z</time>
      </trkpt>
      <trkpt lat="43.3509920" lon="-3.1735800">
        <ele>99.2</ele>
        <time>2022-01-16T09:25:23Z</time>
      </trkpt>
      <trkpt lat="43.3510270" lon="-3.1735970">
        <ele>99.4</ele>
        <time>2022-01-16T09:25:24Z</time>
      </trkpt>
      <trkpt lat="43.3510620" lon="-3.1736130">
        <ele>99.6</ele>
        <time>2022-01-16T09:25:25Z</time>
      </trkpt>
      <trkpt lat="43.3510970" lon="-3.1736290">
        <ele>99.8</ele>
        <time>2022-01-16T09:25:26Z</time>
      </trkpt>
      <trkpt lat="43.3511310" lon="-3.1736460">
        <ele>100.0</ele>
        <time>2022-01-16T09:25:27Z</time>
      </trkpt>
      <trkpt lat="43.3511640" lon="-3.1736610">
        <ele>100.2</ele>
        <time>2022-01-16T09:25:28Z</time>
      </trkpt>
      <trkpt lat="43.3511990" lon="-3.1736740">
        <ele>100.4</ele>
        <time>2022-01-16T09:25:29Z</time>
      </trkpt>
      <trkpt lat="43.3512260" lon="-3.1736910">
        <ele>100.8</ele>
        <time>2022-01-16T09:25:30Z</time>
      </trkpt>
      <trkpt lat="43.3512590" lon="-3.1737040">
        <ele>101.0</ele>
        <time>2022-01-16T09:25:31Z</time>
      </trkpt>
      <trkpt lat="43.3512930" lon="-3.1737170">
        <ele>101.2</ele>
        <time>2022-01-16T09:25:32Z</time>
      </trkpt>
      <trkpt lat="43.3513260" lon="-3.1737300">
        <ele>101.6</ele>
        <time>2022-01-16T09:25:33Z</time>
      </trkpt>
      <trkpt lat="43.3513590" lon="-3.1737440">
        <ele>101.8</ele>
        <time>2022-01-16T09:25:34Z</time>
      </trkpt>
      <trkpt lat="43.3513910" lon="-3.1737590">
        <ele>102.0</ele>
        <time>2022-01-16T09:25:35Z</time>
      </trkpt>
      <trkpt lat="43.3514230" lon="-3.1737720">
        <ele>102.2</ele>
        <time>2022-01-16T09:25:36Z</time>
      </trkpt>
      <trkpt lat="43.3514550" lon="-3.1737850">
        <ele>102.6</ele>
        <time>2022-01-16T09:25:37Z</time>
      </trkpt>
      <trkpt lat="43.3514870" lon="-3.1738010">
        <ele>102.8</ele>
        <time>2022-01-16T09:25:38Z</time>
      </trkpt>
      <trkpt lat="43.3515180" lon="-3.1738180">
        <ele>103.0</ele>
        <time>2022-01-16T09:25:39Z</time>
      </trkpt>
      <trkpt lat="43.3515490" lon="-3.1738390">
        <ele>103.4</ele>
        <time>2022-01-16T09:25:40Z</time>
      </trkpt>
      <trkpt lat="43.3515790" lon="-3.1738630">
        <ele>103.6</ele>
        <time>2022-01-16T09:25:41Z</time>
      </trkpt>
      <trkpt lat="43.3516080" lon="-3.1738850">
        <ele>103.8</ele>
        <time>2022-01-16T09:25:42Z</time>
      </trkpt>
      <trkpt lat="43.3516360" lon="-3.1739080">
        <ele>104.0</ele>
        <time>2022-01-16T09:25:43Z</time>
      </trkpt>
      <trkpt lat="43.3516620" lon="-3.1739340">
        <ele>104.4</ele>
        <time>2022-01-16T09:25:44Z</time>
      </trkpt>
      <trkpt lat="43.3516860" lon="-3.1739650">
        <ele>104.6</ele>
        <time>2022-01-16T09:25:45Z</time>
      </trkpt>
      <trkpt lat="43.3517080" lon="-3.1740020">
        <ele>104.8</ele>
        <time>2022-01-16T09:25:46Z</time>
      </trkpt>
      <trkpt lat="43.3517300" lon="-3.1740370">
        <ele>105.0</ele>
        <time>2022-01-16T09:25:47Z</time>
      </trkpt>
      <trkpt lat="43.3517520" lon="-3.1740720">
        <ele>105.2</ele>
        <time>2022-01-16T09:25:48Z</time>
      </trkpt>
      <trkpt lat="43.3517710" lon="-3.1741050">
        <ele>105.4</ele>
        <time>2022-01-16T09:25:49Z</time>
      </trkpt>
      <trkpt lat="43.3517850" lon="-3.1741460">
        <ele>105.8</ele>
        <time>2022-01-16T09:25:50Z</time>
      </trkpt>
      <trkpt lat="43.3517980" lon="-3.1741870">
        <ele>106.0</ele>
        <time>2022-01-16T09:25:51Z</time>
      </trkpt>
      <trkpt lat="43.3518110" lon="-3.1742310">
        <ele>106.2</ele>
        <time>2022-01-16T09:25:52Z</time>
      </trkpt>
      <trkpt lat="43.3518250" lon="-3.1742750">
        <ele>106.4</ele>
        <time>2022-01-16T09:25:53Z</time>
      </trkpt>
      <trkpt lat="43.3518380" lon="-3.1743170">
        <ele>106.6</ele>
        <time>2022-01-16T09:25:54Z</time>
      </trkpt>
      <trkpt lat="43.3518480" lon="-3.1743570">
        <ele>106.8</ele>
        <time>2022-01-16T09:25:55Z</time>
      </trkpt>
      <trkpt lat="43.3518570" lon="-3.1744010">
        <ele>107.0</ele>
        <time>2022-01-16T09:25:56Z</time>
      </trkpt>
      <trkpt lat="43.3518670" lon="-3.1744410">
        <ele>107.2</ele>
        <time>2022-01-16T09:25:57Z</time>
      </trkpt>
      <trkpt lat="43.3518770" lon="-3.1744860">
        <ele>107.4</ele>
        <time>2022-01-16T09:25:58Z</time>
      </trkpt>
      <trkpt lat="43.3518880" lon="-3.1745290">
        <ele>107.8</ele>
        <time>2022-01-16T09:25:59Z</time>
      </trkpt>
      <trkpt lat="43.3519000" lon="-3.1745710">
        <ele>107.8</ele>
        <time>2022-01-16T09:26:00Z</time>
      </trkpt>
      <trkpt lat="43.3519100" lon="-3.1746140">
        <ele>108.0</ele>
        <time>2022-01-16T09:26:01Z</time>
      </trkpt>
      <trkpt lat="43.3519180" lon="-3.1746570">
        <ele>108.4</ele>
        <time>2022-01-16T09:26:02Z</time>
      </trkpt>
      <trkpt lat="43.3519260" lon="-3.1746980">
        <ele>108.8</ele>
        <time>2022-01-16T09:26:03Z</time>
      </trkpt>
      <trkpt lat="43.3519350" lon="-3.1747380">
        <ele>109.0</ele>
        <time>2022-01-16T09:26:04Z</time>
      </trkpt>
      <trkpt lat="43.3519460" lon="-3.1747780">
        <ele>109.2</ele>
        <time>2022-01-16T09:26:05Z</time>
      </trkpt>
      <trkpt lat="43.3519590" lon="-3.1748180">
        <ele>109.4</ele>
        <time>2022-01-16T09:26:06Z</time>
      </trkpt>
      <trkpt lat="43.3519700" lon="-3.1748580">
        <ele>109.8</ele>
        <time>2022-01-16T09:26:07Z</time>
      </trkpt>
      <trkpt lat="43.3519820" lon="-3.1749000">
        <ele>110.0</ele>
        <time>2022-01-16T09:26:08Z</time>
      </trkpt>
      <trkpt lat="43.3519920" lon="-3.1749430">
        <ele>110.2</ele>
        <time>2022-01-16T09:26:09Z</time>
      </trkpt>
      <trkpt lat="43.3520030" lon="-3.1749870">
        <ele>110.4</ele>
        <time>2022-01-16T09:26:10Z</time>
      </trkpt>
      <trkpt lat="43.3520130" lon="-3.1750310">
        <ele>110.8</ele>
        <time>2022-01-16T09:26:11Z</time>
      </trkpt>
      <trkpt lat="43.3520230" lon="-3.1750740">
        <ele>111.0</ele>
        <time>2022-01-16T09:26:12Z</time>
      </trkpt>
      <trkpt lat="43.3520340" lon="-3.1751140">
        <ele>111.2</ele>
        <time>2022-01-16T09:26:13Z</time>
      </trkpt>
      <trkpt lat="43.3520460" lon="-3.1751550">
        <ele>111.4</ele>
        <time>2022-01-16T09:26:14Z</time>
      </trkpt>
      <trkpt lat="43.3520580" lon="-3.1751970">
        <ele>111.6</ele>
        <time>2022-01-16T09:26:15Z</time>
      </trkpt>
      <trkpt lat="43.3520700" lon="-3.1752390">
        <ele>112.0</ele>
        <time>2022-01-16T09:26:16Z</time>
      </trkpt>
      <trkpt lat="43.3520840" lon="-3.1752800">
        <ele>112.2</ele>
        <time>2022-01-16T09:26:17Z</time>
      </trkpt>
      <trkpt lat="43.3520970" lon="-3.1753230">
        <ele>112.6</ele>
        <time>2022-01-16T09:26:18Z</time>
      </trkpt>
      <trkpt lat="43.3521120" lon="-3.1753620">
        <ele>113.2</ele>
        <time>2022-01-16T09:26:19Z</time>
      </trkpt>
      <trkpt lat="43.3521290" lon="-3.1754000">
        <ele>113.6</ele>
        <time>2022-01-16T09:26:20Z</time>
      </trkpt>
      <trkpt lat="43.3521480" lon="-3.1754360">
        <ele>113.8</ele>
        <time>2022-01-16T09:26:21Z</time>
      </trkpt>
      <trkpt lat="43.3521690" lon="-3.1754680">
        <ele>114.2</ele>
        <time>2022-01-16T09:26:22Z</time>
      </trkpt>
      <trkpt lat="43.3521910" lon="-3.1754970">
        <ele>114.4</ele>
        <time>2022-01-16T09:26:23Z</time>
      </trkpt>
      <trkpt lat="43.3522160" lon="-3.1755250">
        <ele>114.6</ele>
        <time>2022-01-16T09:26:24Z</time>
      </trkpt>
      <trkpt lat="43.3522410" lon="-3.1755510">
        <ele>115.0</ele>
        <time>2022-01-16T09:26:25Z</time>
      </trkpt>
      <trkpt lat="43.3522670" lon="-3.1755740">
        <ele>115.2</ele>
        <time>2022-01-16T09:26:26Z</time>
      </trkpt>
      <trkpt lat="43.3522940" lon="-3.1755940">
        <ele>115.2</ele>
        <time>2022-01-16T09:26:27Z</time>
      </trkpt>
      <trkpt lat="43.3523220" lon="-3.1756100">
        <ele>115.6</ele>
        <time>2022-01-16T09:26:28Z</time>
      </trkpt>
      <trkpt lat="43.3523500" lon="-3.1756240">
        <ele>115.8</ele>
        <time>2022-01-16T09:26:29Z</time>
      </trkpt>
      <trkpt lat="43.3523790" lon="-3.1756350">
        <ele>116.2</ele>
        <time>2022-01-16T09:26:30Z</time>
      </trkpt>
      <trkpt lat="43.3524090" lon="-3.1756430">
        <ele>116.6</ele>
        <time>2022-01-16T09:26:31Z</time>
      </trkpt>
      <trkpt lat="43.3524400" lon="-3.1756490">
        <ele>116.8</ele>
        <time>2022-01-16T09:26:32Z</time>
      </trkpt>
      <trkpt lat="43.3524720" lon="-3.1756520">
        <ele>116.8</ele>
        <time>2022-01-16T09:26:33Z</time>
      </trkpt>
      <trkpt lat="43.3525050" lon="-3.1756540">
        <ele>117.4</ele>
        <time>2022-01-16T09:26:34Z</time>
      </trkpt>
      <trkpt lat="43.3525390" lon="-3.1756550">
        <ele>117.8</ele>
        <time>2022-01-16T09:26:35Z</time>
      </trkpt>
      <trkpt lat="43.3525720" lon="-3.1756580">
        <ele>118.0</ele>
        <time>2022-01-16T09:26:36Z</time>
      </trkpt>
      <trkpt lat="43.3526050" lon="-3.1756630">
        <ele>118.4</ele>
        <time>2022-01-16T09:26:37Z</time>
      </trkpt>
      <trkpt lat="43.3526390" lon="-3.1756670">
        <ele>118.6</ele>
        <time>2022-01-16T09:26:38Z</time>
      </trkpt>
      <trkpt lat="43.3526720" lon="-3.1756710">
        <ele>118.8</ele>
        <time>2022-01-16T09:26:39Z</time>
      </trkpt>
      <trkpt lat="43.3527030" lon="-3.1756730">
        <ele>119.2</ele>
        <time>2022-01-16T09:26:40Z</time>
      </trkpt>
      <trkpt lat="43.3527360" lon="-3.1756750">
        <ele>119.4</ele>
        <time>2022-01-16T09:26:41Z</time>
      </trkpt>
      <trkpt lat="43.3527690" lon="-3.1756750">
        <ele>119.8</ele>
        <time>2022-01-16T09:26:42Z</time>
      </trkpt>
      <trkpt lat="43.3528020" lon="-3.1756760">
        <ele>120.2</ele>
        <time>2022-01-16T09:26:43Z</time>
      </trkpt>
      <trkpt lat="43.3528360" lon="-3.1756770">
        <ele>120.4</ele>
        <time>2022-01-16T09:26:44Z</time>
      </trkpt>
      <trkpt lat="43.3528690" lon="-3.1756780">
        <ele>120.4</ele>
        <time>2022-01-16T09:26:45Z</time>
      </trkpt>
      <trkpt lat="43.3529030" lon="-3.1756770">
        <ele>120.6</ele>
        <time>2022-01-16T09:26:46Z</time>
      </trkpt>
      <trkpt lat="43.3529360" lon="-3.1756760">
        <ele>120.8</ele>
        <time>2022-01-16T09:26:47Z</time>
      </trkpt>
      <trkpt lat="43.3529690" lon="-3.1756740">
        <ele>121.0</ele>
        <time>2022-01-16T09:26:48Z</time>
      </trkpt>
      <trkpt lat="43.3530020" lon="-3.1756700">
        <ele>121.2</ele>
        <time>2022-01-16T09:26:49Z</time>
      </trkpt>
      <trkpt lat="43.3530350" lon="-3.1756640">
        <ele>121.4</ele>
        <time>2022-01-16T09:26:50Z</time>
      </trkpt>
      <trkpt lat="43.3530670" lon="-3.1756530">
        <ele>121.6</ele>
        <time>2022-01-16T09:26:51Z</time>
      </trkpt>
      <trkpt lat="43.3530980" lon="-3.1756400">
        <ele>121.8</ele>
        <time>2022-01-16T09:26:52Z</time>
      </trkpt>
      <trkpt lat="43.3531280" lon="-3.1756220">
        <ele>121.8</ele>
        <time>2022-01-16T09:26:53Z</time>
      </trkpt>
      <trkpt lat="43.3531580" lon="-3.1755980">
        <ele>122.2</ele>
        <time>2022-01-16T09:26:54Z</time>
      </trkpt>
      <trkpt lat="43.3531870" lon="-3.1755720">
        <ele>122.2</ele>
        <time>2022-01-16T09:26:55Z</time>
      </trkpt>
      <trkpt lat="43.3532150" lon="-3.1755420">
        <ele>122.4</ele>
        <time>2022-01-16T09:26:56Z</time>
      </trkpt>
      <trkpt lat="43.3532410" lon="-3.1755070">
        <ele>122.6</ele>
        <time>2022-01-16T09:26:57Z</time>
      </trkpt>
      <trkpt lat="43.3532610" lon="-3.1754700">
        <ele>122.8</ele>
        <time>2022-01-16T09:26:58Z</time>
      </trkpt>
      <trkpt lat="43.3532810" lon="-3.1754310">
        <ele>123.0</ele>
        <time>2022-01-16T09:26:59Z</time>
      </trkpt>
      <trkpt lat="43.3532990" lon="-3.1753920">
        <ele>123.4</ele>
        <time>2022-01-16T09:27:00Z</time>
      </trkpt>
      <trkpt lat="43.3533170" lon="-3.1753520">
        <ele>123.8</ele>
        <time>2022-01-16T09:27:01Z</time>
      </trkpt>
      <trkpt lat="43.3533320" lon="-3.1753100">
        <ele>124.2</ele>
        <time>2022-01-16T09:27:02Z</time>
      </trkpt>
      <trkpt lat="43.3533460" lon="-3.1752670">
        <ele>124.6</ele>
        <time>2022-01-16T09:27:03Z</time>
      </trkpt>
      <trkpt lat="43.3533600" lon="-3.1752250">
        <ele>124.8</ele>
        <time>2022-01-16T09:27:04Z</time>
      </trkpt>
      <trkpt lat="43.3533710" lon="-3.1751830">
        <ele>125.2</ele>
        <time>2022-01-16T09:27:05Z</time>
      </trkpt>
      <trkpt lat="43.3533820" lon="-3.1751400">
        <ele>125.6</ele>
        <time>2022-01-16T09:27:06Z</time>
      </trkpt>
      <trkpt lat="43.3533950" lon="-3.1750970">
        <ele>126.0</ele>
        <time>2022-01-16T09:27:07Z</time>
      </trkpt>
      <trkpt lat="43.3534080" lon="-3.1750560">
        <ele>126.4</ele>
        <time>2022-01-16T09:27:08Z</time>
      </trkpt>
      <trkpt lat="43.3534210" lon="-3.1750150">
        <ele>126.6</ele>
        <time>2022-01-16T09:27:09Z</time>
      </trkpt>
      <trkpt lat="43.3534380" lon="-3.1749770">
        <ele>126.6</ele>
        <time>2022-01-16T09:27:10Z</time>
      </trkpt>
      <trkpt lat="43.3534580" lon="-3.1749420">
        <ele>126.8</ele>
        <time>2022-01-16T09:27:11Z</time>
      </trkpt>
      <trkpt lat="43.3534820" lon="-3.1749100">
        <ele>127.0</ele>
        <time>2022-01-16T09:27:12Z</time>
      </trkpt>
      <trkpt lat="43.3535070" lon="-3.1748810">
        <ele>127.4</ele>
        <time>2022-01-16T09:27:13Z</time>
      </trkpt>
      <trkpt lat="43.3535330" lon="-3.1748550">
        <ele>127.6</ele>
        <time>2022-01-16T09:27:14Z</time>
      </trkpt>
      <trkpt lat="43.3535610" lon="-3.1748340">
        <ele>127.8</ele>
        <time>2022-01-16T09:27:15Z</time>
      </trkpt>
      <trkpt lat="43.3535870" lon="-3.1748170">
        <ele>128.2</ele>
        <time>2022-01-16T09:27:16Z</time>
      </trkpt>
      <trkpt lat="43.3536190" lon="-3.1748080">
        <ele>128.6</ele>
        <time>2022-01-16T09:27:17Z</time>
      </trkpt>
      <trkpt lat="43.3536500" lon="-3.1748020">
        <ele>128.8</ele>
        <time>2022-01-16T09:27:18Z</time>
      </trkpt>
      <trkpt lat="43.3536800" lon="-3.1748010">
        <ele>129.2</ele>
        <time>2022-01-16T09:27:19Z</time>
      </trkpt>
      <trkpt lat="43.3537100" lon="-3.1748040">
        <ele>129.4</ele>
        <time>2022-01-16T09:27:20Z</time>
      </trkpt>
      <trkpt lat="43.3537380" lon="-3.1748080">
        <ele>129.8</ele>
        <time>2022-01-16T09:27:21Z</time>
      </trkpt>
      <trkpt lat="43.3537640" lon="-3.1748110">
        <ele>130.0</ele>
        <time>2022-01-16T09:27:22Z</time>
      </trkpt>
      <trkpt lat="43.3537900" lon="-3.1748140">
        <ele>130.2</ele>
        <time>2022-01-16T09:27:23Z</time>
      </trkpt>
      <trkpt lat="43.3538140" lon="-3.1748230">
        <ele>130.6</ele>
        <time>2022-01-16T09:27:24Z</time>
      </trkpt>
      <trkpt lat="43.3538370" lon="-3.1748350">
        <ele>130.8</ele>
        <time>2022-01-16T09:27:25Z</time>
      </trkpt>
      <trkpt lat="43.3538560" lon="-3.1748400">
        <ele>131.4</ele>
        <time>2022-01-16T09:27:26Z</time>
      </trkpt>
      <trkpt lat="43.3538600" lon="-3.1748640">
        <ele>131.8</ele>
        <time>2022-01-16T09:27:27Z</time>
      </trkpt>
      <trkpt lat="43.3538770" lon="-3.1748620">
        <ele>132.0</ele>
        <time>2022-01-16T09:27:28Z</time>
      </trkpt>
      <trkpt lat="43.3539130" lon="-3.1748780">
        <ele>132.2</ele>
        <time>2022-01-16T09:27:29Z</time>
      </trkpt>
      <trkpt lat="43.3539510" lon="-3.1748860">
        <ele>132.4</ele>
        <time>2022-01-16T09:27:30Z</time>
      </trkpt>
      <trkpt lat="43.3539890" lon="-3.1748830">
        <ele>132.8</ele>
        <time>2022-01-16T09:27:31Z</time>
      </trkpt>
      <trkpt lat="43.3540240" lon="-3.1748790">
        <ele>133.2</ele>
        <time>2022-01-16T09:27:32Z</time>
      </trkpt>
      <trkpt lat="43.3540610" lon="-3.1748720">
        <ele>133.6</ele>
        <time>2022-01-16T09:27:33Z</time>
      </trkpt>
      <trkpt lat="43.3540950" lon="-3.1748600">
        <ele>133.8</ele>
        <time>2022-01-16T09:27:34Z</time>
      </trkpt>
      <trkpt lat="43.3541270" lon="-3.1748420">
        <ele>134.2</ele>
        <time>2022-01-16T09:27:35Z</time>
      </trkpt>
      <trkpt lat="43.3541590" lon="-3.1748210">
        <ele>134.6</ele>
        <time>2022-01-16T09:27:36Z</time>
      </trkpt>
      <trkpt lat="43.3541890" lon="-3.1747970">
        <ele>135.2</ele>
        <time>2022-01-16T09:27:37Z</time>
      </trkpt>
      <trkpt lat="43.3542170" lon="-3.1747740">
        <ele>135.6</ele>
        <time>2022-01-16T09:27:38Z</time>
      </trkpt>
      <trkpt lat="43.3542450" lon="-3.1747540">
        <ele>136.0</ele>
        <time>2022-01-16T09:27:39Z</time>
      </trkpt>
      <trkpt lat="43.3542750" lon="-3.1747340">
        <ele>136.2</ele>
        <time>2022-01-16T09:27:40Z</time>
      </trkpt>
      <trkpt lat="43.3543070" lon="-3.1747170">
        <ele>136.6</ele>
        <time>2022-01-16T09:27:41Z</time>
      </trkpt>
      <trkpt lat="43.3543370" lon="-3.1747020">
        <ele>136.8</ele>
        <time>2022-01-16T09:27:42Z</time>
      </trkpt>
      <trkpt lat="43.3543710" lon="-3.1746860">
        <ele>137.2</ele>
        <time>2022-01-16T09:27:43Z</time>
      </trkpt>
      <trkpt lat="43.3544030" lon="-3.1746760">
        <ele>137.8</ele>
        <time>2022-01-16T09:27:44Z</time>
      </trkpt>
      <trkpt lat="43.3544360" lon="-3.1746730">
        <ele>138.0</ele>
        <time>2022-01-16T09:27:45Z</time>
      </trkpt>
      <trkpt lat="43.3544650" lon="-3.1746730">
        <ele>138.4</ele>
        <time>2022-01-16T09:27:46Z</time>
      </trkpt>
      <trkpt lat="43.3545020" lon="-3.1746750">
        <ele>138.8</ele>
        <time>2022-01-16T09:27:47Z</time>
      </trkpt>
      <trkpt lat="43.3545360" lon="-3.1746790">
        <ele>139.0</ele>
        <time>2022-01-16T09:27:48Z</time>
      </trkpt>
      <trkpt lat="43.3545680" lon="-3.1746880">
        <ele>139.4</ele>
        <time>2022-01-16T09:27:49Z</time>
      </trkpt>
      <trkpt lat="43.3545990" lon="-3.1747020">
        <ele>139.6</ele>
        <time>2022-01-16T09:27:50Z</time>
      </trkpt>
      <trkpt lat="43.3546300" lon="-3.1747210">
        <ele>140.0</ele>
        <time>2022-01-16T09:27:51Z</time>
      </trkpt>
      <trkpt lat="43.3546590" lon="-3.1747450">
        <ele>140.4</ele>
        <time>2022-01-16T09:27:52Z</time>
      </trkpt>
      <trkpt lat="43.3546840" lon="-3.1747740">
        <ele>140.8</ele>
        <time>2022-01-16T09:27:53Z</time>
      </trkpt>
      <trkpt lat="43.3547070" lon="-3.1748050">
        <ele>141.2</ele>
        <time>2022-01-16T09:27:54Z</time>
      </trkpt>
      <trkpt lat="43.3547300" lon="-3.1748360">
        <ele>141.6</ele>
        <time>2022-01-16T09:27:55Z</time>
      </trkpt>
      <trkpt lat="43.3547510" lon="-3.1748710">
        <ele>142.0</ele>
        <time>2022-01-16T09:27:56Z</time>
      </trkpt>
      <trkpt lat="43.3547690" lon="-3.1749080">
        <ele>142.2</ele>
        <time>2022-01-16T09:27:57Z</time>
      </trkpt>
      <trkpt lat="43.3547860" lon="-3.1749430">
        <ele>142.6</ele>
        <time>2022-01-16T09:27:58Z</time>
      </trkpt>
      <trkpt lat="43.3548020" lon="-3.1749800">
        <ele>142.8</ele>
        <time>2022-01-16T09:27:59Z</time>
      </trkpt>
      <trkpt lat="43.3548190" lon="-3.1750180">
        <ele>143.0</ele>
        <time>2022-01-16T09:28:00Z</time>
      </trkpt>
      <trkpt lat="43.3548350" lon="-3.1750560">
        <ele>143.4</ele>
        <time>2022-01-16T09:28:01Z</time>
      </trkpt>
      <trkpt lat="43.3548530" lon="-3.1750900">
        <ele>144.0</ele>
        <time>2022-01-16T09:28:02Z</time>
      </trkpt>
      <trkpt lat="43.3548720" lon="-3.1751240">
        <ele>144.4</ele>
        <time>2022-01-16T09:28:03Z</time>
      </trkpt>
      <trkpt lat="43.3548890" lon="-3.1751590">
        <ele>144.6</ele>
        <time>2022-01-16T09:28:04Z</time>
      </trkpt>
      <trkpt lat="43.3549050" lon="-3.1751940">
        <ele>144.8</ele>
        <time>2022-01-16T09:28:05Z</time>
      </trkpt>
      <trkpt lat="43.3549210" lon="-3.1752280">
        <ele>145.0</ele>
        <time>2022-01-16T09:28:06Z</time>
      </trkpt>
      <trkpt lat="43.3549360" lon="-3.1752600">
        <ele>145.4</ele>
        <time>2022-01-16T09:28:07Z</time>
      </trkpt>
      <trkpt lat="43.3549510" lon="-3.1752920">
        <ele>145.8</ele>
        <time>2022-01-16T09:28:08Z</time>
      </trkpt>
      <trkpt lat="43.3549660" lon="-3.1753250">
        <ele>146.2</ele>
        <time>2022-01-16T09:28:09Z</time>
      </trkpt>
      <trkpt lat="43.3549810" lon="-3.1753580">
        <ele>146.6</ele>
        <time>2022-01-16T09:28:10Z</time>
      </trkpt>
      <trkpt lat="43.3549990" lon="-3.1753900">
        <ele>146.8</ele>
        <time>2022-01-16T09:28:11Z</time>
      </trkpt>
      <trkpt lat="43.3550160" lon="-3.1754230">
        <ele>147.2</ele>
        <time>2022-01-16T09:28:12Z</time>
      </trkpt>
      <trkpt lat="43.3550340" lon="-3.1754570">
        <ele>147.4</ele>
        <time>2022-01-16T09:28:13Z</time>
      </trkpt>
      <trkpt lat="43.3550530" lon="-3.1754900">
        <ele>147.6</ele>
        <time>2022-01-16T09:28:14Z</time>
      </trkpt>
      <trkpt lat="43.3550710" lon="-3.1755250">
        <ele>147.8</ele>
        <time>2022-01-16T09:28:15Z</time>
      </trkpt>
      <trkpt lat="43.3550880" lon="-3.1755580">
        <ele>148.0</ele>
        <time>2022-01-16T09:28:16Z</time>
      </trkpt>
      <trkpt lat="43.3551050" lon="-3.1755910">
        <ele>148.4</ele>
        <time>2022-01-16T09:28:17Z</time>
      </trkpt>
      <trkpt lat="43.3551220" lon="-3.1756290">
        <ele>148.4</ele>
        <time>2022-01-16T09:28:18Z</time>
      </trkpt>
      <trkpt lat="43.3551410" lon="-3.1756680">
        <ele>148.8</ele>
        <time>2022-01-16T09:28:19Z</time>
      </trkpt>
      <trkpt lat="43.3551580" lon="-3.1757100">
        <ele>149.0</ele>
        <time>2022-01-16T09:28:20Z</time>
      </trkpt>
      <trkpt lat="43.3551740" lon="-3.1757520">
        <ele>149.2</ele>
        <time>2022-01-16T09:28:21Z</time>
      </trkpt>
      <trkpt lat="43.3551910" lon="-3.1757950">
        <ele>149.4</ele>
        <time>2022-01-16T09:28:22Z</time>
      </trkpt>
      <trkpt lat="43.3552090" lon="-3.1758370">
        <ele>149.8</ele>
        <time>2022-01-16T09:28:23Z</time>
      </trkpt>
      <trkpt lat="43.3552270" lon="-3.1758810">
        <ele>150.0</ele>
        <time>2022-01-16T09:28:24Z</time>
      </trkpt>
      <trkpt lat="43.3552430" lon="-3.1759250">
        <ele>150.0</ele>
        <time>2022-01-16T09:28:25Z</time>
      </trkpt>
      <trkpt lat="43.3552590" lon="-3.1759670">
        <ele>150.2</ele>
        <time>2022-01-16T09:28:26Z</time>
      </trkpt>
      <trkpt lat="43.3552770" lon="-3.1760100">
        <ele>150.4</ele>
        <time>2022-01-16T09:28:27Z</time>
      </trkpt>
      <trkpt lat="43.3552950" lon="-3.1760510">
        <ele>150.6</ele>
        <time>2022-01-16T09:28:28Z</time>
      </trkpt>
      <trkpt lat="43.3553160" lon="-3.1760910">
        <ele>150.8</ele>
        <time>2022-01-16T09:28:29Z</time>
      </trkpt>
      <trkpt lat="43.3553380" lon="-3.1761300">
        <ele>151.0</ele>
        <time>2022-01-16T09:28:30Z</time>
      </trkpt>
      <trkpt lat="43.3553600" lon="-3.1761710">
        <ele>151.2</ele>
        <time>2022-01-16T09:28:31Z</time>
      </trkpt>
      <trkpt lat="43.3553810" lon="-3.1762140">
        <ele>151.6</ele>
        <time>2022-01-16T09:28:32Z</time>
      </trkpt>
      <trkpt lat="43.3553970" lon="-3.1762600">
        <ele>151.8</ele>
        <time>2022-01-16T09:28:33Z</time>
      </trkpt>
      <trkpt lat="43.3554050" lon="-3.1763090">
        <ele>151.8</ele>
        <time>2022-01-16T09:28:34Z</time>
      </trkpt>
      <trkpt lat="43.3554070" lon="-3.1763610">
        <ele>152.0</ele>
        <time>2022-01-16T09:28:35Z</time>
      </trkpt>
      <trkpt lat="43.3554010" lon="-3.1764130">
        <ele>152.2</ele>
        <time>2022-01-16T09:28:36Z</time>
      </trkpt>
      <trkpt lat="43.3553870" lon="-3.1764670">
        <ele>152.4</ele>
        <time>2022-01-16T09:28:37Z</time>
      </trkpt>
      <trkpt lat="43.3553710" lon="-3.1765210">
        <ele>152.6</ele>
        <time>2022-01-16T09:28:38Z</time>
      </trkpt>
      <trkpt lat="43.3553550" lon="-3.1765750">
        <ele>152.8</ele>
        <time>2022-01-16T09:28:39Z</time>
      </trkpt>
      <trkpt lat="43.3553380" lon="-3.1766280">
        <ele>152.8</ele>
        <time>2022-01-16T09:28:40Z</time>
      </trkpt>
      <trkpt lat="43.3553220" lon="-3.1766800">
        <ele>153.0</ele>
        <time>2022-01-16T09:28:41Z</time>
      </trkpt>
      <trkpt lat="43.3553060" lon="-3.1767320">
        <ele>153.0</ele>
        <time>2022-01-16T09:28:42Z</time>
      </trkpt>
      <trkpt lat="43.3552920" lon="-3.1767840">
        <ele>153.4</ele>
        <time>2022-01-16T09:28:43Z</time>
      </trkpt>
      <trkpt lat="43.3552790" lon="-3.1768330">
        <ele>153.6</ele>
        <time>2022-01-16T09:28:44Z</time>
      </trkpt>
      <trkpt lat="43.3552640" lon="-3.1768800">
        <ele>153.8</ele>
        <time>2022-01-16T09:28:45Z</time>
      </trkpt>
      <trkpt lat="43.3552480" lon="-3.1769250">
        <ele>154.2</ele>
        <time>2022-01-16T09:28:46Z</time>
      </trkpt>
      <trkpt lat="43.3552320" lon="-3.1769690">
        <ele>154.6</ele>
        <time>2022-01-16T09:28:47Z</time>
      </trkpt>
      <trkpt lat="43.3552150" lon="-3.1770120">
        <ele>154.8</ele>
        <time>2022-01-16T09:28:48Z</time>
      </trkpt>
      <trkpt lat="43.3551970" lon="-3.1770550">
        <ele>155.0</ele>
        <time>2022-01-16T09:28:49Z</time>
      </trkpt>
      <trkpt lat="43.3551770" lon="-3.1770960">
        <ele>155.4</ele>
        <time>2022-01-16T09:28:50Z</time>
      </trkpt>
      <trkpt lat="43.3551570" lon="-3.1771370">
        <ele>155.6</ele>
        <time>2022-01-16T09:28:51Z</time>
      </trkpt>
      <trkpt lat="43.3551340" lon="-3.1771760">
        <ele>155.8</ele>
        <time>2022-01-16T09:28:52Z</time>
      </trkpt>
      <trkpt lat="43.3551100" lon="-3.1772140">
        <ele>156.2</ele>
        <time>2022-01-16T09:28:53Z</time>
      </trkpt>
      <trkpt lat="43.3550830" lon="-3.1772510">
        <ele>156.4</ele>
        <time>2022-01-16T09:28:54Z</time>
      </trkpt>
      <trkpt lat="43.3550570" lon="-3.1772880">
        <ele>156.8</ele>
        <time>2022-01-16T09:28:55Z</time>
      </trkpt>
      <trkpt lat="43.3550310" lon="-3.1773240">
        <ele>157.0</ele>
        <time>2022-01-16T09:28:56Z</time>
      </trkpt>
      <trkpt lat="43.3550060" lon="-3.1773590">
        <ele>157.2</ele>
        <time>2022-01-16T09:28:57Z</time>
      </trkpt>
      <trkpt lat="43.3549810" lon="-3.1773920">
        <ele>157.6</ele>
        <time>2022-01-16T09:28:58Z</time>
      </trkpt>
      <trkpt lat="43.3549560" lon="-3.1774270">
        <ele>157.8</ele>
        <time>2022-01-16T09:28:59Z</time>
      </trkpt>
      <trkpt lat="43.3549290" lon="-3.1774600">
        <ele>158.0</ele>
        <time>2022-01-16T09:29:00Z</time>
      </trkpt>
      <trkpt lat="43.3549020" lon="-3.1774940">
        <ele>158.2</ele>
        <time>2022-01-16T09:29:01Z</time>
      </trkpt>
      <trkpt lat="43.3548750" lon="-3.1775280">
        <ele>158.4</ele>
        <time>2022-01-16T09:29:02Z</time>
      </trkpt>
      <trkpt lat="43.3548470" lon="-3.1775610">
        <ele>158.8</ele>
        <time>2022-01-16T09:29:03Z</time>
      </trkpt>
      <trkpt lat="43.3548200" lon="-3.1775940">
        <ele>159.2</ele>
        <time>2022-01-16T09:29:04Z</time>
      </trkpt>
      <trkpt lat="43.3547930" lon="-3.1776270">
        <ele>159.2</ele>
        <time>2022-01-16T09:29:05Z</time>
      </trkpt>
      <trkpt lat="43.3547660" lon="-3.1776610">
        <ele>159.6</ele>
        <time>2022-01-16T09:29:06Z</time>
      </trkpt>
      <trkpt lat="43.3547390" lon="-3.1776950">
        <ele>159.6</ele>
        <time>2022-01-16T09:29:07Z</time>
      </trkpt>
      <trkpt lat="43.3547120" lon="-3.1777280">
        <ele>160.0</ele>
        <time>2022-01-16T09:29:08Z</time>
      </trkpt>
      <trkpt lat="43.3546840" lon="-3.1777590">
        <ele>160.2</ele>
        <time>2022-01-16T09:29:09Z</time>
      </trkpt>
      <trkpt lat="43.3546560" lon="-3.1777900">
        <ele>160.6</ele>
        <time>2022-01-16T09:29:10Z</time>
      </trkpt>
      <trkpt lat="43.3546280" lon="-3.1778200">
        <ele>160.8</ele>
        <time>2022-01-16T09:29:11Z</time>
      </trkpt>
      <trkpt lat="43.3546010" lon="-3.1778510">
        <ele>161.0</ele>
        <time>2022-01-16T09:29:12Z</time>
      </trkpt>
      <trkpt lat="43.3545720" lon="-3.1778800">
        <ele>161.2</ele>
        <time>2022-01-16T09:29:13Z</time>
      </trkpt>
      <trkpt lat="43.3545440" lon="-3.1779100">
        <ele>161.4</ele>
        <time>2022-01-16T09:29:14Z</time>
      </trkpt>
      <trkpt lat="43.3545150" lon="-3.1779410">
        <ele>161.8</ele>
        <time>2022-01-16T09:29:15Z</time>
      </trkpt>
      <trkpt lat="43.3544860" lon="-3.1779720">
        <ele>162.0</ele>
        <time>2022-01-16T09:29:16Z</time>
      </trkpt>
      <trkpt lat="43.3544580" lon="-3.1780030">
        <ele>162.2</ele>
        <time>2022-01-16T09:29:17Z</time>
      </trkpt>
      <trkpt lat="43.3544290" lon="-3.1780330">
        <ele>162.4</ele>
        <time>2022-01-16T09:29:18Z</time>
      </trkpt>
      <trkpt lat="43.3544000" lon="-3.1780640">
        <ele>162.4</ele>
        <time>2022-01-16T09:29:19Z</time>
      </trkpt>
      <trkpt lat="43.3543730" lon="-3.1780960">
        <ele>162.8</ele>
        <time>2022-01-16T09:29:20Z</time>
      </trkpt>
      <trkpt lat="43.3543460" lon="-3.1781270">
        <ele>163.0</ele>
        <time>2022-01-16T09:29:21Z</time>
      </trkpt>
      <trkpt lat="43.3543180" lon="-3.1781560">
        <ele>163.2</ele>
        <time>2022-01-16T09:29:22Z</time>
      </trkpt>
      <trkpt lat="43.3542910" lon="-3.1781880">
        <ele>163.4</ele>
        <time>2022-01-16T09:29:23Z</time>
      </trkpt>
      <trkpt lat="43.3542640" lon="-3.1782210">
        <ele>163.8</ele>
        <time>2022-01-16T09:29:24Z</time>
      </trkpt>
      <trkpt lat="43.3542380" lon="-3.1782530">
        <ele>163.8</ele>
        <time>2022-01-16T09:29:25Z</time>
      </trkpt>
      <trkpt lat="43.3542130" lon="-3.1782880">
        <ele>164.0</ele>
        <time>2022-01-16T09:29:26Z</time>
      </trkpt>
      <trkpt lat="43.3541880" lon="-3.1783220">
        <ele>164.2</ele>
        <time>2022-01-16T09:29:27Z</time>
      </trkpt>
      <trkpt lat="43.3541640" lon="-3.1783580">
        <ele>164.4</ele>
        <time>2022-01-16T09:29:28Z</time>
      </trkpt>
      <trkpt lat="43.3541410" lon="-3.1783930">
        <ele>164.6</ele>
        <time>2022-01-16T09:29:29Z</time>
      </trkpt>
      <trkpt lat="43.3541190" lon="-3.1784290">
        <ele>165.0</ele>
        <time>2022-01-16T09:29:30Z</time>
      </trkpt>
      <trkpt lat="43.3540980" lon="-3.1784680">
        <ele>165.4</ele>
        <time>2022-01-16T09:29:31Z</time>
      </trkpt>
      <trkpt lat="43.3540800" lon="-3.1785090">
        <ele>165.6</ele>
        <time>2022-01-16T09:29:32Z</time>
      </trkpt>
      <trkpt lat="43.3540680" lon="-3.1785500">
        <ele>165.8</ele>
        <time>2022-01-16T09:29:33Z</time>
      </trkpt>
      <trkpt lat="43.3540610" lon="-3.1785960">
        <ele>166.0</ele>
        <time>2022-01-16T09:29:34Z</time>
      </trkpt>
      <trkpt lat="43.3540580" lon="-3.1786410">
        <ele>166.4</ele>
        <time>2022-01-16T09:29:35Z</time>
      </trkpt>
      <trkpt lat="43.3540590" lon="-3.1786830">
        <ele>166.6</ele>
        <time>2022-01-16T09:29:36Z</time>
      </trkpt>
      <trkpt lat="43.3540630" lon="-3.1787230">
        <ele>167.0</ele>
        <time>2022-01-16T09:29:37Z</time>
      </trkpt>
      <trkpt lat="43.3540690" lon="-3.1787630">
        <ele>167.4</ele>
        <time>2022-01-16T09:29:38Z</time>
      </trkpt>
      <trkpt lat="43.3540790" lon="-3.1787980">
        <ele>167.6</ele>
        <time>2022-01-16T09:29:39Z</time>
      </trkpt>
      <trkpt lat="43.3540910" lon="-3.1788320">
        <ele>167.8</ele>
        <time>2022-01-16T09:29:40Z</time>
      </trkpt>
      <trkpt lat="43.3541040" lon="-3.1788670">
        <ele>168.2</ele>
        <time>2022-01-16T09:29:41Z</time>
      </trkpt>
      <trkpt lat="43.3541200" lon="-3.1789020">
        <ele>168.6</ele>
        <time>2022-01-16T09:29:42Z</time>
      </trkpt>
      <trkpt lat="43.3541370" lon="-3.1789330">
        <ele>168.8</ele>
        <time>2022-01-16T09:29:43Z</time>
      </trkpt>
      <trkpt lat="43.3541490" lon="-3.1789850">
        <ele>168.8</ele>
        <time>2022-01-16T09:29:44Z</time>
      </trkpt>
      <trkpt lat="43.3541640" lon="-3.1790260">
        <ele>169.0</ele>
        <time>2022-01-16T09:29:45Z</time>
      </trkpt>
      <trkpt lat="43.3541800" lon="-3.1790680">
        <ele>169.4</ele>
        <time>2022-01-16T09:29:46Z</time>
      </trkpt>
      <trkpt lat="43.3541970" lon="-3.1791120">
        <ele>169.6</ele>
        <time>2022-01-16T09:29:47Z</time>
      </trkpt>
      <trkpt lat="43.3542150" lon="-3.1791560">
        <ele>170.0</ele>
        <time>2022-01-16T09:29:48Z</time>
      </trkpt>
      <trkpt lat="43.3542330" lon="-3.1792000">
        <ele>170.0</ele>
        <time>2022-01-16T09:29:49Z</time>
      </trkpt>
      <trkpt lat="43.3542510" lon="-3.1792440">
        <ele>170.2</ele>
        <time>2022-01-16T09:29:50Z</time>
      </trkpt>
      <trkpt lat="43.3542690" lon="-3.1792890">
        <ele>170.4</ele>
        <time>2022-01-16T09:29:51Z</time>
      </trkpt>
      <trkpt lat="43.3542890" lon="-3.1793330">
        <ele>170.4</ele>
        <time>2022-01-16T09:29:52Z</time>
      </trkpt>
      <trkpt lat="43.3543080" lon="-3.1793770">
        <ele>170.6</ele>
        <time>2022-01-16T09:29:53Z</time>
      </trkpt>
      <trkpt lat="43.3543280" lon="-3.1794220">
        <ele>170.8</ele>
        <time>2022-01-16T09:29:54Z</time>
      </trkpt>
      <trkpt lat="43.3543470" lon="-3.1794670">
        <ele>171.0</ele>
        <time>2022-01-16T09:29:55Z</time>
      </trkpt>
      <trkpt lat="43.3543670" lon="-3.1795130">
        <ele>171.2</ele>
        <time>2022-01-16T09:29:56Z</time>
      </trkpt>
      <trkpt lat="43.3543860" lon="-3.1795600">
        <ele>171.2</ele>
        <time>2022-01-16T09:29:57Z</time>
      </trkpt>
      <trkpt lat="43.3544060" lon="-3.1796060">
        <ele>171.4</ele>
        <time>2022-01-16T09:29:58Z</time>
      </trkpt>
      <trkpt lat="43.3544240" lon="-3.1796550">
        <ele>171.6</ele>
        <time>2022-01-16T09:29:59Z</time>
      </trkpt>
      <trkpt lat="43.3544400" lon="-3.1797040">
        <ele>171.6</ele>
        <time>2022-01-16T09:30:00Z</time>
      </trkpt>
      <trkpt lat="43.3544550" lon="-3.1797540">
        <ele>172.0</ele>
        <time>2022-01-16T09:30:01Z</time>
      </trkpt>
      <trkpt lat="43.3544660" lon="-3.1798070">
        <ele>172.2</ele>
        <time>2022-01-16T09:30:02Z</time>
      </trkpt>
      <trkpt lat="43.3544740" lon="-3.1798600">
        <ele>172.4</ele>
        <time>2022-01-16T09:30:03Z</time>
      </trkpt>
      <trkpt lat="43.3544770" lon="-3.1799130">
        <ele>172.6</ele>
        <time>2022-01-16T09:30:04Z</time>
      </trkpt>
      <trkpt lat="43.3544760" lon="-3.1799680">
        <ele>173.0</ele>
        <time>2022-01-16T09:30:05Z</time>
      </trkpt>
      <trkpt lat="43.3544720" lon="-3.1800230">
        <ele>173.2</ele>
        <time>2022-01-16T09:30:06Z</time>
      </trkpt>
      <trkpt lat="43.3544640" lon="-3.1800780">
        <ele>173.2</ele>
        <time>2022-01-16T09:30:07Z</time>
      </trkpt>
      <trkpt lat="43.3544530" lon="-3.1801320">
        <ele>173.4</ele>
        <time>2022-01-16T09:30:08Z</time>
      </trkpt>
      <trkpt lat="43.3544400" lon="-3.1801870">
        <ele>173.6</ele>
        <time>2022-01-16T09:30:09Z</time>
      </trkpt>
      <trkpt lat="43.3544270" lon="-3.1802400">
        <ele>173.8</ele>
        <time>2022-01-16T09:30:10Z</time>
      </trkpt>
      <trkpt lat="43.3544130" lon="-3.1802920">
        <ele>174.0</ele>
        <time>2022-01-16T09:30:11Z</time>
      </trkpt>
      <trkpt lat="43.3543950" lon="-3.1803450">
        <ele>174.2</ele>
        <time>2022-01-16T09:30:12Z</time>
      </trkpt>
      <trkpt lat="43.3543780" lon="-3.1803960">
        <ele>174.4</ele>
        <time>2022-01-16T09:30:13Z</time>
      </trkpt>
      <trkpt lat="43.3543620" lon="-3.1804460">
        <ele>174.6</ele>
        <time>2022-01-16T09:30:14Z</time>
      </trkpt>
      <trkpt lat="43.3543450" lon="-3.1804950">
        <ele>174.8</ele>
        <time>2022-01-16T09:30:15Z</time>
      </trkpt>
      <trkpt lat="43.3543290" lon="-3.1805440">
        <ele>174.8</ele>
        <time>2022-01-16T09:30:16Z</time>
      </trkpt>
      <trkpt lat="43.3543120" lon="-3.1805920">
        <ele>175.0</ele>
        <time>2022-01-16T09:30:17Z</time>
      </trkpt>
      <trkpt lat="43.3542950" lon="-3.1806410">
        <ele>175.4</ele>
        <time>2022-01-16T09:30:18Z</time>
      </trkpt>
      <trkpt lat="43.3542780" lon="-3.1806890">
        <ele>175.6</ele>
        <time>2022-01-16T09:30:19Z</time>
      </trkpt>
      <trkpt lat="43.3542610" lon="-3.1807360">
        <ele>175.8</ele>
        <time>2022-01-16T09:30:20Z</time>
      </trkpt>
      <trkpt lat="43.3542440" lon="-3.1807850">
        <ele>176.0</ele>
        <time>2022-01-16T09:30:21Z</time>
      </trkpt>
      <trkpt lat="43.3542270" lon="-3.1808330">
        <ele>176.2</ele>
        <time>2022-01-16T09:30:22Z</time>
      </trkpt>
      <trkpt lat="43.3542090" lon="-3.1808790">
        <ele>176.6</ele>
        <time>2022-01-16T09:30:23Z</time>
      </trkpt>
      <trkpt lat="43.3541940" lon="-3.1809270">
        <ele>176.8</ele>
        <time>2022-01-16T09:30:24Z</time>
      </trkpt>
      <trkpt lat="43.3541780" lon="-3.1809730">
        <ele>177.0</ele>
        <time>2022-01-16T09:30:25Z</time>
      </trkpt>
      <trkpt lat="43.3541620" lon="-3.1810180">
        <ele>177.0</ele>
        <time>2022-01-16T09:30:26Z</time>
      </trkpt>
      <trkpt lat="43.3541450" lon="-3.1810660">
        <ele>177.2</ele>
        <time>2022-01-16T09:30:27Z</time>
      </trkpt>
      <trkpt lat="43.3541270" lon="-3.1811170">
        <ele>177.2</ele>
        <time>2022-01-16T09:30:28Z</time>
      </trkpt>
      <trkpt lat="43.3541080" lon="-3.1811760">
        <ele>177.2</ele>
        <time>2022-01-16T09:30:29Z</time>
      </trkpt>
      <trkpt lat="43.3540880" lon="-3.1812360">
        <ele>177.2</ele>
        <time>2022-01-16T09:30:30Z</time>
      </trkpt>
      <trkpt lat="43.3540680" lon="-3.1812990">
        <ele>177.2</ele>
        <time>2022-01-16T09:30:31Z</time>
      </trkpt>
      <trkpt lat="43.3540460" lon="-3.1813650">
        <ele>177.0</ele>
        <time>2022-01-16T09:30:32Z</time>
      </trkpt>
      <trkpt lat="43.3540230" lon="-3.1814340">
        <ele>176.8</ele>
        <time>2022-01-16T09:30:33Z</time>
      </trkpt>
      <trkpt lat="43.3540000" lon="-3.1815060">
        <ele>176.6</ele>
        <time>2022-01-16T09:30:34Z</time>
      </trkpt>
      <trkpt lat="43.3539770" lon="-3.1815790">
        <ele>176.4</ele>
        <time>2022-01-16T09:30:35Z</time>
      </trkpt>
      <trkpt lat="43.3539540" lon="-3.1816530">
        <ele>176.4</ele>
        <time>2022-01-16T09:30:36Z</time>
      </trkpt>
      <trkpt lat="43.3539310" lon="-3.1817220">
        <ele>176.2</ele>
        <time>2022-01-16T09:30:37Z</time>
      </trkpt>
      <trkpt lat="43.3539090" lon="-3.1817890">
        <ele>176.2</ele>
        <time>2022-01-16T09:30:38Z</time>
      </trkpt>
      <trkpt lat="43.3538860" lon="-3.1818590">
        <ele>176.2</ele>
        <time>2022-01-16T09:30:39Z</time>
      </trkpt>
      <trkpt lat="43.3538640" lon="-3.1819280">
        <ele>176.2</ele>
        <time>2022-01-16T09:30:40Z</time>
      </trkpt>
      <trkpt lat="43.3538440" lon="-3.1819960">
        <ele>176.4</ele>
        <time>2022-01-16T09:30:41Z</time>
      </trkpt>
      <trkpt lat="43.3538260" lon="-3.1820620">
        <ele>176.6</ele>
        <time>2022-01-16T09:30:42Z</time>
      </trkpt>
      <trkpt lat="43.3538110" lon="-3.1821260">
        <ele>176.8</ele>
        <time>2022-01-16T09:30:43Z</time>
      </trkpt>
      <trkpt lat="43.3538020" lon="-3.1821890">
        <ele>177.0</ele>
        <time>2022-01-16T09:30:44Z</time>
      </trkpt>
      <trkpt lat="43.3537980" lon="-3.1822510">
        <ele>177.2</ele>
        <time>2022-01-16T09:30:45Z</time>
      </trkpt>
      <trkpt lat="43.3538000" lon="-3.1823130">
        <ele>177.4</ele>
        <time>2022-01-16T09:30:46Z</time>
      </trkpt>
      <trkpt lat="43.3538150" lon="-3.1823660">
        <ele>177.8</ele>
        <time>2022-01-16T09:30:47Z</time>
      </trkpt>
      <trkpt lat="43.3538300" lon="-3.1824170">
        <ele>178.4</ele>
        <time>2022-01-16T09:30:48Z</time>
      </trkpt>
      <trkpt lat="43.3538480" lon="-3.1824660">
        <ele>179.0</ele>
        <time>2022-01-16T09:30:49Z</time>
      </trkpt>
      <trkpt lat="43.3538670" lon="-3.1825150">
        <ele>179.4</ele>
        <time>2022-01-16T09:30:50Z</time>
      </trkpt>
      <trkpt lat="43.3538900" lon="-3.1825540">
        <ele>179.8</ele>
        <time>2022-01-16T09:30:51Z</time>
      </trkpt>
      <trkpt lat="43.3539180" lon="-3.1825830">
        <ele>180.2</ele>
        <time>2022-01-16T09:30:52Z</time>
      </trkpt>
      <trkpt lat="43.3539480" lon="-3.1826060">
        <ele>180.6</ele>
        <time>2022-01-16T09:30:53Z</time>
      </trkpt>
      <trkpt lat="43.3539800" lon="-3.1826230">
        <ele>181.0</ele>
        <time>2022-01-16T09:30:54Z</time>
      </trkpt>
      <trkpt lat="43.3540120" lon="-3.1826390">
        <ele>181.4</ele>
        <time>2022-01-16T09:30:55Z</time>
      </trkpt>
      <trkpt lat="43.3540450" lon="-3.1826530">
        <ele>181.8</ele>
        <time>2022-01-16T09:30:56Z</time>
      </trkpt>
      <trkpt lat="43.3540780" lon="-3.1826650">
        <ele>182.4</ele>
        <time>2022-01-16T09:30:57Z</time>
      </trkpt>
      <trkpt lat="43.3541090" lon="-3.1826760">
        <ele>183.2</ele>
        <time>2022-01-16T09:30:58Z</time>
      </trkpt>
      <trkpt lat="43.3541410" lon="-3.1826850">
        <ele>183.6</ele>
        <time>2022-01-16T09:30:59Z</time>
      </trkpt>
      <trkpt lat="43.3541710" lon="-3.1826990">
        <ele>183.8</ele>
        <time>2022-01-16T09:31:00Z</time>
      </trkpt>
      <trkpt lat="43.3542020" lon="-3.1827100">
        <ele>184.2</ele>
        <time>2022-01-16T09:31:01Z</time>
      </trkpt>
      <trkpt lat="43.3542330" lon="-3.1827170">
        <ele>184.4</ele>
        <time>2022-01-16T09:31:02Z</time>
      </trkpt>
      <trkpt lat="43.3542660" lon="-3.1827200">
        <ele>184.6</ele>
        <time>2022-01-16T09:31:03Z</time>
      </trkpt>
      <trkpt lat="43.3542990" lon="-3.1827240">
        <ele>184.8</ele>
        <time>2022-01-16T09:31:04Z</time>
      </trkpt>
      <trkpt lat="43.3543310" lon="-3.1827290">
        <ele>185.2</ele>
        <time>2022-01-16T09:31:05Z</time>
      </trkpt>
      <trkpt lat="43.3543610" lon="-3.1827340">
        <ele>185.6</ele>
        <time>2022-01-16T09:31:06Z</time>
      </trkpt>
      <trkpt lat="43.3543930" lon="-3.1827390">
        <ele>186.2</ele>
        <time>2022-01-16T09:31:07Z</time>
      </trkpt>
      <trkpt lat="43.3544220" lon="-3.1827430">
        <ele>186.6</ele>
        <time>2022-01-16T09:31:08Z</time>
      </trkpt>
      <trkpt lat="43.3544530" lon="-3.1827450">
        <ele>186.8</ele>
        <time>2022-01-16T09:31:09Z</time>
      </trkpt>
      <trkpt lat="43.3544850" lon="-3.1827440">
        <ele>187.2</ele>
        <time>2022-01-16T09:31:10Z</time>
      </trkpt>
      <trkpt lat="43.3545160" lon="-3.1827440">
        <ele>187.4</ele>
        <time>2022-01-16T09:31:11Z</time>
      </trkpt>
      <trkpt lat="43.3545430" lon="-3.1827480">
        <ele>187.8</ele>
        <time>2022-01-16T09:31:12Z</time>
      </trkpt>
      <trkpt lat="43.3545660" lon="-3.1827560">
        <ele>188.0</ele>
        <time>2022-01-16T09:31:13Z</time>
      </trkpt>
      <trkpt lat="43.3545990" lon="-3.1827660">
        <ele>188.4</ele>
        <time>2022-01-16T09:31:14Z</time>
      </trkpt>
      <trkpt lat="43.3546290" lon="-3.1827760">
        <ele>188.6</ele>
        <time>2022-01-16T09:31:15Z</time>
      </trkpt>
      <trkpt lat="43.3546590" lon="-3.1827890">
        <ele>189.2</ele>
        <time>2022-01-16T09:31:16Z</time>
      </trkpt>
      <trkpt lat="43.3546890" lon="-3.1828000">
        <ele>189.6</ele>
        <time>2022-01-16T09:31:17Z</time>
      </trkpt>
      <trkpt lat="43.3547180" lon="-3.1828080">
        <ele>190.0</ele>
        <time>2022-01-16T09:31:18Z</time>
      </trkpt>
      <trkpt lat="43.3547450" lon="-3.1828160">
        <ele>190.2</ele>
        <time>2022-01-16T09:31:19Z</time>
      </trkpt>
      <trkpt lat="43.3547740" lon="-3.1828260">
        <ele>190.4</ele>
        <time>2022-01-16T09:31:20Z</time>
      </trkpt>
      <trkpt lat="43.3548020" lon="-3.1828380">
        <ele>190.8</ele>
        <time>2022-01-16T09:31:21Z</time>
      </trkpt>
      <trkpt lat="43.3548310" lon="-3.1828480">
        <ele>191.0</ele>
        <time>2022-01-16T09:31:22Z</time>
      </trkpt>
      <trkpt lat="43.3548580" lon="-3.1828580">
        <ele>191.4</ele>
        <time>2022-01-16T09:31:23Z</time>
      </trkpt>
      <trkpt lat="43.3548860" lon="-3.1828660">
        <ele>191.6</ele>
        <time>2022-01-16T09:31:24Z</time>
      </trkpt>
      <trkpt lat="43.3549140" lon="-3.1828700">
        <ele>192.0</ele>
        <time>2022-01-16T09:31:25Z</time>
      </trkpt>
      <trkpt lat="43.3549420" lon="-3.1828730">
        <ele>192.4</ele>
        <time>2022-01-16T09:31:26Z</time>
      </trkpt>
      <trkpt lat="43.3549710" lon="-3.1828790">
        <ele>192.4</ele>
        <time>2022-01-16T09:31:27Z</time>
      </trkpt>
      <trkpt lat="43.3549990" lon="-3.1828840">
        <ele>192.8</ele>
        <time>2022-01-16T09:31:28Z</time>
      </trkpt>
      <trkpt lat="43.3550260" lon="-3.1828870">
        <ele>193.0</ele>
        <time>2022-01-16T09:31:29Z</time>
      </trkpt>
      <trkpt lat="43.3550520" lon="-3.1828920">
        <ele>193.2</ele>
        <time>2022-01-16T09:31:30Z</time>
      </trkpt>
      <trkpt lat="43.3550730" lon="-3.1829010">
        <ele>193.6</ele>
        <time>2022-01-16T09:31:31Z</time>
      </trkpt>
      <trkpt lat="43.3550980" lon="-3.1829090">
        <ele>193.8</ele>
        <time>2022-01-16T09:31:32Z</time>
      </trkpt>
      <trkpt lat="43.3551220" lon="-3.1829170">
        <ele>194.4</ele>
        <time>2022-01-16T09:31:33Z</time>
      </trkpt>
      <trkpt lat="43.3551480" lon="-3.1829240">
        <ele>194.6</ele>
        <time>2022-01-16T09:31:34Z</time>
      </trkpt>
      <trkpt lat="43.3551740" lon="-3.1829300">
        <ele>194.8</ele>
        <time>2022-01-16T09:31:35Z</time>
      </trkpt>
      <trkpt lat="43.3551990" lon="-3.1829390">
        <ele>195.0</ele>
        <time>2022-01-16T09:31:36Z</time>
      </trkpt>
      <trkpt lat="43.3552250" lon="-3.1829480">
        <ele>195.2</ele>
        <time>2022-01-16T09:31:37Z</time>
      </trkpt>
      <trkpt lat="43.3552500" lon="-3.1829560">
        <ele>195.6</ele>
        <time>2022-01-16T09:31:38Z</time>
      </trkpt>
      <trkpt lat="43.3552740" lon="-3.1829640">
        <ele>196.0</ele>
        <time>2022-01-16T09:31:39Z</time>
      </trkpt>
      <trkpt lat="43.3552990" lon="-3.1829690">
        <ele>196.4</ele>
        <time>2022-01-16T09:31:40Z</time>
      </trkpt>
      <trkpt lat="43.3553220" lon="-3.1829780">
        <ele>196.6</ele>
        <time>2022-01-16T09:31:41Z</time>
      </trkpt>
      <trkpt lat="43.3553450" lon="-3.1829870">
        <ele>197.0</ele>
        <time>2022-01-16T09:31:42Z</time>
      </trkpt>
      <trkpt lat="43.3553690" lon="-3.1829960">
        <ele>197.4</ele>
        <time>2022-01-16T09:31:43Z</time>
      </trkpt>
      <trkpt lat="43.3553930" lon="-3.1830050">
        <ele>197.6</ele>
        <time>2022-01-16T09:31:44Z</time>
      </trkpt>
      <trkpt lat="43.3554170" lon="-3.1830130">
        <ele>197.8</ele>
        <time>2022-01-16T09:31:45Z</time>
      </trkpt>
      <trkpt lat="43.3554410" lon="-3.1830200">
        <ele>198.2</ele>
        <time>2022-01-16T09:31:46Z</time>
      </trkpt>
      <trkpt lat="43.3554660" lon="-3.1830270">
        <ele>198.6</ele>
        <time>2022-01-16T09:31:47Z</time>
      </trkpt>
      <trkpt lat="43.3554910" lon="-3.1830340">
        <ele>199.0</ele>
        <time>2022-01-16T09:31:48Z</time>
      </trkpt>
      <trkpt lat="43.3555170" lon="-3.1830400">
        <ele>199.2</ele>
        <time>2022-01-16T09:31:49Z</time>
      </trkpt>
      <trkpt lat="43.3555420" lon="-3.1830470">
        <ele>199.4</ele>
        <time>2022-01-16T09:31:50Z</time>
      </trkpt>
      <trkpt lat="43.3555650" lon="-3.1830560">
        <ele>199.8</ele>
        <time>2022-01-16T09:31:51Z</time>
      </trkpt>
      <trkpt lat="43.3555890" lon="-3.1830630">
        <ele>200.0</ele>
        <time>2022-01-16T09:31:52Z</time>
      </trkpt>
      <trkpt lat="43.3556120" lon="-3.1830690">
        <ele>200.2</ele>
        <time>2022-01-16T09:31:53Z</time>
      </trkpt>
      <trkpt lat="43.3556370" lon="-3.1830750">
        <ele>200.6</ele>
        <time>2022-01-16T09:31:54Z</time>
      </trkpt>
      <trkpt lat="43.3556620" lon="-3.1830800">
        <ele>201.0</ele>
        <time>2022-01-16T09:31:55Z</time>
      </trkpt>
      <trkpt lat="43.3556880" lon="-3.1830860">
        <ele>201.2</ele>
        <time>2022-01-16T09:31:56Z</time>
      </trkpt>
      <trkpt lat="43.3557140" lon="-3.1830910">
        <ele>201.6</ele>
        <time>2022-01-16T09:31:57Z</time>
      </trkpt>
      <trkpt lat="43.3557400" lon="-3.1830970">
        <ele>201.8</ele>
        <time>2022-01-16T09:31:58Z</time>
      </trkpt>
      <trkpt lat="43.3557680" lon="-3.1831040">
        <ele>202.0</ele>
        <time>2022-01-16T09:31:59Z</time>
      </trkpt>
      <trkpt lat="43.3557940" lon="-3.1831120">
        <ele>202.4</ele>
        <time>2022-01-16T09:32:00Z</time>
      </trkpt>
      <trkpt lat="43.3558190" lon="-3.1831200">
        <ele>202.8</ele>
        <time>2022-01-16T09:32:01Z</time>
      </trkpt>
      <trkpt lat="43.3558440" lon="-3.1831270">
        <ele>203.0</ele>
        <time>2022-01-16T09:32:02Z</time>
      </trkpt>
      <trkpt lat="43.3558680" lon="-3.1831360">
        <ele>203.2</ele>
        <time>2022-01-16T09:32:03Z</time>
      </trkpt>
      <trkpt lat="43.3558940" lon="-3.1831460">
        <ele>203.6</ele>
        <time>2022-01-16T09:32:04Z</time>
      </trkpt>
      <trkpt lat="43.3559180" lon="-3.1831550">
        <ele>203.8</ele>
        <time>2022-01-16T09:32:05Z</time>
      </trkpt>
      <trkpt lat="43.3559420" lon="-3.1831650">
        <ele>204.0</ele>
        <time>2022-01-16T09:32:06Z</time>
      </trkpt>
      <trkpt lat="43.3559650" lon="-3.1831750">
        <ele>204.4</ele>
        <time>2022-01-16T09:32:07Z</time>
      </trkpt>
      <trkpt lat="43.3559880" lon="-3.1831840">
        <ele>204.6</ele>
        <time>2022-01-16T09:32:08Z</time>
      </trkpt>
      <trkpt lat="43.3560120" lon="-3.1831930">
        <ele>205.0</ele>
        <time>2022-01-16T09:32:09Z</time>
      </trkpt>
      <trkpt lat="43.3560330" lon="-3.1832020">
        <ele>205.2</ele>
        <time>2022-01-16T09:32:10Z</time>
      </trkpt>
      <trkpt lat="43.3560560" lon="-3.1832130">
        <ele>205.4</ele>
        <time>2022-01-16T09:32:11Z</time>
      </trkpt>
      <trkpt lat="43.3560800" lon="-3.1832240">
        <ele>205.8</ele>
        <time>2022-01-16T09:32:12Z</time>
      </trkpt>
      <trkpt lat="43.3561040" lon="-3.1832360">
        <ele>206.2</ele>
        <time>2022-01-16T09:32:13Z</time>
      </trkpt>
      <trkpt lat="43.3561280" lon="-3.1832510">
        <ele>206.4</ele>
        <time>2022-01-16T09:32:14Z</time>
      </trkpt>
      <trkpt lat="43.3561510" lon="-3.1832680">
        <ele>206.6</ele>
        <time>2022-01-16T09:32:15Z</time>
      </trkpt>
      <trkpt lat="43.3561740" lon="-3.1832820">
        <ele>206.8</ele>
        <time>2022-01-16T09:32:16Z</time>
      </trkpt>
      <trkpt lat="43.3561970" lon="-3.1832940">
        <ele>207.2</ele>
        <time>2022-01-16T09:32:17Z</time>
      </trkpt>
      <trkpt lat="43.3562200" lon="-3.1833090">
        <ele>207.6</ele>
        <time>2022-01-16T09:32:18Z</time>
      </trkpt>
      <trkpt lat="43.3562420" lon="-3.1833240">
        <ele>207.8</ele>
        <time>2022-01-16T09:32:19Z</time>
      </trkpt>
      <trkpt lat="43.3562640" lon="-3.1833380">
        <ele>208.2</ele>
        <time>2022-01-16T09:32:20Z</time>
      </trkpt>
      <trkpt lat="43.3562860" lon="-3.1833520">
        <ele>208.4</ele>
        <time>2022-01-16T09:32:21Z</time>
      </trkpt>
      <trkpt lat="43.3563060" lon="-3.1833690">
        <ele>208.6</ele>
        <time>2022-01-16T09:32:22Z</time>
      </trkpt>
      <trkpt lat="43.3563260" lon="-3.1833840">
        <ele>209.0</ele>
        <time>2022-01-16T09:32:23Z</time>
      </trkpt>
      <trkpt lat="43.3563470" lon="-3.1833990">
        <ele>209.0</ele>
        <time>2022-01-16T09:32:24Z</time>
      </trkpt>
      <trkpt lat="43.3563690" lon="-3.1834100">
        <ele>209.2</ele>
        <time>2022-01-16T09:32:25Z</time>
      </trkpt>
      <trkpt lat="43.3563910" lon="-3.1834220">
        <ele>209.6</ele>
        <time>2022-01-16T09:32:26Z</time>
      </trkpt>
      <trkpt lat="43.3564110" lon="-3.1834400">
        <ele>210.0</ele>
        <time>2022-01-16T09:32:27Z</time>
      </trkpt>
      <trkpt lat="43.3564320" lon="-3.1834570">
        <ele>210.2</ele>
        <time>2022-01-16T09:32:28Z</time>
      </trkpt>
      <trkpt lat="43.3564550" lon="-3.1834700">
        <ele>210.4</ele>
        <time>2022-01-16T09:32:29Z</time>
      </trkpt>
      <trkpt lat="43.3564760" lon="-3.1834850">
        <ele>210.6</ele>
        <time>2022-01-16T09:32:30Z</time>
      </trkpt>
      <trkpt lat="43.3564970" lon="-3.1835020">
        <ele>210.8</ele>
        <time>2022-01-16T09:32:31Z</time>
      </trkpt>
      <trkpt lat="43.3565160" lon="-3.1835220">
        <ele>211.2</ele>
        <time>2022-01-16T09:32:32Z</time>
      </trkpt>
      <trkpt lat="43.3565360" lon="-3.1835410">
        <ele>211.4</ele>
        <time>2022-01-16T09:32:33Z</time>
      </trkpt>
      <trkpt lat="43.3565540" lon="-3.1835580">
        <ele>211.6</ele>
        <time>2022-01-16T09:32:34Z</time>
      </trkpt>
      <trkpt lat="43.3565730" lon="-3.1835760">
        <ele>211.8</ele>
        <time>2022-01-16T09:32:35Z</time>
      </trkpt>
      <trkpt lat="43.3565910" lon="-3.1835940">
        <ele>212.2</ele>
        <time>2022-01-16T09:32:36Z</time>
      </trkpt>
      <trkpt lat="43.3566080" lon="-3.1836140">
        <ele>212.4</ele>
        <time>2022-01-16T09:32:37Z</time>
      </trkpt>
      <trkpt lat="43.3566260" lon="-3.1836340">
        <ele>212.8</ele>
        <time>2022-01-16T09:32:38Z</time>
      </trkpt>
      <trkpt lat="43.3566460" lon="-3.1836510">
        <ele>213.0</ele>
        <time>2022-01-16T09:32:39Z</time>
      </trkpt>
      <trkpt lat="43.3566680" lon="-3.1836670">
        <ele>213.2</ele>
        <time>2022-01-16T09:32:40Z</time>
      </trkpt>
      <trkpt lat="43.3566890" lon="-3.1836860">
        <ele>213.4</ele>
        <time>2022-01-16T09:32:41Z</time>
      </trkpt>
      <trkpt lat="43.3567090" lon="-3.1837040">
        <ele>213.6</ele>
        <time>2022-01-16T09:32:42Z</time>
      </trkpt>
      <trkpt lat="43.3567280" lon="-3.1837220">
        <ele>213.8</ele>
        <time>2022-01-16T09:32:43Z</time>
      </trkpt>
      <trkpt lat="43.3567480" lon="-3.1837390">
        <ele>214.2</ele>
        <time>2022-01-16T09:32:44Z</time>
      </trkpt>
      <trkpt lat="43.3567680" lon="-3.1837600">
        <ele>214.4</ele>
        <time>2022-01-16T09:32:45Z</time>
      </trkpt>
      <trkpt lat="43.3567880" lon="-3.1837780">
        <ele>214.6</ele>
        <time>2022-01-16T09:32:46Z</time>
      </trkpt>
      <trkpt lat="43.3568080" lon="-3.1837990">
        <ele>214.8</ele>
        <time>2022-01-16T09:32:47Z</time>
      </trkpt>
      <trkpt lat="43.3568270" lon="-3.1838210">
        <ele>215.2</ele>
        <time>2022-01-16T09:32:48Z</time>
      </trkpt>
      <trkpt lat="43.3568450" lon="-3.1838440">
        <ele>215.6</ele>
        <time>2022-01-16T09:32:49Z</time>
      </trkpt>
      <trkpt lat="43.3568640" lon="-3.1838690">
        <ele>215.8</ele>
        <time>2022-01-16T09:32:50Z</time>
      </trkpt>
      <trkpt lat="43.3568830" lon="-3.1838920">
        <ele>216.2</ele>
        <time>2022-01-16T09:32:51Z</time>
      </trkpt>
      <trkpt lat="43.3569010" lon="-3.1839150">
        <ele>216.4</ele>
        <time>2022-01-16T09:32:52Z</time>
      </trkpt>
      <trkpt lat="43.3569200" lon="-3.1839370">
        <ele>216.8</ele>
        <time>2022-01-16T09:32:53Z</time>
      </trkpt>
      <trkpt lat="43.3569390" lon="-3.1839590">
        <ele>217.0</ele>
        <time>2022-01-16T09:32:54Z</time>
      </trkpt>
      <trkpt lat="43.3569590" lon="-3.1839800">
        <ele>217.4</ele>
        <time>2022-01-16T09:32:55Z</time>
      </trkpt>
      <trkpt lat="43.3569780" lon="-3.1840020">
        <ele>217.6</ele>
        <time>2022-01-16T09:32:56Z</time>
      </trkpt>
      <trkpt lat="43.3569970" lon="-3.1840240">
        <ele>217.6</ele>
        <time>2022-01-16T09:32:57Z</time>
      </trkpt>
      <trkpt lat="43.3570160" lon="-3.1840460">
        <ele>218.0</ele>
        <time>2022-01-16T09:32:58Z</time>
      </trkpt>
      <trkpt lat="43.3570350" lon="-3.1840680">
        <ele>218.2</ele>
        <time>2022-01-16T09:32:59Z</time>
      </trkpt>
      <trkpt lat="43.3570540" lon="-3.1840910">
        <ele>218.6</ele>
        <time>2022-01-16T09:33:00Z</time>
      </trkpt>
      <trkpt lat="43.3570730" lon="-3.1841120">
        <ele>218.8</ele>
        <time>2022-01-16T09:33:01Z</time>
      </trkpt>
      <trkpt lat="43.3570930" lon="-3.1841330">
        <ele>219.0</ele>
        <time>2022-01-16T09:33:02Z</time>
      </trkpt>
      <trkpt lat="43.3571120" lon="-3.1841550">
        <ele>219.4</ele>
        <time>2022-01-16T09:33:03Z</time>
      </trkpt>
      <trkpt lat="43.3571320" lon="-3.1841760">
        <ele>219.6</ele>
        <time>2022-01-16T09:33:04Z</time>
      </trkpt>
      <trkpt lat="43.3571530" lon="-3.1841970">
        <ele>219.8</ele>
        <time>2022-01-16T09:33:05Z</time>
      </trkpt>
      <trkpt lat="43.3571740" lon="-3.1842170">
        <ele>220.2</ele>
        <time>2022-01-16T09:33:06Z</time>
      </trkpt>
      <trkpt lat="43.3571960" lon="-3.1842350">
        <ele>220.6</ele>
        <time>2022-01-16T09:33:07Z</time>
      </trkpt>
      <trkpt lat="43.3572170" lon="-3.1842550">
        <ele>220.8</ele>
        <time>2022-01-16T09:33:08Z</time>
      </trkpt>
      <trkpt lat="43.3572380" lon="-3.1842720">
        <ele>221.0</ele>
        <time>2022-01-16T09:33:09Z</time>
      </trkpt>
      <trkpt lat="43.3572590" lon="-3.1842890">
        <ele>221.4</ele>
        <time>2022-01-16T09:33:10Z</time>
      </trkpt>
      <trkpt lat="43.3572810" lon="-3.1843050">
        <ele>221.6</ele>
        <time>2022-01-16T09:33:11Z</time>
      </trkpt>
      <trkpt lat="43.3573010" lon="-3.1843230">
        <ele>222.0</ele>
        <time>2022-01-16T09:33:12Z</time>
      </trkpt>
      <trkpt lat="43.3573220" lon="-3.1843410">
        <ele>222.2</ele>
        <time>2022-01-16T09:33:13Z</time>
      </trkpt>
      <trkpt lat="43.3573430" lon="-3.1843580">
        <ele>222.4</ele>
        <time>2022-01-16T09:33:14Z</time>
      </trkpt>
      <trkpt lat="43.3573650" lon="-3.1843740">
        <ele>222.6</ele>
        <time>2022-01-16T09:33:15Z</time>
      </trkpt>
      <trkpt lat="43.3573850" lon="-3.1843910">
        <ele>223.0</ele>
        <time>2022-01-16T09:33:16Z</time>
      </trkpt>
      <trkpt lat="43.3574070" lon="-3.1844070">
        <ele>223.6</ele>
        <time>2022-01-16T09:33:17Z</time>
      </trkpt>
      <trkpt lat="43.3574280" lon="-3.1844220">
        <ele>223.8</ele>
        <time>2022-01-16T09:33:18Z</time>
      </trkpt>
      <trkpt lat="43.3574490" lon="-3.1844400">
        <ele>224.0</ele>
        <time>2022-01-16T09:33:19Z</time>
      </trkpt>
      <trkpt lat="43.3574690" lon="-3.1844580">
        <ele>224.2</ele>
        <time>2022-01-16T09:33:20Z</time>
      </trkpt>
      <trkpt lat="43.3574890" lon="-3.1844740">
        <ele>224.6</ele>
        <time>2022-01-16T09:33:21Z</time>
      </trkpt>
      <trkpt lat="43.3575090" lon="-3.1844900">
        <ele>224.8</ele>
        <time>2022-01-16T09:33:22Z</time>
      </trkpt>
      <trkpt lat="43.3575280" lon="-3.1845080">
        <ele>225.2</ele>
        <time>2022-01-16T09:33:23Z</time>
      </trkpt>
      <trkpt lat="43.3575490" lon="-3.1845250">
        <ele>225.4</ele>
        <time>2022-01-16T09:33:24Z</time>
      </trkpt>
      <trkpt lat="43.3575690" lon="-3.1845420">
        <ele>225.4</ele>
        <time>2022-01-16T09:33:25Z</time>
      </trkpt>
      <trkpt lat="43.3575890" lon="-3.1845580">
        <ele>225.8</ele>
        <time>2022-01-16T09:33:26Z</time>
      </trkpt>
      <trkpt lat="43.3576090" lon="-3.1845730">
        <ele>226.0</ele>
        <time>2022-01-16T09:33:27Z</time>
      </trkpt>
      <trkpt lat="43.3576300" lon="-3.1845870">
        <ele>226.2</ele>
        <time>2022-01-16T09:33:28Z</time>
      </trkpt>
      <trkpt lat="43.3576520" lon="-3.1846010">
        <ele>226.4</ele>
        <time>2022-01-16T09:33:29Z</time>
      </trkpt>
      <trkpt lat="43.3576720" lon="-3.1846160">
        <ele>226.8</ele>
        <time>2022-01-16T09:33:30Z</time>
      </trkpt>
      <trkpt lat="43.3576930" lon="-3.1846320">
        <ele>227.0</ele>
        <time>2022-01-16T09:33:31Z</time>
      </trkpt>
      <trkpt lat="43.3577140" lon="-3.1846490">
        <ele>227.4</ele>
        <time>2022-01-16T09:33:32Z</time>
      </trkpt>
      <trkpt lat="43.3577360" lon="-3.1846620">
        <ele>227.8</ele>
        <time>2022-01-16T09:33:33Z</time>
      </trkpt>
      <trkpt lat="43.3577590" lon="-3.1846760">
        <ele>228.0</ele>
        <time>2022-01-16T09:33:34Z</time>
      </trkpt>
      <trkpt lat="43.3577800" lon="-3.1846900">
        <ele>228.2</ele>
        <time>2022-01-16T09:33:35Z</time>
      </trkpt>
      <trkpt lat="43.3578010" lon="-3.1847060">
        <ele>228.4</ele>
        <time>2022-01-16T09:33:36Z</time>
      </trkpt>
      <trkpt lat="43.3578220" lon="-3.1847210">
        <ele>228.6</ele>
        <time>2022-01-16T09:33:37Z</time>
      </trkpt>
      <trkpt lat="43.3578430" lon="-3.1847360">
        <ele>228.8</ele>
        <time>2022-01-16T09:33:38Z</time>
      </trkpt>
      <trkpt lat="43.3578650" lon="-3.1847510">
        <ele>229.2</ele>
        <time>2022-01-16T09:33:39Z</time>
      </trkpt>
      <trkpt lat="43.3578860" lon="-3.1847680">
        <ele>229.6</ele>
        <time>2022-01-16T09:33:40Z</time>
      </trkpt>
      <trkpt lat="43.3579070" lon="-3.1847840">
        <ele>230.0</ele>
        <time>2022-01-16T09:33:41Z</time>
      </trkpt>
      <trkpt lat="43.3579290" lon="-3.1847980">
        <ele>230.2</ele>
        <time>2022-01-16T09:33:42Z</time>
      </trkpt>
      <trkpt lat="43.3579490" lon="-3.1848120">
        <ele>230.4</ele>
        <time>2022-01-16T09:33:43Z</time>
      </trkpt>
      <trkpt lat="43.3579690" lon="-3.1848270">
        <ele>230.6</ele>
        <time>2022-01-16T09:33:44Z</time>
      </trkpt>
      <trkpt lat="43.3579910" lon="-3.1848400">
        <ele>231.0</ele>
        <time>2022-01-16T09:33:45Z</time>
      </trkpt>
      <trkpt lat="43.3580130" lon="-3.1848530">
        <ele>231.2</ele>
        <time>2022-01-16T09:33:46Z</time>
      </trkpt>
      <trkpt lat="43.3580360" lon="-3.1848660">
        <ele>231.4</ele>
        <time>2022-01-16T09:33:47Z</time>
      </trkpt>
      <trkpt lat="43.3580580" lon="-3.1848800">
        <ele>231.8</ele>
        <time>2022-01-16T09:33:48Z</time>
      </trkpt>
      <trkpt lat="43.3580800" lon="-3.1848960">
        <ele>232.2</ele>
        <time>2022-01-16T09:33:49Z</time>
      </trkpt>
      <trkpt lat="43.3581010" lon="-3.1849110">
        <ele>232.4</ele>
        <time>2022-01-16T09:33:50Z</time>
      </trkpt>
      <trkpt lat="43.3581230" lon="-3.1849250">
        <ele>232.6</ele>
        <time>2022-01-16T09:33:51Z</time>
      </trkpt>
      <trkpt lat="43.3581440" lon="-3.1849390">
        <ele>232.8</ele>
        <time>2022-01-16T09:33:52Z</time>
      </trkpt>
      <trkpt lat="43.3581650" lon="-3.1849540">
        <ele>233.0</ele>
        <time>2022-01-16T09:33:53Z</time>
      </trkpt>
      <trkpt lat="43.3581870" lon="-3.1849680">
        <ele>233.4</ele>
        <time>2022-01-16T09:33:54Z</time>
      </trkpt>
      <trkpt lat="43.3582080" lon="-3.1849830">
        <ele>233.8</ele>
        <time>2022-01-16T09:33:55Z</time>
      </trkpt>
      <trkpt lat="43.3582290" lon="-3.1849990">
        <ele>234.0</ele>
        <time>2022-01-16T09:33:56Z</time>
      </trkpt>
      <trkpt lat="43.3582500" lon="-3.1850140">
        <ele>234.4</ele>
        <time>2022-01-16T09:33:57Z</time>
      </trkpt>
      <trkpt lat="43.3582720" lon="-3.1850300">
        <ele>234.8</ele>
        <time>2022-01-16T09:33:58Z</time>
      </trkpt>
      <trkpt lat="43.3582940" lon="-3.1850470">
        <ele>235.0</ele>
        <time>2022-01-16T09:33:59Z</time>
      </trkpt>
      <trkpt lat="43.3583150" lon="-3.1850640">
        <ele>235.2</ele>
        <time>2022-01-16T09:34:00Z</time>
      </trkpt>
      <trkpt lat="43.3583360" lon="-3.1850830">
        <ele>235.4</ele>
        <time>2022-01-16T09:34:01Z</time>
      </trkpt>
      <trkpt lat="43.3583570" lon="-3.1851010">
        <ele>235.8</ele>
        <time>2022-01-16T09:34:02Z</time>
      </trkpt>
      <trkpt lat="43.3583780" lon="-3.1851200">
        <ele>236.0</ele>
        <time>2022-01-16T09:34:03Z</time>
      </trkpt>
      <trkpt lat="43.3583990" lon="-3.1851370">
        <ele>236.4</ele>
        <time>2022-01-16T09:34:04Z</time>
      </trkpt>
      <trkpt lat="43.3584200" lon="-3.1851530">
        <ele>236.6</ele>
        <time>2022-01-16T09:34:05Z</time>
      </trkpt>
      <trkpt lat="43.3584400" lon="-3.1851690">
        <ele>236.8</ele>
        <time>2022-01-16T09:34:06Z</time>
      </trkpt>
      <trkpt lat="43.3584610" lon="-3.1851850">
        <ele>237.2</ele>
        <time>2022-01-16T09:34:07Z</time>
      </trkpt>
      <trkpt lat="43.3584820" lon="-3.1852030">
        <ele>237.6</ele>
        <time>2022-01-16T09:34:08Z</time>
      </trkpt>
      <trkpt lat="43.3585020" lon="-3.1852220">
        <ele>237.8</ele>
        <time>2022-01-16T09:34:09Z</time>
      </trkpt>
      <trkpt lat="43.3585230" lon="-3.1852410">
        <ele>238.0</ele>
        <time>2022-01-16T09:34:10Z</time>
      </trkpt>
      <trkpt lat="43.3585430" lon="-3.1852590">
        <ele>238.4</ele>
        <time>2022-01-16T09:34:11Z</time>
      </trkpt>
      <trkpt lat="43.3585630" lon="-3.1852790">
        <ele>238.8</ele>
        <time>2022-01-16T09:34:12Z</time>
      </trkpt>
      <trkpt lat="43.3585830" lon="-3.1852980">
        <ele>238.8</ele>
        <time>2022-01-16T09:34:13Z</time>
      </trkpt>
      <trkpt lat="43.3586040" lon="-3.1853170">
        <ele>239.2</ele>
        <time>2022-01-16T09:34:14Z</time>
      </trkpt>
      <trkpt lat="43.3586250" lon="-3.1853360">
        <ele>239.4</ele>
        <time>2022-01-16T09:34:15Z</time>
      </trkpt>
      <trkpt lat="43.3586470" lon="-3.1853530">
        <ele>239.6</ele>
        <time>2022-01-16T09:34:16Z</time>
      </trkpt>
      <trkpt lat="43.3586690" lon="-3.1853690">
        <ele>240.0</ele>
        <time>2022-01-16T09:34:17Z</time>
      </trkpt>
      <trkpt lat="43.3586910" lon="-3.1853880">
        <ele>240.2</ele>
        <time>2022-01-16T09:34:18Z</time>
      </trkpt>
      <trkpt lat="43.3587130" lon="-3.1854070">
        <ele>240.4</ele>
        <time>2022-01-16T09:34:19Z</time>
      </trkpt>
      <trkpt lat="43.3587340" lon="-3.1854270">
        <ele>240.8</ele>
        <time>2022-01-16T09:34:20Z</time>
      </trkpt>
      <trkpt lat="43.3587550" lon="-3.1854490">
        <ele>241.0</ele>
        <time>2022-01-16T09:34:21Z</time>
      </trkpt>
      <trkpt lat="43.3587760" lon="-3.1854720">
        <ele>241.2</ele>
        <time>2022-01-16T09:34:22Z</time>
      </trkpt>
      <trkpt lat="43.3587970" lon="-3.1854950">
        <ele>241.4</ele>
        <time>2022-01-16T09:34:23Z</time>
      </trkpt>
      <trkpt lat="43.3588180" lon="-3.1855190">
        <ele>241.6</ele>
        <time>2022-01-16T09:34:24Z</time>
      </trkpt>
      <trkpt lat="43.3588390" lon="-3.1855430">
        <ele>242.0</ele>
        <time>2022-01-16T09:34:25Z</time>
      </trkpt>
      <trkpt lat="43.3588610" lon="-3.1855670">
        <ele>242.0</ele>
        <time>2022-01-16T09:34:26Z</time>
      </trkpt>
      <trkpt lat="43.3588840" lon="-3.1855890">
        <ele>242.2</ele>
        <time>2022-01-16T09:34:27Z</time>
      </trkpt>
      <trkpt lat="43.3589060" lon="-3.1856130">
        <ele>242.4</ele>
        <time>2022-01-16T09:34:28Z</time>
      </trkpt>
      <trkpt lat="43.3589280" lon="-3.1856390">
        <ele>242.4</ele>
        <time>2022-01-16T09:34:29Z</time>
      </trkpt>
      <trkpt lat="43.3589520" lon="-3.1856600">
        <ele>242.8</ele>
        <time>2022-01-16T09:34:30Z</time>
      </trkpt>
      <trkpt lat="43.3589750" lon="-3.1856860">
        <ele>242.8</ele>
        <time>2022-01-16T09:34:31Z</time>
      </trkpt>
      <trkpt lat="43.3589980" lon="-3.1857130">
        <ele>243.0</ele>
        <time>2022-01-16T09:34:32Z</time>
      </trkpt>
      <trkpt lat="43.3590200" lon="-3.1857400">
        <ele>243.2</ele>
        <time>2022-01-16T09:34:33Z</time>
      </trkpt>
      <trkpt lat="43.3590440" lon="-3.1857690">
        <ele>243.4</ele>
        <time>2022-01-16T09:34:34Z</time>
      </trkpt>
      <trkpt lat="43.3590680" lon="-3.1857980">
        <ele>243.6</ele>
        <time>2022-01-16T09:34:35Z</time>
      </trkpt>
      <trkpt lat="43.3590930" lon="-3.1858260">
        <ele>243.6</ele>
        <time>2022-01-16T09:34:36Z</time>
      </trkpt>
      <trkpt lat="43.3591180" lon="-3.1858520">
        <ele>243.6</ele>
        <time>2022-01-16T09:34:37Z</time>
      </trkpt>
      <trkpt lat="43.3591450" lon="-3.1858770">
        <ele>243.6</ele>
        <time>2022-01-16T09:34:38Z</time>
      </trkpt>
      <trkpt lat="43.3591730" lon="-3.1859070">
        <ele>243.6</ele>
        <time>2022-01-16T09:34:39Z</time>
      </trkpt>
      <trkpt lat="43.3592030" lon="-3.1859390">
        <ele>243.6</ele>
        <time>2022-01-16T09:34:40Z</time>
      </trkpt>
      <trkpt lat="43.3592350" lon="-3.1859720">
        <ele>243.6</ele>
        <time>2022-01-16T09:34:41Z</time>
      </trkpt>
      <trkpt lat="43.3592660" lon="-3.1860050">
        <ele>243.6</ele>
        <time>2022-01-16T09:34:42Z</time>
      </trkpt>
      <trkpt lat="43.3592980" lon="-3.1860390">
        <ele>243.4</ele>
        <time>2022-01-16T09:34:43Z</time>
      </trkpt>
      <trkpt lat="43.3593300" lon="-3.1860760">
        <ele>243.4</ele>
        <time>2022-01-16T09:34:44Z</time>
      </trkpt>
      <trkpt lat="43.3593610" lon="-3.1861110">
        <ele>243.0</ele>
        <time>2022-01-16T09:34:45Z</time>
      </trkpt>
      <trkpt lat="43.3593860" lon="-3.1861370">
        <ele>243.0</ele>
        <time>2022-01-16T09:34:46Z</time>
      </trkpt>
      <trkpt lat="43.3594030" lon="-3.1861570">
        <ele>242.8</ele>
        <time>2022-01-16T09:34:47Z</time>
      </trkpt>
      <trkpt lat="43.3594150" lon="-3.1861690">
        <ele>242.8</ele>
        <time>2022-01-16T09:34:48Z</time>
      </trkpt>
      <trkpt lat="43.3594230" lon="-3.1861810">
        <ele>242.6</ele>
        <time>2022-01-16T09:34:49Z</time>
      </trkpt>
      <trkpt lat="43.3594330" lon="-3.1861960">
        <ele>242.6</ele>
        <time>2022-01-16T09:34:50Z</time>
      </trkpt>
      <trkpt lat="43.3594450" lon="-3.1862180">
        <ele>242.4</ele>
        <time>2022-01-16T09:34:51Z</time>
      </trkpt>
      <trkpt lat="43.3594620" lon="-3.1862380">
        <ele>242.4</ele>
        <time>2022-01-16T09:34:52Z</time>
      </trkpt>
      <trkpt lat="43.3594840" lon="-3.1862620">
        <ele>242.2</ele>
        <time>2022-01-16T09:34:53Z</time>
      </trkpt>
      <trkpt lat="43.3595100" lon="-3.1862910">
        <ele>242.0</ele>
        <time>2022-01-16T09:34:54Z</time>
      </trkpt>
      <trkpt lat="43.3595420" lon="-3.1863220">
        <ele>242.0</ele>
        <time>2022-01-16T09:34:55Z</time>
      </trkpt>
      <trkpt lat="43.3595760" lon="-3.1863610">
        <ele>241.6</ele>
        <time>2022-01-16T09:34:56Z</time>
      </trkpt>
      <trkpt lat="43.3596120" lon="-3.1864090">
        <ele>241.0</ele>
        <time>2022-01-16T09:34:57Z</time>
      </trkpt>
      <trkpt lat="43.3596540" lon="-3.1864580">
        <ele>240.8</ele>
        <time>2022-01-16T09:34:58Z</time>
      </trkpt>
      <trkpt lat="43.3597000" lon="-3.1865170">
        <ele>240.6</ele>
        <time>2022-01-16T09:34:59Z</time>
      </trkpt>
      <trkpt lat="43.3597480" lon="-3.1865860">
        <ele>240.0</ele>
        <time>2022-01-16T09:35:00Z</time>
      </trkpt>
      <trkpt lat="43.3597970" lon="-3.1866660">
        <ele>239.4</ele>
        <time>2022-01-16T09:35:01Z</time>
      </trkpt>
      <trkpt lat="43.3598460" lon="-3.1867540">
        <ele>238.6</ele>
        <time>2022-01-16T09:35:02Z</time>
      </trkpt>
      <trkpt lat="43.3598920" lon="-3.1868550">
        <ele>238.0</ele>
        <time>2022-01-16T09:35:03Z</time>
      </trkpt>
      <trkpt lat="43.3599340" lon="-3.1869670">
        <ele>237.2</ele>
        <time>2022-01-16T09:35:04Z</time>
      </trkpt>
      <trkpt lat="43.3599750" lon="-3.1870870">
        <ele>235.8</ele>
        <time>2022-01-16T09:35:05Z</time>
      </trkpt>
      <trkpt lat="43.3600100" lon="-3.1872150">
        <ele>234.8</ele>
        <time>2022-01-16T09:35:06Z</time>
      </trkpt>
      <trkpt lat="43.3600350" lon="-3.1873430">
        <ele>233.6</ele>
        <time>2022-01-16T09:35:07Z</time>
      </trkpt>
      <trkpt lat="43.3600510" lon="-3.1874690">
        <ele>232.4</ele>
        <time>2022-01-16T09:35:08Z</time>
      </trkpt>
      <trkpt lat="43.3600590" lon="-3.1875990">
        <ele>231.6</ele>
        <time>2022-01-16T09:35:09Z</time>
      </trkpt>
      <trkpt lat="43.3600620" lon="-3.1877270">
        <ele>230.6</ele>
        <time>2022-01-16T09:35:10Z</time>
      </trkpt>
      <trkpt lat="43.3600630" lon="-3.1878450">
        <ele>229.6</ele>
        <time>2022-01-16T09:35:11Z</time>
      </trkpt>
      <trkpt lat="43.3600670" lon="-3.1879550">
        <ele>228.6</ele>
        <time>2022-01-16T09:35:12Z</time>
      </trkpt>
      <trkpt lat="43.3600920" lon="-3.1880560">
        <ele>227.2</ele>
        <time>2022-01-16T09:35:13Z</time>
      </trkpt>
      <trkpt lat="43.3601390" lon="-3.1881500">
        <ele>226.0</ele>
        <time>2022-01-16T09:35:14Z</time>
      </trkpt>
      <trkpt lat="43.3602050" lon="-3.1882280">
        <ele>224.8</ele>
        <time>2022-01-16T09:35:15Z</time>
      </trkpt>
      <trkpt lat="43.3602870" lon="-3.1882890">
        <ele>223.6</ele>
        <time>2022-01-16T09:35:16Z</time>
      </trkpt>
      <trkpt lat="43.3603800" lon="-3.1883370">
        <ele>222.6</ele>
        <time>2022-01-16T09:35:17Z</time>
      </trkpt>
      <trkpt lat="43.3604730" lon="-3.1883960">
        <ele>222.0</ele>
        <time>2022-01-16T09:35:18Z</time>
      </trkpt>
      <trkpt lat="43.3605600" lon="-3.1884820">
        <ele>220.8</ele>
        <time>2022-01-16T09:35:19Z</time>
      </trkpt>
      <trkpt lat="43.3606420" lon="-3.1885870">
        <ele>219.6</ele>
        <time>2022-01-16T09:35:20Z</time>
      </trkpt>
      <trkpt lat="43.3607220" lon="-3.1886970">
        <ele>218.8</ele>
        <time>2022-01-16T09:35:21Z</time>
      </trkpt>
      <trkpt lat="43.3607970" lon="-3.1888030">
        <ele>218.2</ele>
        <time>2022-01-16T09:35:22Z</time>
      </trkpt>
      <trkpt lat="43.3608640" lon="-3.1888990">
        <ele>216.2</ele>
        <time>2022-01-16T09:35:23Z</time>
      </trkpt>
      <trkpt lat="43.3609280" lon="-3.1889820">
        <ele>215.0</ele>
        <time>2022-01-16T09:35:24Z</time>
      </trkpt>
      <trkpt lat="43.3609990" lon="-3.1890420">
        <ele>214.0</ele>
        <time>2022-01-16T09:35:25Z</time>
      </trkpt>
      <trkpt lat="43.3610790" lon="-3.1890630">
        <ele>213.0</ele>
        <time>2022-01-16T09:35:26Z</time>
      </trkpt>
      <trkpt lat="43.3611650" lon="-3.1890440">
        <ele>211.8</ele>
        <time>2022-01-16T09:35:27Z</time>
      </trkpt>
      <trkpt lat="43.3612380" lon="-3.1889860">
        <ele>210.2</ele>
        <time>2022-01-16T09:35:28Z</time>
      </trkpt>
      <trkpt lat="43.3612800" lon="-3.1888960">
        <ele>209.2</ele>
        <time>2022-01-16T09:35:29Z</time>
      </trkpt>
      <trkpt lat="43.3612860" lon="-3.1887820">
        <ele>208.2</ele>
        <time>2022-01-16T09:35:30Z</time>
      </trkpt>
      <trkpt lat="43.3612520" lon="-3.1886670">
        <ele>207.0</ele>
        <time>2022-01-16T09:35:31Z</time>
      </trkpt>
      <trkpt lat="43.3611920" lon="-3.1885720">
        <ele>205.4</ele>
        <time>2022-01-16T09:35:32Z</time>
      </trkpt>
      <trkpt lat="43.3611070" lon="-3.1884990">
        <ele>204.4</ele>
        <time>2022-01-16T09:35:33Z</time>
      </trkpt>
      <trkpt lat="43.3610270" lon="-3.1884220">
        <ele>203.6</ele>
        <time>2022-01-16T09:35:34Z</time>
      </trkpt>
      <trkpt lat="43.3609680" lon="-3.1883240">
        <ele>203.0</ele>
        <time>2022-01-16T09:35:35Z</time>
      </trkpt>
      <trkpt lat="43.3609330" lon="-3.1882120">
        <ele>202.4</ele>
        <time>2022-01-16T09:35:36Z</time>
      </trkpt>
      <trkpt lat="43.3609200" lon="-3.1880900">
        <ele>201.6</ele>
        <time>2022-01-16T09:35:37Z</time>
      </trkpt>
      <trkpt lat="43.3609360" lon="-3.1879670">
        <ele>200.6</ele>
        <time>2022-01-16T09:35:38Z</time>
      </trkpt>
      <trkpt lat="43.3609800" lon="-3.1878500">
        <ele>199.0</ele>
        <time>2022-01-16T09:35:39Z</time>
      </trkpt>
      <trkpt lat="43.3610440" lon="-3.1877420">
        <ele>197.2</ele>
        <time>2022-01-16T09:35:40Z</time>
      </trkpt>
      <trkpt lat="43.3611170" lon="-3.1876360">
        <ele>196.2</ele>
        <time>2022-01-16T09:35:41Z</time>
      </trkpt>
      <trkpt lat="43.3611920" lon="-3.1875290">
        <ele>195.0</ele>
        <time>2022-01-16T09:35:42Z</time>
      </trkpt>
      <trkpt lat="43.3612630" lon="-3.1874180">
        <ele>194.4</ele>
        <time>2022-01-16T09:35:43Z</time>
      </trkpt>
      <trkpt lat="43.3613390" lon="-3.1873070">
        <ele>193.8</ele>
        <time>2022-01-16T09:35:44Z</time>
      </trkpt>
      <trkpt lat="43.3614170" lon="-3.1871980">
        <ele>193.0</ele>
        <time>2022-01-16T09:35:45Z</time>
      </trkpt>
      <trkpt lat="43.3614960" lon="-3.1870870">
        <ele>192.6</ele>
        <time>2022-01-16T09:35:46Z</time>
      </trkpt>
      <trkpt lat="43.3615750" lon="-3.1869810">
        <ele>192.2</ele>
        <time>2022-01-16T09:35:47Z</time>
      </trkpt>
      <trkpt lat="43.3616530" lon="-3.1868760">
        <ele>191.8</ele>
        <time>2022-01-16T09:35:48Z</time>
      </trkpt>
      <trkpt lat="43.3617310" lon="-3.1867710">
        <ele>190.6</ele>
        <time>2022-01-16T09:35:49Z</time>
      </trkpt>
      <trkpt lat="43.3618100" lon="-3.1866680">
        <ele>189.6</ele>
        <time>2022-01-16T09:35:50Z</time>
      </trkpt>
      <trkpt lat="43.3618900" lon="-3.1865640">
        <ele>188.8</ele>
        <time>2022-01-16T09:35:51Z</time>
      </trkpt>
      <trkpt lat="43.3619700" lon="-3.1864570">
        <ele>188.2</ele>
        <time>2022-01-16T09:35:52Z</time>
      </trkpt>
      <trkpt lat="43.3620470" lon="-3.1863480">
        <ele>187.8</ele>
        <time>2022-01-16T09:35:53Z</time>
      </trkpt>
      <trkpt lat="43.3621220" lon="-3.1862400">
        <ele>187.4</ele>
        <time>2022-01-16T09:35:54Z</time>
      </trkpt>
      <trkpt lat="43.3621980" lon="-3.1861350">
        <ele>187.0</ele>
        <time>2022-01-16T09:35:55Z</time>
      </trkpt>
      <trkpt lat="43.3622760" lon="-3.1860360">
        <ele>186.6</ele>
        <time>2022-01-16T09:35:56Z</time>
      </trkpt>
      <trkpt lat="43.3623530" lon="-3.1859560">
        <ele>186.2</ele>
        <time>2022-01-16T09:35:57Z</time>
      </trkpt>
      <trkpt lat="43.3624320" lon="-3.1859220">
        <ele>185.8</ele>
        <time>2022-01-16T09:35:58Z</time>
      </trkpt>
      <trkpt lat="43.3625050" lon="-3.1859480">
        <ele>185.6</ele>
        <time>2022-01-16T09:35:59Z</time>
      </trkpt>
      <trkpt lat="43.3625550" lon="-3.1860190">
        <ele>185.2</ele>
        <time>2022-01-16T09:36:00Z</time>
      </trkpt>
      <trkpt lat="43.3625870" lon="-3.1861110">
        <ele>184.8</ele>
        <time>2022-01-16T09:36:01Z</time>
      </trkpt>
      <trkpt lat="43.3625610" lon="-3.1862340">
        <ele>184.4</ele>
        <time>2022-01-16T09:36:02Z</time>
      </trkpt>
      <trkpt lat="43.3625190" lon="-3.1863370">
        <ele>184.0</ele>
        <time>2022-01-16T09:36:03Z</time>
      </trkpt>
      <trkpt lat="43.3624570" lon="-3.1864250">
        <ele>183.6</ele>
        <time>2022-01-16T09:36:04Z</time>
      </trkpt>
      <trkpt lat="43.3623860" lon="-3.1865060">
        <ele>183.0</ele>
        <time>2022-01-16T09:36:05Z</time>
      </trkpt>
      <trkpt lat="43.3623140" lon="-3.1865880">
        <ele>182.2</ele>
        <time>2022-01-16T09:36:06Z</time>
      </trkpt>
      <trkpt lat="43.3622410" lon="-3.1866760">
        <ele>181.2</ele>
        <time>2022-01-16T09:36:07Z</time>
      </trkpt>
      <trkpt lat="43.3621680" lon="-3.1867660">
        <ele>180.4</ele>
        <time>2022-01-16T09:36:08Z</time>
      </trkpt>
      <trkpt lat="43.3620990" lon="-3.1868650">
        <ele>179.8</ele>
        <time>2022-01-16T09:36:09Z</time>
      </trkpt>
      <trkpt lat="43.3620350" lon="-3.1869740">
        <ele>179.2</ele>
        <time>2022-01-16T09:36:10Z</time>
      </trkpt>
      <trkpt lat="43.3619740" lon="-3.1870870">
        <ele>178.8</ele>
        <time>2022-01-16T09:36:11Z</time>
      </trkpt>
      <trkpt lat="43.3619130" lon="-3.1871990">
        <ele>178.4</ele>
        <time>2022-01-16T09:36:12Z</time>
      </trkpt>
      <trkpt lat="43.3618500" lon="-3.1873090">
        <ele>177.8</ele>
        <time>2022-01-16T09:36:13Z</time>
      </trkpt>
      <trkpt lat="43.3617880" lon="-3.1874210">
        <ele>177.4</ele>
        <time>2022-01-16T09:36:14Z</time>
      </trkpt>
      <trkpt lat="43.3617280" lon="-3.1875370">
        <ele>176.8</ele>
        <time>2022-01-16T09:36:15Z</time>
      </trkpt>
      <trkpt lat="43.3616770" lon="-3.1876630">
        <ele>175.8</ele>
        <time>2022-01-16T09:36:16Z</time>
      </trkpt>
      <trkpt lat="43.3616510" lon="-3.1878050">
        <ele>175.4</ele>
        <time>2022-01-16T09:36:17Z</time>
      </trkpt>
      <trkpt lat="43.3616580" lon="-3.1879500">
        <ele>174.8</ele>
        <time>2022-01-16T09:36:18Z</time>
      </trkpt>
      <trkpt lat="43.3616940" lon="-3.1880880">
        <ele>174.0</ele>
        <time>2022-01-16T09:36:19Z</time>
      </trkpt>
      <trkpt lat="43.3617480" lon="-3.1882160">
        <ele>173.4</ele>
        <time>2022-01-16T09:36:20Z</time>
      </trkpt>
      <trkpt lat="43.3618060" lon="-3.1883380">
        <ele>172.8</ele>
        <time>2022-01-16T09:36:21Z</time>
      </trkpt>
      <trkpt lat="43.3618660" lon="-3.1884550">
        <ele>172.0</ele>
        <time>2022-01-16T09:36:22Z</time>
      </trkpt>
      <trkpt lat="43.3619280" lon="-3.1885710">
        <ele>171.4</ele>
        <time>2022-01-16T09:36:23Z</time>
      </trkpt>
      <trkpt lat="43.3619920" lon="-3.1886850">
        <ele>170.6</ele>
        <time>2022-01-16T09:36:24Z</time>
      </trkpt>
      <trkpt lat="43.3620620" lon="-3.1887910">
        <ele>170.2</ele>
        <time>2022-01-16T09:36:25Z</time>
      </trkpt>
      <trkpt lat="43.3621380" lon="-3.1888890">
        <ele>169.6</ele>
        <time>2022-01-16T09:36:26Z</time>
      </trkpt>
      <trkpt lat="43.3622170" lon="-3.1889830">
        <ele>169.2</ele>
        <time>2022-01-16T09:36:27Z</time>
      </trkpt>
      <trkpt lat="43.3623000" lon="-3.1890720">
        <ele>169.0</ele>
        <time>2022-01-16T09:36:28Z</time>
      </trkpt>
      <trkpt lat="43.3623850" lon="-3.1891620">
        <ele>168.6</ele>
        <time>2022-01-16T09:36:29Z</time>
      </trkpt>
      <trkpt lat="43.3624690" lon="-3.1892520">
        <ele>168.0</ele>
        <time>2022-01-16T09:36:30Z</time>
      </trkpt>
      <trkpt lat="43.3625540" lon="-3.1893450">
        <ele>167.0</ele>
        <time>2022-01-16T09:36:31Z</time>
      </trkpt>
      <trkpt lat="43.3626390" lon="-3.1894380">
        <ele>166.2</ele>
        <time>2022-01-16T09:36:32Z</time>
      </trkpt>
      <trkpt lat="43.3627250" lon="-3.1895300">
        <ele>165.4</ele>
        <time>2022-01-16T09:36:33Z</time>
      </trkpt>
      <trkpt lat="43.3628110" lon="-3.1896210">
        <ele>164.6</ele>
        <time>2022-01-16T09:36:34Z</time>
      </trkpt>
      <trkpt lat="43.3628960" lon="-3.1897150">
        <ele>164.2</ele>
        <time>2022-01-16T09:36:35Z</time>
      </trkpt>
      <trkpt lat="43.3629820" lon="-3.1898090">
        <ele>163.6</ele>
        <time>2022-01-16T09:36:36Z</time>
      </trkpt>
      <trkpt lat="43.3630690" lon="-3.1899010">
        <ele>163.0</ele>
        <time>2022-01-16T09:36:37Z</time>
      </trkpt>
      <trkpt lat="43.3631570" lon="-3.1899930">
        <ele>162.6</ele>
        <time>2022-01-16T09:36:38Z</time>
      </trkpt>
      <trkpt lat="43.3632450" lon="-3.1900840">
        <ele>161.6</ele>
        <time>2022-01-16T09:36:39Z</time>
      </trkpt>
      <trkpt lat="43.3633340" lon="-3.1901710">
        <ele>161.0</ele>
        <time>2022-01-16T09:36:40Z</time>
      </trkpt>
      <trkpt lat="43.3634220" lon="-3.1902560">
        <ele>160.6</ele>
        <time>2022-01-16T09:36:41Z</time>
      </trkpt>
      <trkpt lat="43.3635060" lon="-3.1903390">
        <ele>160.0</ele>
        <time>2022-01-16T09:36:42Z</time>
      </trkpt>
      <trkpt lat="43.3635750" lon="-3.1904300">
        <ele>159.2</ele>
        <time>2022-01-16T09:36:43Z</time>
      </trkpt>
      <trkpt lat="43.3636190" lon="-3.1905430">
        <ele>158.6</ele>
        <time>2022-01-16T09:36:44Z</time>
      </trkpt>
      <trkpt lat="43.3636250" lon="-3.1906720">
        <ele>158.0</ele>
        <time>2022-01-16T09:36:45Z</time>
      </trkpt>
      <trkpt lat="43.3635920" lon="-3.1907980">
        <ele>157.4</ele>
        <time>2022-01-16T09:36:46Z</time>
      </trkpt>
      <trkpt lat="43.3635330" lon="-3.1909090">
        <ele>156.8</ele>
        <time>2022-01-16T09:36:47Z</time>
      </trkpt>
      <trkpt lat="43.3634600" lon="-3.1910050">
        <ele>156.0</ele>
        <time>2022-01-16T09:36:48Z</time>
      </trkpt>
      <trkpt lat="43.3633810" lon="-3.1911000">
        <ele>155.0</ele>
        <time>2022-01-16T09:36:49Z</time>
      </trkpt>
      <trkpt lat="43.3633030" lon="-3.1912010">
        <ele>154.6</ele>
        <time>2022-01-16T09:36:50Z</time>
      </trkpt>
      <trkpt lat="43.3632280" lon="-3.1913040">
        <ele>153.6</ele>
        <time>2022-01-16T09:36:51Z</time>
      </trkpt>
      <trkpt lat="43.3631560" lon="-3.1914130">
        <ele>153.0</ele>
        <time>2022-01-16T09:36:52Z</time>
      </trkpt>
      <trkpt lat="43.3630830" lon="-3.1915220">
        <ele>152.2</ele>
        <time>2022-01-16T09:36:53Z</time>
      </trkpt>
      <trkpt lat="43.3630050" lon="-3.1916260">
        <ele>151.2</ele>
        <time>2022-01-16T09:36:54Z</time>
      </trkpt>
      <trkpt lat="43.3629170" lon="-3.1917180">
        <ele>151.0</ele>
        <time>2022-01-16T09:36:55Z</time>
      </trkpt>
      <trkpt lat="43.3628220" lon="-3.1917980">
        <ele>150.2</ele>
        <time>2022-01-16T09:36:56Z</time>
      </trkpt>
      <trkpt lat="43.3627270" lon="-3.1918780">
        <ele>149.8</ele>
        <time>2022-01-16T09:36:57Z</time>
      </trkpt>
      <trkpt lat="43.3626320" lon="-3.1919620">
        <ele>149.2</ele>
        <time>2022-01-16T09:36:58Z</time>
      </trkpt>
      <trkpt lat="43.3625360" lon="-3.1920450">
        <ele>148.6</ele>
        <time>2022-01-16T09:36:59Z</time>
      </trkpt>
      <trkpt lat="43.3624380" lon="-3.1921280">
        <ele>147.6</ele>
        <time>2022-01-16T09:37:00Z</time>
      </trkpt>
      <trkpt lat="43.3623430" lon="-3.1922160">
        <ele>146.8</ele>
        <time>2022-01-16T09:37:01Z</time>
      </trkpt>
      <trkpt lat="43.3622520" lon="-3.1923090">
        <ele>146.0</ele>
        <time>2022-01-16T09:37:02Z</time>
      </trkpt>
      <trkpt lat="43.3621660" lon="-3.1924130">
        <ele>145.4</ele>
        <time>2022-01-16T09:37:03Z</time>
      </trkpt>
      <trkpt lat="43.3620840" lon="-3.1925240">
        <ele>144.6</ele>
        <time>2022-01-16T09:37:04Z</time>
      </trkpt>
      <trkpt lat="43.3620050" lon="-3.1926390">
        <ele>144.4</ele>
        <time>2022-01-16T09:37:05Z</time>
      </trkpt>
      <trkpt lat="43.3619290" lon="-3.1927590">
        <ele>143.4</ele>
        <time>2022-01-16T09:37:06Z</time>
      </trkpt>
      <trkpt lat="43.3618560" lon="-3.1928810">
        <ele>142.8</ele>
        <time>2022-01-16T09:37:07Z</time>
      </trkpt>
      <trkpt lat="43.3617840" lon="-3.1930050">
        <ele>142.2</ele>
        <time>2022-01-16T09:37:08Z</time>
      </trkpt>
      <trkpt lat="43.3617150" lon="-3.1931310">
        <ele>141.4</ele>
        <time>2022-01-16T09:37:09Z</time>
      </trkpt>
      <trkpt lat="43.3616460" lon="-3.1932570">
        <ele>140.6</ele>
        <time>2022-01-16T09:37:10Z</time>
      </trkpt>
      <trkpt lat="43.3615770" lon="-3.1933840">
        <ele>139.8</ele>
        <time>2022-01-16T09:37:11Z</time>
      </trkpt>
      <trkpt lat="43.3615090" lon="-3.1935120">
        <ele>139.2</ele>
        <time>2022-01-16T09:37:12Z</time>
      </trkpt>
      <trkpt lat="43.3614410" lon="-3.1936410">
        <ele>138.6</ele>
        <time>2022-01-16T09:37:13Z</time>
      </trkpt>
      <trkpt lat="43.3613740" lon="-3.1937720">
        <ele>137.8</ele>
        <time>2022-01-16T09:37:14Z</time>
      </trkpt>
      <trkpt lat="43.3613120" lon="-3.1939070">
        <ele>136.8</ele>
        <time>2022-01-16T09:37:15Z</time>
      </trkpt>
      <trkpt lat="43.3612580" lon="-3.1940480">
        <ele>135.4</ele>
        <time>2022-01-16T09:37:16Z</time>
      </trkpt>
      <trkpt lat="43.3612110" lon="-3.1941920">
        <ele>134.4</ele>
        <time>2022-01-16T09:37:17Z</time>
      </trkpt>
      <trkpt lat="43.3611610" lon="-3.1943320">
        <ele>133.8</ele>
        <time>2022-01-16T09:37:18Z</time>
      </trkpt>
      <trkpt lat="43.3611000" lon="-3.1944630">
        <ele>133.2</ele>
        <time>2022-01-16T09:37:19Z</time>
      </trkpt>
      <trkpt lat="43.3610260" lon="-3.1945810">
        <ele>132.6</ele>
        <time>2022-01-16T09:37:20Z</time>
      </trkpt>
      <trkpt lat="43.3609460" lon="-3.1946900">
        <ele>131.8</ele>
        <time>2022-01-16T09:37:21Z</time>
      </trkpt>
      <trkpt lat="43.3608600" lon="-3.1947960">
        <ele>131.2</ele>
        <time>2022-01-16T09:37:22Z</time>
      </trkpt>
      <trkpt lat="43.3607750" lon="-3.1949010">
        <ele>130.8</ele>
        <time>2022-01-16T09:37:23Z</time>
      </trkpt>
      <trkpt lat="43.3606890" lon="-3.1950070">
        <ele>130.4</ele>
        <time>2022-01-16T09:37:24Z</time>
      </trkpt>
      <trkpt lat="43.3606030" lon="-3.1951100">
        <ele>129.6</ele>
        <time>2022-01-16T09:37:25Z</time>
      </trkpt>
      <trkpt lat="43.3605160" lon="-3.1952110">
        <ele>128.8</ele>
        <time>2022-01-16T09:37:26Z</time>
      </trkpt>
      <trkpt lat="43.3604280" lon="-3.1953090">
        <ele>128.2</ele>
        <time>2022-01-16T09:37:27Z</time>
      </trkpt>
      <trkpt lat="43.3603380" lon="-3.1954010">
        <ele>127.4</ele>
        <time>2022-01-16T09:37:28Z</time>
      </trkpt>
      <trkpt lat="43.3602450" lon="-3.1954890">
        <ele>126.8</ele>
        <time>2022-01-16T09:37:29Z</time>
      </trkpt>
      <trkpt lat="43.3601510" lon="-3.1955750">
        <ele>126.2</ele>
        <time>2022-01-16T09:37:30Z</time>
      </trkpt>
      <trkpt lat="43.3600570" lon="-3.1956620">
        <ele>125.6</ele>
        <time>2022-01-16T09:37:31Z</time>
      </trkpt>
      <trkpt lat="43.3599650" lon="-3.1957470">
        <ele>125.0</ele>
        <time>2022-01-16T09:37:32Z</time>
      </trkpt>
      <trkpt lat="43.3598760" lon="-3.1958390">
        <ele>124.2</ele>
        <time>2022-01-16T09:37:33Z</time>
      </trkpt>
      <trkpt lat="43.3597920" lon="-3.1959390">
        <ele>123.6</ele>
        <time>2022-01-16T09:37:34Z</time>
      </trkpt>
      <trkpt lat="43.3597110" lon="-3.1960400">
        <ele>122.6</ele>
        <time>2022-01-16T09:37:35Z</time>
      </trkpt>
      <trkpt lat="43.3596280" lon="-3.1961400">
        <ele>121.8</ele>
        <time>2022-01-16T09:37:36Z</time>
      </trkpt>
      <trkpt lat="43.3595390" lon="-3.1962260">
        <ele>121.2</ele>
        <time>2022-01-16T09:37:37Z</time>
      </trkpt>
      <trkpt lat="43.3594500" lon="-3.1962960">
        <ele>120.6</ele>
        <time>2022-01-16T09:37:38Z</time>
      </trkpt>
      <trkpt lat="43.3593630" lon="-3.1963630">
        <ele>120.0</ele>
        <time>2022-01-16T09:37:39Z</time>
      </trkpt>
      <trkpt lat="43.3592920" lon="-3.1964470">
        <ele>119.4</ele>
        <time>2022-01-16T09:37:40Z</time>
      </trkpt>
      <trkpt lat="43.3592450" lon="-3.1965600">
        <ele>118.8</ele>
        <time>2022-01-16T09:37:41Z</time>
      </trkpt>
      <trkpt lat="43.3592340" lon="-3.1966850">
        <ele>118.0</ele>
        <time>2022-01-16T09:37:42Z</time>
      </trkpt>
      <trkpt lat="43.3592610" lon="-3.1968000">
        <ele>117.4</ele>
        <time>2022-01-16T09:37:43Z</time>
      </trkpt>
      <trkpt lat="43.3593320" lon="-3.1968940">
        <ele>116.4</ele>
        <time>2022-01-16T09:37:44Z</time>
      </trkpt>
      <trkpt lat="43.3594140" lon="-3.1969400">
        <ele>115.8</ele>
        <time>2022-01-16T09:37:45Z</time>
      </trkpt>
      <trkpt lat="43.3595080" lon="-3.1969560">
        <ele>115.2</ele>
        <time>2022-01-16T09:37:46Z</time>
      </trkpt>
      <trkpt lat="43.3596070" lon="-3.1969660">
        <ele>114.8</ele>
        <time>2022-01-16T09:37:47Z</time>
      </trkpt>
      <trkpt lat="43.3597080" lon="-3.1969850">
        <ele>114.2</ele>
        <time>2022-01-16T09:37:48Z</time>
      </trkpt>
      <trkpt lat="43.3598120" lon="-3.1970110">
        <ele>113.8</ele>
        <time>2022-01-16T09:37:49Z</time>
      </trkpt>
      <trkpt lat="43.3599170" lon="-3.1970370">
        <ele>113.2</ele>
        <time>2022-01-16T09:37:50Z</time>
      </trkpt>
      <trkpt lat="43.3600220" lon="-3.1970680">
        <ele>112.8</ele>
        <time>2022-01-16T09:37:51Z</time>
      </trkpt>
      <trkpt lat="43.3601300" lon="-3.1971000">
        <ele>111.8</ele>
        <time>2022-01-16T09:37:52Z</time>
      </trkpt>
      <trkpt lat="43.3602380" lon="-3.1971260">
        <ele>111.0</ele>
        <time>2022-01-16T09:37:53Z</time>
      </trkpt>
      <trkpt lat="43.3603460" lon="-3.1971560">
        <ele>110.2</ele>
        <time>2022-01-16T09:37:54Z</time>
      </trkpt>
      <trkpt lat="43.3604490" lon="-3.1972010">
        <ele>109.6</ele>
        <time>2022-01-16T09:37:55Z</time>
      </trkpt>
      <trkpt lat="43.3605470" lon="-3.1972730">
        <ele>108.6</ele>
        <time>2022-01-16T09:37:56Z</time>
      </trkpt>
      <trkpt lat="43.3606210" lon="-3.1973720">
        <ele>107.8</ele>
        <time>2022-01-16T09:37:57Z</time>
      </trkpt>
      <trkpt lat="43.3606770" lon="-3.1974930">
        <ele>107.0</ele>
        <time>2022-01-16T09:37:58Z</time>
      </trkpt>
      <trkpt lat="43.3607110" lon="-3.1976280">
        <ele>106.6</ele>
        <time>2022-01-16T09:37:59Z</time>
      </trkpt>
      <trkpt lat="43.3607280" lon="-3.1977700">
        <ele>106.0</ele>
        <time>2022-01-16T09:38:00Z</time>
      </trkpt>
      <trkpt lat="43.3607400" lon="-3.1979060">
        <ele>105.2</ele>
        <time>2022-01-16T09:38:01Z</time>
      </trkpt>
      <trkpt lat="43.3607580" lon="-3.1980420">
        <ele>104.6</ele>
        <time>2022-01-16T09:38:02Z</time>
      </trkpt>
      <trkpt lat="43.3607700" lon="-3.1981880">
        <ele>104.0</ele>
        <time>2022-01-16T09:38:03Z</time>
      </trkpt>
      <trkpt lat="43.3607830" lon="-3.1983360">
        <ele>103.4</ele>
        <time>2022-01-16T09:38:04Z</time>
      </trkpt>
      <trkpt lat="43.3608000" lon="-3.1984790">
        <ele>102.6</ele>
        <time>2022-01-16T09:38:05Z</time>
      </trkpt>
      <trkpt lat="43.3608210" lon="-3.1986200">
        <ele>102.0</ele>
        <time>2022-01-16T09:38:06Z</time>
      </trkpt>
      <trkpt lat="43.3608400" lon="-3.1987690">
        <ele>101.4</ele>
        <time>2022-01-16T09:38:07Z</time>
      </trkpt>
      <trkpt lat="43.3608490" lon="-3.1989210">
        <ele>100.8</ele>
        <time>2022-01-16T09:38:08Z</time>
      </trkpt>
      <trkpt lat="43.3608360" lon="-3.1990870">
        <ele>100.2</ele>
        <time>2022-01-16T09:38:09Z</time>
      </trkpt>
      <trkpt lat="43.3608090" lon="-3.1992470">
        <ele>98.6</ele>
        <time>2022-01-16T09:38:10Z</time>
      </trkpt>
      <trkpt lat="43.3607570" lon="-3.1993850">
        <ele>97.8</ele>
        <time>2022-01-16T09:38:11Z</time>
      </trkpt>
      <trkpt lat="43.3606810" lon="-3.1995180">
        <ele>97.0</ele>
        <time>2022-01-16T09:38:12Z</time>
      </trkpt>
      <trkpt lat="43.3605960" lon="-3.1996340">
        <ele>96.6</ele>
        <time>2022-01-16T09:38:13Z</time>
      </trkpt>
      <trkpt lat="43.3605050" lon="-3.1997330">
        <ele>96.2</ele>
        <time>2022-01-16T09:38:14Z</time>
      </trkpt>
      <trkpt lat="43.3604080" lon="-3.1998210">
        <ele>95.6</ele>
        <time>2022-01-16T09:38:15Z</time>
      </trkpt>
      <trkpt lat="43.3603080" lon="-3.1998950">
        <ele>95.0</ele>
        <time>2022-01-16T09:38:16Z</time>
      </trkpt>
      <trkpt lat="43.3602050" lon="-3.1999540">
        <ele>94.4</ele>
        <time>2022-01-16T09:38:17Z</time>
      </trkpt>
      <trkpt lat="43.3600990" lon="-3.1999980">
        <ele>93.6</ele>
        <time>2022-01-16T09:38:18Z</time>
      </trkpt>
      <trkpt lat="43.3599930" lon="-3.2000470">
        <ele>92.8</ele>
        <time>2022-01-16T09:38:19Z</time>
      </trkpt>
      <trkpt lat="43.3598880" lon="-3.2001090">
        <ele>92.2</ele>
        <time>2022-01-16T09:38:20Z</time>
      </trkpt>
      <trkpt lat="43.3597900" lon="-3.2001880">
        <ele>91.6</ele>
        <time>2022-01-16T09:38:21Z</time>
      </trkpt>
      <trkpt lat="43.3596940" lon="-3.2002700">
        <ele>91.0</ele>
        <time>2022-01-16T09:38:22Z</time>
      </trkpt>
      <trkpt lat="43.3595970" lon="-3.2003460">
        <ele>90.2</ele>
        <time>2022-01-16T09:38:23Z</time>
      </trkpt>
      <trkpt lat="43.3595020" lon="-3.2004170">
        <ele>89.6</ele>
        <time>2022-01-16T09:38:24Z</time>
      </trkpt>
      <trkpt lat="43.3594050" lon="-3.2004910">
        <ele>88.8</ele>
        <time>2022-01-16T09:38:25Z</time>
      </trkpt>
      <trkpt lat="43.3593060" lon="-3.2005610">
        <ele>88.0</ele>
        <time>2022-01-16T09:38:26Z</time>
      </trkpt>
      <trkpt lat="43.3592090" lon="-3.2006330">
        <ele>87.6</ele>
        <time>2022-01-16T09:38:27Z</time>
      </trkpt>
      <trkpt lat="43.3591140" lon="-3.2007070">
        <ele>87.2</ele>
        <time>2022-01-16T09:38:28Z</time>
      </trkpt>
      <trkpt lat="43.3590140" lon="-3.2007800">
        <ele>86.4</ele>
        <time>2022-01-16T09:38:29Z</time>
      </trkpt>
      <trkpt lat="43.3589210" lon="-3.2008450">
        <ele>86.0</ele>
        <time>2022-01-16T09:38:30Z</time>
      </trkpt>
      <trkpt lat="43.3588450" lon="-3.2009470">
        <ele>85.2</ele>
        <time>2022-01-16T09:38:31Z</time>
      </trkpt>
      <trkpt lat="43.3588010" lon="-3.2010720">
        <ele>84.8</ele>
        <time>2022-01-16T09:38:32Z</time>
      </trkpt>
      <trkpt lat="43.3587950" lon="-3.2011960">
        <ele>84.6</ele>
        <time>2022-01-16T09:38:33Z</time>
      </trkpt>
      <trkpt lat="43.3588070" lon="-3.2013170">
        <ele>84.4</ele>
        <time>2022-01-16T09:38:34Z</time>
      </trkpt>
      <trkpt lat="43.3588290" lon="-3.2014430">
        <ele>84.0</ele>
        <time>2022-01-16T09:38:35Z</time>
      </trkpt>
      <trkpt lat="43.3588590" lon="-3.2015650">
        <ele>83.8</ele>
        <time>2022-01-16T09:38:36Z</time>
      </trkpt>
      <trkpt lat="43.3588930" lon="-3.2016870">
        <ele>83.6</ele>
        <time>2022-01-16T09:38:37Z</time>
      </trkpt>
      <trkpt lat="43.3589330" lon="-3.2018030">
        <ele>83.2</ele>
        <time>2022-01-16T09:38:38Z</time>
      </trkpt>
      <trkpt lat="43.3589760" lon="-3.2019180">
        <ele>83.0</ele>
        <time>2022-01-16T09:38:39Z</time>
      </trkpt>
      <trkpt lat="43.3590230" lon="-3.2020370">
        <ele>82.6</ele>
        <time>2022-01-16T09:38:40Z</time>
      </trkpt>
      <trkpt lat="43.3590720" lon="-3.2021480">
        <ele>82.2</ele>
        <time>2022-01-16T09:38:41Z</time>
      </trkpt>
      <trkpt lat="43.3591270" lon="-3.2022520">
        <ele>82.0</ele>
        <time>2022-01-16T09:38:42Z</time>
      </trkpt>
      <trkpt lat="43.3591850" lon="-3.2023500">
        <ele>82.0</ele>
        <time>2022-01-16T09:38:43Z</time>
      </trkpt>
      <trkpt lat="43.3592450" lon="-3.2024440">
        <ele>81.8</ele>
        <time>2022-01-16T09:38:44Z</time>
      </trkpt>
      <trkpt lat="43.3593110" lon="-3.2025280">
        <ele>81.8</ele>
        <time>2022-01-16T09:38:45Z</time>
      </trkpt>
      <trkpt lat="43.3593860" lon="-3.2025830">
        <ele>82.0</ele>
        <time>2022-01-16T09:38:46Z</time>
      </trkpt>
      <trkpt lat="43.3594650" lon="-3.2026100">
        <ele>82.2</ele>
        <time>2022-01-16T09:38:47Z</time>
      </trkpt>
      <trkpt lat="43.3595450" lon="-3.2026210">
        <ele>82.6</ele>
        <time>2022-01-16T09:38:48Z</time>
      </trkpt>
      <trkpt lat="43.3596240" lon="-3.2026220">
        <ele>82.6</ele>
        <time>2022-01-16T09:38:49Z</time>
      </trkpt>
      <trkpt lat="43.3597020" lon="-3.2026160">
        <ele>83.0</ele>
        <time>2022-01-16T09:38:50Z</time>
      </trkpt>
      <trkpt lat="43.3597770" lon="-3.2026070">
        <ele>83.4</ele>
        <time>2022-01-16T09:38:51Z</time>
      </trkpt>
      <trkpt lat="43.3598510" lon="-3.2026010">
        <ele>83.6</ele>
        <time>2022-01-16T09:38:52Z</time>
      </trkpt>
      <trkpt lat="43.3599210" lon="-3.2025980">
        <ele>83.8</ele>
        <time>2022-01-16T09:38:53Z</time>
      </trkpt>
      <trkpt lat="43.3599890" lon="-3.2025940">
        <ele>84.2</ele>
        <time>2022-01-16T09:38:54Z</time>
      </trkpt>
      <trkpt lat="43.3600540" lon="-3.2025920">
        <ele>84.6</ele>
        <time>2022-01-16T09:38:55Z</time>
      </trkpt>
      <trkpt lat="43.3601160" lon="-3.2025880">
        <ele>84.8</ele>
        <time>2022-01-16T09:38:56Z</time>
      </trkpt>
      <trkpt lat="43.3601750" lon="-3.2025880">
        <ele>84.8</ele>
        <time>2022-01-16T09:38:57Z</time>
      </trkpt>
      <trkpt lat="43.3602320" lon="-3.2025920">
        <ele>85.2</ele>
        <time>2022-01-16T09:38:58Z</time>
      </trkpt>
      <trkpt lat="43.3602880" lon="-3.2025960">
        <ele>85.6</ele>
        <time>2022-01-16T09:38:59Z</time>
      </trkpt>
      <trkpt lat="43.3603420" lon="-3.2025970">
        <ele>85.8</ele>
        <time>2022-01-16T09:39:00Z</time>
      </trkpt>
      <trkpt lat="43.3603960" lon="-3.2025960">
        <ele>86.0</ele>
        <time>2022-01-16T09:39:01Z</time>
      </trkpt>
      <trkpt lat="43.3604490" lon="-3.2025940">
        <ele>86.0</ele>
        <time>2022-01-16T09:39:02Z</time>
      </trkpt>
      <trkpt lat="43.3604990" lon="-3.2025900">
        <ele>86.6</ele>
        <time>2022-01-16T09:39:03Z</time>
      </trkpt>
      <trkpt lat="43.3605470" lon="-3.2025840">
        <ele>86.8</ele>
        <time>2022-01-16T09:39:04Z</time>
      </trkpt>
      <trkpt lat="43.3605930" lon="-3.2025750">
        <ele>87.0</ele>
        <time>2022-01-16T09:39:05Z</time>
      </trkpt>
      <trkpt lat="43.3606360" lon="-3.2025620">
        <ele>87.2</ele>
        <time>2022-01-16T09:39:06Z</time>
      </trkpt>
      <trkpt lat="43.3606760" lon="-3.2025440">
        <ele>87.6</ele>
        <time>2022-01-16T09:39:07Z</time>
      </trkpt>
      <trkpt lat="43.3607130" lon="-3.2025180">
        <ele>87.8</ele>
        <time>2022-01-16T09:39:08Z</time>
      </trkpt>
      <trkpt lat="43.3607470" lon="-3.2024920">
        <ele>87.8</ele>
        <time>2022-01-16T09:39:09Z</time>
      </trkpt>
      <trkpt lat="43.3607810" lon="-3.2024670">
        <ele>88.4</ele>
        <time>2022-01-16T09:39:10Z</time>
      </trkpt>
      <trkpt lat="43.3608160" lon="-3.2024380">
        <ele>88.6</ele>
        <time>2022-01-16T09:39:11Z</time>
      </trkpt>
      <trkpt lat="43.3608500" lon="-3.2024040">
        <ele>88.8</ele>
        <time>2022-01-16T09:39:12Z</time>
      </trkpt>
      <trkpt lat="43.3608820" lon="-3.2023660">
        <ele>89.2</ele>
        <time>2022-01-16T09:39:13Z</time>
      </trkpt>
      <trkpt lat="43.3609150" lon="-3.2023260">
        <ele>89.4</ele>
        <time>2022-01-16T09:39:14Z</time>
      </trkpt>
      <trkpt lat="43.3609430" lon="-3.2022810">
        <ele>89.6</ele>
        <time>2022-01-16T09:39:15Z</time>
      </trkpt>
      <trkpt lat="43.3609680" lon="-3.2022350">
        <ele>89.8</ele>
        <time>2022-01-16T09:39:16Z</time>
      </trkpt>
      <trkpt lat="43.3609970" lon="-3.2021900">
        <ele>90.2</ele>
        <time>2022-01-16T09:39:17Z</time>
      </trkpt>
      <trkpt lat="43.3610250" lon="-3.2021450">
        <ele>90.4</ele>
        <time>2022-01-16T09:39:18Z</time>
      </trkpt>
      <trkpt lat="43.3610500" lon="-3.2020960">
        <ele>90.6</ele>
        <time>2022-01-16T09:39:19Z</time>
      </trkpt>
      <trkpt lat="43.3610750" lon="-3.2020470">
        <ele>91.0</ele>
        <time>2022-01-16T09:39:20Z</time>
      </trkpt>
      <trkpt lat="43.3610990" lon="-3.2019940">
        <ele>91.4</ele>
        <time>2022-01-16T09:39:21Z</time>
      </trkpt>
      <trkpt lat="43.3611230" lon="-3.2019410">
        <ele>91.6</ele>
        <time>2022-01-16T09:39:22Z</time>
      </trkpt>
      <trkpt lat="43.3611490" lon="-3.2018880">
        <ele>91.8</ele>
        <time>2022-01-16T09:39:23Z</time>
      </trkpt>
      <trkpt lat="43.3611740" lon="-3.2018370">
        <ele>92.0</ele>
        <time>2022-01-16T09:39:24Z</time>
      </trkpt>
      <trkpt lat="43.3611970" lon="-3.2017860">
        <ele>92.2</ele>
        <time>2022-01-16T09:39:25Z</time>
      </trkpt>
      <trkpt lat="43.3612190" lon="-3.2017330">
        <ele>92.6</ele>
        <time>2022-01-16T09:39:26Z</time>
      </trkpt>
      <trkpt lat="43.3612400" lon="-3.2016810">
        <ele>93.0</ele>
        <time>2022-01-16T09:39:27Z</time>
      </trkpt>
      <trkpt lat="43.3612610" lon="-3.2016290">
        <ele>93.4</ele>
        <time>2022-01-16T09:39:28Z</time>
      </trkpt>
      <trkpt lat="43.3612800" lon="-3.2015750">
        <ele>93.6</ele>
        <time>2022-01-16T09:39:29Z</time>
      </trkpt>
      <trkpt lat="43.3612980" lon="-3.2015210">
        <ele>93.8</ele>
        <time>2022-01-16T09:39:30Z</time>
      </trkpt>
      <trkpt lat="43.3613130" lon="-3.2014650">
        <ele>94.0</ele>
        <time>2022-01-16T09:39:31Z</time>
      </trkpt>
      <trkpt lat="43.3613270" lon="-3.2014100">
        <ele>94.4</ele>
        <time>2022-01-16T09:39:32Z</time>
      </trkpt>
      <trkpt lat="43.3613410" lon="-3.2013580">
        <ele>94.6</ele>
        <time>2022-01-16T09:39:33Z</time>
      </trkpt>
      <trkpt lat="43.3613500" lon="-3.2013080">
        <ele>94.8</ele>
        <time>2022-01-16T09:39:34Z</time>
      </trkpt>
      <trkpt lat="43.3613590" lon="-3.2012610">
        <ele>95.0</ele>
        <time>2022-01-16T09:39:35Z</time>
      </trkpt>
      <trkpt lat="43.3613680" lon="-3.2012100">
        <ele>95.2</ele>
        <time>2022-01-16T09:39:36Z</time>
      </trkpt>
      <trkpt lat="43.3613770" lon="-3.2011550">
        <ele>95.6</ele>
        <time>2022-01-16T09:39:37Z</time>
      </trkpt>
      <trkpt lat="43.3613850" lon="-3.2011010">
        <ele>96.0</ele>
        <time>2022-01-16T09:39:38Z</time>
      </trkpt>
      <trkpt lat="43.3613940" lon="-3.2010460">
        <ele>96.6</ele>
        <time>2022-01-16T09:39:39Z</time>
      </trkpt>
      <trkpt lat="43.3614040" lon="-3.2009920">
        <ele>96.8</ele>
        <time>2022-01-16T09:39:40Z</time>
      </trkpt>
      <trkpt lat="43.3614150" lon="-3.2009400">
        <ele>97.0</ele>
        <time>2022-01-16T09:39:41Z</time>
      </trkpt>
      <trkpt lat="43.3614280" lon="-3.2008890">
        <ele>97.0</ele>
        <time>2022-01-16T09:39:42Z</time>
      </trkpt>
      <trkpt lat="43.3614420" lon="-3.2008420">
        <ele>97.2</ele>
        <time>2022-01-16T09:39:43Z</time>
      </trkpt>
      <trkpt lat="43.3614550" lon="-3.2007920">
        <ele>97.4</ele>
        <time>2022-01-16T09:39:44Z</time>
      </trkpt>
      <trkpt lat="43.3614670" lon="-3.2007410">
        <ele>97.6</ele>
        <time>2022-01-16T09:39:45Z</time>
      </trkpt>
      <trkpt lat="43.3614760" lon="-3.2006860">
        <ele>97.8</ele>
        <time>2022-01-16T09:39:46Z</time>
      </trkpt>
      <trkpt lat="43.3614840" lon="-3.2006310">
        <ele>98.0</ele>
        <time>2022-01-16T09:39:47Z</time>
      </trkpt>
      <trkpt lat="43.3614960" lon="-3.2005780">
        <ele>98.8</ele>
        <time>2022-01-16T09:39:48Z</time>
      </trkpt>
      <trkpt lat="43.3615090" lon="-3.2005230">
        <ele>99.2</ele>
        <time>2022-01-16T09:39:49Z</time>
      </trkpt>
      <trkpt lat="43.3615220" lon="-3.2004640">
        <ele>99.4</ele>
        <time>2022-01-16T09:39:50Z</time>
      </trkpt>
      <trkpt lat="43.3615350" lon="-3.2004130">
        <ele>99.6</ele>
        <time>2022-01-16T09:39:51Z</time>
      </trkpt>
      <trkpt lat="43.3615490" lon="-3.2003530">
        <ele>99.8</ele>
        <time>2022-01-16T09:39:52Z</time>
      </trkpt>
      <trkpt lat="43.3615610" lon="-3.2002970">
        <ele>99.8</ele>
        <time>2022-01-16T09:39:53Z</time>
      </trkpt>
      <trkpt lat="43.3615730" lon="-3.2002450">
        <ele>100.2</ele>
        <time>2022-01-16T09:39:54Z</time>
      </trkpt>
      <trkpt lat="43.3615840" lon="-3.2001920">
        <ele>100.6</ele>
        <time>2022-01-16T09:39:55Z</time>
      </trkpt>
      <trkpt lat="43.3615950" lon="-3.2001360">
        <ele>101.0</ele>
        <time>2022-01-16T09:39:56Z</time>
      </trkpt>
      <trkpt lat="43.3616080" lon="-3.2000810">
        <ele>101.4</ele>
        <time>2022-01-16T09:39:57Z</time>
      </trkpt>
      <trkpt lat="43.3616210" lon="-3.2000260">
        <ele>101.8</ele>
        <time>2022-01-16T09:39:58Z</time>
      </trkpt>
      <trkpt lat="43.3616330" lon="-3.1999700">
        <ele>102.0</ele>
        <time>2022-01-16T09:39:59Z</time>
      </trkpt>
      <trkpt lat="43.3616460" lon="-3.1999150">
        <ele>102.4</ele>
        <time>2022-01-16T09:40:00Z</time>
      </trkpt>
      <trkpt lat="43.3616590" lon="-3.1998610">
        <ele>102.6</ele>
        <time>2022-01-16T09:40:01Z</time>
      </trkpt>
      <trkpt lat="43.3616730" lon="-3.1998080">
        <ele>102.6</ele>
        <time>2022-01-16T09:40:02Z</time>
      </trkpt>
      <trkpt lat="43.3616880" lon="-3.1997550">
        <ele>102.8</ele>
        <time>2022-01-16T09:40:03Z</time>
      </trkpt>
      <trkpt lat="43.3617050" lon="-3.1997040">
        <ele>102.8</ele>
        <time>2022-01-16T09:40:04Z</time>
      </trkpt>
      <trkpt lat="43.3617240" lon="-3.1996540">
        <ele>102.8</ele>
        <time>2022-01-16T09:40:05Z</time>
      </trkpt>
      <trkpt lat="43.3617450" lon="-3.1996050">
        <ele>103.2</ele>
        <time>2022-01-16T09:40:06Z</time>
      </trkpt>
      <trkpt lat="43.3617650" lon="-3.1995530">
        <ele>103.4</ele>
        <time>2022-01-16T09:40:07Z</time>
      </trkpt>
      <trkpt lat="43.3617860" lon="-3.1995040">
        <ele>103.4</ele>
        <time>2022-01-16T09:40:08Z</time>
      </trkpt>
      <trkpt lat="43.3618140" lon="-3.1994580">
        <ele>103.6</ele>
        <time>2022-01-16T09:40:09Z</time>
      </trkpt>
      <trkpt lat="43.3618450" lon="-3.1994150">
        <ele>103.6</ele>
        <time>2022-01-16T09:40:10Z</time>
      </trkpt>
      <trkpt lat="43.3618710" lon="-3.1993720">
        <ele>103.8</ele>
        <time>2022-01-16T09:40:11Z</time>
      </trkpt>
      <trkpt lat="43.3619000" lon="-3.1993300">
        <ele>104.0</ele>
        <time>2022-01-16T09:40:12Z</time>
      </trkpt>
      <trkpt lat="43.3619290" lon="-3.1992920">
        <ele>104.4</ele>
        <time>2022-01-16T09:40:13Z</time>
      </trkpt>
      <trkpt lat="43.3619590" lon="-3.1992600">
        <ele>104.8</ele>
        <time>2022-01-16T09:40:14Z</time>
      </trkpt>
      <trkpt lat="43.3619890" lon="-3.1992340">
        <ele>105.0</ele>
        <time>2022-01-16T09:40:15Z</time>
      </trkpt>
      <trkpt lat="43.3620200" lon="-3.1992130">
        <ele>105.2</ele>
        <time>2022-01-16T09:40:16Z</time>
      </trkpt>
      <trkpt lat="43.3620560" lon="-3.1991990">
        <ele>105.4</ele>
        <time>2022-01-16T09:40:17Z</time>
      </trkpt>
      <trkpt lat="43.3620920" lon="-3.1991870">
        <ele>105.6</ele>
        <time>2022-01-16T09:40:18Z</time>
      </trkpt>
      <trkpt lat="43.3621310" lon="-3.1991800">
        <ele>105.8</ele>
        <time>2022-01-16T09:40:19Z</time>
      </trkpt>
      <trkpt lat="43.3621710" lon="-3.1991770">
        <ele>106.0</ele>
        <time>2022-01-16T09:40:20Z</time>
      </trkpt>
      <trkpt lat="43.3622130" lon="-3.1991760">
        <ele>106.2</ele>
        <time>2022-01-16T09:40:21Z</time>
      </trkpt>
      <trkpt lat="43.3622600" lon="-3.1991770">
        <ele>106.4</ele>
        <time>2022-01-16T09:40:22Z</time>
      </trkpt>
      <trkpt lat="43.3623070" lon="-3.1991750">
        <ele>106.6</ele>
        <time>2022-01-16T09:40:23Z</time>
      </trkpt>
      <trkpt lat="43.3623550" lon="-3.1991680">
        <ele>106.8</ele>
        <time>2022-01-16T09:40:24Z</time>
      </trkpt>
      <trkpt lat="43.3624040" lon="-3.1991580">
        <ele>107.2</ele>
        <time>2022-01-16T09:40:25Z</time>
      </trkpt>
      <trkpt lat="43.3624510" lon="-3.1991410">
        <ele>107.4</ele>
        <time>2022-01-16T09:40:26Z</time>
      </trkpt>
      <trkpt lat="43.3624940" lon="-3.1991170">
        <ele>107.6</ele>
        <time>2022-01-16T09:40:27Z</time>
      </trkpt>
      <trkpt lat="43.3625410" lon="-3.1990840">
        <ele>108.0</ele>
        <time>2022-01-16T09:40:28Z</time>
      </trkpt>
      <trkpt lat="43.3625780" lon="-3.1990500">
        <ele>108.4</ele>
        <time>2022-01-16T09:40:29Z</time>
      </trkpt>
      <trkpt lat="43.3626120" lon="-3.1990140">
        <ele>108.6</ele>
        <time>2022-01-16T09:40:30Z</time>
      </trkpt>
      <trkpt lat="43.3626450" lon="-3.1989800">
        <ele>109.0</ele>
        <time>2022-01-16T09:40:31Z</time>
      </trkpt>
      <trkpt lat="43.3626790" lon="-3.1989490">
        <ele>109.4</ele>
        <time>2022-01-16T09:40:32Z</time>
      </trkpt>
      <trkpt lat="43.3627150" lon="-3.1989250">
        <ele>109.8</ele>
        <time>2022-01-16T09:40:33Z</time>
      </trkpt>
      <trkpt lat="43.3627520" lon="-3.1989040">
        <ele>110.0</ele>
        <time>2022-01-16T09:40:34Z</time>
      </trkpt>
      <trkpt lat="43.3627900" lon="-3.1988840">
        <ele>110.4</ele>
        <time>2022-01-16T09:40:35Z</time>
      </trkpt>
      <trkpt lat="43.3628260" lon="-3.1988660">
        <ele>110.4</ele>
        <time>2022-01-16T09:40:36Z</time>
      </trkpt>
      <trkpt lat="43.3628640" lon="-3.1988520">
        <ele>110.6</ele>
        <time>2022-01-16T09:40:37Z</time>
      </trkpt>
      <trkpt lat="43.3629000" lon="-3.1988390">
        <ele>110.8</ele>
        <time>2022-01-16T09:40:38Z</time>
      </trkpt>
      <trkpt lat="43.3629390" lon="-3.1988330">
        <ele>110.8</ele>
        <time>2022-01-16T09:40:39Z</time>
      </trkpt>
      <trkpt lat="43.3629770" lon="-3.1988300">
        <ele>111.0</ele>
        <time>2022-01-16T09:40:40Z</time>
      </trkpt>
      <trkpt lat="43.3630120" lon="-3.1988270">
        <ele>111.4</ele>
        <time>2022-01-16T09:40:41Z</time>
      </trkpt>
      <trkpt lat="43.3630680" lon="-3.1988190">
        <ele>111.6</ele>
        <time>2022-01-16T09:40:42Z</time>
      </trkpt>
      <trkpt lat="43.3631110" lon="-3.1988170">
        <ele>112.0</ele>
        <time>2022-01-16T09:40:43Z</time>
      </trkpt>
      <trkpt lat="43.3631550" lon="-3.1988150">
        <ele>112.2</ele>
        <time>2022-01-16T09:40:44Z</time>
      </trkpt>
      <trkpt lat="43.3631970" lon="-3.1988130">
        <ele>112.4</ele>
        <time>2022-01-16T09:40:45Z</time>
      </trkpt>
      <trkpt lat="43.3632410" lon="-3.1988160">
        <ele>112.8</ele>
        <time>2022-01-16T09:40:46Z</time>
      </trkpt>
      <trkpt lat="43.3632850" lon="-3.1988200">
        <ele>113.0</ele>
        <time>2022-01-16T09:40:47Z</time>
      </trkpt>
      <trkpt lat="43.3633280" lon="-3.1988260">
        <ele>113.2</ele>
        <time>2022-01-16T09:40:48Z</time>
      </trkpt>
      <trkpt lat="43.3633710" lon="-3.1988330">
        <ele>113.6</ele>
        <time>2022-01-16T09:40:49Z</time>
      </trkpt>
      <trkpt lat="43.3634130" lon="-3.1988420">
        <ele>113.8</ele>
        <time>2022-01-16T09:40:50Z</time>
      </trkpt>
      <trkpt lat="43.3634570" lon="-3.1988550">
        <ele>114.0</ele>
        <time>2022-01-16T09:40:51Z</time>
      </trkpt>
      <trkpt lat="43.3635000" lon="-3.1988680">
        <ele>114.4</ele>
        <time>2022-01-16T09:40:52Z</time>
      </trkpt>
      <trkpt lat="43.3635420" lon="-3.1988820">
        <ele>114.4</ele>
        <time>2022-01-16T09:40:53Z</time>
      </trkpt>
      <trkpt lat="43.3635860" lon="-3.1988970">
        <ele>114.6</ele>
        <time>2022-01-16T09:40:54Z</time>
      </trkpt>
      <trkpt lat="43.3636290" lon="-3.1989120">
        <ele>114.8</ele>
        <time>2022-01-16T09:40:55Z</time>
      </trkpt>
      <trkpt lat="43.3636730" lon="-3.1989300">
        <ele>115.2</ele>
        <time>2022-01-16T09:40:56Z</time>
      </trkpt>
      <trkpt lat="43.3637130" lon="-3.1989450">
        <ele>115.4</ele>
        <time>2022-01-16T09:40:57Z</time>
      </trkpt>
      <trkpt lat="43.3637540" lon="-3.1989600">
        <ele>115.6</ele>
        <time>2022-01-16T09:40:58Z</time>
      </trkpt>
      <trkpt lat="43.3637960" lon="-3.1989770">
        <ele>116.0</ele>
        <time>2022-01-16T09:40:59Z</time>
      </trkpt>
      <trkpt lat="43.3638390" lon="-3.1989970">
        <ele>116.2</ele>
        <time>2022-01-16T09:41:00Z</time>
      </trkpt>
      <trkpt lat="43.3638810" lon="-3.1990150">
        <ele>116.6</ele>
        <time>2022-01-16T09:41:01Z</time>
      </trkpt>
      <trkpt lat="43.3639230" lon="-3.1990340">
        <ele>116.8</ele>
        <time>2022-01-16T09:41:02Z</time>
      </trkpt>
      <trkpt lat="43.3639610" lon="-3.1990490">
        <ele>117.2</ele>
        <time>2022-01-16T09:41:03Z</time>
      </trkpt>
      <trkpt lat="43.3639970" lon="-3.1990610">
        <ele>117.4</ele>
        <time>2022-01-16T09:41:04Z</time>
      </trkpt>
      <trkpt lat="43.3640350" lon="-3.1990770">
        <ele>117.6</ele>
        <time>2022-01-16T09:41:05Z</time>
      </trkpt>
      <trkpt lat="43.3640740" lon="-3.1990910">
        <ele>117.8</ele>
        <time>2022-01-16T09:41:06Z</time>
      </trkpt>
      <trkpt lat="43.3641140" lon="-3.1991080">
        <ele>118.2</ele>
        <time>2022-01-16T09:41:07Z</time>
      </trkpt>
      <trkpt lat="43.3641520" lon="-3.1991270">
        <ele>118.4</ele>
        <time>2022-01-16T09:41:08Z</time>
      </trkpt>
      <trkpt lat="43.3641930" lon="-3.1991490">
        <ele>118.8</ele>
        <time>2022-01-16T09:41:09Z</time>
      </trkpt>
      <trkpt lat="43.3642300" lon="-3.1991670">
        <ele>119.0</ele>
        <time>2022-01-16T09:41:10Z</time>
      </trkpt>
      <trkpt lat="43.3642650" lon="-3.1991880">
        <ele>119.0</ele>
        <time>2022-01-16T09:41:11Z</time>
      </trkpt>
      <trkpt lat="43.3642980" lon="-3.1992070">
        <ele>119.6</ele>
        <time>2022-01-16T09:41:12Z</time>
      </trkpt>
      <trkpt lat="43.3643320" lon="-3.1992230">
        <ele>119.8</ele>
        <time>2022-01-16T09:41:13Z</time>
      </trkpt>
      <trkpt lat="43.3643640" lon="-3.1992350">
        <ele>120.2</ele>
        <time>2022-01-16T09:41:14Z</time>
      </trkpt>
      <trkpt lat="43.3643990" lon="-3.1992490">
        <ele>120.6</ele>
        <time>2022-01-16T09:41:15Z</time>
      </trkpt>
      <trkpt lat="43.3644340" lon="-3.1992630">
        <ele>120.8</ele>
        <time>2022-01-16T09:41:16Z</time>
      </trkpt>
      <trkpt lat="43.3644650" lon="-3.1992780">
        <ele>121.0</ele>
        <time>2022-01-16T09:41:17Z</time>
      </trkpt>
      <trkpt lat="43.3644950" lon="-3.1992950">
        <ele>121.2</ele>
        <time>2022-01-16T09:41:18Z</time>
      </trkpt>
      <trkpt lat="43.3645410" lon="-3.1993140">
        <ele>121.6</ele>
        <time>2022-01-16T09:41:19Z</time>
      </trkpt>
      <trkpt lat="43.3645840" lon="-3.1993340">
        <ele>121.8</ele>
        <time>2022-01-16T09:41:20Z</time>
      </trkpt>
      <trkpt lat="43.3646250" lon="-3.1993490">
        <ele>122.0</ele>
        <time>2022-01-16T09:41:21Z</time>
      </trkpt>
      <trkpt lat="43.3646690" lon="-3.1993610">
        <ele>122.2</ele>
        <time>2022-01-16T09:41:22Z</time>
      </trkpt>
      <trkpt lat="43.3647100" lon="-3.1993780">
        <ele>122.6</ele>
        <time>2022-01-16T09:41:23Z</time>
      </trkpt>
      <trkpt lat="43.3647510" lon="-3.1993950">
        <ele>122.8</ele>
        <time>2022-01-16T09:41:24Z</time>
      </trkpt>
      <trkpt lat="43.3647920" lon="-3.1994100">
        <ele>123.0</ele>
        <time>2022-01-16T09:41:25Z</time>
      </trkpt>
      <trkpt lat="43.3648350" lon="-3.1994240">
        <ele>123.2</ele>
        <time>2022-01-16T09:41:26Z</time>
      </trkpt>
      <trkpt lat="43.3648760" lon="-3.1994400">
        <ele>123.4</ele>
        <time>2022-01-16T09:41:27Z</time>
      </trkpt>
      <trkpt lat="43.3649180" lon="-3.1994560">
        <ele>123.6</ele>
        <time>2022-01-16T09:41:28Z</time>
      </trkpt>
      <trkpt lat="43.3649610" lon="-3.1994680">
        <ele>123.8</ele>
        <time>2022-01-16T09:41:29Z</time>
      </trkpt>
      <trkpt lat="43.3650020" lon="-3.1994810">
        <ele>124.0</ele>
        <time>2022-01-16T09:41:30Z</time>
      </trkpt>
      <trkpt lat="43.3650430" lon="-3.1994940">
        <ele>124.4</ele>
        <time>2022-01-16T09:41:31Z</time>
      </trkpt>
      <trkpt lat="43.3650840" lon="-3.1995080">
        <ele>124.6</ele>
        <time>2022-01-16T09:41:32Z</time>
      </trkpt>
      <trkpt lat="43.3651260" lon="-3.1995220">
        <ele>125.0</ele>
        <time>2022-01-16T09:41:33Z</time>
      </trkpt>
      <trkpt lat="43.3651670" lon="-3.1995350">
        <ele>125.2</ele>
        <time>2022-01-16T09:41:34Z</time>
      </trkpt>
      <trkpt lat="43.3652080" lon="-3.1995470">
        <ele>125.4</ele>
        <time>2022-01-16T09:41:35Z</time>
      </trkpt>
      <trkpt lat="43.3652500" lon="-3.1995620">
        <ele>125.8</ele>
        <time>2022-01-16T09:41:36Z</time>
      </trkpt>
      <trkpt lat="43.3652920" lon="-3.1995750">
        <ele>126.0</ele>
        <time>2022-01-16T09:41:37Z</time>
      </trkpt>
      <trkpt lat="43.3653330" lon="-3.1995860">
        <ele>126.4</ele>
        <time>2022-01-16T09:41:38Z</time>
      </trkpt>
      <trkpt lat="43.3653730" lon="-3.1995980">
        <ele>126.6</ele>
        <time>2022-01-16T09:41:39Z</time>
      </trkpt>
      <trkpt lat="43.3654150" lon="-3.1996080">
        <ele>126.8</ele>
        <time>2022-01-16T09:41:40Z</time>
      </trkpt>
      <trkpt lat="43.3654550" lon="-3.1996180">
        <ele>127.2</ele>
        <time>2022-01-16T09:41:41Z</time>
      </trkpt>
      <trkpt lat="43.3654950" lon="-3.1996280">
        <ele>127.6</ele>
        <time>2022-01-16T09:41:42Z</time>
      </trkpt>
      <trkpt lat="43.3655350" lon="-3.1996370">
        <ele>127.6</ele>
        <time>2022-01-16T09:41:43Z</time>
      </trkpt>
      <trkpt lat="43.3655760" lon="-3.1996450">
        <ele>128.0</ele>
        <time>2022-01-16T09:41:44Z</time>
      </trkpt>
      <trkpt lat="43.3656160" lon="-3.1996510">
        <ele>128.2</ele>
        <time>2022-01-16T09:41:45Z</time>
      </trkpt>
      <trkpt lat="43.3656560" lon="-3.1996590">
        <ele>128.4</ele>
        <time>2022-01-16T09:41:46Z</time>
      </trkpt>
      <trkpt lat="43.3656970" lon="-3.1996660">
        <ele>128.6</ele>
        <time>2022-01-16T09:41:47Z</time>
      </trkpt>
      <trkpt lat="43.3657360" lon="-3.1996720">
        <ele>128.8</ele>
        <time>2022-01-16T09:41:48Z</time>
      </trkpt>
      <trkpt lat="43.3657750" lon="-3.1996780">
        <ele>129.0</ele>
        <time>2022-01-16T09:41:49Z</time>
      </trkpt>
      <trkpt lat="43.3658140" lon="-3.1996870">
        <ele>129.2</ele>
        <time>2022-01-16T09:41:50Z</time>
      </trkpt>
      <trkpt lat="43.3658530" lon="-3.1996950">
        <ele>129.8</ele>
        <time>2022-01-16T09:41:51Z</time>
      </trkpt>
      <trkpt lat="43.3658910" lon="-3.1997020">
        <ele>130.0</ele>
        <time>2022-01-16T09:41:52Z</time>
      </trkpt>
      <trkpt lat="43.3659280" lon="-3.1997110">
        <ele>130.2</ele>
        <time>2022-01-16T09:41:53Z</time>
      </trkpt>
      <trkpt lat="43.3659710" lon="-3.1997280">
        <ele>130.2</ele>
        <time>2022-01-16T09:41:54Z</time>
      </trkpt>
      <trkpt lat="43.3660090" lon="-3.1997400">
        <ele>130.6</ele>
        <time>2022-01-16T09:41:55Z</time>
      </trkpt>
      <trkpt lat="43.3660490" lon="-3.1997560">
        <ele>130.8</ele>
        <time>2022-01-16T09:41:56Z</time>
      </trkpt>
      <trkpt lat="43.3660890" lon="-3.1997720">
        <ele>131.0</ele>
        <time>2022-01-16T09:41:57Z</time>
      </trkpt>
      <trkpt lat="43.3661270" lon="-3.1997930">
        <ele>131.2</ele>
        <time>2022-01-16T09:41:58Z</time>
      </trkpt>
      <trkpt lat="43.3661650" lon="-3.1998180">
        <ele>131.4</ele>
        <time>2022-01-16T09:41:59Z</time>
      </trkpt>
      <trkpt lat="43.3662040" lon="-3.1998440">
        <ele>131.6</ele>
        <time>2022-01-16T09:42:00Z</time>
      </trkpt>
      <trkpt lat="43.3662420" lon="-3.1998710">
        <ele>131.6</ele>
        <time>2022-01-16T09:42:01Z</time>
      </trkpt>
      <trkpt lat="43.3662800" lon="-3.1999000">
        <ele>131.6</ele>
        <time>2022-01-16T09:42:02Z</time>
      </trkpt>
      <trkpt lat="43.3663190" lon="-3.1999310">
        <ele>131.6</ele>
        <time>2022-01-16T09:42:03Z</time>
      </trkpt>
      <trkpt lat="43.3663570" lon="-3.1999640">
        <ele>131.8</ele>
        <time>2022-01-16T09:42:04Z</time>
      </trkpt>
      <trkpt lat="43.3663960" lon="-3.1999960">
        <ele>131.8</ele>
        <time>2022-01-16T09:42:05Z</time>
      </trkpt>
      <trkpt lat="43.3664370" lon="-3.2000300">
        <ele>131.8</ele>
        <time>2022-01-16T09:42:06Z</time>
      </trkpt>
      <trkpt lat="43.3664780" lon="-3.2000660">
        <ele>131.8</ele>
        <time>2022-01-16T09:42:07Z</time>
      </trkpt>
      <trkpt lat="43.3665210" lon="-3.2001020">
        <ele>131.8</ele>
        <time>2022-01-16T09:42:08Z</time>
      </trkpt>
      <trkpt lat="43.3665660" lon="-3.2001390">
        <ele>131.6</ele>
        <time>2022-01-16T09:42:09Z</time>
      </trkpt>
      <trkpt lat="43.3666130" lon="-3.2001800">
        <ele>131.6</ele>
        <time>2022-01-16T09:42:10Z</time>
      </trkpt>
      <trkpt lat="43.3666610" lon="-3.2002210">
        <ele>131.4</ele>
        <time>2022-01-16T09:42:11Z</time>
      </trkpt>
      <trkpt lat="43.3667120" lon="-3.2002640">
        <ele>131.2</ele>
        <time>2022-01-16T09:42:12Z</time>
      </trkpt>
      <trkpt lat="43.3667650" lon="-3.2003080">
        <ele>130.8</ele>
        <time>2022-01-16T09:42:13Z</time>
      </trkpt>
      <trkpt lat="43.3668210" lon="-3.2003550">
        <ele>130.4</ele>
        <time>2022-01-16T09:42:14Z</time>
      </trkpt>
      <trkpt lat="43.3668800" lon="-3.2004030">
        <ele>130.2</ele>
        <time>2022-01-16T09:42:15Z</time>
      </trkpt>
      <trkpt lat="43.3669410" lon="-3.2004530">
        <ele>130.0</ele>
        <time>2022-01-16T09:42:16Z</time>
      </trkpt>
      <trkpt lat="43.3670040" lon="-3.2005030">
        <ele>129.4</ele>
        <time>2022-01-16T09:42:17Z</time>
      </trkpt>
      <trkpt lat="43.3670670" lon="-3.2005540">
        <ele>129.0</ele>
        <time>2022-01-16T09:42:18Z</time>
      </trkpt>
      <trkpt lat="43.3671320" lon="-3.2006070">
        <ele>128.6</ele>
        <time>2022-01-16T09:42:19Z</time>
      </trkpt>
      <trkpt lat="43.3671990" lon="-3.2006620">
        <ele>128.0</ele>
        <time>2022-01-16T09:42:20Z</time>
      </trkpt>
      <trkpt lat="43.3672680" lon="-3.2007180">
        <ele>127.6</ele>
        <time>2022-01-16T09:42:21Z</time>
      </trkpt>
      <trkpt lat="43.3673370" lon="-3.2007750">
        <ele>127.4</ele>
        <time>2022-01-16T09:42:22Z</time>
      </trkpt>
      <trkpt lat="43.3674090" lon="-3.2008310">
        <ele>126.8</ele>
        <time>2022-01-16T09:42:23Z</time>
      </trkpt>
      <trkpt lat="43.3674820" lon="-3.2008890">
        <ele>126.4</ele>
        <time>2022-01-16T09:42:24Z</time>
      </trkpt>
      <trkpt lat="43.3675550" lon="-3.2009490">
        <ele>126.0</ele>
        <time>2022-01-16T09:42:25Z</time>
      </trkpt>
      <trkpt lat="43.3676300" lon="-3.2010100">
        <ele>125.6</ele>
        <time>2022-01-16T09:42:26Z</time>
      </trkpt>
      <trkpt lat="43.3677060" lon="-3.2010710">
        <ele>125.0</ele>
        <time>2022-01-16T09:42:27Z</time>
      </trkpt>
      <trkpt lat="43.3677830" lon="-3.2011320">
        <ele>124.6</ele>
        <time>2022-01-16T09:42:28Z</time>
      </trkpt>
      <trkpt lat="43.3678610" lon="-3.2011940">
        <ele>124.0</ele>
        <time>2022-01-16T09:42:29Z</time>
      </trkpt>
      <trkpt lat="43.3679390" lon="-3.2012570">
        <ele>123.6</ele>
        <time>2022-01-16T09:42:30Z</time>
      </trkpt>
      <trkpt lat="43.3680180" lon="-3.2013200">
        <ele>123.0</ele>
        <time>2022-01-16T09:42:31Z</time>
      </trkpt>
      <trkpt lat="43.3680970" lon="-3.2013850">
        <ele>122.6</ele>
        <time>2022-01-16T09:42:32Z</time>
      </trkpt>
      <trkpt lat="43.3681770" lon="-3.2014500">
        <ele>122.0</ele>
        <time>2022-01-16T09:42:33Z</time>
      </trkpt>
      <trkpt lat="43.3682590" lon="-3.2015160">
        <ele>121.6</ele>
        <time>2022-01-16T09:42:34Z</time>
      </trkpt>
      <trkpt lat="43.3683430" lon="-3.2015820">
        <ele>121.2</ele>
        <time>2022-01-16T09:42:35Z</time>
      </trkpt>
      <trkpt lat="43.3684280" lon="-3.2016510">
        <ele>120.6</ele>
        <time>2022-01-16T09:42:36Z</time>
      </trkpt>
      <trkpt lat="43.3685140" lon="-3.2017200">
        <ele>120.2</ele>
        <time>2022-01-16T09:42:37Z</time>
      </trkpt>
      <trkpt lat="43.3686000" lon="-3.2017890">
        <ele>119.6</ele>
        <time>2022-01-16T09:42:38Z</time>
      </trkpt>
      <trkpt lat="43.3686850" lon="-3.2018590">
        <ele>119.2</ele>
        <time>2022-01-16T09:42:39Z</time>
      </trkpt>
      <trkpt lat="43.3687710" lon="-3.2019290">
        <ele>118.8</ele>
        <time>2022-01-16T09:42:40Z</time>
      </trkpt>
      <trkpt lat="43.3688590" lon="-3.2020000">
        <ele>118.2</ele>
        <time>2022-01-16T09:42:41Z</time>
      </trkpt>
      <trkpt lat="43.3689480" lon="-3.2020710">
        <ele>117.8</ele>
        <time>2022-01-16T09:42:42Z</time>
      </trkpt>
      <trkpt lat="43.3690380" lon="-3.2021440">
        <ele>117.4</ele>
        <time>2022-01-16T09:42:43Z</time>
      </trkpt>
      <trkpt lat="43.3691290" lon="-3.2022190">
        <ele>116.6</ele>
        <time>2022-01-16T09:42:44Z</time>
      </trkpt>
      <trkpt lat="43.3692210" lon="-3.2022950">
        <ele>116.0</ele>
        <time>2022-01-16T09:42:45Z</time>
      </trkpt>
      <trkpt lat="43.3693150" lon="-3.2023710">
        <ele>115.4</ele>
        <time>2022-01-16T09:42:46Z</time>
      </trkpt>
      <trkpt lat="43.3694090" lon="-3.2024480">
        <ele>114.6</ele>
        <time>2022-01-16T09:42:47Z</time>
      </trkpt>
      <trkpt lat="43.3695000" lon="-3.2025310">
        <ele>114.2</ele>
        <time>2022-01-16T09:42:48Z</time>
      </trkpt>
      <trkpt lat="43.3695870" lon="-3.2026240">
        <ele>113.4</ele>
        <time>2022-01-16T09:42:49Z</time>
      </trkpt>
      <trkpt lat="43.3696650" lon="-3.2027320">
        <ele>112.6</ele>
        <time>2022-01-16T09:42:50Z</time>
      </trkpt>
      <trkpt lat="43.3697300" lon="-3.2028540">
        <ele>112.2</ele>
        <time>2022-01-16T09:42:51Z</time>
      </trkpt>
      <trkpt lat="43.3697840" lon="-3.2029870">
        <ele>111.4</ele>
        <time>2022-01-16T09:42:52Z</time>
      </trkpt>
      <trkpt lat="43.3698240" lon="-3.2031280">
        <ele>110.8</ele>
        <time>2022-01-16T09:42:53Z</time>
      </trkpt>
      <trkpt lat="43.3698450" lon="-3.2032770">
        <ele>110.2</ele>
        <time>2022-01-16T09:42:54Z</time>
      </trkpt>
      <trkpt lat="43.3698430" lon="-3.2034310">
        <ele>109.6</ele>
        <time>2022-01-16T09:42:55Z</time>
      </trkpt>
      <trkpt lat="43.3698180" lon="-3.2035830">
        <ele>108.8</ele>
        <time>2022-01-16T09:42:56Z</time>
      </trkpt>
      <trkpt lat="43.3697790" lon="-3.2037340">
        <ele>108.2</ele>
        <time>2022-01-16T09:42:57Z</time>
      </trkpt>
      <trkpt lat="43.3697320" lon="-3.2038850">
        <ele>107.4</ele>
        <time>2022-01-16T09:42:58Z</time>
      </trkpt>
      <trkpt lat="43.3696810" lon="-3.2040340">
        <ele>106.4</ele>
        <time>2022-01-16T09:42:59Z</time>
      </trkpt>
      <trkpt lat="43.3696240" lon="-3.2041800">
        <ele>105.6</ele>
        <time>2022-01-16T09:43:00Z</time>
      </trkpt>
      <trkpt lat="43.3695610" lon="-3.2043230">
        <ele>104.2</ele>
        <time>2022-01-16T09:43:01Z</time>
      </trkpt>
      <trkpt lat="43.3694940" lon="-3.2044640">
        <ele>103.6</ele>
        <time>2022-01-16T09:43:02Z</time>
      </trkpt>
      <trkpt lat="43.3694230" lon="-3.2046040">
        <ele>102.8</ele>
        <time>2022-01-16T09:43:03Z</time>
      </trkpt>
      <trkpt lat="43.3693510" lon="-3.2047440">
        <ele>102.2</ele>
        <time>2022-01-16T09:43:04Z</time>
      </trkpt>
      <trkpt lat="43.3692780" lon="-3.2048830">
        <ele>101.6</ele>
        <time>2022-01-16T09:43:05Z</time>
      </trkpt>
      <trkpt lat="43.3692040" lon="-3.2050230">
        <ele>100.6</ele>
        <time>2022-01-16T09:43:06Z</time>
      </trkpt>
      <trkpt lat="43.3691310" lon="-3.2051660">
        <ele>100.0</ele>
        <time>2022-01-16T09:43:07Z</time>
      </trkpt>
      <trkpt lat="43.3690620" lon="-3.2053130">
        <ele>99.0</ele>
        <time>2022-01-16T09:43:08Z</time>
      </trkpt>
      <trkpt lat="43.3690050" lon="-3.2054700">
        <ele>98.2</ele>
        <time>2022-01-16T09:43:09Z</time>
      </trkpt>
      <trkpt lat="43.3689710" lon="-3.2056390">
        <ele>97.2</ele>
        <time>2022-01-16T09:43:10Z</time>
      </trkpt>
      <trkpt lat="43.3689640" lon="-3.2058120">
        <ele>96.4</ele>
        <time>2022-01-16T09:43:11Z</time>
      </trkpt>
      <trkpt lat="43.3689870" lon="-3.2059790">
        <ele>95.8</ele>
        <time>2022-01-16T09:43:12Z</time>
      </trkpt>
      <trkpt lat="43.3690320" lon="-3.2061370">
        <ele>95.2</ele>
        <time>2022-01-16T09:43:13Z</time>
      </trkpt>
      <trkpt lat="43.3690840" lon="-3.2062890">
        <ele>94.4</ele>
        <time>2022-01-16T09:43:14Z</time>
      </trkpt>
      <trkpt lat="43.3691350" lon="-3.2064420">
        <ele>93.6</ele>
        <time>2022-01-16T09:43:15Z</time>
      </trkpt>
      <trkpt lat="43.3691860" lon="-3.2065950">
        <ele>93.0</ele>
        <time>2022-01-16T09:43:16Z</time>
      </trkpt>
      <trkpt lat="43.3692350" lon="-3.2067490">
        <ele>92.2</ele>
        <time>2022-01-16T09:43:17Z</time>
      </trkpt>
      <trkpt lat="43.3692840" lon="-3.2069040">
        <ele>91.6</ele>
        <time>2022-01-16T09:43:18Z</time>
      </trkpt>
      <trkpt lat="43.3693310" lon="-3.2070600">
        <ele>91.0</ele>
        <time>2022-01-16T09:43:19Z</time>
      </trkpt>
      <trkpt lat="43.3693720" lon="-3.2072190">
        <ele>90.0</ele>
        <time>2022-01-16T09:43:20Z</time>
      </trkpt>
      <trkpt lat="43.3694070" lon="-3.2073810">
        <ele>89.4</ele>
        <time>2022-01-16T09:43:21Z</time>
      </trkpt>
      <trkpt lat="43.3694360" lon="-3.2075460">
        <ele>88.8</ele>
        <time>2022-01-16T09:43:22Z</time>
      </trkpt>
      <trkpt lat="43.3694600" lon="-3.2077130">
        <ele>88.0</ele>
        <time>2022-01-16T09:43:23Z</time>
      </trkpt>
      <trkpt lat="43.3694810" lon="-3.2078820">
        <ele>87.2</ele>
        <time>2022-01-16T09:43:24Z</time>
      </trkpt>
      <trkpt lat="43.3695010" lon="-3.2080510">
        <ele>86.4</ele>
        <time>2022-01-16T09:43:25Z</time>
      </trkpt>
      <trkpt lat="43.3695210" lon="-3.2082210">
        <ele>85.8</ele>
        <time>2022-01-16T09:43:26Z</time>
      </trkpt>
      <trkpt lat="43.3695400" lon="-3.2083910">
        <ele>85.0</ele>
        <time>2022-01-16T09:43:27Z</time>
      </trkpt>
      <trkpt lat="43.3695610" lon="-3.2085600">
        <ele>84.2</ele>
        <time>2022-01-16T09:43:28Z</time>
      </trkpt>
      <trkpt lat="43.3695810" lon="-3.2087300">
        <ele>83.6</ele>
        <time>2022-01-16T09:43:29Z</time>
      </trkpt>
      <trkpt lat="43.3696010" lon="-3.2088930">
        <ele>83.2</ele>
        <time>2022-01-16T09:43:30Z</time>
      </trkpt>
      <trkpt lat="43.3696160" lon="-3.2090550">
        <ele>82.4</ele>
        <time>2022-01-16T09:43:31Z</time>
      </trkpt>
      <trkpt lat="43.3696240" lon="-3.2092180">
        <ele>81.8</ele>
        <time>2022-01-16T09:43:32Z</time>
      </trkpt>
      <trkpt lat="43.3696220" lon="-3.2093820">
        <ele>81.4</ele>
        <time>2022-01-16T09:43:33Z</time>
      </trkpt>
      <trkpt lat="43.3696070" lon="-3.2095420">
        <ele>81.0</ele>
        <time>2022-01-16T09:43:34Z</time>
      </trkpt>
      <trkpt lat="43.3695840" lon="-3.2096880">
        <ele>80.8</ele>
        <time>2022-01-16T09:43:35Z</time>
      </trkpt>
      <trkpt lat="43.3695580" lon="-3.2098380">
        <ele>80.6</ele>
        <time>2022-01-16T09:43:36Z</time>
      </trkpt>
      <trkpt lat="43.3695290" lon="-3.2099840">
        <ele>79.8</ele>
        <time>2022-01-16T09:43:37Z</time>
      </trkpt>
      <trkpt lat="43.3695000" lon="-3.2101310">
        <ele>79.2</ele>
        <time>2022-01-16T09:43:38Z</time>
      </trkpt>
      <trkpt lat="43.3694700" lon="-3.2102750">
        <ele>78.4</ele>
        <time>2022-01-16T09:43:39Z</time>
      </trkpt>
      <trkpt lat="43.3694400" lon="-3.2104210">
        <ele>77.6</ele>
        <time>2022-01-16T09:43:40Z</time>
      </trkpt>
      <trkpt lat="43.3694110" lon="-3.2105680">
        <ele>77.2</ele>
        <time>2022-01-16T09:43:41Z</time>
      </trkpt>
      <trkpt lat="43.3693820" lon="-3.2107130">
        <ele>76.6</ele>
        <time>2022-01-16T09:43:42Z</time>
      </trkpt>
      <trkpt lat="43.3693540" lon="-3.2108580">
        <ele>75.8</ele>
        <time>2022-01-16T09:43:43Z</time>
      </trkpt>
      <trkpt lat="43.3693260" lon="-3.2110060">
        <ele>75.2</ele>
        <time>2022-01-16T09:43:44Z</time>
      </trkpt>
      <trkpt lat="43.3692980" lon="-3.2111370">
        <ele>75.0</ele>
        <time>2022-01-16T09:43:45Z</time>
      </trkpt>
      <trkpt lat="43.3692720" lon="-3.2112740">
        <ele>74.4</ele>
        <time>2022-01-16T09:43:46Z</time>
      </trkpt>
      <trkpt lat="43.3692520" lon="-3.2114060">
        <ele>73.6</ele>
        <time>2022-01-16T09:43:47Z</time>
      </trkpt>
      <trkpt lat="43.3692440" lon="-3.2115350">
        <ele>73.4</ele>
        <time>2022-01-16T09:43:48Z</time>
      </trkpt>
      <trkpt lat="43.3692580" lon="-3.2116510">
        <ele>73.0</ele>
        <time>2022-01-16T09:43:49Z</time>
      </trkpt>
      <trkpt lat="43.3692730" lon="-3.2117540">
        <ele>72.8</ele>
        <time>2022-01-16T09:43:50Z</time>
      </trkpt>
      <trkpt lat="43.3692740" lon="-3.2118530">
        <ele>72.6</ele>
        <time>2022-01-16T09:43:51Z</time>
      </trkpt>
      <trkpt lat="43.3692370" lon="-3.2119290">
        <ele>72.4</ele>
        <time>2022-01-16T09:43:52Z</time>
      </trkpt>
      <trkpt lat="43.3691770" lon="-3.2119950">
        <ele>72.4</ele>
        <time>2022-01-16T09:43:53Z</time>
      </trkpt>
      <trkpt lat="43.3691230" lon="-3.2120650">
        <ele>72.2</ele>
        <time>2022-01-16T09:43:54Z</time>
      </trkpt>
      <trkpt lat="43.3690890" lon="-3.2121570">
        <ele>72.0</ele>
        <time>2022-01-16T09:43:55Z</time>
      </trkpt>
      <trkpt lat="43.3690670" lon="-3.2122500">
        <ele>72.0</ele>
        <time>2022-01-16T09:43:56Z</time>
      </trkpt>
      <trkpt lat="43.3690490" lon="-3.2123440">
        <ele>71.8</ele>
        <time>2022-01-16T09:43:57Z</time>
      </trkpt>
      <trkpt lat="43.3690320" lon="-3.2124340">
        <ele>71.8</ele>
        <time>2022-01-16T09:43:58Z</time>
      </trkpt>
      <trkpt lat="43.3690190" lon="-3.2125300">
        <ele>72.0</ele>
        <time>2022-01-16T09:43:59Z</time>
      </trkpt>
      <trkpt lat="43.3690130" lon="-3.2126300">
        <ele>72.0</ele>
        <time>2022-01-16T09:44:00Z</time>
      </trkpt>
      <trkpt lat="43.3690150" lon="-3.2127310">
        <ele>72.0</ele>
        <time>2022-01-16T09:44:01Z</time>
      </trkpt>
      <trkpt lat="43.3690200" lon="-3.2128350">
        <ele>72.0</ele>
        <time>2022-01-16T09:44:02Z</time>
      </trkpt>
      <trkpt lat="43.3690300" lon="-3.2129380">
        <ele>71.8</ele>
        <time>2022-01-16T09:44:03Z</time>
      </trkpt>
      <trkpt lat="43.3690430" lon="-3.2130420">
        <ele>71.6</ele>
        <time>2022-01-16T09:44:04Z</time>
      </trkpt>
      <trkpt lat="43.3690590" lon="-3.2131480">
        <ele>71.6</ele>
        <time>2022-01-16T09:44:05Z</time>
      </trkpt>
      <trkpt lat="43.3690770" lon="-3.2132520">
        <ele>71.4</ele>
        <time>2022-01-16T09:44:06Z</time>
      </trkpt>
      <trkpt lat="43.3690950" lon="-3.2133580">
        <ele>71.6</ele>
        <time>2022-01-16T09:44:07Z</time>
      </trkpt>
      <trkpt lat="43.3691150" lon="-3.2134640">
        <ele>71.4</ele>
        <time>2022-01-16T09:44:08Z</time>
      </trkpt>
      <trkpt lat="43.3691330" lon="-3.2135690">
        <ele>71.6</ele>
        <time>2022-01-16T09:44:09Z</time>
      </trkpt>
      <trkpt lat="43.3691510" lon="-3.2136740">
        <ele>71.6</ele>
        <time>2022-01-16T09:44:10Z</time>
      </trkpt>
      <trkpt lat="43.3691690" lon="-3.2137770">
        <ele>71.6</ele>
        <time>2022-01-16T09:44:11Z</time>
      </trkpt>
      <trkpt lat="43.3691870" lon="-3.2138800">
        <ele>71.4</ele>
        <time>2022-01-16T09:44:12Z</time>
      </trkpt>
      <trkpt lat="43.3692010" lon="-3.2139810">
        <ele>71.4</ele>
        <time>2022-01-16T09:44:13Z</time>
      </trkpt>
      <trkpt lat="43.3692110" lon="-3.2140820">
        <ele>71.4</ele>
        <time>2022-01-16T09:44:14Z</time>
      </trkpt>
      <trkpt lat="43.3692160" lon="-3.2141820">
        <ele>71.4</ele>
        <time>2022-01-16T09:44:15Z</time>
      </trkpt>
      <trkpt lat="43.3692150" lon="-3.2142800">
        <ele>71.4</ele>
        <time>2022-01-16T09:44:16Z</time>
      </trkpt>
      <trkpt lat="43.3692080" lon="-3.2143740">
        <ele>71.4</ele>
        <time>2022-01-16T09:44:17Z</time>
      </trkpt>
      <trkpt lat="43.3692020" lon="-3.2144670">
        <ele>71.6</ele>
        <time>2022-01-16T09:44:18Z</time>
      </trkpt>
      <trkpt lat="43.3691980" lon="-3.2145590">
        <ele>71.8</ele>
        <time>2022-01-16T09:44:19Z</time>
      </trkpt>
      <trkpt lat="43.3691990" lon="-3.2146520">
        <ele>71.8</ele>
        <time>2022-01-16T09:44:20Z</time>
      </trkpt>
      <trkpt lat="43.3692130" lon="-3.2147440">
        <ele>71.8</ele>
        <time>2022-01-16T09:44:21Z</time>
      </trkpt>
      <trkpt lat="43.3692430" lon="-3.2148300">
        <ele>72.0</ele>
        <time>2022-01-16T09:44:22Z</time>
      </trkpt>
      <trkpt lat="43.3692850" lon="-3.2149060">
        <ele>72.2</ele>
        <time>2022-01-16T09:44:23Z</time>
      </trkpt>
      <trkpt lat="43.3693420" lon="-3.2149670">
        <ele>72.4</ele>
        <time>2022-01-16T09:44:24Z</time>
      </trkpt>
      <trkpt lat="43.3694090" lon="-3.2150070">
        <ele>72.4</ele>
        <time>2022-01-16T09:44:25Z</time>
      </trkpt>
      <trkpt lat="43.3694840" lon="-3.2150210">
        <ele>72.4</ele>
        <time>2022-01-16T09:44:26Z</time>
      </trkpt>
      <trkpt lat="43.3695600" lon="-3.2150120">
        <ele>72.4</ele>
        <time>2022-01-16T09:44:27Z</time>
      </trkpt>
      <trkpt lat="43.3696330" lon="-3.2149980">
        <ele>72.4</ele>
        <time>2022-01-16T09:44:28Z</time>
      </trkpt>
      <trkpt lat="43.3697030" lon="-3.2149890">
        <ele>72.4</ele>
        <time>2022-01-16T09:44:29Z</time>
      </trkpt>
      <trkpt lat="43.3697700" lon="-3.2149830">
        <ele>72.6</ele>
        <time>2022-01-16T09:44:30Z</time>
      </trkpt>
      <trkpt lat="43.3698300" lon="-3.2149710">
        <ele>72.6</ele>
        <time>2022-01-16T09:44:31Z</time>
      </trkpt>
      <trkpt lat="43.3698870" lon="-3.2149540">
        <ele>72.8</ele>
        <time>2022-01-16T09:44:32Z</time>
      </trkpt>
      <trkpt lat="43.3699430" lon="-3.2149340">
        <ele>73.2</ele>
        <time>2022-01-16T09:44:33Z</time>
      </trkpt>
      <trkpt lat="43.3700030" lon="-3.2149160">
        <ele>73.4</ele>
        <time>2022-01-16T09:44:34Z</time>
      </trkpt>
      <trkpt lat="43.3700670" lon="-3.2149010">
        <ele>73.8</ele>
        <time>2022-01-16T09:44:35Z</time>
      </trkpt>
      <trkpt lat="43.3701300" lon="-3.2148850">
        <ele>74.0</ele>
        <time>2022-01-16T09:44:36Z</time>
      </trkpt>
      <trkpt lat="43.3701900" lon="-3.2148670">
        <ele>74.2</ele>
        <time>2022-01-16T09:44:37Z</time>
      </trkpt>
      <trkpt lat="43.3702470" lon="-3.2148500">
        <ele>74.6</ele>
        <time>2022-01-16T09:44:38Z</time>
      </trkpt>
      <trkpt lat="43.3703020" lon="-3.2148330">
        <ele>75.0</ele>
        <time>2022-01-16T09:44:39Z</time>
      </trkpt>
      <trkpt lat="43.3703540" lon="-3.2148170">
        <ele>75.2</ele>
        <time>2022-01-16T09:44:40Z</time>
      </trkpt>
      <trkpt lat="43.3704040" lon="-3.2147950">
        <ele>75.4</ele>
        <time>2022-01-16T09:44:41Z</time>
      </trkpt>
      <trkpt lat="43.3704510" lon="-3.2147710">
        <ele>75.8</ele>
        <time>2022-01-16T09:44:42Z</time>
      </trkpt>
      <trkpt lat="43.3705020" lon="-3.2147530">
        <ele>76.0</ele>
        <time>2022-01-16T09:44:43Z</time>
      </trkpt>
      <trkpt lat="43.3705550" lon="-3.2147370">
        <ele>76.2</ele>
        <time>2022-01-16T09:44:44Z</time>
      </trkpt>
      <trkpt lat="43.3706110" lon="-3.2147190">
        <ele>76.6</ele>
        <time>2022-01-16T09:44:45Z</time>
      </trkpt>
      <trkpt lat="43.3706660" lon="-3.2147000">
        <ele>76.8</ele>
        <time>2022-01-16T09:44:46Z</time>
      </trkpt>
      <trkpt lat="43.3707230" lon="-3.2146860">
        <ele>77.2</ele>
        <time>2022-01-16T09:44:47Z</time>
      </trkpt>
      <trkpt lat="43.3707790" lon="-3.2146710">
        <ele>77.6</ele>
        <time>2022-01-16T09:44:48Z</time>
      </trkpt>
      <trkpt lat="43.3708360" lon="-3.2146560">
        <ele>77.8</ele>
        <time>2022-01-16T09:44:49Z</time>
      </trkpt>
      <trkpt lat="43.3708910" lon="-3.2146360">
        <ele>78.2</ele>
        <time>2022-01-16T09:44:50Z</time>
      </trkpt>
      <trkpt lat="43.3709470" lon="-3.2146130">
        <ele>78.4</ele>
        <time>2022-01-16T09:44:51Z</time>
      </trkpt>
      <trkpt lat="43.3710020" lon="-3.2145920">
        <ele>78.8</ele>
        <time>2022-01-16T09:44:52Z</time>
      </trkpt>
      <trkpt lat="43.3710550" lon="-3.2145720">
        <ele>79.2</ele>
        <time>2022-01-16T09:44:53Z</time>
      </trkpt>
      <trkpt lat="43.3711180" lon="-3.2145570">
        <ele>79.4</ele>
        <time>2022-01-16T09:44:54Z</time>
      </trkpt>
      <trkpt lat="43.3711750" lon="-3.2145360">
        <ele>79.6</ele>
        <time>2022-01-16T09:44:55Z</time>
      </trkpt>
      <trkpt lat="43.3712370" lon="-3.2145200">
        <ele>80.0</ele>
        <time>2022-01-16T09:44:56Z</time>
      </trkpt>
      <trkpt lat="43.3712970" lon="-3.2145030">
        <ele>80.6</ele>
        <time>2022-01-16T09:44:57Z</time>
      </trkpt>
      <trkpt lat="43.3713530" lon="-3.2144850">
        <ele>81.0</ele>
        <time>2022-01-16T09:44:58Z</time>
      </trkpt>
      <trkpt lat="43.3714070" lon="-3.2144720">
        <ele>81.4</ele>
        <time>2022-01-16T09:44:59Z</time>
      </trkpt>
      <trkpt lat="43.3714690" lon="-3.2144610">
        <ele>81.6</ele>
        <time>2022-01-16T09:45:00Z</time>
      </trkpt>
      <trkpt lat="43.3715300" lon="-3.2144500">
        <ele>82.0</ele>
        <time>2022-01-16T09:45:01Z</time>
      </trkpt>
      <trkpt lat="43.3715920" lon="-3.2144390">
        <ele>82.2</ele>
        <time>2022-01-16T09:45:02Z</time>
      </trkpt>
      <trkpt lat="43.3716520" lon="-3.2144280">
        <ele>82.4</ele>
        <time>2022-01-16T09:45:03Z</time>
      </trkpt>
      <trkpt lat="43.3717140" lon="-3.2144170">
        <ele>82.6</ele>
        <time>2022-01-16T09:45:04Z</time>
      </trkpt>
      <trkpt lat="43.3717770" lon="-3.2144030">
        <ele>82.8</ele>
        <time>2022-01-16T09:45:05Z</time>
      </trkpt>
      <trkpt lat="43.3718390" lon="-3.2143870">
        <ele>82.8</ele>
        <time>2022-01-16T09:45:06Z</time>
      </trkpt>
      <trkpt lat="43.3719010" lon="-3.2143710">
        <ele>83.0</ele>
        <time>2022-01-16T09:45:07Z</time>
      </trkpt>
      <trkpt lat="43.3719660" lon="-3.2143560">
        <ele>83.0</ele>
        <time>2022-01-16T09:45:08Z</time>
      </trkpt>
      <trkpt lat="43.3720320" lon="-3.2143410">
        <ele>82.8</ele>
        <time>2022-01-16T09:45:09Z</time>
      </trkpt>
      <trkpt lat="43.3720990" lon="-3.2143260">
        <ele>83.0</ele>
        <time>2022-01-16T09:45:10Z</time>
      </trkpt>
      <trkpt lat="43.3721670" lon="-3.2143140">
        <ele>83.0</ele>
        <time>2022-01-16T09:45:11Z</time>
      </trkpt>
      <trkpt lat="43.3722340" lon="-3.2143020">
        <ele>83.0</ele>
        <time>2022-01-16T09:45:12Z</time>
      </trkpt>
      <trkpt lat="43.3723010" lon="-3.2142940">
        <ele>83.0</ele>
        <time>2022-01-16T09:45:13Z</time>
      </trkpt>
      <trkpt lat="43.3723700" lon="-3.2142860">
        <ele>82.8</ele>
        <time>2022-01-16T09:45:14Z</time>
      </trkpt>
      <trkpt lat="43.3724390" lon="-3.2142830">
        <ele>82.8</ele>
        <time>2022-01-16T09:45:15Z</time>
      </trkpt>
      <trkpt lat="43.3725090" lon="-3.2142870">
        <ele>82.8</ele>
        <time>2022-01-16T09:45:16Z</time>
      </trkpt>
      <trkpt lat="43.3725790" lon="-3.2142960">
        <ele>82.8</ele>
        <time>2022-01-16T09:45:17Z</time>
      </trkpt>
      <trkpt lat="43.3726500" lon="-3.2143100">
        <ele>82.8</ele>
        <time>2022-01-16T09:45:18Z</time>
      </trkpt>
      <trkpt lat="43.3727210" lon="-3.2143310">
        <ele>82.8</ele>
        <time>2022-01-16T09:45:19Z</time>
      </trkpt>
      <trkpt lat="43.3727920" lon="-3.2143510">
        <ele>82.8</ele>
        <time>2022-01-16T09:45:20Z</time>
      </trkpt>
      <trkpt lat="43.3728630" lon="-3.2143700">
        <ele>82.8</ele>
        <time>2022-01-16T09:45:21Z</time>
      </trkpt>
      <trkpt lat="43.3729340" lon="-3.2143910">
        <ele>82.8</ele>
        <time>2022-01-16T09:45:22Z</time>
      </trkpt>
      <trkpt lat="43.3730040" lon="-3.2144180">
        <ele>82.8</ele>
        <time>2022-01-16T09:45:23Z</time>
      </trkpt>
      <trkpt lat="43.3730770" lon="-3.2144490">
        <ele>82.8</ele>
        <time>2022-01-16T09:45:24Z</time>
      </trkpt>
      <trkpt lat="43.3731500" lon="-3.2144790">
        <ele>82.6</ele>
        <time>2022-01-16T09:45:25Z</time>
      </trkpt>
      <trkpt lat="43.3732230" lon="-3.2145100">
        <ele>82.4</ele>
        <time>2022-01-16T09:45:26Z</time>
      </trkpt>
      <trkpt lat="43.3732970" lon="-3.2145320">
        <ele>82.4</ele>
        <time>2022-01-16T09:45:27Z</time>
      </trkpt>
      <trkpt lat="43.3733710" lon="-3.2145620">
        <ele>82.2</ele>
        <time>2022-01-16T09:45:28Z</time>
      </trkpt>
      <trkpt lat="43.3734440" lon="-3.2146020">
        <ele>82.2</ele>
        <time>2022-01-16T09:45:29Z</time>
      </trkpt>
      <trkpt lat="43.3735180" lon="-3.2146320">
        <ele>82.0</ele>
        <time>2022-01-16T09:45:30Z</time>
      </trkpt>
      <trkpt lat="43.3735920" lon="-3.2146650">
        <ele>82.0</ele>
        <time>2022-01-16T09:45:31Z</time>
      </trkpt>
      <trkpt lat="43.3736680" lon="-3.2146950">
        <ele>82.0</ele>
        <time>2022-01-16T09:45:32Z</time>
      </trkpt>
      <trkpt lat="43.3737420" lon="-3.2147290">
        <ele>82.0</ele>
        <time>2022-01-16T09:45:33Z</time>
      </trkpt>
      <trkpt lat="43.3738170" lon="-3.2147600">
        <ele>82.0</ele>
        <time>2022-01-16T09:45:34Z</time>
      </trkpt>
      <trkpt lat="43.3738930" lon="-3.2147880">
        <ele>82.0</ele>
        <time>2022-01-16T09:45:35Z</time>
      </trkpt>
      <trkpt lat="43.3739690" lon="-3.2148150">
        <ele>82.0</ele>
        <time>2022-01-16T09:45:36Z</time>
      </trkpt>
      <trkpt lat="43.3740440" lon="-3.2148420">
        <ele>82.0</ele>
        <time>2022-01-16T09:45:37Z</time>
      </trkpt>
      <trkpt lat="43.3741190" lon="-3.2148740">
        <ele>82.0</ele>
        <time>2022-01-16T09:45:38Z</time>
      </trkpt>
      <trkpt lat="43.3741960" lon="-3.2149120">
        <ele>82.0</ele>
        <time>2022-01-16T09:45:39Z</time>
      </trkpt>
      <trkpt lat="43.3742730" lon="-3.2149440">
        <ele>82.0</ele>
        <time>2022-01-16T09:45:40Z</time>
      </trkpt>
      <trkpt lat="43.3743500" lon="-3.2149720">
        <ele>82.0</ele>
        <time>2022-01-16T09:45:41Z</time>
      </trkpt>
      <trkpt lat="43.3744280" lon="-3.2150180">
        <ele>82.0</ele>
        <time>2022-01-16T09:45:42Z</time>
      </trkpt>
      <trkpt lat="43.3745060" lon="-3.2150530">
        <ele>82.0</ele>
        <time>2022-01-16T09:45:43Z</time>
      </trkpt>
      <trkpt lat="43.3745860" lon="-3.2150820">
        <ele>81.8</ele>
        <time>2022-01-16T09:45:44Z</time>
      </trkpt>
      <trkpt lat="43.3746650" lon="-3.2151130">
        <ele>81.8</ele>
        <time>2022-01-16T09:45:45Z</time>
      </trkpt>
      <trkpt lat="43.3747430" lon="-3.2151470">
        <ele>81.8</ele>
        <time>2022-01-16T09:45:46Z</time>
      </trkpt>
      <trkpt lat="43.3748210" lon="-3.2151810">
        <ele>81.6</ele>
        <time>2022-01-16T09:45:47Z</time>
      </trkpt>
      <trkpt lat="43.3749000" lon="-3.2152230">
        <ele>81.4</ele>
        <time>2022-01-16T09:45:48Z</time>
      </trkpt>
      <trkpt lat="43.3749790" lon="-3.2152630">
        <ele>81.2</ele>
        <time>2022-01-16T09:45:49Z</time>
      </trkpt>
      <trkpt lat="43.3750580" lon="-3.2152940">
        <ele>81.2</ele>
        <time>2022-01-16T09:45:50Z</time>
      </trkpt>
      <trkpt lat="43.3751380" lon="-3.2153250">
        <ele>81.2</ele>
        <time>2022-01-16T09:45:51Z</time>
      </trkpt>
      <trkpt lat="43.3752180" lon="-3.2153560">
        <ele>81.2</ele>
        <time>2022-01-16T09:45:52Z</time>
      </trkpt>
      <trkpt lat="43.3752990" lon="-3.2153860">
        <ele>81.2</ele>
        <time>2022-01-16T09:45:53Z</time>
      </trkpt>
      <trkpt lat="43.3753810" lon="-3.2154160">
        <ele>81.2</ele>
        <time>2022-01-16T09:45:54Z</time>
      </trkpt>
      <trkpt lat="43.3754620" lon="-3.2154470">
        <ele>81.2</ele>
        <time>2022-01-16T09:45:55Z</time>
      </trkpt>
      <trkpt lat="43.3755440" lon="-3.2154810">
        <ele>81.2</ele>
        <time>2022-01-16T09:45:56Z</time>
      </trkpt>
      <trkpt lat="43.3756250" lon="-3.2155180">
        <ele>80.8</ele>
        <time>2022-01-16T09:45:57Z</time>
      </trkpt>
      <trkpt lat="43.3757070" lon="-3.2155560">
        <ele>80.8</ele>
        <time>2022-01-16T09:45:58Z</time>
      </trkpt>
      <trkpt lat="43.3757880" lon="-3.2155930">
        <ele>80.6</ele>
        <time>2022-01-16T09:45:59Z</time>
      </trkpt>
      <trkpt lat="43.3758720" lon="-3.2156250">
        <ele>80.6</ele>
        <time>2022-01-16T09:46:00Z</time>
      </trkpt>
      <trkpt lat="43.3759550" lon="-3.2156590">
        <ele>80.6</ele>
        <time>2022-01-16T09:46:01Z</time>
      </trkpt>
      <trkpt lat="43.3760390" lon="-3.2156930">
        <ele>80.6</ele>
        <time>2022-01-16T09:46:02Z</time>
      </trkpt>
      <trkpt lat="43.3761230" lon="-3.2157250">
        <ele>80.6</ele>
        <time>2022-01-16T09:46:03Z</time>
      </trkpt>
      <trkpt lat="43.3762070" lon="-3.2157580">
        <ele>80.4</ele>
        <time>2022-01-16T09:46:04Z</time>
      </trkpt>
      <trkpt lat="43.3762910" lon="-3.2157900">
        <ele>80.4</ele>
        <time>2022-01-16T09:46:05Z</time>
      </trkpt>
      <trkpt lat="43.3763750" lon="-3.2158230">
        <ele>80.2</ele>
        <time>2022-01-16T09:46:06Z</time>
      </trkpt>
      <trkpt lat="43.3764590" lon="-3.2158530">
        <ele>80.0</ele>
        <time>2022-01-16T09:46:07Z</time>
      </trkpt>
      <trkpt lat="43.3765460" lon="-3.2158850">
        <ele>79.8</ele>
        <time>2022-01-16T09:46:08Z</time>
      </trkpt>
      <trkpt lat="43.3766320" lon="-3.2159180">
        <ele>79.6</ele>
        <time>2022-01-16T09:46:09Z</time>
      </trkpt>
      <trkpt lat="43.3767190" lon="-3.2159530">
        <ele>79.6</ele>
        <time>2022-01-16T09:46:10Z</time>
      </trkpt>
      <trkpt lat="43.3768050" lon="-3.2159880">
        <ele>79.4</ele>
        <time>2022-01-16T09:46:11Z</time>
      </trkpt>
      <trkpt lat="43.3768900" lon="-3.2160220">
        <ele>79.4</ele>
        <time>2022-01-16T09:46:12Z</time>
      </trkpt>
      <trkpt lat="43.3769750" lon="-3.2160530">
        <ele>79.2</ele>
        <time>2022-01-16T09:46:13Z</time>
      </trkpt>
      <trkpt lat="43.3770600" lon="-3.2160860">
        <ele>79.2</ele>
        <time>2022-01-16T09:46:14Z</time>
      </trkpt>
      <trkpt lat="43.3771440" lon="-3.2161160">
        <ele>79.0</ele>
        <time>2022-01-16T09:46:15Z</time>
      </trkpt>
      <trkpt lat="43.3772270" lon="-3.2161460">
        <ele>78.8</ele>
        <time>2022-01-16T09:46:16Z</time>
      </trkpt>
      <trkpt lat="43.3773110" lon="-3.2161750">
        <ele>78.8</ele>
        <time>2022-01-16T09:46:17Z</time>
      </trkpt>
      <trkpt lat="43.3773930" lon="-3.2162090">
        <ele>78.6</ele>
        <time>2022-01-16T09:46:18Z</time>
      </trkpt>
      <trkpt lat="43.3774750" lon="-3.2162380">
        <ele>78.4</ele>
        <time>2022-01-16T09:46:19Z</time>
      </trkpt>
      <trkpt lat="43.3775570" lon="-3.2162640">
        <ele>78.4</ele>
        <time>2022-01-16T09:46:20Z</time>
      </trkpt>
      <trkpt lat="43.3776390" lon="-3.2162930">
        <ele>78.2</ele>
        <time>2022-01-16T09:46:21Z</time>
      </trkpt>
      <trkpt lat="43.3777220" lon="-3.2163250">
        <ele>78.2</ele>
        <time>2022-01-16T09:46:22Z</time>
      </trkpt>
      <trkpt lat="43.3778030" lon="-3.2163570">
        <ele>78.0</ele>
        <time>2022-01-16T09:46:23Z</time>
      </trkpt>
      <trkpt lat="43.3778840" lon="-3.2163890">
        <ele>78.0</ele>
        <time>2022-01-16T09:46:24Z</time>
      </trkpt>
      <trkpt lat="43.3779670" lon="-3.2164200">
        <ele>77.8</ele>
        <time>2022-01-16T09:46:25Z</time>
      </trkpt>
      <trkpt lat="43.3780480" lon="-3.2164520">
        <ele>77.6</ele>
        <time>2022-01-16T09:46:26Z</time>
      </trkpt>
      <trkpt lat="43.3781290" lon="-3.2164800">
        <ele>77.6</ele>
        <time>2022-01-16T09:46:27Z</time>
      </trkpt>
      <trkpt lat="43.3782110" lon="-3.2165120">
        <ele>77.4</ele>
        <time>2022-01-16T09:46:28Z</time>
      </trkpt>
      <trkpt lat="43.3782930" lon="-3.2165380">
        <ele>77.4</ele>
        <time>2022-01-16T09:46:29Z</time>
      </trkpt>
      <trkpt lat="43.3783750" lon="-3.2165590">
        <ele>77.4</ele>
        <time>2022-01-16T09:46:30Z</time>
      </trkpt>
      <trkpt lat="43.3784560" lon="-3.2165950">
        <ele>77.2</ele>
        <time>2022-01-16T09:46:31Z</time>
      </trkpt>
      <trkpt lat="43.3785380" lon="-3.2166260">
        <ele>77.0</ele>
        <time>2022-01-16T09:46:32Z</time>
      </trkpt>
      <trkpt lat="43.3786200" lon="-3.2166560">
        <ele>76.8</ele>
        <time>2022-01-16T09:46:33Z</time>
      </trkpt>
      <trkpt lat="43.3787010" lon="-3.2166890">
        <ele>76.6</ele>
        <time>2022-01-16T09:46:34Z</time>
      </trkpt>
      <trkpt lat="43.3787820" lon="-3.2167260">
        <ele>76.4</ele>
        <time>2022-01-16T09:46:35Z</time>
      </trkpt>
      <trkpt lat="43.3788620" lon="-3.2167600">
        <ele>76.4</ele>
        <time>2022-01-16T09:46:36Z</time>
      </trkpt>
      <trkpt lat="43.3789430" lon="-3.2167960">
        <ele>76.4</ele>
        <time>2022-01-16T09:46:37Z</time>
      </trkpt>
      <trkpt lat="43.3790240" lon="-3.2168310">
        <ele>76.2</ele>
        <time>2022-01-16T09:46:38Z</time>
      </trkpt>
      <trkpt lat="43.3791050" lon="-3.2168630">
        <ele>76.2</ele>
        <time>2022-01-16T09:46:39Z</time>
      </trkpt>
      <trkpt lat="43.3791850" lon="-3.2169010">
        <ele>76.0</ele>
        <time>2022-01-16T09:46:40Z</time>
      </trkpt>
      <trkpt lat="43.3792670" lon="-3.2169390">
        <ele>76.0</ele>
        <time>2022-01-16T09:46:41Z</time>
      </trkpt>
      <trkpt lat="43.3793490" lon="-3.2169760">
        <ele>75.8</ele>
        <time>2022-01-16T09:46:42Z</time>
      </trkpt>
      <trkpt lat="43.3794310" lon="-3.2170120">
        <ele>75.6</ele>
        <time>2022-01-16T09:46:43Z</time>
      </trkpt>
      <trkpt lat="43.3795130" lon="-3.2170450">
        <ele>75.6</ele>
        <time>2022-01-16T09:46:44Z</time>
      </trkpt>
      <trkpt lat="43.3795940" lon="-3.2170790">
        <ele>75.4</ele>
        <time>2022-01-16T09:46:45Z</time>
      </trkpt>
      <trkpt lat="43.3796740" lon="-3.2171160">
        <ele>75.2</ele>
        <time>2022-01-16T09:46:46Z</time>
      </trkpt>
      <trkpt lat="43.3797530" lon="-3.2171520">
        <ele>75.2</ele>
        <time>2022-01-16T09:46:47Z</time>
      </trkpt>
      <trkpt lat="43.3798320" lon="-3.2171880">
        <ele>75.2</ele>
        <time>2022-01-16T09:46:48Z</time>
      </trkpt>
      <trkpt lat="43.3799100" lon="-3.2172250">
        <ele>75.2</ele>
        <time>2022-01-16T09:46:49Z</time>
      </trkpt>
      <trkpt lat="43.3799850" lon="-3.2172680">
        <ele>75.0</ele>
        <time>2022-01-16T09:46:50Z</time>
      </trkpt>
      <trkpt lat="43.3800550" lon="-3.2173210">
        <ele>75.0</ele>
        <time>2022-01-16T09:46:51Z</time>
      </trkpt>
      <trkpt lat="43.3801210" lon="-3.2173770">
        <ele>75.0</ele>
        <time>2022-01-16T09:46:52Z</time>
      </trkpt>
      <trkpt lat="43.3801790" lon="-3.2174410">
        <ele>75.0</ele>
        <time>2022-01-16T09:46:53Z</time>
      </trkpt>
      <trkpt lat="43.3802220" lon="-3.2175170">
        <ele>75.0</ele>
        <time>2022-01-16T09:46:54Z</time>
      </trkpt>
      <trkpt lat="43.3802430" lon="-3.2176010">
        <ele>75.0</ele>
        <time>2022-01-16T09:46:55Z</time>
      </trkpt>
      <trkpt lat="43.3802480" lon="-3.2176840">
        <ele>75.2</ele>
        <time>2022-01-16T09:46:56Z</time>
      </trkpt>
      <trkpt lat="43.3802440" lon="-3.2177600">
        <ele>75.4</ele>
        <time>2022-01-16T09:46:57Z</time>
      </trkpt>
      <trkpt lat="43.3802240" lon="-3.2178300">
        <ele>75.4</ele>
        <time>2022-01-16T09:46:58Z</time>
      </trkpt>
      <trkpt lat="43.3802030" lon="-3.2178990">
        <ele>75.6</ele>
        <time>2022-01-16T09:46:59Z</time>
      </trkpt>
      <trkpt lat="43.3801700" lon="-3.2179730">
        <ele>75.8</ele>
        <time>2022-01-16T09:47:00Z</time>
      </trkpt>
      <trkpt lat="43.3801320" lon="-3.2180570">
        <ele>76.0</ele>
        <time>2022-01-16T09:47:01Z</time>
      </trkpt>
      <trkpt lat="43.3800950" lon="-3.2181390">
        <ele>76.2</ele>
        <time>2022-01-16T09:47:02Z</time>
      </trkpt>
      <trkpt lat="43.3800500" lon="-3.2182540">
        <ele>76.4</ele>
        <time>2022-01-16T09:47:03Z</time>
      </trkpt>
      <trkpt lat="43.3800020" lon="-3.2183690">
        <ele>76.6</ele>
        <time>2022-01-16T09:47:04Z</time>
      </trkpt>
      <trkpt lat="43.3799580" lon="-3.2184740">
        <ele>76.8</ele>
        <time>2022-01-16T09:47:05Z</time>
      </trkpt>
      <trkpt lat="43.3799200" lon="-3.2185700">
        <ele>77.0</ele>
        <time>2022-01-16T09:47:06Z</time>
      </trkpt>
      <trkpt lat="43.3799060" lon="-3.2186580">
        <ele>77.0</ele>
        <time>2022-01-16T09:47:07Z</time>
      </trkpt>
      <trkpt lat="43.3799150" lon="-3.2187510">
        <ele>77.2</ele>
        <time>2022-01-16T09:47:08Z</time>
      </trkpt>
      <trkpt lat="43.3799210" lon="-3.2188520">
        <ele>77.4</ele>
        <time>2022-01-16T09:47:09Z</time>
      </trkpt>
      <trkpt lat="43.3799400" lon="-3.2189680">
        <ele>77.4</ele>
        <time>2022-01-16T09:47:10Z</time>
      </trkpt>
      <trkpt lat="43.3799660" lon="-3.2190580">
        <ele>77.6</ele>
        <time>2022-01-16T09:47:11Z</time>
      </trkpt>
      <trkpt lat="43.3800010" lon="-3.2191220">
        <ele>78.0</ele>
        <time>2022-01-16T09:47:12Z</time>
      </trkpt>
      <trkpt lat="43.3800410" lon="-3.2191730">
        <ele>78.2</ele>
        <time>2022-01-16T09:47:13Z</time>
      </trkpt>
      <trkpt lat="43.3800820" lon="-3.2192120">
        <ele>78.4</ele>
        <time>2022-01-16T09:47:14Z</time>
      </trkpt>
      <trkpt lat="43.3801260" lon="-3.2192380">
        <ele>78.4</ele>
        <time>2022-01-16T09:47:15Z</time>
      </trkpt>
      <trkpt lat="43.3801860" lon="-3.2192530">
        <ele>78.6</ele>
        <time>2022-01-16T09:47:16Z</time>
      </trkpt>
      <trkpt lat="43.3802370" lon="-3.2192820">
        <ele>78.6</ele>
        <time>2022-01-16T09:47:17Z</time>
      </trkpt>
      <trkpt lat="43.3802670" lon="-3.2193780">
        <ele>78.8</ele>
        <time>2022-01-16T09:47:18Z</time>
      </trkpt>
      <trkpt lat="43.3803230" lon="-3.2194150">
        <ele>78.8</ele>
        <time>2022-01-16T09:47:19Z</time>
      </trkpt>
      <trkpt lat="43.3803830" lon="-3.2194490">
        <ele>78.8</ele>
        <time>2022-01-16T09:47:20Z</time>
      </trkpt>
      <trkpt lat="43.3804410" lon="-3.2194920">
        <ele>78.8</ele>
        <time>2022-01-16T09:47:21Z</time>
      </trkpt>
      <trkpt lat="43.3805030" lon="-3.2195290">
        <ele>78.8</ele>
        <time>2022-01-16T09:47:22Z</time>
      </trkpt>
      <trkpt lat="43.3805750" lon="-3.2195730">
        <ele>78.8</ele>
        <time>2022-01-16T09:47:23Z</time>
      </trkpt>
      <trkpt lat="43.3806310" lon="-3.2196130">
        <ele>78.6</ele>
        <time>2022-01-16T09:47:24Z</time>
      </trkpt>
      <trkpt lat="43.3806770" lon="-3.2196740">
        <ele>78.6</ele>
        <time>2022-01-16T09:47:25Z</time>
      </trkpt>
      <trkpt lat="43.3807310" lon="-3.2197310">
        <ele>78.6</ele>
        <time>2022-01-16T09:47:26Z</time>
      </trkpt>
      <trkpt lat="43.3807950" lon="-3.2197750">
        <ele>78.6</ele>
        <time>2022-01-16T09:47:27Z</time>
      </trkpt>
      <trkpt lat="43.3808510" lon="-3.2198670">
        <ele>78.6</ele>
        <time>2022-01-16T09:47:28Z</time>
      </trkpt>
      <trkpt lat="43.3809180" lon="-3.2199120">
        <ele>78.6</ele>
        <time>2022-01-16T09:47:29Z</time>
      </trkpt>
      <trkpt lat="43.3809850" lon="-3.2199540">
        <ele>78.4</ele>
        <time>2022-01-16T09:47:30Z</time>
      </trkpt>
      <trkpt lat="43.3810450" lon="-3.2199750">
        <ele>78.4</ele>
        <time>2022-01-16T09:47:31Z</time>
      </trkpt>
      <trkpt lat="43.3811070" lon="-3.2199960">
        <ele>78.6</ele>
        <time>2022-01-16T09:47:32Z</time>
      </trkpt>
      <trkpt lat="43.3811690" lon="-3.2200200">
        <ele>78.2</ele>
        <time>2022-01-16T09:47:33Z</time>
      </trkpt>
      <trkpt lat="43.3812380" lon="-3.2200530">
        <ele>78.2</ele>
        <time>2022-01-16T09:47:34Z</time>
      </trkpt>
      <trkpt lat="43.3813070" lon="-3.2200830">
        <ele>78.2</ele>
        <time>2022-01-16T09:47:35Z</time>
      </trkpt>
      <trkpt lat="43.3813910" lon="-3.2201140">
        <ele>78.0</ele>
        <time>2022-01-16T09:47:36Z</time>
      </trkpt>
      <trkpt lat="43.3814720" lon="-3.2201420">
        <ele>77.8</ele>
        <time>2022-01-16T09:47:37Z</time>
      </trkpt>
      <trkpt lat="43.3815500" lon="-3.2201740">
        <ele>78.0</ele>
        <time>2022-01-16T09:47:38Z</time>
      </trkpt>
      <trkpt lat="43.3816080" lon="-3.2202200">
        <ele>78.0</ele>
        <time>2022-01-16T09:47:39Z</time>
      </trkpt>
      <trkpt lat="43.3816650" lon="-3.2202400">
        <ele>77.8</ele>
        <time>2022-01-16T09:47:40Z</time>
      </trkpt>
      <trkpt lat="43.3817100" lon="-3.2202630">
        <ele>77.8</ele>
        <time>2022-01-16T09:47:41Z</time>
      </trkpt>
      <trkpt lat="43.3817400" lon="-3.2202850">
        <ele>77.8</ele>
        <time>2022-01-16T09:47:42Z</time>
      </trkpt>
      <trkpt lat="43.3817610" lon="-3.2202940">
        <ele>77.8</ele>
        <time>2022-01-16T09:47:43Z</time>
      </trkpt>
      <trkpt lat="43.3817770" lon="-3.2202930">
        <ele>77.8</ele>
        <time>2022-01-16T09:47:44Z</time>
      </trkpt>
      <trkpt lat="43.3817980" lon="-3.2202970">
        <ele>77.8</ele>
        <time>2022-01-16T09:47:45Z</time>
      </trkpt>
      <trkpt lat="43.3818460" lon="-3.2203460">
        <ele>78.0</ele>
        <time>2022-01-16T09:47:46Z</time>
      </trkpt>
      <trkpt lat="43.3818820" lon="-3.2203850">
        <ele>78.0</ele>
        <time>2022-01-16T09:47:47Z</time>
      </trkpt>
      <trkpt lat="43.3819180" lon="-3.2204250">
        <ele>78.2</ele>
        <time>2022-01-16T09:47:48Z</time>
      </trkpt>
      <trkpt lat="43.3819550" lon="-3.2204650">
        <ele>77.6</ele>
        <time>2022-01-16T09:48:09Z</time>
      </trkpt>
      <trkpt lat="43.3819910" lon="-3.2205050">
        <ele>77.4</ele>
        <time>2022-01-16T09:48:10Z</time>
      </trkpt>
      <trkpt lat="43.3820570" lon="-3.2205160">
        <ele>77.2</ele>
        <time>2022-01-16T09:48:11Z</time>
      </trkpt>
      <trkpt lat="43.3821360" lon="-3.2205330">
        <ele>77.2</ele>
        <time>2022-01-16T09:48:12Z</time>
      </trkpt>
      <trkpt lat="43.3822180" lon="-3.2205480">
        <ele>77.2</ele>
        <time>2022-01-16T09:48:13Z</time>
      </trkpt>
      <trkpt lat="43.3822900" lon="-3.2205580">
        <ele>77.0</ele>
        <time>2022-01-16T09:48:14Z</time>
      </trkpt>
      <trkpt lat="43.3823570" lon="-3.2205710">
        <ele>77.0</ele>
        <time>2022-01-16T09:48:15Z</time>
      </trkpt>
      <trkpt lat="43.3824420" lon="-3.2205930">
        <ele>76.8</ele>
        <time>2022-01-16T09:48:16Z</time>
      </trkpt>
      <trkpt lat="43.3825140" lon="-3.2206080">
        <ele>76.6</ele>
        <time>2022-01-16T09:48:17Z</time>
      </trkpt>
      <trkpt lat="43.3825880" lon="-3.2206260">
        <ele>76.4</ele>
        <time>2022-01-16T09:48:18Z</time>
      </trkpt>
      <trkpt lat="43.3826830" lon="-3.2206480">
        <ele>76.2</ele>
        <time>2022-01-16T09:48:19Z</time>
      </trkpt>
      <trkpt lat="43.3827760" lon="-3.2206660">
        <ele>76.0</ele>
        <time>2022-01-16T09:48:20Z</time>
      </trkpt>
      <trkpt lat="43.3828650" lon="-3.2206800">
        <ele>75.8</ele>
        <time>2022-01-16T09:48:21Z</time>
      </trkpt>
      <trkpt lat="43.3829560" lon="-3.2206870">
        <ele>75.6</ele>
        <time>2022-01-16T09:48:22Z</time>
      </trkpt>
      <trkpt lat="43.3830170" lon="-3.2207890">
        <ele>75.4</ele>
        <time>2022-01-16T09:48:23Z</time>
      </trkpt>
      <trkpt lat="43.3830920" lon="-3.2208320">
        <ele>75.2</ele>
        <time>2022-01-16T09:48:24Z</time>
      </trkpt>
      <trkpt lat="43.3831670" lon="-3.2208800">
        <ele>75.2</ele>
        <time>2022-01-16T09:48:25Z</time>
      </trkpt>
      <trkpt lat="43.3832400" lon="-3.2208840">
        <ele>75.0</ele>
        <time>2022-01-16T09:48:26Z</time>
      </trkpt>
      <trkpt lat="43.3833020" lon="-3.2209090">
        <ele>75.0</ele>
        <time>2022-01-16T09:48:27Z</time>
      </trkpt>
      <trkpt lat="43.3833590" lon="-3.2209240">
        <ele>75.0</ele>
        <time>2022-01-16T09:48:28Z</time>
      </trkpt>
      <trkpt lat="43.3834140" lon="-3.2209390">
        <ele>75.0</ele>
        <time>2022-01-16T09:48:29Z</time>
      </trkpt>
      <trkpt lat="43.3834650" lon="-3.2209390">
        <ele>75.0</ele>
        <time>2022-01-16T09:48:30Z</time>
      </trkpt>
      <trkpt lat="43.3835060" lon="-3.2209300">
        <ele>74.8</ele>
        <time>2022-01-16T09:48:31Z</time>
      </trkpt>
      <trkpt lat="43.3835500" lon="-3.2209330">
        <ele>74.8</ele>
        <time>2022-01-16T09:48:32Z</time>
      </trkpt>
      <trkpt lat="43.3836040" lon="-3.2209510">
        <ele>74.6</ele>
        <time>2022-01-16T09:48:33Z</time>
      </trkpt>
      <trkpt lat="43.3836530" lon="-3.2209790">
        <ele>74.6</ele>
        <time>2022-01-16T09:48:34Z</time>
      </trkpt>
      <trkpt lat="43.3837020" lon="-3.2210160">
        <ele>74.6</ele>
        <time>2022-01-16T09:48:35Z</time>
      </trkpt>
      <trkpt lat="43.3837240" lon="-3.2210670">
        <ele>74.6</ele>
        <time>2022-01-16T09:48:36Z</time>
      </trkpt>
      <trkpt lat="43.3837520" lon="-3.2211250">
        <ele>74.6</ele>
        <time>2022-01-16T09:48:37Z</time>
      </trkpt>
      <trkpt lat="43.3837640" lon="-3.2211900">
        <ele>74.6</ele>
        <time>2022-01-16T09:48:38Z</time>
      </trkpt>
      <trkpt lat="43.3837810" lon="-3.2212680">
        <ele>74.6</ele>
        <time>2022-01-16T09:48:39Z</time>
      </trkpt>
      <trkpt lat="43.3837930" lon="-3.2213560">
        <ele>74.6</ele>
        <time>2022-01-16T09:48:40Z</time>
      </trkpt>
      <trkpt lat="43.3838050" lon="-3.2214510">
        <ele>74.6</ele>
        <time>2022-01-16T09:48:41Z</time>
      </trkpt>
      <trkpt lat="43.3838170" lon="-3.2215480">
        <ele>74.6</ele>
        <time>2022-01-16T09:48:42Z</time>
      </trkpt>
      <trkpt lat="43.3838300" lon="-3.2216480">
        <ele>74.6</ele>
        <time>2022-01-16T09:48:43Z</time>
      </trkpt>
      <trkpt lat="43.3838420" lon="-3.2217470">
        <ele>74.6</ele>
        <time>2022-01-16T09:48:44Z</time>
      </trkpt>
      <trkpt lat="43.3838500" lon="-3.2218430">
        <ele>74.6</ele>
        <time>2022-01-16T09:48:45Z</time>
      </trkpt>
      <trkpt lat="43.3838660" lon="-3.2219390">
        <ele>74.6</ele>
        <time>2022-01-16T09:48:46Z</time>
      </trkpt>
      <trkpt lat="43.3838850" lon="-3.2220280">
        <ele>74.8</ele>
        <time>2022-01-16T09:48:47Z</time>
      </trkpt>
      <trkpt lat="43.3839060" lon="-3.2221280">
        <ele>74.8</ele>
        <time>2022-01-16T09:48:48Z</time>
      </trkpt>
      <trkpt lat="43.3839250" lon="-3.2222310">
        <ele>74.8</ele>
        <time>2022-01-16T09:48:49Z</time>
      </trkpt>
      <trkpt lat="43.3839400" lon="-3.2223250">
        <ele>75.0</ele>
        <time>2022-01-16T09:48:50Z</time>
      </trkpt>
      <trkpt lat="43.3839520" lon="-3.2224300">
        <ele>75.0</ele>
        <time>2022-01-16T09:48:51Z</time>
      </trkpt>
      <trkpt lat="43.3839610" lon="-3.2225310">
        <ele>75.0</ele>
        <time>2022-01-16T09:48:52Z</time>
      </trkpt>
      <trkpt lat="43.3839760" lon="-3.2226250">
        <ele>75.2</ele>
        <time>2022-01-16T09:48:53Z</time>
      </trkpt>
      <trkpt lat="43.3839860" lon="-3.2227230">
        <ele>75.2</ele>
        <time>2022-01-16T09:48:54Z</time>
      </trkpt>
      <trkpt lat="43.3839960" lon="-3.2228170">
        <ele>75.4</ele>
        <time>2022-01-16T09:48:55Z</time>
      </trkpt>
      <trkpt lat="43.3840060" lon="-3.2229110">
        <ele>75.4</ele>
        <time>2022-01-16T09:48:56Z</time>
      </trkpt>
      <trkpt lat="43.3840190" lon="-3.2230080">
        <ele>75.4</ele>
        <time>2022-01-16T09:48:57Z</time>
      </trkpt>
      <trkpt lat="43.3840290" lon="-3.2231190">
        <ele>75.4</ele>
        <time>2022-01-16T09:48:58Z</time>
      </trkpt>
      <trkpt lat="43.3840390" lon="-3.2232280">
        <ele>75.4</ele>
        <time>2022-01-16T09:48:59Z</time>
      </trkpt>
      <trkpt lat="43.3840490" lon="-3.2233320">
        <ele>75.4</ele>
        <time>2022-01-16T09:49:00Z</time>
      </trkpt>
      <trkpt lat="43.3840570" lon="-3.2234340">
        <ele>75.4</ele>
        <time>2022-01-16T09:49:01Z</time>
      </trkpt>
      <trkpt lat="43.3840630" lon="-3.2235480">
        <ele>75.4</ele>
        <time>2022-01-16T09:49:02Z</time>
      </trkpt>
      <trkpt lat="43.3840710" lon="-3.2236540">
        <ele>75.4</ele>
        <time>2022-01-16T09:49:03Z</time>
      </trkpt>
      <trkpt lat="43.3840790" lon="-3.2237590">
        <ele>75.4</ele>
        <time>2022-01-16T09:49:04Z</time>
      </trkpt>
      <trkpt lat="43.3840860" lon="-3.2238610">
        <ele>75.4</ele>
        <time>2022-01-16T09:49:05Z</time>
      </trkpt>
      <trkpt lat="43.3840980" lon="-3.2239630">
        <ele>75.4</ele>
        <time>2022-01-16T09:49:06Z</time>
      </trkpt>
      <trkpt lat="43.3841160" lon="-3.2240640">
        <ele>75.4</ele>
        <time>2022-01-16T09:49:07Z</time>
      </trkpt>
      <trkpt lat="43.3841430" lon="-3.2241510">
        <ele>75.4</ele>
        <time>2022-01-16T09:49:08Z</time>
      </trkpt>
      <trkpt lat="43.3841790" lon="-3.2242360">
        <ele>75.4</ele>
        <time>2022-01-16T09:49:09Z</time>
      </trkpt>
      <trkpt lat="43.3842220" lon="-3.2243120">
        <ele>75.6</ele>
        <time>2022-01-16T09:49:10Z</time>
      </trkpt>
      <trkpt lat="43.3842710" lon="-3.2243810">
        <ele>75.6</ele>
        <time>2022-01-16T09:49:11Z</time>
      </trkpt>
      <trkpt lat="43.3843220" lon="-3.2244430">
        <ele>75.8</ele>
        <time>2022-01-16T09:49:12Z</time>
      </trkpt>
      <trkpt lat="43.3843720" lon="-3.2245030">
        <ele>76.0</ele>
        <time>2022-01-16T09:49:13Z</time>
      </trkpt>
      <trkpt lat="43.3844210" lon="-3.2245650">
        <ele>76.0</ele>
        <time>2022-01-16T09:49:14Z</time>
      </trkpt>
      <trkpt lat="43.3844690" lon="-3.2246260">
        <ele>76.0</ele>
        <time>2022-01-16T09:49:15Z</time>
      </trkpt>
      <trkpt lat="43.3845160" lon="-3.2246860">
        <ele>76.2</ele>
        <time>2022-01-16T09:49:16Z</time>
      </trkpt>
      <trkpt lat="43.3845620" lon="-3.2247440">
        <ele>76.2</ele>
        <time>2022-01-16T09:49:17Z</time>
      </trkpt>
      <trkpt lat="43.3846030" lon="-3.2248000">
        <ele>76.4</ele>
        <time>2022-01-16T09:49:18Z</time>
      </trkpt>
      <trkpt lat="43.3846350" lon="-3.2248440">
        <ele>76.4</ele>
        <time>2022-01-16T09:49:19Z</time>
      </trkpt>
      <trkpt lat="43.3846580" lon="-3.2248750">
        <ele>76.4</ele>
        <time>2022-01-16T09:49:20Z</time>
      </trkpt>
      <trkpt lat="43.3846780" lon="-3.2248990">
        <ele>76.4</ele>
        <time>2022-01-16T09:49:21Z</time>
      </trkpt>
      <trkpt lat="43.3846990" lon="-3.2249270">
        <ele>76.4</ele>
        <time>2022-01-16T09:49:22Z</time>
      </trkpt>
      <trkpt lat="43.3847240" lon="-3.2249620">
        <ele>76.4</ele>
        <time>2022-01-16T09:49:23Z</time>
      </trkpt>
      <trkpt lat="43.3847530" lon="-3.2249990">
        <ele>76.4</ele>
        <time>2022-01-16T09:49:24Z</time>
      </trkpt>
      <trkpt lat="43.3847830" lon="-3.2250350">
        <ele>76.4</ele>
        <time>2022-01-16T09:49:25Z</time>
      </trkpt>
      <trkpt lat="43.3848130" lon="-3.2250710">
        <ele>76.4</ele>
        <time>2022-01-16T09:49:26Z</time>
      </trkpt>
      <trkpt lat="43.3848430" lon="-3.2251090">
        <ele>76.2</ele>
        <time>2022-01-16T09:49:27Z</time>
      </trkpt>
      <trkpt lat="43.3848760" lon="-3.2251490">
        <ele>76.2</ele>
        <time>2022-01-16T09:49:28Z</time>
      </trkpt>
      <trkpt lat="43.3849100" lon="-3.2251960">
        <ele>76.2</ele>
        <time>2022-01-16T09:49:29Z</time>
      </trkpt>
      <trkpt lat="43.3849470" lon="-3.2252460">
        <ele>76.2</ele>
        <time>2022-01-16T09:49:30Z</time>
      </trkpt>
      <trkpt lat="43.3849870" lon="-3.2252990">
        <ele>76.2</ele>
        <time>2022-01-16T09:49:31Z</time>
      </trkpt>
      <trkpt lat="43.3850290" lon="-3.2253570">
        <ele>76.2</ele>
        <time>2022-01-16T09:49:32Z</time>
      </trkpt>
      <trkpt lat="43.3850680" lon="-3.2254100">
        <ele>76.2</ele>
        <time>2022-01-16T09:49:33Z</time>
      </trkpt>
      <trkpt lat="43.3851110" lon="-3.2254640">
        <ele>76.2</ele>
        <time>2022-01-16T09:49:34Z</time>
      </trkpt>
      <trkpt lat="43.3851580" lon="-3.2255200">
        <ele>76.4</ele>
        <time>2022-01-16T09:49:35Z</time>
      </trkpt>
      <trkpt lat="43.3852050" lon="-3.2255780">
        <ele>76.4</ele>
        <time>2022-01-16T09:49:36Z</time>
      </trkpt>
      <trkpt lat="43.3852550" lon="-3.2256400">
        <ele>76.4</ele>
        <time>2022-01-16T09:49:37Z</time>
      </trkpt>
      <trkpt lat="43.3853060" lon="-3.2257000">
        <ele>76.4</ele>
        <time>2022-01-16T09:49:38Z</time>
      </trkpt>
      <trkpt lat="43.3853580" lon="-3.2257620">
        <ele>76.4</ele>
        <time>2022-01-16T09:49:39Z</time>
      </trkpt>
      <trkpt lat="43.3854100" lon="-3.2258260">
        <ele>76.4</ele>
        <time>2022-01-16T09:49:40Z</time>
      </trkpt>
      <trkpt lat="43.3854600" lon="-3.2258920">
        <ele>76.4</ele>
        <time>2022-01-16T09:49:41Z</time>
      </trkpt>
      <trkpt lat="43.3855130" lon="-3.2259550">
        <ele>76.4</ele>
        <time>2022-01-16T09:49:42Z</time>
      </trkpt>
      <trkpt lat="43.3855640" lon="-3.2260150">
        <ele>76.4</ele>
        <time>2022-01-16T09:49:43Z</time>
      </trkpt>
      <trkpt lat="43.3856140" lon="-3.2260770">
        <ele>76.4</ele>
        <time>2022-01-16T09:49:44Z</time>
      </trkpt>
      <trkpt lat="43.3856630" lon="-3.2261390">
        <ele>76.4</ele>
        <time>2022-01-16T09:49:45Z</time>
      </trkpt>
      <trkpt lat="43.3857130" lon="-3.2262020">
        <ele>76.4</ele>
        <time>2022-01-16T09:49:46Z</time>
      </trkpt>
      <trkpt lat="43.3857630" lon="-3.2262640">
        <ele>76.4</ele>
        <time>2022-01-16T09:49:47Z</time>
      </trkpt>
      <trkpt lat="43.3858130" lon="-3.2263270">
        <ele>76.4</ele>
        <time>2022-01-16T09:49:48Z</time>
      </trkpt>
      <trkpt lat="43.3858630" lon="-3.2263880">
        <ele>76.6</ele>
        <time>2022-01-16T09:49:49Z</time>
      </trkpt>
      <trkpt lat="43.3859130" lon="-3.2264460">
        <ele>76.6</ele>
        <time>2022-01-16T09:49:50Z</time>
      </trkpt>
      <trkpt lat="43.3859630" lon="-3.2265040">
        <ele>76.6</ele>
        <time>2022-01-16T09:49:51Z</time>
      </trkpt>
      <trkpt lat="43.3860130" lon="-3.2265640">
        <ele>76.8</ele>
        <time>2022-01-16T09:49:52Z</time>
      </trkpt>
      <trkpt lat="43.3860620" lon="-3.2266240">
        <ele>76.8</ele>
        <time>2022-01-16T09:49:53Z</time>
      </trkpt>
      <trkpt lat="43.3861100" lon="-3.2266830">
        <ele>77.0</ele>
        <time>2022-01-16T09:49:54Z</time>
      </trkpt>
      <trkpt lat="43.3861590" lon="-3.2267430">
        <ele>77.0</ele>
        <time>2022-01-16T09:49:55Z</time>
      </trkpt>
      <trkpt lat="43.3862080" lon="-3.2268030">
        <ele>77.2</ele>
        <time>2022-01-16T09:49:56Z</time>
      </trkpt>
      <trkpt lat="43.3862590" lon="-3.2268650">
        <ele>77.4</ele>
        <time>2022-01-16T09:49:57Z</time>
      </trkpt>
      <trkpt lat="43.3863100" lon="-3.2269260">
        <ele>77.6</ele>
        <time>2022-01-16T09:49:58Z</time>
      </trkpt>
      <trkpt lat="43.3863620" lon="-3.2269870">
        <ele>77.8</ele>
        <time>2022-01-16T09:49:59Z</time>
      </trkpt>
      <trkpt lat="43.3864140" lon="-3.2270500">
        <ele>77.8</ele>
        <time>2022-01-16T09:50:00Z</time>
      </trkpt>
      <trkpt lat="43.3864660" lon="-3.2271110">
        <ele>78.0</ele>
        <time>2022-01-16T09:50:01Z</time>
      </trkpt>
      <trkpt lat="43.3865170" lon="-3.2271730">
        <ele>78.0</ele>
        <time>2022-01-16T09:50:02Z</time>
      </trkpt>
      <trkpt lat="43.3865680" lon="-3.2272350">
        <ele>78.2</ele>
        <time>2022-01-16T09:50:03Z</time>
      </trkpt>
      <trkpt lat="43.3866180" lon="-3.2272980">
        <ele>78.4</ele>
        <time>2022-01-16T09:50:04Z</time>
      </trkpt>
      <trkpt lat="43.3866700" lon="-3.2273600">
        <ele>78.4</ele>
        <time>2022-01-16T09:50:05Z</time>
      </trkpt>
      <trkpt lat="43.3867210" lon="-3.2274220">
        <ele>78.6</ele>
        <time>2022-01-16T09:50:06Z</time>
      </trkpt>
      <trkpt lat="43.3867720" lon="-3.2274840">
        <ele>78.8</ele>
        <time>2022-01-16T09:50:07Z</time>
      </trkpt>
      <trkpt lat="43.3868210" lon="-3.2275460">
        <ele>79.0</ele>
        <time>2022-01-16T09:50:08Z</time>
      </trkpt>
      <trkpt lat="43.3868700" lon="-3.2276070">
        <ele>79.0</ele>
        <time>2022-01-16T09:50:09Z</time>
      </trkpt>
      <trkpt lat="43.3869190" lon="-3.2276670">
        <ele>79.4</ele>
        <time>2022-01-16T09:50:10Z</time>
      </trkpt>
      <trkpt lat="43.3869690" lon="-3.2277280">
        <ele>79.6</ele>
        <time>2022-01-16T09:50:11Z</time>
      </trkpt>
      <trkpt lat="43.3870180" lon="-3.2277890">
        <ele>79.8</ele>
        <time>2022-01-16T09:50:12Z</time>
      </trkpt>
      <trkpt lat="43.3870680" lon="-3.2278500">
        <ele>80.0</ele>
        <time>2022-01-16T09:50:13Z</time>
      </trkpt>
      <trkpt lat="43.3871180" lon="-3.2279100">
        <ele>80.2</ele>
        <time>2022-01-16T09:50:14Z</time>
      </trkpt>
      <trkpt lat="43.3871670" lon="-3.2279700">
        <ele>80.4</ele>
        <time>2022-01-16T09:50:15Z</time>
      </trkpt>
      <trkpt lat="43.3872140" lon="-3.2280300">
        <ele>80.6</ele>
        <time>2022-01-16T09:50:16Z</time>
      </trkpt>
      <trkpt lat="43.3872620" lon="-3.2280880">
        <ele>81.0</ele>
        <time>2022-01-16T09:50:17Z</time>
      </trkpt>
      <trkpt lat="43.3873100" lon="-3.2281440">
        <ele>81.0</ele>
        <time>2022-01-16T09:50:18Z</time>
      </trkpt>
      <trkpt lat="43.3873580" lon="-3.2282020">
        <ele>81.2</ele>
        <time>2022-01-16T09:50:19Z</time>
      </trkpt>
      <trkpt lat="43.3874060" lon="-3.2282610">
        <ele>81.6</ele>
        <time>2022-01-16T09:50:20Z</time>
      </trkpt>
      <trkpt lat="43.3874550" lon="-3.2283180">
        <ele>81.6</ele>
        <time>2022-01-16T09:50:21Z</time>
      </trkpt>
      <trkpt lat="43.3875040" lon="-3.2283770">
        <ele>81.8</ele>
        <time>2022-01-16T09:50:22Z</time>
      </trkpt>
      <trkpt lat="43.3875520" lon="-3.2284360">
        <ele>82.0</ele>
        <time>2022-01-16T09:50:23Z</time>
      </trkpt>
      <trkpt lat="43.3876010" lon="-3.2284930">
        <ele>82.4</ele>
        <time>2022-01-16T09:50:24Z</time>
      </trkpt>
      <trkpt lat="43.3876500" lon="-3.2285510">
        <ele>82.6</ele>
        <time>2022-01-16T09:50:25Z</time>
      </trkpt>
      <trkpt lat="43.3876990" lon="-3.2286080">
        <ele>82.8</ele>
        <time>2022-01-16T09:50:26Z</time>
      </trkpt>
      <trkpt lat="43.3877470" lon="-3.2286660">
        <ele>83.0</ele>
        <time>2022-01-16T09:50:27Z</time>
      </trkpt>
      <trkpt lat="43.3877950" lon="-3.2287230">
        <ele>83.2</ele>
        <time>2022-01-16T09:50:28Z</time>
      </trkpt>
      <trkpt lat="43.3878430" lon="-3.2287810">
        <ele>83.4</ele>
        <time>2022-01-16T09:50:29Z</time>
      </trkpt>
      <trkpt lat="43.3878920" lon="-3.2288380">
        <ele>83.6</ele>
        <time>2022-01-16T09:50:30Z</time>
      </trkpt>
      <trkpt lat="43.3879410" lon="-3.2288950">
        <ele>83.8</ele>
        <time>2022-01-16T09:50:31Z</time>
      </trkpt>
      <trkpt lat="43.3879900" lon="-3.2289530">
        <ele>84.0</ele>
        <time>2022-01-16T09:50:32Z</time>
      </trkpt>
      <trkpt lat="43.3880380" lon="-3.2290100">
        <ele>84.2</ele>
        <time>2022-01-16T09:50:33Z</time>
      </trkpt>
      <trkpt lat="43.3880860" lon="-3.2290680">
        <ele>84.6</ele>
        <time>2022-01-16T09:50:34Z</time>
      </trkpt>
      <trkpt lat="43.3881340" lon="-3.2291250">
        <ele>84.8</ele>
        <time>2022-01-16T09:50:35Z</time>
      </trkpt>
      <trkpt lat="43.3881820" lon="-3.2291830">
        <ele>85.0</ele>
        <time>2022-01-16T09:50:36Z</time>
      </trkpt>
      <trkpt lat="43.3882300" lon="-3.2292390">
        <ele>85.2</ele>
        <time>2022-01-16T09:50:37Z</time>
      </trkpt>
      <trkpt lat="43.3882770" lon="-3.2292960">
        <ele>85.6</ele>
        <time>2022-01-16T09:50:38Z</time>
      </trkpt>
      <trkpt lat="43.3883240" lon="-3.2293540">
        <ele>85.8</ele>
        <time>2022-01-16T09:50:39Z</time>
      </trkpt>
      <trkpt lat="43.3883700" lon="-3.2294120">
        <ele>86.0</ele>
        <time>2022-01-16T09:50:40Z</time>
      </trkpt>
      <trkpt lat="43.3884180" lon="-3.2294700">
        <ele>86.2</ele>
        <time>2022-01-16T09:50:41Z</time>
      </trkpt>
      <trkpt lat="43.3884660" lon="-3.2295250">
        <ele>86.4</ele>
        <time>2022-01-16T09:50:42Z</time>
      </trkpt>
      <trkpt lat="43.3885150" lon="-3.2295800">
        <ele>86.6</ele>
        <time>2022-01-16T09:50:43Z</time>
      </trkpt>
      <trkpt lat="43.3885630" lon="-3.2296370">
        <ele>86.8</ele>
        <time>2022-01-16T09:50:44Z</time>
      </trkpt>
      <trkpt lat="43.3886120" lon="-3.2296940">
        <ele>87.0</ele>
        <time>2022-01-16T09:50:45Z</time>
      </trkpt>
      <trkpt lat="43.3886610" lon="-3.2297530">
        <ele>87.2</ele>
        <time>2022-01-16T09:50:46Z</time>
      </trkpt>
      <trkpt lat="43.3887090" lon="-3.2298140">
        <ele>87.2</ele>
        <time>2022-01-16T09:50:47Z</time>
      </trkpt>
      <trkpt lat="43.3887570" lon="-3.2298730">
        <ele>87.4</ele>
        <time>2022-01-16T09:50:48Z</time>
      </trkpt>
      <trkpt lat="43.3888080" lon="-3.2299290">
        <ele>87.6</ele>
        <time>2022-01-16T09:50:49Z</time>
      </trkpt>
      <trkpt lat="43.3888620" lon="-3.2299790">
        <ele>87.8</ele>
        <time>2022-01-16T09:50:50Z</time>
      </trkpt>
      <trkpt lat="43.3889170" lon="-3.2300240">
        <ele>87.8</ele>
        <time>2022-01-16T09:50:51Z</time>
      </trkpt>
      <trkpt lat="43.3889710" lon="-3.2300670">
        <ele>88.2</ele>
        <time>2022-01-16T09:50:52Z</time>
      </trkpt>
      <trkpt lat="43.3890240" lon="-3.2301090">
        <ele>88.6</ele>
        <time>2022-01-16T09:50:53Z</time>
      </trkpt>
      <trkpt lat="43.3890790" lon="-3.2301480">
        <ele>88.8</ele>
        <time>2022-01-16T09:50:54Z</time>
      </trkpt>
      <trkpt lat="43.3891330" lon="-3.2301870">
        <ele>88.8</ele>
        <time>2022-01-16T09:50:55Z</time>
      </trkpt>
      <trkpt lat="43.3891860" lon="-3.2302270">
        <ele>89.0</ele>
        <time>2022-01-16T09:50:56Z</time>
      </trkpt>
      <trkpt lat="43.3892390" lon="-3.2302650">
        <ele>89.0</ele>
        <time>2022-01-16T09:50:57Z</time>
      </trkpt>
      <trkpt lat="43.3892930" lon="-3.2302990">
        <ele>89.2</ele>
        <time>2022-01-16T09:50:58Z</time>
      </trkpt>
      <trkpt lat="43.3893450" lon="-3.2303290">
        <ele>89.6</ele>
        <time>2022-01-16T09:50:59Z</time>
      </trkpt>
      <trkpt lat="43.3893940" lon="-3.2303620">
        <ele>90.0</ele>
        <time>2022-01-16T09:51:00Z</time>
      </trkpt>
      <trkpt lat="43.3894420" lon="-3.2303960">
        <ele>90.2</ele>
        <time>2022-01-16T09:51:01Z</time>
      </trkpt>
      <trkpt lat="43.3894910" lon="-3.2304290">
        <ele>90.6</ele>
        <time>2022-01-16T09:51:02Z</time>
      </trkpt>
      <trkpt lat="43.3895400" lon="-3.2304610">
        <ele>90.8</ele>
        <time>2022-01-16T09:51:03Z</time>
      </trkpt>
      <trkpt lat="43.3895880" lon="-3.2304930">
        <ele>91.0</ele>
        <time>2022-01-16T09:51:04Z</time>
      </trkpt>
      <trkpt lat="43.3896340" lon="-3.2305280">
        <ele>91.6</ele>
        <time>2022-01-16T09:51:05Z</time>
      </trkpt>
      <trkpt lat="43.3896790" lon="-3.2305630">
        <ele>92.0</ele>
        <time>2022-01-16T09:51:06Z</time>
      </trkpt>
      <trkpt lat="43.3897240" lon="-3.2305960">
        <ele>92.4</ele>
        <time>2022-01-16T09:51:07Z</time>
      </trkpt>
      <trkpt lat="43.3897680" lon="-3.2306270">
        <ele>92.6</ele>
        <time>2022-01-16T09:51:08Z</time>
      </trkpt>
      <trkpt lat="43.3898110" lon="-3.2306590">
        <ele>92.8</ele>
        <time>2022-01-16T09:51:09Z</time>
      </trkpt>
      <trkpt lat="43.3898540" lon="-3.2306920">
        <ele>93.0</ele>
        <time>2022-01-16T09:51:10Z</time>
      </trkpt>
      <trkpt lat="43.3898980" lon="-3.2307230">
        <ele>93.4</ele>
        <time>2022-01-16T09:51:11Z</time>
      </trkpt>
      <trkpt lat="43.3899410" lon="-3.2307570">
        <ele>93.6</ele>
        <time>2022-01-16T09:51:12Z</time>
      </trkpt>
      <trkpt lat="43.3899850" lon="-3.2307890">
        <ele>93.8</ele>
        <time>2022-01-16T09:51:13Z</time>
      </trkpt>
      <trkpt lat="43.3900290" lon="-3.2308210">
        <ele>94.2</ele>
        <time>2022-01-16T09:51:14Z</time>
      </trkpt>
      <trkpt lat="43.3900690" lon="-3.2308500">
        <ele>94.6</ele>
        <time>2022-01-16T09:51:15Z</time>
      </trkpt>
      <trkpt lat="43.3901050" lon="-3.2308750">
        <ele>94.8</ele>
        <time>2022-01-16T09:51:16Z</time>
      </trkpt>
      <trkpt lat="43.3901420" lon="-3.2309020">
        <ele>95.2</ele>
        <time>2022-01-16T09:51:17Z</time>
      </trkpt>
      <trkpt lat="43.3901790" lon="-3.2309320">
        <ele>95.4</ele>
        <time>2022-01-16T09:51:18Z</time>
      </trkpt>
      <trkpt lat="43.3902170" lon="-3.2309650">
        <ele>95.8</ele>
        <time>2022-01-16T09:51:19Z</time>
      </trkpt>
      <trkpt lat="43.3902570" lon="-3.2309970">
        <ele>96.0</ele>
        <time>2022-01-16T09:51:20Z</time>
      </trkpt>
      <trkpt lat="43.3902950" lon="-3.2310280">
        <ele>96.2</ele>
        <time>2022-01-16T09:51:21Z</time>
      </trkpt>
      <trkpt lat="43.3903330" lon="-3.2310550">
        <ele>96.4</ele>
        <time>2022-01-16T09:51:22Z</time>
      </trkpt>
      <trkpt lat="43.3903700" lon="-3.2310820">
        <ele>96.8</ele>
        <time>2022-01-16T09:51:23Z</time>
      </trkpt>
      <trkpt lat="43.3904070" lon="-3.2311060">
        <ele>97.2</ele>
        <time>2022-01-16T09:51:24Z</time>
      </trkpt>
      <trkpt lat="43.3904430" lon="-3.2311350">
        <ele>97.4</ele>
        <time>2022-01-16T09:51:25Z</time>
      </trkpt>
      <trkpt lat="43.3904780" lon="-3.2311600">
        <ele>97.8</ele>
        <time>2022-01-16T09:51:26Z</time>
      </trkpt>
      <trkpt lat="43.3905130" lon="-3.2311860">
        <ele>98.0</ele>
        <time>2022-01-16T09:51:27Z</time>
      </trkpt>
      <trkpt lat="43.3905490" lon="-3.2312150">
        <ele>98.2</ele>
        <time>2022-01-16T09:51:28Z</time>
      </trkpt>
      <trkpt lat="43.3905830" lon="-3.2312400">
        <ele>98.4</ele>
        <time>2022-01-16T09:51:29Z</time>
      </trkpt>
      <trkpt lat="43.3906180" lon="-3.2312640">
        <ele>98.8</ele>
        <time>2022-01-16T09:51:30Z</time>
      </trkpt>
      <trkpt lat="43.3906520" lon="-3.2312880">
        <ele>99.2</ele>
        <time>2022-01-16T09:51:31Z</time>
      </trkpt>
      <trkpt lat="43.3906840" lon="-3.2313130">
        <ele>99.6</ele>
        <time>2022-01-16T09:51:32Z</time>
      </trkpt>
      <trkpt lat="43.3907170" lon="-3.2313340">
        <ele>99.8</ele>
        <time>2022-01-16T09:51:33Z</time>
      </trkpt>
      <trkpt lat="43.3907530" lon="-3.2313530">
        <ele>99.8</ele>
        <time>2022-01-16T09:51:34Z</time>
      </trkpt>
      <trkpt lat="43.3907890" lon="-3.2313720">
        <ele>100.0</ele>
        <time>2022-01-16T09:51:35Z</time>
      </trkpt>
      <trkpt lat="43.3908230" lon="-3.2313910">
        <ele>100.2</ele>
        <time>2022-01-16T09:51:36Z</time>
      </trkpt>
      <trkpt lat="43.3908550" lon="-3.2314100">
        <ele>100.4</ele>
        <time>2022-01-16T09:51:37Z</time>
      </trkpt>
      <trkpt lat="43.3908890" lon="-3.2314310">
        <ele>100.6</ele>
        <time>2022-01-16T09:51:38Z</time>
      </trkpt>
      <trkpt lat="43.3909270" lon="-3.2314490">
        <ele>101.0</ele>
        <time>2022-01-16T09:51:39Z</time>
      </trkpt>
      <trkpt lat="43.3909650" lon="-3.2314670">
        <ele>101.2</ele>
        <time>2022-01-16T09:51:40Z</time>
      </trkpt>
      <trkpt lat="43.3910040" lon="-3.2314820">
        <ele>101.6</ele>
        <time>2022-01-16T09:51:41Z</time>
      </trkpt>
      <trkpt lat="43.3910420" lon="-3.2314960">
        <ele>102.0</ele>
        <time>2022-01-16T09:51:42Z</time>
      </trkpt>
      <trkpt lat="43.3910800" lon="-3.2315090">
        <ele>102.2</ele>
        <time>2022-01-16T09:51:43Z</time>
      </trkpt>
      <trkpt lat="43.3911190" lon="-3.2315190">
        <ele>102.6</ele>
        <time>2022-01-16T09:51:44Z</time>
      </trkpt>
      <trkpt lat="43.3911590" lon="-3.2315280">
        <ele>102.8</ele>
        <time>2022-01-16T09:51:45Z</time>
      </trkpt>
      <trkpt lat="43.3911990" lon="-3.2315340">
        <ele>103.0</ele>
        <time>2022-01-16T09:51:46Z</time>
      </trkpt>
      <trkpt lat="43.3912390" lon="-3.2315350">
        <ele>103.2</ele>
        <time>2022-01-16T09:51:47Z</time>
      </trkpt>
      <trkpt lat="43.3912800" lon="-3.2315330">
        <ele>103.6</ele>
        <time>2022-01-16T09:51:48Z</time>
      </trkpt>
      <trkpt lat="43.3913220" lon="-3.2315300">
        <ele>103.8</ele>
        <time>2022-01-16T09:51:49Z</time>
      </trkpt>
      <trkpt lat="43.3913630" lon="-3.2315260">
        <ele>104.0</ele>
        <time>2022-01-16T09:51:50Z</time>
      </trkpt>
      <trkpt lat="43.3914050" lon="-3.2315270">
        <ele>104.2</ele>
        <time>2022-01-16T09:51:51Z</time>
      </trkpt>
      <trkpt lat="43.3914470" lon="-3.2315370">
        <ele>104.2</ele>
        <time>2022-01-16T09:51:52Z</time>
      </trkpt>
      <trkpt lat="43.3914890" lon="-3.2315490">
        <ele>104.4</ele>
        <time>2022-01-16T09:51:53Z</time>
      </trkpt>
      <trkpt lat="43.3915330" lon="-3.2315560">
        <ele>104.6</ele>
        <time>2022-01-16T09:51:54Z</time>
      </trkpt>
      <trkpt lat="43.3915770" lon="-3.2315520">
        <ele>105.0</ele>
        <time>2022-01-16T09:51:55Z</time>
      </trkpt>
      <trkpt lat="43.3916220" lon="-3.2315480">
        <ele>105.2</ele>
        <time>2022-01-16T09:51:56Z</time>
      </trkpt>
      <trkpt lat="43.3916650" lon="-3.2315430">
        <ele>105.4</ele>
        <time>2022-01-16T09:51:57Z</time>
      </trkpt>
      <trkpt lat="43.3917080" lon="-3.2315360">
        <ele>105.4</ele>
        <time>2022-01-16T09:51:58Z</time>
      </trkpt>
      <trkpt lat="43.3917510" lon="-3.2315290">
        <ele>105.6</ele>
        <time>2022-01-16T09:51:59Z</time>
      </trkpt>
      <trkpt lat="43.3917930" lon="-3.2315240">
        <ele>106.0</ele>
        <time>2022-01-16T09:52:00Z</time>
      </trkpt>
      <trkpt lat="43.3918340" lon="-3.2315220">
        <ele>106.4</ele>
        <time>2022-01-16T09:52:01Z</time>
      </trkpt>
      <trkpt lat="43.3918760" lon="-3.2315210">
        <ele>106.8</ele>
        <time>2022-01-16T09:52:02Z</time>
      </trkpt>
      <trkpt lat="43.3919150" lon="-3.2315200">
        <ele>107.0</ele>
        <time>2022-01-16T09:52:03Z</time>
      </trkpt>
      <trkpt lat="43.3919550" lon="-3.2315210">
        <ele>107.2</ele>
        <time>2022-01-16T09:52:04Z</time>
      </trkpt>
      <trkpt lat="43.3919940" lon="-3.2315240">
        <ele>107.2</ele>
        <time>2022-01-16T09:52:05Z</time>
      </trkpt>
      <trkpt lat="43.3920330" lon="-3.2315260">
        <ele>107.4</ele>
        <time>2022-01-16T09:52:06Z</time>
      </trkpt>
      <trkpt lat="43.3920760" lon="-3.2315270">
        <ele>107.6</ele>
        <time>2022-01-16T09:52:07Z</time>
      </trkpt>
      <trkpt lat="43.3921180" lon="-3.2315300">
        <ele>107.8</ele>
        <time>2022-01-16T09:52:08Z</time>
      </trkpt>
      <trkpt lat="43.3921610" lon="-3.2315360">
        <ele>108.0</ele>
        <time>2022-01-16T09:52:09Z</time>
      </trkpt>
      <trkpt lat="43.3922020" lon="-3.2315420">
        <ele>108.2</ele>
        <time>2022-01-16T09:52:10Z</time>
      </trkpt>
      <trkpt lat="43.3922400" lon="-3.2315500">
        <ele>108.4</ele>
        <time>2022-01-16T09:52:11Z</time>
      </trkpt>
      <trkpt lat="43.3922800" lon="-3.2315570">
        <ele>108.8</ele>
        <time>2022-01-16T09:52:12Z</time>
      </trkpt>
      <trkpt lat="43.3923200" lon="-3.2315640">
        <ele>109.0</ele>
        <time>2022-01-16T09:52:13Z</time>
      </trkpt>
      <trkpt lat="43.3923600" lon="-3.2315740">
        <ele>109.4</ele>
        <time>2022-01-16T09:52:14Z</time>
      </trkpt>
      <trkpt lat="43.3924000" lon="-3.2315840">
        <ele>109.6</ele>
        <time>2022-01-16T09:52:15Z</time>
      </trkpt>
      <trkpt lat="43.3924410" lon="-3.2315950">
        <ele>110.2</ele>
        <time>2022-01-16T09:52:16Z</time>
      </trkpt>
      <trkpt lat="43.3924820" lon="-3.2316070">
        <ele>110.4</ele>
        <time>2022-01-16T09:52:17Z</time>
      </trkpt>
      <trkpt lat="43.3925220" lon="-3.2316190">
        <ele>110.6</ele>
        <time>2022-01-16T09:52:18Z</time>
      </trkpt>
      <trkpt lat="43.3925630" lon="-3.2316330">
        <ele>110.6</ele>
        <time>2022-01-16T09:52:19Z</time>
      </trkpt>
      <trkpt lat="43.3926050" lon="-3.2316480">
        <ele>111.0</ele>
        <time>2022-01-16T09:52:20Z</time>
      </trkpt>
      <trkpt lat="43.3926470" lon="-3.2316660">
        <ele>111.4</ele>
        <time>2022-01-16T09:52:21Z</time>
      </trkpt>
      <trkpt lat="43.3926900" lon="-3.2316860">
        <ele>111.6</ele>
        <time>2022-01-16T09:52:22Z</time>
      </trkpt>
      <trkpt lat="43.3927340" lon="-3.2317080">
        <ele>111.8</ele>
        <time>2022-01-16T09:52:23Z</time>
      </trkpt>
      <trkpt lat="43.3927760" lon="-3.2317300">
        <ele>112.2</ele>
        <time>2022-01-16T09:52:24Z</time>
      </trkpt>
      <trkpt lat="43.3928170" lon="-3.2317530">
        <ele>112.6</ele>
        <time>2022-01-16T09:52:25Z</time>
      </trkpt>
      <trkpt lat="43.3928570" lon="-3.2317790">
        <ele>113.0</ele>
        <time>2022-01-16T09:52:26Z</time>
      </trkpt>
      <trkpt lat="43.3928980" lon="-3.2318070">
        <ele>113.2</ele>
        <time>2022-01-16T09:52:27Z</time>
      </trkpt>
      <trkpt lat="43.3929400" lon="-3.2318350">
        <ele>113.4</ele>
        <time>2022-01-16T09:52:28Z</time>
      </trkpt>
      <trkpt lat="43.3929800" lon="-3.2318660">
        <ele>113.4</ele>
        <time>2022-01-16T09:52:29Z</time>
      </trkpt>
      <trkpt lat="43.3930200" lon="-3.2318970">
        <ele>113.6</ele>
        <time>2022-01-16T09:52:30Z</time>
      </trkpt>
      <trkpt lat="43.3930600" lon="-3.2319300">
        <ele>113.8</ele>
        <time>2022-01-16T09:52:31Z</time>
      </trkpt>
      <trkpt lat="43.3931000" lon="-3.2319650">
        <ele>113.8</ele>
        <time>2022-01-16T09:52:32Z</time>
      </trkpt>
      <trkpt lat="43.3931390" lon="-3.2320010">
        <ele>114.0</ele>
        <time>2022-01-16T09:52:33Z</time>
      </trkpt>
      <trkpt lat="43.3931770" lon="-3.2320400">
        <ele>114.2</ele>
        <time>2022-01-16T09:52:34Z</time>
      </trkpt>
      <trkpt lat="43.3932150" lon="-3.2320780">
        <ele>114.4</ele>
        <time>2022-01-16T09:52:35Z</time>
      </trkpt>
      <trkpt lat="43.3932520" lon="-3.2321190">
        <ele>114.6</ele>
        <time>2022-01-16T09:52:36Z</time>
      </trkpt>
      <trkpt lat="43.3932890" lon="-3.2321610">
        <ele>114.6</ele>
        <time>2022-01-16T09:52:37Z</time>
      </trkpt>
      <trkpt lat="43.3933280" lon="-3.2322040">
        <ele>114.8</ele>
        <time>2022-01-16T09:52:38Z</time>
      </trkpt>
      <trkpt lat="43.3933660" lon="-3.2322500">
        <ele>115.2</ele>
        <time>2022-01-16T09:52:39Z</time>
      </trkpt>
      <trkpt lat="43.3934040" lon="-3.2322960">
        <ele>115.4</ele>
        <time>2022-01-16T09:52:40Z</time>
      </trkpt>
      <trkpt lat="43.3934420" lon="-3.2323440">
        <ele>115.6</ele>
        <time>2022-01-16T09:52:41Z</time>
      </trkpt>
      <trkpt lat="43.3934800" lon="-3.2323920">
        <ele>115.8</ele>
        <time>2022-01-16T09:52:42Z</time>
      </trkpt>
      <trkpt lat="43.3935170" lon="-3.2324410">
        <ele>115.8</ele>
        <time>2022-01-16T09:52:43Z</time>
      </trkpt>
      <trkpt lat="43.3935550" lon="-3.2324910">
        <ele>115.8</ele>
        <time>2022-01-16T09:52:44Z</time>
      </trkpt>
      <trkpt lat="43.3935930" lon="-3.2325420">
        <ele>115.8</ele>
        <time>2022-01-16T09:52:45Z</time>
      </trkpt>
      <trkpt lat="43.3936290" lon="-3.2325950">
        <ele>116.0</ele>
        <time>2022-01-16T09:52:46Z</time>
      </trkpt>
      <trkpt lat="43.3936650" lon="-3.2326470">
        <ele>116.4</ele>
        <time>2022-01-16T09:52:47Z</time>
      </trkpt>
      <trkpt lat="43.3937030" lon="-3.2326980">
        <ele>116.6</ele>
        <time>2022-01-16T09:52:48Z</time>
      </trkpt>
      <trkpt lat="43.3937430" lon="-3.2327490">
        <ele>117.0</ele>
        <time>2022-01-16T09:52:49Z</time>
      </trkpt>
      <trkpt lat="43.3937810" lon="-3.2327990">
        <ele>117.2</ele>
        <time>2022-01-16T09:52:50Z</time>
      </trkpt>
      <trkpt lat="43.3938170" lon="-3.2328490">
        <ele>117.4</ele>
        <time>2022-01-16T09:52:51Z</time>
      </trkpt>
      <trkpt lat="43.3938540" lon="-3.2328970">
        <ele>117.4</ele>
        <time>2022-01-16T09:52:52Z</time>
      </trkpt>
      <trkpt lat="43.3938910" lon="-3.2329460">
        <ele>117.6</ele>
        <time>2022-01-16T09:52:53Z</time>
      </trkpt>
      <trkpt lat="43.3939270" lon="-3.2329960">
        <ele>117.8</ele>
        <time>2022-01-16T09:52:54Z</time>
      </trkpt>
      <trkpt lat="43.3939620" lon="-3.2330450">
        <ele>118.0</ele>
        <time>2022-01-16T09:52:55Z</time>
      </trkpt>
      <trkpt lat="43.3939970" lon="-3.2330950">
        <ele>118.2</ele>
        <time>2022-01-16T09:52:56Z</time>
      </trkpt>
      <trkpt lat="43.3940320" lon="-3.2331450">
        <ele>118.4</ele>
        <time>2022-01-16T09:52:57Z</time>
      </trkpt>
      <trkpt lat="43.3940680" lon="-3.2331950">
        <ele>118.4</ele>
        <time>2022-01-16T09:52:58Z</time>
      </trkpt>
      <trkpt lat="43.3941030" lon="-3.2332450">
        <ele>118.6</ele>
        <time>2022-01-16T09:52:59Z</time>
      </trkpt>
      <trkpt lat="43.3941380" lon="-3.2332950">
        <ele>118.6</ele>
        <time>2022-01-16T09:53:00Z</time>
      </trkpt>
      <trkpt lat="43.3941740" lon="-3.2333440">
        <ele>118.8</ele>
        <time>2022-01-16T09:53:01Z</time>
      </trkpt>
      <trkpt lat="43.3942110" lon="-3.2333940">
        <ele>119.0</ele>
        <time>2022-01-16T09:53:02Z</time>
      </trkpt>
      <trkpt lat="43.3942470" lon="-3.2334440">
        <ele>119.2</ele>
        <time>2022-01-16T09:53:03Z</time>
      </trkpt>
      <trkpt lat="43.3942810" lon="-3.2334970">
        <ele>119.4</ele>
        <time>2022-01-16T09:53:04Z</time>
      </trkpt>
      <trkpt lat="43.3943160" lon="-3.2335510">
        <ele>119.6</ele>
        <time>2022-01-16T09:53:05Z</time>
      </trkpt>
      <trkpt lat="43.3943510" lon="-3.2336060">
        <ele>119.6</ele>
        <time>2022-01-16T09:53:06Z</time>
      </trkpt>
      <trkpt lat="43.3943860" lon="-3.2336620">
        <ele>119.6</ele>
        <time>2022-01-16T09:53:07Z</time>
      </trkpt>
      <trkpt lat="43.3944220" lon="-3.2337190">
        <ele>119.6</ele>
        <time>2022-01-16T09:53:08Z</time>
      </trkpt>
      <trkpt lat="43.3944570" lon="-3.2337780">
        <ele>119.6</ele>
        <time>2022-01-16T09:53:09Z</time>
      </trkpt>
      <trkpt lat="43.3944920" lon="-3.2338390">
        <ele>119.6</ele>
        <time>2022-01-16T09:53:10Z</time>
      </trkpt>
      <trkpt lat="43.3945270" lon="-3.2339020">
        <ele>119.6</ele>
        <time>2022-01-16T09:53:11Z</time>
      </trkpt>
      <trkpt lat="43.3945630" lon="-3.2339660">
        <ele>119.6</ele>
        <time>2022-01-16T09:53:12Z</time>
      </trkpt>
      <trkpt lat="43.3945980" lon="-3.2340320">
        <ele>119.6</ele>
        <time>2022-01-16T09:53:13Z</time>
      </trkpt>
      <trkpt lat="43.3946330" lon="-3.2340980">
        <ele>119.6</ele>
        <time>2022-01-16T09:53:14Z</time>
      </trkpt>
      <trkpt lat="43.3946680" lon="-3.2341640">
        <ele>119.6</ele>
        <time>2022-01-16T09:53:15Z</time>
      </trkpt>
      <trkpt lat="43.3947010" lon="-3.2342300">
        <ele>119.6</ele>
        <time>2022-01-16T09:53:16Z</time>
      </trkpt>
      <trkpt lat="43.3947320" lon="-3.2342960">
        <ele>119.6</ele>
        <time>2022-01-16T09:53:17Z</time>
      </trkpt>
      <trkpt lat="43.3947650" lon="-3.2343640">
        <ele>119.4</ele>
        <time>2022-01-16T09:53:18Z</time>
      </trkpt>
      <trkpt lat="43.3947980" lon="-3.2344340">
        <ele>119.0</ele>
        <time>2022-01-16T09:53:19Z</time>
      </trkpt>
      <trkpt lat="43.3948320" lon="-3.2345060">
        <ele>118.8</ele>
        <time>2022-01-16T09:53:20Z</time>
      </trkpt>
      <trkpt lat="43.3948650" lon="-3.2345780">
        <ele>118.8</ele>
        <time>2022-01-16T09:53:21Z</time>
      </trkpt>
      <trkpt lat="43.3948990" lon="-3.2346520">
        <ele>118.6</ele>
        <time>2022-01-16T09:53:22Z</time>
      </trkpt>
      <trkpt lat="43.3949330" lon="-3.2347280">
        <ele>118.6</ele>
        <time>2022-01-16T09:53:23Z</time>
      </trkpt>
      <trkpt lat="43.3949680" lon="-3.2348080">
        <ele>118.6</ele>
        <time>2022-01-16T09:53:24Z</time>
      </trkpt>
      <trkpt lat="43.3950040" lon="-3.2348890">
        <ele>118.4</ele>
        <time>2022-01-16T09:53:25Z</time>
      </trkpt>
      <trkpt lat="43.3950390" lon="-3.2349730">
        <ele>118.2</ele>
        <time>2022-01-16T09:53:26Z</time>
      </trkpt>
      <trkpt lat="43.3950750" lon="-3.2350570">
        <ele>118.2</ele>
        <time>2022-01-16T09:53:27Z</time>
      </trkpt>
      <trkpt lat="43.3951130" lon="-3.2351430">
        <ele>118.0</ele>
        <time>2022-01-16T09:53:28Z</time>
      </trkpt>
      <trkpt lat="43.3951510" lon="-3.2352310">
        <ele>117.8</ele>
        <time>2022-01-16T09:53:29Z</time>
      </trkpt>
      <trkpt lat="43.3951890" lon="-3.2353210">
        <ele>117.8</ele>
        <time>2022-01-16T09:53:30Z</time>
      </trkpt>
      <trkpt lat="43.3952270" lon="-3.2354130">
        <ele>117.6</ele>
        <time>2022-01-16T09:53:31Z</time>
      </trkpt>
      <trkpt lat="43.3952670" lon="-3.2355050">
        <ele>117.6</ele>
        <time>2022-01-16T09:53:32Z</time>
      </trkpt>
      <trkpt lat="43.3953060" lon="-3.2355990">
        <ele>117.6</ele>
        <time>2022-01-16T09:53:33Z</time>
      </trkpt>
      <trkpt lat="43.3953440" lon="-3.2356950">
        <ele>117.4</ele>
        <time>2022-01-16T09:53:34Z</time>
      </trkpt>
      <trkpt lat="43.3953840" lon="-3.2357900">
        <ele>117.2</ele>
        <time>2022-01-16T09:53:35Z</time>
      </trkpt>
      <trkpt lat="43.3954260" lon="-3.2358850">
        <ele>117.0</ele>
        <time>2022-01-16T09:53:36Z</time>
      </trkpt>
      <trkpt lat="43.3954690" lon="-3.2359800">
        <ele>116.8</ele>
        <time>2022-01-16T09:53:37Z</time>
      </trkpt>
      <trkpt lat="43.3955140" lon="-3.2360760">
        <ele>116.6</ele>
        <time>2022-01-16T09:53:38Z</time>
      </trkpt>
      <trkpt lat="43.3955610" lon="-3.2361700">
        <ele>116.4</ele>
        <time>2022-01-16T09:53:39Z</time>
      </trkpt>
      <trkpt lat="43.3956110" lon="-3.2362630">
        <ele>116.2</ele>
        <time>2022-01-16T09:53:40Z</time>
      </trkpt>
      <trkpt lat="43.3956620" lon="-3.2363560">
        <ele>116.0</ele>
        <time>2022-01-16T09:53:41Z</time>
      </trkpt>
      <trkpt lat="43.3957150" lon="-3.2364470">
        <ele>116.0</ele>
        <time>2022-01-16T09:53:42Z</time>
      </trkpt>
      <trkpt lat="43.3957700" lon="-3.2365370">
        <ele>115.8</ele>
        <time>2022-01-16T09:53:43Z</time>
      </trkpt>
      <trkpt lat="43.3958260" lon="-3.2366250">
        <ele>115.6</ele>
        <time>2022-01-16T09:53:44Z</time>
      </trkpt>
      <trkpt lat="43.3958830" lon="-3.2367140">
        <ele>115.2</ele>
        <time>2022-01-16T09:53:45Z</time>
      </trkpt>
      <trkpt lat="43.3959410" lon="-3.2368030">
        <ele>115.0</ele>
        <time>2022-01-16T09:53:46Z</time>
      </trkpt>
      <trkpt lat="43.3959990" lon="-3.2368920">
        <ele>114.8</ele>
        <time>2022-01-16T09:53:47Z</time>
      </trkpt>
      <trkpt lat="43.3960550" lon="-3.2369850">
        <ele>114.6</ele>
        <time>2022-01-16T09:53:48Z</time>
      </trkpt>
      <trkpt lat="43.3961080" lon="-3.2370810">
        <ele>114.2</ele>
        <time>2022-01-16T09:53:49Z</time>
      </trkpt>
      <trkpt lat="43.3961590" lon="-3.2371800">
        <ele>114.0</ele>
        <time>2022-01-16T09:53:50Z</time>
      </trkpt>
      <trkpt lat="43.3962080" lon="-3.2372810">
        <ele>114.0</ele>
        <time>2022-01-16T09:53:51Z</time>
      </trkpt>
      <trkpt lat="43.3962540" lon="-3.2373840">
        <ele>113.8</ele>
        <time>2022-01-16T09:53:52Z</time>
      </trkpt>
      <trkpt lat="43.3963000" lon="-3.2374890">
        <ele>113.6</ele>
        <time>2022-01-16T09:53:53Z</time>
      </trkpt>
      <trkpt lat="43.3963440" lon="-3.2375970">
        <ele>113.6</ele>
        <time>2022-01-16T09:53:54Z</time>
      </trkpt>
      <trkpt lat="43.3963850" lon="-3.2377070">
        <ele>113.2</ele>
        <time>2022-01-16T09:53:55Z</time>
      </trkpt>
      <trkpt lat="43.3964240" lon="-3.2378210">
        <ele>113.0</ele>
        <time>2022-01-16T09:53:56Z</time>
      </trkpt>
      <trkpt lat="43.3964620" lon="-3.2379370">
        <ele>112.8</ele>
        <time>2022-01-16T09:53:57Z</time>
      </trkpt>
      <trkpt lat="43.3964980" lon="-3.2380550">
        <ele>112.4</ele>
        <time>2022-01-16T09:53:58Z</time>
      </trkpt>
      <trkpt lat="43.3965340" lon="-3.2381750">
        <ele>112.2</ele>
        <time>2022-01-16T09:53:59Z</time>
      </trkpt>
      <trkpt lat="43.3965690" lon="-3.2382960">
        <ele>112.0</ele>
        <time>2022-01-16T09:54:00Z</time>
      </trkpt>
      <trkpt lat="43.3966040" lon="-3.2384180">
        <ele>111.6</ele>
        <time>2022-01-16T09:54:01Z</time>
      </trkpt>
      <trkpt lat="43.3966410" lon="-3.2385400">
        <ele>111.2</ele>
        <time>2022-01-16T09:54:02Z</time>
      </trkpt>
      <trkpt lat="43.3966790" lon="-3.2386620">
        <ele>110.8</ele>
        <time>2022-01-16T09:54:03Z</time>
      </trkpt>
      <trkpt lat="43.3967170" lon="-3.2387850">
        <ele>110.6</ele>
        <time>2022-01-16T09:54:04Z</time>
      </trkpt>
      <trkpt lat="43.3967540" lon="-3.2389080">
        <ele>110.4</ele>
        <time>2022-01-16T09:54:05Z</time>
      </trkpt>
      <trkpt lat="43.3967920" lon="-3.2390300">
        <ele>110.2</ele>
        <time>2022-01-16T09:54:06Z</time>
      </trkpt>
      <trkpt lat="43.3968310" lon="-3.2391520">
        <ele>110.0</ele>
        <time>2022-01-16T09:54:07Z</time>
      </trkpt>
      <trkpt lat="43.3968700" lon="-3.2392760">
        <ele>109.8</ele>
        <time>2022-01-16T09:54:08Z</time>
      </trkpt>
      <trkpt lat="43.3969070" lon="-3.2394000">
        <ele>109.6</ele>
        <time>2022-01-16T09:54:09Z</time>
      </trkpt>
      <trkpt lat="43.3969450" lon="-3.2395250">
        <ele>109.2</ele>
        <time>2022-01-16T09:54:10Z</time>
      </trkpt>
      <trkpt lat="43.3969820" lon="-3.2396490">
        <ele>108.8</ele>
        <time>2022-01-16T09:54:11Z</time>
      </trkpt>
      <trkpt lat="43.3970190" lon="-3.2397740">
        <ele>108.6</ele>
        <time>2022-01-16T09:54:12Z</time>
      </trkpt>
      <trkpt lat="43.3970570" lon="-3.2398990">
        <ele>108.4</ele>
        <time>2022-01-16T09:54:13Z</time>
      </trkpt>
      <trkpt lat="43.3970950" lon="-3.2400260">
        <ele>108.2</ele>
        <time>2022-01-16T09:54:14Z</time>
      </trkpt>
      <trkpt lat="43.3971330" lon="-3.2401530">
        <ele>108.0</ele>
        <time>2022-01-16T09:54:15Z</time>
      </trkpt>
      <trkpt lat="43.3971710" lon="-3.2402810">
        <ele>108.0</ele>
        <time>2022-01-16T09:54:16Z</time>
      </trkpt>
      <trkpt lat="43.3972090" lon="-3.2404090">
        <ele>107.8</ele>
        <time>2022-01-16T09:54:17Z</time>
      </trkpt>
      <trkpt lat="43.3972470" lon="-3.2405360">
        <ele>107.4</ele>
        <time>2022-01-16T09:54:18Z</time>
      </trkpt>
      <trkpt lat="43.3972850" lon="-3.2406620">
        <ele>107.2</ele>
        <time>2022-01-16T09:54:19Z</time>
      </trkpt>
      <trkpt lat="43.3973220" lon="-3.2407880">
        <ele>106.8</ele>
        <time>2022-01-16T09:54:20Z</time>
      </trkpt>
      <trkpt lat="43.3973580" lon="-3.2409130">
        <ele>106.6</ele>
        <time>2022-01-16T09:54:21Z</time>
      </trkpt>
      <trkpt lat="43.3973940" lon="-3.2410360">
        <ele>106.6</ele>
        <time>2022-01-16T09:54:22Z</time>
      </trkpt>
      <trkpt lat="43.3974280" lon="-3.2411580">
        <ele>106.4</ele>
        <time>2022-01-16T09:54:23Z</time>
      </trkpt>
      <trkpt lat="43.3974600" lon="-3.2412790">
        <ele>106.4</ele>
        <time>2022-01-16T09:54:24Z</time>
      </trkpt>
      <trkpt lat="43.3974890" lon="-3.2413980">
        <ele>106.6</ele>
        <time>2022-01-16T09:54:25Z</time>
      </trkpt>
      <trkpt lat="43.3975170" lon="-3.2415160">
        <ele>106.8</ele>
        <time>2022-01-16T09:54:26Z</time>
      </trkpt>
      <trkpt lat="43.3975430" lon="-3.2416320">
        <ele>107.2</ele>
        <time>2022-01-16T09:54:27Z</time>
      </trkpt>
      <trkpt lat="43.3975690" lon="-3.2417480">
        <ele>107.4</ele>
        <time>2022-01-16T09:54:28Z</time>
      </trkpt>
      <trkpt lat="43.3975930" lon="-3.2418630">
        <ele>107.4</ele>
        <time>2022-01-16T09:54:29Z</time>
      </trkpt>
      <trkpt lat="43.3976160" lon="-3.2419770">
        <ele>107.4</ele>
        <time>2022-01-16T09:54:30Z</time>
      </trkpt>
      <trkpt lat="43.3976370" lon="-3.2420900">
        <ele>107.6</ele>
        <time>2022-01-16T09:54:31Z</time>
      </trkpt>
      <trkpt lat="43.3976570" lon="-3.2422030">
        <ele>107.8</ele>
        <time>2022-01-16T09:54:32Z</time>
      </trkpt>
      <trkpt lat="43.3976750" lon="-3.2423150">
        <ele>107.8</ele>
        <time>2022-01-16T09:54:33Z</time>
      </trkpt>
      <trkpt lat="43.3976930" lon="-3.2424270">
        <ele>107.8</ele>
        <time>2022-01-16T09:54:34Z</time>
      </trkpt>
      <trkpt lat="43.3977090" lon="-3.2425380">
        <ele>108.0</ele>
        <time>2022-01-16T09:54:35Z</time>
      </trkpt>
      <trkpt lat="43.3977240" lon="-3.2426500">
        <ele>108.0</ele>
        <time>2022-01-16T09:54:36Z</time>
      </trkpt>
      <trkpt lat="43.3977380" lon="-3.2427620">
        <ele>108.0</ele>
        <time>2022-01-16T09:54:37Z</time>
      </trkpt>
      <trkpt lat="43.3977520" lon="-3.2428740">
        <ele>107.8</ele>
        <time>2022-01-16T09:54:38Z</time>
      </trkpt>
      <trkpt lat="43.3977640" lon="-3.2429850">
        <ele>107.8</ele>
        <time>2022-01-16T09:54:39Z</time>
      </trkpt>
      <trkpt lat="43.3977750" lon="-3.2430970">
        <ele>107.8</ele>
        <time>2022-01-16T09:54:40Z</time>
      </trkpt>
      <trkpt lat="43.3977850" lon="-3.2432110">
        <ele>107.8</ele>
        <time>2022-01-16T09:54:41Z</time>
      </trkpt>
      <trkpt lat="43.3977950" lon="-3.2433260">
        <ele>107.6</ele>
        <time>2022-01-16T09:54:42Z</time>
      </trkpt>
      <trkpt lat="43.3978030" lon="-3.2434430">
        <ele>107.4</ele>
        <time>2022-01-16T09:54:43Z</time>
      </trkpt>
      <trkpt lat="43.3978110" lon="-3.2435610">
        <ele>107.2</ele>
        <time>2022-01-16T09:54:44Z</time>
      </trkpt>
      <trkpt lat="43.3978190" lon="-3.2436780">
        <ele>107.2</ele>
        <time>2022-01-16T09:54:45Z</time>
      </trkpt>
      <trkpt lat="43.3978270" lon="-3.2437960">
        <ele>107.0</ele>
        <time>2022-01-16T09:54:46Z</time>
      </trkpt>
      <trkpt lat="43.3978350" lon="-3.2439140">
        <ele>107.0</ele>
        <time>2022-01-16T09:54:47Z</time>
      </trkpt>
      <trkpt lat="43.3978420" lon="-3.2440340">
        <ele>107.0</ele>
        <time>2022-01-16T09:54:48Z</time>
      </trkpt>
      <trkpt lat="43.3978490" lon="-3.2441540">
        <ele>107.0</ele>
        <time>2022-01-16T09:54:49Z</time>
      </trkpt>
      <trkpt lat="43.3978550" lon="-3.2442770">
        <ele>107.0</ele>
        <time>2022-01-16T09:54:50Z</time>
      </trkpt>
      <trkpt lat="43.3978620" lon="-3.2444000">
        <ele>107.0</ele>
        <time>2022-01-16T09:54:51Z</time>
      </trkpt>
      <trkpt lat="43.3978690" lon="-3.2445240">
        <ele>106.8</ele>
        <time>2022-01-16T09:54:52Z</time>
      </trkpt>
      <trkpt lat="43.3978760" lon="-3.2446490">
        <ele>106.8</ele>
        <time>2022-01-16T09:54:53Z</time>
      </trkpt>
      <trkpt lat="43.3978830" lon="-3.2447740">
        <ele>106.8</ele>
        <time>2022-01-16T09:54:54Z</time>
      </trkpt>
      <trkpt lat="43.3978900" lon="-3.2448980">
        <ele>106.8</ele>
        <time>2022-01-16T09:54:55Z</time>
      </trkpt>
      <trkpt lat="43.3978970" lon="-3.2450220">
        <ele>106.6</ele>
        <time>2022-01-16T09:54:56Z</time>
      </trkpt>
      <trkpt lat="43.3979050" lon="-3.2451450">
        <ele>106.6</ele>
        <time>2022-01-16T09:54:57Z</time>
      </trkpt>
      <trkpt lat="43.3979120" lon="-3.2452680">
        <ele>106.4</ele>
        <time>2022-01-16T09:54:58Z</time>
      </trkpt>
      <trkpt lat="43.3979180" lon="-3.2453920">
        <ele>106.2</ele>
        <time>2022-01-16T09:54:59Z</time>
      </trkpt>
      <trkpt lat="43.3979250" lon="-3.2455160">
        <ele>106.0</ele>
        <time>2022-01-16T09:55:00Z</time>
      </trkpt>
      <trkpt lat="43.3979320" lon="-3.2456410">
        <ele>106.0</ele>
        <time>2022-01-16T09:55:01Z</time>
      </trkpt>
      <trkpt lat="43.3979390" lon="-3.2457670">
        <ele>105.8</ele>
        <time>2022-01-16T09:55:02Z</time>
      </trkpt>
      <trkpt lat="43.3979470" lon="-3.2458920">
        <ele>105.8</ele>
        <time>2022-01-16T09:55:03Z</time>
      </trkpt>
      <trkpt lat="43.3979540" lon="-3.2460180">
        <ele>105.8</ele>
        <time>2022-01-16T09:55:04Z</time>
      </trkpt>
      <trkpt lat="43.3979620" lon="-3.2461440">
        <ele>105.8</ele>
        <time>2022-01-16T09:55:05Z</time>
      </trkpt>
      <trkpt lat="43.3979700" lon="-3.2462690">
        <ele>105.8</ele>
        <time>2022-01-16T09:55:06Z</time>
      </trkpt>
      <trkpt lat="43.3979810" lon="-3.2463950">
        <ele>105.8</ele>
        <time>2022-01-16T09:55:07Z</time>
      </trkpt>
      <trkpt lat="43.3979920" lon="-3.2465220">
        <ele>105.6</ele>
        <time>2022-01-16T09:55:08Z</time>
      </trkpt>
      <trkpt lat="43.3980050" lon="-3.2466480">
        <ele>105.6</ele>
        <time>2022-01-16T09:55:09Z</time>
      </trkpt>
      <trkpt lat="43.3980200" lon="-3.2467730">
        <ele>105.4</ele>
        <time>2022-01-16T09:55:10Z</time>
      </trkpt>
      <trkpt lat="43.3980370" lon="-3.2468950">
        <ele>105.2</ele>
        <time>2022-01-16T09:55:11Z</time>
      </trkpt>
      <trkpt lat="43.3980550" lon="-3.2470160">
        <ele>105.2</ele>
        <time>2022-01-16T09:55:12Z</time>
      </trkpt>
      <trkpt lat="43.3980750" lon="-3.2471360">
        <ele>105.2</ele>
        <time>2022-01-16T09:55:13Z</time>
      </trkpt>
      <trkpt lat="43.3980950" lon="-3.2472530">
        <ele>105.2</ele>
        <time>2022-01-16T09:55:14Z</time>
      </trkpt>
      <trkpt lat="43.3981160" lon="-3.2473700">
        <ele>105.2</ele>
        <time>2022-01-16T09:55:15Z</time>
      </trkpt>
      <trkpt lat="43.3981360" lon="-3.2474820">
        <ele>105.2</ele>
        <time>2022-01-16T09:55:16Z</time>
      </trkpt>
      <trkpt lat="43.3981560" lon="-3.2475940">
        <ele>105.2</ele>
        <time>2022-01-16T09:55:17Z</time>
      </trkpt>
      <trkpt lat="43.3981760" lon="-3.2477080">
        <ele>105.4</ele>
        <time>2022-01-16T09:55:18Z</time>
      </trkpt>
      <trkpt lat="43.3981970" lon="-3.2478140">
        <ele>105.6</ele>
        <time>2022-01-16T09:55:19Z</time>
      </trkpt>
      <trkpt lat="43.3982160" lon="-3.2479180">
        <ele>105.8</ele>
        <time>2022-01-16T09:55:20Z</time>
      </trkpt>
      <trkpt lat="43.3982350" lon="-3.2480200">
        <ele>106.2</ele>
        <time>2022-01-16T09:55:21Z</time>
      </trkpt>
      <trkpt lat="43.3982540" lon="-3.2481200">
        <ele>106.8</ele>
        <time>2022-01-16T09:55:22Z</time>
      </trkpt>
      <trkpt lat="43.3982720" lon="-3.2482160">
        <ele>107.0</ele>
        <time>2022-01-16T09:55:23Z</time>
      </trkpt>
      <trkpt lat="43.3982890" lon="-3.2483090">
        <ele>107.2</ele>
        <time>2022-01-16T09:55:24Z</time>
      </trkpt>
      <trkpt lat="43.3983060" lon="-3.2483970">
        <ele>107.4</ele>
        <time>2022-01-16T09:55:25Z</time>
      </trkpt>
      <trkpt lat="43.3983230" lon="-3.2484830">
        <ele>107.8</ele>
        <time>2022-01-16T09:55:26Z</time>
      </trkpt>
      <trkpt lat="43.3983390" lon="-3.2485720">
        <ele>107.8</ele>
        <time>2022-01-16T09:55:27Z</time>
      </trkpt>
      <trkpt lat="43.3983550" lon="-3.2486570">
        <ele>108.4</ele>
        <time>2022-01-16T09:55:28Z</time>
      </trkpt>
      <trkpt lat="43.3983700" lon="-3.2487420">
        <ele>108.4</ele>
        <time>2022-01-16T09:55:29Z</time>
      </trkpt>
      <trkpt lat="43.3983850" lon="-3.2488260">
        <ele>108.8</ele>
        <time>2022-01-16T09:55:30Z</time>
      </trkpt>
      <trkpt lat="43.3984020" lon="-3.2489050">
        <ele>109.2</ele>
        <time>2022-01-16T09:55:31Z</time>
      </trkpt>
      <trkpt lat="43.3984190" lon="-3.2489840">
        <ele>109.8</ele>
        <time>2022-01-16T09:55:32Z</time>
      </trkpt>
      <trkpt lat="43.3984330" lon="-3.2490630">
        <ele>110.2</ele>
        <time>2022-01-16T09:55:33Z</time>
      </trkpt>
      <trkpt lat="43.3984480" lon="-3.2491390">
        <ele>110.8</ele>
        <time>2022-01-16T09:55:34Z</time>
      </trkpt>
      <trkpt lat="43.3984650" lon="-3.2492130">
        <ele>111.0</ele>
        <time>2022-01-16T09:55:35Z</time>
      </trkpt>
      <trkpt lat="43.3984830" lon="-3.2492850">
        <ele>111.6</ele>
        <time>2022-01-16T09:55:36Z</time>
      </trkpt>
      <trkpt lat="43.3985010" lon="-3.2493570">
        <ele>112.0</ele>
        <time>2022-01-16T09:55:37Z</time>
      </trkpt>
      <trkpt lat="43.3985190" lon="-3.2494300">
        <ele>112.2</ele>
        <time>2022-01-16T09:55:38Z</time>
      </trkpt>
      <trkpt lat="43.3985380" lon="-3.2495020">
        <ele>112.4</ele>
        <time>2022-01-16T09:55:39Z</time>
      </trkpt>
      <trkpt lat="43.3985580" lon="-3.2495730">
        <ele>112.8</ele>
        <time>2022-01-16T09:55:40Z</time>
      </trkpt>
      <trkpt lat="43.3985770" lon="-3.2496450">
        <ele>113.0</ele>
        <time>2022-01-16T09:55:41Z</time>
      </trkpt>
      <trkpt lat="43.3985960" lon="-3.2497150">
        <ele>113.4</ele>
        <time>2022-01-16T09:55:42Z</time>
      </trkpt>
      <trkpt lat="43.3986160" lon="-3.2497840">
        <ele>113.8</ele>
        <time>2022-01-16T09:55:43Z</time>
      </trkpt>
      <trkpt lat="43.3986360" lon="-3.2498520">
        <ele>114.2</ele>
        <time>2022-01-16T09:55:44Z</time>
      </trkpt>
      <trkpt lat="43.3986570" lon="-3.2499200">
        <ele>114.6</ele>
        <time>2022-01-16T09:55:45Z</time>
      </trkpt>
      <trkpt lat="43.3986780" lon="-3.2499890">
        <ele>115.0</ele>
        <time>2022-01-16T09:55:46Z</time>
      </trkpt>
      <trkpt lat="43.3986990" lon="-3.2500590">
        <ele>115.4</ele>
        <time>2022-01-16T09:55:47Z</time>
      </trkpt>
      <trkpt lat="43.3987220" lon="-3.2501300">
        <ele>115.8</ele>
        <time>2022-01-16T09:55:48Z</time>
      </trkpt>
      <trkpt lat="43.3987460" lon="-3.2502010">
        <ele>116.0</ele>
        <time>2022-01-16T09:55:49Z</time>
      </trkpt>
      <trkpt lat="43.3987690" lon="-3.2502710">
        <ele>116.4</ele>
        <time>2022-01-16T09:55:50Z</time>
      </trkpt>
      <trkpt lat="43.3987930" lon="-3.2503410">
        <ele>116.6</ele>
        <time>2022-01-16T09:55:51Z</time>
      </trkpt>
      <trkpt lat="43.3988180" lon="-3.2504120">
        <ele>116.8</ele>
        <time>2022-01-16T09:55:52Z</time>
      </trkpt>
      <trkpt lat="43.3988450" lon="-3.2504840">
        <ele>117.2</ele>
        <time>2022-01-16T09:55:53Z</time>
      </trkpt>
      <trkpt lat="43.3988740" lon="-3.2505550">
        <ele>117.4</ele>
        <time>2022-01-16T09:55:54Z</time>
      </trkpt>
      <trkpt lat="43.3989050" lon="-3.2506230">
        <ele>117.8</ele>
        <time>2022-01-16T09:55:55Z</time>
      </trkpt>
      <trkpt lat="43.3989380" lon="-3.2506870">
        <ele>118.2</ele>
        <time>2022-01-16T09:55:56Z</time>
      </trkpt>
      <trkpt lat="43.3989720" lon="-3.2507470">
        <ele>118.6</ele>
        <time>2022-01-16T09:55:57Z</time>
      </trkpt>
      <trkpt lat="43.3990070" lon="-3.2508060">
        <ele>118.8</ele>
        <time>2022-01-16T09:55:58Z</time>
      </trkpt>
      <trkpt lat="43.3990410" lon="-3.2508660">
        <ele>119.2</ele>
        <time>2022-01-16T09:55:59Z</time>
      </trkpt>
      <trkpt lat="43.3990630" lon="-3.2509540">
        <ele>119.4</ele>
        <time>2022-01-16T09:56:00Z</time>
      </trkpt>
      <trkpt lat="43.3990930" lon="-3.2510240">
        <ele>119.6</ele>
        <time>2022-01-16T09:56:01Z</time>
      </trkpt>
      <trkpt lat="43.3991230" lon="-3.2510940">
        <ele>119.8</ele>
        <time>2022-01-16T09:56:02Z</time>
      </trkpt>
      <trkpt lat="43.3991520" lon="-3.2511620">
        <ele>120.0</ele>
        <time>2022-01-16T09:56:03Z</time>
      </trkpt>
      <trkpt lat="43.3991830" lon="-3.2512260">
        <ele>120.0</ele>
        <time>2022-01-16T09:56:04Z</time>
      </trkpt>
      <trkpt lat="43.3992070" lon="-3.2513040">
        <ele>120.2</ele>
        <time>2022-01-16T09:56:05Z</time>
      </trkpt>
      <trkpt lat="43.3992340" lon="-3.2513740">
        <ele>120.4</ele>
        <time>2022-01-16T09:56:06Z</time>
      </trkpt>
      <trkpt lat="43.3992600" lon="-3.2514460">
        <ele>120.6</ele>
        <time>2022-01-16T09:56:07Z</time>
      </trkpt>
      <trkpt lat="43.3992860" lon="-3.2515190">
        <ele>121.0</ele>
        <time>2022-01-16T09:56:08Z</time>
      </trkpt>
      <trkpt lat="43.3993130" lon="-3.2515940">
        <ele>121.2</ele>
        <time>2022-01-16T09:56:09Z</time>
      </trkpt>
      <trkpt lat="43.3993380" lon="-3.2516700">
        <ele>121.4</ele>
        <time>2022-01-16T09:56:10Z</time>
      </trkpt>
      <trkpt lat="43.3993640" lon="-3.2517470">
        <ele>121.4</ele>
        <time>2022-01-16T09:56:11Z</time>
      </trkpt>
      <trkpt lat="43.3993890" lon="-3.2518260">
        <ele>121.6</ele>
        <time>2022-01-16T09:56:12Z</time>
      </trkpt>
      <trkpt lat="43.3994140" lon="-3.2519050">
        <ele>121.6</ele>
        <time>2022-01-16T09:56:13Z</time>
      </trkpt>
      <trkpt lat="43.3994390" lon="-3.2519840">
        <ele>121.6</ele>
        <time>2022-01-16T09:56:14Z</time>
      </trkpt>
      <trkpt lat="43.3994630" lon="-3.2520660">
        <ele>121.8</ele>
        <time>2022-01-16T09:56:15Z</time>
      </trkpt>
      <trkpt lat="43.3994880" lon="-3.2521480">
        <ele>122.2</ele>
        <time>2022-01-16T09:56:16Z</time>
      </trkpt>
      <trkpt lat="43.3995120" lon="-3.2522310">
        <ele>122.2</ele>
        <time>2022-01-16T09:56:17Z</time>
      </trkpt>
      <trkpt lat="43.3995370" lon="-3.2523150">
        <ele>122.4</ele>
        <time>2022-01-16T09:56:18Z</time>
      </trkpt>
      <trkpt lat="43.3995640" lon="-3.2523990">
        <ele>122.4</ele>
        <time>2022-01-16T09:56:19Z</time>
      </trkpt>
      <trkpt lat="43.3995890" lon="-3.2524830">
        <ele>122.6</ele>
        <time>2022-01-16T09:56:20Z</time>
      </trkpt>
      <trkpt lat="43.3996140" lon="-3.2525680">
        <ele>122.6</ele>
        <time>2022-01-16T09:56:21Z</time>
      </trkpt>
      <trkpt lat="43.3996380" lon="-3.2526530">
        <ele>122.8</ele>
        <time>2022-01-16T09:56:22Z</time>
      </trkpt>
      <trkpt lat="43.3996620" lon="-3.2527390">
        <ele>123.0</ele>
        <time>2022-01-16T09:56:23Z</time>
      </trkpt>
      <trkpt lat="43.3996860" lon="-3.2528270">
        <ele>122.8</ele>
        <time>2022-01-16T09:56:24Z</time>
      </trkpt>
      <trkpt lat="43.3997090" lon="-3.2529160">
        <ele>123.0</ele>
        <time>2022-01-16T09:56:25Z</time>
      </trkpt>
      <trkpt lat="43.3997330" lon="-3.2530050">
        <ele>123.2</ele>
        <time>2022-01-16T09:56:26Z</time>
      </trkpt>
      <trkpt lat="43.3997580" lon="-3.2530940">
        <ele>123.2</ele>
        <time>2022-01-16T09:56:27Z</time>
      </trkpt>
      <trkpt lat="43.3997820" lon="-3.2531830">
        <ele>123.4</ele>
        <time>2022-01-16T09:56:28Z</time>
      </trkpt>
      <trkpt lat="43.3998050" lon="-3.2532730">
        <ele>123.4</ele>
        <time>2022-01-16T09:56:29Z</time>
      </trkpt>
      <trkpt lat="43.3998300" lon="-3.2533630">
        <ele>123.6</ele>
        <time>2022-01-16T09:56:30Z</time>
      </trkpt>
      <trkpt lat="43.3998540" lon="-3.2534520">
        <ele>123.8</ele>
        <time>2022-01-16T09:56:31Z</time>
      </trkpt>
      <trkpt lat="43.3998770" lon="-3.2535400">
        <ele>123.8</ele>
        <time>2022-01-16T09:56:32Z</time>
      </trkpt>
      <trkpt lat="43.3999010" lon="-3.2536280">
        <ele>124.0</ele>
        <time>2022-01-16T09:56:33Z</time>
      </trkpt>
      <trkpt lat="43.3999240" lon="-3.2537190">
        <ele>124.0</ele>
        <time>2022-01-16T09:56:34Z</time>
      </trkpt>
      <trkpt lat="43.3999470" lon="-3.2538090">
        <ele>124.0</ele>
        <time>2022-01-16T09:56:35Z</time>
      </trkpt>
      <trkpt lat="43.3999710" lon="-3.2538980">
        <ele>124.2</ele>
        <time>2022-01-16T09:56:36Z</time>
      </trkpt>
      <trkpt lat="43.3999940" lon="-3.2539870">
        <ele>124.4</ele>
        <time>2022-01-16T09:56:37Z</time>
      </trkpt>
      <trkpt lat="43.4000170" lon="-3.2540780">
        <ele>124.4</ele>
        <time>2022-01-16T09:56:38Z</time>
      </trkpt>
      <trkpt lat="43.4000390" lon="-3.2541700">
        <ele>124.4</ele>
        <time>2022-01-16T09:56:39Z</time>
      </trkpt>
      <trkpt lat="43.4000590" lon="-3.2542630">
        <ele>124.6</ele>
        <time>2022-01-16T09:56:40Z</time>
      </trkpt>
      <trkpt lat="43.4000780" lon="-3.2543570">
        <ele>124.6</ele>
        <time>2022-01-16T09:56:41Z</time>
      </trkpt>
      <trkpt lat="43.4000960" lon="-3.2544540">
        <ele>124.4</ele>
        <time>2022-01-16T09:56:42Z</time>
      </trkpt>
      <trkpt lat="43.4001130" lon="-3.2545510">
        <ele>124.4</ele>
        <time>2022-01-16T09:56:43Z</time>
      </trkpt>
      <trkpt lat="43.4001280" lon="-3.2546500">
        <ele>124.2</ele>
        <time>2022-01-16T09:56:44Z</time>
      </trkpt>
      <trkpt lat="43.4001410" lon="-3.2547510">
        <ele>124.2</ele>
        <time>2022-01-16T09:56:45Z</time>
      </trkpt>
      <trkpt lat="43.4001520" lon="-3.2548540">
        <ele>124.2</ele>
        <time>2022-01-16T09:56:46Z</time>
      </trkpt>
      <trkpt lat="43.4001620" lon="-3.2549590">
        <ele>124.2</ele>
        <time>2022-01-16T09:56:47Z</time>
      </trkpt>
      <trkpt lat="43.4001710" lon="-3.2550650">
        <ele>124.2</ele>
        <time>2022-01-16T09:56:48Z</time>
      </trkpt>
      <trkpt lat="43.4001790" lon="-3.2551730">
        <ele>124.0</ele>
        <time>2022-01-16T09:56:49Z</time>
      </trkpt>
      <trkpt lat="43.4001870" lon="-3.2552830">
        <ele>124.0</ele>
        <time>2022-01-16T09:56:50Z</time>
      </trkpt>
      <trkpt lat="43.4001970" lon="-3.2553950">
        <ele>123.8</ele>
        <time>2022-01-16T09:56:51Z</time>
      </trkpt>
      <trkpt lat="43.4002070" lon="-3.2555080">
        <ele>123.6</ele>
        <time>2022-01-16T09:56:52Z</time>
      </trkpt>
      <trkpt lat="43.4002150" lon="-3.2556210">
        <ele>123.0</ele>
        <time>2022-01-16T09:56:53Z</time>
      </trkpt>
      <trkpt lat="43.4002210" lon="-3.2557370">
        <ele>122.6</ele>
        <time>2022-01-16T09:56:54Z</time>
      </trkpt>
      <trkpt lat="43.4002290" lon="-3.2558550">
        <ele>122.2</ele>
        <time>2022-01-16T09:56:55Z</time>
      </trkpt>
      <trkpt lat="43.4002380" lon="-3.2559730">
        <ele>121.8</ele>
        <time>2022-01-16T09:56:56Z</time>
      </trkpt>
      <trkpt lat="43.4002460" lon="-3.2560920">
        <ele>121.6</ele>
        <time>2022-01-16T09:56:57Z</time>
      </trkpt>
      <trkpt lat="43.4002530" lon="-3.2562130">
        <ele>121.4</ele>
        <time>2022-01-16T09:56:58Z</time>
      </trkpt>
      <trkpt lat="43.4002620" lon="-3.2563350">
        <ele>121.2</ele>
        <time>2022-01-16T09:56:59Z</time>
      </trkpt>
      <trkpt lat="43.4002700" lon="-3.2564580">
        <ele>121.0</ele>
        <time>2022-01-16T09:57:00Z</time>
      </trkpt>
      <trkpt lat="43.4002790" lon="-3.2565820">
        <ele>120.8</ele>
        <time>2022-01-16T09:57:01Z</time>
      </trkpt>
      <trkpt lat="43.4002860" lon="-3.2567070">
        <ele>120.4</ele>
        <time>2022-01-16T09:57:02Z</time>
      </trkpt>
      <trkpt lat="43.4002930" lon="-3.2568310">
        <ele>120.0</ele>
        <time>2022-01-16T09:57:03Z</time>
      </trkpt>
      <trkpt lat="43.4003010" lon="-3.2569560">
        <ele>119.8</ele>
        <time>2022-01-16T09:57:04Z</time>
      </trkpt>
      <trkpt lat="43.4003090" lon="-3.2570810">
        <ele>119.6</ele>
        <time>2022-01-16T09:57:05Z</time>
      </trkpt>
      <trkpt lat="43.4003190" lon="-3.2572070">
        <ele>119.4</ele>
        <time>2022-01-16T09:57:06Z</time>
      </trkpt>
      <trkpt lat="43.4003290" lon="-3.2573330">
        <ele>118.8</ele>
        <time>2022-01-16T09:57:07Z</time>
      </trkpt>
      <trkpt lat="43.4003380" lon="-3.2574600">
        <ele>118.6</ele>
        <time>2022-01-16T09:57:08Z</time>
      </trkpt>
      <trkpt lat="43.4003480" lon="-3.2575890">
        <ele>118.4</ele>
        <time>2022-01-16T09:57:09Z</time>
      </trkpt>
      <trkpt lat="43.4003570" lon="-3.2577190">
        <ele>117.8</ele>
        <time>2022-01-16T09:57:10Z</time>
      </trkpt>
      <trkpt lat="43.4003660" lon="-3.2578500">
        <ele>117.4</ele>
        <time>2022-01-16T09:57:11Z</time>
      </trkpt>
      <trkpt lat="43.4003750" lon="-3.2579810">
        <ele>117.0</ele>
        <time>2022-01-16T09:57:12Z</time>
      </trkpt>
      <trkpt lat="43.4003840" lon="-3.2581130">
        <ele>116.6</ele>
        <time>2022-01-16T09:57:13Z</time>
      </trkpt>
      <trkpt lat="43.4003920" lon="-3.2582480">
        <ele>116.2</ele>
        <time>2022-01-16T09:57:14Z</time>
      </trkpt>
      <trkpt lat="43.4004010" lon="-3.2583850">
        <ele>115.4</ele>
        <time>2022-01-16T09:57:15Z</time>
      </trkpt>
      <trkpt lat="43.4004100" lon="-3.2585260">
        <ele>114.4</ele>
        <time>2022-01-16T09:57:16Z</time>
      </trkpt>
      <trkpt lat="43.4004190" lon="-3.2586680">
        <ele>114.0</ele>
        <time>2022-01-16T09:57:17Z</time>
      </trkpt>
      <trkpt lat="43.4004280" lon="-3.2588130">
        <ele>113.6</ele>
        <time>2022-01-16T09:57:18Z</time>
      </trkpt>
      <trkpt lat="43.4004370" lon="-3.2589590">
        <ele>113.2</ele>
        <time>2022-01-16T09:57:19Z</time>
      </trkpt>
      <trkpt lat="43.4004460" lon="-3.2591070">
        <ele>113.0</ele>
        <time>2022-01-16T09:57:20Z</time>
      </trkpt>
      <trkpt lat="43.4004540" lon="-3.2592570">
        <ele>112.4</ele>
        <time>2022-01-16T09:57:21Z</time>
      </trkpt>
      <trkpt lat="43.4004630" lon="-3.2594080">
        <ele>111.8</ele>
        <time>2022-01-16T09:57:22Z</time>
      </trkpt>
      <trkpt lat="43.4004720" lon="-3.2595610">
        <ele>111.0</ele>
        <time>2022-01-16T09:57:23Z</time>
      </trkpt>
      <trkpt lat="43.4004820" lon="-3.2597130">
        <ele>110.4</ele>
        <time>2022-01-16T09:57:24Z</time>
      </trkpt>
      <trkpt lat="43.4004910" lon="-3.2598660">
        <ele>109.2</ele>
        <time>2022-01-16T09:57:25Z</time>
      </trkpt>
      <trkpt lat="43.4005000" lon="-3.2600190">
        <ele>108.6</ele>
        <time>2022-01-16T09:57:26Z</time>
      </trkpt>
      <trkpt lat="43.4005090" lon="-3.2601740">
        <ele>108.2</ele>
        <time>2022-01-16T09:57:27Z</time>
      </trkpt>
      <trkpt lat="43.4005180" lon="-3.2603290">
        <ele>107.8</ele>
        <time>2022-01-16T09:57:28Z</time>
      </trkpt>
      <trkpt lat="43.4005260" lon="-3.2604850">
        <ele>107.4</ele>
        <time>2022-01-16T09:57:29Z</time>
      </trkpt>
      <trkpt lat="43.4005340" lon="-3.2606420">
        <ele>106.6</ele>
        <time>2022-01-16T09:57:30Z</time>
      </trkpt>
      <trkpt lat="43.4005430" lon="-3.2608000">
        <ele>106.0</ele>
        <time>2022-01-16T09:57:31Z</time>
      </trkpt>
      <trkpt lat="43.4005520" lon="-3.2609590">
        <ele>105.4</ele>
        <time>2022-01-16T09:57:32Z</time>
      </trkpt>
      <trkpt lat="43.4005600" lon="-3.2611180">
        <ele>104.8</ele>
        <time>2022-01-16T09:57:33Z</time>
      </trkpt>
      <trkpt lat="43.4005700" lon="-3.2612780">
        <ele>104.2</ele>
        <time>2022-01-16T09:57:34Z</time>
      </trkpt>
      <trkpt lat="43.4005800" lon="-3.2614400">
        <ele>103.6</ele>
        <time>2022-01-16T09:57:35Z</time>
      </trkpt>
      <trkpt lat="43.4005910" lon="-3.2616020">
        <ele>103.0</ele>
        <time>2022-01-16T09:57:36Z</time>
      </trkpt>
      <trkpt lat="43.4006030" lon="-3.2617650">
        <ele>102.2</ele>
        <time>2022-01-16T09:57:37Z</time>
      </trkpt>
      <trkpt lat="43.4006140" lon="-3.2619290">
        <ele>101.8</ele>
        <time>2022-01-16T09:57:38Z</time>
      </trkpt>
      <trkpt lat="43.4006240" lon="-3.2620930">
        <ele>101.0</ele>
        <time>2022-01-16T09:57:39Z</time>
      </trkpt>
      <trkpt lat="43.4006340" lon="-3.2622570">
        <ele>100.0</ele>
        <time>2022-01-16T09:57:40Z</time>
      </trkpt>
      <trkpt lat="43.4006450" lon="-3.2624210">
        <ele>99.2</ele>
        <time>2022-01-16T09:57:41Z</time>
      </trkpt>
      <trkpt lat="43.4006550" lon="-3.2625840">
        <ele>98.8</ele>
        <time>2022-01-16T09:57:42Z</time>
      </trkpt>
      <trkpt lat="43.4006640" lon="-3.2627470">
        <ele>98.2</ele>
        <time>2022-01-16T09:57:43Z</time>
      </trkpt>
      <trkpt lat="43.4006730" lon="-3.2629100">
        <ele>97.8</ele>
        <time>2022-01-16T09:57:44Z</time>
      </trkpt>
      <trkpt lat="43.4006820" lon="-3.2630720">
        <ele>97.6</ele>
        <time>2022-01-16T09:57:45Z</time>
      </trkpt>
      <trkpt lat="43.4006920" lon="-3.2632320">
        <ele>97.6</ele>
        <time>2022-01-16T09:57:46Z</time>
      </trkpt>
      <trkpt lat="43.4007040" lon="-3.2633880">
        <ele>97.4</ele>
        <time>2022-01-16T09:57:47Z</time>
      </trkpt>
      <trkpt lat="43.4007160" lon="-3.2635430">
        <ele>97.4</ele>
        <time>2022-01-16T09:57:48Z</time>
      </trkpt>
      <trkpt lat="43.4007270" lon="-3.2636910">
        <ele>97.4</ele>
        <time>2022-01-16T09:57:49Z</time>
      </trkpt>
      <trkpt lat="43.4007360" lon="-3.2638360">
        <ele>97.6</ele>
        <time>2022-01-16T09:57:50Z</time>
      </trkpt>
      <trkpt lat="43.4007450" lon="-3.2639790">
        <ele>97.6</ele>
        <time>2022-01-16T09:57:51Z</time>
      </trkpt>
      <trkpt lat="43.4007530" lon="-3.2641190">
        <ele>97.8</ele>
        <time>2022-01-16T09:57:52Z</time>
      </trkpt>
      <trkpt lat="43.4007610" lon="-3.2642550">
        <ele>97.8</ele>
        <time>2022-01-16T09:57:53Z</time>
      </trkpt>
      <trkpt lat="43.4007700" lon="-3.2643870">
        <ele>97.8</ele>
        <time>2022-01-16T09:57:54Z</time>
      </trkpt>
      <trkpt lat="43.4007770" lon="-3.2645150">
        <ele>98.0</ele>
        <time>2022-01-16T09:57:55Z</time>
      </trkpt>
      <trkpt lat="43.4007850" lon="-3.2646390">
        <ele>98.2</ele>
        <time>2022-01-16T09:57:56Z</time>
      </trkpt>
      <trkpt lat="43.4007920" lon="-3.2647580">
        <ele>98.4</ele>
        <time>2022-01-16T09:57:57Z</time>
      </trkpt>
      <trkpt lat="43.4008000" lon="-3.2648740">
        <ele>98.8</ele>
        <time>2022-01-16T09:57:58Z</time>
      </trkpt>
      <trkpt lat="43.4008080" lon="-3.2649870">
        <ele>99.2</ele>
        <time>2022-01-16T09:57:59Z</time>
      </trkpt>
      <trkpt lat="43.4008160" lon="-3.2650970">
        <ele>99.8</ele>
        <time>2022-01-16T09:58:00Z</time>
      </trkpt>
      <trkpt lat="43.4008220" lon="-3.2652030">
        <ele>100.2</ele>
        <time>2022-01-16T09:58:01Z</time>
      </trkpt>
      <trkpt lat="43.4008270" lon="-3.2653060">
        <ele>100.6</ele>
        <time>2022-01-16T09:58:02Z</time>
      </trkpt>
      <trkpt lat="43.4008310" lon="-3.2654050">
        <ele>100.8</ele>
        <time>2022-01-16T09:58:03Z</time>
      </trkpt>
      <trkpt lat="43.4008320" lon="-3.2655010">
        <ele>101.4</ele>
        <time>2022-01-16T09:58:04Z</time>
      </trkpt>
      <trkpt lat="43.4008320" lon="-3.2655960">
        <ele>101.6</ele>
        <time>2022-01-16T09:58:05Z</time>
      </trkpt>
      <trkpt lat="43.4008310" lon="-3.2656900">
        <ele>102.0</ele>
        <time>2022-01-16T09:58:06Z</time>
      </trkpt>
      <trkpt lat="43.4008290" lon="-3.2657840">
        <ele>102.0</ele>
        <time>2022-01-16T09:58:07Z</time>
      </trkpt>
      <trkpt lat="43.4008260" lon="-3.2658770">
        <ele>102.2</ele>
        <time>2022-01-16T09:58:08Z</time>
      </trkpt>
      <trkpt lat="43.4008200" lon="-3.2659680">
        <ele>102.6</ele>
        <time>2022-01-16T09:58:09Z</time>
      </trkpt>
      <trkpt lat="43.4008130" lon="-3.2660570">
        <ele>102.8</ele>
        <time>2022-01-16T09:58:10Z</time>
      </trkpt>
      <trkpt lat="43.4008040" lon="-3.2661410">
        <ele>103.0</ele>
        <time>2022-01-16T09:58:11Z</time>
      </trkpt>
      <trkpt lat="43.4007940" lon="-3.2662260">
        <ele>103.4</ele>
        <time>2022-01-16T09:58:12Z</time>
      </trkpt>
      <trkpt lat="43.4007830" lon="-3.2663100">
        <ele>103.8</ele>
        <time>2022-01-16T09:58:13Z</time>
      </trkpt>
      <trkpt lat="43.4007690" lon="-3.2663900">
        <ele>104.2</ele>
        <time>2022-01-16T09:58:14Z</time>
      </trkpt>
      <trkpt lat="43.4007550" lon="-3.2664680">
        <ele>104.4</ele>
        <time>2022-01-16T09:58:15Z</time>
      </trkpt>
      <trkpt lat="43.4007410" lon="-3.2665450">
        <ele>104.8</ele>
        <time>2022-01-16T09:58:16Z</time>
      </trkpt>
      <trkpt lat="43.4007250" lon="-3.2666220">
        <ele>105.0</ele>
        <time>2022-01-16T09:58:17Z</time>
      </trkpt>
      <trkpt lat="43.4007070" lon="-3.2666990">
        <ele>105.4</ele>
        <time>2022-01-16T09:58:18Z</time>
      </trkpt>
      <trkpt lat="43.4006890" lon="-3.2667750">
        <ele>105.4</ele>
        <time>2022-01-16T09:58:19Z</time>
      </trkpt>
      <trkpt lat="43.4006710" lon="-3.2668500">
        <ele>105.8</ele>
        <time>2022-01-16T09:58:20Z</time>
      </trkpt>
      <trkpt lat="43.4006500" lon="-3.2669230">
        <ele>106.0</ele>
        <time>2022-01-16T09:58:21Z</time>
      </trkpt>
      <trkpt lat="43.4006280" lon="-3.2669940">
        <ele>106.4</ele>
        <time>2022-01-16T09:58:22Z</time>
      </trkpt>
      <trkpt lat="43.4006030" lon="-3.2670640">
        <ele>107.2</ele>
        <time>2022-01-16T09:58:23Z</time>
      </trkpt>
      <trkpt lat="43.4005770" lon="-3.2671350">
        <ele>107.6</ele>
        <time>2022-01-16T09:58:24Z</time>
      </trkpt>
      <trkpt lat="43.4005510" lon="-3.2672040">
        <ele>107.8</ele>
        <time>2022-01-16T09:58:25Z</time>
      </trkpt>
      <trkpt lat="43.4005250" lon="-3.2672700">
        <ele>108.4</ele>
        <time>2022-01-16T09:58:26Z</time>
      </trkpt>
      <trkpt lat="43.4004980" lon="-3.2673330">
        <ele>108.8</ele>
        <time>2022-01-16T09:58:27Z</time>
      </trkpt>
      <trkpt lat="43.4004700" lon="-3.2673960">
        <ele>109.2</ele>
        <time>2022-01-16T09:58:28Z</time>
      </trkpt>
      <trkpt lat="43.4004410" lon="-3.2674620">
        <ele>109.2</ele>
        <time>2022-01-16T09:58:29Z</time>
      </trkpt>
      <trkpt lat="43.4004130" lon="-3.2675270">
        <ele>109.4</ele>
        <time>2022-01-16T09:58:30Z</time>
      </trkpt>
      <trkpt lat="43.4003840" lon="-3.2675920">
        <ele>109.8</ele>
        <time>2022-01-16T09:58:31Z</time>
      </trkpt>
      <trkpt lat="43.4003530" lon="-3.2676570">
        <ele>110.0</ele>
        <time>2022-01-16T09:58:32Z</time>
      </trkpt>
      <trkpt lat="43.4003220" lon="-3.2677220">
        <ele>110.2</ele>
        <time>2022-01-16T09:58:33Z</time>
      </trkpt>
      <trkpt lat="43.4002920" lon="-3.2677870">
        <ele>110.6</ele>
        <time>2022-01-16T09:58:34Z</time>
      </trkpt>
      <trkpt lat="43.4002620" lon="-3.2678530">
        <ele>111.0</ele>
        <time>2022-01-16T09:58:35Z</time>
      </trkpt>
      <trkpt lat="43.4002330" lon="-3.2679180">
        <ele>111.2</ele>
        <time>2022-01-16T09:58:36Z</time>
      </trkpt>
      <trkpt lat="43.4002020" lon="-3.2679840">
        <ele>111.6</ele>
        <time>2022-01-16T09:58:37Z</time>
      </trkpt>
      <trkpt lat="43.4001710" lon="-3.2680490">
        <ele>111.8</ele>
        <time>2022-01-16T09:58:38Z</time>
      </trkpt>
      <trkpt lat="43.4001410" lon="-3.2681120">
        <ele>112.0</ele>
        <time>2022-01-16T09:58:39Z</time>
      </trkpt>
      <trkpt lat="43.4001110" lon="-3.2681740">
        <ele>112.2</ele>
        <time>2022-01-16T09:58:40Z</time>
      </trkpt>
      <trkpt lat="43.4000810" lon="-3.2682350">
        <ele>112.6</ele>
        <time>2022-01-16T09:58:41Z</time>
      </trkpt>
      <trkpt lat="43.4000510" lon="-3.2682960">
        <ele>112.8</ele>
        <time>2022-01-16T09:58:42Z</time>
      </trkpt>
      <trkpt lat="43.4000210" lon="-3.2683580">
        <ele>113.2</ele>
        <time>2022-01-16T09:58:43Z</time>
      </trkpt>
      <trkpt lat="43.3999900" lon="-3.2684210">
        <ele>113.6</ele>
        <time>2022-01-16T09:58:44Z</time>
      </trkpt>
      <trkpt lat="43.3999580" lon="-3.2684840">
        <ele>114.0</ele>
        <time>2022-01-16T09:58:45Z</time>
      </trkpt>
      <trkpt lat="43.3999270" lon="-3.2685470">
        <ele>114.2</ele>
        <time>2022-01-16T09:58:46Z</time>
      </trkpt>
      <trkpt lat="43.3998980" lon="-3.2686100">
        <ele>114.2</ele>
        <time>2022-01-16T09:58:47Z</time>
      </trkpt>
      <trkpt lat="43.3998680" lon="-3.2686730">
        <ele>114.6</ele>
        <time>2022-01-16T09:58:48Z</time>
      </trkpt>
      <trkpt lat="43.3998380" lon="-3.2687350">
        <ele>115.0</ele>
        <time>2022-01-16T09:58:49Z</time>
      </trkpt>
      <trkpt lat="43.3998070" lon="-3.2687980">
        <ele>115.2</ele>
        <time>2022-01-16T09:58:50Z</time>
      </trkpt>
      <trkpt lat="43.3997760" lon="-3.2688610">
        <ele>115.4</ele>
        <time>2022-01-16T09:58:51Z</time>
      </trkpt>
      <trkpt lat="43.3997460" lon="-3.2689240">
        <ele>115.6</ele>
        <time>2022-01-16T09:58:52Z</time>
      </trkpt>
      <trkpt lat="43.3997160" lon="-3.2689880">
        <ele>116.0</ele>
        <time>2022-01-16T09:58:53Z</time>
      </trkpt>
      <trkpt lat="43.3996860" lon="-3.2690520">
        <ele>116.2</ele>
        <time>2022-01-16T09:58:54Z</time>
      </trkpt>
      <trkpt lat="43.3996560" lon="-3.2691150">
        <ele>116.4</ele>
        <time>2022-01-16T09:58:55Z</time>
      </trkpt>
      <trkpt lat="43.3996260" lon="-3.2691790">
        <ele>116.8</ele>
        <time>2022-01-16T09:58:56Z</time>
      </trkpt>
      <trkpt lat="43.3995960" lon="-3.2692420">
        <ele>117.2</ele>
        <time>2022-01-16T09:58:57Z</time>
      </trkpt>
      <trkpt lat="43.3995650" lon="-3.2693040">
        <ele>117.6</ele>
        <time>2022-01-16T09:58:58Z</time>
      </trkpt>
      <trkpt lat="43.3995350" lon="-3.2693660">
        <ele>117.8</ele>
        <time>2022-01-16T09:58:59Z</time>
      </trkpt>
      <trkpt lat="43.3995050" lon="-3.2694280">
        <ele>118.0</ele>
        <time>2022-01-16T09:59:00Z</time>
      </trkpt>
      <trkpt lat="43.3994740" lon="-3.2694890">
        <ele>118.4</ele>
        <time>2022-01-16T09:59:01Z</time>
      </trkpt>
      <trkpt lat="43.3994440" lon="-3.2695490">
        <ele>118.8</ele>
        <time>2022-01-16T09:59:02Z</time>
      </trkpt>
      <trkpt lat="43.3994140" lon="-3.2696110">
        <ele>119.2</ele>
        <time>2022-01-16T09:59:03Z</time>
      </trkpt>
      <trkpt lat="43.3993840" lon="-3.2696730">
        <ele>119.6</ele>
        <time>2022-01-16T09:59:04Z</time>
      </trkpt>
      <trkpt lat="43.3993540" lon="-3.2697340">
        <ele>119.8</ele>
        <time>2022-01-16T09:59:05Z</time>
      </trkpt>
      <trkpt lat="43.3993240" lon="-3.2697960">
        <ele>120.0</ele>
        <time>2022-01-16T09:59:06Z</time>
      </trkpt>
      <trkpt lat="43.3992950" lon="-3.2698570">
        <ele>120.0</ele>
        <time>2022-01-16T09:59:07Z</time>
      </trkpt>
      <trkpt lat="43.3992650" lon="-3.2699180">
        <ele>120.2</ele>
        <time>2022-01-16T09:59:08Z</time>
      </trkpt>
      <trkpt lat="43.3992360" lon="-3.2699780">
        <ele>120.4</ele>
        <time>2022-01-16T09:59:09Z</time>
      </trkpt>
      <trkpt lat="43.3992060" lon="-3.2700390">
        <ele>120.6</ele>
        <time>2022-01-16T09:59:10Z</time>
      </trkpt>
      <trkpt lat="43.3991760" lon="-3.2701000">
        <ele>121.2</ele>
        <time>2022-01-16T09:59:11Z</time>
      </trkpt>
      <trkpt lat="43.3991450" lon="-3.2701610">
        <ele>121.4</ele>
        <time>2022-01-16T09:59:12Z</time>
      </trkpt>
      <trkpt lat="43.3991150" lon="-3.2702220">
        <ele>121.8</ele>
        <time>2022-01-16T09:59:13Z</time>
      </trkpt>
      <trkpt lat="43.3990850" lon="-3.2702830">
        <ele>122.0</ele>
        <time>2022-01-16T09:59:14Z</time>
      </trkpt>
      <trkpt lat="43.3990550" lon="-3.2703450">
        <ele>122.4</ele>
        <time>2022-01-16T09:59:15Z</time>
      </trkpt>
      <trkpt lat="43.3990250" lon="-3.2704060">
        <ele>122.6</ele>
        <time>2022-01-16T09:59:16Z</time>
      </trkpt>
      <trkpt lat="43.3989960" lon="-3.2704670">
        <ele>122.8</ele>
        <time>2022-01-16T09:59:17Z</time>
      </trkpt>
      <trkpt lat="43.3989670" lon="-3.2705280">
        <ele>123.2</ele>
        <time>2022-01-16T09:59:18Z</time>
      </trkpt>
      <trkpt lat="43.3989380" lon="-3.2705900">
        <ele>123.4</ele>
        <time>2022-01-16T09:59:19Z</time>
      </trkpt>
      <trkpt lat="43.3989100" lon="-3.2706490">
        <ele>123.8</ele>
        <time>2022-01-16T09:59:20Z</time>
      </trkpt>
      <trkpt lat="43.3988830" lon="-3.2707080">
        <ele>124.0</ele>
        <time>2022-01-16T09:59:21Z</time>
      </trkpt>
      <trkpt lat="43.3988570" lon="-3.2707670">
        <ele>124.2</ele>
        <time>2022-01-16T09:59:22Z</time>
      </trkpt>
      <trkpt lat="43.3988330" lon="-3.2708240">
        <ele>124.4</ele>
        <time>2022-01-16T09:59:23Z</time>
      </trkpt>
      <trkpt lat="43.3988110" lon="-3.2708840">
        <ele>124.6</ele>
        <time>2022-01-16T09:59:24Z</time>
      </trkpt>
      <trkpt lat="43.3987900" lon="-3.2709440">
        <ele>125.0</ele>
        <time>2022-01-16T09:59:25Z</time>
      </trkpt>
      <trkpt lat="43.3987680" lon="-3.2710030">
        <ele>125.2</ele>
        <time>2022-01-16T09:59:26Z</time>
      </trkpt>
      <trkpt lat="43.3987460" lon="-3.2710630">
        <ele>125.4</ele>
        <time>2022-01-16T09:59:27Z</time>
      </trkpt>
      <trkpt lat="43.3987270" lon="-3.2711200">
        <ele>125.6</ele>
        <time>2022-01-16T09:59:28Z</time>
      </trkpt>
      <trkpt lat="43.3987070" lon="-3.2711790">
        <ele>126.0</ele>
        <time>2022-01-16T09:59:29Z</time>
      </trkpt>
      <trkpt lat="43.3986860" lon="-3.2712430">
        <ele>126.2</ele>
        <time>2022-01-16T09:59:30Z</time>
      </trkpt>
      <trkpt lat="43.3986670" lon="-3.2713010">
        <ele>126.4</ele>
        <time>2022-01-16T09:59:31Z</time>
      </trkpt>
      <trkpt lat="43.3986460" lon="-3.2713620">
        <ele>126.6</ele>
        <time>2022-01-16T09:59:32Z</time>
      </trkpt>
      <trkpt lat="43.3986270" lon="-3.2714210">
        <ele>126.8</ele>
        <time>2022-01-16T09:59:33Z</time>
      </trkpt>
      <trkpt lat="43.3986090" lon="-3.2714830">
        <ele>127.0</ele>
        <time>2022-01-16T09:59:34Z</time>
      </trkpt>
      <trkpt lat="43.3985920" lon="-3.2715460">
        <ele>127.2</ele>
        <time>2022-01-16T09:59:35Z</time>
      </trkpt>
      <trkpt lat="43.3985730" lon="-3.2716110">
        <ele>127.4</ele>
        <time>2022-01-16T09:59:36Z</time>
      </trkpt>
      <trkpt lat="43.3985550" lon="-3.2716770">
        <ele>127.6</ele>
        <time>2022-01-16T09:59:37Z</time>
      </trkpt>
      <trkpt lat="43.3985380" lon="-3.2717440">
        <ele>127.6</ele>
        <time>2022-01-16T09:59:38Z</time>
      </trkpt>
      <trkpt lat="43.3985220" lon="-3.2718120">
        <ele>127.8</ele>
        <time>2022-01-16T09:59:39Z</time>
      </trkpt>
      <trkpt lat="43.3985060" lon="-3.2718810">
        <ele>128.0</ele>
        <time>2022-01-16T09:59:40Z</time>
      </trkpt>
      <trkpt lat="43.3984900" lon="-3.2719510">
        <ele>128.2</ele>
        <time>2022-01-16T09:59:41Z</time>
      </trkpt>
      <trkpt lat="43.3984750" lon="-3.2720210">
        <ele>128.4</ele>
        <time>2022-01-16T09:59:42Z</time>
      </trkpt>
      <trkpt lat="43.3984590" lon="-3.2720930">
        <ele>128.4</ele>
        <time>2022-01-16T09:59:43Z</time>
      </trkpt>
      <trkpt lat="43.3984440" lon="-3.2721660">
        <ele>128.6</ele>
        <time>2022-01-16T09:59:44Z</time>
      </trkpt>
      <trkpt lat="43.3984300" lon="-3.2722420">
        <ele>128.6</ele>
        <time>2022-01-16T09:59:45Z</time>
      </trkpt>
      <trkpt lat="43.3984160" lon="-3.2723210">
        <ele>128.8</ele>
        <time>2022-01-16T09:59:46Z</time>
      </trkpt>
      <trkpt lat="43.3984020" lon="-3.2723990">
        <ele>128.8</ele>
        <time>2022-01-16T09:59:47Z</time>
      </trkpt>
      <trkpt lat="43.3983890" lon="-3.2724770">
        <ele>128.8</ele>
        <time>2022-01-16T09:59:48Z</time>
      </trkpt>
      <trkpt lat="43.3983760" lon="-3.2725550">
        <ele>128.8</ele>
        <time>2022-01-16T09:59:49Z</time>
      </trkpt>
      <trkpt lat="43.3983640" lon="-3.2726340">
        <ele>128.8</ele>
        <time>2022-01-16T09:59:50Z</time>
      </trkpt>
      <trkpt lat="43.3983520" lon="-3.2727120">
        <ele>128.8</ele>
        <time>2022-01-16T09:59:51Z</time>
      </trkpt>
      <trkpt lat="43.3983410" lon="-3.2727920">
        <ele>129.0</ele>
        <time>2022-01-16T09:59:52Z</time>
      </trkpt>
      <trkpt lat="43.3983310" lon="-3.2728700">
        <ele>129.0</ele>
        <time>2022-01-16T09:59:53Z</time>
      </trkpt>
      <trkpt lat="43.3983220" lon="-3.2729490">
        <ele>129.2</ele>
        <time>2022-01-16T09:59:54Z</time>
      </trkpt>
      <trkpt lat="43.3983130" lon="-3.2730310">
        <ele>129.2</ele>
        <time>2022-01-16T09:59:55Z</time>
      </trkpt>
      <trkpt lat="43.3983060" lon="-3.2731140">
        <ele>129.4</ele>
        <time>2022-01-16T09:59:56Z</time>
      </trkpt>
      <trkpt lat="43.3982990" lon="-3.2731960">
        <ele>129.4</ele>
        <time>2022-01-16T09:59:57Z</time>
      </trkpt>
      <trkpt lat="43.3982920" lon="-3.2732790">
        <ele>129.6</ele>
        <time>2022-01-16T09:59:58Z</time>
      </trkpt>
      <trkpt lat="43.3982850" lon="-3.2733630">
        <ele>129.6</ele>
        <time>2022-01-16T09:59:59Z</time>
      </trkpt>
      <trkpt lat="43.3982790" lon="-3.2734460">
        <ele>129.6</ele>
        <time>2022-01-16T10:00:00Z</time>
      </trkpt>
      <trkpt lat="43.3982740" lon="-3.2735280">
        <ele>129.8</ele>
        <time>2022-01-16T10:00:01Z</time>
      </trkpt>
      <trkpt lat="43.3982710" lon="-3.2736120">
        <ele>130.0</ele>
        <time>2022-01-16T10:00:02Z</time>
      </trkpt>
      <trkpt lat="43.3982690" lon="-3.2736970">
        <ele>130.2</ele>
        <time>2022-01-16T10:00:03Z</time>
      </trkpt>
      <trkpt lat="43.3982670" lon="-3.2737830">
        <ele>130.4</ele>
        <time>2022-01-16T10:00:04Z</time>
      </trkpt>
      <trkpt lat="43.3982670" lon="-3.2738690">
        <ele>130.4</ele>
        <time>2022-01-16T10:00:05Z</time>
      </trkpt>
      <trkpt lat="43.3982670" lon="-3.2739560">
        <ele>130.4</ele>
        <time>2022-01-16T10:00:06Z</time>
      </trkpt>
      <trkpt lat="43.3982680" lon="-3.2740420">
        <ele>130.4</ele>
        <time>2022-01-16T10:00:07Z</time>
      </trkpt>
      <trkpt lat="43.3982690" lon="-3.2741280">
        <ele>130.4</ele>
        <time>2022-01-16T10:00:08Z</time>
      </trkpt>
      <trkpt lat="43.3982710" lon="-3.2742140">
        <ele>130.6</ele>
        <time>2022-01-16T10:00:09Z</time>
      </trkpt>
      <trkpt lat="43.3982730" lon="-3.2742990">
        <ele>130.6</ele>
        <time>2022-01-16T10:00:10Z</time>
      </trkpt>
      <trkpt lat="43.3982750" lon="-3.2743830">
        <ele>130.8</ele>
        <time>2022-01-16T10:00:11Z</time>
      </trkpt>
      <trkpt lat="43.3982780" lon="-3.2744650">
        <ele>130.8</ele>
        <time>2022-01-16T10:00:12Z</time>
      </trkpt>
      <trkpt lat="43.3982820" lon="-3.2745480">
        <ele>130.8</ele>
        <time>2022-01-16T10:00:13Z</time>
      </trkpt>
      <trkpt lat="43.3982860" lon="-3.2746320">
        <ele>131.2</ele>
        <time>2022-01-16T10:00:14Z</time>
      </trkpt>
      <trkpt lat="43.3982900" lon="-3.2747170">
        <ele>131.0</ele>
        <time>2022-01-16T10:00:15Z</time>
      </trkpt>
      <trkpt lat="43.3982960" lon="-3.2748000">
        <ele>131.2</ele>
        <time>2022-01-16T10:00:16Z</time>
      </trkpt>
      <trkpt lat="43.3983000" lon="-3.2748850">
        <ele>131.2</ele>
        <time>2022-01-16T10:00:17Z</time>
      </trkpt>
      <trkpt lat="43.3983050" lon="-3.2749710">
        <ele>131.2</ele>
        <time>2022-01-16T10:00:18Z</time>
      </trkpt>
      <trkpt lat="43.3983110" lon="-3.2750560">
        <ele>131.4</ele>
        <time>2022-01-16T10:00:19Z</time>
      </trkpt>
      <trkpt lat="43.3983180" lon="-3.2751420">
        <ele>131.6</ele>
        <time>2022-01-16T10:00:20Z</time>
      </trkpt>
      <trkpt lat="43.3983240" lon="-3.2752300">
        <ele>131.6</ele>
        <time>2022-01-16T10:00:21Z</time>
      </trkpt>
      <trkpt lat="43.3983310" lon="-3.2753170">
        <ele>131.8</ele>
        <time>2022-01-16T10:00:22Z</time>
      </trkpt>
      <trkpt lat="43.3983370" lon="-3.2754020">
        <ele>131.8</ele>
        <time>2022-01-16T10:00:23Z</time>
      </trkpt>
      <trkpt lat="43.3983440" lon="-3.2754890">
        <ele>131.8</ele>
        <time>2022-01-16T10:00:24Z</time>
      </trkpt>
      <trkpt lat="43.3983500" lon="-3.2755750">
        <ele>132.0</ele>
        <time>2022-01-16T10:00:25Z</time>
      </trkpt>
      <trkpt lat="43.3983550" lon="-3.2756620">
        <ele>132.0</ele>
        <time>2022-01-16T10:00:26Z</time>
      </trkpt>
      <trkpt lat="43.3983610" lon="-3.2757470">
        <ele>132.2</ele>
        <time>2022-01-16T10:00:27Z</time>
      </trkpt>
      <trkpt lat="43.3983680" lon="-3.2758320">
        <ele>132.2</ele>
        <time>2022-01-16T10:00:28Z</time>
      </trkpt>
      <trkpt lat="43.3983740" lon="-3.2759170">
        <ele>132.4</ele>
        <time>2022-01-16T10:00:29Z</time>
      </trkpt>
      <trkpt lat="43.3983800" lon="-3.2760030">
        <ele>132.6</ele>
        <time>2022-01-16T10:00:30Z</time>
      </trkpt>
      <trkpt lat="43.3983860" lon="-3.2760900">
        <ele>132.6</ele>
        <time>2022-01-16T10:00:31Z</time>
      </trkpt>
      <trkpt lat="43.3983930" lon="-3.2761760">
        <ele>132.6</ele>
        <time>2022-01-16T10:00:32Z</time>
      </trkpt>
      <trkpt lat="43.3984010" lon="-3.2762630">
        <ele>132.6</ele>
        <time>2022-01-16T10:00:33Z</time>
      </trkpt>
      <trkpt lat="43.3984090" lon="-3.2763500">
        <ele>132.6</ele>
        <time>2022-01-16T10:00:34Z</time>
      </trkpt>
      <trkpt lat="43.3984190" lon="-3.2764390">
        <ele>132.6</ele>
        <time>2022-01-16T10:00:35Z</time>
      </trkpt>
      <trkpt lat="43.3984300" lon="-3.2765260">
        <ele>132.6</ele>
        <time>2022-01-16T10:00:36Z</time>
      </trkpt>
      <trkpt lat="43.3984410" lon="-3.2766150">
        <ele>132.8</ele>
        <time>2022-01-16T10:00:37Z</time>
      </trkpt>
      <trkpt lat="43.3984520" lon="-3.2767030">
        <ele>132.8</ele>
        <time>2022-01-16T10:00:38Z</time>
      </trkpt>
      <trkpt lat="43.3984660" lon="-3.2767910">
        <ele>133.0</ele>
        <time>2022-01-16T10:00:39Z</time>
      </trkpt>
      <trkpt lat="43.3984800" lon="-3.2768780">
        <ele>133.2</ele>
        <time>2022-01-16T10:00:40Z</time>
      </trkpt>
      <trkpt lat="43.3984940" lon="-3.2769660">
        <ele>133.2</ele>
        <time>2022-01-16T10:00:41Z</time>
      </trkpt>
      <trkpt lat="43.3985110" lon="-3.2770510">
        <ele>133.4</ele>
        <time>2022-01-16T10:00:42Z</time>
      </trkpt>
      <trkpt lat="43.3985280" lon="-3.2771370">
        <ele>133.4</ele>
        <time>2022-01-16T10:00:43Z</time>
      </trkpt>
      <trkpt lat="43.3985470" lon="-3.2772200">
        <ele>133.6</ele>
        <time>2022-01-16T10:00:44Z</time>
      </trkpt>
      <trkpt lat="43.3985670" lon="-3.2773050">
        <ele>133.6</ele>
        <time>2022-01-16T10:00:45Z</time>
      </trkpt>
      <trkpt lat="43.3985880" lon="-3.2773900">
        <ele>133.6</ele>
        <time>2022-01-16T10:00:46Z</time>
      </trkpt>
      <trkpt lat="43.3986100" lon="-3.2774750">
        <ele>133.6</ele>
        <time>2022-01-16T10:00:47Z</time>
      </trkpt>
      <trkpt lat="43.3986340" lon="-3.2775600">
        <ele>133.8</ele>
        <time>2022-01-16T10:00:48Z</time>
      </trkpt>
      <trkpt lat="43.3986590" lon="-3.2776470">
        <ele>134.0</ele>
        <time>2022-01-16T10:00:49Z</time>
      </trkpt>
      <trkpt lat="43.3986850" lon="-3.2777330">
        <ele>134.0</ele>
        <time>2022-01-16T10:00:50Z</time>
      </trkpt>
      <trkpt lat="43.3987130" lon="-3.2778200">
        <ele>134.0</ele>
        <time>2022-01-16T10:00:51Z</time>
      </trkpt>
      <trkpt lat="43.3987430" lon="-3.2779050">
        <ele>134.0</ele>
        <time>2022-01-16T10:00:52Z</time>
      </trkpt>
      <trkpt lat="43.3987730" lon="-3.2779900">
        <ele>134.2</ele>
        <time>2022-01-16T10:00:53Z</time>
      </trkpt>
      <trkpt lat="43.3988050" lon="-3.2780770">
        <ele>134.2</ele>
        <time>2022-01-16T10:00:54Z</time>
      </trkpt>
      <trkpt lat="43.3988370" lon="-3.2781630">
        <ele>134.4</ele>
        <time>2022-01-16T10:00:55Z</time>
      </trkpt>
      <trkpt lat="43.3988710" lon="-3.2782480">
        <ele>134.4</ele>
        <time>2022-01-16T10:00:56Z</time>
      </trkpt>
      <trkpt lat="43.3989070" lon="-3.2783320">
        <ele>134.4</ele>
        <time>2022-01-16T10:00:57Z</time>
      </trkpt>
      <trkpt lat="43.3989440" lon="-3.2784150">
        <ele>134.2</ele>
        <time>2022-01-16T10:00:58Z</time>
      </trkpt>
      <trkpt lat="43.3989830" lon="-3.2784980">
        <ele>134.4</ele>
        <time>2022-01-16T10:00:59Z</time>
      </trkpt>
      <trkpt lat="43.3990230" lon="-3.2785800">
        <ele>134.2</ele>
        <time>2022-01-16T10:01:00Z</time>
      </trkpt>
      <trkpt lat="43.3990650" lon="-3.2786630">
        <ele>134.2</ele>
        <time>2022-01-16T10:01:01Z</time>
      </trkpt>
      <trkpt lat="43.3991080" lon="-3.2787480">
        <ele>134.2</ele>
        <time>2022-01-16T10:01:02Z</time>
      </trkpt>
      <trkpt lat="43.3991510" lon="-3.2788330">
        <ele>134.2</ele>
        <time>2022-01-16T10:01:03Z</time>
      </trkpt>
      <trkpt lat="43.3991960" lon="-3.2789190">
        <ele>134.2</ele>
        <time>2022-01-16T10:01:04Z</time>
      </trkpt>
      <trkpt lat="43.3992430" lon="-3.2790050">
        <ele>134.4</ele>
        <time>2022-01-16T10:01:05Z</time>
      </trkpt>
      <trkpt lat="43.3992920" lon="-3.2790900">
        <ele>134.4</ele>
        <time>2022-01-16T10:01:06Z</time>
      </trkpt>
      <trkpt lat="43.3993430" lon="-3.2791760">
        <ele>134.4</ele>
        <time>2022-01-16T10:01:07Z</time>
      </trkpt>
      <trkpt lat="43.3993970" lon="-3.2792600">
        <ele>134.4</ele>
        <time>2022-01-16T10:01:08Z</time>
      </trkpt>
      <trkpt lat="43.3994520" lon="-3.2793420">
        <ele>134.4</ele>
        <time>2022-01-16T10:01:09Z</time>
      </trkpt>
      <trkpt lat="43.3995080" lon="-3.2794230">
        <ele>134.2</ele>
        <time>2022-01-16T10:01:10Z</time>
      </trkpt>
      <trkpt lat="43.3995620" lon="-3.2795040">
        <ele>134.2</ele>
        <time>2022-01-16T10:01:11Z</time>
      </trkpt>
      <trkpt lat="43.3996150" lon="-3.2795880">
        <ele>134.0</ele>
        <time>2022-01-16T10:01:12Z</time>
      </trkpt>
      <trkpt lat="43.3996690" lon="-3.2796710">
        <ele>133.8</ele>
        <time>2022-01-16T10:01:13Z</time>
      </trkpt>
      <trkpt lat="43.3997230" lon="-3.2797570">
        <ele>133.8</ele>
        <time>2022-01-16T10:01:14Z</time>
      </trkpt>
      <trkpt lat="43.3997790" lon="-3.2798430">
        <ele>133.8</ele>
        <time>2022-01-16T10:01:15Z</time>
      </trkpt>
      <trkpt lat="43.3998330" lon="-3.2799300">
        <ele>133.8</ele>
        <time>2022-01-16T10:01:16Z</time>
      </trkpt>
      <trkpt lat="43.3998890" lon="-3.2800190">
        <ele>133.8</ele>
        <time>2022-01-16T10:01:17Z</time>
      </trkpt>
      <trkpt lat="43.3999440" lon="-3.2801090">
        <ele>133.6</ele>
        <time>2022-01-16T10:01:18Z</time>
      </trkpt>
      <trkpt lat="43.3999990" lon="-3.2802000">
        <ele>133.6</ele>
        <time>2022-01-16T10:01:19Z</time>
      </trkpt>
      <trkpt lat="43.4000530" lon="-3.2802930">
        <ele>133.6</ele>
        <time>2022-01-16T10:01:20Z</time>
      </trkpt>
      <trkpt lat="43.4001060" lon="-3.2803850">
        <ele>133.4</ele>
        <time>2022-01-16T10:01:21Z</time>
      </trkpt>
      <trkpt lat="43.4001600" lon="-3.2804780">
        <ele>133.2</ele>
        <time>2022-01-16T10:01:22Z</time>
      </trkpt>
      <trkpt lat="43.4002140" lon="-3.2805710">
        <ele>133.2</ele>
        <time>2022-01-16T10:01:23Z</time>
      </trkpt>
      <trkpt lat="43.4002660" lon="-3.2806650">
        <ele>133.0</ele>
        <time>2022-01-16T10:01:24Z</time>
      </trkpt>
      <trkpt lat="43.4003160" lon="-3.2807610">
        <ele>133.0</ele>
        <time>2022-01-16T10:01:25Z</time>
      </trkpt>
      <trkpt lat="43.4003670" lon="-3.2808600">
        <ele>132.8</ele>
        <time>2022-01-16T10:01:26Z</time>
      </trkpt>
      <trkpt lat="43.4004180" lon="-3.2809630">
        <ele>132.8</ele>
        <time>2022-01-16T10:01:27Z</time>
      </trkpt>
      <trkpt lat="43.4004680" lon="-3.2810690">
        <ele>132.6</ele>
        <time>2022-01-16T10:01:28Z</time>
      </trkpt>
      <trkpt lat="43.4005150" lon="-3.2811770">
        <ele>132.6</ele>
        <time>2022-01-16T10:01:29Z</time>
      </trkpt>
      <trkpt lat="43.4005610" lon="-3.2812840">
        <ele>132.4</ele>
        <time>2022-01-16T10:01:30Z</time>
      </trkpt>
      <trkpt lat="43.4006060" lon="-3.2813870">
        <ele>132.4</ele>
        <time>2022-01-16T10:01:31Z</time>
      </trkpt>
      <trkpt lat="43.4006500" lon="-3.2814890">
        <ele>132.4</ele>
        <time>2022-01-16T10:01:32Z</time>
      </trkpt>
      <trkpt lat="43.4006930" lon="-3.2815880">
        <ele>132.2</ele>
        <time>2022-01-16T10:01:33Z</time>
      </trkpt>
      <trkpt lat="43.4007360" lon="-3.2816880">
        <ele>132.0</ele>
        <time>2022-01-16T10:01:34Z</time>
      </trkpt>
      <trkpt lat="43.4007780" lon="-3.2817940">
        <ele>132.0</ele>
        <time>2022-01-16T10:01:35Z</time>
      </trkpt>
      <trkpt lat="43.4008160" lon="-3.2819090">
        <ele>132.0</ele>
        <time>2022-01-16T10:01:36Z</time>
      </trkpt>
      <trkpt lat="43.4008560" lon="-3.2820260">
        <ele>131.8</ele>
        <time>2022-01-16T10:01:37Z</time>
      </trkpt>
      <trkpt lat="43.4008940" lon="-3.2821450">
        <ele>131.6</ele>
        <time>2022-01-16T10:01:38Z</time>
      </trkpt>
      <trkpt lat="43.4009300" lon="-3.2822710">
        <ele>131.4</ele>
        <time>2022-01-16T10:01:39Z</time>
      </trkpt>
      <trkpt lat="43.4009630" lon="-3.2823880">
        <ele>131.4</ele>
        <time>2022-01-16T10:01:40Z</time>
      </trkpt>
      <trkpt lat="43.4009950" lon="-3.2825070">
        <ele>131.2</ele>
        <time>2022-01-16T10:01:41Z</time>
      </trkpt>
      <trkpt lat="43.4010230" lon="-3.2826230">
        <ele>131.2</ele>
        <time>2022-01-16T10:01:42Z</time>
      </trkpt>
      <trkpt lat="43.4010520" lon="-3.2827430">
        <ele>131.2</ele>
        <time>2022-01-16T10:01:43Z</time>
      </trkpt>
      <trkpt lat="43.4010790" lon="-3.2828640">
        <ele>131.0</ele>
        <time>2022-01-16T10:01:44Z</time>
      </trkpt>
      <trkpt lat="43.4011070" lon="-3.2829860">
        <ele>130.8</ele>
        <time>2022-01-16T10:01:45Z</time>
      </trkpt>
      <trkpt lat="43.4011360" lon="-3.2831070">
        <ele>130.6</ele>
        <time>2022-01-16T10:01:46Z</time>
      </trkpt>
      <trkpt lat="43.4011650" lon="-3.2832310">
        <ele>130.6</ele>
        <time>2022-01-16T10:01:47Z</time>
      </trkpt>
      <trkpt lat="43.4011940" lon="-3.2833550">
        <ele>130.2</ele>
        <time>2022-01-16T10:01:48Z</time>
      </trkpt>
      <trkpt lat="43.4012230" lon="-3.2834800">
        <ele>130.2</ele>
        <time>2022-01-16T10:01:49Z</time>
      </trkpt>
      <trkpt lat="43.4012510" lon="-3.2836050">
        <ele>130.0</ele>
        <time>2022-01-16T10:01:50Z</time>
      </trkpt>
      <trkpt lat="43.4012800" lon="-3.2837290">
        <ele>129.8</ele>
        <time>2022-01-16T10:01:51Z</time>
      </trkpt>
      <trkpt lat="43.4013080" lon="-3.2838520">
        <ele>129.8</ele>
        <time>2022-01-16T10:01:52Z</time>
      </trkpt>
      <trkpt lat="43.4013350" lon="-3.2839760">
        <ele>129.6</ele>
        <time>2022-01-16T10:01:53Z</time>
      </trkpt>
      <trkpt lat="43.4013630" lon="-3.2841000">
        <ele>129.6</ele>
        <time>2022-01-16T10:01:54Z</time>
      </trkpt>
      <trkpt lat="43.4013920" lon="-3.2842230">
        <ele>129.6</ele>
        <time>2022-01-16T10:01:55Z</time>
      </trkpt>
      <trkpt lat="43.4014220" lon="-3.2843480">
        <ele>129.4</ele>
        <time>2022-01-16T10:01:56Z</time>
      </trkpt>
      <trkpt lat="43.4014520" lon="-3.2844720">
        <ele>129.2</ele>
        <time>2022-01-16T10:01:57Z</time>
      </trkpt>
      <trkpt lat="43.4014810" lon="-3.2845970">
        <ele>129.2</ele>
        <time>2022-01-16T10:01:58Z</time>
      </trkpt>
      <trkpt lat="43.4015090" lon="-3.2847240">
        <ele>129.0</ele>
        <time>2022-01-16T10:01:59Z</time>
      </trkpt>
      <trkpt lat="43.4015380" lon="-3.2848500">
        <ele>128.8</ele>
        <time>2022-01-16T10:02:00Z</time>
      </trkpt>
      <trkpt lat="43.4015670" lon="-3.2849750">
        <ele>128.6</ele>
        <time>2022-01-16T10:02:01Z</time>
      </trkpt>
      <trkpt lat="43.4015970" lon="-3.2851000">
        <ele>128.4</ele>
        <time>2022-01-16T10:02:02Z</time>
      </trkpt>
      <trkpt lat="43.4016260" lon="-3.2852250">
        <ele>128.4</ele>
        <time>2022-01-16T10:02:03Z</time>
      </trkpt>
      <trkpt lat="43.4016550" lon="-3.2853510">
        <ele>128.2</ele>
        <time>2022-01-16T10:02:04Z</time>
      </trkpt>
      <trkpt lat="43.4016850" lon="-3.2854770">
        <ele>128.2</ele>
        <time>2022-01-16T10:02:05Z</time>
      </trkpt>
      <trkpt lat="43.4017150" lon="-3.2856030">
        <ele>127.8</ele>
        <time>2022-01-16T10:02:06Z</time>
      </trkpt>
      <trkpt lat="43.4017450" lon="-3.2857300">
        <ele>127.6</ele>
        <time>2022-01-16T10:02:07Z</time>
      </trkpt>
      <trkpt lat="43.4017750" lon="-3.2858570">
        <ele>127.2</ele>
        <time>2022-01-16T10:02:08Z</time>
      </trkpt>
      <trkpt lat="43.4018060" lon="-3.2859860">
        <ele>127.2</ele>
        <time>2022-01-16T10:02:09Z</time>
      </trkpt>
      <trkpt lat="43.4018370" lon="-3.2861150">
        <ele>127.0</ele>
        <time>2022-01-16T10:02:10Z</time>
      </trkpt>
      <trkpt lat="43.4018670" lon="-3.2862460">
        <ele>126.8</ele>
        <time>2022-01-16T10:02:11Z</time>
      </trkpt>
      <trkpt lat="43.4018970" lon="-3.2863760">
        <ele>126.6</ele>
        <time>2022-01-16T10:02:12Z</time>
      </trkpt>
      <trkpt lat="43.4019270" lon="-3.2865050">
        <ele>126.4</ele>
        <time>2022-01-16T10:02:13Z</time>
      </trkpt>
      <trkpt lat="43.4019570" lon="-3.2866330">
        <ele>126.2</ele>
        <time>2022-01-16T10:02:14Z</time>
      </trkpt>
      <trkpt lat="43.4019860" lon="-3.2867610">
        <ele>126.0</ele>
        <time>2022-01-16T10:02:15Z</time>
      </trkpt>
      <trkpt lat="43.4020150" lon="-3.2868870">
        <ele>125.8</ele>
        <time>2022-01-16T10:02:16Z</time>
      </trkpt>
      <trkpt lat="43.4020420" lon="-3.2870120">
        <ele>125.6</ele>
        <time>2022-01-16T10:02:17Z</time>
      </trkpt>
      <trkpt lat="43.4020690" lon="-3.2871360">
        <ele>125.8</ele>
        <time>2022-01-16T10:02:18Z</time>
      </trkpt>
      <trkpt lat="43.4020960" lon="-3.2872560">
        <ele>125.8</ele>
        <time>2022-01-16T10:02:19Z</time>
      </trkpt>
      <trkpt lat="43.4021220" lon="-3.2873770">
        <ele>126.0</ele>
        <time>2022-01-16T10:02:20Z</time>
      </trkpt>
      <trkpt lat="43.4021470" lon="-3.2874950">
        <ele>126.0</ele>
        <time>2022-01-16T10:02:21Z</time>
      </trkpt>
      <trkpt lat="43.4021720" lon="-3.2876130">
        <ele>126.0</ele>
        <time>2022-01-16T10:02:22Z</time>
      </trkpt>
      <trkpt lat="43.4021950" lon="-3.2877300">
        <ele>126.0</ele>
        <time>2022-01-16T10:02:23Z</time>
      </trkpt>
      <trkpt lat="43.4022180" lon="-3.2878430">
        <ele>126.0</ele>
        <time>2022-01-16T10:02:24Z</time>
      </trkpt>
      <trkpt lat="43.4022400" lon="-3.2879550">
        <ele>126.2</ele>
        <time>2022-01-16T10:02:25Z</time>
      </trkpt>
      <trkpt lat="43.4022620" lon="-3.2880670">
        <ele>126.2</ele>
        <time>2022-01-16T10:02:26Z</time>
      </trkpt>
      <trkpt lat="43.4022850" lon="-3.2881770">
        <ele>126.4</ele>
        <time>2022-01-16T10:02:27Z</time>
      </trkpt>
      <trkpt lat="43.4023060" lon="-3.2882840">
        <ele>126.6</ele>
        <time>2022-01-16T10:02:28Z</time>
      </trkpt>
      <trkpt lat="43.4023270" lon="-3.2883890">
        <ele>126.8</ele>
        <time>2022-01-16T10:02:29Z</time>
      </trkpt>
      <trkpt lat="43.4023470" lon="-3.2884940">
        <ele>127.0</ele>
        <time>2022-01-16T10:02:30Z</time>
      </trkpt>
      <trkpt lat="43.4023670" lon="-3.2886020">
        <ele>127.2</ele>
        <time>2022-01-16T10:02:31Z</time>
      </trkpt>
      <trkpt lat="43.4023880" lon="-3.2887080">
        <ele>127.4</ele>
        <time>2022-01-16T10:02:32Z</time>
      </trkpt>
      <trkpt lat="43.4024090" lon="-3.2888130">
        <ele>127.6</ele>
        <time>2022-01-16T10:02:33Z</time>
      </trkpt>
      <trkpt lat="43.4024290" lon="-3.2889180">
        <ele>127.8</ele>
        <time>2022-01-16T10:02:34Z</time>
      </trkpt>
      <trkpt lat="43.4024500" lon="-3.2890250">
        <ele>128.0</ele>
        <time>2022-01-16T10:02:35Z</time>
      </trkpt>
      <trkpt lat="43.4024710" lon="-3.2891320">
        <ele>128.0</ele>
        <time>2022-01-16T10:02:36Z</time>
      </trkpt>
      <trkpt lat="43.4024910" lon="-3.2892410">
        <ele>128.0</ele>
        <time>2022-01-16T10:02:37Z</time>
      </trkpt>
      <trkpt lat="43.4025110" lon="-3.2893510">
        <ele>127.8</ele>
        <time>2022-01-16T10:02:38Z</time>
      </trkpt>
      <trkpt lat="43.4025310" lon="-3.2894620">
        <ele>127.8</ele>
        <time>2022-01-16T10:02:39Z</time>
      </trkpt>
      <trkpt lat="43.4025500" lon="-3.2895740">
        <ele>127.8</ele>
        <time>2022-01-16T10:02:40Z</time>
      </trkpt>
      <trkpt lat="43.4025700" lon="-3.2896880">
        <ele>127.6</ele>
        <time>2022-01-16T10:02:41Z</time>
      </trkpt>
      <trkpt lat="43.4025890" lon="-3.2898040">
        <ele>126.8</ele>
        <time>2022-01-16T10:02:42Z</time>
      </trkpt>
      <trkpt lat="43.4026100" lon="-3.2899210">
        <ele>126.4</ele>
        <time>2022-01-16T10:02:43Z</time>
      </trkpt>
      <trkpt lat="43.4026310" lon="-3.2900410">
        <ele>126.4</ele>
        <time>2022-01-16T10:02:44Z</time>
      </trkpt>
      <trkpt lat="43.4026520" lon="-3.2901620">
        <ele>126.2</ele>
        <time>2022-01-16T10:02:45Z</time>
      </trkpt>
      <trkpt lat="43.4026740" lon="-3.2902860">
        <ele>126.0</ele>
        <time>2022-01-16T10:02:46Z</time>
      </trkpt>
      <trkpt lat="43.4026960" lon="-3.2904130">
        <ele>125.6</ele>
        <time>2022-01-16T10:02:47Z</time>
      </trkpt>
      <trkpt lat="43.4027180" lon="-3.2905410">
        <ele>125.2</ele>
        <time>2022-01-16T10:02:48Z</time>
      </trkpt>
      <trkpt lat="43.4027400" lon="-3.2906720">
        <ele>125.0</ele>
        <time>2022-01-16T10:02:49Z</time>
      </trkpt>
      <trkpt lat="43.4027620" lon="-3.2908040">
        <ele>124.6</ele>
        <time>2022-01-16T10:02:50Z</time>
      </trkpt>
      <trkpt lat="43.4027850" lon="-3.2909390">
        <ele>124.2</ele>
        <time>2022-01-16T10:02:51Z</time>
      </trkpt>
      <trkpt lat="43.4028080" lon="-3.2910770">
        <ele>123.6</ele>
        <time>2022-01-16T10:02:52Z</time>
      </trkpt>
      <trkpt lat="43.4028320" lon="-3.2912180">
        <ele>123.2</ele>
        <time>2022-01-16T10:02:53Z</time>
      </trkpt>
      <trkpt lat="43.4028570" lon="-3.2913600">
        <ele>122.4</ele>
        <time>2022-01-16T10:02:54Z</time>
      </trkpt>
      <trkpt lat="43.4028830" lon="-3.2915050">
        <ele>122.0</ele>
        <time>2022-01-16T10:02:55Z</time>
      </trkpt>
      <trkpt lat="43.4029090" lon="-3.2916510">
        <ele>121.2</ele>
        <time>2022-01-16T10:02:56Z</time>
      </trkpt>
      <trkpt lat="43.4029360" lon="-3.2917990">
        <ele>120.8</ele>
        <time>2022-01-16T10:02:57Z</time>
      </trkpt>
      <trkpt lat="43.4029620" lon="-3.2919470">
        <ele>120.4</ele>
        <time>2022-01-16T10:02:58Z</time>
      </trkpt>
      <trkpt lat="43.4029880" lon="-3.2920950">
        <ele>119.4</ele>
        <time>2022-01-16T10:02:59Z</time>
      </trkpt>
      <trkpt lat="43.4030130" lon="-3.2922430">
        <ele>118.4</ele>
        <time>2022-01-16T10:03:00Z</time>
      </trkpt>
      <trkpt lat="43.4030390" lon="-3.2923890">
        <ele>118.0</ele>
        <time>2022-01-16T10:03:01Z</time>
      </trkpt>
      <trkpt lat="43.4030650" lon="-3.2925360">
        <ele>117.6</ele>
        <time>2022-01-16T10:03:02Z</time>
      </trkpt>
      <trkpt lat="43.4030900" lon="-3.2926800">
        <ele>117.4</ele>
        <time>2022-01-16T10:03:03Z</time>
      </trkpt>
      <trkpt lat="43.4031160" lon="-3.2928240">
        <ele>117.4</ele>
        <time>2022-01-16T10:03:04Z</time>
      </trkpt>
      <trkpt lat="43.4031420" lon="-3.2929660">
        <ele>117.2</ele>
        <time>2022-01-16T10:03:05Z</time>
      </trkpt>
      <trkpt lat="43.4031690" lon="-3.2931070">
        <ele>117.0</ele>
        <time>2022-01-16T10:03:06Z</time>
      </trkpt>
      <trkpt lat="43.4031950" lon="-3.2932470">
        <ele>116.6</ele>
        <time>2022-01-16T10:03:07Z</time>
      </trkpt>
      <trkpt lat="43.4032200" lon="-3.2933870">
        <ele>116.2</ele>
        <time>2022-01-16T10:03:08Z</time>
      </trkpt>
      <trkpt lat="43.4032460" lon="-3.2935270">
        <ele>116.0</ele>
        <time>2022-01-16T10:03:09Z</time>
      </trkpt>
      <trkpt lat="43.4032710" lon="-3.2936650">
        <ele>115.8</ele>
        <time>2022-01-16T10:03:10Z</time>
      </trkpt>
      <trkpt lat="43.4032950" lon="-3.2938040">
        <ele>115.6</ele>
        <time>2022-01-16T10:03:11Z</time>
      </trkpt>
      <trkpt lat="43.4033190" lon="-3.2939430">
        <ele>115.0</ele>
        <time>2022-01-16T10:03:12Z</time>
      </trkpt>
      <trkpt lat="43.4033420" lon="-3.2940820">
        <ele>114.6</ele>
        <time>2022-01-16T10:03:13Z</time>
      </trkpt>
      <trkpt lat="43.4033670" lon="-3.2942220">
        <ele>114.4</ele>
        <time>2022-01-16T10:03:14Z</time>
      </trkpt>
      <trkpt lat="43.4033910" lon="-3.2943620">
        <ele>113.8</ele>
        <time>2022-01-16T10:03:15Z</time>
      </trkpt>
      <trkpt lat="43.4034150" lon="-3.2945030">
        <ele>113.4</ele>
        <time>2022-01-16T10:03:16Z</time>
      </trkpt>
      <trkpt lat="43.4034390" lon="-3.2946450">
        <ele>113.0</ele>
        <time>2022-01-16T10:03:17Z</time>
      </trkpt>
      <trkpt lat="43.4034620" lon="-3.2947890">
        <ele>112.2</ele>
        <time>2022-01-16T10:03:18Z</time>
      </trkpt>
      <trkpt lat="43.4034860" lon="-3.2949310">
        <ele>111.8</ele>
        <time>2022-01-16T10:03:19Z</time>
      </trkpt>
      <trkpt lat="43.4035100" lon="-3.2950740">
        <ele>111.4</ele>
        <time>2022-01-16T10:03:20Z</time>
      </trkpt>
      <trkpt lat="43.4035340" lon="-3.2952160">
        <ele>111.2</ele>
        <time>2022-01-16T10:03:21Z</time>
      </trkpt>
      <trkpt lat="43.4035580" lon="-3.2953580">
        <ele>110.6</ele>
        <time>2022-01-16T10:03:22Z</time>
      </trkpt>
      <trkpt lat="43.4035820" lon="-3.2955000">
        <ele>110.2</ele>
        <time>2022-01-16T10:03:23Z</time>
      </trkpt>
      <trkpt lat="43.4036060" lon="-3.2956430">
        <ele>109.8</ele>
        <time>2022-01-16T10:03:24Z</time>
      </trkpt>
      <trkpt lat="43.4036300" lon="-3.2957860">
        <ele>109.6</ele>
        <time>2022-01-16T10:03:25Z</time>
      </trkpt>
      <trkpt lat="43.4036530" lon="-3.2959280">
        <ele>109.0</ele>
        <time>2022-01-16T10:03:26Z</time>
      </trkpt>
      <trkpt lat="43.4036770" lon="-3.2960700">
        <ele>108.8</ele>
        <time>2022-01-16T10:03:27Z</time>
      </trkpt>
      <trkpt lat="43.4037030" lon="-3.2962110">
        <ele>108.4</ele>
        <time>2022-01-16T10:03:28Z</time>
      </trkpt>
      <trkpt lat="43.4037270" lon="-3.2963500">
        <ele>107.8</ele>
        <time>2022-01-16T10:03:29Z</time>
      </trkpt>
      <trkpt lat="43.4037510" lon="-3.2964890">
        <ele>107.4</ele>
        <time>2022-01-16T10:03:30Z</time>
      </trkpt>
      <trkpt lat="43.4037750" lon="-3.2966270">
        <ele>107.2</ele>
        <time>2022-01-16T10:03:31Z</time>
      </trkpt>
      <trkpt lat="43.4037990" lon="-3.2967660">
        <ele>106.8</ele>
        <time>2022-01-16T10:03:32Z</time>
      </trkpt>
      <trkpt lat="43.4038220" lon="-3.2969050">
        <ele>106.4</ele>
        <time>2022-01-16T10:03:33Z</time>
      </trkpt>
      <trkpt lat="43.4038460" lon="-3.2970440">
        <ele>106.0</ele>
        <time>2022-01-16T10:03:34Z</time>
      </trkpt>
      <trkpt lat="43.4038700" lon="-3.2971830">
        <ele>105.6</ele>
        <time>2022-01-16T10:03:35Z</time>
      </trkpt>
      <trkpt lat="43.4038950" lon="-3.2973210">
        <ele>105.4</ele>
        <time>2022-01-16T10:03:36Z</time>
      </trkpt>
      <trkpt lat="43.4039190" lon="-3.2974600">
        <ele>104.8</ele>
        <time>2022-01-16T10:03:37Z</time>
      </trkpt>
      <trkpt lat="43.4039440" lon="-3.2976000">
        <ele>104.2</ele>
        <time>2022-01-16T10:03:38Z</time>
      </trkpt>
      <trkpt lat="43.4039680" lon="-3.2977400">
        <ele>103.6</ele>
        <time>2022-01-16T10:03:39Z</time>
      </trkpt>
      <trkpt lat="43.4039930" lon="-3.2978810">
        <ele>103.2</ele>
        <time>2022-01-16T10:03:40Z</time>
      </trkpt>
      <trkpt lat="43.4040170" lon="-3.2980220">
        <ele>102.8</ele>
        <time>2022-01-16T10:03:41Z</time>
      </trkpt>
      <trkpt lat="43.4040420" lon="-3.2981630">
        <ele>102.6</ele>
        <time>2022-01-16T10:03:42Z</time>
      </trkpt>
      <trkpt lat="43.4040660" lon="-3.2983030">
        <ele>102.4</ele>
        <time>2022-01-16T10:03:43Z</time>
      </trkpt>
      <trkpt lat="43.4040890" lon="-3.2984440">
        <ele>102.0</ele>
        <time>2022-01-16T10:03:44Z</time>
      </trkpt>
      <trkpt lat="43.4041110" lon="-3.2985840">
        <ele>101.6</ele>
        <time>2022-01-16T10:03:45Z</time>
      </trkpt>
      <trkpt lat="43.4041310" lon="-3.2987250">
        <ele>101.2</ele>
        <time>2022-01-16T10:03:46Z</time>
      </trkpt>
      <trkpt lat="43.4041530" lon="-3.2988650">
        <ele>100.6</ele>
        <time>2022-01-16T10:03:47Z</time>
      </trkpt>
      <trkpt lat="43.4041770" lon="-3.2990060">
        <ele>100.0</ele>
        <time>2022-01-16T10:03:48Z</time>
      </trkpt>
      <trkpt lat="43.4042010" lon="-3.2991470">
        <ele>99.6</ele>
        <time>2022-01-16T10:03:49Z</time>
      </trkpt>
      <trkpt lat="43.4042230" lon="-3.2992880">
        <ele>99.4</ele>
        <time>2022-01-16T10:03:50Z</time>
      </trkpt>
      <trkpt lat="43.4042390" lon="-3.2994290">
        <ele>99.2</ele>
        <time>2022-01-16T10:03:51Z</time>
      </trkpt>
      <trkpt lat="43.4042500" lon="-3.2995710">
        <ele>98.4</ele>
        <time>2022-01-16T10:03:52Z</time>
      </trkpt>
      <trkpt lat="43.4042520" lon="-3.2997140">
        <ele>98.0</ele>
        <time>2022-01-16T10:03:53Z</time>
      </trkpt>
      <trkpt lat="43.4042450" lon="-3.2998570">
        <ele>97.8</ele>
        <time>2022-01-16T10:03:54Z</time>
      </trkpt>
      <trkpt lat="43.4042290" lon="-3.2999990">
        <ele>97.6</ele>
        <time>2022-01-16T10:03:55Z</time>
      </trkpt>
      <trkpt lat="43.4042050" lon="-3.3001400">
        <ele>97.4</ele>
        <time>2022-01-16T10:03:56Z</time>
      </trkpt>
      <trkpt lat="43.4041760" lon="-3.3002770">
        <ele>96.8</ele>
        <time>2022-01-16T10:03:57Z</time>
      </trkpt>
      <trkpt lat="43.4041440" lon="-3.3004130">
        <ele>96.2</ele>
        <time>2022-01-16T10:03:58Z</time>
      </trkpt>
      <trkpt lat="43.4041090" lon="-3.3005480">
        <ele>95.8</ele>
        <time>2022-01-16T10:03:59Z</time>
      </trkpt>
      <trkpt lat="43.4040740" lon="-3.3006830">
        <ele>95.0</ele>
        <time>2022-01-16T10:04:00Z</time>
      </trkpt>
      <trkpt lat="43.4040380" lon="-3.3008200">
        <ele>94.6</ele>
        <time>2022-01-16T10:04:01Z</time>
      </trkpt>
      <trkpt lat="43.4040020" lon="-3.3009600">
        <ele>94.2</ele>
        <time>2022-01-16T10:04:02Z</time>
      </trkpt>
      <trkpt lat="43.4039660" lon="-3.3010980">
        <ele>94.0</ele>
        <time>2022-01-16T10:04:03Z</time>
      </trkpt>
      <trkpt lat="43.4039300" lon="-3.3012370">
        <ele>93.8</ele>
        <time>2022-01-16T10:04:04Z</time>
      </trkpt>
      <trkpt lat="43.4038940" lon="-3.3013720">
        <ele>93.2</ele>
        <time>2022-01-16T10:04:05Z</time>
      </trkpt>
      <trkpt lat="43.4038590" lon="-3.3015070">
        <ele>93.0</ele>
        <time>2022-01-16T10:04:06Z</time>
      </trkpt>
      <trkpt lat="43.4038250" lon="-3.3016400">
        <ele>92.8</ele>
        <time>2022-01-16T10:04:07Z</time>
      </trkpt>
      <trkpt lat="43.4037900" lon="-3.3017740">
        <ele>92.6</ele>
        <time>2022-01-16T10:04:08Z</time>
      </trkpt>
      <trkpt lat="43.4037550" lon="-3.3019070">
        <ele>92.4</ele>
        <time>2022-01-16T10:04:09Z</time>
      </trkpt>
      <trkpt lat="43.4037200" lon="-3.3020380">
        <ele>92.0</ele>
        <time>2022-01-16T10:04:10Z</time>
      </trkpt>
      <trkpt lat="43.4036860" lon="-3.3021680">
        <ele>91.6</ele>
        <time>2022-01-16T10:04:11Z</time>
      </trkpt>
      <trkpt lat="43.4036520" lon="-3.3022960">
        <ele>91.4</ele>
        <time>2022-01-16T10:04:12Z</time>
      </trkpt>
      <trkpt lat="43.4036180" lon="-3.3024230">
        <ele>91.4</ele>
        <time>2022-01-16T10:04:13Z</time>
      </trkpt>
      <trkpt lat="43.4035850" lon="-3.3025480">
        <ele>91.6</ele>
        <time>2022-01-16T10:04:14Z</time>
      </trkpt>
      <trkpt lat="43.4035530" lon="-3.3026710">
        <ele>91.6</ele>
        <time>2022-01-16T10:04:15Z</time>
      </trkpt>
      <trkpt lat="43.4035220" lon="-3.3027920">
        <ele>91.4</ele>
        <time>2022-01-16T10:04:16Z</time>
      </trkpt>
      <trkpt lat="43.4034900" lon="-3.3029140">
        <ele>91.2</ele>
        <time>2022-01-16T10:04:17Z</time>
      </trkpt>
      <trkpt lat="43.4034580" lon="-3.3030340">
        <ele>91.0</ele>
        <time>2022-01-16T10:04:18Z</time>
      </trkpt>
      <trkpt lat="43.4034260" lon="-3.3031520">
        <ele>90.8</ele>
        <time>2022-01-16T10:04:19Z</time>
      </trkpt>
      <trkpt lat="43.4033940" lon="-3.3032700">
        <ele>90.8</ele>
        <time>2022-01-16T10:04:20Z</time>
      </trkpt>
      <trkpt lat="43.4033630" lon="-3.3033880">
        <ele>90.8</ele>
        <time>2022-01-16T10:04:21Z</time>
      </trkpt>
      <trkpt lat="43.4033330" lon="-3.3035050">
        <ele>90.8</ele>
        <time>2022-01-16T10:04:22Z</time>
      </trkpt>
      <trkpt lat="43.4033020" lon="-3.3036200">
        <ele>90.8</ele>
        <time>2022-01-16T10:04:23Z</time>
      </trkpt>
      <trkpt lat="43.4032710" lon="-3.3037350">
        <ele>90.6</ele>
        <time>2022-01-16T10:04:24Z</time>
      </trkpt>
      <trkpt lat="43.4032400" lon="-3.3038510">
        <ele>90.4</ele>
        <time>2022-01-16T10:04:25Z</time>
      </trkpt>
      <trkpt lat="43.4032080" lon="-3.3039680">
        <ele>90.4</ele>
        <time>2022-01-16T10:04:26Z</time>
      </trkpt>
      <trkpt lat="43.4031800" lon="-3.3040910">
        <ele>90.2</ele>
        <time>2022-01-16T10:04:27Z</time>
      </trkpt>
      <trkpt lat="43.4031540" lon="-3.3042130">
        <ele>90.2</ele>
        <time>2022-01-16T10:04:28Z</time>
      </trkpt>
      <trkpt lat="43.4031290" lon="-3.3043360">
        <ele>89.8</ele>
        <time>2022-01-16T10:04:29Z</time>
      </trkpt>
      <trkpt lat="43.4031080" lon="-3.3044580">
        <ele>89.8</ele>
        <time>2022-01-16T10:04:30Z</time>
      </trkpt>
      <trkpt lat="43.4030900" lon="-3.3045820">
        <ele>89.6</ele>
        <time>2022-01-16T10:04:31Z</time>
      </trkpt>
      <trkpt lat="43.4030760" lon="-3.3047050">
        <ele>89.4</ele>
        <time>2022-01-16T10:04:32Z</time>
      </trkpt>
      <trkpt lat="43.4030660" lon="-3.3048270">
        <ele>89.6</ele>
        <time>2022-01-16T10:04:33Z</time>
      </trkpt>
      <trkpt lat="43.4030580" lon="-3.3049470">
        <ele>89.4</ele>
        <time>2022-01-16T10:04:34Z</time>
      </trkpt>
      <trkpt lat="43.4030530" lon="-3.3050660">
        <ele>89.6</ele>
        <time>2022-01-16T10:04:35Z</time>
      </trkpt>
      <trkpt lat="43.4030520" lon="-3.3051850">
        <ele>89.6</ele>
        <time>2022-01-16T10:04:36Z</time>
      </trkpt>
      <trkpt lat="43.4030520" lon="-3.3053040">
        <ele>89.4</ele>
        <time>2022-01-16T10:04:37Z</time>
      </trkpt>
      <trkpt lat="43.4030510" lon="-3.3054230">
        <ele>89.2</ele>
        <time>2022-01-16T10:04:38Z</time>
      </trkpt>
      <trkpt lat="43.4030490" lon="-3.3055420">
        <ele>89.2</ele>
        <time>2022-01-16T10:04:39Z</time>
      </trkpt>
      <trkpt lat="43.4030420" lon="-3.3056600">
        <ele>89.2</ele>
        <time>2022-01-16T10:04:40Z</time>
      </trkpt>
      <trkpt lat="43.4030380" lon="-3.3057780">
        <ele>89.2</ele>
        <time>2022-01-16T10:04:41Z</time>
      </trkpt>
      <trkpt lat="43.4030370" lon="-3.3058970">
        <ele>89.4</ele>
        <time>2022-01-16T10:04:42Z</time>
      </trkpt>
      <trkpt lat="43.4030370" lon="-3.3060160">
        <ele>89.2</ele>
        <time>2022-01-16T10:04:43Z</time>
      </trkpt>
      <trkpt lat="43.4030360" lon="-3.3061360">
        <ele>89.2</ele>
        <time>2022-01-16T10:04:44Z</time>
      </trkpt>
      <trkpt lat="43.4030350" lon="-3.3062530">
        <ele>89.0</ele>
        <time>2022-01-16T10:04:45Z</time>
      </trkpt>
      <trkpt lat="43.4030330" lon="-3.3063720">
        <ele>89.0</ele>
        <time>2022-01-16T10:04:46Z</time>
      </trkpt>
      <trkpt lat="43.4030320" lon="-3.3064910">
        <ele>88.6</ele>
        <time>2022-01-16T10:04:47Z</time>
      </trkpt>
      <trkpt lat="43.4030300" lon="-3.3066100">
        <ele>88.4</ele>
        <time>2022-01-16T10:04:48Z</time>
      </trkpt>
      <trkpt lat="43.4030300" lon="-3.3067290">
        <ele>88.2</ele>
        <time>2022-01-16T10:04:49Z</time>
      </trkpt>
      <trkpt lat="43.4030300" lon="-3.3068460">
        <ele>88.0</ele>
        <time>2022-01-16T10:04:50Z</time>
      </trkpt>
      <trkpt lat="43.4030280" lon="-3.3069640">
        <ele>87.8</ele>
        <time>2022-01-16T10:04:51Z</time>
      </trkpt>
      <trkpt lat="43.4030270" lon="-3.3070830">
        <ele>88.0</ele>
        <time>2022-01-16T10:04:52Z</time>
      </trkpt>
      <trkpt lat="43.4030260" lon="-3.3072030">
        <ele>88.0</ele>
        <time>2022-01-16T10:04:53Z</time>
      </trkpt>
      <trkpt lat="43.4030240" lon="-3.3073240">
        <ele>88.0</ele>
        <time>2022-01-16T10:04:54Z</time>
      </trkpt>
      <trkpt lat="43.4030230" lon="-3.3074450">
        <ele>88.2</ele>
        <time>2022-01-16T10:04:55Z</time>
      </trkpt>
      <trkpt lat="43.4030220" lon="-3.3075650">
        <ele>88.2</ele>
        <time>2022-01-16T10:04:56Z</time>
      </trkpt>
      <trkpt lat="43.4030200" lon="-3.3076860">
        <ele>88.2</ele>
        <time>2022-01-16T10:04:57Z</time>
      </trkpt>
      <trkpt lat="43.4030190" lon="-3.3078070">
        <ele>88.2</ele>
        <time>2022-01-16T10:04:58Z</time>
      </trkpt>
      <trkpt lat="43.4030170" lon="-3.3079240">
        <ele>88.0</ele>
        <time>2022-01-16T10:04:59Z</time>
      </trkpt>
      <trkpt lat="43.4030160" lon="-3.3080410">
        <ele>87.8</ele>
        <time>2022-01-16T10:05:00Z</time>
      </trkpt>
      <trkpt lat="43.4030150" lon="-3.3081590">
        <ele>87.6</ele>
        <time>2022-01-16T10:05:01Z</time>
      </trkpt>
      <trkpt lat="43.4030140" lon="-3.3082760">
        <ele>87.6</ele>
        <time>2022-01-16T10:05:02Z</time>
      </trkpt>
      <trkpt lat="43.4030120" lon="-3.3083940">
        <ele>87.4</ele>
        <time>2022-01-16T10:05:03Z</time>
      </trkpt>
      <trkpt lat="43.4030110" lon="-3.3085120">
        <ele>87.4</ele>
        <time>2022-01-16T10:05:04Z</time>
      </trkpt>
      <trkpt lat="43.4030090" lon="-3.3086300">
        <ele>87.2</ele>
        <time>2022-01-16T10:05:05Z</time>
      </trkpt>
      <trkpt lat="43.4030100" lon="-3.3087430">
        <ele>87.2</ele>
        <time>2022-01-16T10:05:06Z</time>
      </trkpt>
      <trkpt lat="43.4030150" lon="-3.3088510">
        <ele>87.0</ele>
        <time>2022-01-16T10:05:07Z</time>
      </trkpt>
      <trkpt lat="43.4030230" lon="-3.3089570">
        <ele>87.0</ele>
        <time>2022-01-16T10:05:08Z</time>
      </trkpt>
      <trkpt lat="43.4030310" lon="-3.3090640">
        <ele>87.0</ele>
        <time>2022-01-16T10:05:09Z</time>
      </trkpt>
      <trkpt lat="43.4030420" lon="-3.3091740">
        <ele>87.0</ele>
        <time>2022-01-16T10:05:10Z</time>
      </trkpt>
      <trkpt lat="43.4030540" lon="-3.3092910">
        <ele>87.2</ele>
        <time>2022-01-16T10:05:11Z</time>
      </trkpt>
      <trkpt lat="43.4030670" lon="-3.3094060">
        <ele>87.2</ele>
        <time>2022-01-16T10:05:12Z</time>
      </trkpt>
      <trkpt lat="43.4030830" lon="-3.3095170">
        <ele>87.2</ele>
        <time>2022-01-16T10:05:13Z</time>
      </trkpt>
      <trkpt lat="43.4030960" lon="-3.3096360">
        <ele>87.0</ele>
        <time>2022-01-16T10:05:14Z</time>
      </trkpt>
      <trkpt lat="43.4031210" lon="-3.3097390">
        <ele>86.8</ele>
        <time>2022-01-16T10:05:15Z</time>
      </trkpt>
      <trkpt lat="43.4031530" lon="-3.3098390">
        <ele>86.8</ele>
        <time>2022-01-16T10:05:16Z</time>
      </trkpt>
      <trkpt lat="43.4031850" lon="-3.3099440">
        <ele>86.6</ele>
        <time>2022-01-16T10:05:17Z</time>
      </trkpt>
      <trkpt lat="43.4032100" lon="-3.3100620">
        <ele>86.6</ele>
        <time>2022-01-16T10:05:18Z</time>
      </trkpt>
      <trkpt lat="43.4032360" lon="-3.3101810">
        <ele>86.4</ele>
        <time>2022-01-16T10:05:19Z</time>
      </trkpt>
      <trkpt lat="43.4032610" lon="-3.3102970">
        <ele>86.2</ele>
        <time>2022-01-16T10:05:20Z</time>
      </trkpt>
      <trkpt lat="43.4032930" lon="-3.3104020">
        <ele>86.0</ele>
        <time>2022-01-16T10:05:21Z</time>
      </trkpt>
      <trkpt lat="43.4033250" lon="-3.3105050">
        <ele>86.0</ele>
        <time>2022-01-16T10:05:22Z</time>
      </trkpt>
      <trkpt lat="43.4033530" lon="-3.3106160">
        <ele>86.0</ele>
        <time>2022-01-16T10:05:23Z</time>
      </trkpt>
      <trkpt lat="43.4033840" lon="-3.3107280">
        <ele>86.2</ele>
        <time>2022-01-16T10:05:24Z</time>
      </trkpt>
      <trkpt lat="43.4034080" lon="-3.3108320">
        <ele>86.2</ele>
        <time>2022-01-16T10:05:25Z</time>
      </trkpt>
      <trkpt lat="43.4034280" lon="-3.3109460">
        <ele>86.4</ele>
        <time>2022-01-16T10:05:26Z</time>
      </trkpt>
      <trkpt lat="43.4034470" lon="-3.3110640">
        <ele>86.4</ele>
        <time>2022-01-16T10:05:27Z</time>
      </trkpt>
      <trkpt lat="43.4034640" lon="-3.3111820">
        <ele>86.4</ele>
        <time>2022-01-16T10:05:28Z</time>
      </trkpt>
      <trkpt lat="43.4034800" lon="-3.3113020">
        <ele>86.2</ele>
        <time>2022-01-16T10:05:29Z</time>
      </trkpt>
      <trkpt lat="43.4034890" lon="-3.3114260">
        <ele>86.0</ele>
        <time>2022-01-16T10:05:30Z</time>
      </trkpt>
      <trkpt lat="43.4034970" lon="-3.3115470">
        <ele>85.8</ele>
        <time>2022-01-16T10:05:31Z</time>
      </trkpt>
      <trkpt lat="43.4034970" lon="-3.3116660">
        <ele>85.8</ele>
        <time>2022-01-16T10:05:32Z</time>
      </trkpt>
      <trkpt lat="43.4034900" lon="-3.3117880">
        <ele>85.8</ele>
        <time>2022-01-16T10:05:33Z</time>
      </trkpt>
      <trkpt lat="43.4034790" lon="-3.3119070">
        <ele>85.8</ele>
        <time>2022-01-16T10:05:34Z</time>
      </trkpt>
      <trkpt lat="43.4034630" lon="-3.3120250">
        <ele>85.8</ele>
        <time>2022-01-16T10:05:35Z</time>
      </trkpt>
      <trkpt lat="43.4034440" lon="-3.3121410">
        <ele>85.8</ele>
        <time>2022-01-16T10:05:36Z</time>
      </trkpt>
      <trkpt lat="43.4034220" lon="-3.3122560">
        <ele>85.8</ele>
        <time>2022-01-16T10:05:37Z</time>
      </trkpt>
      <trkpt lat="43.4033980" lon="-3.3123710">
        <ele>86.0</ele>
        <time>2022-01-16T10:05:38Z</time>
      </trkpt>
      <trkpt lat="43.4033710" lon="-3.3124830">
        <ele>85.8</ele>
        <time>2022-01-16T10:05:39Z</time>
      </trkpt>
      <trkpt lat="43.4033410" lon="-3.3125920">
        <ele>85.8</ele>
        <time>2022-01-16T10:05:40Z</time>
      </trkpt>
      <trkpt lat="43.4033060" lon="-3.3126990">
        <ele>86.0</ele>
        <time>2022-01-16T10:05:41Z</time>
      </trkpt>
      <trkpt lat="43.4032650" lon="-3.3128040">
        <ele>85.8</ele>
        <time>2022-01-16T10:05:42Z</time>
      </trkpt>
      <trkpt lat="43.4032220" lon="-3.3129060">
        <ele>85.8</ele>
        <time>2022-01-16T10:05:43Z</time>
      </trkpt>
      <trkpt lat="43.4031750" lon="-3.3130050">
        <ele>85.6</ele>
        <time>2022-01-16T10:05:44Z</time>
      </trkpt>
      <trkpt lat="43.4031270" lon="-3.3130990">
        <ele>85.6</ele>
        <time>2022-01-16T10:05:45Z</time>
      </trkpt>
      <trkpt lat="43.4030750" lon="-3.3131940">
        <ele>85.6</ele>
        <time>2022-01-16T10:05:46Z</time>
      </trkpt>
      <trkpt lat="43.4030220" lon="-3.3132880">
        <ele>85.4</ele>
        <time>2022-01-16T10:05:47Z</time>
      </trkpt>
      <trkpt lat="43.4029680" lon="-3.3133800">
        <ele>85.4</ele>
        <time>2022-01-16T10:05:48Z</time>
      </trkpt>
      <trkpt lat="43.4029150" lon="-3.3134720">
        <ele>85.2</ele>
        <time>2022-01-16T10:05:49Z</time>
      </trkpt>
      <trkpt lat="43.4028610" lon="-3.3135640">
        <ele>85.4</ele>
        <time>2022-01-16T10:05:50Z</time>
      </trkpt>
      <trkpt lat="43.4028080" lon="-3.3136570">
        <ele>85.4</ele>
        <time>2022-01-16T10:05:51Z</time>
      </trkpt>
      <trkpt lat="43.4027570" lon="-3.3137500">
        <ele>85.4</ele>
        <time>2022-01-16T10:05:52Z</time>
      </trkpt>
      <trkpt lat="43.4027060" lon="-3.3138450">
        <ele>85.6</ele>
        <time>2022-01-16T10:05:53Z</time>
      </trkpt>
      <trkpt lat="43.4026580" lon="-3.3139420">
        <ele>85.4</ele>
        <time>2022-01-16T10:05:54Z</time>
      </trkpt>
      <trkpt lat="43.4026140" lon="-3.3140440">
        <ele>85.4</ele>
        <time>2022-01-16T10:05:55Z</time>
      </trkpt>
      <trkpt lat="43.4025720" lon="-3.3141470">
        <ele>85.2</ele>
        <time>2022-01-16T10:05:56Z</time>
      </trkpt>
      <trkpt lat="43.4025330" lon="-3.3142500">
        <ele>85.4</ele>
        <time>2022-01-16T10:05:57Z</time>
      </trkpt>
      <trkpt lat="43.4024960" lon="-3.3143540">
        <ele>85.4</ele>
        <time>2022-01-16T10:05:58Z</time>
      </trkpt>
      <trkpt lat="43.4024580" lon="-3.3144540">
        <ele>85.6</ele>
        <time>2022-01-16T10:05:59Z</time>
      </trkpt>
      <trkpt lat="43.4024210" lon="-3.3145570">
        <ele>85.4</ele>
        <time>2022-01-16T10:06:00Z</time>
      </trkpt>
      <trkpt lat="43.4023840" lon="-3.3146590">
        <ele>85.4</ele>
        <time>2022-01-16T10:06:01Z</time>
      </trkpt>
      <trkpt lat="43.4023480" lon="-3.3147610">
        <ele>85.4</ele>
        <time>2022-01-16T10:06:02Z</time>
      </trkpt>
      <trkpt lat="43.4023120" lon="-3.3148640">
        <ele>85.4</ele>
        <time>2022-01-16T10:06:03Z</time>
      </trkpt>
      <trkpt lat="43.4022760" lon="-3.3149650">
        <ele>85.4</ele>
        <time>2022-01-16T10:06:04Z</time>
      </trkpt>
      <trkpt lat="43.4022390" lon="-3.3150670">
        <ele>85.2</ele>
        <time>2022-01-16T10:06:05Z</time>
      </trkpt>
      <trkpt lat="43.4022020" lon="-3.3151690">
        <ele>84.8</ele>
        <time>2022-01-16T10:06:06Z</time>
      </trkpt>
      <trkpt lat="43.4021630" lon="-3.3152700">
        <ele>84.8</ele>
        <time>2022-01-16T10:06:07Z</time>
      </trkpt>
      <trkpt lat="43.4021220" lon="-3.3153700">
        <ele>84.8</ele>
        <time>2022-01-16T10:06:08Z</time>
      </trkpt>
      <trkpt lat="43.4020780" lon="-3.3154660">
        <ele>84.6</ele>
        <time>2022-01-16T10:06:09Z</time>
      </trkpt>
      <trkpt lat="43.4020300" lon="-3.3155560">
        <ele>84.6</ele>
        <time>2022-01-16T10:06:10Z</time>
      </trkpt>
      <trkpt lat="43.4019780" lon="-3.3156400">
        <ele>84.6</ele>
        <time>2022-01-16T10:06:11Z</time>
      </trkpt>
      <trkpt lat="43.4019220" lon="-3.3157160">
        <ele>84.6</ele>
        <time>2022-01-16T10:06:12Z</time>
      </trkpt>
      <trkpt lat="43.4018600" lon="-3.3157900">
        <ele>84.2</ele>
        <time>2022-01-16T10:06:13Z</time>
      </trkpt>
      <trkpt lat="43.4017940" lon="-3.3158620">
        <ele>84.0</ele>
        <time>2022-01-16T10:06:14Z</time>
      </trkpt>
      <trkpt lat="43.4017250" lon="-3.3159290">
        <ele>83.8</ele>
        <time>2022-01-16T10:06:15Z</time>
      </trkpt>
      <trkpt lat="43.4016520" lon="-3.3159910">
        <ele>83.4</ele>
        <time>2022-01-16T10:06:16Z</time>
      </trkpt>
      <trkpt lat="43.4015760" lon="-3.3160470">
        <ele>83.4</ele>
        <time>2022-01-16T10:06:17Z</time>
      </trkpt>
      <trkpt lat="43.4014970" lon="-3.3160980">
        <ele>83.0</ele>
        <time>2022-01-16T10:06:18Z</time>
      </trkpt>
      <trkpt lat="43.4014160" lon="-3.3161460">
        <ele>82.8</ele>
        <time>2022-01-16T10:06:19Z</time>
      </trkpt>
      <trkpt lat="43.4013350" lon="-3.3161910">
        <ele>82.6</ele>
        <time>2022-01-16T10:06:20Z</time>
      </trkpt>
      <trkpt lat="43.4012530" lon="-3.3162350">
        <ele>82.4</ele>
        <time>2022-01-16T10:06:21Z</time>
      </trkpt>
      <trkpt lat="43.4011710" lon="-3.3162770">
        <ele>82.2</ele>
        <time>2022-01-16T10:06:22Z</time>
      </trkpt>
      <trkpt lat="43.4010880" lon="-3.3163180">
        <ele>82.0</ele>
        <time>2022-01-16T10:06:23Z</time>
      </trkpt>
      <trkpt lat="43.4010060" lon="-3.3163580">
        <ele>81.6</ele>
        <time>2022-01-16T10:06:24Z</time>
      </trkpt>
      <trkpt lat="43.4009240" lon="-3.3163970">
        <ele>81.6</ele>
        <time>2022-01-16T10:06:25Z</time>
      </trkpt>
      <trkpt lat="43.4008420" lon="-3.3164340">
        <ele>81.6</ele>
        <time>2022-01-16T10:06:26Z</time>
      </trkpt>
      <trkpt lat="43.4007590" lon="-3.3164690">
        <ele>81.4</ele>
        <time>2022-01-16T10:06:27Z</time>
      </trkpt>
      <trkpt lat="43.4006760" lon="-3.3165020">
        <ele>81.2</ele>
        <time>2022-01-16T10:06:28Z</time>
      </trkpt>
      <trkpt lat="43.4005920" lon="-3.3165340">
        <ele>81.0</ele>
        <time>2022-01-16T10:06:29Z</time>
      </trkpt>
      <trkpt lat="43.4005070" lon="-3.3165620">
        <ele>80.8</ele>
        <time>2022-01-16T10:06:30Z</time>
      </trkpt>
      <trkpt lat="43.4004210" lon="-3.3165870">
        <ele>80.6</ele>
        <time>2022-01-16T10:06:31Z</time>
      </trkpt>
      <trkpt lat="43.4003360" lon="-3.3166090">
        <ele>80.4</ele>
        <time>2022-01-16T10:06:32Z</time>
      </trkpt>
      <trkpt lat="43.4002490" lon="-3.3166250">
        <ele>80.4</ele>
        <time>2022-01-16T10:06:33Z</time>
      </trkpt>
      <trkpt lat="43.4001630" lon="-3.3166360">
        <ele>80.2</ele>
        <time>2022-01-16T10:06:34Z</time>
      </trkpt>
      <trkpt lat="43.4000760" lon="-3.3166430">
        <ele>80.2</ele>
        <time>2022-01-16T10:06:35Z</time>
      </trkpt>
      <trkpt lat="43.3999880" lon="-3.3166450">
        <ele>80.0</ele>
        <time>2022-01-16T10:06:36Z</time>
      </trkpt>
      <trkpt lat="43.3999000" lon="-3.3166440">
        <ele>80.0</ele>
        <time>2022-01-16T10:06:37Z</time>
      </trkpt>
      <trkpt lat="43.3998110" lon="-3.3166410">
        <ele>79.4</ele>
        <time>2022-01-16T10:06:38Z</time>
      </trkpt>
      <trkpt lat="43.3997210" lon="-3.3166370">
        <ele>79.0</ele>
        <time>2022-01-16T10:06:39Z</time>
      </trkpt>
      <trkpt lat="43.3996320" lon="-3.3166320">
        <ele>78.8</ele>
        <time>2022-01-16T10:06:40Z</time>
      </trkpt>
      <trkpt lat="43.3995430" lon="-3.3166270">
        <ele>78.6</ele>
        <time>2022-01-16T10:06:41Z</time>
      </trkpt>
      <trkpt lat="43.3994540" lon="-3.3166200">
        <ele>78.4</ele>
        <time>2022-01-16T10:06:42Z</time>
      </trkpt>
      <trkpt lat="43.3993650" lon="-3.3166110">
        <ele>78.0</ele>
        <time>2022-01-16T10:06:43Z</time>
      </trkpt>
      <trkpt lat="43.3992760" lon="-3.3165970">
        <ele>77.6</ele>
        <time>2022-01-16T10:06:44Z</time>
      </trkpt>
      <trkpt lat="43.3991880" lon="-3.3165770">
        <ele>77.4</ele>
        <time>2022-01-16T10:06:45Z</time>
      </trkpt>
      <trkpt lat="43.3991010" lon="-3.3165520">
        <ele>77.4</ele>
        <time>2022-01-16T10:06:46Z</time>
      </trkpt>
      <trkpt lat="43.3990150" lon="-3.3165200">
        <ele>77.4</ele>
        <time>2022-01-16T10:06:47Z</time>
      </trkpt>
      <trkpt lat="43.3989290" lon="-3.3164820">
        <ele>77.2</ele>
        <time>2022-01-16T10:06:48Z</time>
      </trkpt>
      <trkpt lat="43.3988450" lon="-3.3164390">
        <ele>77.2</ele>
        <time>2022-01-16T10:06:49Z</time>
      </trkpt>
      <trkpt lat="43.3987620" lon="-3.3163930">
        <ele>77.2</ele>
        <time>2022-01-16T10:06:50Z</time>
      </trkpt>
      <trkpt lat="43.3986780" lon="-3.3163480">
        <ele>77.0</ele>
        <time>2022-01-16T10:06:51Z</time>
      </trkpt>
      <trkpt lat="43.3985960" lon="-3.3163000">
        <ele>76.8</ele>
        <time>2022-01-16T10:06:52Z</time>
      </trkpt>
      <trkpt lat="43.3985130" lon="-3.3162530">
        <ele>76.2</ele>
        <time>2022-01-16T10:06:53Z</time>
      </trkpt>
      <trkpt lat="43.3984290" lon="-3.3162040">
        <ele>75.8</ele>
        <time>2022-01-16T10:06:54Z</time>
      </trkpt>
      <trkpt lat="43.3983460" lon="-3.3161540">
        <ele>75.8</ele>
        <time>2022-01-16T10:06:55Z</time>
      </trkpt>
      <trkpt lat="43.3982620" lon="-3.3161040">
        <ele>75.6</ele>
        <time>2022-01-16T10:06:56Z</time>
      </trkpt>
      <trkpt lat="43.3981770" lon="-3.3160530">
        <ele>75.6</ele>
        <time>2022-01-16T10:06:57Z</time>
      </trkpt>
      <trkpt lat="43.3980910" lon="-3.3160050">
        <ele>75.4</ele>
        <time>2022-01-16T10:06:58Z</time>
      </trkpt>
      <trkpt lat="43.3980040" lon="-3.3159590">
        <ele>75.2</ele>
        <time>2022-01-16T10:06:59Z</time>
      </trkpt>
      <trkpt lat="43.3979170" lon="-3.3159130">
        <ele>75.0</ele>
        <time>2022-01-16T10:07:00Z</time>
      </trkpt>
      <trkpt lat="43.3978290" lon="-3.3158690">
        <ele>75.0</ele>
        <time>2022-01-16T10:07:01Z</time>
      </trkpt>
      <trkpt lat="43.3977420" lon="-3.3158260">
        <ele>74.8</ele>
        <time>2022-01-16T10:07:02Z</time>
      </trkpt>
      <trkpt lat="43.3976550" lon="-3.3157860">
        <ele>74.6</ele>
        <time>2022-01-16T10:07:03Z</time>
      </trkpt>
      <trkpt lat="43.3975690" lon="-3.3157460">
        <ele>74.6</ele>
        <time>2022-01-16T10:07:04Z</time>
      </trkpt>
      <trkpt lat="43.3974830" lon="-3.3157070">
        <ele>74.4</ele>
        <time>2022-01-16T10:07:05Z</time>
      </trkpt>
      <trkpt lat="43.3973970" lon="-3.3156690">
        <ele>74.2</ele>
        <time>2022-01-16T10:07:06Z</time>
      </trkpt>
      <trkpt lat="43.3973110" lon="-3.3156310">
        <ele>74.0</ele>
        <time>2022-01-16T10:07:07Z</time>
      </trkpt>
      <trkpt lat="43.3972250" lon="-3.3155950">
        <ele>74.0</ele>
        <time>2022-01-16T10:07:08Z</time>
      </trkpt>
      <trkpt lat="43.3971400" lon="-3.3155610">
        <ele>73.8</ele>
        <time>2022-01-16T10:07:09Z</time>
      </trkpt>
      <trkpt lat="43.3970540" lon="-3.3155280">
        <ele>73.8</ele>
        <time>2022-01-16T10:07:10Z</time>
      </trkpt>
      <trkpt lat="43.3969670" lon="-3.3154960">
        <ele>73.8</ele>
        <time>2022-01-16T10:07:11Z</time>
      </trkpt>
      <trkpt lat="43.3968800" lon="-3.3154650">
        <ele>73.8</ele>
        <time>2022-01-16T10:07:12Z</time>
      </trkpt>
      <trkpt lat="43.3967920" lon="-3.3154340">
        <ele>73.6</ele>
        <time>2022-01-16T10:07:13Z</time>
      </trkpt>
      <trkpt lat="43.3967040" lon="-3.3154040">
        <ele>73.4</ele>
        <time>2022-01-16T10:07:14Z</time>
      </trkpt>
      <trkpt lat="43.3966160" lon="-3.3153720">
        <ele>73.2</ele>
        <time>2022-01-16T10:07:15Z</time>
      </trkpt>
      <trkpt lat="43.3965260" lon="-3.3153420">
        <ele>73.2</ele>
        <time>2022-01-16T10:07:16Z</time>
      </trkpt>
      <trkpt lat="43.3964360" lon="-3.3153100">
        <ele>72.8</ele>
        <time>2022-01-16T10:07:17Z</time>
      </trkpt>
      <trkpt lat="43.3963460" lon="-3.3152760">
        <ele>72.2</ele>
        <time>2022-01-16T10:07:18Z</time>
      </trkpt>
      <trkpt lat="43.3962560" lon="-3.3152410">
        <ele>72.0</ele>
        <time>2022-01-16T10:07:19Z</time>
      </trkpt>
      <trkpt lat="43.3961670" lon="-3.3152040">
        <ele>71.8</ele>
        <time>2022-01-16T10:07:20Z</time>
      </trkpt>
      <trkpt lat="43.3960780" lon="-3.3151660">
        <ele>71.8</ele>
        <time>2022-01-16T10:07:21Z</time>
      </trkpt>
      <trkpt lat="43.3959900" lon="-3.3151240">
        <ele>71.8</ele>
        <time>2022-01-16T10:07:22Z</time>
      </trkpt>
      <trkpt lat="43.3959020" lon="-3.3150790">
        <ele>71.6</ele>
        <time>2022-01-16T10:07:23Z</time>
      </trkpt>
      <trkpt lat="43.3958150" lon="-3.3150330">
        <ele>71.6</ele>
        <time>2022-01-16T10:07:24Z</time>
      </trkpt>
      <trkpt lat="43.3957290" lon="-3.3149840">
        <ele>71.4</ele>
        <time>2022-01-16T10:07:25Z</time>
      </trkpt>
      <trkpt lat="43.3956440" lon="-3.3149340">
        <ele>71.2</ele>
        <time>2022-01-16T10:07:26Z</time>
      </trkpt>
      <trkpt lat="43.3955600" lon="-3.3148830">
        <ele>71.2</ele>
        <time>2022-01-16T10:07:27Z</time>
      </trkpt>
      <trkpt lat="43.3954760" lon="-3.3148300">
        <ele>71.2</ele>
        <time>2022-01-16T10:07:28Z</time>
      </trkpt>
      <trkpt lat="43.3953930" lon="-3.3147790">
        <ele>71.2</ele>
        <time>2022-01-16T10:07:29Z</time>
      </trkpt>
      <trkpt lat="43.3953090" lon="-3.3147280">
        <ele>71.2</ele>
        <time>2022-01-16T10:07:30Z</time>
      </trkpt>
      <trkpt lat="43.3952240" lon="-3.3146800">
        <ele>71.4</ele>
        <time>2022-01-16T10:07:31Z</time>
      </trkpt>
      <trkpt lat="43.3951360" lon="-3.3146380">
        <ele>71.2</ele>
        <time>2022-01-16T10:07:32Z</time>
      </trkpt>
      <trkpt lat="43.3950460" lon="-3.3146090">
        <ele>71.2</ele>
        <time>2022-01-16T10:07:33Z</time>
      </trkpt>
      <trkpt lat="43.3949560" lon="-3.3145910">
        <ele>71.2</ele>
        <time>2022-01-16T10:07:34Z</time>
      </trkpt>
      <trkpt lat="43.3948650" lon="-3.3145770">
        <ele>71.0</ele>
        <time>2022-01-16T10:07:35Z</time>
      </trkpt>
      <trkpt lat="43.3947740" lon="-3.3145660">
        <ele>70.8</ele>
        <time>2022-01-16T10:07:36Z</time>
      </trkpt>
      <trkpt lat="43.3946840" lon="-3.3145610">
        <ele>70.8</ele>
        <time>2022-01-16T10:07:37Z</time>
      </trkpt>
      <trkpt lat="43.3945930" lon="-3.3145620">
        <ele>70.8</ele>
        <time>2022-01-16T10:07:38Z</time>
      </trkpt>
      <trkpt lat="43.3945030" lon="-3.3145700">
        <ele>70.8</ele>
        <time>2022-01-16T10:07:39Z</time>
      </trkpt>
      <trkpt lat="43.3944130" lon="-3.3145840">
        <ele>70.8</ele>
        <time>2022-01-16T10:07:40Z</time>
      </trkpt>
      <trkpt lat="43.3943240" lon="-3.3146010">
        <ele>70.8</ele>
        <time>2022-01-16T10:07:41Z</time>
      </trkpt>
      <trkpt lat="43.3942350" lon="-3.3146180">
        <ele>70.8</ele>
        <time>2022-01-16T10:07:42Z</time>
      </trkpt>
      <trkpt lat="43.3941460" lon="-3.3146360">
        <ele>70.8</ele>
        <time>2022-01-16T10:07:43Z</time>
      </trkpt>
      <trkpt lat="43.3940570" lon="-3.3146540">
        <ele>70.6</ele>
        <time>2022-01-16T10:07:44Z</time>
      </trkpt>
      <trkpt lat="43.3939680" lon="-3.3146730">
        <ele>70.4</ele>
        <time>2022-01-16T10:07:45Z</time>
      </trkpt>
      <trkpt lat="43.3938780" lon="-3.3146910">
        <ele>70.2</ele>
        <time>2022-01-16T10:07:46Z</time>
      </trkpt>
      <trkpt lat="43.3937880" lon="-3.3147100">
        <ele>70.0</ele>
        <time>2022-01-16T10:07:47Z</time>
      </trkpt>
      <trkpt lat="43.3937000" lon="-3.3147300">
        <ele>70.0</ele>
        <time>2022-01-16T10:07:48Z</time>
      </trkpt>
      <trkpt lat="43.3936130" lon="-3.3147500">
        <ele>70.0</ele>
        <time>2022-01-16T10:07:49Z</time>
      </trkpt>
      <trkpt lat="43.3935250" lon="-3.3147670">
        <ele>70.0</ele>
        <time>2022-01-16T10:07:50Z</time>
      </trkpt>
      <trkpt lat="43.3934370" lon="-3.3147790">
        <ele>70.2</ele>
        <time>2022-01-16T10:07:51Z</time>
      </trkpt>
      <trkpt lat="43.3933480" lon="-3.3147840">
        <ele>70.2</ele>
        <time>2022-01-16T10:07:52Z</time>
      </trkpt>
      <trkpt lat="43.3932580" lon="-3.3147820">
        <ele>70.2</ele>
        <time>2022-01-16T10:07:53Z</time>
      </trkpt>
      <trkpt lat="43.3931700" lon="-3.3147770">
        <ele>70.4</ele>
        <time>2022-01-16T10:07:54Z</time>
      </trkpt>
      <trkpt lat="43.3930830" lon="-3.3147710">
        <ele>70.4</ele>
        <time>2022-01-16T10:07:55Z</time>
      </trkpt>
      <trkpt lat="43.3929960" lon="-3.3147630">
        <ele>70.4</ele>
        <time>2022-01-16T10:07:56Z</time>
      </trkpt>
      <trkpt lat="43.3929110" lon="-3.3147540">
        <ele>70.4</ele>
        <time>2022-01-16T10:07:57Z</time>
      </trkpt>
      <trkpt lat="43.3928270" lon="-3.3147450">
        <ele>70.4</ele>
        <time>2022-01-16T10:07:58Z</time>
      </trkpt>
      <trkpt lat="43.3927420" lon="-3.3147360">
        <ele>70.4</ele>
        <time>2022-01-16T10:07:59Z</time>
      </trkpt>
      <trkpt lat="43.3926580" lon="-3.3147270">
        <ele>70.6</ele>
        <time>2022-01-16T10:08:00Z</time>
      </trkpt>
      <trkpt lat="43.3925740" lon="-3.3147180">
        <ele>70.8</ele>
        <time>2022-01-16T10:08:01Z</time>
      </trkpt>
      <trkpt lat="43.3924910" lon="-3.3147110">
        <ele>70.8</ele>
        <time>2022-01-16T10:08:02Z</time>
      </trkpt>
      <trkpt lat="43.3924090" lon="-3.3147030">
        <ele>71.0</ele>
        <time>2022-01-16T10:08:03Z</time>
      </trkpt>
      <trkpt lat="43.3923280" lon="-3.3146960">
        <ele>71.2</ele>
        <time>2022-01-16T10:08:04Z</time>
      </trkpt>
      <trkpt lat="43.3922480" lon="-3.3146890">
        <ele>71.4</ele>
        <time>2022-01-16T10:08:05Z</time>
      </trkpt>
      <trkpt lat="43.3921680" lon="-3.3146830">
        <ele>71.6</ele>
        <time>2022-01-16T10:08:06Z</time>
      </trkpt>
      <trkpt lat="43.3920890" lon="-3.3146800">
        <ele>71.8</ele>
        <time>2022-01-16T10:08:07Z</time>
      </trkpt>
      <trkpt lat="43.3920100" lon="-3.3146790">
        <ele>72.0</ele>
        <time>2022-01-16T10:08:08Z</time>
      </trkpt>
      <trkpt lat="43.3919300" lon="-3.3146840">
        <ele>72.2</ele>
        <time>2022-01-16T10:08:09Z</time>
      </trkpt>
      <trkpt lat="43.3918500" lon="-3.3146940">
        <ele>72.4</ele>
        <time>2022-01-16T10:08:10Z</time>
      </trkpt>
      <trkpt lat="43.3917700" lon="-3.3147130">
        <ele>72.4</ele>
        <time>2022-01-16T10:08:11Z</time>
      </trkpt>
      <trkpt lat="43.3916900" lon="-3.3147390">
        <ele>72.4</ele>
        <time>2022-01-16T10:08:12Z</time>
      </trkpt>
      <trkpt lat="43.3916130" lon="-3.3147750">
        <ele>72.4</ele>
        <time>2022-01-16T10:08:13Z</time>
      </trkpt>
      <trkpt lat="43.3915380" lon="-3.3148220">
        <ele>72.2</ele>
        <time>2022-01-16T10:08:14Z</time>
      </trkpt>
      <trkpt lat="43.3914680" lon="-3.3148820">
        <ele>72.2</ele>
        <time>2022-01-16T10:08:15Z</time>
      </trkpt>
      <trkpt lat="43.3914010" lon="-3.3149510">
        <ele>72.4</ele>
        <time>2022-01-16T10:08:16Z</time>
      </trkpt>
      <trkpt lat="43.3913370" lon="-3.3150240">
        <ele>72.6</ele>
        <time>2022-01-16T10:08:17Z</time>
      </trkpt>
      <trkpt lat="43.3912720" lon="-3.3150990">
        <ele>72.6</ele>
        <time>2022-01-16T10:08:18Z</time>
      </trkpt>
      <trkpt lat="43.3912080" lon="-3.3151760">
        <ele>72.6</ele>
        <time>2022-01-16T10:08:19Z</time>
      </trkpt>
      <trkpt lat="43.3911430" lon="-3.3152510">
        <ele>72.4</ele>
        <time>2022-01-16T10:08:20Z</time>
      </trkpt>
      <trkpt lat="43.3910800" lon="-3.3153260">
        <ele>72.4</ele>
        <time>2022-01-16T10:08:21Z</time>
      </trkpt>
      <trkpt lat="43.3910160" lon="-3.3154030">
        <ele>72.4</ele>
        <time>2022-01-16T10:08:22Z</time>
      </trkpt>
      <trkpt lat="43.3909520" lon="-3.3154790">
        <ele>72.4</ele>
        <time>2022-01-16T10:08:23Z</time>
      </trkpt>
      <trkpt lat="43.3908870" lon="-3.3155530">
        <ele>72.2</ele>
        <time>2022-01-16T10:08:24Z</time>
      </trkpt>
      <trkpt lat="43.3908220" lon="-3.3156260">
        <ele>72.4</ele>
        <time>2022-01-16T10:08:25Z</time>
      </trkpt>
      <trkpt lat="43.3907560" lon="-3.3156990">
        <ele>72.4</ele>
        <time>2022-01-16T10:08:26Z</time>
      </trkpt>
      <trkpt lat="43.3906910" lon="-3.3157720">
        <ele>72.6</ele>
        <time>2022-01-16T10:08:27Z</time>
      </trkpt>
      <trkpt lat="43.3906250" lon="-3.3158450">
        <ele>72.6</ele>
        <time>2022-01-16T10:08:28Z</time>
      </trkpt>
      <trkpt lat="43.3905570" lon="-3.3159150">
        <ele>72.6</ele>
        <time>2022-01-16T10:08:29Z</time>
      </trkpt>
      <trkpt lat="43.3904890" lon="-3.3159830">
        <ele>72.6</ele>
        <time>2022-01-16T10:08:30Z</time>
      </trkpt>
      <trkpt lat="43.3904180" lon="-3.3160470">
        <ele>72.8</ele>
        <time>2022-01-16T10:08:31Z</time>
      </trkpt>
      <trkpt lat="43.3903450" lon="-3.3161060">
        <ele>73.0</ele>
        <time>2022-01-16T10:08:32Z</time>
      </trkpt>
      <trkpt lat="43.3902690" lon="-3.3161570">
        <ele>73.0</ele>
        <time>2022-01-16T10:08:33Z</time>
      </trkpt>
      <trkpt lat="43.3901910" lon="-3.3162010">
        <ele>73.0</ele>
        <time>2022-01-16T10:08:34Z</time>
      </trkpt>
      <trkpt lat="43.3901110" lon="-3.3162420">
        <ele>73.0</ele>
        <time>2022-01-16T10:08:35Z</time>
      </trkpt>
      <trkpt lat="43.3900290" lon="-3.3162800">
        <ele>73.2</ele>
        <time>2022-01-16T10:08:36Z</time>
      </trkpt>
      <trkpt lat="43.3899450" lon="-3.3163190">
        <ele>73.0</ele>
        <time>2022-01-16T10:08:37Z</time>
      </trkpt>
      <trkpt lat="43.3898630" lon="-3.3163620">
        <ele>73.0</ele>
        <time>2022-01-16T10:08:38Z</time>
      </trkpt>
      <trkpt lat="43.3897820" lon="-3.3164070">
        <ele>73.0</ele>
        <time>2022-01-16T10:08:39Z</time>
      </trkpt>
      <trkpt lat="43.3897020" lon="-3.3164570">
        <ele>73.0</ele>
        <time>2022-01-16T10:08:40Z</time>
      </trkpt>
      <trkpt lat="43.3896270" lon="-3.3165180">
        <ele>72.8</ele>
        <time>2022-01-16T10:08:41Z</time>
      </trkpt>
      <trkpt lat="43.3895570" lon="-3.3165850">
        <ele>72.8</ele>
        <time>2022-01-16T10:08:42Z</time>
      </trkpt>
      <trkpt lat="43.3894950" lon="-3.3166660">
        <ele>72.8</ele>
        <time>2022-01-16T10:08:43Z</time>
      </trkpt>
      <trkpt lat="43.3894360" lon="-3.3167540">
        <ele>72.6</ele>
        <time>2022-01-16T10:08:44Z</time>
      </trkpt>
      <trkpt lat="43.3893830" lon="-3.3168480">
        <ele>72.4</ele>
        <time>2022-01-16T10:08:45Z</time>
      </trkpt>
      <trkpt lat="43.3893330" lon="-3.3169440">
        <ele>72.6</ele>
        <time>2022-01-16T10:08:46Z</time>
      </trkpt>
      <trkpt lat="43.3892890" lon="-3.3170450">
        <ele>72.6</ele>
        <time>2022-01-16T10:08:47Z</time>
      </trkpt>
      <trkpt lat="43.3892530" lon="-3.3171510">
        <ele>72.4</ele>
        <time>2022-01-16T10:08:48Z</time>
      </trkpt>
      <trkpt lat="43.3892250" lon="-3.3172610">
        <ele>72.6</ele>
        <time>2022-01-16T10:08:49Z</time>
      </trkpt>
      <trkpt lat="43.3892010" lon="-3.3173720">
        <ele>72.8</ele>
        <time>2022-01-16T10:08:50Z</time>
      </trkpt>
      <trkpt lat="43.3891800" lon="-3.3174810">
        <ele>73.0</ele>
        <time>2022-01-16T10:08:51Z</time>
      </trkpt>
      <trkpt lat="43.3891560" lon="-3.3175880">
        <ele>73.0</ele>
        <time>2022-01-16T10:08:52Z</time>
      </trkpt>
      <trkpt lat="43.3891250" lon="-3.3176940">
        <ele>73.0</ele>
        <time>2022-01-16T10:08:53Z</time>
      </trkpt>
      <trkpt lat="43.3890880" lon="-3.3177940">
        <ele>73.0</ele>
        <time>2022-01-16T10:08:54Z</time>
      </trkpt>
      <trkpt lat="43.3890400" lon="-3.3178870">
        <ele>73.0</ele>
        <time>2022-01-16T10:08:55Z</time>
      </trkpt>
      <trkpt lat="43.3889850" lon="-3.3179750">
        <ele>73.0</ele>
        <time>2022-01-16T10:08:56Z</time>
      </trkpt>
      <trkpt lat="43.3889260" lon="-3.3180550">
        <ele>72.8</ele>
        <time>2022-01-16T10:08:57Z</time>
      </trkpt>
      <trkpt lat="43.3888640" lon="-3.3181290">
        <ele>72.8</ele>
        <time>2022-01-16T10:08:58Z</time>
      </trkpt>
      <trkpt lat="43.3888000" lon="-3.3182050">
        <ele>72.8</ele>
        <time>2022-01-16T10:08:59Z</time>
      </trkpt>
      <trkpt lat="43.3887330" lon="-3.3182770">
        <ele>73.0</ele>
        <time>2022-01-16T10:09:00Z</time>
      </trkpt>
      <trkpt lat="43.3886650" lon="-3.3183470">
        <ele>73.0</ele>
        <time>2022-01-16T10:09:01Z</time>
      </trkpt>
      <trkpt lat="43.3885960" lon="-3.3184130">
        <ele>73.4</ele>
        <time>2022-01-16T10:09:02Z</time>
      </trkpt>
      <trkpt lat="43.3885250" lon="-3.3184740">
        <ele>73.4</ele>
        <time>2022-01-16T10:09:03Z</time>
      </trkpt>
      <trkpt lat="43.3884540" lon="-3.3185350">
        <ele>73.6</ele>
        <time>2022-01-16T10:09:04Z</time>
      </trkpt>
      <trkpt lat="43.3883810" lon="-3.3185940">
        <ele>73.6</ele>
        <time>2022-01-16T10:09:05Z</time>
      </trkpt>
      <trkpt lat="43.3883030" lon="-3.3186390">
        <ele>73.6</ele>
        <time>2022-01-16T10:09:06Z</time>
      </trkpt>
      <trkpt lat="43.3882240" lon="-3.3186820">
        <ele>73.4</ele>
        <time>2022-01-16T10:09:07Z</time>
      </trkpt>
      <trkpt lat="43.3881430" lon="-3.3187110">
        <ele>73.6</ele>
        <time>2022-01-16T10:09:08Z</time>
      </trkpt>
      <trkpt lat="43.3880610" lon="-3.3187310">
        <ele>73.6</ele>
        <time>2022-01-16T10:09:09Z</time>
      </trkpt>
      <trkpt lat="43.3879760" lon="-3.3187450">
        <ele>73.6</ele>
        <time>2022-01-16T10:09:10Z</time>
      </trkpt>
      <trkpt lat="43.3878920" lon="-3.3187540">
        <ele>73.8</ele>
        <time>2022-01-16T10:09:11Z</time>
      </trkpt>
      <trkpt lat="43.3878070" lon="-3.3187610">
        <ele>73.8</ele>
        <time>2022-01-16T10:09:12Z</time>
      </trkpt>
      <trkpt lat="43.3877220" lon="-3.3187670">
        <ele>73.8</ele>
        <time>2022-01-16T10:09:13Z</time>
      </trkpt>
      <trkpt lat="43.3876360" lon="-3.3187680">
        <ele>73.8</ele>
        <time>2022-01-16T10:09:14Z</time>
      </trkpt>
      <trkpt lat="43.3875500" lon="-3.3187690">
        <ele>73.8</ele>
        <time>2022-01-16T10:09:15Z</time>
      </trkpt>
      <trkpt lat="43.3874630" lon="-3.3187730">
        <ele>73.6</ele>
        <time>2022-01-16T10:09:16Z</time>
      </trkpt>
      <trkpt lat="43.3873790" lon="-3.3187640">
        <ele>73.6</ele>
        <time>2022-01-16T10:09:17Z</time>
      </trkpt>
      <trkpt lat="43.3872940" lon="-3.3187500">
        <ele>73.6</ele>
        <time>2022-01-16T10:09:18Z</time>
      </trkpt>
      <trkpt lat="43.3872090" lon="-3.3187400">
        <ele>73.4</ele>
        <time>2022-01-16T10:09:19Z</time>
      </trkpt>
      <trkpt lat="43.3871250" lon="-3.3187190">
        <ele>73.4</ele>
        <time>2022-01-16T10:09:20Z</time>
      </trkpt>
      <trkpt lat="43.3870410" lon="-3.3186930">
        <ele>73.0</ele>
        <time>2022-01-16T10:09:21Z</time>
      </trkpt>
      <trkpt lat="43.3869570" lon="-3.3186660">
        <ele>73.0</ele>
        <time>2022-01-16T10:09:22Z</time>
      </trkpt>
      <trkpt lat="43.3868740" lon="-3.3186370">
        <ele>73.4</ele>
        <time>2022-01-16T10:09:23Z</time>
      </trkpt>
      <trkpt lat="43.3867880" lon="-3.3186070">
        <ele>73.4</ele>
        <time>2022-01-16T10:09:24Z</time>
      </trkpt>
      <trkpt lat="43.3867030" lon="-3.3185760">
        <ele>73.2</ele>
        <time>2022-01-16T10:09:25Z</time>
      </trkpt>
      <trkpt lat="43.3866170" lon="-3.3185490">
        <ele>73.2</ele>
        <time>2022-01-16T10:09:26Z</time>
      </trkpt>
      <trkpt lat="43.3865350" lon="-3.3185180">
        <ele>73.2</ele>
        <time>2022-01-16T10:09:27Z</time>
      </trkpt>
      <trkpt lat="43.3864530" lon="-3.3184820">
        <ele>73.2</ele>
        <time>2022-01-16T10:09:28Z</time>
      </trkpt>
      <trkpt lat="43.3863700" lon="-3.3184500">
        <ele>73.4</ele>
        <time>2022-01-16T10:09:29Z</time>
      </trkpt>
      <trkpt lat="43.3862880" lon="-3.3184200">
        <ele>73.4</ele>
        <time>2022-01-16T10:09:30Z</time>
      </trkpt>
      <trkpt lat="43.3862060" lon="-3.3183860">
        <ele>73.6</ele>
        <time>2022-01-16T10:09:31Z</time>
      </trkpt>
      <trkpt lat="43.3861220" lon="-3.3183520">
        <ele>73.8</ele>
        <time>2022-01-16T10:09:32Z</time>
      </trkpt>
      <trkpt lat="43.3860390" lon="-3.3183230">
        <ele>73.8</ele>
        <time>2022-01-16T10:09:33Z</time>
      </trkpt>
      <trkpt lat="43.3859550" lon="-3.3182920">
        <ele>74.0</ele>
        <time>2022-01-16T10:09:34Z</time>
      </trkpt>
      <trkpt lat="43.3858700" lon="-3.3182620">
        <ele>73.8</ele>
        <time>2022-01-16T10:09:35Z</time>
      </trkpt>
      <trkpt lat="43.3857850" lon="-3.3182390">
        <ele>73.8</ele>
        <time>2022-01-16T10:09:36Z</time>
      </trkpt>
      <trkpt lat="43.3856990" lon="-3.3182180">
        <ele>73.6</ele>
        <time>2022-01-16T10:09:37Z</time>
      </trkpt>
      <trkpt lat="43.3856150" lon="-3.3181920">
        <ele>73.6</ele>
        <time>2022-01-16T10:09:38Z</time>
      </trkpt>
      <trkpt lat="43.3855320" lon="-3.3181710">
        <ele>73.8</ele>
        <time>2022-01-16T10:09:39Z</time>
      </trkpt>
      <trkpt lat="43.3854480" lon="-3.3181510">
        <ele>73.8</ele>
        <time>2022-01-16T10:09:40Z</time>
      </trkpt>
      <trkpt lat="43.3853630" lon="-3.3181220">
        <ele>74.0</ele>
        <time>2022-01-16T10:09:41Z</time>
      </trkpt>
      <trkpt lat="43.3852760" lon="-3.3181220">
        <ele>74.0</ele>
        <time>2022-01-16T10:09:42Z</time>
      </trkpt>
      <trkpt lat="43.3851860" lon="-3.3181190">
        <ele>74.2</ele>
        <time>2022-01-16T10:09:43Z</time>
      </trkpt>
      <trkpt lat="43.3850930" lon="-3.3181130">
        <ele>74.2</ele>
        <time>2022-01-16T10:09:44Z</time>
      </trkpt>
      <trkpt lat="43.3850020" lon="-3.3181050">
        <ele>74.0</ele>
        <time>2022-01-16T10:09:45Z</time>
      </trkpt>
      <trkpt lat="43.3849100" lon="-3.3180980">
        <ele>74.0</ele>
        <time>2022-01-16T10:09:46Z</time>
      </trkpt>
      <trkpt lat="43.3848190" lon="-3.3180880">
        <ele>74.0</ele>
        <time>2022-01-16T10:09:47Z</time>
      </trkpt>
      <trkpt lat="43.3847310" lon="-3.3180820">
        <ele>74.0</ele>
        <time>2022-01-16T10:09:48Z</time>
      </trkpt>
      <trkpt lat="43.3846430" lon="-3.3180810">
        <ele>73.8</ele>
        <time>2022-01-16T10:09:49Z</time>
      </trkpt>
      <trkpt lat="43.3845560" lon="-3.3180800">
        <ele>73.4</ele>
        <time>2022-01-16T10:09:50Z</time>
      </trkpt>
      <trkpt lat="43.3844660" lon="-3.3180740">
        <ele>73.4</ele>
        <time>2022-01-16T10:09:51Z</time>
      </trkpt>
      <trkpt lat="43.3843840" lon="-3.3180790">
        <ele>73.2</ele>
        <time>2022-01-16T10:09:52Z</time>
      </trkpt>
      <trkpt lat="43.3843000" lon="-3.3180920">
        <ele>73.0</ele>
        <time>2022-01-16T10:09:53Z</time>
      </trkpt>
      <trkpt lat="43.3842100" lon="-3.3181270">
        <ele>73.0</ele>
        <time>2022-01-16T10:09:54Z</time>
      </trkpt>
      <trkpt lat="43.3841230" lon="-3.3181830">
        <ele>73.0</ele>
        <time>2022-01-16T10:09:55Z</time>
      </trkpt>
      <trkpt lat="43.3840400" lon="-3.3182480">
        <ele>73.2</ele>
        <time>2022-01-16T10:09:56Z</time>
      </trkpt>
      <trkpt lat="43.3839640" lon="-3.3183200">
        <ele>73.4</ele>
        <time>2022-01-16T10:09:57Z</time>
      </trkpt>
      <trkpt lat="43.3838900" lon="-3.3183890">
        <ele>73.6</ele>
        <time>2022-01-16T10:09:58Z</time>
      </trkpt>
      <trkpt lat="43.3838200" lon="-3.3184630">
        <ele>73.6</ele>
        <time>2022-01-16T10:09:59Z</time>
      </trkpt>
      <trkpt lat="43.3837570" lon="-3.3185280">
        <ele>73.6</ele>
        <time>2022-01-16T10:10:00Z</time>
      </trkpt>
      <trkpt lat="43.3836830" lon="-3.3185990">
        <ele>73.4</ele>
        <time>2022-01-16T10:10:01Z</time>
      </trkpt>
      <trkpt lat="43.3836090" lon="-3.3186630">
        <ele>73.2</ele>
        <time>2022-01-16T10:10:02Z</time>
      </trkpt>
      <trkpt lat="43.3835330" lon="-3.3187280">
        <ele>73.2</ele>
        <time>2022-01-16T10:10:03Z</time>
      </trkpt>
      <trkpt lat="43.3834520" lon="-3.3187870">
        <ele>72.8</ele>
        <time>2022-01-16T10:10:04Z</time>
      </trkpt>
      <trkpt lat="43.3833740" lon="-3.3188470">
        <ele>73.0</ele>
        <time>2022-01-16T10:10:05Z</time>
      </trkpt>
      <trkpt lat="43.3832980" lon="-3.3189060">
        <ele>72.8</ele>
        <time>2022-01-16T10:10:06Z</time>
      </trkpt>
      <trkpt lat="43.3832220" lon="-3.3189650">
        <ele>73.0</ele>
        <time>2022-01-16T10:10:07Z</time>
      </trkpt>
      <trkpt lat="43.3831440" lon="-3.3190220">
        <ele>73.2</ele>
        <time>2022-01-16T10:10:08Z</time>
      </trkpt>
      <trkpt lat="43.3830660" lon="-3.3190800">
        <ele>73.0</ele>
        <time>2022-01-16T10:10:09Z</time>
      </trkpt>
      <trkpt lat="43.3829880" lon="-3.3191370">
        <ele>73.2</ele>
        <time>2022-01-16T10:10:10Z</time>
      </trkpt>
      <trkpt lat="43.3829080" lon="-3.3191930">
        <ele>73.2</ele>
        <time>2022-01-16T10:10:11Z</time>
      </trkpt>
      <trkpt lat="43.3828280" lon="-3.3192500">
        <ele>73.4</ele>
        <time>2022-01-16T10:10:12Z</time>
      </trkpt>
      <trkpt lat="43.3827480" lon="-3.3193070">
        <ele>73.4</ele>
        <time>2022-01-16T10:10:13Z</time>
      </trkpt>
      <trkpt lat="43.3826680" lon="-3.3193630">
        <ele>73.4</ele>
        <time>2022-01-16T10:10:14Z</time>
      </trkpt>
      <trkpt lat="43.3825850" lon="-3.3194150">
        <ele>73.4</ele>
        <time>2022-01-16T10:10:15Z</time>
      </trkpt>
      <trkpt lat="43.3825010" lon="-3.3194630">
        <ele>73.2</ele>
        <time>2022-01-16T10:10:16Z</time>
      </trkpt>
      <trkpt lat="43.3824150" lon="-3.3195070">
        <ele>73.2</ele>
        <time>2022-01-16T10:10:17Z</time>
      </trkpt>
      <trkpt lat="43.3823290" lon="-3.3195460">
        <ele>73.0</ele>
        <time>2022-01-16T10:10:18Z</time>
      </trkpt>
      <trkpt lat="43.3822410" lon="-3.3195810">
        <ele>73.0</ele>
        <time>2022-01-16T10:10:19Z</time>
      </trkpt>
      <trkpt lat="43.3821530" lon="-3.3196160">
        <ele>72.8</ele>
        <time>2022-01-16T10:10:20Z</time>
      </trkpt>
      <trkpt lat="43.3820660" lon="-3.3196510">
        <ele>72.6</ele>
        <time>2022-01-16T10:10:21Z</time>
      </trkpt>
      <trkpt lat="43.3819790" lon="-3.3196890">
        <ele>72.8</ele>
        <time>2022-01-16T10:10:22Z</time>
      </trkpt>
      <trkpt lat="43.3818920" lon="-3.3197250">
        <ele>72.8</ele>
        <time>2022-01-16T10:10:23Z</time>
      </trkpt>
      <trkpt lat="43.3818050" lon="-3.3197610">
        <ele>73.0</ele>
        <time>2022-01-16T10:10:24Z</time>
      </trkpt>
      <trkpt lat="43.3817170" lon="-3.3197980">
        <ele>72.8</ele>
        <time>2022-01-16T10:10:25Z</time>
      </trkpt>
      <trkpt lat="43.3816300" lon="-3.3198340">
        <ele>73.0</ele>
        <time>2022-01-16T10:10:26Z</time>
      </trkpt>
      <trkpt lat="43.3815430" lon="-3.3198700">
        <ele>73.0</ele>
        <time>2022-01-16T10:10:27Z</time>
      </trkpt>
      <trkpt lat="43.3814560" lon="-3.3199070">
        <ele>72.8</ele>
        <time>2022-01-16T10:10:28Z</time>
      </trkpt>
      <trkpt lat="43.3813690" lon="-3.3199440">
        <ele>72.6</ele>
        <time>2022-01-16T10:10:29Z</time>
      </trkpt>
      <trkpt lat="43.3812820" lon="-3.3199800">
        <ele>72.4</ele>
        <time>2022-01-16T10:10:30Z</time>
      </trkpt>
      <trkpt lat="43.3811940" lon="-3.3200170">
        <ele>72.4</ele>
        <time>2022-01-16T10:10:31Z</time>
      </trkpt>
      <trkpt lat="43.3811070" lon="-3.3200530">
        <ele>72.2</ele>
        <time>2022-01-16T10:10:32Z</time>
      </trkpt>
      <trkpt lat="43.3810190" lon="-3.3200910">
        <ele>72.2</ele>
        <time>2022-01-16T10:10:33Z</time>
      </trkpt>
      <trkpt lat="43.3809310" lon="-3.3201270">
        <ele>72.2</ele>
        <time>2022-01-16T10:10:34Z</time>
      </trkpt>
      <trkpt lat="43.3808440" lon="-3.3201640">
        <ele>72.2</ele>
        <time>2022-01-16T10:10:35Z</time>
      </trkpt>
      <trkpt lat="43.3807570" lon="-3.3202010">
        <ele>72.2</ele>
        <time>2022-01-16T10:10:36Z</time>
      </trkpt>
      <trkpt lat="43.3806690" lon="-3.3202370">
        <ele>72.2</ele>
        <time>2022-01-16T10:10:37Z</time>
      </trkpt>
      <trkpt lat="43.3805830" lon="-3.3202740">
        <ele>72.4</ele>
        <time>2022-01-16T10:10:38Z</time>
      </trkpt>
      <trkpt lat="43.3804970" lon="-3.3203110">
        <ele>72.2</ele>
        <time>2022-01-16T10:10:39Z</time>
      </trkpt>
      <trkpt lat="43.3804110" lon="-3.3203520">
        <ele>72.0</ele>
        <time>2022-01-16T10:10:40Z</time>
      </trkpt>
      <trkpt lat="43.3803260" lon="-3.3203920">
        <ele>71.8</ele>
        <time>2022-01-16T10:10:41Z</time>
      </trkpt>
      <trkpt lat="43.3802430" lon="-3.3204310">
        <ele>71.8</ele>
        <time>2022-01-16T10:10:42Z</time>
      </trkpt>
      <trkpt lat="43.3801600" lon="-3.3204700">
        <ele>71.8</ele>
        <time>2022-01-16T10:10:43Z</time>
      </trkpt>
      <trkpt lat="43.3800780" lon="-3.3205100">
        <ele>71.8</ele>
        <time>2022-01-16T10:10:44Z</time>
      </trkpt>
      <trkpt lat="43.3799970" lon="-3.3205490">
        <ele>71.8</ele>
        <time>2022-01-16T10:10:45Z</time>
      </trkpt>
      <trkpt lat="43.3799170" lon="-3.3205870">
        <ele>72.0</ele>
        <time>2022-01-16T10:10:46Z</time>
      </trkpt>
      <trkpt lat="43.3798390" lon="-3.3206290">
        <ele>72.2</ele>
        <time>2022-01-16T10:10:47Z</time>
      </trkpt>
      <trkpt lat="43.3797600" lon="-3.3206690">
        <ele>72.2</ele>
        <time>2022-01-16T10:10:48Z</time>
      </trkpt>
      <trkpt lat="43.3796820" lon="-3.3207110">
        <ele>72.0</ele>
        <time>2022-01-16T10:10:49Z</time>
      </trkpt>
      <trkpt lat="43.3796070" lon="-3.3207550">
        <ele>71.8</ele>
        <time>2022-01-16T10:10:50Z</time>
      </trkpt>
      <trkpt lat="43.3795340" lon="-3.3207990">
        <ele>71.6</ele>
        <time>2022-01-16T10:10:51Z</time>
      </trkpt>
      <trkpt lat="43.3794650" lon="-3.3208450">
        <ele>71.6</ele>
        <time>2022-01-16T10:10:52Z</time>
      </trkpt>
      <trkpt lat="43.3794030" lon="-3.3209010">
        <ele>71.6</ele>
        <time>2022-01-16T10:10:53Z</time>
      </trkpt>
      <trkpt lat="43.3793500" lon="-3.3209660">
        <ele>71.4</ele>
        <time>2022-01-16T10:10:54Z</time>
      </trkpt>
      <trkpt lat="43.3793020" lon="-3.3210310">
        <ele>71.4</ele>
        <time>2022-01-16T10:10:55Z</time>
      </trkpt>
      <trkpt lat="43.3792510" lon="-3.3210860">
        <ele>71.4</ele>
        <time>2022-01-16T10:10:56Z</time>
      </trkpt>
      <trkpt lat="43.3791960" lon="-3.3211150">
        <ele>71.6</ele>
        <time>2022-01-16T10:10:57Z</time>
      </trkpt>
      <trkpt lat="43.3791370" lon="-3.3211110">
        <ele>71.6</ele>
        <time>2022-01-16T10:10:58Z</time>
      </trkpt>
      <trkpt lat="43.3790790" lon="-3.3210800">
        <ele>71.8</ele>
        <time>2022-01-16T10:10:59Z</time>
      </trkpt>
      <trkpt lat="43.3790230" lon="-3.3210370">
        <ele>71.8</ele>
        <time>2022-01-16T10:11:00Z</time>
      </trkpt>
      <trkpt lat="43.3789630" lon="-3.3209900">
        <ele>71.8</ele>
        <time>2022-01-16T10:11:01Z</time>
      </trkpt>
      <trkpt lat="43.3788980" lon="-3.3209540">
        <ele>72.0</ele>
        <time>2022-01-16T10:11:02Z</time>
      </trkpt>
      <trkpt lat="43.3788290" lon="-3.3209340">
        <ele>72.0</ele>
        <time>2022-01-16T10:11:03Z</time>
      </trkpt>
      <trkpt lat="43.3787580" lon="-3.3209240">
        <ele>72.0</ele>
        <time>2022-01-16T10:11:04Z</time>
      </trkpt>
      <trkpt lat="43.3786870" lon="-3.3209210">
        <ele>72.0</ele>
        <time>2022-01-16T10:11:05Z</time>
      </trkpt>
      <trkpt lat="43.3786140" lon="-3.3209190">
        <ele>72.0</ele>
        <time>2022-01-16T10:11:06Z</time>
      </trkpt>
      <trkpt lat="43.3785410" lon="-3.3209150">
        <ele>72.0</ele>
        <time>2022-01-16T10:11:07Z</time>
      </trkpt>
      <trkpt lat="43.3784680" lon="-3.3209070">
        <ele>72.0</ele>
        <time>2022-01-16T10:11:08Z</time>
      </trkpt>
      <trkpt lat="43.3783950" lon="-3.3208960">
        <ele>72.0</ele>
        <time>2022-01-16T10:11:09Z</time>
      </trkpt>
      <trkpt lat="43.3783230" lon="-3.3208770">
        <ele>72.0</ele>
        <time>2022-01-16T10:11:10Z</time>
      </trkpt>
      <trkpt lat="43.3782520" lon="-3.3208560">
        <ele>72.2</ele>
        <time>2022-01-16T10:11:11Z</time>
      </trkpt>
      <trkpt lat="43.3781820" lon="-3.3208320">
        <ele>72.2</ele>
        <time>2022-01-16T10:11:12Z</time>
      </trkpt>
      <trkpt lat="43.3781130" lon="-3.3208020">
        <ele>72.4</ele>
        <time>2022-01-16T10:11:13Z</time>
      </trkpt>
      <trkpt lat="43.3780440" lon="-3.3207720">
        <ele>72.4</ele>
        <time>2022-01-16T10:11:14Z</time>
      </trkpt>
      <trkpt lat="43.3779760" lon="-3.3207380">
        <ele>72.6</ele>
        <time>2022-01-16T10:11:15Z</time>
      </trkpt>
      <trkpt lat="43.3779080" lon="-3.3207010">
        <ele>72.6</ele>
        <time>2022-01-16T10:11:16Z</time>
      </trkpt>
      <trkpt lat="43.3778410" lon="-3.3206620">
        <ele>72.6</ele>
        <time>2022-01-16T10:11:17Z</time>
      </trkpt>
      <trkpt lat="43.3777750" lon="-3.3206210">
        <ele>72.6</ele>
        <time>2022-01-16T10:11:18Z</time>
      </trkpt>
      <trkpt lat="43.3777080" lon="-3.3205800">
        <ele>72.6</ele>
        <time>2022-01-16T10:11:19Z</time>
      </trkpt>
      <trkpt lat="43.3776410" lon="-3.3205360">
        <ele>72.6</ele>
        <time>2022-01-16T10:11:20Z</time>
      </trkpt>
      <trkpt lat="43.3775740" lon="-3.3204920">
        <ele>72.6</ele>
        <time>2022-01-16T10:11:21Z</time>
      </trkpt>
      <trkpt lat="43.3775070" lon="-3.3204470">
        <ele>72.8</ele>
        <time>2022-01-16T10:11:22Z</time>
      </trkpt>
      <trkpt lat="43.3774400" lon="-3.3204020">
        <ele>72.8</ele>
        <time>2022-01-16T10:11:23Z</time>
      </trkpt>
      <trkpt lat="43.3773700" lon="-3.3203510">
        <ele>72.8</ele>
        <time>2022-01-16T10:11:24Z</time>
      </trkpt>
      <trkpt lat="43.3773040" lon="-3.3203070">
        <ele>72.8</ele>
        <time>2022-01-16T10:11:25Z</time>
      </trkpt>
      <trkpt lat="43.3772360" lon="-3.3202590">
        <ele>72.8</ele>
        <time>2022-01-16T10:11:26Z</time>
      </trkpt>
      <trkpt lat="43.3771680" lon="-3.3202140">
        <ele>73.0</ele>
        <time>2022-01-16T10:11:27Z</time>
      </trkpt>
      <trkpt lat="43.3770990" lon="-3.3201680">
        <ele>73.0</ele>
        <time>2022-01-16T10:11:28Z</time>
      </trkpt>
      <trkpt lat="43.3770310" lon="-3.3201230">
        <ele>73.2</ele>
        <time>2022-01-16T10:11:29Z</time>
      </trkpt>
      <trkpt lat="43.3769630" lon="-3.3200770">
        <ele>73.2</ele>
        <time>2022-01-16T10:11:30Z</time>
      </trkpt>
      <trkpt lat="43.3768950" lon="-3.3200310">
        <ele>73.2</ele>
        <time>2022-01-16T10:11:31Z</time>
      </trkpt>
      <trkpt lat="43.3768230" lon="-3.3199780">
        <ele>73.2</ele>
        <time>2022-01-16T10:11:32Z</time>
      </trkpt>
      <trkpt lat="43.3767520" lon="-3.3199300">
        <ele>73.2</ele>
        <time>2022-01-16T10:11:33Z</time>
      </trkpt>
      <trkpt lat="43.3766800" lon="-3.3198810">
        <ele>73.2</ele>
        <time>2022-01-16T10:11:34Z</time>
      </trkpt>
      <trkpt lat="43.3766080" lon="-3.3198310">
        <ele>73.2</ele>
        <time>2022-01-16T10:11:35Z</time>
      </trkpt>
      <trkpt lat="43.3765360" lon="-3.3197810">
        <ele>73.2</ele>
        <time>2022-01-16T10:11:36Z</time>
      </trkpt>
      <trkpt lat="43.3764640" lon="-3.3197290">
        <ele>73.0</ele>
        <time>2022-01-16T10:11:37Z</time>
      </trkpt>
      <trkpt lat="43.3763970" lon="-3.3196730">
        <ele>73.0</ele>
        <time>2022-01-16T10:11:38Z</time>
      </trkpt>
      <trkpt lat="43.3763320" lon="-3.3196080">
        <ele>73.0</ele>
        <time>2022-01-16T10:11:39Z</time>
      </trkpt>
      <trkpt lat="43.3762710" lon="-3.3195380">
        <ele>73.0</ele>
        <time>2022-01-16T10:11:40Z</time>
      </trkpt>
      <trkpt lat="43.3762140" lon="-3.3194600">
        <ele>72.6</ele>
        <time>2022-01-16T10:11:41Z</time>
      </trkpt>
      <trkpt lat="43.3761620" lon="-3.3193760">
        <ele>72.2</ele>
        <time>2022-01-16T10:11:42Z</time>
      </trkpt>
      <trkpt lat="43.3761120" lon="-3.3192870">
        <ele>72.2</ele>
        <time>2022-01-16T10:11:43Z</time>
      </trkpt>
      <trkpt lat="43.3760630" lon="-3.3191950">
        <ele>71.8</ele>
        <time>2022-01-16T10:11:44Z</time>
      </trkpt>
      <trkpt lat="43.3760140" lon="-3.3191020">
        <ele>71.8</ele>
        <time>2022-01-16T10:11:45Z</time>
      </trkpt>
      <trkpt lat="43.3759660" lon="-3.3190100">
        <ele>71.8</ele>
        <time>2022-01-16T10:11:46Z</time>
      </trkpt>
      <trkpt lat="43.3759140" lon="-3.3189170">
        <ele>71.6</ele>
        <time>2022-01-16T10:11:47Z</time>
      </trkpt>
      <trkpt lat="43.3758620" lon="-3.3188260">
        <ele>71.4</ele>
        <time>2022-01-16T10:11:48Z</time>
      </trkpt>
      <trkpt lat="43.3758040" lon="-3.3187390">
        <ele>71.4</ele>
        <time>2022-01-16T10:11:49Z</time>
      </trkpt>
      <trkpt lat="43.3757450" lon="-3.3186590">
        <ele>71.4</ele>
        <time>2022-01-16T10:11:50Z</time>
      </trkpt>
      <trkpt lat="43.3756870" lon="-3.3185840">
        <ele>71.2</ele>
        <time>2022-01-16T10:11:51Z</time>
      </trkpt>
      <trkpt lat="43.3756250" lon="-3.3185120">
        <ele>71.0</ele>
        <time>2022-01-16T10:11:52Z</time>
      </trkpt>
      <trkpt lat="43.3755610" lon="-3.3184410">
        <ele>71.0</ele>
        <time>2022-01-16T10:11:53Z</time>
      </trkpt>
      <trkpt lat="43.3755040" lon="-3.3183810">
        <ele>71.0</ele>
        <time>2022-01-16T10:11:54Z</time>
      </trkpt>
      <trkpt lat="43.3754470" lon="-3.3183320">
        <ele>70.8</ele>
        <time>2022-01-16T10:11:55Z</time>
      </trkpt>
      <trkpt lat="43.3753920" lon="-3.3182770">
        <ele>71.0</ele>
        <time>2022-01-16T10:11:56Z</time>
      </trkpt>
      <trkpt lat="43.3753410" lon="-3.3182240">
        <ele>71.2</ele>
        <time>2022-01-16T10:11:57Z</time>
      </trkpt>
      <trkpt lat="43.3752850" lon="-3.3181620">
        <ele>71.4</ele>
        <time>2022-01-16T10:11:58Z</time>
      </trkpt>
      <trkpt lat="43.3752320" lon="-3.3180990">
        <ele>71.6</ele>
        <time>2022-01-16T10:11:59Z</time>
      </trkpt>
      <trkpt lat="43.3751600" lon="-3.3180020">
        <ele>71.8</ele>
        <time>2022-01-16T10:12:00Z</time>
      </trkpt>
      <trkpt lat="43.3751090" lon="-3.3179200">
        <ele>72.0</ele>
        <time>2022-01-16T10:12:01Z</time>
      </trkpt>
      <trkpt lat="43.3750660" lon="-3.3178320">
        <ele>72.4</ele>
        <time>2022-01-16T10:12:02Z</time>
      </trkpt>
      <trkpt lat="43.3750290" lon="-3.3177380">
        <ele>72.6</ele>
        <time>2022-01-16T10:12:03Z</time>
      </trkpt>
      <trkpt lat="43.3749950" lon="-3.3176420">
        <ele>72.8</ele>
        <time>2022-01-16T10:12:04Z</time>
      </trkpt>
      <trkpt lat="43.3749670" lon="-3.3175410">
        <ele>72.8</ele>
        <time>2022-01-16T10:12:05Z</time>
      </trkpt>
      <trkpt lat="43.3749420" lon="-3.3174420">
        <ele>73.0</ele>
        <time>2022-01-16T10:12:06Z</time>
      </trkpt>
      <trkpt lat="43.3749170" lon="-3.3173480">
        <ele>73.2</ele>
        <time>2022-01-16T10:12:07Z</time>
      </trkpt>
      <trkpt lat="43.3748840" lon="-3.3172560">
        <ele>73.2</ele>
        <time>2022-01-16T10:12:08Z</time>
      </trkpt>
      <trkpt lat="43.3748460" lon="-3.3171590">
        <ele>73.2</ele>
        <time>2022-01-16T10:12:09Z</time>
      </trkpt>
      <trkpt lat="43.3748080" lon="-3.3170590">
        <ele>73.2</ele>
        <time>2022-01-16T10:12:10Z</time>
      </trkpt>
      <trkpt lat="43.3747670" lon="-3.3169620">
        <ele>73.2</ele>
        <time>2022-01-16T10:12:11Z</time>
      </trkpt>
      <trkpt lat="43.3747080" lon="-3.3168830">
        <ele>73.0</ele>
        <time>2022-01-16T10:12:12Z</time>
      </trkpt>
      <trkpt lat="43.3746410" lon="-3.3168180">
        <ele>72.8</ele>
        <time>2022-01-16T10:12:13Z</time>
      </trkpt>
      <trkpt lat="43.3745670" lon="-3.3167730">
        <ele>72.8</ele>
        <time>2022-01-16T10:12:14Z</time>
      </trkpt>
      <trkpt lat="43.3744920" lon="-3.3167350">
        <ele>72.6</ele>
        <time>2022-01-16T10:12:15Z</time>
      </trkpt>
      <trkpt lat="43.3744150" lon="-3.3167000">
        <ele>72.4</ele>
        <time>2022-01-16T10:12:16Z</time>
      </trkpt>
      <trkpt lat="43.3743380" lon="-3.3166660">
        <ele>72.4</ele>
        <time>2022-01-16T10:12:17Z</time>
      </trkpt>
      <trkpt lat="43.3742610" lon="-3.3166320">
        <ele>72.4</ele>
        <time>2022-01-16T10:12:18Z</time>
      </trkpt>
      <trkpt lat="43.3741800" lon="-3.3165940">
        <ele>72.2</ele>
        <time>2022-01-16T10:12:19Z</time>
      </trkpt>
      <trkpt lat="43.3740990" lon="-3.3165570">
        <ele>72.0</ele>
        <time>2022-01-16T10:12:20Z</time>
      </trkpt>
      <trkpt lat="43.3740160" lon="-3.3165210">
        <ele>71.8</ele>
        <time>2022-01-16T10:12:21Z</time>
      </trkpt>
      <trkpt lat="43.3739340" lon="-3.3164840">
        <ele>71.8</ele>
        <time>2022-01-16T10:12:22Z</time>
      </trkpt>
      <trkpt lat="43.3738520" lon="-3.3164510">
        <ele>71.6</ele>
        <time>2022-01-16T10:12:23Z</time>
      </trkpt>
      <trkpt lat="43.3737700" lon="-3.3164230">
        <ele>71.8</ele>
        <time>2022-01-16T10:12:24Z</time>
      </trkpt>
      <trkpt lat="43.3736900" lon="-3.3163930">
        <ele>72.0</ele>
        <time>2022-01-16T10:12:25Z</time>
      </trkpt>
      <trkpt lat="43.3736090" lon="-3.3163680">
        <ele>72.4</ele>
        <time>2022-01-16T10:12:26Z</time>
      </trkpt>
      <trkpt lat="43.3735240" lon="-3.3163430">
        <ele>72.6</ele>
        <time>2022-01-16T10:12:27Z</time>
      </trkpt>
      <trkpt lat="43.3734370" lon="-3.3163260">
        <ele>72.4</ele>
        <time>2022-01-16T10:12:28Z</time>
      </trkpt>
      <trkpt lat="43.3733490" lon="-3.3163180">
        <ele>72.2</ele>
        <time>2022-01-16T10:12:29Z</time>
      </trkpt>
      <trkpt lat="43.3732630" lon="-3.3163090">
        <ele>72.0</ele>
        <time>2022-01-16T10:12:30Z</time>
      </trkpt>
      <trkpt lat="43.3731770" lon="-3.3163060">
        <ele>72.0</ele>
        <time>2022-01-16T10:12:31Z</time>
      </trkpt>
      <trkpt lat="43.3730920" lon="-3.3163090">
        <ele>72.0</ele>
        <time>2022-01-16T10:12:32Z</time>
      </trkpt>
      <trkpt lat="43.3730060" lon="-3.3163090">
        <ele>72.0</ele>
        <time>2022-01-16T10:12:33Z</time>
      </trkpt>
      <trkpt lat="43.3729170" lon="-3.3163030">
        <ele>72.0</ele>
        <time>2022-01-16T10:12:34Z</time>
      </trkpt>
      <trkpt lat="43.3728270" lon="-3.3162960">
        <ele>72.0</ele>
        <time>2022-01-16T10:12:35Z</time>
      </trkpt>
      <trkpt lat="43.3727370" lon="-3.3162880">
        <ele>72.0</ele>
        <time>2022-01-16T10:12:36Z</time>
      </trkpt>
      <trkpt lat="43.3726450" lon="-3.3162820">
        <ele>71.8</ele>
        <time>2022-01-16T10:12:37Z</time>
      </trkpt>
      <trkpt lat="43.3725520" lon="-3.3162760">
        <ele>71.8</ele>
        <time>2022-01-16T10:12:38Z</time>
      </trkpt>
      <trkpt lat="43.3724580" lon="-3.3162720">
        <ele>71.8</ele>
        <time>2022-01-16T10:12:39Z</time>
      </trkpt>
      <trkpt lat="43.3723650" lon="-3.3162630">
        <ele>71.6</ele>
        <time>2022-01-16T10:12:40Z</time>
      </trkpt>
      <trkpt lat="43.3722740" lon="-3.3162550">
        <ele>71.6</ele>
        <time>2022-01-16T10:12:41Z</time>
      </trkpt>
      <trkpt lat="43.3721820" lon="-3.3162470">
        <ele>71.4</ele>
        <time>2022-01-16T10:12:42Z</time>
      </trkpt>
      <trkpt lat="43.3720920" lon="-3.3162380">
        <ele>71.4</ele>
        <time>2022-01-16T10:12:43Z</time>
      </trkpt>
      <trkpt lat="43.3720000" lon="-3.3162300">
        <ele>71.4</ele>
        <time>2022-01-16T10:12:44Z</time>
      </trkpt>
      <trkpt lat="43.3719070" lon="-3.3162250">
        <ele>71.4</ele>
        <time>2022-01-16T10:12:45Z</time>
      </trkpt>
      <trkpt lat="43.3718140" lon="-3.3162250">
        <ele>71.2</ele>
        <time>2022-01-16T10:12:46Z</time>
      </trkpt>
      <trkpt lat="43.3717200" lon="-3.3162370">
        <ele>71.2</ele>
        <time>2022-01-16T10:12:47Z</time>
      </trkpt>
      <trkpt lat="43.3716280" lon="-3.3162650">
        <ele>71.0</ele>
        <time>2022-01-16T10:12:48Z</time>
      </trkpt>
      <trkpt lat="43.3715390" lon="-3.3163110">
        <ele>71.0</ele>
        <time>2022-01-16T10:12:49Z</time>
      </trkpt>
      <trkpt lat="43.3714560" lon="-3.3163740">
        <ele>71.0</ele>
        <time>2022-01-16T10:12:50Z</time>
      </trkpt>
      <trkpt lat="43.3713800" lon="-3.3164460">
        <ele>71.0</ele>
        <time>2022-01-16T10:12:51Z</time>
      </trkpt>
      <trkpt lat="43.3713110" lon="-3.3165240">
        <ele>71.2</ele>
        <time>2022-01-16T10:12:52Z</time>
      </trkpt>
      <trkpt lat="43.3712470" lon="-3.3166100">
        <ele>71.4</ele>
        <time>2022-01-16T10:12:53Z</time>
      </trkpt>
      <trkpt lat="43.3711860" lon="-3.3167010">
        <ele>71.6</ele>
        <time>2022-01-16T10:12:54Z</time>
      </trkpt>
      <trkpt lat="43.3711250" lon="-3.3167920">
        <ele>71.6</ele>
        <time>2022-01-16T10:12:55Z</time>
      </trkpt>
      <trkpt lat="43.3710640" lon="-3.3168820">
        <ele>71.6</ele>
        <time>2022-01-16T10:12:56Z</time>
      </trkpt>
      <trkpt lat="43.3710010" lon="-3.3169660">
        <ele>71.6</ele>
        <time>2022-01-16T10:12:57Z</time>
      </trkpt>
      <trkpt lat="43.3709350" lon="-3.3170470">
        <ele>71.6</ele>
        <time>2022-01-16T10:12:58Z</time>
      </trkpt>
      <trkpt lat="43.3708670" lon="-3.3171230">
        <ele>71.6</ele>
        <time>2022-01-16T10:12:59Z</time>
      </trkpt>
      <trkpt lat="43.3707940" lon="-3.3171960">
        <ele>71.6</ele>
        <time>2022-01-16T10:13:00Z</time>
      </trkpt>
      <trkpt lat="43.3707200" lon="-3.3172640">
        <ele>71.6</ele>
        <time>2022-01-16T10:13:01Z</time>
      </trkpt>
      <trkpt lat="43.3706430" lon="-3.3173310">
        <ele>71.8</ele>
        <time>2022-01-16T10:13:02Z</time>
      </trkpt>
      <trkpt lat="43.3705650" lon="-3.3173910">
        <ele>71.8</ele>
        <time>2022-01-16T10:13:03Z</time>
      </trkpt>
      <trkpt lat="43.3704860" lon="-3.3174450">
        <ele>72.2</ele>
        <time>2022-01-16T10:13:04Z</time>
      </trkpt>
      <trkpt lat="43.3704070" lon="-3.3174950">
        <ele>72.2</ele>
        <time>2022-01-16T10:13:05Z</time>
      </trkpt>
      <trkpt lat="43.3703260" lon="-3.3175370">
        <ele>72.2</ele>
        <time>2022-01-16T10:13:06Z</time>
      </trkpt>
      <trkpt lat="43.3702470" lon="-3.3175780">
        <ele>72.2</ele>
        <time>2022-01-16T10:13:07Z</time>
      </trkpt>
      <trkpt lat="43.3701660" lon="-3.3176120">
        <ele>72.0</ele>
        <time>2022-01-16T10:13:08Z</time>
      </trkpt>
      <trkpt lat="43.3700840" lon="-3.3176400">
        <ele>72.0</ele>
        <time>2022-01-16T10:13:09Z</time>
      </trkpt>
      <trkpt lat="43.3700000" lon="-3.3176600">
        <ele>72.0</ele>
        <time>2022-01-16T10:13:10Z</time>
      </trkpt>
      <trkpt lat="43.3699170" lon="-3.3176760">
        <ele>71.8</ele>
        <time>2022-01-16T10:13:11Z</time>
      </trkpt>
      <trkpt lat="43.3698340" lon="-3.3176950">
        <ele>71.8</ele>
        <time>2022-01-16T10:13:12Z</time>
      </trkpt>
      <trkpt lat="43.3697520" lon="-3.3177100">
        <ele>71.8</ele>
        <time>2022-01-16T10:13:13Z</time>
      </trkpt>
      <trkpt lat="43.3696710" lon="-3.3177290">
        <ele>71.8</ele>
        <time>2022-01-16T10:13:14Z</time>
      </trkpt>
      <trkpt lat="43.3695880" lon="-3.3177440">
        <ele>71.6</ele>
        <time>2022-01-16T10:13:15Z</time>
      </trkpt>
      <trkpt lat="43.3695070" lon="-3.3177580">
        <ele>71.8</ele>
        <time>2022-01-16T10:13:16Z</time>
      </trkpt>
      <trkpt lat="43.3694240" lon="-3.3177710">
        <ele>71.8</ele>
        <time>2022-01-16T10:13:17Z</time>
      </trkpt>
      <trkpt lat="43.3693390" lon="-3.3177790">
        <ele>72.0</ele>
        <time>2022-01-16T10:13:18Z</time>
      </trkpt>
      <trkpt lat="43.3692560" lon="-3.3177860">
        <ele>72.0</ele>
        <time>2022-01-16T10:13:19Z</time>
      </trkpt>
      <trkpt lat="43.3691780" lon="-3.3177900">
        <ele>72.0</ele>
        <time>2022-01-16T10:13:20Z</time>
      </trkpt>
      <trkpt lat="43.3690940" lon="-3.3177970">
        <ele>72.0</ele>
        <time>2022-01-16T10:13:21Z</time>
      </trkpt>
      <trkpt lat="43.3690060" lon="-3.3178060">
        <ele>72.0</ele>
        <time>2022-01-16T10:13:22Z</time>
      </trkpt>
      <trkpt lat="43.3689190" lon="-3.3178160">
        <ele>72.2</ele>
        <time>2022-01-16T10:13:23Z</time>
      </trkpt>
      <trkpt lat="43.3688260" lon="-3.3178230">
        <ele>72.2</ele>
        <time>2022-01-16T10:13:24Z</time>
      </trkpt>
      <trkpt lat="43.3687320" lon="-3.3178310">
        <ele>72.2</ele>
        <time>2022-01-16T10:13:25Z</time>
      </trkpt>
      <trkpt lat="43.3686370" lon="-3.3178430">
        <ele>72.2</ele>
        <time>2022-01-16T10:13:26Z</time>
      </trkpt>
      <trkpt lat="43.3685440" lon="-3.3178630">
        <ele>72.2</ele>
        <time>2022-01-16T10:13:27Z</time>
      </trkpt>
      <trkpt lat="43.3684510" lon="-3.3178880">
        <ele>72.2</ele>
        <time>2022-01-16T10:13:28Z</time>
      </trkpt>
      <trkpt lat="43.3683610" lon="-3.3179160">
        <ele>72.2</ele>
        <time>2022-01-16T10:13:29Z</time>
      </trkpt>
      <trkpt lat="43.3682740" lon="-3.3179490">
        <ele>72.2</ele>
        <time>2022-01-16T10:13:30Z</time>
      </trkpt>
      <trkpt lat="43.3681890" lon="-3.3179860">
        <ele>72.2</ele>
        <time>2022-01-16T10:13:31Z</time>
      </trkpt>
      <trkpt lat="43.3681060" lon="-3.3180230">
        <ele>72.2</ele>
        <time>2022-01-16T10:13:32Z</time>
      </trkpt>
      <trkpt lat="43.3680230" lon="-3.3180610">
        <ele>72.2</ele>
        <time>2022-01-16T10:13:33Z</time>
      </trkpt>
      <trkpt lat="43.3679420" lon="-3.3180990">
        <ele>72.4</ele>
        <time>2022-01-16T10:13:34Z</time>
      </trkpt>
      <trkpt lat="43.3678630" lon="-3.3181360">
        <ele>72.6</ele>
        <time>2022-01-16T10:13:35Z</time>
      </trkpt>
      <trkpt lat="43.3677870" lon="-3.3181690">
        <ele>72.8</ele>
        <time>2022-01-16T10:13:36Z</time>
      </trkpt>
      <trkpt lat="43.3677080" lon="-3.3182010">
        <ele>73.0</ele>
        <time>2022-01-16T10:13:37Z</time>
      </trkpt>
      <trkpt lat="43.3676310" lon="-3.3182340">
        <ele>73.0</ele>
        <time>2022-01-16T10:13:38Z</time>
      </trkpt>
      <trkpt lat="43.3675570" lon="-3.3182620">
        <ele>73.0</ele>
        <time>2022-01-16T10:13:39Z</time>
      </trkpt>
      <trkpt lat="43.3674810" lon="-3.3182850">
        <ele>73.4</ele>
        <time>2022-01-16T10:13:40Z</time>
      </trkpt>
      <trkpt lat="43.3674040" lon="-3.3183020">
        <ele>73.8</ele>
        <time>2022-01-16T10:13:41Z</time>
      </trkpt>
      <trkpt lat="43.3673270" lon="-3.3183150">
        <ele>74.0</ele>
        <time>2022-01-16T10:13:42Z</time>
      </trkpt>
      <trkpt lat="43.3672500" lon="-3.3183260">
        <ele>74.2</ele>
        <time>2022-01-16T10:13:43Z</time>
      </trkpt>
      <trkpt lat="43.3671760" lon="-3.3183310">
        <ele>74.4</ele>
        <time>2022-01-16T10:13:44Z</time>
      </trkpt>
      <trkpt lat="43.3670960" lon="-3.3183280">
        <ele>74.8</ele>
        <time>2022-01-16T10:13:45Z</time>
      </trkpt>
      <trkpt lat="43.3670200" lon="-3.3183210">
        <ele>75.2</ele>
        <time>2022-01-16T10:13:46Z</time>
      </trkpt>
      <trkpt lat="43.3669450" lon="-3.3183120">
        <ele>75.4</ele>
        <time>2022-01-16T10:13:47Z</time>
      </trkpt>
      <trkpt lat="43.3668690" lon="-3.3182960">
        <ele>75.4</ele>
        <time>2022-01-16T10:13:48Z</time>
      </trkpt>
      <trkpt lat="43.3667920" lon="-3.3182710">
        <ele>75.6</ele>
        <time>2022-01-16T10:13:49Z</time>
      </trkpt>
      <trkpt lat="43.3667180" lon="-3.3182400">
        <ele>75.6</ele>
        <time>2022-01-16T10:13:50Z</time>
      </trkpt>
      <trkpt lat="43.3666430" lon="-3.3182020">
        <ele>75.8</ele>
        <time>2022-01-16T10:13:51Z</time>
      </trkpt>
      <trkpt lat="43.3665700" lon="-3.3181580">
        <ele>75.8</ele>
        <time>2022-01-16T10:13:52Z</time>
      </trkpt>
      <trkpt lat="43.3664980" lon="-3.3181100">
        <ele>76.0</ele>
        <time>2022-01-16T10:13:53Z</time>
      </trkpt>
      <trkpt lat="43.3664260" lon="-3.3180550">
        <ele>76.0</ele>
        <time>2022-01-16T10:13:54Z</time>
      </trkpt>
      <trkpt lat="43.3663570" lon="-3.3179910">
        <ele>76.2</ele>
        <time>2022-01-16T10:13:55Z</time>
      </trkpt>
      <trkpt lat="43.3662900" lon="-3.3179230">
        <ele>76.2</ele>
        <time>2022-01-16T10:13:56Z</time>
      </trkpt>
      <trkpt lat="43.3662230" lon="-3.3178500">
        <ele>76.2</ele>
        <time>2022-01-16T10:13:57Z</time>
      </trkpt>
      <trkpt lat="43.3661580" lon="-3.3177750">
        <ele>76.2</ele>
        <time>2022-01-16T10:13:58Z</time>
      </trkpt>
      <trkpt lat="43.3660940" lon="-3.3176970">
        <ele>76.2</ele>
        <time>2022-01-16T10:13:59Z</time>
      </trkpt>
      <trkpt lat="43.3660320" lon="-3.3176160">
        <ele>76.0</ele>
        <time>2022-01-16T10:14:00Z</time>
      </trkpt>
      <trkpt lat="43.3659700" lon="-3.3175320">
        <ele>76.0</ele>
        <time>2022-01-16T10:14:01Z</time>
      </trkpt>
      <trkpt lat="43.3659070" lon="-3.3174460">
        <ele>76.0</ele>
        <time>2022-01-16T10:14:02Z</time>
      </trkpt>
      <trkpt lat="43.3658440" lon="-3.3173570">
        <ele>75.8</ele>
        <time>2022-01-16T10:14:03Z</time>
      </trkpt>
      <trkpt lat="43.3657800" lon="-3.3172700">
        <ele>75.8</ele>
        <time>2022-01-16T10:14:04Z</time>
      </trkpt>
      <trkpt lat="43.3657150" lon="-3.3171860">
        <ele>75.6</ele>
        <time>2022-01-16T10:14:05Z</time>
      </trkpt>
      <trkpt lat="43.3656480" lon="-3.3171030">
        <ele>75.6</ele>
        <time>2022-01-16T10:14:06Z</time>
      </trkpt>
      <trkpt lat="43.3655800" lon="-3.3170240">
        <ele>75.2</ele>
        <time>2022-01-16T10:14:07Z</time>
      </trkpt>
      <trkpt lat="43.3655050" lon="-3.3169510">
        <ele>75.0</ele>
        <time>2022-01-16T10:14:08Z</time>
      </trkpt>
      <trkpt lat="43.3654280" lon="-3.3168860">
        <ele>75.0</ele>
        <time>2022-01-16T10:14:09Z</time>
      </trkpt>
      <trkpt lat="43.3653440" lon="-3.3168300">
        <ele>74.8</ele>
        <time>2022-01-16T10:14:10Z</time>
      </trkpt>
      <trkpt lat="43.3652560" lon="-3.3167860">
        <ele>74.4</ele>
        <time>2022-01-16T10:14:11Z</time>
      </trkpt>
      <trkpt lat="43.3651650" lon="-3.3167560">
        <ele>74.4</ele>
        <time>2022-01-16T10:14:12Z</time>
      </trkpt>
      <trkpt lat="43.3650720" lon="-3.3167390">
        <ele>74.2</ele>
        <time>2022-01-16T10:14:13Z</time>
      </trkpt>
      <trkpt lat="43.3649770" lon="-3.3167390">
        <ele>74.0</ele>
        <time>2022-01-16T10:14:14Z</time>
      </trkpt>
      <trkpt lat="43.3648830" lon="-3.3167500">
        <ele>73.6</ele>
        <time>2022-01-16T10:14:15Z</time>
      </trkpt>
      <trkpt lat="43.3647890" lon="-3.3167740">
        <ele>73.4</ele>
        <time>2022-01-16T10:14:16Z</time>
      </trkpt>
      <trkpt lat="43.3646990" lon="-3.3168130">
        <ele>73.4</ele>
        <time>2022-01-16T10:14:17Z</time>
      </trkpt>
      <trkpt lat="43.3646130" lon="-3.3168640">
        <ele>73.4</ele>
        <time>2022-01-16T10:14:18Z</time>
      </trkpt>
      <trkpt lat="43.3645320" lon="-3.3169240">
        <ele>73.8</ele>
        <time>2022-01-16T10:14:19Z</time>
      </trkpt>
      <trkpt lat="43.3644570" lon="-3.3169910">
        <ele>74.0</ele>
        <time>2022-01-16T10:14:20Z</time>
      </trkpt>
      <trkpt lat="43.3643830" lon="-3.3170620">
        <ele>74.2</ele>
        <time>2022-01-16T10:14:21Z</time>
      </trkpt>
      <trkpt lat="43.3643120" lon="-3.3171370">
        <ele>74.2</ele>
        <time>2022-01-16T10:14:22Z</time>
      </trkpt>
      <trkpt lat="43.3642410" lon="-3.3172130">
        <ele>74.2</ele>
        <time>2022-01-16T10:14:23Z</time>
      </trkpt>
      <trkpt lat="43.3641690" lon="-3.3172880">
        <ele>74.2</ele>
        <time>2022-01-16T10:14:24Z</time>
      </trkpt>
      <trkpt lat="43.3640980" lon="-3.3173640">
        <ele>74.2</ele>
        <time>2022-01-16T10:14:25Z</time>
      </trkpt>
      <trkpt lat="43.3640290" lon="-3.3174410">
        <ele>74.2</ele>
        <time>2022-01-16T10:14:26Z</time>
      </trkpt>
      <trkpt lat="43.3639600" lon="-3.3175170">
        <ele>74.2</ele>
        <time>2022-01-16T10:14:27Z</time>
      </trkpt>
      <trkpt lat="43.3638930" lon="-3.3175920">
        <ele>74.4</ele>
        <time>2022-01-16T10:14:28Z</time>
      </trkpt>
      <trkpt lat="43.3638260" lon="-3.3176650">
        <ele>74.6</ele>
        <time>2022-01-16T10:14:29Z</time>
      </trkpt>
      <trkpt lat="43.3637600" lon="-3.3177370">
        <ele>74.8</ele>
        <time>2022-01-16T10:14:30Z</time>
      </trkpt>
      <trkpt lat="43.3636960" lon="-3.3178090">
        <ele>75.2</ele>
        <time>2022-01-16T10:14:31Z</time>
      </trkpt>
      <trkpt lat="43.3636340" lon="-3.3178830">
        <ele>75.4</ele>
        <time>2022-01-16T10:14:32Z</time>
      </trkpt>
      <trkpt lat="43.3635750" lon="-3.3179590">
        <ele>75.6</ele>
        <time>2022-01-16T10:14:33Z</time>
      </trkpt>
      <trkpt lat="43.3635210" lon="-3.3180400">
        <ele>75.6</ele>
        <time>2022-01-16T10:14:34Z</time>
      </trkpt>
      <trkpt lat="43.3634740" lon="-3.3181350">
        <ele>75.6</ele>
        <time>2022-01-16T10:14:35Z</time>
      </trkpt>
      <trkpt lat="43.3634350" lon="-3.3182350">
        <ele>75.6</ele>
        <time>2022-01-16T10:14:36Z</time>
      </trkpt>
      <trkpt lat="43.3634010" lon="-3.3183380">
        <ele>75.8</ele>
        <time>2022-01-16T10:14:37Z</time>
      </trkpt>
      <trkpt lat="43.3633740" lon="-3.3184410">
        <ele>75.8</ele>
        <time>2022-01-16T10:14:38Z</time>
      </trkpt>
      <trkpt lat="43.3633520" lon="-3.3185470">
        <ele>76.0</ele>
        <time>2022-01-16T10:14:39Z</time>
      </trkpt>
      <trkpt lat="43.3633370" lon="-3.3186600">
        <ele>76.0</ele>
        <time>2022-01-16T10:14:40Z</time>
      </trkpt>
      <trkpt lat="43.3633230" lon="-3.3187770">
        <ele>76.2</ele>
        <time>2022-01-16T10:14:41Z</time>
      </trkpt>
      <trkpt lat="43.3633110" lon="-3.3188940">
        <ele>76.2</ele>
        <time>2022-01-16T10:14:42Z</time>
      </trkpt>
      <trkpt lat="43.3632990" lon="-3.3190120">
        <ele>76.2</ele>
        <time>2022-01-16T10:14:43Z</time>
      </trkpt>
      <trkpt lat="43.3632900" lon="-3.3191320">
        <ele>76.2</ele>
        <time>2022-01-16T10:14:44Z</time>
      </trkpt>
      <trkpt lat="43.3632770" lon="-3.3192580">
        <ele>76.2</ele>
        <time>2022-01-16T10:14:45Z</time>
      </trkpt>
      <trkpt lat="43.3632660" lon="-3.3193780">
        <ele>76.6</ele>
        <time>2022-01-16T10:14:46Z</time>
      </trkpt>
      <trkpt lat="43.3632510" lon="-3.3195010">
        <ele>76.8</ele>
        <time>2022-01-16T10:14:47Z</time>
      </trkpt>
      <trkpt lat="43.3632410" lon="-3.3196230">
        <ele>76.8</ele>
        <time>2022-01-16T10:14:48Z</time>
      </trkpt>
      <trkpt lat="43.3632320" lon="-3.3197430">
        <ele>77.0</ele>
        <time>2022-01-16T10:14:49Z</time>
      </trkpt>
      <trkpt lat="43.3632250" lon="-3.3198650">
        <ele>76.8</ele>
        <time>2022-01-16T10:14:50Z</time>
      </trkpt>
      <trkpt lat="43.3632170" lon="-3.3199890">
        <ele>76.8</ele>
        <time>2022-01-16T10:14:51Z</time>
      </trkpt>
      <trkpt lat="43.3632120" lon="-3.3201160">
        <ele>76.8</ele>
        <time>2022-01-16T10:14:52Z</time>
      </trkpt>
      <trkpt lat="43.3632010" lon="-3.3202460">
        <ele>76.6</ele>
        <time>2022-01-16T10:14:53Z</time>
      </trkpt>
      <trkpt lat="43.3631900" lon="-3.3203760">
        <ele>76.6</ele>
        <time>2022-01-16T10:14:54Z</time>
      </trkpt>
      <trkpt lat="43.3631770" lon="-3.3205070">
        <ele>76.4</ele>
        <time>2022-01-16T10:14:55Z</time>
      </trkpt>
      <trkpt lat="43.3631580" lon="-3.3206330">
        <ele>76.2</ele>
        <time>2022-01-16T10:14:56Z</time>
      </trkpt>
      <trkpt lat="43.3631340" lon="-3.3207570">
        <ele>76.2</ele>
        <time>2022-01-16T10:14:57Z</time>
      </trkpt>
      <trkpt lat="43.3631020" lon="-3.3208750">
        <ele>76.2</ele>
        <time>2022-01-16T10:14:58Z</time>
      </trkpt>
      <trkpt lat="43.3630630" lon="-3.3209760">
        <ele>76.0</ele>
        <time>2022-01-16T10:14:59Z</time>
      </trkpt>
      <trkpt lat="43.3630110" lon="-3.3210790">
        <ele>76.0</ele>
        <time>2022-01-16T10:15:00Z</time>
      </trkpt>
      <trkpt lat="43.3629460" lon="-3.3211730">
        <ele>76.0</ele>
        <time>2022-01-16T10:15:01Z</time>
      </trkpt>
      <trkpt lat="43.3628720" lon="-3.3212520">
        <ele>75.8</ele>
        <time>2022-01-16T10:15:02Z</time>
      </trkpt>
      <trkpt lat="43.3627940" lon="-3.3213220">
        <ele>75.8</ele>
        <time>2022-01-16T10:15:03Z</time>
      </trkpt>
      <trkpt lat="43.3627130" lon="-3.3213860">
        <ele>75.8</ele>
        <time>2022-01-16T10:15:04Z</time>
      </trkpt>
      <trkpt lat="43.3626310" lon="-3.3214490">
        <ele>75.8</ele>
        <time>2022-01-16T10:15:05Z</time>
      </trkpt>
      <trkpt lat="43.3625490" lon="-3.3215110">
        <ele>75.6</ele>
        <time>2022-01-16T10:15:06Z</time>
      </trkpt>
      <trkpt lat="43.3624680" lon="-3.3215720">
        <ele>75.6</ele>
        <time>2022-01-16T10:15:07Z</time>
      </trkpt>
      <trkpt lat="43.3623870" lon="-3.3216330">
        <ele>75.6</ele>
        <time>2022-01-16T10:15:08Z</time>
      </trkpt>
      <trkpt lat="43.3623060" lon="-3.3216950">
        <ele>75.6</ele>
        <time>2022-01-16T10:15:09Z</time>
      </trkpt>
      <trkpt lat="43.3622260" lon="-3.3217580">
        <ele>75.8</ele>
        <time>2022-01-16T10:15:10Z</time>
      </trkpt>
      <trkpt lat="43.3621460" lon="-3.3218220">
        <ele>75.8</ele>
        <time>2022-01-16T10:15:11Z</time>
      </trkpt>
      <trkpt lat="43.3620650" lon="-3.3218840">
        <ele>75.8</ele>
        <time>2022-01-16T10:15:12Z</time>
      </trkpt>
      <trkpt lat="43.3619820" lon="-3.3219460">
        <ele>75.8</ele>
        <time>2022-01-16T10:15:13Z</time>
      </trkpt>
      <trkpt lat="43.3619020" lon="-3.3220070">
        <ele>75.8</ele>
        <time>2022-01-16T10:15:14Z</time>
      </trkpt>
      <trkpt lat="43.3618210" lon="-3.3220680">
        <ele>75.8</ele>
        <time>2022-01-16T10:15:15Z</time>
      </trkpt>
      <trkpt lat="43.3617400" lon="-3.3221290">
        <ele>75.8</ele>
        <time>2022-01-16T10:15:16Z</time>
      </trkpt>
      <trkpt lat="43.3616580" lon="-3.3221900">
        <ele>75.8</ele>
        <time>2022-01-16T10:15:17Z</time>
      </trkpt>
      <trkpt lat="43.3615770" lon="-3.3222530">
        <ele>75.8</ele>
        <time>2022-01-16T10:15:18Z</time>
      </trkpt>
      <trkpt lat="43.3614950" lon="-3.3223150">
        <ele>75.8</ele>
        <time>2022-01-16T10:15:19Z</time>
      </trkpt>
      <trkpt lat="43.3614130" lon="-3.3223780">
        <ele>75.8</ele>
        <time>2022-01-16T10:15:20Z</time>
      </trkpt>
      <trkpt lat="43.3613320" lon="-3.3224390">
        <ele>75.8</ele>
        <time>2022-01-16T10:15:21Z</time>
      </trkpt>
      <trkpt lat="43.3612500" lon="-3.3224990">
        <ele>75.8</ele>
        <time>2022-01-16T10:15:22Z</time>
      </trkpt>
      <trkpt lat="43.3611690" lon="-3.3225590">
        <ele>75.8</ele>
        <time>2022-01-16T10:15:23Z</time>
      </trkpt>
      <trkpt lat="43.3610880" lon="-3.3226180">
        <ele>75.8</ele>
        <time>2022-01-16T10:15:24Z</time>
      </trkpt>
      <trkpt lat="43.3610080" lon="-3.3226760">
        <ele>76.0</ele>
        <time>2022-01-16T10:15:25Z</time>
      </trkpt>
      <trkpt lat="43.3609280" lon="-3.3227330">
        <ele>76.2</ele>
        <time>2022-01-16T10:15:26Z</time>
      </trkpt>
      <trkpt lat="43.3608500" lon="-3.3227870">
        <ele>76.4</ele>
        <time>2022-01-16T10:15:27Z</time>
      </trkpt>
      <trkpt lat="43.3607730" lon="-3.3228390">
        <ele>76.6</ele>
        <time>2022-01-16T10:15:28Z</time>
      </trkpt>
      <trkpt lat="43.3606960" lon="-3.3228890">
        <ele>76.8</ele>
        <time>2022-01-16T10:15:29Z</time>
      </trkpt>
      <trkpt lat="43.3606210" lon="-3.3229380">
        <ele>77.0</ele>
        <time>2022-01-16T10:15:30Z</time>
      </trkpt>
      <trkpt lat="43.3605460" lon="-3.3229850">
        <ele>77.4</ele>
        <time>2022-01-16T10:15:31Z</time>
      </trkpt>
      <trkpt lat="43.3604710" lon="-3.3230340">
        <ele>77.8</ele>
        <time>2022-01-16T10:15:32Z</time>
      </trkpt>
      <trkpt lat="43.3603970" lon="-3.3230840">
        <ele>78.0</ele>
        <time>2022-01-16T10:15:33Z</time>
      </trkpt>
      <trkpt lat="43.3603250" lon="-3.3231380">
        <ele>78.2</ele>
        <time>2022-01-16T10:15:34Z</time>
      </trkpt>
      <trkpt lat="43.3602570" lon="-3.3231980">
        <ele>78.4</ele>
        <time>2022-01-16T10:15:35Z</time>
      </trkpt>
      <trkpt lat="43.3601910" lon="-3.3232620">
        <ele>78.6</ele>
        <time>2022-01-16T10:15:36Z</time>
      </trkpt>
      <trkpt lat="43.3601280" lon="-3.3233280">
        <ele>78.8</ele>
        <time>2022-01-16T10:15:37Z</time>
      </trkpt>
      <trkpt lat="43.3600670" lon="-3.3233980">
        <ele>79.0</ele>
        <time>2022-01-16T10:15:38Z</time>
      </trkpt>
      <trkpt lat="43.3600090" lon="-3.3234720">
        <ele>79.4</ele>
        <time>2022-01-16T10:15:39Z</time>
      </trkpt>
      <trkpt lat="43.3599550" lon="-3.3235480">
        <ele>79.6</ele>
        <time>2022-01-16T10:15:40Z</time>
      </trkpt>
      <trkpt lat="43.3599020" lon="-3.3236250">
        <ele>80.0</ele>
        <time>2022-01-16T10:15:41Z</time>
      </trkpt>
      <trkpt lat="43.3598470" lon="-3.3237000">
        <ele>80.2</ele>
        <time>2022-01-16T10:15:42Z</time>
      </trkpt>
      <trkpt lat="43.3597900" lon="-3.3237730">
        <ele>80.4</ele>
        <time>2022-01-16T10:15:43Z</time>
      </trkpt>
      <trkpt lat="43.3597370" lon="-3.3238430">
        <ele>80.8</ele>
        <time>2022-01-16T10:15:44Z</time>
      </trkpt>
      <trkpt lat="43.3596740" lon="-3.3239120">
        <ele>81.0</ele>
        <time>2022-01-16T10:15:45Z</time>
      </trkpt>
      <trkpt lat="43.3596150" lon="-3.3239740">
        <ele>81.2</ele>
        <time>2022-01-16T10:15:46Z</time>
      </trkpt>
      <trkpt lat="43.3595540" lon="-3.3240330">
        <ele>81.6</ele>
        <time>2022-01-16T10:15:47Z</time>
      </trkpt>
      <trkpt lat="43.3594880" lon="-3.3240880">
        <ele>81.8</ele>
        <time>2022-01-16T10:15:48Z</time>
      </trkpt>
      <trkpt lat="43.3594190" lon="-3.3241460">
        <ele>81.8</ele>
        <time>2022-01-16T10:15:49Z</time>
      </trkpt>
      <trkpt lat="43.3593510" lon="-3.3242020">
        <ele>82.0</ele>
        <time>2022-01-16T10:15:50Z</time>
      </trkpt>
      <trkpt lat="43.3592850" lon="-3.3242530">
        <ele>82.0</ele>
        <time>2022-01-16T10:15:51Z</time>
      </trkpt>
      <trkpt lat="43.3592160" lon="-3.3243010">
        <ele>81.8</ele>
        <time>2022-01-16T10:15:52Z</time>
      </trkpt>
      <trkpt lat="43.3591450" lon="-3.3243480">
        <ele>81.6</ele>
        <time>2022-01-16T10:15:53Z</time>
      </trkpt>
      <trkpt lat="43.3590750" lon="-3.3243930">
        <ele>81.4</ele>
        <time>2022-01-16T10:15:54Z</time>
      </trkpt>
      <trkpt lat="43.3590090" lon="-3.3244380">
        <ele>81.2</ele>
        <time>2022-01-16T10:15:55Z</time>
      </trkpt>
      <trkpt lat="43.3589380" lon="-3.3244850">
        <ele>80.8</ele>
        <time>2022-01-16T10:15:56Z</time>
      </trkpt>
      <trkpt lat="43.3588650" lon="-3.3245330">
        <ele>80.6</ele>
        <time>2022-01-16T10:15:57Z</time>
      </trkpt>
      <trkpt lat="43.3587880" lon="-3.3245830">
        <ele>80.4</ele>
        <time>2022-01-16T10:15:58Z</time>
      </trkpt>
      <trkpt lat="43.3587000" lon="-3.3246200">
        <ele>80.2</ele>
        <time>2022-01-16T10:15:59Z</time>
      </trkpt>
      <trkpt lat="43.3586110" lon="-3.3246540">
        <ele>80.0</ele>
        <time>2022-01-16T10:16:00Z</time>
      </trkpt>
      <trkpt lat="43.3585050" lon="-3.3246650">
        <ele>79.8</ele>
        <time>2022-01-16T10:16:01Z</time>
      </trkpt>
      <trkpt lat="43.3584060" lon="-3.3246880">
        <ele>79.4</ele>
        <time>2022-01-16T10:16:02Z</time>
      </trkpt>
      <trkpt lat="43.3583030" lon="-3.3246990">
        <ele>79.2</ele>
        <time>2022-01-16T10:16:03Z</time>
      </trkpt>
      <trkpt lat="43.3581930" lon="-3.3247050">
        <ele>78.8</ele>
        <time>2022-01-16T10:16:04Z</time>
      </trkpt>
      <trkpt lat="43.3580840" lon="-3.3247220">
        <ele>78.6</ele>
        <time>2022-01-16T10:16:05Z</time>
      </trkpt>
      <trkpt lat="43.3579780" lon="-3.3247410">
        <ele>78.4</ele>
        <time>2022-01-16T10:16:06Z</time>
      </trkpt>
      <trkpt lat="43.3578730" lon="-3.3247630">
        <ele>78.2</ele>
        <time>2022-01-16T10:16:07Z</time>
      </trkpt>
      <trkpt lat="43.3577660" lon="-3.3247870">
        <ele>78.0</ele>
        <time>2022-01-16T10:16:08Z</time>
      </trkpt>
      <trkpt lat="43.3576600" lon="-3.3248150">
        <ele>77.8</ele>
        <time>2022-01-16T10:16:09Z</time>
      </trkpt>
      <trkpt lat="43.3575550" lon="-3.3248430">
        <ele>77.6</ele>
        <time>2022-01-16T10:16:10Z</time>
      </trkpt>
      <trkpt lat="43.3574470" lon="-3.3248710">
        <ele>77.4</ele>
        <time>2022-01-16T10:16:11Z</time>
      </trkpt>
      <trkpt lat="43.3573410" lon="-3.3249000">
        <ele>77.4</ele>
        <time>2022-01-16T10:16:12Z</time>
      </trkpt>
      <trkpt lat="43.3572350" lon="-3.3249330">
        <ele>77.2</ele>
        <time>2022-01-16T10:16:13Z</time>
      </trkpt>
      <trkpt lat="43.3571340" lon="-3.3249630">
        <ele>77.0</ele>
        <time>2022-01-16T10:16:14Z</time>
      </trkpt>
      <trkpt lat="43.3570340" lon="-3.3249950">
        <ele>76.6</ele>
        <time>2022-01-16T10:16:15Z</time>
      </trkpt>
      <trkpt lat="43.3569340" lon="-3.3250250">
        <ele>76.4</ele>
        <time>2022-01-16T10:16:16Z</time>
      </trkpt>
      <trkpt lat="43.3568360" lon="-3.3250540">
        <ele>76.2</ele>
        <time>2022-01-16T10:16:17Z</time>
      </trkpt>
      <trkpt lat="43.3567380" lon="-3.3250820">
        <ele>76.2</ele>
        <time>2022-01-16T10:16:18Z</time>
      </trkpt>
      <trkpt lat="43.3566420" lon="-3.3251100">
        <ele>76.2</ele>
        <time>2022-01-16T10:16:19Z</time>
      </trkpt>
      <trkpt lat="43.3565470" lon="-3.3251390">
        <ele>76.2</ele>
        <time>2022-01-16T10:16:20Z</time>
      </trkpt>
      <trkpt lat="43.3564530" lon="-3.3251660">
        <ele>76.4</ele>
        <time>2022-01-16T10:16:21Z</time>
      </trkpt>
      <trkpt lat="43.3563610" lon="-3.3251930">
        <ele>76.4</ele>
        <time>2022-01-16T10:16:22Z</time>
      </trkpt>
      <trkpt lat="43.3562700" lon="-3.3252220">
        <ele>76.4</ele>
        <time>2022-01-16T10:16:23Z</time>
      </trkpt>
      <trkpt lat="43.3561810" lon="-3.3252510">
        <ele>76.4</ele>
        <time>2022-01-16T10:16:24Z</time>
      </trkpt>
      <trkpt lat="43.3560920" lon="-3.3252800">
        <ele>76.4</ele>
        <time>2022-01-16T10:16:25Z</time>
      </trkpt>
      <trkpt lat="43.3560020" lon="-3.3253050">
        <ele>76.6</ele>
        <time>2022-01-16T10:16:26Z</time>
      </trkpt>
      <trkpt lat="43.3559130" lon="-3.3253310">
        <ele>76.6</ele>
        <time>2022-01-16T10:16:27Z</time>
      </trkpt>
      <trkpt lat="43.3558240" lon="-3.3253570">
        <ele>76.6</ele>
        <time>2022-01-16T10:16:28Z</time>
      </trkpt>
      <trkpt lat="43.3557370" lon="-3.3253840">
        <ele>76.8</ele>
        <time>2022-01-16T10:16:29Z</time>
      </trkpt>
      <trkpt lat="43.3556490" lon="-3.3254110">
        <ele>77.0</ele>
        <time>2022-01-16T10:16:30Z</time>
      </trkpt>
      <trkpt lat="43.3555620" lon="-3.3254390">
        <ele>77.2</ele>
        <time>2022-01-16T10:16:31Z</time>
      </trkpt>
      <trkpt lat="43.3554750" lon="-3.3254650">
        <ele>77.4</ele>
        <time>2022-01-16T10:16:32Z</time>
      </trkpt>
      <trkpt lat="43.3553880" lon="-3.3254910">
        <ele>77.4</ele>
        <time>2022-01-16T10:16:33Z</time>
      </trkpt>
      <trkpt lat="43.3553020" lon="-3.3255160">
        <ele>77.4</ele>
        <time>2022-01-16T10:16:34Z</time>
      </trkpt>
      <trkpt lat="43.3552150" lon="-3.3255400">
        <ele>77.4</ele>
        <time>2022-01-16T10:16:35Z</time>
      </trkpt>
      <trkpt lat="43.3551300" lon="-3.3255660">
        <ele>77.4</ele>
        <time>2022-01-16T10:16:36Z</time>
      </trkpt>
      <trkpt lat="43.3550450" lon="-3.3255950">
        <ele>77.6</ele>
        <time>2022-01-16T10:16:37Z</time>
      </trkpt>
      <trkpt lat="43.3549610" lon="-3.3256280">
        <ele>77.8</ele>
        <time>2022-01-16T10:16:38Z</time>
      </trkpt>
      <trkpt lat="43.3548790" lon="-3.3256720">
        <ele>77.8</ele>
        <time>2022-01-16T10:16:39Z</time>
      </trkpt>
      <trkpt lat="43.3548010" lon="-3.3257280">
        <ele>78.0</ele>
        <time>2022-01-16T10:16:40Z</time>
      </trkpt>
      <trkpt lat="43.3547260" lon="-3.3257910">
        <ele>78.2</ele>
        <time>2022-01-16T10:16:41Z</time>
      </trkpt>
      <trkpt lat="43.3546550" lon="-3.3258600">
        <ele>78.2</ele>
        <time>2022-01-16T10:16:42Z</time>
      </trkpt>
      <trkpt lat="43.3545820" lon="-3.3259190">
        <ele>78.2</ele>
        <time>2022-01-16T10:16:43Z</time>
      </trkpt>
      <trkpt lat="43.3545020" lon="-3.3259530">
        <ele>78.4</ele>
        <time>2022-01-16T10:16:44Z</time>
      </trkpt>
      <trkpt lat="43.3544170" lon="-3.3259550">
        <ele>78.4</ele>
        <time>2022-01-16T10:16:45Z</time>
      </trkpt>
      <trkpt lat="43.3543320" lon="-3.3259370">
        <ele>78.4</ele>
        <time>2022-01-16T10:16:46Z</time>
      </trkpt>
      <trkpt lat="43.3542450" lon="-3.3259160">
        <ele>78.4</ele>
        <time>2022-01-16T10:16:47Z</time>
      </trkpt>
      <trkpt lat="43.3541580" lon="-3.3259070">
        <ele>78.4</ele>
        <time>2022-01-16T10:16:48Z</time>
      </trkpt>
      <trkpt lat="43.3540700" lon="-3.3259090">
        <ele>78.4</ele>
        <time>2022-01-16T10:16:49Z</time>
      </trkpt>
      <trkpt lat="43.3539820" lon="-3.3259270">
        <ele>78.4</ele>
        <time>2022-01-16T10:16:50Z</time>
      </trkpt>
      <trkpt lat="43.3538950" lon="-3.3259530">
        <ele>78.4</ele>
        <time>2022-01-16T10:16:51Z</time>
      </trkpt>
      <trkpt lat="43.3538080" lon="-3.3259820">
        <ele>78.8</ele>
        <time>2022-01-16T10:16:52Z</time>
      </trkpt>
      <trkpt lat="43.3537210" lon="-3.3260110">
        <ele>79.0</ele>
        <time>2022-01-16T10:16:53Z</time>
      </trkpt>
      <trkpt lat="43.3536340" lon="-3.3260380">
        <ele>79.0</ele>
        <time>2022-01-16T10:16:54Z</time>
      </trkpt>
      <trkpt lat="43.3535480" lon="-3.3260660">
        <ele>79.2</ele>
        <time>2022-01-16T10:16:55Z</time>
      </trkpt>
      <trkpt lat="43.3534630" lon="-3.3260930">
        <ele>79.2</ele>
        <time>2022-01-16T10:16:56Z</time>
      </trkpt>
      <trkpt lat="43.3533780" lon="-3.3261200">
        <ele>79.2</ele>
        <time>2022-01-16T10:16:57Z</time>
      </trkpt>
      <trkpt lat="43.3532930" lon="-3.3261480">
        <ele>79.4</ele>
        <time>2022-01-16T10:16:58Z</time>
      </trkpt>
      <trkpt lat="43.3532060" lon="-3.3261740">
        <ele>79.4</ele>
        <time>2022-01-16T10:16:59Z</time>
      </trkpt>
      <trkpt lat="43.3531210" lon="-3.3261990">
        <ele>79.6</ele>
        <time>2022-01-16T10:17:00Z</time>
      </trkpt>
      <trkpt lat="43.3530370" lon="-3.3262250">
        <ele>79.6</ele>
        <time>2022-01-16T10:17:01Z</time>
      </trkpt>
      <trkpt lat="43.3529530" lon="-3.3262500">
        <ele>79.6</ele>
        <time>2022-01-16T10:17:02Z</time>
      </trkpt>
      <trkpt lat="43.3528700" lon="-3.3262750">
        <ele>79.8</ele>
        <time>2022-01-16T10:17:03Z</time>
      </trkpt>
      <trkpt lat="43.3527880" lon="-3.3263020">
        <ele>79.8</ele>
        <time>2022-01-16T10:17:04Z</time>
      </trkpt>
      <trkpt lat="43.3527090" lon="-3.3263340">
        <ele>80.0</ele>
        <time>2022-01-16T10:17:05Z</time>
      </trkpt>
      <trkpt lat="43.3526280" lon="-3.3263640">
        <ele>80.0</ele>
        <time>2022-01-16T10:17:06Z</time>
      </trkpt>
      <trkpt lat="43.3525490" lon="-3.3263940">
        <ele>80.2</ele>
        <time>2022-01-16T10:17:07Z</time>
      </trkpt>
      <trkpt lat="43.3524690" lon="-3.3264230">
        <ele>80.2</ele>
        <time>2022-01-16T10:17:08Z</time>
      </trkpt>
      <trkpt lat="43.3523900" lon="-3.3264520">
        <ele>80.2</ele>
        <time>2022-01-16T10:17:09Z</time>
      </trkpt>
      <trkpt lat="43.3523110" lon="-3.3264800">
        <ele>80.2</ele>
        <time>2022-01-16T10:17:10Z</time>
      </trkpt>
      <trkpt lat="43.3522340" lon="-3.3265060">
        <ele>80.4</ele>
        <time>2022-01-16T10:17:11Z</time>
      </trkpt>
      <trkpt lat="43.3521550" lon="-3.3265290">
        <ele>80.6</ele>
        <time>2022-01-16T10:17:12Z</time>
      </trkpt>
      <trkpt lat="43.3520800" lon="-3.3265520">
        <ele>80.6</ele>
        <time>2022-01-16T10:17:13Z</time>
      </trkpt>
      <trkpt lat="43.3520080" lon="-3.3265720">
        <ele>80.8</ele>
        <time>2022-01-16T10:17:14Z</time>
      </trkpt>
      <trkpt lat="43.3519400" lon="-3.3265920">
        <ele>80.8</ele>
        <time>2022-01-16T10:17:15Z</time>
      </trkpt>
      <trkpt lat="43.3518750" lon="-3.3266130">
        <ele>81.0</ele>
        <time>2022-01-16T10:17:16Z</time>
      </trkpt>
      <trkpt lat="43.3518120" lon="-3.3266330">
        <ele>81.2</ele>
        <time>2022-01-16T10:17:17Z</time>
      </trkpt>
      <trkpt lat="43.3517510" lon="-3.3266540">
        <ele>81.2</ele>
        <time>2022-01-16T10:17:18Z</time>
      </trkpt>
      <trkpt lat="43.3516900" lon="-3.3266740">
        <ele>81.4</ele>
        <time>2022-01-16T10:17:19Z</time>
      </trkpt>
      <trkpt lat="43.3516270" lon="-3.3266970">
        <ele>81.4</ele>
        <time>2022-01-16T10:17:20Z</time>
      </trkpt>
      <trkpt lat="43.3515630" lon="-3.3267190">
        <ele>81.6</ele>
        <time>2022-01-16T10:17:21Z</time>
      </trkpt>
      <trkpt lat="43.3515000" lon="-3.3267380">
        <ele>81.8</ele>
        <time>2022-01-16T10:17:22Z</time>
      </trkpt>
      <trkpt lat="43.3514370" lon="-3.3267570">
        <ele>81.8</ele>
        <time>2022-01-16T10:17:23Z</time>
      </trkpt>
      <trkpt lat="43.3513770" lon="-3.3267750">
        <ele>82.0</ele>
        <time>2022-01-16T10:17:24Z</time>
      </trkpt>
      <trkpt lat="43.3513200" lon="-3.3267910">
        <ele>82.0</ele>
        <time>2022-01-16T10:17:25Z</time>
      </trkpt>
      <trkpt lat="43.3512670" lon="-3.3268080">
        <ele>82.0</ele>
        <time>2022-01-16T10:17:26Z</time>
      </trkpt>
      <trkpt lat="43.3512210" lon="-3.3268270">
        <ele>82.2</ele>
        <time>2022-01-16T10:17:27Z</time>
      </trkpt>
      <trkpt lat="43.3511850" lon="-3.3268420">
        <ele>82.2</ele>
        <time>2022-01-16T10:17:28Z</time>
      </trkpt>
      <trkpt lat="43.3511570" lon="-3.3268520">
        <ele>82.2</ele>
        <time>2022-01-16T10:17:29Z</time>
      </trkpt>
      <trkpt lat="43.3511330" lon="-3.3268590">
        <ele>82.4</ele>
        <time>2022-01-16T10:17:30Z</time>
      </trkpt>
      <trkpt lat="43.3511100" lon="-3.3268640">
        <ele>82.4</ele>
        <time>2022-01-16T10:17:31Z</time>
      </trkpt>
      <trkpt lat="43.3510860" lon="-3.3268590">
        <ele>82.4</ele>
        <time>2022-01-16T10:17:32Z</time>
      </trkpt>
      <trkpt lat="43.3510680" lon="-3.3268390">
        <ele>82.4</ele>
        <time>2022-01-16T10:17:33Z</time>
      </trkpt>
      <trkpt lat="43.3510650" lon="-3.3268160">
        <ele>82.4</ele>
        <time>2022-01-16T10:17:34Z</time>
      </trkpt>
      <trkpt lat="43.3510680" lon="-3.3267950">
        <ele>82.4</ele>
        <time>2022-01-16T10:17:35Z</time>
      </trkpt>
      <trkpt lat="43.3510730" lon="-3.3267830">
        <ele>82.4</ele>
        <time>2022-01-16T10:17:36Z</time>
      </trkpt>
      <trkpt lat="43.3510780" lon="-3.3267760">
        <ele>82.4</ele>
        <time>2022-01-16T10:17:37Z</time>
      </trkpt>
      <trkpt lat="43.3510800" lon="-3.3267730">
        <ele>82.2</ele>
        <time>2022-01-16T10:17:38Z</time>
      </trkpt>
      <trkpt lat="43.3511820" lon="-3.3268150">
        <ele>82.2</ele>
        <time>2022-01-16T10:22:58Z</time>
      </trkpt>
      <trkpt lat="43.3511670" lon="-3.3268100">
        <ele>82.0</ele>
        <time>2022-01-16T10:22:59Z</time>
      </trkpt>
      <trkpt lat="43.3511530" lon="-3.3268010">
        <ele>82.0</ele>
        <time>2022-01-16T10:23:00Z</time>
      </trkpt>
      <trkpt lat="43.3511410" lon="-3.3267960">
        <ele>82.0</ele>
        <time>2022-01-16T10:23:01Z</time>
      </trkpt>
      <trkpt lat="43.3511290" lon="-3.3267980">
        <ele>82.0</ele>
        <time>2022-01-16T10:23:02Z</time>
      </trkpt>
      <trkpt lat="43.3511240" lon="-3.3267980">
        <ele>82.0</ele>
        <time>2022-01-16T10:23:03Z</time>
      </trkpt>
      <trkpt lat="43.3511200" lon="-3.3267960">
        <ele>82.0</ele>
        <time>2022-01-16T10:23:04Z</time>
      </trkpt>
      <trkpt lat="43.3510540" lon="-3.3268380">
        <ele>82.2</ele>
        <time>2022-01-16T10:23:19Z</time>
      </trkpt>
      <trkpt lat="43.3510360" lon="-3.3268480">
        <ele>82.2</ele>
        <time>2022-01-16T10:23:20Z</time>
      </trkpt>
      <trkpt lat="43.3510150" lon="-3.3268630">
        <ele>82.2</ele>
        <time>2022-01-16T10:23:21Z</time>
      </trkpt>
      <trkpt lat="43.3509890" lon="-3.3268810">
        <ele>82.2</ele>
        <time>2022-01-16T10:23:22Z</time>
      </trkpt>
      <trkpt lat="43.3509560" lon="-3.3268950">
        <ele>82.2</ele>
        <time>2022-01-16T10:23:23Z</time>
      </trkpt>
      <trkpt lat="43.3509220" lon="-3.3269100">
        <ele>82.2</ele>
        <time>2022-01-16T10:23:24Z</time>
      </trkpt>
      <trkpt lat="43.3508890" lon="-3.3269250">
        <ele>82.2</ele>
        <time>2022-01-16T10:23:25Z</time>
      </trkpt>
      <trkpt lat="43.3508550" lon="-3.3269400">
        <ele>82.2</ele>
        <time>2022-01-16T10:23:26Z</time>
      </trkpt>
      <trkpt lat="43.3508210" lon="-3.3269570">
        <ele>82.2</ele>
        <time>2022-01-16T10:23:27Z</time>
      </trkpt>
      <trkpt lat="43.3507840" lon="-3.3269710">
        <ele>82.2</ele>
        <time>2022-01-16T10:23:28Z</time>
      </trkpt>
      <trkpt lat="43.3507470" lon="-3.3269830">
        <ele>82.2</ele>
        <time>2022-01-16T10:23:29Z</time>
      </trkpt>
      <trkpt lat="43.3507090" lon="-3.3269930">
        <ele>82.4</ele>
        <time>2022-01-16T10:23:30Z</time>
      </trkpt>
      <trkpt lat="43.3506600" lon="-3.3269920">
        <ele>82.4</ele>
        <time>2022-01-16T10:23:31Z</time>
      </trkpt>
      <trkpt lat="43.3506180" lon="-3.3270020">
        <ele>82.6</ele>
        <time>2022-01-16T10:23:32Z</time>
      </trkpt>
      <trkpt lat="43.3505770" lon="-3.3270120">
        <ele>82.6</ele>
        <time>2022-01-16T10:23:33Z</time>
      </trkpt>
      <trkpt lat="43.3505340" lon="-3.3270260">
        <ele>82.6</ele>
        <time>2022-01-16T10:23:34Z</time>
      </trkpt>
      <trkpt lat="43.3504920" lon="-3.3270450">
        <ele>82.6</ele>
        <time>2022-01-16T10:23:35Z</time>
      </trkpt>
      <trkpt lat="43.3504510" lon="-3.3270630">
        <ele>82.6</ele>
        <time>2022-01-16T10:23:36Z</time>
      </trkpt>
      <trkpt lat="43.3504090" lon="-3.3270790">
        <ele>82.6</ele>
        <time>2022-01-16T10:23:37Z</time>
      </trkpt>
      <trkpt lat="43.3503660" lon="-3.3270950">
        <ele>82.6</ele>
        <time>2022-01-16T10:23:38Z</time>
      </trkpt>
      <trkpt lat="43.3503230" lon="-3.3271060">
        <ele>82.8</ele>
        <time>2022-01-16T10:23:39Z</time>
      </trkpt>
      <trkpt lat="43.3502800" lon="-3.3271170">
        <ele>83.0</ele>
        <time>2022-01-16T10:23:40Z</time>
      </trkpt>
      <trkpt lat="43.3502370" lon="-3.3271290">
        <ele>83.0</ele>
        <time>2022-01-16T10:23:41Z</time>
      </trkpt>
      <trkpt lat="43.3501940" lon="-3.3271380">
        <ele>83.0</ele>
        <time>2022-01-16T10:23:42Z</time>
      </trkpt>
      <trkpt lat="43.3501520" lon="-3.3271480">
        <ele>83.2</ele>
        <time>2022-01-16T10:23:43Z</time>
      </trkpt>
      <trkpt lat="43.3501090" lon="-3.3271570">
        <ele>83.2</ele>
        <time>2022-01-16T10:23:44Z</time>
      </trkpt>
      <trkpt lat="43.3500670" lon="-3.3271660">
        <ele>83.2</ele>
        <time>2022-01-16T10:23:45Z</time>
      </trkpt>
      <trkpt lat="43.3500250" lon="-3.3271740">
        <ele>83.2</ele>
        <time>2022-01-16T10:23:46Z</time>
      </trkpt>
      <trkpt lat="43.3499840" lon="-3.3271810">
        <ele>83.2</ele>
        <time>2022-01-16T10:23:47Z</time>
      </trkpt>
      <trkpt lat="43.3499430" lon="-3.3271860">
        <ele>83.4</ele>
        <time>2022-01-16T10:23:48Z</time>
      </trkpt>
      <trkpt lat="43.3499040" lon="-3.3271880">
        <ele>83.4</ele>
        <time>2022-01-16T10:23:49Z</time>
      </trkpt>
      <trkpt lat="43.3498670" lon="-3.3271920">
        <ele>83.4</ele>
        <time>2022-01-16T10:23:50Z</time>
      </trkpt>
      <trkpt lat="43.3498320" lon="-3.3271940">
        <ele>83.6</ele>
        <time>2022-01-16T10:23:51Z</time>
      </trkpt>
      <trkpt lat="43.3497990" lon="-3.3271930">
        <ele>83.6</ele>
        <time>2022-01-16T10:23:52Z</time>
      </trkpt>
      <trkpt lat="43.3497680" lon="-3.3271910">
        <ele>83.6</ele>
        <time>2022-01-16T10:23:53Z</time>
      </trkpt>
      <trkpt lat="43.3497380" lon="-3.3271870">
        <ele>83.6</ele>
        <time>2022-01-16T10:23:54Z</time>
      </trkpt>
      <trkpt lat="43.3497060" lon="-3.3271860">
        <ele>83.8</ele>
        <time>2022-01-16T10:23:55Z</time>
      </trkpt>
      <trkpt lat="43.3496710" lon="-3.3271850">
        <ele>83.8</ele>
        <time>2022-01-16T10:23:56Z</time>
      </trkpt>
      <trkpt lat="43.3496350" lon="-3.3271820">
        <ele>83.8</ele>
        <time>2022-01-16T10:23:57Z</time>
      </trkpt>
      <trkpt lat="43.3495980" lon="-3.3271750">
        <ele>84.0</ele>
        <time>2022-01-16T10:23:58Z</time>
      </trkpt>
      <trkpt lat="43.3495620" lon="-3.3271620">
        <ele>84.0</ele>
        <time>2022-01-16T10:23:59Z</time>
      </trkpt>
      <trkpt lat="43.3495300" lon="-3.3271400">
        <ele>84.2</ele>
        <time>2022-01-16T10:24:00Z</time>
      </trkpt>
      <trkpt lat="43.3495030" lon="-3.3271030">
        <ele>84.2</ele>
        <time>2022-01-16T10:24:01Z</time>
      </trkpt>
      <trkpt lat="43.3494830" lon="-3.3270600">
        <ele>84.2</ele>
        <time>2022-01-16T10:24:02Z</time>
      </trkpt>
      <trkpt lat="43.3494680" lon="-3.3270180">
        <ele>84.2</ele>
        <time>2022-01-16T10:24:03Z</time>
      </trkpt>
      <trkpt lat="43.3494540" lon="-3.3269820">
        <ele>84.2</ele>
        <time>2022-01-16T10:24:04Z</time>
      </trkpt>
      <trkpt lat="43.3494360" lon="-3.3269540">
        <ele>84.4</ele>
        <time>2022-01-16T10:24:05Z</time>
      </trkpt>
      <trkpt lat="43.3494160" lon="-3.3269280">
        <ele>84.4</ele>
        <time>2022-01-16T10:24:06Z</time>
      </trkpt>
      <trkpt lat="43.3493950" lon="-3.3269060">
        <ele>84.4</ele>
        <time>2022-01-16T10:24:07Z</time>
      </trkpt>
      <trkpt lat="43.3493760" lon="-3.3268940">
        <ele>84.6</ele>
        <time>2022-01-16T10:24:08Z</time>
      </trkpt>
      <trkpt lat="43.3493560" lon="-3.3268840">
        <ele>84.6</ele>
        <time>2022-01-16T10:24:09Z</time>
      </trkpt>
      <trkpt lat="43.3493360" lon="-3.3268750">
        <ele>84.6</ele>
        <time>2022-01-16T10:24:10Z</time>
      </trkpt>
      <trkpt lat="43.3493150" lon="-3.3268680">
        <ele>84.8</ele>
        <time>2022-01-16T10:24:11Z</time>
      </trkpt>
      <trkpt lat="43.3492940" lon="-3.3268610">
        <ele>84.8</ele>
        <time>2022-01-16T10:24:12Z</time>
      </trkpt>
      <trkpt lat="43.3492720" lon="-3.3268530">
        <ele>84.8</ele>
        <time>2022-01-16T10:24:13Z</time>
      </trkpt>
      <trkpt lat="43.3492490" lon="-3.3268440">
        <ele>84.8</ele>
        <time>2022-01-16T10:24:14Z</time>
      </trkpt>
      <trkpt lat="43.3492260" lon="-3.3268320">
        <ele>85.0</ele>
        <time>2022-01-16T10:24:15Z</time>
      </trkpt>
      <trkpt lat="43.3492040" lon="-3.3268140">
        <ele>85.0</ele>
        <time>2022-01-16T10:24:16Z</time>
      </trkpt>
      <trkpt lat="43.3491780" lon="-3.3267970">
        <ele>85.2</ele>
        <time>2022-01-16T10:24:17Z</time>
      </trkpt>
      <trkpt lat="43.3491450" lon="-3.3267890">
        <ele>85.2</ele>
        <time>2022-01-16T10:24:18Z</time>
      </trkpt>
      <trkpt lat="43.3491190" lon="-3.3267640">
        <ele>85.4</ele>
        <time>2022-01-16T10:24:19Z</time>
      </trkpt>
      <trkpt lat="43.3490940" lon="-3.3267420">
        <ele>85.6</ele>
        <time>2022-01-16T10:24:20Z</time>
      </trkpt>
      <trkpt lat="43.3490700" lon="-3.3267200">
        <ele>85.6</ele>
        <time>2022-01-16T10:24:21Z</time>
      </trkpt>
      <trkpt lat="43.3490450" lon="-3.3266980">
        <ele>85.6</ele>
        <time>2022-01-16T10:24:22Z</time>
      </trkpt>
      <trkpt lat="43.3490190" lon="-3.3266790">
        <ele>85.8</ele>
        <time>2022-01-16T10:24:23Z</time>
      </trkpt>
      <trkpt lat="43.3489920" lon="-3.3266610">
        <ele>85.8</ele>
        <time>2022-01-16T10:24:24Z</time>
      </trkpt>
      <trkpt lat="43.3489640" lon="-3.3266490">
        <ele>86.0</ele>
        <time>2022-01-16T10:24:25Z</time>
      </trkpt>
      <trkpt lat="43.3489330" lon="-3.3266400">
        <ele>86.0</ele>
        <time>2022-01-16T10:24:26Z</time>
      </trkpt>
      <trkpt lat="43.3489100" lon="-3.3266250">
        <ele>86.0</ele>
        <time>2022-01-16T10:24:27Z</time>
      </trkpt>
      <trkpt lat="43.3488930" lon="-3.3265950">
        <ele>86.0</ele>
        <time>2022-01-16T10:24:28Z</time>
      </trkpt>
      <trkpt lat="43.3488850" lon="-3.3265660">
        <ele>86.0</ele>
        <time>2022-01-16T10:24:29Z</time>
      </trkpt>
      <trkpt lat="43.3488890" lon="-3.3265300">
        <ele>86.0</ele>
        <time>2022-01-16T10:24:30Z</time>
      </trkpt>
      <trkpt lat="43.3488990" lon="-3.3265040">
        <ele>86.0</ele>
        <time>2022-01-16T10:24:31Z</time>
      </trkpt>
      <trkpt lat="43.3489140" lon="-3.3264860">
        <ele>86.2</ele>
        <time>2022-01-16T10:24:32Z</time>
      </trkpt>
      <trkpt lat="43.3489260" lon="-3.3264800">
        <ele>86.2</ele>
        <time>2022-01-16T10:24:33Z</time>
      </trkpt>
      <trkpt lat="43.3489410" lon="-3.3264800">
        <ele>86.2</ele>
        <time>2022-01-16T10:24:34Z</time>
      </trkpt>
      <trkpt lat="43.3489830" lon="-3.3265080">
        <ele>86.2</ele>
        <time>2022-01-16T10:24:36Z</time>
      </trkpt>
      <trkpt lat="43.3490000" lon="-3.3265280">
        <ele>86.2</ele>
        <time>2022-01-16T10:24:37Z</time>
      </trkpt>
      <trkpt lat="43.3490220" lon="-3.3265340">
        <ele>86.2</ele>
        <time>2022-01-16T10:24:38Z</time>
      </trkpt>
      <trkpt lat="43.3490410" lon="-3.3265390">
        <ele>86.2</ele>
        <time>2022-01-16T10:24:39Z</time>
      </trkpt>
      <trkpt lat="43.3490510" lon="-3.3265420">
        <ele>86.2</ele>
        <time>2022-01-16T10:24:40Z</time>
      </trkpt>
      <trkpt lat="43.3490590" lon="-3.3265400">
        <ele>86.2</ele>
        <time>2022-01-16T10:24:41Z</time>
      </trkpt>
      <trkpt lat="43.3488860" lon="-3.3264630">
        <ele>85.8</ele>
        <time>2022-01-16T10:49:29Z</time>
      </trkpt>
      <trkpt lat="43.3488730" lon="-3.3264770">
        <ele>85.8</ele>
        <time>2022-01-16T10:49:30Z</time>
      </trkpt>
      <trkpt lat="43.3488510" lon="-3.3265040">
        <ele>85.8</ele>
        <time>2022-01-16T10:49:31Z</time>
      </trkpt>
      <trkpt lat="43.3488270" lon="-3.3265100">
        <ele>86.0</ele>
        <time>2022-01-16T10:49:32Z</time>
      </trkpt>
      <trkpt lat="43.3488030" lon="-3.3265080">
        <ele>86.0</ele>
        <time>2022-01-16T10:49:33Z</time>
      </trkpt>
      <trkpt lat="43.3487750" lon="-3.3265160">
        <ele>86.0</ele>
        <time>2022-01-16T10:49:34Z</time>
      </trkpt>
      <trkpt lat="43.3487550" lon="-3.3265210">
        <ele>86.0</ele>
        <time>2022-01-16T10:49:35Z</time>
      </trkpt>
      <trkpt lat="43.3487300" lon="-3.3265270">
        <ele>86.0</ele>
        <time>2022-01-16T10:49:36Z</time>
      </trkpt>
      <trkpt lat="43.3487060" lon="-3.3265280">
        <ele>86.0</ele>
        <time>2022-01-16T10:49:37Z</time>
      </trkpt>
      <trkpt lat="43.3486830" lon="-3.3265250">
        <ele>85.8</ele>
        <time>2022-01-16T10:49:38Z</time>
      </trkpt>
      <trkpt lat="43.3486630" lon="-3.3265180">
        <ele>85.8</ele>
        <time>2022-01-16T10:49:39Z</time>
      </trkpt>
      <trkpt lat="43.3486420" lon="-3.3265010">
        <ele>85.8</ele>
        <time>2022-01-16T10:49:40Z</time>
      </trkpt>
      <trkpt lat="43.3486210" lon="-3.3264850">
        <ele>85.8</ele>
        <time>2022-01-16T10:49:41Z</time>
      </trkpt>
      <trkpt lat="43.3485910" lon="-3.3264550">
        <ele>85.8</ele>
        <time>2022-01-16T10:49:42Z</time>
      </trkpt>
      <trkpt lat="43.3485570" lon="-3.3264420">
        <ele>85.8</ele>
        <time>2022-01-16T10:49:43Z</time>
      </trkpt>
      <trkpt lat="43.3485240" lon="-3.3264270">
        <ele>85.8</ele>
        <time>2022-01-16T10:49:44Z</time>
      </trkpt>
      <trkpt lat="43.3484900" lon="-3.3264030">
        <ele>85.8</ele>
        <time>2022-01-16T10:49:45Z</time>
      </trkpt>
      <trkpt lat="43.3484550" lon="-3.3263810">
        <ele>85.8</ele>
        <time>2022-01-16T10:49:46Z</time>
      </trkpt>
      <trkpt lat="43.3484250" lon="-3.3263630">
        <ele>85.8</ele>
        <time>2022-01-16T10:49:47Z</time>
      </trkpt>
      <trkpt lat="43.3483930" lon="-3.3263490">
        <ele>85.8</ele>
        <time>2022-01-16T10:49:48Z</time>
      </trkpt>
      <trkpt lat="43.3483560" lon="-3.3263150">
        <ele>85.8</ele>
        <time>2022-01-16T10:49:49Z</time>
      </trkpt>
      <trkpt lat="43.3483310" lon="-3.3263030">
        <ele>85.8</ele>
        <time>2022-01-16T10:49:50Z</time>
      </trkpt>
      <trkpt lat="43.3483010" lon="-3.3262970">
        <ele>86.0</ele>
        <time>2022-01-16T10:49:51Z</time>
      </trkpt>
      <trkpt lat="43.3482680" lon="-3.3263040">
        <ele>86.0</ele>
        <time>2022-01-16T10:49:52Z</time>
      </trkpt>
      <trkpt lat="43.3482380" lon="-3.3262990">
        <ele>86.0</ele>
        <time>2022-01-16T10:49:53Z</time>
      </trkpt>
      <trkpt lat="43.3482130" lon="-3.3263000">
        <ele>85.8</ele>
        <time>2022-01-16T10:49:54Z</time>
      </trkpt>
      <trkpt lat="43.3481890" lon="-3.3263000">
        <ele>85.8</ele>
        <time>2022-01-16T10:49:55Z</time>
      </trkpt>
      <trkpt lat="43.3481690" lon="-3.3263060">
        <ele>85.8</ele>
        <time>2022-01-16T10:49:56Z</time>
      </trkpt>
      <trkpt lat="43.3481420" lon="-3.3262940">
        <ele>85.8</ele>
        <time>2022-01-16T10:49:57Z</time>
      </trkpt>
      <trkpt lat="43.3481200" lon="-3.3262970">
        <ele>86.0</ele>
        <time>2022-01-16T10:49:58Z</time>
      </trkpt>
      <trkpt lat="43.3481010" lon="-3.3263090">
        <ele>86.0</ele>
        <time>2022-01-16T10:49:59Z</time>
      </trkpt>
      <trkpt lat="43.3480790" lon="-3.3263220">
        <ele>86.0</ele>
        <time>2022-01-16T10:50:00Z</time>
      </trkpt>
      <trkpt lat="43.3480610" lon="-3.3263360">
        <ele>85.8</ele>
        <time>2022-01-16T10:50:01Z</time>
      </trkpt>
      <trkpt lat="43.3480410" lon="-3.3263520">
        <ele>85.8</ele>
        <time>2022-01-16T10:50:02Z</time>
      </trkpt>
      <trkpt lat="43.3480200" lon="-3.3263720">
        <ele>85.6</ele>
        <time>2022-01-16T10:50:03Z</time>
      </trkpt>
      <trkpt lat="43.3480000" lon="-3.3264000">
        <ele>85.6</ele>
        <time>2022-01-16T10:50:04Z</time>
      </trkpt>
      <trkpt lat="43.3479800" lon="-3.3264340">
        <ele>85.6</ele>
        <time>2022-01-16T10:50:05Z</time>
      </trkpt>
      <trkpt lat="43.3479600" lon="-3.3264680">
        <ele>85.4</ele>
        <time>2022-01-16T10:50:06Z</time>
      </trkpt>
      <trkpt lat="43.3479360" lon="-3.3264930">
        <ele>85.4</ele>
        <time>2022-01-16T10:50:07Z</time>
      </trkpt>
      <trkpt lat="43.3479050" lon="-3.3265040">
        <ele>85.4</ele>
        <time>2022-01-16T10:50:08Z</time>
      </trkpt>
      <trkpt lat="43.3478650" lon="-3.3265100">
        <ele>85.4</ele>
        <time>2022-01-16T10:50:09Z</time>
      </trkpt>
      <trkpt lat="43.3478240" lon="-3.3264960">
        <ele>85.4</ele>
        <time>2022-01-16T10:50:10Z</time>
      </trkpt>
      <trkpt lat="43.3477840" lon="-3.3264710">
        <ele>85.4</ele>
        <time>2022-01-16T10:50:11Z</time>
      </trkpt>
      <trkpt lat="43.3477440" lon="-3.3264420">
        <ele>85.6</ele>
        <time>2022-01-16T10:50:12Z</time>
      </trkpt>
      <trkpt lat="43.3477070" lon="-3.3264120">
        <ele>85.6</ele>
        <time>2022-01-16T10:50:13Z</time>
      </trkpt>
      <trkpt lat="43.3476660" lon="-3.3263870">
        <ele>85.6</ele>
        <time>2022-01-16T10:50:14Z</time>
      </trkpt>
      <trkpt lat="43.3476230" lon="-3.3263610">
        <ele>85.8</ele>
        <time>2022-01-16T10:50:15Z</time>
      </trkpt>
      <trkpt lat="43.3475820" lon="-3.3263310">
        <ele>85.8</ele>
        <time>2022-01-16T10:50:16Z</time>
      </trkpt>
      <trkpt lat="43.3475380" lon="-3.3262990">
        <ele>85.8</ele>
        <time>2022-01-16T10:50:17Z</time>
      </trkpt>
      <trkpt lat="43.3474910" lon="-3.3262720">
        <ele>85.8</ele>
        <time>2022-01-16T10:50:18Z</time>
      </trkpt>
      <trkpt lat="43.3474450" lon="-3.3262450">
        <ele>85.8</ele>
        <time>2022-01-16T10:50:19Z</time>
      </trkpt>
      <trkpt lat="43.3473950" lon="-3.3262150">
        <ele>85.8</ele>
        <time>2022-01-16T10:50:20Z</time>
      </trkpt>
      <trkpt lat="43.3473470" lon="-3.3261810">
        <ele>85.8</ele>
        <time>2022-01-16T10:50:21Z</time>
      </trkpt>
      <trkpt lat="43.3473020" lon="-3.3261480">
        <ele>85.8</ele>
        <time>2022-01-16T10:50:22Z</time>
      </trkpt>
      <trkpt lat="43.3472600" lon="-3.3261200">
        <ele>85.8</ele>
        <time>2022-01-16T10:50:23Z</time>
      </trkpt>
      <trkpt lat="43.3472130" lon="-3.3260880">
        <ele>85.8</ele>
        <time>2022-01-16T10:50:24Z</time>
      </trkpt>
      <trkpt lat="43.3471620" lon="-3.3260550">
        <ele>85.8</ele>
        <time>2022-01-16T10:50:25Z</time>
      </trkpt>
      <trkpt lat="43.3471120" lon="-3.3260210">
        <ele>85.8</ele>
        <time>2022-01-16T10:50:26Z</time>
      </trkpt>
      <trkpt lat="43.3470590" lon="-3.3259870">
        <ele>85.8</ele>
        <time>2022-01-16T10:50:27Z</time>
      </trkpt>
      <trkpt lat="43.3470060" lon="-3.3259540">
        <ele>86.0</ele>
        <time>2022-01-16T10:50:28Z</time>
      </trkpt>
      <trkpt lat="43.3469560" lon="-3.3259170">
        <ele>86.0</ele>
        <time>2022-01-16T10:50:29Z</time>
      </trkpt>
      <trkpt lat="43.3469050" lon="-3.3258830">
        <ele>86.2</ele>
        <time>2022-01-16T10:50:30Z</time>
      </trkpt>
      <trkpt lat="43.3468560" lon="-3.3258510">
        <ele>86.4</ele>
        <time>2022-01-16T10:50:31Z</time>
      </trkpt>
      <trkpt lat="43.3468110" lon="-3.3258220">
        <ele>86.4</ele>
        <time>2022-01-16T10:50:32Z</time>
      </trkpt>
      <trkpt lat="43.3467680" lon="-3.3257880">
        <ele>86.2</ele>
        <time>2022-01-16T10:50:33Z</time>
      </trkpt>
      <trkpt lat="43.3467180" lon="-3.3257480">
        <ele>86.4</ele>
        <time>2022-01-16T10:50:34Z</time>
      </trkpt>
      <trkpt lat="43.3466680" lon="-3.3257040">
        <ele>86.4</ele>
        <time>2022-01-16T10:50:35Z</time>
      </trkpt>
      <trkpt lat="43.3466170" lon="-3.3256660">
        <ele>86.6</ele>
        <time>2022-01-16T10:50:36Z</time>
      </trkpt>
      <trkpt lat="43.3465670" lon="-3.3256300">
        <ele>86.6</ele>
        <time>2022-01-16T10:50:37Z</time>
      </trkpt>
      <trkpt lat="43.3465180" lon="-3.3255950">
        <ele>86.6</ele>
        <time>2022-01-16T10:50:38Z</time>
      </trkpt>
      <trkpt lat="43.3464720" lon="-3.3255580">
        <ele>86.6</ele>
        <time>2022-01-16T10:50:39Z</time>
      </trkpt>
      <trkpt lat="43.3464240" lon="-3.3255270">
        <ele>86.8</ele>
        <time>2022-01-16T10:50:40Z</time>
      </trkpt>
      <trkpt lat="43.3463770" lon="-3.3254890">
        <ele>86.8</ele>
        <time>2022-01-16T10:50:41Z</time>
      </trkpt>
      <trkpt lat="43.3463290" lon="-3.3254530">
        <ele>86.6</ele>
        <time>2022-01-16T10:50:42Z</time>
      </trkpt>
      <trkpt lat="43.3462740" lon="-3.3254100">
        <ele>86.8</ele>
        <time>2022-01-16T10:50:43Z</time>
      </trkpt>
      <trkpt lat="43.3462230" lon="-3.3253700">
        <ele>86.8</ele>
        <time>2022-01-16T10:50:44Z</time>
      </trkpt>
      <trkpt lat="43.3461760" lon="-3.3253380">
        <ele>86.6</ele>
        <time>2022-01-16T10:50:45Z</time>
      </trkpt>
      <trkpt lat="43.3461320" lon="-3.3253020">
        <ele>86.8</ele>
        <time>2022-01-16T10:50:46Z</time>
      </trkpt>
      <trkpt lat="43.3460920" lon="-3.3252620">
        <ele>86.8</ele>
        <time>2022-01-16T10:50:47Z</time>
      </trkpt>
      <trkpt lat="43.3460520" lon="-3.3252240">
        <ele>87.0</ele>
        <time>2022-01-16T10:50:48Z</time>
      </trkpt>
      <trkpt lat="43.3460100" lon="-3.3251860">
        <ele>87.2</ele>
        <time>2022-01-16T10:50:49Z</time>
      </trkpt>
      <trkpt lat="43.3459610" lon="-3.3251360">
        <ele>87.2</ele>
        <time>2022-01-16T10:50:50Z</time>
      </trkpt>
      <trkpt lat="43.3459130" lon="-3.3250880">
        <ele>87.2</ele>
        <time>2022-01-16T10:50:51Z</time>
      </trkpt>
      <trkpt lat="43.3458650" lon="-3.3250440">
        <ele>87.4</ele>
        <time>2022-01-16T10:50:52Z</time>
      </trkpt>
      <trkpt lat="43.3458190" lon="-3.3250000">
        <ele>87.4</ele>
        <time>2022-01-16T10:50:53Z</time>
      </trkpt>
      <trkpt lat="43.3457800" lon="-3.3249600">
        <ele>87.4</ele>
        <time>2022-01-16T10:50:54Z</time>
      </trkpt>
      <trkpt lat="43.3457390" lon="-3.3249120">
        <ele>87.4</ele>
        <time>2022-01-16T10:50:55Z</time>
      </trkpt>
      <trkpt lat="43.3456990" lon="-3.3248610">
        <ele>87.4</ele>
        <time>2022-01-16T10:50:56Z</time>
      </trkpt>
      <trkpt lat="43.3456620" lon="-3.3248040">
        <ele>87.6</ele>
        <time>2022-01-16T10:50:57Z</time>
      </trkpt>
      <trkpt lat="43.3456250" lon="-3.3247460">
        <ele>87.8</ele>
        <time>2022-01-16T10:50:58Z</time>
      </trkpt>
      <trkpt lat="43.3455870" lon="-3.3246880">
        <ele>87.8</ele>
        <time>2022-01-16T10:50:59Z</time>
      </trkpt>
      <trkpt lat="43.3455540" lon="-3.3246330">
        <ele>87.8</ele>
        <time>2022-01-16T10:51:00Z</time>
      </trkpt>
      <trkpt lat="43.3455160" lon="-3.3245690">
        <ele>87.8</ele>
        <time>2022-01-16T10:51:01Z</time>
      </trkpt>
      <trkpt lat="43.3454760" lon="-3.3245090">
        <ele>87.8</ele>
        <time>2022-01-16T10:51:02Z</time>
      </trkpt>
      <trkpt lat="43.3454360" lon="-3.3244460">
        <ele>88.0</ele>
        <time>2022-01-16T10:51:03Z</time>
      </trkpt>
      <trkpt lat="43.3453980" lon="-3.3243830">
        <ele>88.0</ele>
        <time>2022-01-16T10:51:04Z</time>
      </trkpt>
      <trkpt lat="43.3453580" lon="-3.3243200">
        <ele>88.0</ele>
        <time>2022-01-16T10:51:05Z</time>
      </trkpt>
      <trkpt lat="43.3453180" lon="-3.3242540">
        <ele>88.0</ele>
        <time>2022-01-16T10:51:06Z</time>
      </trkpt>
      <trkpt lat="43.3452770" lon="-3.3241890">
        <ele>88.2</ele>
        <time>2022-01-16T10:51:07Z</time>
      </trkpt>
      <trkpt lat="43.3452380" lon="-3.3241190">
        <ele>88.2</ele>
        <time>2022-01-16T10:51:08Z</time>
      </trkpt>
      <trkpt lat="43.3452050" lon="-3.3240500">
        <ele>88.4</ele>
        <time>2022-01-16T10:51:09Z</time>
      </trkpt>
      <trkpt lat="43.3451710" lon="-3.3239810">
        <ele>88.4</ele>
        <time>2022-01-16T10:51:10Z</time>
      </trkpt>
      <trkpt lat="43.3451340" lon="-3.3239130">
        <ele>88.4</ele>
        <time>2022-01-16T10:51:11Z</time>
      </trkpt>
      <trkpt lat="43.3450950" lon="-3.3238440">
        <ele>88.4</ele>
        <time>2022-01-16T10:51:12Z</time>
      </trkpt>
      <trkpt lat="43.3450570" lon="-3.3237730">
        <ele>88.4</ele>
        <time>2022-01-16T10:51:13Z</time>
      </trkpt>
      <trkpt lat="43.3450210" lon="-3.3237040">
        <ele>88.4</ele>
        <time>2022-01-16T10:51:14Z</time>
      </trkpt>
      <trkpt lat="43.3449870" lon="-3.3236350">
        <ele>88.4</ele>
        <time>2022-01-16T10:51:15Z</time>
      </trkpt>
      <trkpt lat="43.3449500" lon="-3.3235640">
        <ele>88.6</ele>
        <time>2022-01-16T10:51:16Z</time>
      </trkpt>
      <trkpt lat="43.3449190" lon="-3.3234940">
        <ele>88.6</ele>
        <time>2022-01-16T10:51:17Z</time>
      </trkpt>
      <trkpt lat="43.3448860" lon="-3.3234230">
        <ele>88.8</ele>
        <time>2022-01-16T10:51:18Z</time>
      </trkpt>
      <trkpt lat="43.3448520" lon="-3.3233540">
        <ele>89.0</ele>
        <time>2022-01-16T10:51:19Z</time>
      </trkpt>
      <trkpt lat="43.3448230" lon="-3.3232830">
        <ele>89.2</ele>
        <time>2022-01-16T10:51:20Z</time>
      </trkpt>
      <trkpt lat="43.3447980" lon="-3.3232110">
        <ele>89.6</ele>
        <time>2022-01-16T10:51:21Z</time>
      </trkpt>
      <trkpt lat="43.3447710" lon="-3.3231390">
        <ele>89.8</ele>
        <time>2022-01-16T10:51:22Z</time>
      </trkpt>
      <trkpt lat="43.3447480" lon="-3.3230670">
        <ele>90.0</ele>
        <time>2022-01-16T10:51:23Z</time>
      </trkpt>
      <trkpt lat="43.3447260" lon="-3.3229950">
        <ele>90.2</ele>
        <time>2022-01-16T10:51:24Z</time>
      </trkpt>
      <trkpt lat="43.3447030" lon="-3.3229260">
        <ele>90.2</ele>
        <time>2022-01-16T10:51:25Z</time>
      </trkpt>
      <trkpt lat="43.3446840" lon="-3.3228590">
        <ele>90.4</ele>
        <time>2022-01-16T10:51:26Z</time>
      </trkpt>
      <trkpt lat="43.3446600" lon="-3.3227910">
        <ele>90.4</ele>
        <time>2022-01-16T10:51:27Z</time>
      </trkpt>
      <trkpt lat="43.3446330" lon="-3.3227240">
        <ele>90.4</ele>
        <time>2022-01-16T10:51:28Z</time>
      </trkpt>
      <trkpt lat="43.3446050" lon="-3.3226570">
        <ele>90.4</ele>
        <time>2022-01-16T10:51:29Z</time>
      </trkpt>
      <trkpt lat="43.3445800" lon="-3.3225920">
        <ele>90.6</ele>
        <time>2022-01-16T10:51:30Z</time>
      </trkpt>
      <trkpt lat="43.3445540" lon="-3.3225280">
        <ele>90.6</ele>
        <time>2022-01-16T10:51:31Z</time>
      </trkpt>
      <trkpt lat="43.3445280" lon="-3.3224650">
        <ele>90.8</ele>
        <time>2022-01-16T10:51:32Z</time>
      </trkpt>
      <trkpt lat="43.3445000" lon="-3.3223990">
        <ele>91.0</ele>
        <time>2022-01-16T10:51:33Z</time>
      </trkpt>
      <trkpt lat="43.3444720" lon="-3.3223340">
        <ele>91.2</ele>
        <time>2022-01-16T10:51:34Z</time>
      </trkpt>
      <trkpt lat="43.3444430" lon="-3.3222720">
        <ele>91.4</ele>
        <time>2022-01-16T10:51:35Z</time>
      </trkpt>
      <trkpt lat="43.3444120" lon="-3.3222100">
        <ele>91.4</ele>
        <time>2022-01-16T10:51:36Z</time>
      </trkpt>
      <trkpt lat="43.3443780" lon="-3.3221510">
        <ele>91.6</ele>
        <time>2022-01-16T10:51:37Z</time>
      </trkpt>
      <trkpt lat="43.3443440" lon="-3.3220960">
        <ele>91.6</ele>
        <time>2022-01-16T10:51:38Z</time>
      </trkpt>
      <trkpt lat="43.3443050" lon="-3.3220470">
        <ele>92.0</ele>
        <time>2022-01-16T10:51:39Z</time>
      </trkpt>
      <trkpt lat="43.3442670" lon="-3.3219960">
        <ele>92.4</ele>
        <time>2022-01-16T10:51:40Z</time>
      </trkpt>
      <trkpt lat="43.3442190" lon="-3.3219650">
        <ele>92.6</ele>
        <time>2022-01-16T10:51:41Z</time>
      </trkpt>
      <trkpt lat="43.3441700" lon="-3.3219330">
        <ele>92.6</ele>
        <time>2022-01-16T10:51:42Z</time>
      </trkpt>
      <trkpt lat="43.3441210" lon="-3.3219080">
        <ele>92.8</ele>
        <time>2022-01-16T10:51:43Z</time>
      </trkpt>
      <trkpt lat="43.3440710" lon="-3.3218810">
        <ele>92.8</ele>
        <time>2022-01-16T10:51:44Z</time>
      </trkpt>
      <trkpt lat="43.3440220" lon="-3.3218480">
        <ele>93.0</ele>
        <time>2022-01-16T10:51:45Z</time>
      </trkpt>
      <trkpt lat="43.3439730" lon="-3.3218110">
        <ele>93.0</ele>
        <time>2022-01-16T10:51:46Z</time>
      </trkpt>
      <trkpt lat="43.3439260" lon="-3.3217640">
        <ele>93.2</ele>
        <time>2022-01-16T10:51:47Z</time>
      </trkpt>
      <trkpt lat="43.3438870" lon="-3.3217070">
        <ele>93.2</ele>
        <time>2022-01-16T10:51:48Z</time>
      </trkpt>
      <trkpt lat="43.3438550" lon="-3.3216390">
        <ele>93.2</ele>
        <time>2022-01-16T10:51:49Z</time>
      </trkpt>
      <trkpt lat="43.3438330" lon="-3.3215640">
        <ele>93.2</ele>
        <time>2022-01-16T10:51:50Z</time>
      </trkpt>
      <trkpt lat="43.3438180" lon="-3.3214900">
        <ele>93.4</ele>
        <time>2022-01-16T10:51:51Z</time>
      </trkpt>
      <trkpt lat="43.3438060" lon="-3.3214130">
        <ele>93.4</ele>
        <time>2022-01-16T10:51:52Z</time>
      </trkpt>
      <trkpt lat="43.3437970" lon="-3.3213430">
        <ele>93.8</ele>
        <time>2022-01-16T10:51:53Z</time>
      </trkpt>
      <trkpt lat="43.3437850" lon="-3.3212680">
        <ele>94.0</ele>
        <time>2022-01-16T10:51:54Z</time>
      </trkpt>
      <trkpt lat="43.3437750" lon="-3.3211880">
        <ele>94.0</ele>
        <time>2022-01-16T10:51:55Z</time>
      </trkpt>
      <trkpt lat="43.3437720" lon="-3.3211120">
        <ele>94.2</ele>
        <time>2022-01-16T10:51:56Z</time>
      </trkpt>
      <trkpt lat="43.3437660" lon="-3.3210350">
        <ele>94.2</ele>
        <time>2022-01-16T10:51:57Z</time>
      </trkpt>
      <trkpt lat="43.3437590" lon="-3.3209630">
        <ele>94.4</ele>
        <time>2022-01-16T10:51:58Z</time>
      </trkpt>
      <trkpt lat="43.3437530" lon="-3.3208970">
        <ele>94.8</ele>
        <time>2022-01-16T10:51:59Z</time>
      </trkpt>
      <trkpt lat="43.3437460" lon="-3.3208330">
        <ele>95.0</ele>
        <time>2022-01-16T10:52:00Z</time>
      </trkpt>
      <trkpt lat="43.3437430" lon="-3.3207760">
        <ele>95.6</ele>
        <time>2022-01-16T10:52:01Z</time>
      </trkpt>
      <trkpt lat="43.3437370" lon="-3.3207180">
        <ele>95.8</ele>
        <time>2022-01-16T10:52:02Z</time>
      </trkpt>
      <trkpt lat="43.3437290" lon="-3.3206590">
        <ele>95.8</ele>
        <time>2022-01-16T10:52:03Z</time>
      </trkpt>
      <trkpt lat="43.3437200" lon="-3.3205990">
        <ele>96.0</ele>
        <time>2022-01-16T10:52:04Z</time>
      </trkpt>
      <trkpt lat="43.3437160" lon="-3.3205300">
        <ele>96.2</ele>
        <time>2022-01-16T10:52:05Z</time>
      </trkpt>
      <trkpt lat="43.3437130" lon="-3.3204750">
        <ele>96.4</ele>
        <time>2022-01-16T10:52:06Z</time>
      </trkpt>
      <trkpt lat="43.3437090" lon="-3.3204050">
        <ele>96.4</ele>
        <time>2022-01-16T10:52:07Z</time>
      </trkpt>
      <trkpt lat="43.3437030" lon="-3.3203390">
        <ele>96.6</ele>
        <time>2022-01-16T10:52:08Z</time>
      </trkpt>
      <trkpt lat="43.3436960" lon="-3.3202700">
        <ele>96.6</ele>
        <time>2022-01-16T10:52:09Z</time>
      </trkpt>
      <trkpt lat="43.3436880" lon="-3.3202030">
        <ele>96.8</ele>
        <time>2022-01-16T10:52:10Z</time>
      </trkpt>
      <trkpt lat="43.3436810" lon="-3.3201530">
        <ele>96.8</ele>
        <time>2022-01-16T10:52:11Z</time>
      </trkpt>
      <trkpt lat="43.3436670" lon="-3.3200990">
        <ele>96.8</ele>
        <time>2022-01-16T10:52:12Z</time>
      </trkpt>
      <trkpt lat="43.3436510" lon="-3.3200340">
        <ele>97.0</ele>
        <time>2022-01-16T10:52:13Z</time>
      </trkpt>
      <trkpt lat="43.3436340" lon="-3.3199700">
        <ele>97.0</ele>
        <time>2022-01-16T10:52:14Z</time>
      </trkpt>
      <trkpt lat="43.3436150" lon="-3.3199060">
        <ele>97.2</ele>
        <time>2022-01-16T10:52:15Z</time>
      </trkpt>
      <trkpt lat="43.3435950" lon="-3.3198430">
        <ele>97.6</ele>
        <time>2022-01-16T10:52:16Z</time>
      </trkpt>
      <trkpt lat="43.3435720" lon="-3.3197830">
        <ele>97.8</ele>
        <time>2022-01-16T10:52:17Z</time>
      </trkpt>
      <trkpt lat="43.3435540" lon="-3.3197280">
        <ele>98.2</ele>
        <time>2022-01-16T10:52:18Z</time>
      </trkpt>
      <trkpt lat="43.3435370" lon="-3.3196740">
        <ele>98.6</ele>
        <time>2022-01-16T10:52:19Z</time>
      </trkpt>
      <trkpt lat="43.3435210" lon="-3.3196200">
        <ele>98.8</ele>
        <time>2022-01-16T10:52:20Z</time>
      </trkpt>
      <trkpt lat="43.3434990" lon="-3.3195640">
        <ele>98.8</ele>
        <time>2022-01-16T10:52:21Z</time>
      </trkpt>
      <trkpt lat="43.3434700" lon="-3.3195040">
        <ele>99.0</ele>
        <time>2022-01-16T10:52:22Z</time>
      </trkpt>
      <trkpt lat="43.3434380" lon="-3.3194460">
        <ele>99.0</ele>
        <time>2022-01-16T10:52:23Z</time>
      </trkpt>
      <trkpt lat="43.3434020" lon="-3.3193820">
        <ele>99.2</ele>
        <time>2022-01-16T10:52:24Z</time>
      </trkpt>
      <trkpt lat="43.3433680" lon="-3.3193210">
        <ele>99.4</ele>
        <time>2022-01-16T10:52:25Z</time>
      </trkpt>
      <trkpt lat="43.3433290" lon="-3.3192660">
        <ele>99.4</ele>
        <time>2022-01-16T10:52:26Z</time>
      </trkpt>
      <trkpt lat="43.3432910" lon="-3.3192130">
        <ele>99.4</ele>
        <time>2022-01-16T10:52:27Z</time>
      </trkpt>
      <trkpt lat="43.3432500" lon="-3.3191650">
        <ele>99.6</ele>
        <time>2022-01-16T10:52:28Z</time>
      </trkpt>
      <trkpt lat="43.3432050" lon="-3.3191190">
        <ele>99.6</ele>
        <time>2022-01-16T10:52:29Z</time>
      </trkpt>
      <trkpt lat="43.3431560" lon="-3.3190670">
        <ele>99.4</ele>
        <time>2022-01-16T10:52:30Z</time>
      </trkpt>
      <trkpt lat="43.3431000" lon="-3.3190190">
        <ele>99.2</ele>
        <time>2022-01-16T10:52:31Z</time>
      </trkpt>
      <trkpt lat="43.3430380" lon="-3.3189690">
        <ele>99.2</ele>
        <time>2022-01-16T10:52:32Z</time>
      </trkpt>
      <trkpt lat="43.3429780" lon="-3.3189290">
        <ele>98.8</ele>
        <time>2022-01-16T10:52:33Z</time>
      </trkpt>
      <trkpt lat="43.3429140" lon="-3.3188880">
        <ele>98.6</ele>
        <time>2022-01-16T10:52:34Z</time>
      </trkpt>
      <trkpt lat="43.3428480" lon="-3.3188510">
        <ele>98.6</ele>
        <time>2022-01-16T10:52:35Z</time>
      </trkpt>
      <trkpt lat="43.3427800" lon="-3.3188180">
        <ele>98.2</ele>
        <time>2022-01-16T10:52:36Z</time>
      </trkpt>
      <trkpt lat="43.3427140" lon="-3.3187860">
        <ele>98.0</ele>
        <time>2022-01-16T10:52:37Z</time>
      </trkpt>
      <trkpt lat="43.3426420" lon="-3.3187470">
        <ele>97.8</ele>
        <time>2022-01-16T10:52:38Z</time>
      </trkpt>
      <trkpt lat="43.3425690" lon="-3.3187180">
        <ele>97.6</ele>
        <time>2022-01-16T10:52:39Z</time>
      </trkpt>
      <trkpt lat="43.3424960" lon="-3.3186830">
        <ele>97.2</ele>
        <time>2022-01-16T10:52:40Z</time>
      </trkpt>
      <trkpt lat="43.3424220" lon="-3.3186460">
        <ele>97.0</ele>
        <time>2022-01-16T10:52:41Z</time>
      </trkpt>
      <trkpt lat="43.3423520" lon="-3.3186100">
        <ele>96.8</ele>
        <time>2022-01-16T10:52:42Z</time>
      </trkpt>
      <trkpt lat="43.3422730" lon="-3.3185710">
        <ele>96.6</ele>
        <time>2022-01-16T10:52:43Z</time>
      </trkpt>
      <trkpt lat="43.3421980" lon="-3.3185260">
        <ele>96.4</ele>
        <time>2022-01-16T10:52:44Z</time>
      </trkpt>
      <trkpt lat="43.3421240" lon="-3.3184810">
        <ele>96.0</ele>
        <time>2022-01-16T10:52:45Z</time>
      </trkpt>
      <trkpt lat="43.3420520" lon="-3.3184430">
        <ele>95.8</ele>
        <time>2022-01-16T10:52:46Z</time>
      </trkpt>
      <trkpt lat="43.3419810" lon="-3.3184050">
        <ele>95.6</ele>
        <time>2022-01-16T10:52:47Z</time>
      </trkpt>
      <trkpt lat="43.3419090" lon="-3.3183720">
        <ele>95.6</ele>
        <time>2022-01-16T10:52:48Z</time>
      </trkpt>
      <trkpt lat="43.3418330" lon="-3.3183360">
        <ele>95.4</ele>
        <time>2022-01-16T10:52:49Z</time>
      </trkpt>
      <trkpt lat="43.3417640" lon="-3.3183060">
        <ele>95.0</ele>
        <time>2022-01-16T10:52:50Z</time>
      </trkpt>
      <trkpt lat="43.3416970" lon="-3.3182750">
        <ele>95.0</ele>
        <time>2022-01-16T10:52:51Z</time>
      </trkpt>
      <trkpt lat="43.3416320" lon="-3.3182480">
        <ele>95.0</ele>
        <time>2022-01-16T10:52:52Z</time>
      </trkpt>
      <trkpt lat="43.3415670" lon="-3.3182200">
        <ele>94.8</ele>
        <time>2022-01-16T10:52:53Z</time>
      </trkpt>
      <trkpt lat="43.3415060" lon="-3.3181940">
        <ele>94.8</ele>
        <time>2022-01-16T10:52:54Z</time>
      </trkpt>
      <trkpt lat="43.3414400" lon="-3.3181640">
        <ele>94.8</ele>
        <time>2022-01-16T10:52:55Z</time>
      </trkpt>
      <trkpt lat="43.3413770" lon="-3.3181370">
        <ele>94.6</ele>
        <time>2022-01-16T10:52:56Z</time>
      </trkpt>
      <trkpt lat="43.3413110" lon="-3.3181070">
        <ele>94.6</ele>
        <time>2022-01-16T10:52:57Z</time>
      </trkpt>
      <trkpt lat="43.3412500" lon="-3.3180810">
        <ele>94.6</ele>
        <time>2022-01-16T10:52:58Z</time>
      </trkpt>
      <trkpt lat="43.3411860" lon="-3.3180500">
        <ele>94.8</ele>
        <time>2022-01-16T10:52:59Z</time>
      </trkpt>
      <trkpt lat="43.3411250" lon="-3.3180240">
        <ele>94.8</ele>
        <time>2022-01-16T10:53:00Z</time>
      </trkpt>
      <trkpt lat="43.3410610" lon="-3.3179920">
        <ele>95.0</ele>
        <time>2022-01-16T10:53:01Z</time>
      </trkpt>
      <trkpt lat="43.3409990" lon="-3.3179660">
        <ele>94.8</ele>
        <time>2022-01-16T10:53:02Z</time>
      </trkpt>
      <trkpt lat="43.3409350" lon="-3.3179370">
        <ele>95.0</ele>
        <time>2022-01-16T10:53:03Z</time>
      </trkpt>
      <trkpt lat="43.3408720" lon="-3.3179100">
        <ele>95.2</ele>
        <time>2022-01-16T10:53:04Z</time>
      </trkpt>
      <trkpt lat="43.3408090" lon="-3.3178820">
        <ele>95.2</ele>
        <time>2022-01-16T10:53:05Z</time>
      </trkpt>
      <trkpt lat="43.3407460" lon="-3.3178540">
        <ele>95.2</ele>
        <time>2022-01-16T10:53:06Z</time>
      </trkpt>
      <trkpt lat="43.3406840" lon="-3.3178260">
        <ele>95.2</ele>
        <time>2022-01-16T10:53:07Z</time>
      </trkpt>
      <trkpt lat="43.3406220" lon="-3.3177980">
        <ele>95.4</ele>
        <time>2022-01-16T10:53:08Z</time>
      </trkpt>
      <trkpt lat="43.3405610" lon="-3.3177710">
        <ele>95.4</ele>
        <time>2022-01-16T10:53:09Z</time>
      </trkpt>
      <trkpt lat="43.3405000" lon="-3.3177450">
        <ele>95.4</ele>
        <time>2022-01-16T10:53:10Z</time>
      </trkpt>
      <trkpt lat="43.3404410" lon="-3.3177200">
        <ele>95.6</ele>
        <time>2022-01-16T10:53:11Z</time>
      </trkpt>
      <trkpt lat="43.3403820" lon="-3.3176930">
        <ele>95.6</ele>
        <time>2022-01-16T10:53:12Z</time>
      </trkpt>
      <trkpt lat="43.3403230" lon="-3.3176670">
        <ele>95.6</ele>
        <time>2022-01-16T10:53:13Z</time>
      </trkpt>
      <trkpt lat="43.3402630" lon="-3.3176400">
        <ele>95.8</ele>
        <time>2022-01-16T10:53:14Z</time>
      </trkpt>
      <trkpt lat="43.3402060" lon="-3.3176150">
        <ele>95.8</ele>
        <time>2022-01-16T10:53:15Z</time>
      </trkpt>
      <trkpt lat="43.3401490" lon="-3.3175880">
        <ele>96.0</ele>
        <time>2022-01-16T10:53:16Z</time>
      </trkpt>
      <trkpt lat="43.3400920" lon="-3.3175620">
        <ele>96.0</ele>
        <time>2022-01-16T10:53:17Z</time>
      </trkpt>
      <trkpt lat="43.3400360" lon="-3.3175350">
        <ele>96.0</ele>
        <time>2022-01-16T10:53:18Z</time>
      </trkpt>
      <trkpt lat="43.3399810" lon="-3.3175110">
        <ele>96.0</ele>
        <time>2022-01-16T10:53:19Z</time>
      </trkpt>
      <trkpt lat="43.3399260" lon="-3.3174880">
        <ele>96.0</ele>
        <time>2022-01-16T10:53:20Z</time>
      </trkpt>
      <trkpt lat="43.3398680" lon="-3.3174620">
        <ele>96.0</ele>
        <time>2022-01-16T10:53:21Z</time>
      </trkpt>
      <trkpt lat="43.3398110" lon="-3.3174340">
        <ele>96.0</ele>
        <time>2022-01-16T10:53:22Z</time>
      </trkpt>
      <trkpt lat="43.3397540" lon="-3.3174060">
        <ele>96.2</ele>
        <time>2022-01-16T10:53:23Z</time>
      </trkpt>
      <trkpt lat="43.3396970" lon="-3.3173760">
        <ele>96.2</ele>
        <time>2022-01-16T10:53:24Z</time>
      </trkpt>
      <trkpt lat="43.3396380" lon="-3.3173450">
        <ele>96.0</ele>
        <time>2022-01-16T10:53:25Z</time>
      </trkpt>
      <trkpt lat="43.3395780" lon="-3.3173160">
        <ele>96.2</ele>
        <time>2022-01-16T10:53:26Z</time>
      </trkpt>
      <trkpt lat="43.3395180" lon="-3.3172870">
        <ele>96.2</ele>
        <time>2022-01-16T10:53:27Z</time>
      </trkpt>
      <trkpt lat="43.3394560" lon="-3.3172590">
        <ele>96.4</ele>
        <time>2022-01-16T10:53:28Z</time>
      </trkpt>
      <trkpt lat="43.3393920" lon="-3.3172320">
        <ele>96.4</ele>
        <time>2022-01-16T10:53:29Z</time>
      </trkpt>
      <trkpt lat="43.3393280" lon="-3.3172020">
        <ele>96.4</ele>
        <time>2022-01-16T10:53:30Z</time>
      </trkpt>
      <trkpt lat="43.3392640" lon="-3.3171730">
        <ele>96.4</ele>
        <time>2022-01-16T10:53:31Z</time>
      </trkpt>
      <trkpt lat="43.3391990" lon="-3.3171440">
        <ele>96.4</ele>
        <time>2022-01-16T10:53:32Z</time>
      </trkpt>
      <trkpt lat="43.3391310" lon="-3.3171180">
        <ele>96.6</ele>
        <time>2022-01-16T10:53:33Z</time>
      </trkpt>
      <trkpt lat="43.3390610" lon="-3.3170900">
        <ele>96.6</ele>
        <time>2022-01-16T10:53:34Z</time>
      </trkpt>
      <trkpt lat="43.3389890" lon="-3.3170580">
        <ele>96.6</ele>
        <time>2022-01-16T10:53:35Z</time>
      </trkpt>
      <trkpt lat="43.3389220" lon="-3.3170300">
        <ele>96.4</ele>
        <time>2022-01-16T10:53:36Z</time>
      </trkpt>
      <trkpt lat="43.3388560" lon="-3.3169990">
        <ele>96.6</ele>
        <time>2022-01-16T10:53:37Z</time>
      </trkpt>
      <trkpt lat="43.3387910" lon="-3.3169690">
        <ele>96.8</ele>
        <time>2022-01-16T10:53:38Z</time>
      </trkpt>
      <trkpt lat="43.3387270" lon="-3.3169400">
        <ele>97.0</ele>
        <time>2022-01-16T10:53:39Z</time>
      </trkpt>
      <trkpt lat="43.3386620" lon="-3.3169100">
        <ele>97.2</ele>
        <time>2022-01-16T10:53:40Z</time>
      </trkpt>
      <trkpt lat="43.3385980" lon="-3.3168820">
        <ele>97.4</ele>
        <time>2022-01-16T10:53:41Z</time>
      </trkpt>
      <trkpt lat="43.3385350" lon="-3.3168540">
        <ele>97.4</ele>
        <time>2022-01-16T10:53:42Z</time>
      </trkpt>
      <trkpt lat="43.3384720" lon="-3.3168270">
        <ele>97.6</ele>
        <time>2022-01-16T10:53:43Z</time>
      </trkpt>
      <trkpt lat="43.3384090" lon="-3.3167990">
        <ele>97.6</ele>
        <time>2022-01-16T10:53:44Z</time>
      </trkpt>
      <trkpt lat="43.3383470" lon="-3.3167710">
        <ele>97.8</ele>
        <time>2022-01-16T10:53:45Z</time>
      </trkpt>
      <trkpt lat="43.3382850" lon="-3.3167420">
        <ele>97.8</ele>
        <time>2022-01-16T10:53:46Z</time>
      </trkpt>
      <trkpt lat="43.3382230" lon="-3.3167130">
        <ele>97.8</ele>
        <time>2022-01-16T10:53:47Z</time>
      </trkpt>
      <trkpt lat="43.3381610" lon="-3.3166840">
        <ele>98.0</ele>
        <time>2022-01-16T10:53:48Z</time>
      </trkpt>
      <trkpt lat="43.3380970" lon="-3.3166560">
        <ele>98.0</ele>
        <time>2022-01-16T10:53:49Z</time>
      </trkpt>
      <trkpt lat="43.3380320" lon="-3.3166270">
        <ele>98.0</ele>
        <time>2022-01-16T10:53:50Z</time>
      </trkpt>
      <trkpt lat="43.3379680" lon="-3.3165980">
        <ele>98.0</ele>
        <time>2022-01-16T10:53:51Z</time>
      </trkpt>
      <trkpt lat="43.3379040" lon="-3.3165680">
        <ele>98.2</ele>
        <time>2022-01-16T10:53:52Z</time>
      </trkpt>
      <trkpt lat="43.3378380" lon="-3.3165380">
        <ele>98.2</ele>
        <time>2022-01-16T10:53:53Z</time>
      </trkpt>
      <trkpt lat="43.3377730" lon="-3.3165100">
        <ele>98.4</ele>
        <time>2022-01-16T10:53:54Z</time>
      </trkpt>
      <trkpt lat="43.3377070" lon="-3.3164810">
        <ele>98.4</ele>
        <time>2022-01-16T10:53:55Z</time>
      </trkpt>
      <trkpt lat="43.3376430" lon="-3.3164530">
        <ele>98.4</ele>
        <time>2022-01-16T10:53:56Z</time>
      </trkpt>
      <trkpt lat="43.3375780" lon="-3.3164250">
        <ele>98.4</ele>
        <time>2022-01-16T10:53:57Z</time>
      </trkpt>
      <trkpt lat="43.3375140" lon="-3.3163980">
        <ele>98.4</ele>
        <time>2022-01-16T10:53:58Z</time>
      </trkpt>
      <trkpt lat="43.3374490" lon="-3.3163690">
        <ele>98.4</ele>
        <time>2022-01-16T10:53:59Z</time>
      </trkpt>
      <trkpt lat="43.3373860" lon="-3.3163410">
        <ele>98.4</ele>
        <time>2022-01-16T10:54:00Z</time>
      </trkpt>
      <trkpt lat="43.3373220" lon="-3.3163110">
        <ele>98.6</ele>
        <time>2022-01-16T10:54:01Z</time>
      </trkpt>
      <trkpt lat="43.3372580" lon="-3.3162830">
        <ele>98.6</ele>
        <time>2022-01-16T10:54:02Z</time>
      </trkpt>
      <trkpt lat="43.3371940" lon="-3.3162550">
        <ele>98.8</ele>
        <time>2022-01-16T10:54:03Z</time>
      </trkpt>
      <trkpt lat="43.3371290" lon="-3.3162290">
        <ele>98.8</ele>
        <time>2022-01-16T10:54:04Z</time>
      </trkpt>
      <trkpt lat="43.3370630" lon="-3.3162020">
        <ele>99.0</ele>
        <time>2022-01-16T10:54:05Z</time>
      </trkpt>
      <trkpt lat="43.3369990" lon="-3.3161710">
        <ele>99.0</ele>
        <time>2022-01-16T10:54:06Z</time>
      </trkpt>
      <trkpt lat="43.3369370" lon="-3.3161430">
        <ele>99.0</ele>
        <time>2022-01-16T10:54:07Z</time>
      </trkpt>
      <trkpt lat="43.3368730" lon="-3.3161130">
        <ele>99.0</ele>
        <time>2022-01-16T10:54:08Z</time>
      </trkpt>
      <trkpt lat="43.3368100" lon="-3.3160840">
        <ele>99.2</ele>
        <time>2022-01-16T10:54:09Z</time>
      </trkpt>
      <trkpt lat="43.3367460" lon="-3.3160550">
        <ele>99.2</ele>
        <time>2022-01-16T10:54:10Z</time>
      </trkpt>
      <trkpt lat="43.3366820" lon="-3.3160270">
        <ele>99.2</ele>
        <time>2022-01-16T10:54:11Z</time>
      </trkpt>
      <trkpt lat="43.3366180" lon="-3.3159980">
        <ele>99.2</ele>
        <time>2022-01-16T10:54:12Z</time>
      </trkpt>
      <trkpt lat="43.3365550" lon="-3.3159710">
        <ele>99.2</ele>
        <time>2022-01-16T10:54:13Z</time>
      </trkpt>
      <trkpt lat="43.3364910" lon="-3.3159430">
        <ele>99.4</ele>
        <time>2022-01-16T10:54:14Z</time>
      </trkpt>
      <trkpt lat="43.3364270" lon="-3.3159150">
        <ele>99.6</ele>
        <time>2022-01-16T10:54:15Z</time>
      </trkpt>
      <trkpt lat="43.3363630" lon="-3.3158880">
        <ele>99.6</ele>
        <time>2022-01-16T10:54:16Z</time>
      </trkpt>
      <trkpt lat="43.3362980" lon="-3.3158590">
        <ele>99.6</ele>
        <time>2022-01-16T10:54:17Z</time>
      </trkpt>
      <trkpt lat="43.3362330" lon="-3.3158310">
        <ele>99.6</ele>
        <time>2022-01-16T10:54:18Z</time>
      </trkpt>
      <trkpt lat="43.3361680" lon="-3.3158030">
        <ele>99.6</ele>
        <time>2022-01-16T10:54:19Z</time>
      </trkpt>
      <trkpt lat="43.3361020" lon="-3.3157740">
        <ele>99.8</ele>
        <time>2022-01-16T10:54:20Z</time>
      </trkpt>
      <trkpt lat="43.3360360" lon="-3.3157470">
        <ele>99.8</ele>
        <time>2022-01-16T10:54:21Z</time>
      </trkpt>
      <trkpt lat="43.3359700" lon="-3.3157170">
        <ele>100.0</ele>
        <time>2022-01-16T10:54:22Z</time>
      </trkpt>
      <trkpt lat="43.3359060" lon="-3.3156890">
        <ele>100.0</ele>
        <time>2022-01-16T10:54:23Z</time>
      </trkpt>
      <trkpt lat="43.3358400" lon="-3.3156610">
        <ele>100.2</ele>
        <time>2022-01-16T10:54:24Z</time>
      </trkpt>
      <trkpt lat="43.3357740" lon="-3.3156330">
        <ele>100.4</ele>
        <time>2022-01-16T10:54:25Z</time>
      </trkpt>
      <trkpt lat="43.3357070" lon="-3.3156030">
        <ele>100.4</ele>
        <time>2022-01-16T10:54:26Z</time>
      </trkpt>
      <trkpt lat="43.3356410" lon="-3.3155730">
        <ele>100.6</ele>
        <time>2022-01-16T10:54:27Z</time>
      </trkpt>
      <trkpt lat="43.3355750" lon="-3.3155440">
        <ele>100.6</ele>
        <time>2022-01-16T10:54:28Z</time>
      </trkpt>
      <trkpt lat="43.3355080" lon="-3.3155140">
        <ele>100.8</ele>
        <time>2022-01-16T10:54:29Z</time>
      </trkpt>
      <trkpt lat="43.3354410" lon="-3.3154870">
        <ele>100.8</ele>
        <time>2022-01-16T10:54:30Z</time>
      </trkpt>
      <trkpt lat="43.3353760" lon="-3.3154570">
        <ele>100.6</ele>
        <time>2022-01-16T10:54:31Z</time>
      </trkpt>
      <trkpt lat="43.3353100" lon="-3.3154270">
        <ele>100.6</ele>
        <time>2022-01-16T10:54:32Z</time>
      </trkpt>
      <trkpt lat="43.3352430" lon="-3.3153980">
        <ele>100.8</ele>
        <time>2022-01-16T10:54:33Z</time>
      </trkpt>
      <trkpt lat="43.3351760" lon="-3.3153720">
        <ele>100.8</ele>
        <time>2022-01-16T10:54:34Z</time>
      </trkpt>
      <trkpt lat="43.3351090" lon="-3.3153440">
        <ele>100.8</ele>
        <time>2022-01-16T10:54:35Z</time>
      </trkpt>
      <trkpt lat="43.3350420" lon="-3.3153120">
        <ele>101.0</ele>
        <time>2022-01-16T10:54:36Z</time>
      </trkpt>
      <trkpt lat="43.3349750" lon="-3.3152830">
        <ele>101.0</ele>
        <time>2022-01-16T10:54:37Z</time>
      </trkpt>
      <trkpt lat="43.3349080" lon="-3.3152550">
        <ele>101.0</ele>
        <time>2022-01-16T10:54:38Z</time>
      </trkpt>
      <trkpt lat="43.3348410" lon="-3.3152270">
        <ele>101.0</ele>
        <time>2022-01-16T10:54:39Z</time>
      </trkpt>
      <trkpt lat="43.3347730" lon="-3.3151990">
        <ele>101.2</ele>
        <time>2022-01-16T10:54:40Z</time>
      </trkpt>
      <trkpt lat="43.3347060" lon="-3.3151700">
        <ele>101.2</ele>
        <time>2022-01-16T10:54:41Z</time>
      </trkpt>
      <trkpt lat="43.3346380" lon="-3.3151390">
        <ele>101.4</ele>
        <time>2022-01-16T10:54:42Z</time>
      </trkpt>
      <trkpt lat="43.3345710" lon="-3.3151100">
        <ele>101.4</ele>
        <time>2022-01-16T10:54:43Z</time>
      </trkpt>
      <trkpt lat="43.3345050" lon="-3.3150800">
        <ele>101.4</ele>
        <time>2022-01-16T10:54:44Z</time>
      </trkpt>
      <trkpt lat="43.3344380" lon="-3.3150470">
        <ele>101.4</ele>
        <time>2022-01-16T10:54:45Z</time>
      </trkpt>
      <trkpt lat="43.3343710" lon="-3.3150140">
        <ele>101.4</ele>
        <time>2022-01-16T10:54:46Z</time>
      </trkpt>
      <trkpt lat="43.3343030" lon="-3.3149840">
        <ele>101.6</ele>
        <time>2022-01-16T10:54:47Z</time>
      </trkpt>
      <trkpt lat="43.3342360" lon="-3.3149530">
        <ele>101.8</ele>
        <time>2022-01-16T10:54:48Z</time>
      </trkpt>
      <trkpt lat="43.3341710" lon="-3.3149220">
        <ele>102.0</ele>
        <time>2022-01-16T10:54:49Z</time>
      </trkpt>
      <trkpt lat="43.3341060" lon="-3.3148890">
        <ele>102.0</ele>
        <time>2022-01-16T10:54:50Z</time>
      </trkpt>
      <trkpt lat="43.3340420" lon="-3.3148530">
        <ele>102.2</ele>
        <time>2022-01-16T10:54:51Z</time>
      </trkpt>
      <trkpt lat="43.3339800" lon="-3.3148140">
        <ele>102.4</ele>
        <time>2022-01-16T10:54:52Z</time>
      </trkpt>
      <trkpt lat="43.3339180" lon="-3.3147700">
        <ele>102.4</ele>
        <time>2022-01-16T10:54:53Z</time>
      </trkpt>
      <trkpt lat="43.3338570" lon="-3.3147250">
        <ele>102.6</ele>
        <time>2022-01-16T10:54:54Z</time>
      </trkpt>
      <trkpt lat="43.3337960" lon="-3.3146770">
        <ele>102.6</ele>
        <time>2022-01-16T10:54:55Z</time>
      </trkpt>
      <trkpt lat="43.3337370" lon="-3.3146270">
        <ele>102.6</ele>
        <time>2022-01-16T10:54:56Z</time>
      </trkpt>
      <trkpt lat="43.3336800" lon="-3.3145710">
        <ele>102.6</ele>
        <time>2022-01-16T10:54:57Z</time>
      </trkpt>
      <trkpt lat="43.3336250" lon="-3.3145130">
        <ele>102.6</ele>
        <time>2022-01-16T10:54:58Z</time>
      </trkpt>
      <trkpt lat="43.3335710" lon="-3.3144500">
        <ele>102.8</ele>
        <time>2022-01-16T10:54:59Z</time>
      </trkpt>
      <trkpt lat="43.3335200" lon="-3.3143850">
        <ele>102.8</ele>
        <time>2022-01-16T10:55:00Z</time>
      </trkpt>
      <trkpt lat="43.3334690" lon="-3.3143170">
        <ele>102.8</ele>
        <time>2022-01-16T10:55:01Z</time>
      </trkpt>
      <trkpt lat="43.3332850" lon="-3.3140260">
        <ele>28.6</ele>
        <time>2022-01-16T10:55:05Z</time>
      </trkpt>
      <trkpt lat="43.3332450" lon="-3.3139480">
        <ele>28.8</ele>
        <time>2022-01-16T10:55:06Z</time>
      </trkpt>
      <trkpt lat="43.3332060" lon="-3.3138670">
        <ele>28.2</ele>
        <time>2022-01-16T10:55:07Z</time>
      </trkpt>
      <trkpt lat="43.3331700" lon="-3.3137830">
        <ele>28.8</ele>
        <time>2022-01-16T10:55:08Z</time>
      </trkpt>
      <trkpt lat="43.3331360" lon="-3.3136980">
        <ele>28.8</ele>
        <time>2022-01-16T10:55:09Z</time>
      </trkpt>
      <trkpt lat="43.3331070" lon="-3.3136120">
        <ele>28.2</ele>
        <time>2022-01-16T10:55:10Z</time>
      </trkpt>
      <trkpt lat="43.3330800" lon="-3.3135200">
        <ele>28.4</ele>
        <time>2022-01-16T10:55:11Z</time>
      </trkpt>
      <trkpt lat="43.3330560" lon="-3.3134280">
        <ele>28.4</ele>
        <time>2022-01-16T10:55:12Z</time>
      </trkpt>
      <trkpt lat="43.3330340" lon="-3.3133350">
        <ele>28.4</ele>
        <time>2022-01-16T10:55:13Z</time>
      </trkpt>
      <trkpt lat="43.3330120" lon="-3.3132400">
        <ele>28.2</ele>
        <time>2022-01-16T10:55:14Z</time>
      </trkpt>
      <trkpt lat="43.3329910" lon="-3.3131440">
        <ele>28.2</ele>
        <time>2022-01-16T10:55:15Z</time>
      </trkpt>
      <trkpt lat="43.3329690" lon="-3.3130480">
        <ele>28.2</ele>
        <time>2022-01-16T10:55:16Z</time>
      </trkpt>
      <trkpt lat="43.3329470" lon="-3.3129520">
        <ele>28.0</ele>
        <time>2022-01-16T10:55:17Z</time>
      </trkpt>
      <trkpt lat="43.3329320" lon="-3.3128540">
        <ele>28.0</ele>
        <time>2022-01-16T10:55:18Z</time>
      </trkpt>
      <trkpt lat="43.3329110" lon="-3.3127600">
        <ele>28.0</ele>
        <time>2022-01-16T10:55:19Z</time>
      </trkpt>
      <trkpt lat="43.3328900" lon="-3.3126670">
        <ele>28.0</ele>
        <time>2022-01-16T10:55:20Z</time>
      </trkpt>
      <trkpt lat="43.3328690" lon="-3.3125740">
        <ele>28.2</ele>
        <time>2022-01-16T10:55:21Z</time>
      </trkpt>
      <trkpt lat="43.3328480" lon="-3.3124810">
        <ele>28.4</ele>
        <time>2022-01-16T10:55:22Z</time>
      </trkpt>
      <trkpt lat="43.3328320" lon="-3.3123870">
        <ele>28.6</ele>
        <time>2022-01-16T10:55:23Z</time>
      </trkpt>
      <trkpt lat="43.3328200" lon="-3.3122920">
        <ele>28.8</ele>
        <time>2022-01-16T10:55:24Z</time>
      </trkpt>
      <trkpt lat="43.3328120" lon="-3.3121960">
        <ele>28.8</ele>
        <time>2022-01-16T10:55:25Z</time>
      </trkpt>
      <trkpt lat="43.3328100" lon="-3.3121010">
        <ele>29.0</ele>
        <time>2022-01-16T10:55:26Z</time>
      </trkpt>
      <trkpt lat="43.3328150" lon="-3.3120040">
        <ele>29.0</ele>
        <time>2022-01-16T10:55:27Z</time>
      </trkpt>
      <trkpt lat="43.3328230" lon="-3.3119070">
        <ele>29.0</ele>
        <time>2022-01-16T10:55:28Z</time>
      </trkpt>
      <trkpt lat="43.3328330" lon="-3.3118100">
        <ele>29.0</ele>
        <time>2022-01-16T10:55:29Z</time>
      </trkpt>
      <trkpt lat="43.3328440" lon="-3.3117130">
        <ele>29.0</ele>
        <time>2022-01-16T10:55:30Z</time>
      </trkpt>
      <trkpt lat="43.3328540" lon="-3.3116170">
        <ele>29.2</ele>
        <time>2022-01-16T10:55:31Z</time>
      </trkpt>
      <trkpt lat="43.3328650" lon="-3.3115220">
        <ele>29.2</ele>
        <time>2022-01-16T10:55:32Z</time>
      </trkpt>
      <trkpt lat="43.3328770" lon="-3.3114270">
        <ele>29.4</ele>
        <time>2022-01-16T10:55:33Z</time>
      </trkpt>
      <trkpt lat="43.3328890" lon="-3.3113330">
        <ele>29.6</ele>
        <time>2022-01-16T10:55:34Z</time>
      </trkpt>
      <trkpt lat="43.3329020" lon="-3.3112390">
        <ele>29.8</ele>
        <time>2022-01-16T10:55:35Z</time>
      </trkpt>
      <trkpt lat="43.3329130" lon="-3.3111460">
        <ele>30.0</ele>
        <time>2022-01-16T10:55:36Z</time>
      </trkpt>
      <trkpt lat="43.3329220" lon="-3.3110540">
        <ele>30.0</ele>
        <time>2022-01-16T10:55:37Z</time>
      </trkpt>
      <trkpt lat="43.3329320" lon="-3.3109640">
        <ele>30.2</ele>
        <time>2022-01-16T10:55:38Z</time>
      </trkpt>
      <trkpt lat="43.3329440" lon="-3.3108750">
        <ele>30.4</ele>
        <time>2022-01-16T10:55:39Z</time>
      </trkpt>
      <trkpt lat="43.3329560" lon="-3.3107870">
        <ele>30.8</ele>
        <time>2022-01-16T10:55:40Z</time>
      </trkpt>
      <trkpt lat="43.3329680" lon="-3.3106990">
        <ele>31.2</ele>
        <time>2022-01-16T10:55:41Z</time>
      </trkpt>
      <trkpt lat="43.3329800" lon="-3.3106100">
        <ele>31.4</ele>
        <time>2022-01-16T10:55:42Z</time>
      </trkpt>
      <trkpt lat="43.3329860" lon="-3.3105220">
        <ele>31.4</ele>
        <time>2022-01-16T10:55:43Z</time>
      </trkpt>
      <trkpt lat="43.3329880" lon="-3.3104320">
        <ele>31.4</ele>
        <time>2022-01-16T10:55:44Z</time>
      </trkpt>
      <trkpt lat="43.3329880" lon="-3.3103420">
        <ele>31.4</ele>
        <time>2022-01-16T10:55:45Z</time>
      </trkpt>
      <trkpt lat="43.3329840" lon="-3.3102510">
        <ele>31.4</ele>
        <time>2022-01-16T10:55:46Z</time>
      </trkpt>
      <trkpt lat="43.3329750" lon="-3.3101610">
        <ele>31.6</ele>
        <time>2022-01-16T10:55:47Z</time>
      </trkpt>
      <trkpt lat="43.3329630" lon="-3.3100740">
        <ele>31.8</ele>
        <time>2022-01-16T10:55:48Z</time>
      </trkpt>
      <trkpt lat="43.3329490" lon="-3.3099900">
        <ele>32.2</ele>
        <time>2022-01-16T10:55:49Z</time>
      </trkpt>
      <trkpt lat="43.3329320" lon="-3.3099070">
        <ele>32.4</ele>
        <time>2022-01-16T10:55:50Z</time>
      </trkpt>
      <trkpt lat="43.3329100" lon="-3.3098220">
        <ele>32.8</ele>
        <time>2022-01-16T10:55:51Z</time>
      </trkpt>
      <trkpt lat="43.3328850" lon="-3.3097400">
        <ele>33.0</ele>
        <time>2022-01-16T10:55:52Z</time>
      </trkpt>
      <trkpt lat="43.3328500" lon="-3.3096680">
        <ele>33.0</ele>
        <time>2022-01-16T10:55:53Z</time>
      </trkpt>
      <trkpt lat="43.3328130" lon="-3.3095990">
        <ele>33.2</ele>
        <time>2022-01-16T10:55:54Z</time>
      </trkpt>
      <trkpt lat="43.3327740" lon="-3.3095350">
        <ele>33.2</ele>
        <time>2022-01-16T10:55:55Z</time>
      </trkpt>
      <trkpt lat="43.3327350" lon="-3.3094670">
        <ele>33.4</ele>
        <time>2022-01-16T10:55:56Z</time>
      </trkpt>
      <trkpt lat="43.3326940" lon="-3.3093950">
        <ele>33.6</ele>
        <time>2022-01-16T10:55:57Z</time>
      </trkpt>
      <trkpt lat="43.3326520" lon="-3.3093230">
        <ele>34.0</ele>
        <time>2022-01-16T10:55:58Z</time>
      </trkpt>
      <trkpt lat="43.3326090" lon="-3.3092530">
        <ele>34.4</ele>
        <time>2022-01-16T10:55:59Z</time>
      </trkpt>
      <trkpt lat="43.3325700" lon="-3.3091820">
        <ele>34.6</ele>
        <time>2022-01-16T10:56:00Z</time>
      </trkpt>
      <trkpt lat="43.3325370" lon="-3.3091110">
        <ele>34.8</ele>
        <time>2022-01-16T10:56:01Z</time>
      </trkpt>
      <trkpt lat="43.3325080" lon="-3.3090380">
        <ele>35.0</ele>
        <time>2022-01-16T10:56:02Z</time>
      </trkpt>
      <trkpt lat="43.3324850" lon="-3.3089630">
        <ele>35.4</ele>
        <time>2022-01-16T10:56:03Z</time>
      </trkpt>
      <trkpt lat="43.3324680" lon="-3.3088870">
        <ele>35.6</ele>
        <time>2022-01-16T10:56:04Z</time>
      </trkpt>
      <trkpt lat="43.3324560" lon="-3.3088050">
        <ele>36.0</ele>
        <time>2022-01-16T10:56:05Z</time>
      </trkpt>
      <trkpt lat="43.3324460" lon="-3.3087230">
        <ele>36.2</ele>
        <time>2022-01-16T10:56:06Z</time>
      </trkpt>
      <trkpt lat="43.3324360" lon="-3.3086400">
        <ele>36.4</ele>
        <time>2022-01-16T10:56:07Z</time>
      </trkpt>
      <trkpt lat="43.3324260" lon="-3.3085560">
        <ele>36.6</ele>
        <time>2022-01-16T10:56:08Z</time>
      </trkpt>
      <trkpt lat="43.3324150" lon="-3.3084740">
        <ele>36.8</ele>
        <time>2022-01-16T10:56:09Z</time>
      </trkpt>
      <trkpt lat="43.3324050" lon="-3.3083930">
        <ele>36.8</ele>
        <time>2022-01-16T10:56:10Z</time>
      </trkpt>
      <trkpt lat="43.3323940" lon="-3.3083080">
        <ele>37.0</ele>
        <time>2022-01-16T10:56:11Z</time>
      </trkpt>
      <trkpt lat="43.3323850" lon="-3.3082200">
        <ele>37.0</ele>
        <time>2022-01-16T10:56:12Z</time>
      </trkpt>
      <trkpt lat="43.3323750" lon="-3.3081310">
        <ele>37.2</ele>
        <time>2022-01-16T10:56:13Z</time>
      </trkpt>
      <trkpt lat="43.3323670" lon="-3.3080430">
        <ele>37.4</ele>
        <time>2022-01-16T10:56:14Z</time>
      </trkpt>
      <trkpt lat="43.3323630" lon="-3.3079560">
        <ele>37.8</ele>
        <time>2022-01-16T10:56:15Z</time>
      </trkpt>
      <trkpt lat="43.3323610" lon="-3.3078680">
        <ele>38.0</ele>
        <time>2022-01-16T10:56:16Z</time>
      </trkpt>
      <trkpt lat="43.3323560" lon="-3.3077850">
        <ele>38.2</ele>
        <time>2022-01-16T10:56:17Z</time>
      </trkpt>
      <trkpt lat="43.3323540" lon="-3.3077030">
        <ele>38.2</ele>
        <time>2022-01-16T10:56:18Z</time>
      </trkpt>
      <trkpt lat="43.3323550" lon="-3.3076170">
        <ele>38.4</ele>
        <time>2022-01-16T10:56:19Z</time>
      </trkpt>
      <trkpt lat="43.3323530" lon="-3.3075320">
        <ele>38.4</ele>
        <time>2022-01-16T10:56:20Z</time>
      </trkpt>
      <trkpt lat="43.3323570" lon="-3.3074470">
        <ele>38.4</ele>
        <time>2022-01-16T10:56:21Z</time>
      </trkpt>
      <trkpt lat="43.3323600" lon="-3.3073640">
        <ele>38.6</ele>
        <time>2022-01-16T10:56:22Z</time>
      </trkpt>
      <trkpt lat="43.3323650" lon="-3.3072830">
        <ele>38.6</ele>
        <time>2022-01-16T10:56:23Z</time>
      </trkpt>
      <trkpt lat="43.3323730" lon="-3.3072020">
        <ele>39.0</ele>
        <time>2022-01-16T10:56:24Z</time>
      </trkpt>
      <trkpt lat="43.3323790" lon="-3.3071200">
        <ele>39.2</ele>
        <time>2022-01-16T10:56:25Z</time>
      </trkpt>
      <trkpt lat="43.3323830" lon="-3.3070370">
        <ele>39.4</ele>
        <time>2022-01-16T10:56:26Z</time>
      </trkpt>
      <trkpt lat="43.3323860" lon="-3.3069550">
        <ele>39.6</ele>
        <time>2022-01-16T10:56:27Z</time>
      </trkpt>
      <trkpt lat="43.3323890" lon="-3.3068710">
        <ele>39.8</ele>
        <time>2022-01-16T10:56:28Z</time>
      </trkpt>
      <trkpt lat="43.3323960" lon="-3.3067880">
        <ele>40.0</ele>
        <time>2022-01-16T10:56:29Z</time>
      </trkpt>
      <trkpt lat="43.3324030" lon="-3.3066980">
        <ele>40.2</ele>
        <time>2022-01-16T10:56:30Z</time>
      </trkpt>
      <trkpt lat="43.3324080" lon="-3.3066100">
        <ele>40.2</ele>
        <time>2022-01-16T10:56:31Z</time>
      </trkpt>
      <trkpt lat="43.3324170" lon="-3.3065230">
        <ele>40.4</ele>
        <time>2022-01-16T10:56:32Z</time>
      </trkpt>
      <trkpt lat="43.3324220" lon="-3.3064430">
        <ele>40.6</ele>
        <time>2022-01-16T10:56:33Z</time>
      </trkpt>
      <trkpt lat="43.3324190" lon="-3.3063750">
        <ele>40.6</ele>
        <time>2022-01-16T10:56:34Z</time>
      </trkpt>
      <trkpt lat="43.3324140" lon="-3.3063020">
        <ele>40.8</ele>
        <time>2022-01-16T10:56:35Z</time>
      </trkpt>
      <trkpt lat="43.3324060" lon="-3.3062280">
        <ele>41.0</ele>
        <time>2022-01-16T10:56:36Z</time>
      </trkpt>
      <trkpt lat="43.3323940" lon="-3.3061470">
        <ele>41.2</ele>
        <time>2022-01-16T10:56:37Z</time>
      </trkpt>
      <trkpt lat="43.3323760" lon="-3.3060700">
        <ele>41.4</ele>
        <time>2022-01-16T10:56:38Z</time>
      </trkpt>
      <trkpt lat="43.3323600" lon="-3.3059960">
        <ele>41.6</ele>
        <time>2022-01-16T10:56:39Z</time>
      </trkpt>
      <trkpt lat="43.3323360" lon="-3.3059220">
        <ele>41.8</ele>
        <time>2022-01-16T10:56:40Z</time>
      </trkpt>
      <trkpt lat="43.3323080" lon="-3.3058470">
        <ele>42.2</ele>
        <time>2022-01-16T10:56:41Z</time>
      </trkpt>
      <trkpt lat="43.3322810" lon="-3.3057780">
        <ele>42.6</ele>
        <time>2022-01-16T10:56:42Z</time>
      </trkpt>
      <trkpt lat="43.3322520" lon="-3.3057020">
        <ele>43.0</ele>
        <time>2022-01-16T10:56:43Z</time>
      </trkpt>
      <trkpt lat="43.3322240" lon="-3.3056130">
        <ele>43.2</ele>
        <time>2022-01-16T10:56:44Z</time>
      </trkpt>
      <trkpt lat="43.3322010" lon="-3.3055290">
        <ele>43.4</ele>
        <time>2022-01-16T10:56:45Z</time>
      </trkpt>
      <trkpt lat="43.3321760" lon="-3.3054490">
        <ele>43.6</ele>
        <time>2022-01-16T10:56:46Z</time>
      </trkpt>
      <trkpt lat="43.3321470" lon="-3.3053790">
        <ele>43.8</ele>
        <time>2022-01-16T10:56:47Z</time>
      </trkpt>
      <trkpt lat="43.3321150" lon="-3.3053070">
        <ele>44.2</ele>
        <time>2022-01-16T10:56:48Z</time>
      </trkpt>
      <trkpt lat="43.3320820" lon="-3.3052400">
        <ele>44.4</ele>
        <time>2022-01-16T10:56:49Z</time>
      </trkpt>
      <trkpt lat="43.3320460" lon="-3.3051660">
        <ele>44.6</ele>
        <time>2022-01-16T10:56:50Z</time>
      </trkpt>
      <trkpt lat="43.3320000" lon="-3.3050890">
        <ele>44.6</ele>
        <time>2022-01-16T10:56:51Z</time>
      </trkpt>
      <trkpt lat="43.3319520" lon="-3.3050160">
        <ele>44.6</ele>
        <time>2022-01-16T10:56:52Z</time>
      </trkpt>
      <trkpt lat="43.3319060" lon="-3.3049550">
        <ele>44.6</ele>
        <time>2022-01-16T10:56:53Z</time>
      </trkpt>
      <trkpt lat="43.3318620" lon="-3.3048950">
        <ele>44.6</ele>
        <time>2022-01-16T10:56:54Z</time>
      </trkpt>
      <trkpt lat="43.3318170" lon="-3.3048390">
        <ele>44.8</ele>
        <time>2022-01-16T10:56:55Z</time>
      </trkpt>
      <trkpt lat="43.3317770" lon="-3.3047880">
        <ele>45.0</ele>
        <time>2022-01-16T10:56:56Z</time>
      </trkpt>
      <trkpt lat="43.3317420" lon="-3.3047350">
        <ele>45.2</ele>
        <time>2022-01-16T10:56:57Z</time>
      </trkpt>
      <trkpt lat="43.3317010" lon="-3.3046610">
        <ele>45.6</ele>
        <time>2022-01-16T10:56:58Z</time>
      </trkpt>
      <trkpt lat="43.3316650" lon="-3.3045930">
        <ele>45.6</ele>
        <time>2022-01-16T10:56:59Z</time>
      </trkpt>
      <trkpt lat="43.3316270" lon="-3.3045140">
        <ele>45.8</ele>
        <time>2022-01-16T10:57:00Z</time>
      </trkpt>
      <trkpt lat="43.3315890" lon="-3.3044250">
        <ele>45.8</ele>
        <time>2022-01-16T10:57:01Z</time>
      </trkpt>
      <trkpt lat="43.3315580" lon="-3.3043370">
        <ele>45.8</ele>
        <time>2022-01-16T10:57:02Z</time>
      </trkpt>
      <trkpt lat="43.3315320" lon="-3.3042630">
        <ele>46.0</ele>
        <time>2022-01-16T10:57:03Z</time>
      </trkpt>
      <trkpt lat="43.3315030" lon="-3.3041830">
        <ele>46.0</ele>
        <time>2022-01-16T10:57:04Z</time>
      </trkpt>
      <trkpt lat="43.3314730" lon="-3.3041080">
        <ele>46.2</ele>
        <time>2022-01-16T10:57:05Z</time>
      </trkpt>
      <trkpt lat="43.3314370" lon="-3.3040270">
        <ele>46.2</ele>
        <time>2022-01-16T10:57:06Z</time>
      </trkpt>
      <trkpt lat="43.3313980" lon="-3.3039420">
        <ele>46.2</ele>
        <time>2022-01-16T10:57:07Z</time>
      </trkpt>
      <trkpt lat="43.3313600" lon="-3.3038630">
        <ele>46.2</ele>
        <time>2022-01-16T10:57:08Z</time>
      </trkpt>
      <trkpt lat="43.3313200" lon="-3.3037840">
        <ele>46.2</ele>
        <time>2022-01-16T10:57:09Z</time>
      </trkpt>
      <trkpt lat="43.3312790" lon="-3.3037040">
        <ele>46.2</ele>
        <time>2022-01-16T10:57:10Z</time>
      </trkpt>
      <trkpt lat="43.3312340" lon="-3.3036150">
        <ele>46.2</ele>
        <time>2022-01-16T10:57:11Z</time>
      </trkpt>
      <trkpt lat="43.3311910" lon="-3.3035380">
        <ele>46.2</ele>
        <time>2022-01-16T10:57:12Z</time>
      </trkpt>
      <trkpt lat="43.3311510" lon="-3.3034670">
        <ele>46.2</ele>
        <time>2022-01-16T10:57:13Z</time>
      </trkpt>
      <trkpt lat="43.3311180" lon="-3.3034050">
        <ele>46.4</ele>
        <time>2022-01-16T10:57:14Z</time>
      </trkpt>
      <trkpt lat="43.3310860" lon="-3.3033340">
        <ele>46.6</ele>
        <time>2022-01-16T10:57:15Z</time>
      </trkpt>
      <trkpt lat="43.3310530" lon="-3.3032650">
        <ele>47.0</ele>
        <time>2022-01-16T10:57:16Z</time>
      </trkpt>
      <trkpt lat="43.3310190" lon="-3.3031920">
        <ele>47.2</ele>
        <time>2022-01-16T10:57:17Z</time>
      </trkpt>
      <trkpt lat="43.3309850" lon="-3.3031220">
        <ele>47.6</ele>
        <time>2022-01-16T10:57:18Z</time>
      </trkpt>
      <trkpt lat="43.3309510" lon="-3.3030530">
        <ele>48.0</ele>
        <time>2022-01-16T10:57:19Z</time>
      </trkpt>
      <trkpt lat="43.3309140" lon="-3.3029820">
        <ele>48.2</ele>
        <time>2022-01-16T10:57:20Z</time>
      </trkpt>
      <trkpt lat="43.3308820" lon="-3.3029140">
        <ele>48.4</ele>
        <time>2022-01-16T10:57:21Z</time>
      </trkpt>
      <trkpt lat="43.3308500" lon="-3.3028380">
        <ele>48.8</ele>
        <time>2022-01-16T10:57:22Z</time>
      </trkpt>
      <trkpt lat="43.3308200" lon="-3.3027640">
        <ele>49.0</ele>
        <time>2022-01-16T10:57:23Z</time>
      </trkpt>
      <trkpt lat="43.3307780" lon="-3.3026710">
        <ele>49.2</ele>
        <time>2022-01-16T10:57:24Z</time>
      </trkpt>
      <trkpt lat="43.3307370" lon="-3.3025790">
        <ele>49.4</ele>
        <time>2022-01-16T10:57:25Z</time>
      </trkpt>
      <trkpt lat="43.3306980" lon="-3.3024870">
        <ele>49.6</ele>
        <time>2022-01-16T10:57:26Z</time>
      </trkpt>
      <trkpt lat="43.3306610" lon="-3.3024040">
        <ele>49.6</ele>
        <time>2022-01-16T10:57:27Z</time>
      </trkpt>
      <trkpt lat="43.3306260" lon="-3.3023200">
        <ele>49.8</ele>
        <time>2022-01-16T10:57:28Z</time>
      </trkpt>
      <trkpt lat="43.3305850" lon="-3.3022420">
        <ele>49.8</ele>
        <time>2022-01-16T10:57:29Z</time>
      </trkpt>
      <trkpt lat="43.3305410" lon="-3.3021700">
        <ele>50.0</ele>
        <time>2022-01-16T10:57:30Z</time>
      </trkpt>
      <trkpt lat="43.3304960" lon="-3.3021050">
        <ele>50.2</ele>
        <time>2022-01-16T10:57:31Z</time>
      </trkpt>
      <trkpt lat="43.3304510" lon="-3.3020430">
        <ele>50.2</ele>
        <time>2022-01-16T10:57:32Z</time>
      </trkpt>
      <trkpt lat="43.3304020" lon="-3.3019830">
        <ele>50.2</ele>
        <time>2022-01-16T10:57:33Z</time>
      </trkpt>
      <trkpt lat="43.3303500" lon="-3.3019280">
        <ele>50.2</ele>
        <time>2022-01-16T10:57:34Z</time>
      </trkpt>
      <trkpt lat="43.3302990" lon="-3.3018720">
        <ele>50.4</ele>
        <time>2022-01-16T10:57:35Z</time>
      </trkpt>
      <trkpt lat="43.3302460" lon="-3.3018170">
        <ele>50.4</ele>
        <time>2022-01-16T10:57:36Z</time>
      </trkpt>
      <trkpt lat="43.3301970" lon="-3.3017580">
        <ele>50.6</ele>
        <time>2022-01-16T10:57:37Z</time>
      </trkpt>
      <trkpt lat="43.3301500" lon="-3.3016990">
        <ele>50.8</ele>
        <time>2022-01-16T10:57:38Z</time>
      </trkpt>
      <trkpt lat="43.3301010" lon="-3.3016440">
        <ele>51.0</ele>
        <time>2022-01-16T10:57:39Z</time>
      </trkpt>
      <trkpt lat="43.3300560" lon="-3.3015850">
        <ele>51.0</ele>
        <time>2022-01-16T10:57:40Z</time>
      </trkpt>
      <trkpt lat="43.3300150" lon="-3.3015230">
        <ele>51.0</ele>
        <time>2022-01-16T10:57:41Z</time>
      </trkpt>
      <trkpt lat="43.3299730" lon="-3.3014550">
        <ele>51.0</ele>
        <time>2022-01-16T10:57:42Z</time>
      </trkpt>
      <trkpt lat="43.3299310" lon="-3.3013780">
        <ele>51.0</ele>
        <time>2022-01-16T10:57:43Z</time>
      </trkpt>
      <trkpt lat="43.3298890" lon="-3.3012940">
        <ele>51.0</ele>
        <time>2022-01-16T10:57:44Z</time>
      </trkpt>
      <trkpt lat="43.3298480" lon="-3.3012100">
        <ele>51.0</ele>
        <time>2022-01-16T10:57:45Z</time>
      </trkpt>
      <trkpt lat="43.3298070" lon="-3.3011290">
        <ele>51.2</ele>
        <time>2022-01-16T10:57:46Z</time>
      </trkpt>
      <trkpt lat="43.3297680" lon="-3.3010450">
        <ele>51.2</ele>
        <time>2022-01-16T10:57:47Z</time>
      </trkpt>
      <trkpt lat="43.3297300" lon="-3.3009600">
        <ele>51.2</ele>
        <time>2022-01-16T10:57:48Z</time>
      </trkpt>
      <trkpt lat="43.3296910" lon="-3.3008740">
        <ele>51.4</ele>
        <time>2022-01-16T10:57:49Z</time>
      </trkpt>
      <trkpt lat="43.3296570" lon="-3.3007850">
        <ele>51.2</ele>
        <time>2022-01-16T10:57:50Z</time>
      </trkpt>
      <trkpt lat="43.3296250" lon="-3.3006970">
        <ele>51.4</ele>
        <time>2022-01-16T10:57:51Z</time>
      </trkpt>
      <trkpt lat="43.3295930" lon="-3.3006100">
        <ele>51.2</ele>
        <time>2022-01-16T10:57:52Z</time>
      </trkpt>
      <trkpt lat="43.3295590" lon="-3.3005180">
        <ele>51.4</ele>
        <time>2022-01-16T10:57:53Z</time>
      </trkpt>
      <trkpt lat="43.3295220" lon="-3.3004290">
        <ele>51.2</ele>
        <time>2022-01-16T10:57:54Z</time>
      </trkpt>
      <trkpt lat="43.3294830" lon="-3.3003440">
        <ele>51.2</ele>
        <time>2022-01-16T10:57:55Z</time>
      </trkpt>
      <trkpt lat="43.3294430" lon="-3.3002580">
        <ele>51.2</ele>
        <time>2022-01-16T10:57:56Z</time>
      </trkpt>
      <trkpt lat="43.3294000" lon="-3.3001750">
        <ele>51.0</ele>
        <time>2022-01-16T10:57:57Z</time>
      </trkpt>
      <trkpt lat="43.3293550" lon="-3.3000960">
        <ele>51.0</ele>
        <time>2022-01-16T10:57:58Z</time>
      </trkpt>
      <trkpt lat="43.3293070" lon="-3.3000150">
        <ele>51.0</ele>
        <time>2022-01-16T10:57:59Z</time>
      </trkpt>
      <trkpt lat="43.3292560" lon="-3.2999390">
        <ele>50.8</ele>
        <time>2022-01-16T10:58:00Z</time>
      </trkpt>
      <trkpt lat="43.3292000" lon="-3.2998660">
        <ele>50.8</ele>
        <time>2022-01-16T10:58:01Z</time>
      </trkpt>
      <trkpt lat="43.3291420" lon="-3.2997980">
        <ele>51.0</ele>
        <time>2022-01-16T10:58:02Z</time>
      </trkpt>
      <trkpt lat="43.3290840" lon="-3.2997310">
        <ele>51.0</ele>
        <time>2022-01-16T10:58:03Z</time>
      </trkpt>
      <trkpt lat="43.3290260" lon="-3.2996710">
        <ele>51.0</ele>
        <time>2022-01-16T10:58:04Z</time>
      </trkpt>
      <trkpt lat="43.3289680" lon="-3.2996200">
        <ele>51.0</ele>
        <time>2022-01-16T10:58:05Z</time>
      </trkpt>
      <trkpt lat="43.3289100" lon="-3.2995720">
        <ele>51.0</ele>
        <time>2022-01-16T10:58:06Z</time>
      </trkpt>
      <trkpt lat="43.3288510" lon="-3.2995230">
        <ele>51.2</ele>
        <time>2022-01-16T10:58:07Z</time>
      </trkpt>
      <trkpt lat="43.3287910" lon="-3.2994730">
        <ele>51.2</ele>
        <time>2022-01-16T10:58:08Z</time>
      </trkpt>
      <trkpt lat="43.3287270" lon="-3.2994310">
        <ele>51.2</ele>
        <time>2022-01-16T10:58:09Z</time>
      </trkpt>
      <trkpt lat="43.3286610" lon="-3.2993870">
        <ele>51.2</ele>
        <time>2022-01-16T10:58:10Z</time>
      </trkpt>
      <trkpt lat="43.3285950" lon="-3.2993400">
        <ele>51.4</ele>
        <time>2022-01-16T10:58:11Z</time>
      </trkpt>
      <trkpt lat="43.3285280" lon="-3.2992970">
        <ele>51.4</ele>
        <time>2022-01-16T10:58:12Z</time>
      </trkpt>
      <trkpt lat="43.3284640" lon="-3.2992570">
        <ele>51.6</ele>
        <time>2022-01-16T10:58:13Z</time>
      </trkpt>
      <trkpt lat="43.3284020" lon="-3.2992160">
        <ele>51.8</ele>
        <time>2022-01-16T10:58:14Z</time>
      </trkpt>
      <trkpt lat="43.3283410" lon="-3.2991810">
        <ele>51.8</ele>
        <time>2022-01-16T10:58:15Z</time>
      </trkpt>
      <trkpt lat="43.3282760" lon="-3.2991410">
        <ele>52.0</ele>
        <time>2022-01-16T10:58:16Z</time>
      </trkpt>
      <trkpt lat="43.3282150" lon="-3.2991060">
        <ele>52.0</ele>
        <time>2022-01-16T10:58:17Z</time>
      </trkpt>
      <trkpt lat="43.3281540" lon="-3.2990630">
        <ele>52.2</ele>
        <time>2022-01-16T10:58:18Z</time>
      </trkpt>
      <trkpt lat="43.3280920" lon="-3.2990210">
        <ele>52.2</ele>
        <time>2022-01-16T10:58:19Z</time>
      </trkpt>
      <trkpt lat="43.3280280" lon="-3.2989720">
        <ele>52.4</ele>
        <time>2022-01-16T10:58:20Z</time>
      </trkpt>
      <trkpt lat="43.3279680" lon="-3.2989240">
        <ele>52.4</ele>
        <time>2022-01-16T10:58:21Z</time>
      </trkpt>
      <trkpt lat="43.3279140" lon="-3.2988710">
        <ele>52.6</ele>
        <time>2022-01-16T10:58:22Z</time>
      </trkpt>
      <trkpt lat="43.3278600" lon="-3.2988160">
        <ele>52.8</ele>
        <time>2022-01-16T10:58:23Z</time>
      </trkpt>
      <trkpt lat="43.3278070" lon="-3.2987590">
        <ele>52.8</ele>
        <time>2022-01-16T10:58:24Z</time>
      </trkpt>
      <trkpt lat="43.3277540" lon="-3.2987030">
        <ele>53.0</ele>
        <time>2022-01-16T10:58:25Z</time>
      </trkpt>
      <trkpt lat="43.3277030" lon="-3.2986460">
        <ele>53.2</ele>
        <time>2022-01-16T10:58:26Z</time>
      </trkpt>
      <trkpt lat="43.3276640" lon="-3.2986080">
        <ele>53.4</ele>
        <time>2022-01-16T10:58:27Z</time>
      </trkpt>
      <trkpt lat="43.3276160" lon="-3.2985490">
        <ele>53.6</ele>
        <time>2022-01-16T10:58:28Z</time>
      </trkpt>
      <trkpt lat="43.3275700" lon="-3.2984890">
        <ele>53.8</ele>
        <time>2022-01-16T10:58:29Z</time>
      </trkpt>
      <trkpt lat="43.3275260" lon="-3.2984250">
        <ele>54.2</ele>
        <time>2022-01-16T10:58:30Z</time>
      </trkpt>
      <trkpt lat="43.3274800" lon="-3.2983590">
        <ele>54.4</ele>
        <time>2022-01-16T10:58:31Z</time>
      </trkpt>
      <trkpt lat="43.3274350" lon="-3.2982930">
        <ele>54.6</ele>
        <time>2022-01-16T10:58:32Z</time>
      </trkpt>
      <trkpt lat="43.3273920" lon="-3.2982250">
        <ele>55.0</ele>
        <time>2022-01-16T10:58:33Z</time>
      </trkpt>
      <trkpt lat="43.3273510" lon="-3.2981540">
        <ele>55.2</ele>
        <time>2022-01-16T10:58:34Z</time>
      </trkpt>
      <trkpt lat="43.3273140" lon="-3.2980830">
        <ele>55.8</ele>
        <time>2022-01-16T10:58:35Z</time>
      </trkpt>
      <trkpt lat="43.3272790" lon="-3.2980110">
        <ele>56.0</ele>
        <time>2022-01-16T10:58:36Z</time>
      </trkpt>
      <trkpt lat="43.3272450" lon="-3.2979390">
        <ele>56.4</ele>
        <time>2022-01-16T10:58:37Z</time>
      </trkpt>
      <trkpt lat="43.3272120" lon="-3.2978670">
        <ele>56.6</ele>
        <time>2022-01-16T10:58:38Z</time>
      </trkpt>
      <trkpt lat="43.3271800" lon="-3.2977950">
        <ele>56.8</ele>
        <time>2022-01-16T10:58:39Z</time>
      </trkpt>
      <trkpt lat="43.3271510" lon="-3.2977190">
        <ele>56.8</ele>
        <time>2022-01-16T10:58:40Z</time>
      </trkpt>
      <trkpt lat="43.3271200" lon="-3.2976490">
        <ele>57.0</ele>
        <time>2022-01-16T10:58:41Z</time>
      </trkpt>
      <trkpt lat="43.3270880" lon="-3.2975800">
        <ele>57.4</ele>
        <time>2022-01-16T10:58:42Z</time>
      </trkpt>
      <trkpt lat="43.3270570" lon="-3.2975100">
        <ele>57.6</ele>
        <time>2022-01-16T10:58:43Z</time>
      </trkpt>
      <trkpt lat="43.3270280" lon="-3.2974410">
        <ele>58.2</ele>
        <time>2022-01-16T10:58:44Z</time>
      </trkpt>
      <trkpt lat="43.3270010" lon="-3.2973710">
        <ele>58.6</ele>
        <time>2022-01-16T10:58:45Z</time>
      </trkpt>
      <trkpt lat="43.3269760" lon="-3.2973020">
        <ele>59.0</ele>
        <time>2022-01-16T10:58:46Z</time>
      </trkpt>
      <trkpt lat="43.3269470" lon="-3.2972340">
        <ele>59.2</ele>
        <time>2022-01-16T10:58:47Z</time>
      </trkpt>
      <trkpt lat="43.3269240" lon="-3.2971650">
        <ele>59.4</ele>
        <time>2022-01-16T10:58:48Z</time>
      </trkpt>
      <trkpt lat="43.3269050" lon="-3.2970980">
        <ele>59.8</ele>
        <time>2022-01-16T10:58:49Z</time>
      </trkpt>
      <trkpt lat="43.3268900" lon="-3.2970360">
        <ele>60.0</ele>
        <time>2022-01-16T10:58:50Z</time>
      </trkpt>
      <trkpt lat="43.3268740" lon="-3.2969750">
        <ele>60.2</ele>
        <time>2022-01-16T10:58:51Z</time>
      </trkpt>
      <trkpt lat="43.3268670" lon="-3.2969100">
        <ele>60.4</ele>
        <time>2022-01-16T10:58:52Z</time>
      </trkpt>
      <trkpt lat="43.3268580" lon="-3.2968440">
        <ele>60.4</ele>
        <time>2022-01-16T10:58:53Z</time>
      </trkpt>
      <trkpt lat="43.3268470" lon="-3.2967790">
        <ele>60.6</ele>
        <time>2022-01-16T10:58:54Z</time>
      </trkpt>
      <trkpt lat="43.3268400" lon="-3.2967160">
        <ele>60.8</ele>
        <time>2022-01-16T10:58:55Z</time>
      </trkpt>
      <trkpt lat="43.3268530" lon="-3.2966380">
        <ele>60.8</ele>
        <time>2022-01-16T10:58:56Z</time>
      </trkpt>
      <trkpt lat="43.3268660" lon="-3.2965630">
        <ele>61.0</ele>
        <time>2022-01-16T10:58:57Z</time>
      </trkpt>
      <trkpt lat="43.3268770" lon="-3.2964890">
        <ele>61.4</ele>
        <time>2022-01-16T10:58:58Z</time>
      </trkpt>
      <trkpt lat="43.3268870" lon="-3.2964160">
        <ele>61.8</ele>
        <time>2022-01-16T10:58:59Z</time>
      </trkpt>
      <trkpt lat="43.3268970" lon="-3.2963430">
        <ele>62.0</ele>
        <time>2022-01-16T10:59:00Z</time>
      </trkpt>
      <trkpt lat="43.3269020" lon="-3.2962710">
        <ele>62.4</ele>
        <time>2022-01-16T10:59:01Z</time>
      </trkpt>
      <trkpt lat="43.3269070" lon="-3.2962000">
        <ele>62.6</ele>
        <time>2022-01-16T10:59:02Z</time>
      </trkpt>
      <trkpt lat="43.3269140" lon="-3.2961300">
        <ele>62.8</ele>
        <time>2022-01-16T10:59:03Z</time>
      </trkpt>
      <trkpt lat="43.3269240" lon="-3.2960690">
        <ele>63.0</ele>
        <time>2022-01-16T10:59:04Z</time>
      </trkpt>
      <trkpt lat="43.3269350" lon="-3.2960130">
        <ele>63.0</ele>
        <time>2022-01-16T10:59:05Z</time>
      </trkpt>
      <trkpt lat="43.3269500" lon="-3.2959600">
        <ele>63.2</ele>
        <time>2022-01-16T10:59:06Z</time>
      </trkpt>
      <trkpt lat="43.3269610" lon="-3.2959020">
        <ele>63.4</ele>
        <time>2022-01-16T10:59:07Z</time>
      </trkpt>
      <trkpt lat="43.3269770" lon="-3.2958350">
        <ele>63.6</ele>
        <time>2022-01-16T10:59:08Z</time>
      </trkpt>
      <trkpt lat="43.3269910" lon="-3.2957670">
        <ele>64.0</ele>
        <time>2022-01-16T10:59:09Z</time>
      </trkpt>
      <trkpt lat="43.3270080" lon="-3.2956930">
        <ele>64.0</ele>
        <time>2022-01-16T10:59:10Z</time>
      </trkpt>
      <trkpt lat="43.3270200" lon="-3.2956060">
        <ele>64.2</ele>
        <time>2022-01-16T10:59:11Z</time>
      </trkpt>
      <trkpt lat="43.3270300" lon="-3.2955210">
        <ele>64.0</ele>
        <time>2022-01-16T10:59:12Z</time>
      </trkpt>
      <trkpt lat="43.3270360" lon="-3.2954350">
        <ele>64.0</ele>
        <time>2022-01-16T10:59:13Z</time>
      </trkpt>
      <trkpt lat="43.3270420" lon="-3.2953510">
        <ele>63.8</ele>
        <time>2022-01-16T10:59:14Z</time>
      </trkpt>
      <trkpt lat="43.3270440" lon="-3.2952610">
        <ele>63.6</ele>
        <time>2022-01-16T10:59:15Z</time>
      </trkpt>
      <trkpt lat="43.3270420" lon="-3.2951760">
        <ele>63.4</ele>
        <time>2022-01-16T10:59:16Z</time>
      </trkpt>
      <trkpt lat="43.3270330" lon="-3.2950930">
        <ele>63.2</ele>
        <time>2022-01-16T10:59:17Z</time>
      </trkpt>
      <trkpt lat="43.3270240" lon="-3.2950020">
        <ele>63.2</ele>
        <time>2022-01-16T10:59:18Z</time>
      </trkpt>
      <trkpt lat="43.3270110" lon="-3.2949070">
        <ele>63.0</ele>
        <time>2022-01-16T10:59:19Z</time>
      </trkpt>
      <trkpt lat="43.3269980" lon="-3.2948190">
        <ele>63.0</ele>
        <time>2022-01-16T10:59:20Z</time>
      </trkpt>
      <trkpt lat="43.3269840" lon="-3.2947390">
        <ele>62.8</ele>
        <time>2022-01-16T10:59:21Z</time>
      </trkpt>
      <trkpt lat="43.3269730" lon="-3.2946450">
        <ele>62.8</ele>
        <time>2022-01-16T10:59:22Z</time>
      </trkpt>
      <trkpt lat="43.3269710" lon="-3.2945480">
        <ele>62.6</ele>
        <time>2022-01-16T10:59:23Z</time>
      </trkpt>
      <trkpt lat="43.3269760" lon="-3.2944400">
        <ele>62.2</ele>
        <time>2022-01-16T10:59:24Z</time>
      </trkpt>
      <trkpt lat="43.3269840" lon="-3.2943260">
        <ele>62.0</ele>
        <time>2022-01-16T10:59:25Z</time>
      </trkpt>
      <trkpt lat="43.3269880" lon="-3.2942080">
        <ele>61.4</ele>
        <time>2022-01-16T10:59:26Z</time>
      </trkpt>
      <trkpt lat="43.3269820" lon="-3.2940850">
        <ele>61.2</ele>
        <time>2022-01-16T10:59:27Z</time>
      </trkpt>
      <trkpt lat="43.3269680" lon="-3.2939650">
        <ele>60.8</ele>
        <time>2022-01-16T10:59:28Z</time>
      </trkpt>
      <trkpt lat="43.3269430" lon="-3.2938460">
        <ele>60.6</ele>
        <time>2022-01-16T10:59:29Z</time>
      </trkpt>
      <trkpt lat="43.3269110" lon="-3.2937340">
        <ele>60.6</ele>
        <time>2022-01-16T10:59:30Z</time>
      </trkpt>
      <trkpt lat="43.3268730" lon="-3.2936310">
        <ele>60.4</ele>
        <time>2022-01-16T10:59:31Z</time>
      </trkpt>
      <trkpt lat="43.3268280" lon="-3.2935330">
        <ele>60.4</ele>
        <time>2022-01-16T10:59:32Z</time>
      </trkpt>
      <trkpt lat="43.3267730" lon="-3.2934440">
        <ele>60.4</ele>
        <time>2022-01-16T10:59:33Z</time>
      </trkpt>
      <trkpt lat="43.3267110" lon="-3.2933650">
        <ele>60.2</ele>
        <time>2022-01-16T10:59:34Z</time>
      </trkpt>
      <trkpt lat="43.3266440" lon="-3.2933010">
        <ele>60.2</ele>
        <time>2022-01-16T10:59:35Z</time>
      </trkpt>
      <trkpt lat="43.3265730" lon="-3.2932440">
        <ele>60.2</ele>
        <time>2022-01-16T10:59:36Z</time>
      </trkpt>
      <trkpt lat="43.3265020" lon="-3.2931930">
        <ele>60.2</ele>
        <time>2022-01-16T10:59:37Z</time>
      </trkpt>
      <trkpt lat="43.3264260" lon="-3.2931280">
        <ele>60.2</ele>
        <time>2022-01-16T10:59:38Z</time>
      </trkpt>
      <trkpt lat="43.3263540" lon="-3.2930660">
        <ele>60.2</ele>
        <time>2022-01-16T10:59:39Z</time>
      </trkpt>
      <trkpt lat="43.3262830" lon="-3.2929940">
        <ele>60.4</ele>
        <time>2022-01-16T10:59:40Z</time>
      </trkpt>
      <trkpt lat="43.3262130" lon="-3.2929300">
        <ele>60.6</ele>
        <time>2022-01-16T10:59:41Z</time>
      </trkpt>
      <trkpt lat="43.3261440" lon="-3.2928750">
        <ele>60.6</ele>
        <time>2022-01-16T10:59:42Z</time>
      </trkpt>
      <trkpt lat="43.3260740" lon="-3.2928270">
        <ele>60.8</ele>
        <time>2022-01-16T10:59:43Z</time>
      </trkpt>
      <trkpt lat="43.3259970" lon="-3.2927920">
        <ele>61.0</ele>
        <time>2022-01-16T10:59:44Z</time>
      </trkpt>
      <trkpt lat="43.3259230" lon="-3.2927730">
        <ele>61.2</ele>
        <time>2022-01-16T10:59:45Z</time>
      </trkpt>
      <trkpt lat="43.3258490" lon="-3.2927680">
        <ele>61.4</ele>
        <time>2022-01-16T10:59:46Z</time>
      </trkpt>
      <trkpt lat="43.3257750" lon="-3.2927640">
        <ele>61.8</ele>
        <time>2022-01-16T10:59:47Z</time>
      </trkpt>
      <trkpt lat="43.3257020" lon="-3.2927620">
        <ele>62.2</ele>
        <time>2022-01-16T10:59:48Z</time>
      </trkpt>
      <trkpt lat="43.3256300" lon="-3.2927570">
        <ele>62.6</ele>
        <time>2022-01-16T10:59:49Z</time>
      </trkpt>
      <trkpt lat="43.3255610" lon="-3.2927480">
        <ele>62.8</ele>
        <time>2022-01-16T10:59:50Z</time>
      </trkpt>
      <trkpt lat="43.3254920" lon="-3.2927380">
        <ele>63.2</ele>
        <time>2022-01-16T10:59:51Z</time>
      </trkpt>
      <trkpt lat="43.3254250" lon="-3.2927290">
        <ele>63.4</ele>
        <time>2022-01-16T10:59:52Z</time>
      </trkpt>
      <trkpt lat="43.3253610" lon="-3.2927150">
        <ele>63.8</ele>
        <time>2022-01-16T10:59:53Z</time>
      </trkpt>
      <trkpt lat="43.3253010" lon="-3.2926940">
        <ele>64.0</ele>
        <time>2022-01-16T10:59:54Z</time>
      </trkpt>
      <trkpt lat="43.3252420" lon="-3.2926740">
        <ele>64.4</ele>
        <time>2022-01-16T10:59:55Z</time>
      </trkpt>
      <trkpt lat="43.3251800" lon="-3.2926410">
        <ele>64.6</ele>
        <time>2022-01-16T10:59:56Z</time>
      </trkpt>
      <trkpt lat="43.3251210" lon="-3.2926050">
        <ele>65.0</ele>
        <time>2022-01-16T10:59:57Z</time>
      </trkpt>
      <trkpt lat="43.3250710" lon="-3.2925570">
        <ele>65.4</ele>
        <time>2022-01-16T10:59:58Z</time>
      </trkpt>
      <trkpt lat="43.3250220" lon="-3.2925030">
        <ele>65.8</ele>
        <time>2022-01-16T10:59:59Z</time>
      </trkpt>
      <trkpt lat="43.3249790" lon="-3.2924440">
        <ele>66.0</ele>
        <time>2022-01-16T11:00:00Z</time>
      </trkpt>
      <trkpt lat="43.3249410" lon="-3.2923780">
        <ele>66.4</ele>
        <time>2022-01-16T11:00:01Z</time>
      </trkpt>
      <trkpt lat="43.3249090" lon="-3.2923090">
        <ele>66.6</ele>
        <time>2022-01-16T11:00:02Z</time>
      </trkpt>
      <trkpt lat="43.3248840" lon="-3.2922400">
        <ele>67.0</ele>
        <time>2022-01-16T11:00:03Z</time>
      </trkpt>
      <trkpt lat="43.3248630" lon="-3.2921640">
        <ele>67.4</ele>
        <time>2022-01-16T11:00:04Z</time>
      </trkpt>
      <trkpt lat="43.3248490" lon="-3.2920820">
        <ele>67.8</ele>
        <time>2022-01-16T11:00:05Z</time>
      </trkpt>
      <trkpt lat="43.3248390" lon="-3.2919990">
        <ele>68.0</ele>
        <time>2022-01-16T11:00:06Z</time>
      </trkpt>
      <trkpt lat="43.3248300" lon="-3.2919180">
        <ele>68.2</ele>
        <time>2022-01-16T11:00:07Z</time>
      </trkpt>
      <trkpt lat="43.3248320" lon="-3.2918370">
        <ele>68.4</ele>
        <time>2022-01-16T11:00:08Z</time>
      </trkpt>
      <trkpt lat="43.3248420" lon="-3.2917550">
        <ele>68.6</ele>
        <time>2022-01-16T11:00:09Z</time>
      </trkpt>
      <trkpt lat="43.3248520" lon="-3.2916720">
        <ele>68.6</ele>
        <time>2022-01-16T11:00:10Z</time>
      </trkpt>
      <trkpt lat="43.3248650" lon="-3.2915910">
        <ele>69.0</ele>
        <time>2022-01-16T11:00:11Z</time>
      </trkpt>
      <trkpt lat="43.3248750" lon="-3.2915070">
        <ele>69.0</ele>
        <time>2022-01-16T11:00:12Z</time>
      </trkpt>
      <trkpt lat="43.3248920" lon="-3.2914210">
        <ele>69.2</ele>
        <time>2022-01-16T11:00:13Z</time>
      </trkpt>
      <trkpt lat="43.3249050" lon="-3.2913330">
        <ele>69.2</ele>
        <time>2022-01-16T11:00:14Z</time>
      </trkpt>
      <trkpt lat="43.3249130" lon="-3.2912450">
        <ele>69.6</ele>
        <time>2022-01-16T11:00:15Z</time>
      </trkpt>
      <trkpt lat="43.3249210" lon="-3.2911590">
        <ele>69.8</ele>
        <time>2022-01-16T11:00:16Z</time>
      </trkpt>
      <trkpt lat="43.3249270" lon="-3.2910760">
        <ele>70.0</ele>
        <time>2022-01-16T11:00:17Z</time>
      </trkpt>
      <trkpt lat="43.3249350" lon="-3.2909890">
        <ele>70.0</ele>
        <time>2022-01-16T11:00:18Z</time>
      </trkpt>
      <trkpt lat="43.3249410" lon="-3.2909030">
        <ele>70.2</ele>
        <time>2022-01-16T11:00:19Z</time>
      </trkpt>
      <trkpt lat="43.3249450" lon="-3.2908160">
        <ele>70.2</ele>
        <time>2022-01-16T11:00:20Z</time>
      </trkpt>
      <trkpt lat="43.3249450" lon="-3.2907280">
        <ele>70.4</ele>
        <time>2022-01-16T11:00:21Z</time>
      </trkpt>
      <trkpt lat="43.3249420" lon="-3.2906410">
        <ele>70.4</ele>
        <time>2022-01-16T11:00:22Z</time>
      </trkpt>
      <trkpt lat="43.3249380" lon="-3.2905540">
        <ele>70.4</ele>
        <time>2022-01-16T11:00:23Z</time>
      </trkpt>
      <trkpt lat="43.3249330" lon="-3.2904680">
        <ele>70.6</ele>
        <time>2022-01-16T11:00:24Z</time>
      </trkpt>
      <trkpt lat="43.3249250" lon="-3.2903800">
        <ele>70.6</ele>
        <time>2022-01-16T11:00:25Z</time>
      </trkpt>
      <trkpt lat="43.3249140" lon="-3.2902910">
        <ele>70.6</ele>
        <time>2022-01-16T11:00:26Z</time>
      </trkpt>
      <trkpt lat="43.3248970" lon="-3.2902040">
        <ele>70.6</ele>
        <time>2022-01-16T11:00:27Z</time>
      </trkpt>
      <trkpt lat="43.3248790" lon="-3.2901160">
        <ele>70.8</ele>
        <time>2022-01-16T11:00:28Z</time>
      </trkpt>
      <trkpt lat="43.3248590" lon="-3.2900300">
        <ele>70.8</ele>
        <time>2022-01-16T11:00:29Z</time>
      </trkpt>
      <trkpt lat="43.3248340" lon="-3.2899460">
        <ele>71.0</ele>
        <time>2022-01-16T11:00:30Z</time>
      </trkpt>
      <trkpt lat="43.3248050" lon="-3.2898620">
        <ele>71.0</ele>
        <time>2022-01-16T11:00:31Z</time>
      </trkpt>
      <trkpt lat="43.3247770" lon="-3.2897790">
        <ele>71.0</ele>
        <time>2022-01-16T11:00:32Z</time>
      </trkpt>
      <trkpt lat="43.3247440" lon="-3.2896970">
        <ele>71.0</ele>
        <time>2022-01-16T11:00:33Z</time>
      </trkpt>
      <trkpt lat="43.3247090" lon="-3.2896140">
        <ele>71.0</ele>
        <time>2022-01-16T11:00:34Z</time>
      </trkpt>
      <trkpt lat="43.3246720" lon="-3.2895310">
        <ele>71.0</ele>
        <time>2022-01-16T11:00:35Z</time>
      </trkpt>
      <trkpt lat="43.3246320" lon="-3.2894490">
        <ele>70.8</ele>
        <time>2022-01-16T11:00:36Z</time>
      </trkpt>
      <trkpt lat="43.3245820" lon="-3.2893720">
        <ele>70.8</ele>
        <time>2022-01-16T11:00:37Z</time>
      </trkpt>
      <trkpt lat="43.3245280" lon="-3.2893000">
        <ele>70.8</ele>
        <time>2022-01-16T11:00:38Z</time>
      </trkpt>
      <trkpt lat="43.3244730" lon="-3.2892290">
        <ele>70.8</ele>
        <time>2022-01-16T11:00:39Z</time>
      </trkpt>
      <trkpt lat="43.3244120" lon="-3.2891600">
        <ele>70.6</ele>
        <time>2022-01-16T11:00:40Z</time>
      </trkpt>
      <trkpt lat="43.3243490" lon="-3.2890970">
        <ele>70.6</ele>
        <time>2022-01-16T11:00:41Z</time>
      </trkpt>
      <trkpt lat="43.3242820" lon="-3.2890390">
        <ele>70.6</ele>
        <time>2022-01-16T11:00:42Z</time>
      </trkpt>
      <trkpt lat="43.3242150" lon="-3.2889860">
        <ele>70.6</ele>
        <time>2022-01-16T11:00:43Z</time>
      </trkpt>
      <trkpt lat="43.3241460" lon="-3.2889370">
        <ele>70.4</ele>
        <time>2022-01-16T11:00:44Z</time>
      </trkpt>
      <trkpt lat="43.3240740" lon="-3.2888950">
        <ele>70.4</ele>
        <time>2022-01-16T11:00:45Z</time>
      </trkpt>
      <trkpt lat="43.3239990" lon="-3.2888600">
        <ele>70.4</ele>
        <time>2022-01-16T11:00:46Z</time>
      </trkpt>
      <trkpt lat="43.3239240" lon="-3.2888290">
        <ele>70.4</ele>
        <time>2022-01-16T11:00:47Z</time>
      </trkpt>
      <trkpt lat="43.3238470" lon="-3.2887980">
        <ele>70.4</ele>
        <time>2022-01-16T11:00:48Z</time>
      </trkpt>
      <trkpt lat="43.3237700" lon="-3.2887690">
        <ele>70.4</ele>
        <time>2022-01-16T11:00:49Z</time>
      </trkpt>
      <trkpt lat="43.3236940" lon="-3.2887430">
        <ele>70.6</ele>
        <time>2022-01-16T11:00:50Z</time>
      </trkpt>
      <trkpt lat="43.3236180" lon="-3.2887190">
        <ele>70.6</ele>
        <time>2022-01-16T11:00:51Z</time>
      </trkpt>
      <trkpt lat="43.3235450" lon="-3.2887020">
        <ele>70.6</ele>
        <time>2022-01-16T11:00:52Z</time>
      </trkpt>
      <trkpt lat="43.3234720" lon="-3.2886860">
        <ele>70.6</ele>
        <time>2022-01-16T11:00:53Z</time>
      </trkpt>
      <trkpt lat="43.3233980" lon="-3.2886650">
        <ele>70.8</ele>
        <time>2022-01-16T11:00:54Z</time>
      </trkpt>
      <trkpt lat="43.3233240" lon="-3.2886450">
        <ele>71.0</ele>
        <time>2022-01-16T11:00:55Z</time>
      </trkpt>
      <trkpt lat="43.3232530" lon="-3.2886260">
        <ele>71.2</ele>
        <time>2022-01-16T11:00:56Z</time>
      </trkpt>
      <trkpt lat="43.3231830" lon="-3.2886130">
        <ele>71.2</ele>
        <time>2022-01-16T11:00:57Z</time>
      </trkpt>
      <trkpt lat="43.3231160" lon="-3.2886060">
        <ele>71.4</ele>
        <time>2022-01-16T11:00:58Z</time>
      </trkpt>
      <trkpt lat="43.3230480" lon="-3.2885930">
        <ele>71.4</ele>
        <time>2022-01-16T11:00:59Z</time>
      </trkpt>
      <trkpt lat="43.3229780" lon="-3.2885790">
        <ele>71.6</ele>
        <time>2022-01-16T11:01:00Z</time>
      </trkpt>
      <trkpt lat="43.3229080" lon="-3.2885690">
        <ele>71.6</ele>
        <time>2022-01-16T11:01:01Z</time>
      </trkpt>
      <trkpt lat="43.3228340" lon="-3.2885610">
        <ele>71.6</ele>
        <time>2022-01-16T11:01:02Z</time>
      </trkpt>
      <trkpt lat="43.3227590" lon="-3.2885600">
        <ele>71.6</ele>
        <time>2022-01-16T11:01:03Z</time>
      </trkpt>
      <trkpt lat="43.3226860" lon="-3.2885610">
        <ele>71.8</ele>
        <time>2022-01-16T11:01:04Z</time>
      </trkpt>
      <trkpt lat="43.3226140" lon="-3.2885710">
        <ele>72.0</ele>
        <time>2022-01-16T11:01:05Z</time>
      </trkpt>
      <trkpt lat="43.3225420" lon="-3.2885790">
        <ele>72.0</ele>
        <time>2022-01-16T11:01:06Z</time>
      </trkpt>
      <trkpt lat="43.3224690" lon="-3.2885900">
        <ele>72.0</ele>
        <time>2022-01-16T11:01:07Z</time>
      </trkpt>
      <trkpt lat="43.3223960" lon="-3.2886000">
        <ele>72.2</ele>
        <time>2022-01-16T11:01:08Z</time>
      </trkpt>
      <trkpt lat="43.3223230" lon="-3.2886010">
        <ele>72.4</ele>
        <time>2022-01-16T11:01:09Z</time>
      </trkpt>
      <trkpt lat="43.3222480" lon="-3.2885940">
        <ele>72.4</ele>
        <time>2022-01-16T11:01:10Z</time>
      </trkpt>
      <trkpt lat="43.3221740" lon="-3.2885770">
        <ele>72.6</ele>
        <time>2022-01-16T11:01:11Z</time>
      </trkpt>
      <trkpt lat="43.3221000" lon="-3.2885540">
        <ele>72.8</ele>
        <time>2022-01-16T11:01:12Z</time>
      </trkpt>
      <trkpt lat="43.3220300" lon="-3.2885230">
        <ele>72.8</ele>
        <time>2022-01-16T11:01:13Z</time>
      </trkpt>
      <trkpt lat="43.3219600" lon="-3.2884790">
        <ele>72.8</ele>
        <time>2022-01-16T11:01:14Z</time>
      </trkpt>
      <trkpt lat="43.3218950" lon="-3.2884300">
        <ele>72.8</ele>
        <time>2022-01-16T11:01:15Z</time>
      </trkpt>
      <trkpt lat="43.3218360" lon="-3.2883810">
        <ele>72.6</ele>
        <time>2022-01-16T11:01:16Z</time>
      </trkpt>
      <trkpt lat="43.3217710" lon="-3.2883270">
        <ele>72.6</ele>
        <time>2022-01-16T11:01:17Z</time>
      </trkpt>
      <trkpt lat="43.3217040" lon="-3.2882720">
        <ele>72.4</ele>
        <time>2022-01-16T11:01:18Z</time>
      </trkpt>
      <trkpt lat="43.3216380" lon="-3.2882200">
        <ele>72.4</ele>
        <time>2022-01-16T11:01:19Z</time>
      </trkpt>
      <trkpt lat="43.3215750" lon="-3.2881720">
        <ele>72.4</ele>
        <time>2022-01-16T11:01:20Z</time>
      </trkpt>
      <trkpt lat="43.3215100" lon="-3.2881300">
        <ele>72.4</ele>
        <time>2022-01-16T11:01:21Z</time>
      </trkpt>
      <trkpt lat="43.3214430" lon="-3.2880790">
        <ele>72.4</ele>
        <time>2022-01-16T11:01:22Z</time>
      </trkpt>
      <trkpt lat="43.3213770" lon="-3.2880280">
        <ele>72.4</ele>
        <time>2022-01-16T11:01:23Z</time>
      </trkpt>
      <trkpt lat="43.3213130" lon="-3.2879790">
        <ele>72.4</ele>
        <time>2022-01-16T11:01:24Z</time>
      </trkpt>
      <trkpt lat="43.3212490" lon="-3.2879290">
        <ele>72.8</ele>
        <time>2022-01-16T11:01:25Z</time>
      </trkpt>
      <trkpt lat="43.3211840" lon="-3.2878780">
        <ele>73.0</ele>
        <time>2022-01-16T11:01:26Z</time>
      </trkpt>
      <trkpt lat="43.3211200" lon="-3.2878290">
        <ele>73.0</ele>
        <time>2022-01-16T11:01:27Z</time>
      </trkpt>
      <trkpt lat="43.3210570" lon="-3.2877740">
        <ele>73.2</ele>
        <time>2022-01-16T11:01:28Z</time>
      </trkpt>
      <trkpt lat="43.3209970" lon="-3.2877140">
        <ele>73.2</ele>
        <time>2022-01-16T11:01:29Z</time>
      </trkpt>
      <trkpt lat="43.3209420" lon="-3.2876510">
        <ele>73.4</ele>
        <time>2022-01-16T11:01:30Z</time>
      </trkpt>
      <trkpt lat="43.3208960" lon="-3.2875790">
        <ele>73.6</ele>
        <time>2022-01-16T11:01:31Z</time>
      </trkpt>
      <trkpt lat="43.3208620" lon="-3.2874970">
        <ele>74.0</ele>
        <time>2022-01-16T11:01:32Z</time>
      </trkpt>
      <trkpt lat="43.3208410" lon="-3.2874070">
        <ele>74.2</ele>
        <time>2022-01-16T11:01:33Z</time>
      </trkpt>
      <trkpt lat="43.3208320" lon="-3.2873160">
        <ele>74.4</ele>
        <time>2022-01-16T11:01:34Z</time>
      </trkpt>
      <trkpt lat="43.3208300" lon="-3.2872260">
        <ele>74.6</ele>
        <time>2022-01-16T11:01:35Z</time>
      </trkpt>
      <trkpt lat="43.3208340" lon="-3.2871410">
        <ele>74.6</ele>
        <time>2022-01-16T11:01:36Z</time>
      </trkpt>
      <trkpt lat="43.3208460" lon="-3.2870490">
        <ele>74.8</ele>
        <time>2022-01-16T11:01:37Z</time>
      </trkpt>
      <trkpt lat="43.3208690" lon="-3.2869630">
        <ele>74.8</ele>
        <time>2022-01-16T11:01:38Z</time>
      </trkpt>
      <trkpt lat="43.3208970" lon="-3.2868800">
        <ele>74.8</ele>
        <time>2022-01-16T11:01:39Z</time>
      </trkpt>
      <trkpt lat="43.3209250" lon="-3.2868070">
        <ele>75.0</ele>
        <time>2022-01-16T11:01:40Z</time>
      </trkpt>
      <trkpt lat="43.3209540" lon="-3.2867360">
        <ele>75.2</ele>
        <time>2022-01-16T11:01:41Z</time>
      </trkpt>
      <trkpt lat="43.3209790" lon="-3.2866650">
        <ele>75.6</ele>
        <time>2022-01-16T11:01:42Z</time>
      </trkpt>
      <trkpt lat="43.3210010" lon="-3.2865910">
        <ele>75.6</ele>
        <time>2022-01-16T11:01:43Z</time>
      </trkpt>
      <trkpt lat="43.3210180" lon="-3.2865070">
        <ele>76.0</ele>
        <time>2022-01-16T11:01:44Z</time>
      </trkpt>
      <trkpt lat="43.3210400" lon="-3.2864280">
        <ele>76.2</ele>
        <time>2022-01-16T11:01:45Z</time>
      </trkpt>
      <trkpt lat="43.3210760" lon="-3.2863420">
        <ele>76.4</ele>
        <time>2022-01-16T11:01:46Z</time>
      </trkpt>
      <trkpt lat="43.3211170" lon="-3.2862530">
        <ele>76.6</ele>
        <time>2022-01-16T11:01:47Z</time>
      </trkpt>
      <trkpt lat="43.3211560" lon="-3.2861610">
        <ele>76.8</ele>
        <time>2022-01-16T11:01:48Z</time>
      </trkpt>
      <trkpt lat="43.3211870" lon="-3.2860740">
        <ele>76.8</ele>
        <time>2022-01-16T11:01:49Z</time>
      </trkpt>
      <trkpt lat="43.3212240" lon="-3.2859880">
        <ele>77.0</ele>
        <time>2022-01-16T11:01:50Z</time>
      </trkpt>
      <trkpt lat="43.3212590" lon="-3.2859030">
        <ele>77.2</ele>
        <time>2022-01-16T11:01:51Z</time>
      </trkpt>
      <trkpt lat="43.3212790" lon="-3.2858210">
        <ele>77.4</ele>
        <time>2022-01-16T11:01:52Z</time>
      </trkpt>
      <trkpt lat="43.3213000" lon="-3.2857390">
        <ele>77.6</ele>
        <time>2022-01-16T11:01:53Z</time>
      </trkpt>
      <trkpt lat="43.3213090" lon="-3.2856570">
        <ele>77.8</ele>
        <time>2022-01-16T11:01:54Z</time>
      </trkpt>
      <trkpt lat="43.3213160" lon="-3.2855700">
        <ele>78.0</ele>
        <time>2022-01-16T11:01:55Z</time>
      </trkpt>
      <trkpt lat="43.3213260" lon="-3.2854880">
        <ele>78.0</ele>
        <time>2022-01-16T11:01:56Z</time>
      </trkpt>
      <trkpt lat="43.3213300" lon="-3.2854060">
        <ele>78.0</ele>
        <time>2022-01-16T11:01:57Z</time>
      </trkpt>
      <trkpt lat="43.3213400" lon="-3.2853140">
        <ele>78.2</ele>
        <time>2022-01-16T11:01:58Z</time>
      </trkpt>
      <trkpt lat="43.3213440" lon="-3.2852180">
        <ele>78.2</ele>
        <time>2022-01-16T11:01:59Z</time>
      </trkpt>
      <trkpt lat="43.3213530" lon="-3.2851240">
        <ele>78.2</ele>
        <time>2022-01-16T11:02:00Z</time>
      </trkpt>
      <trkpt lat="43.3213610" lon="-3.2850250">
        <ele>78.2</ele>
        <time>2022-01-16T11:02:01Z</time>
      </trkpt>
      <trkpt lat="43.3213690" lon="-3.2849280">
        <ele>78.0</ele>
        <time>2022-01-16T11:02:02Z</time>
      </trkpt>
      <trkpt lat="43.3213770" lon="-3.2848300">
        <ele>78.0</ele>
        <time>2022-01-16T11:02:03Z</time>
      </trkpt>
      <trkpt lat="43.3213830" lon="-3.2847340">
        <ele>78.0</ele>
        <time>2022-01-16T11:02:04Z</time>
      </trkpt>
      <trkpt lat="43.3213840" lon="-3.2846410">
        <ele>78.0</ele>
        <time>2022-01-16T11:02:05Z</time>
      </trkpt>
      <trkpt lat="43.3213850" lon="-3.2845460">
        <ele>78.0</ele>
        <time>2022-01-16T11:02:06Z</time>
      </trkpt>
      <trkpt lat="43.3213900" lon="-3.2844510">
        <ele>78.0</ele>
        <time>2022-01-16T11:02:07Z</time>
      </trkpt>
      <trkpt lat="43.3213960" lon="-3.2843550">
        <ele>78.0</ele>
        <time>2022-01-16T11:02:08Z</time>
      </trkpt>
      <trkpt lat="43.3213990" lon="-3.2842580">
        <ele>78.0</ele>
        <time>2022-01-16T11:02:09Z</time>
      </trkpt>
      <trkpt lat="43.3214010" lon="-3.2841560">
        <ele>77.8</ele>
        <time>2022-01-16T11:02:10Z</time>
      </trkpt>
      <trkpt lat="43.3213970" lon="-3.2840540">
        <ele>77.8</ele>
        <time>2022-01-16T11:02:11Z</time>
      </trkpt>
      <trkpt lat="43.3213840" lon="-3.2839490">
        <ele>77.8</ele>
        <time>2022-01-16T11:02:12Z</time>
      </trkpt>
      <trkpt lat="43.3213600" lon="-3.2838470">
        <ele>77.6</ele>
        <time>2022-01-16T11:02:13Z</time>
      </trkpt>
      <trkpt lat="43.3213340" lon="-3.2837530">
        <ele>77.4</ele>
        <time>2022-01-16T11:02:14Z</time>
      </trkpt>
      <trkpt lat="43.3213030" lon="-3.2836610">
        <ele>77.4</ele>
        <time>2022-01-16T11:02:15Z</time>
      </trkpt>
      <trkpt lat="43.3212760" lon="-3.2835710">
        <ele>77.2</ele>
        <time>2022-01-16T11:02:16Z</time>
      </trkpt>
      <trkpt lat="43.3212490" lon="-3.2834730">
        <ele>77.2</ele>
        <time>2022-01-16T11:02:17Z</time>
      </trkpt>
      <trkpt lat="43.3212190" lon="-3.2833780">
        <ele>77.0</ele>
        <time>2022-01-16T11:02:18Z</time>
      </trkpt>
      <trkpt lat="43.3211880" lon="-3.2832770">
        <ele>77.0</ele>
        <time>2022-01-16T11:02:19Z</time>
      </trkpt>
      <trkpt lat="43.3211520" lon="-3.2831740">
        <ele>77.0</ele>
        <time>2022-01-16T11:02:20Z</time>
      </trkpt>
      <trkpt lat="43.3211230" lon="-3.2830650">
        <ele>77.0</ele>
        <time>2022-01-16T11:02:21Z</time>
      </trkpt>
      <trkpt lat="43.3210910" lon="-3.2829500">
        <ele>77.2</ele>
        <time>2022-01-16T11:02:22Z</time>
      </trkpt>
      <trkpt lat="43.3210590" lon="-3.2828400">
        <ele>77.2</ele>
        <time>2022-01-16T11:02:23Z</time>
      </trkpt>
      <trkpt lat="43.3210270" lon="-3.2827330">
        <ele>77.2</ele>
        <time>2022-01-16T11:02:24Z</time>
      </trkpt>
      <trkpt lat="43.3209930" lon="-3.2826330">
        <ele>77.2</ele>
        <time>2022-01-16T11:02:25Z</time>
      </trkpt>
      <trkpt lat="43.3209610" lon="-3.2825360">
        <ele>77.2</ele>
        <time>2022-01-16T11:02:26Z</time>
      </trkpt>
      <trkpt lat="43.3209280" lon="-3.2824410">
        <ele>77.4</ele>
        <time>2022-01-16T11:02:27Z</time>
      </trkpt>
      <trkpt lat="43.3209030" lon="-3.2823520">
        <ele>77.2</ele>
        <time>2022-01-16T11:02:28Z</time>
      </trkpt>
      <trkpt lat="43.3208700" lon="-3.2822580">
        <ele>77.2</ele>
        <time>2022-01-16T11:02:29Z</time>
      </trkpt>
      <trkpt lat="43.3208370" lon="-3.2821650">
        <ele>77.2</ele>
        <time>2022-01-16T11:02:30Z</time>
      </trkpt>
      <trkpt lat="43.3208030" lon="-3.2820730">
        <ele>77.4</ele>
        <time>2022-01-16T11:02:31Z</time>
      </trkpt>
      <trkpt lat="43.3207640" lon="-3.2819870">
        <ele>77.4</ele>
        <time>2022-01-16T11:02:32Z</time>
      </trkpt>
      <trkpt lat="43.3207260" lon="-3.2819040">
        <ele>77.4</ele>
        <time>2022-01-16T11:02:33Z</time>
      </trkpt>
      <trkpt lat="43.3206870" lon="-3.2818170">
        <ele>77.6</ele>
        <time>2022-01-16T11:02:34Z</time>
      </trkpt>
      <trkpt lat="43.3206460" lon="-3.2817310">
        <ele>77.8</ele>
        <time>2022-01-16T11:02:35Z</time>
      </trkpt>
      <trkpt lat="43.3206050" lon="-3.2816480">
        <ele>78.0</ele>
        <time>2022-01-16T11:02:36Z</time>
      </trkpt>
      <trkpt lat="43.3205680" lon="-3.2815670">
        <ele>78.2</ele>
        <time>2022-01-16T11:02:37Z</time>
      </trkpt>
      <trkpt lat="43.3205340" lon="-3.2814950">
        <ele>78.2</ele>
        <time>2022-01-16T11:02:38Z</time>
      </trkpt>
      <trkpt lat="43.3205060" lon="-3.2814130">
        <ele>78.6</ele>
        <time>2022-01-16T11:02:39Z</time>
      </trkpt>
      <trkpt lat="43.3204770" lon="-3.2813330">
        <ele>79.0</ele>
        <time>2022-01-16T11:02:40Z</time>
      </trkpt>
      <trkpt lat="43.3204420" lon="-3.2812600">
        <ele>79.4</ele>
        <time>2022-01-16T11:02:41Z</time>
      </trkpt>
      <trkpt lat="43.3204050" lon="-3.2811910">
        <ele>79.6</ele>
        <time>2022-01-16T11:02:42Z</time>
      </trkpt>
      <trkpt lat="43.3203690" lon="-3.2811240">
        <ele>80.0</ele>
        <time>2022-01-16T11:02:43Z</time>
      </trkpt>
      <trkpt lat="43.3203340" lon="-3.2810550">
        <ele>80.2</ele>
        <time>2022-01-16T11:02:44Z</time>
      </trkpt>
      <trkpt lat="43.3203010" lon="-3.2809830">
        <ele>80.6</ele>
        <time>2022-01-16T11:02:45Z</time>
      </trkpt>
      <trkpt lat="43.3202690" lon="-3.2809120">
        <ele>80.8</ele>
        <time>2022-01-16T11:02:46Z</time>
      </trkpt>
      <trkpt lat="43.3202390" lon="-3.2808380">
        <ele>81.0</ele>
        <time>2022-01-16T11:02:47Z</time>
      </trkpt>
      <trkpt lat="43.3202070" lon="-3.2807590">
        <ele>81.0</ele>
        <time>2022-01-16T11:02:48Z</time>
      </trkpt>
      <trkpt lat="43.3201780" lon="-3.2806890">
        <ele>81.0</ele>
        <time>2022-01-16T11:02:49Z</time>
      </trkpt>
      <trkpt lat="43.3201430" lon="-3.2806190">
        <ele>81.0</ele>
        <time>2022-01-16T11:02:50Z</time>
      </trkpt>
      <trkpt lat="43.3201090" lon="-3.2805500">
        <ele>81.0</ele>
        <time>2022-01-16T11:02:51Z</time>
      </trkpt>
      <trkpt lat="43.3200740" lon="-3.2804840">
        <ele>81.0</ele>
        <time>2022-01-16T11:02:52Z</time>
      </trkpt>
      <trkpt lat="43.3200380" lon="-3.2804160">
        <ele>81.0</ele>
        <time>2022-01-16T11:02:53Z</time>
      </trkpt>
      <trkpt lat="43.3199980" lon="-3.2803500">
        <ele>81.0</ele>
        <time>2022-01-16T11:02:54Z</time>
      </trkpt>
      <trkpt lat="43.3199580" lon="-3.2802870">
        <ele>81.4</ele>
        <time>2022-01-16T11:02:55Z</time>
      </trkpt>
      <trkpt lat="43.3199170" lon="-3.2802160">
        <ele>81.6</ele>
        <time>2022-01-16T11:02:56Z</time>
      </trkpt>
      <trkpt lat="43.3198710" lon="-3.2801520">
        <ele>81.6</ele>
        <time>2022-01-16T11:02:57Z</time>
      </trkpt>
      <trkpt lat="43.3198230" lon="-3.2800980">
        <ele>81.8</ele>
        <time>2022-01-16T11:02:58Z</time>
      </trkpt>
      <trkpt lat="43.3197720" lon="-3.2800520">
        <ele>81.8</ele>
        <time>2022-01-16T11:02:59Z</time>
      </trkpt>
      <trkpt lat="43.3197190" lon="-3.2800130">
        <ele>82.0</ele>
        <time>2022-01-16T11:03:00Z</time>
      </trkpt>
      <trkpt lat="43.3196610" lon="-3.2799790">
        <ele>82.0</ele>
        <time>2022-01-16T11:03:01Z</time>
      </trkpt>
      <trkpt lat="43.3196000" lon="-3.2799520">
        <ele>82.2</ele>
        <time>2022-01-16T11:03:02Z</time>
      </trkpt>
      <trkpt lat="43.3195370" lon="-3.2799260">
        <ele>82.4</ele>
        <time>2022-01-16T11:03:03Z</time>
      </trkpt>
      <trkpt lat="43.3194740" lon="-3.2799040">
        <ele>82.6</ele>
        <time>2022-01-16T11:03:04Z</time>
      </trkpt>
      <trkpt lat="43.3194090" lon="-3.2798720">
        <ele>82.8</ele>
        <time>2022-01-16T11:03:05Z</time>
      </trkpt>
      <trkpt lat="43.3193470" lon="-3.2798420">
        <ele>83.0</ele>
        <time>2022-01-16T11:03:06Z</time>
      </trkpt>
      <trkpt lat="43.3192850" lon="-3.2798100">
        <ele>83.0</ele>
        <time>2022-01-16T11:03:07Z</time>
      </trkpt>
      <trkpt lat="43.3192300" lon="-3.2797720">
        <ele>83.2</ele>
        <time>2022-01-16T11:03:08Z</time>
      </trkpt>
      <trkpt lat="43.3191770" lon="-3.2797230">
        <ele>83.4</ele>
        <time>2022-01-16T11:03:09Z</time>
      </trkpt>
      <trkpt lat="43.3191290" lon="-3.2796640">
        <ele>83.6</ele>
        <time>2022-01-16T11:03:10Z</time>
      </trkpt>
      <trkpt lat="43.3190820" lon="-3.2796010">
        <ele>83.6</ele>
        <time>2022-01-16T11:03:11Z</time>
      </trkpt>
      <trkpt lat="43.3190380" lon="-3.2795280">
        <ele>83.8</ele>
        <time>2022-01-16T11:03:12Z</time>
      </trkpt>
      <trkpt lat="43.3190000" lon="-3.2794500">
        <ele>84.0</ele>
        <time>2022-01-16T11:03:13Z</time>
      </trkpt>
      <trkpt lat="43.3189690" lon="-3.2793670">
        <ele>84.0</ele>
        <time>2022-01-16T11:03:14Z</time>
      </trkpt>
      <trkpt lat="43.3189450" lon="-3.2792820">
        <ele>84.0</ele>
        <time>2022-01-16T11:03:15Z</time>
      </trkpt>
      <trkpt lat="43.3189270" lon="-3.2791950">
        <ele>84.0</ele>
        <time>2022-01-16T11:03:16Z</time>
      </trkpt>
      <trkpt lat="43.3189120" lon="-3.2791040">
        <ele>83.8</ele>
        <time>2022-01-16T11:03:17Z</time>
      </trkpt>
      <trkpt lat="43.3189010" lon="-3.2790150">
        <ele>83.8</ele>
        <time>2022-01-16T11:03:18Z</time>
      </trkpt>
      <trkpt lat="43.3188940" lon="-3.2789250">
        <ele>83.6</ele>
        <time>2022-01-16T11:03:19Z</time>
      </trkpt>
      <trkpt lat="43.3188850" lon="-3.2788350">
        <ele>83.6</ele>
        <time>2022-01-16T11:03:20Z</time>
      </trkpt>
      <trkpt lat="43.3188760" lon="-3.2787450">
        <ele>83.4</ele>
        <time>2022-01-16T11:03:21Z</time>
      </trkpt>
      <trkpt lat="43.3188690" lon="-3.2786530">
        <ele>83.4</ele>
        <time>2022-01-16T11:03:22Z</time>
      </trkpt>
      <trkpt lat="43.3188580" lon="-3.2785580">
        <ele>83.4</ele>
        <time>2022-01-16T11:03:23Z</time>
      </trkpt>
      <trkpt lat="43.3188440" lon="-3.2784620">
        <ele>83.4</ele>
        <time>2022-01-16T11:03:24Z</time>
      </trkpt>
      <trkpt lat="43.3188300" lon="-3.2783610">
        <ele>83.2</ele>
        <time>2022-01-16T11:03:25Z</time>
      </trkpt>
      <trkpt lat="43.3188120" lon="-3.2782610">
        <ele>83.0</ele>
        <time>2022-01-16T11:03:26Z</time>
      </trkpt>
      <trkpt lat="43.3187880" lon="-3.2781600">
        <ele>83.0</ele>
        <time>2022-01-16T11:03:27Z</time>
      </trkpt>
      <trkpt lat="43.3187650" lon="-3.2780610">
        <ele>83.0</ele>
        <time>2022-01-16T11:03:28Z</time>
      </trkpt>
      <trkpt lat="43.3187380" lon="-3.2779640">
        <ele>83.2</ele>
        <time>2022-01-16T11:03:29Z</time>
      </trkpt>
      <trkpt lat="43.3187090" lon="-3.2778690">
        <ele>83.2</ele>
        <time>2022-01-16T11:03:30Z</time>
      </trkpt>
      <trkpt lat="43.3186770" lon="-3.2777770">
        <ele>83.2</ele>
        <time>2022-01-16T11:03:31Z</time>
      </trkpt>
      <trkpt lat="43.3186430" lon="-3.2776880">
        <ele>83.4</ele>
        <time>2022-01-16T11:03:32Z</time>
      </trkpt>
      <trkpt lat="43.3186100" lon="-3.2776000">
        <ele>83.4</ele>
        <time>2022-01-16T11:03:33Z</time>
      </trkpt>
      <trkpt lat="43.3185780" lon="-3.2775120">
        <ele>83.2</ele>
        <time>2022-01-16T11:03:34Z</time>
      </trkpt>
      <trkpt lat="43.3185450" lon="-3.2774240">
        <ele>83.2</ele>
        <time>2022-01-16T11:03:35Z</time>
      </trkpt>
      <trkpt lat="43.3185140" lon="-3.2773360">
        <ele>83.4</ele>
        <time>2022-01-16T11:03:36Z</time>
      </trkpt>
      <trkpt lat="43.3184820" lon="-3.2772500">
        <ele>83.4</ele>
        <time>2022-01-16T11:03:37Z</time>
      </trkpt>
      <trkpt lat="43.3184510" lon="-3.2771660">
        <ele>83.4</ele>
        <time>2022-01-16T11:03:38Z</time>
      </trkpt>
      <trkpt lat="43.3184200" lon="-3.2770810">
        <ele>83.4</ele>
        <time>2022-01-16T11:03:39Z</time>
      </trkpt>
      <trkpt lat="43.3183900" lon="-3.2769940">
        <ele>83.6</ele>
        <time>2022-01-16T11:03:40Z</time>
      </trkpt>
      <trkpt lat="43.3183620" lon="-3.2769070">
        <ele>83.6</ele>
        <time>2022-01-16T11:03:41Z</time>
      </trkpt>
      <trkpt lat="43.3183310" lon="-3.2768190">
        <ele>83.6</ele>
        <time>2022-01-16T11:03:42Z</time>
      </trkpt>
      <trkpt lat="43.3183020" lon="-3.2767320">
        <ele>83.6</ele>
        <time>2022-01-16T11:03:43Z</time>
      </trkpt>
      <trkpt lat="43.3182750" lon="-3.2766440">
        <ele>83.6</ele>
        <time>2022-01-16T11:03:44Z</time>
      </trkpt>
      <trkpt lat="43.3182470" lon="-3.2765580">
        <ele>83.4</ele>
        <time>2022-01-16T11:03:45Z</time>
      </trkpt>
      <trkpt lat="43.3182190" lon="-3.2764730">
        <ele>83.4</ele>
        <time>2022-01-16T11:03:46Z</time>
      </trkpt>
      <trkpt lat="43.3181900" lon="-3.2763910">
        <ele>83.2</ele>
        <time>2022-01-16T11:03:47Z</time>
      </trkpt>
      <trkpt lat="43.3181600" lon="-3.2763110">
        <ele>83.2</ele>
        <time>2022-01-16T11:03:48Z</time>
      </trkpt>
      <trkpt lat="43.3181280" lon="-3.2762330">
        <ele>83.4</ele>
        <time>2022-01-16T11:03:49Z</time>
      </trkpt>
      <trkpt lat="43.3180930" lon="-3.2761580">
        <ele>83.6</ele>
        <time>2022-01-16T11:03:50Z</time>
      </trkpt>
      <trkpt lat="43.3180550" lon="-3.2760850">
        <ele>83.6</ele>
        <time>2022-01-16T11:03:51Z</time>
      </trkpt>
      <trkpt lat="43.3180160" lon="-3.2760130">
        <ele>83.6</ele>
        <time>2022-01-16T11:03:52Z</time>
      </trkpt>
      <trkpt lat="43.3179770" lon="-3.2759430">
        <ele>83.8</ele>
        <time>2022-01-16T11:03:53Z</time>
      </trkpt>
      <trkpt lat="43.3179330" lon="-3.2758780">
        <ele>83.8</ele>
        <time>2022-01-16T11:03:54Z</time>
      </trkpt>
      <trkpt lat="43.3178920" lon="-3.2758170">
        <ele>83.8</ele>
        <time>2022-01-16T11:03:55Z</time>
      </trkpt>
      <trkpt lat="43.3178510" lon="-3.2757570">
        <ele>84.0</ele>
        <time>2022-01-16T11:03:56Z</time>
      </trkpt>
      <trkpt lat="43.3178090" lon="-3.2756980">
        <ele>84.0</ele>
        <time>2022-01-16T11:03:57Z</time>
      </trkpt>
      <trkpt lat="43.3177670" lon="-3.2756360">
        <ele>84.2</ele>
        <time>2022-01-16T11:03:58Z</time>
      </trkpt>
      <trkpt lat="43.3177260" lon="-3.2755710">
        <ele>84.4</ele>
        <time>2022-01-16T11:03:59Z</time>
      </trkpt>
      <trkpt lat="43.3176860" lon="-3.2755090">
        <ele>84.6</ele>
        <time>2022-01-16T11:04:00Z</time>
      </trkpt>
      <trkpt lat="43.3176480" lon="-3.2754430">
        <ele>84.6</ele>
        <time>2022-01-16T11:04:01Z</time>
      </trkpt>
      <trkpt lat="43.3176110" lon="-3.2753710">
        <ele>84.6</ele>
        <time>2022-01-16T11:04:02Z</time>
      </trkpt>
      <trkpt lat="43.3175740" lon="-3.2752990">
        <ele>84.6</ele>
        <time>2022-01-16T11:04:03Z</time>
      </trkpt>
      <trkpt lat="43.3175390" lon="-3.2752270">
        <ele>84.6</ele>
        <time>2022-01-16T11:04:04Z</time>
      </trkpt>
      <trkpt lat="43.3175050" lon="-3.2751540">
        <ele>84.8</ele>
        <time>2022-01-16T11:04:05Z</time>
      </trkpt>
      <trkpt lat="43.3174700" lon="-3.2750800">
        <ele>84.8</ele>
        <time>2022-01-16T11:04:06Z</time>
      </trkpt>
      <trkpt lat="43.3174330" lon="-3.2750080">
        <ele>84.8</ele>
        <time>2022-01-16T11:04:07Z</time>
      </trkpt>
      <trkpt lat="43.3173950" lon="-3.2749370">
        <ele>85.0</ele>
        <time>2022-01-16T11:04:08Z</time>
      </trkpt>
      <trkpt lat="43.3173550" lon="-3.2748670">
        <ele>85.0</ele>
        <time>2022-01-16T11:04:09Z</time>
      </trkpt>
      <trkpt lat="43.3173110" lon="-3.2747980">
        <ele>85.0</ele>
        <time>2022-01-16T11:04:10Z</time>
      </trkpt>
      <trkpt lat="43.3172640" lon="-3.2747340">
        <ele>85.0</ele>
        <time>2022-01-16T11:04:11Z</time>
      </trkpt>
      <trkpt lat="43.3172130" lon="-3.2746720">
        <ele>85.2</ele>
        <time>2022-01-16T11:04:12Z</time>
      </trkpt>
      <trkpt lat="43.3171600" lon="-3.2746150">
        <ele>85.2</ele>
        <time>2022-01-16T11:04:13Z</time>
      </trkpt>
      <trkpt lat="43.3171060" lon="-3.2745600">
        <ele>85.2</ele>
        <time>2022-01-16T11:04:14Z</time>
      </trkpt>
      <trkpt lat="43.3170510" lon="-3.2745060">
        <ele>85.2</ele>
        <time>2022-01-16T11:04:15Z</time>
      </trkpt>
      <trkpt lat="43.3169960" lon="-3.2744530">
        <ele>85.2</ele>
        <time>2022-01-16T11:04:16Z</time>
      </trkpt>
      <trkpt lat="43.3169400" lon="-3.2744000">
        <ele>85.4</ele>
        <time>2022-01-16T11:04:17Z</time>
      </trkpt>
      <trkpt lat="43.3168850" lon="-3.2743460">
        <ele>85.4</ele>
        <time>2022-01-16T11:04:18Z</time>
      </trkpt>
      <trkpt lat="43.3168290" lon="-3.2742910">
        <ele>85.4</ele>
        <time>2022-01-16T11:04:19Z</time>
      </trkpt>
      <trkpt lat="43.3167730" lon="-3.2742370">
        <ele>85.6</ele>
        <time>2022-01-16T11:04:20Z</time>
      </trkpt>
      <trkpt lat="43.3167170" lon="-3.2741860">
        <ele>85.6</ele>
        <time>2022-01-16T11:04:21Z</time>
      </trkpt>
      <trkpt lat="43.3166610" lon="-3.2741340">
        <ele>85.8</ele>
        <time>2022-01-16T11:04:22Z</time>
      </trkpt>
      <trkpt lat="43.3166070" lon="-3.2740820">
        <ele>86.0</ele>
        <time>2022-01-16T11:04:23Z</time>
      </trkpt>
      <trkpt lat="43.3165560" lon="-3.2740300">
        <ele>86.0</ele>
        <time>2022-01-16T11:04:24Z</time>
      </trkpt>
      <trkpt lat="43.3165070" lon="-3.2739750">
        <ele>86.2</ele>
        <time>2022-01-16T11:04:25Z</time>
      </trkpt>
      <trkpt lat="43.3164590" lon="-3.2739200">
        <ele>86.2</ele>
        <time>2022-01-16T11:04:26Z</time>
      </trkpt>
      <trkpt lat="43.3164110" lon="-3.2738660">
        <ele>86.4</ele>
        <time>2022-01-16T11:04:27Z</time>
      </trkpt>
      <trkpt lat="43.3163640" lon="-3.2738080">
        <ele>86.4</ele>
        <time>2022-01-16T11:04:28Z</time>
      </trkpt>
      <trkpt lat="43.3163200" lon="-3.2737500">
        <ele>86.4</ele>
        <time>2022-01-16T11:04:29Z</time>
      </trkpt>
      <trkpt lat="43.3162820" lon="-3.2736880">
        <ele>86.4</ele>
        <time>2022-01-16T11:04:30Z</time>
      </trkpt>
      <trkpt lat="43.3162460" lon="-3.2736210">
        <ele>86.4</ele>
        <time>2022-01-16T11:04:31Z</time>
      </trkpt>
      <trkpt lat="43.3162080" lon="-3.2735520">
        <ele>86.6</ele>
        <time>2022-01-16T11:04:32Z</time>
      </trkpt>
      <trkpt lat="43.3161700" lon="-3.2734800">
        <ele>86.6</ele>
        <time>2022-01-16T11:04:33Z</time>
      </trkpt>
      <trkpt lat="43.3161350" lon="-3.2734120">
        <ele>86.6</ele>
        <time>2022-01-16T11:04:34Z</time>
      </trkpt>
      <trkpt lat="43.3161030" lon="-3.2733430">
        <ele>86.8</ele>
        <time>2022-01-16T11:04:35Z</time>
      </trkpt>
      <trkpt lat="43.3160710" lon="-3.2732690">
        <ele>86.8</ele>
        <time>2022-01-16T11:04:36Z</time>
      </trkpt>
      <trkpt lat="43.3160380" lon="-3.2731960">
        <ele>86.8</ele>
        <time>2022-01-16T11:04:37Z</time>
      </trkpt>
      <trkpt lat="43.3160040" lon="-3.2731220">
        <ele>87.0</ele>
        <time>2022-01-16T11:04:38Z</time>
      </trkpt>
      <trkpt lat="43.3159710" lon="-3.2730480">
        <ele>87.0</ele>
        <time>2022-01-16T11:04:39Z</time>
      </trkpt>
      <trkpt lat="43.3159380" lon="-3.2729730">
        <ele>87.2</ele>
        <time>2022-01-16T11:04:40Z</time>
      </trkpt>
      <trkpt lat="43.3159030" lon="-3.2728970">
        <ele>87.4</ele>
        <time>2022-01-16T11:04:41Z</time>
      </trkpt>
      <trkpt lat="43.3158690" lon="-3.2728200">
        <ele>87.6</ele>
        <time>2022-01-16T11:04:42Z</time>
      </trkpt>
      <trkpt lat="43.3158360" lon="-3.2727420">
        <ele>87.6</ele>
        <time>2022-01-16T11:04:43Z</time>
      </trkpt>
      <trkpt lat="43.3158060" lon="-3.2726670">
        <ele>87.6</ele>
        <time>2022-01-16T11:04:44Z</time>
      </trkpt>
      <trkpt lat="43.3157790" lon="-3.2725990">
        <ele>88.0</ele>
        <time>2022-01-16T11:04:45Z</time>
      </trkpt>
      <trkpt lat="43.3157570" lon="-3.2725280">
        <ele>88.0</ele>
        <time>2022-01-16T11:04:46Z</time>
      </trkpt>
      <trkpt lat="43.3157410" lon="-3.2724460">
        <ele>88.0</ele>
        <time>2022-01-16T11:04:47Z</time>
      </trkpt>
      <trkpt lat="43.3157260" lon="-3.2723630">
        <ele>88.0</ele>
        <time>2022-01-16T11:04:48Z</time>
      </trkpt>
      <trkpt lat="43.3157140" lon="-3.2722800">
        <ele>88.0</ele>
        <time>2022-01-16T11:04:49Z</time>
      </trkpt>
      <trkpt lat="43.3157050" lon="-3.2721940">
        <ele>88.0</ele>
        <time>2022-01-16T11:04:50Z</time>
      </trkpt>
      <trkpt lat="43.3156970" lon="-3.2721070">
        <ele>88.0</ele>
        <time>2022-01-16T11:04:51Z</time>
      </trkpt>
      <trkpt lat="43.3156930" lon="-3.2720200">
        <ele>88.2</ele>
        <time>2022-01-16T11:04:52Z</time>
      </trkpt>
      <trkpt lat="43.3156940" lon="-3.2719300">
        <ele>88.2</ele>
        <time>2022-01-16T11:04:53Z</time>
      </trkpt>
      <trkpt lat="43.3156940" lon="-3.2718410">
        <ele>88.2</ele>
        <time>2022-01-16T11:04:54Z</time>
      </trkpt>
      <trkpt lat="43.3156930" lon="-3.2717520">
        <ele>88.0</ele>
        <time>2022-01-16T11:04:55Z</time>
      </trkpt>
      <trkpt lat="43.3156930" lon="-3.2716610">
        <ele>88.0</ele>
        <time>2022-01-16T11:04:56Z</time>
      </trkpt>
      <trkpt lat="43.3156960" lon="-3.2715720">
        <ele>88.0</ele>
        <time>2022-01-16T11:04:57Z</time>
      </trkpt>
      <trkpt lat="43.3156990" lon="-3.2714820">
        <ele>88.0</ele>
        <time>2022-01-16T11:04:58Z</time>
      </trkpt>
      <trkpt lat="43.3157010" lon="-3.2713910">
        <ele>88.0</ele>
        <time>2022-01-16T11:04:59Z</time>
      </trkpt>
      <trkpt lat="43.3157020" lon="-3.2712990">
        <ele>88.0</ele>
        <time>2022-01-16T11:05:00Z</time>
      </trkpt>
      <trkpt lat="43.3157050" lon="-3.2712080">
        <ele>88.2</ele>
        <time>2022-01-16T11:05:01Z</time>
      </trkpt>
      <trkpt lat="43.3157070" lon="-3.2711180">
        <ele>88.6</ele>
        <time>2022-01-16T11:05:02Z</time>
      </trkpt>
      <trkpt lat="43.3157090" lon="-3.2710260">
        <ele>88.6</ele>
        <time>2022-01-16T11:05:03Z</time>
      </trkpt>
      <trkpt lat="43.3157120" lon="-3.2709360">
        <ele>88.6</ele>
        <time>2022-01-16T11:05:04Z</time>
      </trkpt>
      <trkpt lat="43.3157140" lon="-3.2708450">
        <ele>88.8</ele>
        <time>2022-01-16T11:05:05Z</time>
      </trkpt>
      <trkpt lat="43.3157160" lon="-3.2707540">
        <ele>88.8</ele>
        <time>2022-01-16T11:05:06Z</time>
      </trkpt>
      <trkpt lat="43.3157200" lon="-3.2706640">
        <ele>88.8</ele>
        <time>2022-01-16T11:05:07Z</time>
      </trkpt>
      <trkpt lat="43.3157230" lon="-3.2705760">
        <ele>89.0</ele>
        <time>2022-01-16T11:05:08Z</time>
      </trkpt>
      <trkpt lat="43.3157250" lon="-3.2704900">
        <ele>89.0</ele>
        <time>2022-01-16T11:05:09Z</time>
      </trkpt>
      <trkpt lat="43.3157260" lon="-3.2704040">
        <ele>89.0</ele>
        <time>2022-01-16T11:05:10Z</time>
      </trkpt>
      <trkpt lat="43.3157270" lon="-3.2703170">
        <ele>89.0</ele>
        <time>2022-01-16T11:05:11Z</time>
      </trkpt>
      <trkpt lat="43.3157270" lon="-3.2702300">
        <ele>89.2</ele>
        <time>2022-01-16T11:05:12Z</time>
      </trkpt>
      <trkpt lat="43.3157280" lon="-3.2701410">
        <ele>89.2</ele>
        <time>2022-01-16T11:05:13Z</time>
      </trkpt>
      <trkpt lat="43.3157320" lon="-3.2700490">
        <ele>89.6</ele>
        <time>2022-01-16T11:05:14Z</time>
      </trkpt>
      <trkpt lat="43.3157350" lon="-3.2699580">
        <ele>89.6</ele>
        <time>2022-01-16T11:05:15Z</time>
      </trkpt>
      <trkpt lat="43.3157370" lon="-3.2698670">
        <ele>89.8</ele>
        <time>2022-01-16T11:05:16Z</time>
      </trkpt>
      <trkpt lat="43.3157390" lon="-3.2697750">
        <ele>89.8</ele>
        <time>2022-01-16T11:05:17Z</time>
      </trkpt>
      <trkpt lat="43.3157420" lon="-3.2696840">
        <ele>89.8</ele>
        <time>2022-01-16T11:05:18Z</time>
      </trkpt>
      <trkpt lat="43.3157440" lon="-3.2695950">
        <ele>89.8</ele>
        <time>2022-01-16T11:05:19Z</time>
      </trkpt>
      <trkpt lat="43.3157460" lon="-3.2695060">
        <ele>89.8</ele>
        <time>2022-01-16T11:05:20Z</time>
      </trkpt>
      <trkpt lat="43.3157480" lon="-3.2694180">
        <ele>89.8</ele>
        <time>2022-01-16T11:05:21Z</time>
      </trkpt>
      <trkpt lat="43.3157490" lon="-3.2693320">
        <ele>89.8</ele>
        <time>2022-01-16T11:05:22Z</time>
      </trkpt>
      <trkpt lat="43.3157520" lon="-3.2692470">
        <ele>89.8</ele>
        <time>2022-01-16T11:05:23Z</time>
      </trkpt>
      <trkpt lat="43.3157550" lon="-3.2691610">
        <ele>90.0</ele>
        <time>2022-01-16T11:05:24Z</time>
      </trkpt>
      <trkpt lat="43.3157570" lon="-3.2690730">
        <ele>90.0</ele>
        <time>2022-01-16T11:05:25Z</time>
      </trkpt>
      <trkpt lat="43.3157560" lon="-3.2689830">
        <ele>90.0</ele>
        <time>2022-01-16T11:05:26Z</time>
      </trkpt>
      <trkpt lat="43.3157560" lon="-3.2688930">
        <ele>89.8</ele>
        <time>2022-01-16T11:05:27Z</time>
      </trkpt>
      <trkpt lat="43.3157550" lon="-3.2688030">
        <ele>90.0</ele>
        <time>2022-01-16T11:05:28Z</time>
      </trkpt>
      <trkpt lat="43.3157510" lon="-3.2687120">
        <ele>89.8</ele>
        <time>2022-01-16T11:05:29Z</time>
      </trkpt>
      <trkpt lat="43.3157450" lon="-3.2686200">
        <ele>90.0</ele>
        <time>2022-01-16T11:05:30Z</time>
      </trkpt>
      <trkpt lat="43.3157320" lon="-3.2685300">
        <ele>90.0</ele>
        <time>2022-01-16T11:05:31Z</time>
      </trkpt>
      <trkpt lat="43.3157160" lon="-3.2684420">
        <ele>90.2</ele>
        <time>2022-01-16T11:05:32Z</time>
      </trkpt>
      <trkpt lat="43.3156940" lon="-3.2683560">
        <ele>90.2</ele>
        <time>2022-01-16T11:05:33Z</time>
      </trkpt>
      <trkpt lat="43.3156720" lon="-3.2682700">
        <ele>90.0</ele>
        <time>2022-01-16T11:05:34Z</time>
      </trkpt>
      <trkpt lat="43.3156460" lon="-3.2681870">
        <ele>90.0</ele>
        <time>2022-01-16T11:05:35Z</time>
      </trkpt>
      <trkpt lat="43.3156160" lon="-3.2681070">
        <ele>90.0</ele>
        <time>2022-01-16T11:05:36Z</time>
      </trkpt>
      <trkpt lat="43.3155830" lon="-3.2680310">
        <ele>90.2</ele>
        <time>2022-01-16T11:05:37Z</time>
      </trkpt>
      <trkpt lat="43.3155510" lon="-3.2679570">
        <ele>90.4</ele>
        <time>2022-01-16T11:05:38Z</time>
      </trkpt>
      <trkpt lat="43.3155190" lon="-3.2678900">
        <ele>90.6</ele>
        <time>2022-01-16T11:05:39Z</time>
      </trkpt>
      <trkpt lat="43.3154880" lon="-3.2678300">
        <ele>90.8</ele>
        <time>2022-01-16T11:05:40Z</time>
      </trkpt>
      <trkpt lat="43.3154530" lon="-3.2677710">
        <ele>91.0</ele>
        <time>2022-01-16T11:05:41Z</time>
      </trkpt>
      <trkpt lat="43.3154160" lon="-3.2677140">
        <ele>91.0</ele>
        <time>2022-01-16T11:05:42Z</time>
      </trkpt>
      <trkpt lat="43.3153800" lon="-3.2676480">
        <ele>91.2</ele>
        <time>2022-01-16T11:05:43Z</time>
      </trkpt>
      <trkpt lat="43.3153440" lon="-3.2675890">
        <ele>91.4</ele>
        <time>2022-01-16T11:05:44Z</time>
      </trkpt>
      <trkpt lat="43.3153060" lon="-3.2675350">
        <ele>91.4</ele>
        <time>2022-01-16T11:05:45Z</time>
      </trkpt>
      <trkpt lat="43.3152690" lon="-3.2674840">
        <ele>91.6</ele>
        <time>2022-01-16T11:05:46Z</time>
      </trkpt>
      <trkpt lat="43.3152300" lon="-3.2674320">
        <ele>91.8</ele>
        <time>2022-01-16T11:05:47Z</time>
      </trkpt>
      <trkpt lat="43.3151880" lon="-3.2673800">
        <ele>92.0</ele>
        <time>2022-01-16T11:05:48Z</time>
      </trkpt>
      <trkpt lat="43.3151440" lon="-3.2673240">
        <ele>92.2</ele>
        <time>2022-01-16T11:05:49Z</time>
      </trkpt>
      <trkpt lat="43.3151010" lon="-3.2672650">
        <ele>92.4</ele>
        <time>2022-01-16T11:05:50Z</time>
      </trkpt>
      <trkpt lat="43.3150570" lon="-3.2672180">
        <ele>92.6</ele>
        <time>2022-01-16T11:05:51Z</time>
      </trkpt>
      <trkpt lat="43.3150130" lon="-3.2671600">
        <ele>92.8</ele>
        <time>2022-01-16T11:05:52Z</time>
      </trkpt>
      <trkpt lat="43.3149700" lon="-3.2671020">
        <ele>93.0</ele>
        <time>2022-01-16T11:05:53Z</time>
      </trkpt>
      <trkpt lat="43.3149240" lon="-3.2670420">
        <ele>93.2</ele>
        <time>2022-01-16T11:05:54Z</time>
      </trkpt>
      <trkpt lat="43.3148790" lon="-3.2669820">
        <ele>93.4</ele>
        <time>2022-01-16T11:05:55Z</time>
      </trkpt>
      <trkpt lat="43.3148300" lon="-3.2669240">
        <ele>93.4</ele>
        <time>2022-01-16T11:05:56Z</time>
      </trkpt>
      <trkpt lat="43.3147810" lon="-3.2668690">
        <ele>93.6</ele>
        <time>2022-01-16T11:05:57Z</time>
      </trkpt>
      <trkpt lat="43.3147330" lon="-3.2668160">
        <ele>93.6</ele>
        <time>2022-01-16T11:05:58Z</time>
      </trkpt>
      <trkpt lat="43.3146780" lon="-3.2667650">
        <ele>93.8</ele>
        <time>2022-01-16T11:05:59Z</time>
      </trkpt>
      <trkpt lat="43.3146260" lon="-3.2667140">
        <ele>94.0</ele>
        <time>2022-01-16T11:06:00Z</time>
      </trkpt>
      <trkpt lat="43.3145730" lon="-3.2666650">
        <ele>94.2</ele>
        <time>2022-01-16T11:06:01Z</time>
      </trkpt>
      <trkpt lat="43.3145170" lon="-3.2666190">
        <ele>94.2</ele>
        <time>2022-01-16T11:06:02Z</time>
      </trkpt>
      <trkpt lat="43.3144620" lon="-3.2665750">
        <ele>94.4</ele>
        <time>2022-01-16T11:06:03Z</time>
      </trkpt>
      <trkpt lat="43.3144070" lon="-3.2665300">
        <ele>94.8</ele>
        <time>2022-01-16T11:06:04Z</time>
      </trkpt>
      <trkpt lat="43.3143540" lon="-3.2664860">
        <ele>94.8</ele>
        <time>2022-01-16T11:06:05Z</time>
      </trkpt>
      <trkpt lat="43.3142980" lon="-3.2664430">
        <ele>95.0</ele>
        <time>2022-01-16T11:06:06Z</time>
      </trkpt>
      <trkpt lat="43.3142410" lon="-3.2664010">
        <ele>95.2</ele>
        <time>2022-01-16T11:06:07Z</time>
      </trkpt>
      <trkpt lat="43.3141850" lon="-3.2663600">
        <ele>95.4</ele>
        <time>2022-01-16T11:06:08Z</time>
      </trkpt>
      <trkpt lat="43.3141270" lon="-3.2663170">
        <ele>95.4</ele>
        <time>2022-01-16T11:06:09Z</time>
      </trkpt>
      <trkpt lat="43.3140710" lon="-3.2662760">
        <ele>95.6</ele>
        <time>2022-01-16T11:06:10Z</time>
      </trkpt>
      <trkpt lat="43.3140170" lon="-3.2662380">
        <ele>96.0</ele>
        <time>2022-01-16T11:06:11Z</time>
      </trkpt>
      <trkpt lat="43.3139620" lon="-3.2662000">
        <ele>96.2</ele>
        <time>2022-01-16T11:06:12Z</time>
      </trkpt>
      <trkpt lat="43.3139090" lon="-3.2661630">
        <ele>96.4</ele>
        <time>2022-01-16T11:06:13Z</time>
      </trkpt>
      <trkpt lat="43.3138560" lon="-3.2661250">
        <ele>96.6</ele>
        <time>2022-01-16T11:06:14Z</time>
      </trkpt>
      <trkpt lat="43.3138030" lon="-3.2660870">
        <ele>96.8</ele>
        <time>2022-01-16T11:06:15Z</time>
      </trkpt>
      <trkpt lat="43.3137490" lon="-3.2660490">
        <ele>97.0</ele>
        <time>2022-01-16T11:06:16Z</time>
      </trkpt>
      <trkpt lat="43.3136940" lon="-3.2660110">
        <ele>97.2</ele>
        <time>2022-01-16T11:06:17Z</time>
      </trkpt>
      <trkpt lat="43.3136400" lon="-3.2659720">
        <ele>97.4</ele>
        <time>2022-01-16T11:06:18Z</time>
      </trkpt>
      <trkpt lat="43.3135860" lon="-3.2659350">
        <ele>97.6</ele>
        <time>2022-01-16T11:06:19Z</time>
      </trkpt>
      <trkpt lat="43.3135290" lon="-3.2658950">
        <ele>97.8</ele>
        <time>2022-01-16T11:06:20Z</time>
      </trkpt>
      <trkpt lat="43.3134730" lon="-3.2658550">
        <ele>98.0</ele>
        <time>2022-01-16T11:06:21Z</time>
      </trkpt>
      <trkpt lat="43.3134190" lon="-3.2658120">
        <ele>98.0</ele>
        <time>2022-01-16T11:06:22Z</time>
      </trkpt>
      <trkpt lat="43.3133670" lon="-3.2657720">
        <ele>98.4</ele>
        <time>2022-01-16T11:06:23Z</time>
      </trkpt>
      <trkpt lat="43.3133140" lon="-3.2657320">
        <ele>98.4</ele>
        <time>2022-01-16T11:06:24Z</time>
      </trkpt>
      <trkpt lat="43.3132640" lon="-3.2656960">
        <ele>98.6</ele>
        <time>2022-01-16T11:06:25Z</time>
      </trkpt>
      <trkpt lat="43.3132140" lon="-3.2656540">
        <ele>98.6</ele>
        <time>2022-01-16T11:06:26Z</time>
      </trkpt>
      <trkpt lat="43.3131640" lon="-3.2656090">
        <ele>98.8</ele>
        <time>2022-01-16T11:06:27Z</time>
      </trkpt>
      <trkpt lat="43.3131140" lon="-3.2655580">
        <ele>99.0</ele>
        <time>2022-01-16T11:06:28Z</time>
      </trkpt>
      <trkpt lat="43.3130670" lon="-3.2655030">
        <ele>99.0</ele>
        <time>2022-01-16T11:06:29Z</time>
      </trkpt>
      <trkpt lat="43.3130220" lon="-3.2654420">
        <ele>99.2</ele>
        <time>2022-01-16T11:06:30Z</time>
      </trkpt>
      <trkpt lat="43.3129800" lon="-3.2653780">
        <ele>99.2</ele>
        <time>2022-01-16T11:06:31Z</time>
      </trkpt>
      <trkpt lat="43.3129430" lon="-3.2653110">
        <ele>99.4</ele>
        <time>2022-01-16T11:06:32Z</time>
      </trkpt>
      <trkpt lat="43.3129100" lon="-3.2652420">
        <ele>99.6</ele>
        <time>2022-01-16T11:06:33Z</time>
      </trkpt>
      <trkpt lat="43.3128810" lon="-3.2651740">
        <ele>99.6</ele>
        <time>2022-01-16T11:06:34Z</time>
      </trkpt>
      <trkpt lat="43.3128580" lon="-3.2651050">
        <ele>99.4</ele>
        <time>2022-01-16T11:06:35Z</time>
      </trkpt>
      <trkpt lat="43.3128390" lon="-3.2650290">
        <ele>99.4</ele>
        <time>2022-01-16T11:06:36Z</time>
      </trkpt>
      <trkpt lat="43.3128220" lon="-3.2649480">
        <ele>99.4</ele>
        <time>2022-01-16T11:06:37Z</time>
      </trkpt>
      <trkpt lat="43.3128060" lon="-3.2648590">
        <ele>99.4</ele>
        <time>2022-01-16T11:06:38Z</time>
      </trkpt>
      <trkpt lat="43.3127930" lon="-3.2647650">
        <ele>99.4</ele>
        <time>2022-01-16T11:06:39Z</time>
      </trkpt>
      <trkpt lat="43.3127860" lon="-3.2646690">
        <ele>99.4</ele>
        <time>2022-01-16T11:06:40Z</time>
      </trkpt>
      <trkpt lat="43.3127830" lon="-3.2645680">
        <ele>99.2</ele>
        <time>2022-01-16T11:06:41Z</time>
      </trkpt>
      <trkpt lat="43.3127820" lon="-3.2644660">
        <ele>99.0</ele>
        <time>2022-01-16T11:06:42Z</time>
      </trkpt>
      <trkpt lat="43.3127880" lon="-3.2643630">
        <ele>98.6</ele>
        <time>2022-01-16T11:06:43Z</time>
      </trkpt>
      <trkpt lat="43.3127960" lon="-3.2642590">
        <ele>98.2</ele>
        <time>2022-01-16T11:06:44Z</time>
      </trkpt>
      <trkpt lat="43.3128010" lon="-3.2641530">
        <ele>98.0</ele>
        <time>2022-01-16T11:06:45Z</time>
      </trkpt>
      <trkpt lat="43.3128040" lon="-3.2640460">
        <ele>97.8</ele>
        <time>2022-01-16T11:06:46Z</time>
      </trkpt>
      <trkpt lat="43.3128020" lon="-3.2639380">
        <ele>97.4</ele>
        <time>2022-01-16T11:06:47Z</time>
      </trkpt>
      <trkpt lat="43.3128000" lon="-3.2638300">
        <ele>97.0</ele>
        <time>2022-01-16T11:06:48Z</time>
      </trkpt>
      <trkpt lat="43.3127950" lon="-3.2637220">
        <ele>97.0</ele>
        <time>2022-01-16T11:06:49Z</time>
      </trkpt>
      <trkpt lat="43.3127830" lon="-3.2636160">
        <ele>96.8</ele>
        <time>2022-01-16T11:06:50Z</time>
      </trkpt>
      <trkpt lat="43.3127700" lon="-3.2635120">
        <ele>96.8</ele>
        <time>2022-01-16T11:06:51Z</time>
      </trkpt>
      <trkpt lat="43.3127500" lon="-3.2634150">
        <ele>96.8</ele>
        <time>2022-01-16T11:06:52Z</time>
      </trkpt>
      <trkpt lat="43.3127260" lon="-3.2633180">
        <ele>96.8</ele>
        <time>2022-01-16T11:06:53Z</time>
      </trkpt>
      <trkpt lat="43.3127050" lon="-3.2632180">
        <ele>96.8</ele>
        <time>2022-01-16T11:06:54Z</time>
      </trkpt>
      <trkpt lat="43.3126790" lon="-3.2631230">
        <ele>96.8</ele>
        <time>2022-01-16T11:06:55Z</time>
      </trkpt>
      <trkpt lat="43.3126490" lon="-3.2630330">
        <ele>97.0</ele>
        <time>2022-01-16T11:06:56Z</time>
      </trkpt>
      <trkpt lat="43.3126150" lon="-3.2629460">
        <ele>97.0</ele>
        <time>2022-01-16T11:06:57Z</time>
      </trkpt>
      <trkpt lat="43.3125800" lon="-3.2628640">
        <ele>97.2</ele>
        <time>2022-01-16T11:06:58Z</time>
      </trkpt>
      <trkpt lat="43.3125430" lon="-3.2627850">
        <ele>97.4</ele>
        <time>2022-01-16T11:06:59Z</time>
      </trkpt>
      <trkpt lat="43.3125020" lon="-3.2627120">
        <ele>97.4</ele>
        <time>2022-01-16T11:07:00Z</time>
      </trkpt>
      <trkpt lat="43.3124580" lon="-3.2626420">
        <ele>97.6</ele>
        <time>2022-01-16T11:07:01Z</time>
      </trkpt>
      <trkpt lat="43.3124120" lon="-3.2625740">
        <ele>97.8</ele>
        <time>2022-01-16T11:07:02Z</time>
      </trkpt>
      <trkpt lat="43.3123640" lon="-3.2625140">
        <ele>98.0</ele>
        <time>2022-01-16T11:07:03Z</time>
      </trkpt>
      <trkpt lat="43.3123140" lon="-3.2624540">
        <ele>98.0</ele>
        <time>2022-01-16T11:07:04Z</time>
      </trkpt>
      <trkpt lat="43.3122650" lon="-3.2623940">
        <ele>98.2</ele>
        <time>2022-01-16T11:07:05Z</time>
      </trkpt>
      <trkpt lat="43.3122150" lon="-3.2623460">
        <ele>98.4</ele>
        <time>2022-01-16T11:07:06Z</time>
      </trkpt>
      <trkpt lat="43.3121590" lon="-3.2622870">
        <ele>98.4</ele>
        <time>2022-01-16T11:07:07Z</time>
      </trkpt>
      <trkpt lat="43.3121090" lon="-3.2622320">
        <ele>98.6</ele>
        <time>2022-01-16T11:07:08Z</time>
      </trkpt>
      <trkpt lat="43.3120590" lon="-3.2621730">
        <ele>98.6</ele>
        <time>2022-01-16T11:07:09Z</time>
      </trkpt>
      <trkpt lat="43.3120050" lon="-3.2621110">
        <ele>98.8</ele>
        <time>2022-01-16T11:07:10Z</time>
      </trkpt>
      <trkpt lat="43.3119470" lon="-3.2620510">
        <ele>98.8</ele>
        <time>2022-01-16T11:07:11Z</time>
      </trkpt>
      <trkpt lat="43.3118890" lon="-3.2619950">
        <ele>99.0</ele>
        <time>2022-01-16T11:07:12Z</time>
      </trkpt>
      <trkpt lat="43.3118240" lon="-3.2619310">
        <ele>99.2</ele>
        <time>2022-01-16T11:07:13Z</time>
      </trkpt>
      <trkpt lat="43.3117570" lon="-3.2618710">
        <ele>99.4</ele>
        <time>2022-01-16T11:07:14Z</time>
      </trkpt>
      <trkpt lat="43.3116940" lon="-3.2618160">
        <ele>99.4</ele>
        <time>2022-01-16T11:07:15Z</time>
      </trkpt>
      <trkpt lat="43.3116320" lon="-3.2617650">
        <ele>99.8</ele>
        <time>2022-01-16T11:07:16Z</time>
      </trkpt>
      <trkpt lat="43.3115690" lon="-3.2617230">
        <ele>100.0</ele>
        <time>2022-01-16T11:07:17Z</time>
      </trkpt>
      <trkpt lat="43.3115050" lon="-3.2616850">
        <ele>100.0</ele>
        <time>2022-01-16T11:07:18Z</time>
      </trkpt>
      <trkpt lat="43.3114410" lon="-3.2616500">
        <ele>100.2</ele>
        <time>2022-01-16T11:07:19Z</time>
      </trkpt>
      <trkpt lat="43.3113760" lon="-3.2616220">
        <ele>100.6</ele>
        <time>2022-01-16T11:07:20Z</time>
      </trkpt>
      <trkpt lat="43.3113180" lon="-3.2615980">
        <ele>100.8</ele>
        <time>2022-01-16T11:07:21Z</time>
      </trkpt>
      <trkpt lat="43.3112600" lon="-3.2615770">
        <ele>100.8</ele>
        <time>2022-01-16T11:07:22Z</time>
      </trkpt>
      <trkpt lat="43.3111990" lon="-3.2615530">
        <ele>101.0</ele>
        <time>2022-01-16T11:07:23Z</time>
      </trkpt>
      <trkpt lat="43.3111350" lon="-3.2615290">
        <ele>101.0</ele>
        <time>2022-01-16T11:07:24Z</time>
      </trkpt>
      <trkpt lat="43.3110720" lon="-3.2615100">
        <ele>101.2</ele>
        <time>2022-01-16T11:07:25Z</time>
      </trkpt>
      <trkpt lat="43.3110060" lon="-3.2615040">
        <ele>101.4</ele>
        <time>2022-01-16T11:07:26Z</time>
      </trkpt>
      <trkpt lat="43.3109400" lon="-3.2615040">
        <ele>101.6</ele>
        <time>2022-01-16T11:07:27Z</time>
      </trkpt>
      <trkpt lat="43.3108710" lon="-3.2615120">
        <ele>101.6</ele>
        <time>2022-01-16T11:07:28Z</time>
      </trkpt>
      <trkpt lat="43.3107990" lon="-3.2615190">
        <ele>101.6</ele>
        <time>2022-01-16T11:07:29Z</time>
      </trkpt>
      <trkpt lat="43.3107220" lon="-3.2615220">
        <ele>101.8</ele>
        <time>2022-01-16T11:07:30Z</time>
      </trkpt>
      <trkpt lat="43.3106480" lon="-3.2615250">
        <ele>101.8</ele>
        <time>2022-01-16T11:07:31Z</time>
      </trkpt>
      <trkpt lat="43.3105760" lon="-3.2615320">
        <ele>101.8</ele>
        <time>2022-01-16T11:07:32Z</time>
      </trkpt>
      <trkpt lat="43.3105030" lon="-3.2615420">
        <ele>101.8</ele>
        <time>2022-01-16T11:07:33Z</time>
      </trkpt>
      <trkpt lat="43.3104280" lon="-3.2615410">
        <ele>101.8</ele>
        <time>2022-01-16T11:07:34Z</time>
      </trkpt>
      <trkpt lat="43.3103490" lon="-3.2615460">
        <ele>102.0</ele>
        <time>2022-01-16T11:07:35Z</time>
      </trkpt>
      <trkpt lat="43.3102700" lon="-3.2615530">
        <ele>102.0</ele>
        <time>2022-01-16T11:07:36Z</time>
      </trkpt>
      <trkpt lat="43.3101890" lon="-3.2615640">
        <ele>102.2</ele>
        <time>2022-01-16T11:07:37Z</time>
      </trkpt>
      <trkpt lat="43.3101080" lon="-3.2615640">
        <ele>102.2</ele>
        <time>2022-01-16T11:07:38Z</time>
      </trkpt>
      <trkpt lat="43.3100290" lon="-3.2615640">
        <ele>102.2</ele>
        <time>2022-01-16T11:07:39Z</time>
      </trkpt>
      <trkpt lat="43.3099480" lon="-3.2615620">
        <ele>102.2</ele>
        <time>2022-01-16T11:07:40Z</time>
      </trkpt>
      <trkpt lat="43.3098650" lon="-3.2615520">
        <ele>102.2</ele>
        <time>2022-01-16T11:07:41Z</time>
      </trkpt>
      <trkpt lat="43.3097780" lon="-3.2615400">
        <ele>102.0</ele>
        <time>2022-01-16T11:07:42Z</time>
      </trkpt>
      <trkpt lat="43.3096910" lon="-3.2615270">
        <ele>102.0</ele>
        <time>2022-01-16T11:07:43Z</time>
      </trkpt>
      <trkpt lat="43.3096060" lon="-3.2615150">
        <ele>101.8</ele>
        <time>2022-01-16T11:07:44Z</time>
      </trkpt>
      <trkpt lat="43.3095150" lon="-3.2614920">
        <ele>101.8</ele>
        <time>2022-01-16T11:07:45Z</time>
      </trkpt>
      <trkpt lat="43.3094270" lon="-3.2614690">
        <ele>101.6</ele>
        <time>2022-01-16T11:07:46Z</time>
      </trkpt>
      <trkpt lat="43.3093380" lon="-3.2614490">
        <ele>101.4</ele>
        <time>2022-01-16T11:07:47Z</time>
      </trkpt>
      <trkpt lat="43.3092530" lon="-3.2614280">
        <ele>101.4</ele>
        <time>2022-01-16T11:07:48Z</time>
      </trkpt>
      <trkpt lat="43.3091690" lon="-3.2614060">
        <ele>101.2</ele>
        <time>2022-01-16T11:07:49Z</time>
      </trkpt>
      <trkpt lat="43.3090860" lon="-3.2613830">
        <ele>101.2</ele>
        <time>2022-01-16T11:07:50Z</time>
      </trkpt>
      <trkpt lat="43.3090060" lon="-3.2613580">
        <ele>101.2</ele>
        <time>2022-01-16T11:07:51Z</time>
      </trkpt>
      <trkpt lat="43.3089250" lon="-3.2613380">
        <ele>101.2</ele>
        <time>2022-01-16T11:07:52Z</time>
      </trkpt>
      <trkpt lat="43.3088450" lon="-3.2613190">
        <ele>101.2</ele>
        <time>2022-01-16T11:07:53Z</time>
      </trkpt>
      <trkpt lat="43.3087650" lon="-3.2613020">
        <ele>101.4</ele>
        <time>2022-01-16T11:07:54Z</time>
      </trkpt>
      <trkpt lat="43.3086880" lon="-3.2612830">
        <ele>101.6</ele>
        <time>2022-01-16T11:07:55Z</time>
      </trkpt>
      <trkpt lat="43.3086180" lon="-3.2612650">
        <ele>101.6</ele>
        <time>2022-01-16T11:07:56Z</time>
      </trkpt>
      <trkpt lat="43.3085470" lon="-3.2612480">
        <ele>101.8</ele>
        <time>2022-01-16T11:07:57Z</time>
      </trkpt>
      <trkpt lat="43.3084760" lon="-3.2612290">
        <ele>101.8</ele>
        <time>2022-01-16T11:07:58Z</time>
      </trkpt>
      <trkpt lat="43.3084040" lon="-3.2612090">
        <ele>102.0</ele>
        <time>2022-01-16T11:07:59Z</time>
      </trkpt>
      <trkpt lat="43.3083320" lon="-3.2611910">
        <ele>102.2</ele>
        <time>2022-01-16T11:08:00Z</time>
      </trkpt>
      <trkpt lat="43.3082600" lon="-3.2611800">
        <ele>102.4</ele>
        <time>2022-01-16T11:08:01Z</time>
      </trkpt>
      <trkpt lat="43.3081890" lon="-3.2611760">
        <ele>102.8</ele>
        <time>2022-01-16T11:08:02Z</time>
      </trkpt>
      <trkpt lat="43.3081190" lon="-3.2611710">
        <ele>103.0</ele>
        <time>2022-01-16T11:08:03Z</time>
      </trkpt>
      <trkpt lat="43.3080510" lon="-3.2611700">
        <ele>103.2</ele>
        <time>2022-01-16T11:08:04Z</time>
      </trkpt>
      <trkpt lat="43.3079790" lon="-3.2611710">
        <ele>103.4</ele>
        <time>2022-01-16T11:08:05Z</time>
      </trkpt>
      <trkpt lat="43.3079070" lon="-3.2611750">
        <ele>103.6</ele>
        <time>2022-01-16T11:08:06Z</time>
      </trkpt>
      <trkpt lat="43.3078340" lon="-3.2611810">
        <ele>104.0</ele>
        <time>2022-01-16T11:08:07Z</time>
      </trkpt>
      <trkpt lat="43.3077670" lon="-3.2612000">
        <ele>104.2</ele>
        <time>2022-01-16T11:08:08Z</time>
      </trkpt>
      <trkpt lat="43.3077010" lon="-3.2612270">
        <ele>104.4</ele>
        <time>2022-01-16T11:08:09Z</time>
      </trkpt>
      <trkpt lat="43.3076370" lon="-3.2612640">
        <ele>104.8</ele>
        <time>2022-01-16T11:08:10Z</time>
      </trkpt>
      <trkpt lat="43.3075760" lon="-3.2613080">
        <ele>105.0</ele>
        <time>2022-01-16T11:08:11Z</time>
      </trkpt>
      <trkpt lat="43.3075210" lon="-3.2613600">
        <ele>105.0</ele>
        <time>2022-01-16T11:08:12Z</time>
      </trkpt>
      <trkpt lat="43.3074660" lon="-3.2614130">
        <ele>105.4</ele>
        <time>2022-01-16T11:08:13Z</time>
      </trkpt>
      <trkpt lat="43.3074130" lon="-3.2614650">
        <ele>105.6</ele>
        <time>2022-01-16T11:08:14Z</time>
      </trkpt>
      <trkpt lat="43.3073610" lon="-3.2615130">
        <ele>105.8</ele>
        <time>2022-01-16T11:08:15Z</time>
      </trkpt>
      <trkpt lat="43.3073100" lon="-3.2615660">
        <ele>106.0</ele>
        <time>2022-01-16T11:08:16Z</time>
      </trkpt>
      <trkpt lat="43.3072560" lon="-3.2616160">
        <ele>106.4</ele>
        <time>2022-01-16T11:08:17Z</time>
      </trkpt>
      <trkpt lat="43.3072050" lon="-3.2616650">
        <ele>106.6</ele>
        <time>2022-01-16T11:08:18Z</time>
      </trkpt>
      <trkpt lat="43.3071520" lon="-3.2617160">
        <ele>106.8</ele>
        <time>2022-01-16T11:08:19Z</time>
      </trkpt>
      <trkpt lat="43.3070970" lon="-3.2617630">
        <ele>107.0</ele>
        <time>2022-01-16T11:08:20Z</time>
      </trkpt>
      <trkpt lat="43.3070400" lon="-3.2617980">
        <ele>107.4</ele>
        <time>2022-01-16T11:08:21Z</time>
      </trkpt>
      <trkpt lat="43.3069790" lon="-3.2618210">
        <ele>107.8</ele>
        <time>2022-01-16T11:08:22Z</time>
      </trkpt>
      <trkpt lat="43.3069170" lon="-3.2618350">
        <ele>108.2</ele>
        <time>2022-01-16T11:08:23Z</time>
      </trkpt>
      <trkpt lat="43.3068550" lon="-3.2618300">
        <ele>108.4</ele>
        <time>2022-01-16T11:08:24Z</time>
      </trkpt>
      <trkpt lat="43.3067930" lon="-3.2618160">
        <ele>108.8</ele>
        <time>2022-01-16T11:08:25Z</time>
      </trkpt>
      <trkpt lat="43.3067320" lon="-3.2617900">
        <ele>109.2</ele>
        <time>2022-01-16T11:08:26Z</time>
      </trkpt>
      <trkpt lat="43.3066780" lon="-3.2617540">
        <ele>109.4</ele>
        <time>2022-01-16T11:08:27Z</time>
      </trkpt>
      <trkpt lat="43.3066260" lon="-3.2617080">
        <ele>109.4</ele>
        <time>2022-01-16T11:08:28Z</time>
      </trkpt>
      <trkpt lat="43.3065760" lon="-3.2616590">
        <ele>109.6</ele>
        <time>2022-01-16T11:08:29Z</time>
      </trkpt>
      <trkpt lat="43.3065250" lon="-3.2616160">
        <ele>109.8</ele>
        <time>2022-01-16T11:08:30Z</time>
      </trkpt>
      <trkpt lat="43.3064750" lon="-3.2615790">
        <ele>110.0</ele>
        <time>2022-01-16T11:08:31Z</time>
      </trkpt>
      <trkpt lat="43.3064210" lon="-3.2615440">
        <ele>110.4</ele>
        <time>2022-01-16T11:08:32Z</time>
      </trkpt>
      <trkpt lat="43.3063650" lon="-3.2615200">
        <ele>110.6</ele>
        <time>2022-01-16T11:08:33Z</time>
      </trkpt>
      <trkpt lat="43.3063070" lon="-3.2614920">
        <ele>111.0</ele>
        <time>2022-01-16T11:08:34Z</time>
      </trkpt>
      <trkpt lat="43.3062510" lon="-3.2614660">
        <ele>111.2</ele>
        <time>2022-01-16T11:08:35Z</time>
      </trkpt>
      <trkpt lat="43.3061940" lon="-3.2614460">
        <ele>111.4</ele>
        <time>2022-01-16T11:08:36Z</time>
      </trkpt>
      <trkpt lat="43.3061340" lon="-3.2614280">
        <ele>111.6</ele>
        <time>2022-01-16T11:08:37Z</time>
      </trkpt>
      <trkpt lat="43.3060790" lon="-3.2614050">
        <ele>111.8</ele>
        <time>2022-01-16T11:08:38Z</time>
      </trkpt>
      <trkpt lat="43.3060250" lon="-3.2613840">
        <ele>112.2</ele>
        <time>2022-01-16T11:08:39Z</time>
      </trkpt>
      <trkpt lat="43.3059710" lon="-3.2613690">
        <ele>112.4</ele>
        <time>2022-01-16T11:08:40Z</time>
      </trkpt>
      <trkpt lat="43.3059170" lon="-3.2613470">
        <ele>112.6</ele>
        <time>2022-01-16T11:08:41Z</time>
      </trkpt>
      <trkpt lat="43.3058600" lon="-3.2613240">
        <ele>113.0</ele>
        <time>2022-01-16T11:08:42Z</time>
      </trkpt>
      <trkpt lat="43.3058010" lon="-3.2612960">
        <ele>113.2</ele>
        <time>2022-01-16T11:08:43Z</time>
      </trkpt>
      <trkpt lat="43.3057450" lon="-3.2612690">
        <ele>113.6</ele>
        <time>2022-01-16T11:08:44Z</time>
      </trkpt>
      <trkpt lat="43.3056880" lon="-3.2612470">
        <ele>113.8</ele>
        <time>2022-01-16T11:08:45Z</time>
      </trkpt>
      <trkpt lat="43.3056310" lon="-3.2612220">
        <ele>114.0</ele>
        <time>2022-01-16T11:08:46Z</time>
      </trkpt>
      <trkpt lat="43.3055750" lon="-3.2612010">
        <ele>114.2</ele>
        <time>2022-01-16T11:08:47Z</time>
      </trkpt>
      <trkpt lat="43.3055180" lon="-3.2611740">
        <ele>114.2</ele>
        <time>2022-01-16T11:08:48Z</time>
      </trkpt>
      <trkpt lat="43.3054600" lon="-3.2611500">
        <ele>114.4</ele>
        <time>2022-01-16T11:08:49Z</time>
      </trkpt>
      <trkpt lat="43.3054000" lon="-3.2611270">
        <ele>114.4</ele>
        <time>2022-01-16T11:08:50Z</time>
      </trkpt>
      <trkpt lat="43.3053450" lon="-3.2611070">
        <ele>114.6</ele>
        <time>2022-01-16T11:08:51Z</time>
      </trkpt>
      <trkpt lat="43.3052900" lon="-3.2610820">
        <ele>114.6</ele>
        <time>2022-01-16T11:08:52Z</time>
      </trkpt>
      <trkpt lat="43.3052370" lon="-3.2610620">
        <ele>114.6</ele>
        <time>2022-01-16T11:08:53Z</time>
      </trkpt>
      <trkpt lat="43.3051850" lon="-3.2610430">
        <ele>114.8</ele>
        <time>2022-01-16T11:08:54Z</time>
      </trkpt>
      <trkpt lat="43.3051270" lon="-3.2610280">
        <ele>115.2</ele>
        <time>2022-01-16T11:08:55Z</time>
      </trkpt>
      <trkpt lat="43.3050760" lon="-3.2610160">
        <ele>115.6</ele>
        <time>2022-01-16T11:08:56Z</time>
      </trkpt>
      <trkpt lat="43.3050310" lon="-3.2610120">
        <ele>115.8</ele>
        <time>2022-01-16T11:08:57Z</time>
      </trkpt>
      <trkpt lat="43.3049860" lon="-3.2610110">
        <ele>116.2</ele>
        <time>2022-01-16T11:08:58Z</time>
      </trkpt>
      <trkpt lat="43.3049430" lon="-3.2610110">
        <ele>116.4</ele>
        <time>2022-01-16T11:08:59Z</time>
      </trkpt>
      <trkpt lat="43.3048990" lon="-3.2610050">
        <ele>116.6</ele>
        <time>2022-01-16T11:09:00Z</time>
      </trkpt>
      <trkpt lat="43.3048560" lon="-3.2610000">
        <ele>116.8</ele>
        <time>2022-01-16T11:09:01Z</time>
      </trkpt>
      <trkpt lat="43.3048050" lon="-3.2609920">
        <ele>117.2</ele>
        <time>2022-01-16T11:09:02Z</time>
      </trkpt>
      <trkpt lat="43.3047510" lon="-3.2609760">
        <ele>117.4</ele>
        <time>2022-01-16T11:09:03Z</time>
      </trkpt>
      <trkpt lat="43.3046930" lon="-3.2609600">
        <ele>117.6</ele>
        <time>2022-01-16T11:09:04Z</time>
      </trkpt>
      <trkpt lat="43.3046310" lon="-3.2609360">
        <ele>117.8</ele>
        <time>2022-01-16T11:09:05Z</time>
      </trkpt>
      <trkpt lat="43.3045730" lon="-3.2609230">
        <ele>117.8</ele>
        <time>2022-01-16T11:09:06Z</time>
      </trkpt>
      <trkpt lat="43.3045160" lon="-3.2609110">
        <ele>117.8</ele>
        <time>2022-01-16T11:09:07Z</time>
      </trkpt>
      <trkpt lat="43.3044550" lon="-3.2608990">
        <ele>118.0</ele>
        <time>2022-01-16T11:09:08Z</time>
      </trkpt>
      <trkpt lat="43.3043960" lon="-3.2608830">
        <ele>118.0</ele>
        <time>2022-01-16T11:09:09Z</time>
      </trkpt>
      <trkpt lat="43.3043400" lon="-3.2608610">
        <ele>118.2</ele>
        <time>2022-01-16T11:09:10Z</time>
      </trkpt>
      <trkpt lat="43.3042800" lon="-3.2608410">
        <ele>118.2</ele>
        <time>2022-01-16T11:09:11Z</time>
      </trkpt>
      <trkpt lat="43.3042220" lon="-3.2608190">
        <ele>118.2</ele>
        <time>2022-01-16T11:09:12Z</time>
      </trkpt>
      <trkpt lat="43.3041550" lon="-3.2607910">
        <ele>118.2</ele>
        <time>2022-01-16T11:09:13Z</time>
      </trkpt>
      <trkpt lat="43.3040900" lon="-3.2607760">
        <ele>118.2</ele>
        <time>2022-01-16T11:09:14Z</time>
      </trkpt>
      <trkpt lat="43.3040260" lon="-3.2607560">
        <ele>118.4</ele>
        <time>2022-01-16T11:09:15Z</time>
      </trkpt>
      <trkpt lat="43.3039610" lon="-3.2607260">
        <ele>118.4</ele>
        <time>2022-01-16T11:09:16Z</time>
      </trkpt>
      <trkpt lat="43.3038940" lon="-3.2606920">
        <ele>118.4</ele>
        <time>2022-01-16T11:09:17Z</time>
      </trkpt>
      <trkpt lat="43.3038230" lon="-3.2606600">
        <ele>118.4</ele>
        <time>2022-01-16T11:09:18Z</time>
      </trkpt>
      <trkpt lat="43.3037540" lon="-3.2606250">
        <ele>118.6</ele>
        <time>2022-01-16T11:09:19Z</time>
      </trkpt>
      <trkpt lat="43.3036860" lon="-3.2605790">
        <ele>118.6</ele>
        <time>2022-01-16T11:09:20Z</time>
      </trkpt>
      <trkpt lat="43.3036240" lon="-3.2605250">
        <ele>118.8</ele>
        <time>2022-01-16T11:09:21Z</time>
      </trkpt>
      <trkpt lat="43.3035600" lon="-3.2604730">
        <ele>118.8</ele>
        <time>2022-01-16T11:09:22Z</time>
      </trkpt>
      <trkpt lat="43.3034990" lon="-3.2604110">
        <ele>118.8</ele>
        <time>2022-01-16T11:09:23Z</time>
      </trkpt>
      <trkpt lat="43.3034410" lon="-3.2603470">
        <ele>118.8</ele>
        <time>2022-01-16T11:09:24Z</time>
      </trkpt>
      <trkpt lat="43.3033900" lon="-3.2602800">
        <ele>119.0</ele>
        <time>2022-01-16T11:09:25Z</time>
      </trkpt>
      <trkpt lat="43.3033330" lon="-3.2602080">
        <ele>119.0</ele>
        <time>2022-01-16T11:09:26Z</time>
      </trkpt>
      <trkpt lat="43.3032750" lon="-3.2601420">
        <ele>119.0</ele>
        <time>2022-01-16T11:09:27Z</time>
      </trkpt>
      <trkpt lat="43.3032140" lon="-3.2600830">
        <ele>119.0</ele>
        <time>2022-01-16T11:09:28Z</time>
      </trkpt>
      <trkpt lat="43.3031430" lon="-3.2600290">
        <ele>119.0</ele>
        <time>2022-01-16T11:09:29Z</time>
      </trkpt>
      <trkpt lat="43.3030660" lon="-3.2599940">
        <ele>119.0</ele>
        <time>2022-01-16T11:09:30Z</time>
      </trkpt>
      <trkpt lat="43.3029790" lon="-3.2599720">
        <ele>118.8</ele>
        <time>2022-01-16T11:09:31Z</time>
      </trkpt>
      <trkpt lat="43.3028930" lon="-3.2599550">
        <ele>118.6</ele>
        <time>2022-01-16T11:09:32Z</time>
      </trkpt>
      <trkpt lat="43.3028090" lon="-3.2599470">
        <ele>118.6</ele>
        <time>2022-01-16T11:09:33Z</time>
      </trkpt>
      <trkpt lat="43.3027280" lon="-3.2599480">
        <ele>118.6</ele>
        <time>2022-01-16T11:09:34Z</time>
      </trkpt>
      <trkpt lat="43.3026430" lon="-3.2599540">
        <ele>118.6</ele>
        <time>2022-01-16T11:09:35Z</time>
      </trkpt>
      <trkpt lat="43.3025570" lon="-3.2599660">
        <ele>118.6</ele>
        <time>2022-01-16T11:09:36Z</time>
      </trkpt>
      <trkpt lat="43.3024730" lon="-3.2599880">
        <ele>118.6</ele>
        <time>2022-01-16T11:09:37Z</time>
      </trkpt>
      <trkpt lat="43.3023900" lon="-3.2600090">
        <ele>118.8</ele>
        <time>2022-01-16T11:09:38Z</time>
      </trkpt>
      <trkpt lat="43.3023060" lon="-3.2600290">
        <ele>118.8</ele>
        <time>2022-01-16T11:09:39Z</time>
      </trkpt>
      <trkpt lat="43.3022230" lon="-3.2600410">
        <ele>118.8</ele>
        <time>2022-01-16T11:09:40Z</time>
      </trkpt>
      <trkpt lat="43.3021410" lon="-3.2600540">
        <ele>118.6</ele>
        <time>2022-01-16T11:09:41Z</time>
      </trkpt>
      <trkpt lat="43.3020610" lon="-3.2600630">
        <ele>118.6</ele>
        <time>2022-01-16T11:09:42Z</time>
      </trkpt>
      <trkpt lat="43.3019830" lon="-3.2600710">
        <ele>118.6</ele>
        <time>2022-01-16T11:09:43Z</time>
      </trkpt>
      <trkpt lat="43.3019190" lon="-3.2600760">
        <ele>118.6</ele>
        <time>2022-01-16T11:09:44Z</time>
      </trkpt>
      <trkpt lat="43.3018430" lon="-3.2600810">
        <ele>118.6</ele>
        <time>2022-01-16T11:09:45Z</time>
      </trkpt>
      <trkpt lat="43.3017750" lon="-3.2600810">
        <ele>118.8</ele>
        <time>2022-01-16T11:09:46Z</time>
      </trkpt>
      <trkpt lat="43.3017030" lon="-3.2600820">
        <ele>119.0</ele>
        <time>2022-01-16T11:09:47Z</time>
      </trkpt>
      <trkpt lat="43.3016320" lon="-3.2600790">
        <ele>119.2</ele>
        <time>2022-01-16T11:09:48Z</time>
      </trkpt>
      <trkpt lat="43.3015620" lon="-3.2600740">
        <ele>119.2</ele>
        <time>2022-01-16T11:09:49Z</time>
      </trkpt>
      <trkpt lat="43.3014920" lon="-3.2600640">
        <ele>119.4</ele>
        <time>2022-01-16T11:09:50Z</time>
      </trkpt>
      <trkpt lat="43.3014220" lon="-3.2600480">
        <ele>119.8</ele>
        <time>2022-01-16T11:09:51Z</time>
      </trkpt>
      <trkpt lat="43.3013520" lon="-3.2600230">
        <ele>120.0</ele>
        <time>2022-01-16T11:09:52Z</time>
      </trkpt>
      <trkpt lat="43.3012870" lon="-3.2599910">
        <ele>120.2</ele>
        <time>2022-01-16T11:09:53Z</time>
      </trkpt>
      <trkpt lat="43.3012240" lon="-3.2599550">
        <ele>120.4</ele>
        <time>2022-01-16T11:09:54Z</time>
      </trkpt>
      <trkpt lat="43.3011630" lon="-3.2599080">
        <ele>120.6</ele>
        <time>2022-01-16T11:09:55Z</time>
      </trkpt>
      <trkpt lat="43.3011070" lon="-3.2598540">
        <ele>121.0</ele>
        <time>2022-01-16T11:09:56Z</time>
      </trkpt>
      <trkpt lat="43.3010550" lon="-3.2597910">
        <ele>121.2</ele>
        <time>2022-01-16T11:09:57Z</time>
      </trkpt>
      <trkpt lat="43.3010080" lon="-3.2597210">
        <ele>121.2</ele>
        <time>2022-01-16T11:09:58Z</time>
      </trkpt>
      <trkpt lat="43.3009640" lon="-3.2596480">
        <ele>121.4</ele>
        <time>2022-01-16T11:09:59Z</time>
      </trkpt>
      <trkpt lat="43.3009270" lon="-3.2595700">
        <ele>121.6</ele>
        <time>2022-01-16T11:10:00Z</time>
      </trkpt>
      <trkpt lat="43.3008960" lon="-3.2594890">
        <ele>121.6</ele>
        <time>2022-01-16T11:10:01Z</time>
      </trkpt>
      <trkpt lat="43.3008690" lon="-3.2594020">
        <ele>121.8</ele>
        <time>2022-01-16T11:10:02Z</time>
      </trkpt>
      <trkpt lat="43.3008450" lon="-3.2593100">
        <ele>121.8</ele>
        <time>2022-01-16T11:10:03Z</time>
      </trkpt>
      <trkpt lat="43.3008250" lon="-3.2592180">
        <ele>121.8</ele>
        <time>2022-01-16T11:10:04Z</time>
      </trkpt>
      <trkpt lat="43.3008100" lon="-3.2591290">
        <ele>122.0</ele>
        <time>2022-01-16T11:10:05Z</time>
      </trkpt>
      <trkpt lat="43.3007980" lon="-3.2590350">
        <ele>122.2</ele>
        <time>2022-01-16T11:10:06Z</time>
      </trkpt>
      <trkpt lat="43.3007900" lon="-3.2589420">
        <ele>122.4</ele>
        <time>2022-01-16T11:10:07Z</time>
      </trkpt>
      <trkpt lat="43.3007830" lon="-3.2588460">
        <ele>122.6</ele>
        <time>2022-01-16T11:10:08Z</time>
      </trkpt>
      <trkpt lat="43.3007750" lon="-3.2587480">
        <ele>122.8</ele>
        <time>2022-01-16T11:10:09Z</time>
      </trkpt>
      <trkpt lat="43.3007670" lon="-3.2586500">
        <ele>122.8</ele>
        <time>2022-01-16T11:10:10Z</time>
      </trkpt>
      <trkpt lat="43.3007560" lon="-3.2585510">
        <ele>122.8</ele>
        <time>2022-01-16T11:10:11Z</time>
      </trkpt>
      <trkpt lat="43.3007430" lon="-3.2584530">
        <ele>122.8</ele>
        <time>2022-01-16T11:10:12Z</time>
      </trkpt>
      <trkpt lat="43.3007280" lon="-3.2583550">
        <ele>122.8</ele>
        <time>2022-01-16T11:10:13Z</time>
      </trkpt>
      <trkpt lat="43.3007040" lon="-3.2582610">
        <ele>122.8</ele>
        <time>2022-01-16T11:10:14Z</time>
      </trkpt>
      <trkpt lat="43.3006750" lon="-3.2581710">
        <ele>122.8</ele>
        <time>2022-01-16T11:10:15Z</time>
      </trkpt>
      <trkpt lat="43.3006420" lon="-3.2580830">
        <ele>122.6</ele>
        <time>2022-01-16T11:10:16Z</time>
      </trkpt>
      <trkpt lat="43.3006120" lon="-3.2579960">
        <ele>122.4</ele>
        <time>2022-01-16T11:10:17Z</time>
      </trkpt>
      <trkpt lat="43.3005820" lon="-3.2579170">
        <ele>122.2</ele>
        <time>2022-01-16T11:10:18Z</time>
      </trkpt>
      <trkpt lat="43.3005510" lon="-3.2578330">
        <ele>122.2</ele>
        <time>2022-01-16T11:10:19Z</time>
      </trkpt>
      <trkpt lat="43.3005190" lon="-3.2577450">
        <ele>122.0</ele>
        <time>2022-01-16T11:10:20Z</time>
      </trkpt>
      <trkpt lat="43.3004870" lon="-3.2576570">
        <ele>122.0</ele>
        <time>2022-01-16T11:10:21Z</time>
      </trkpt>
      <trkpt lat="43.3004580" lon="-3.2575700">
        <ele>122.0</ele>
        <time>2022-01-16T11:10:22Z</time>
      </trkpt>
      <trkpt lat="43.3004250" lon="-3.2574810">
        <ele>121.8</ele>
        <time>2022-01-16T11:10:23Z</time>
      </trkpt>
      <trkpt lat="43.3003950" lon="-3.2573950">
        <ele>121.8</ele>
        <time>2022-01-16T11:10:24Z</time>
      </trkpt>
      <trkpt lat="43.3003570" lon="-3.2573130">
        <ele>121.8</ele>
        <time>2022-01-16T11:10:25Z</time>
      </trkpt>
      <trkpt lat="43.3003160" lon="-3.2572440">
        <ele>121.8</ele>
        <time>2022-01-16T11:10:26Z</time>
      </trkpt>
      <trkpt lat="43.3002730" lon="-3.2571610">
        <ele>121.6</ele>
        <time>2022-01-16T11:10:27Z</time>
      </trkpt>
      <trkpt lat="43.3002320" lon="-3.2570840">
        <ele>121.6</ele>
        <time>2022-01-16T11:10:28Z</time>
      </trkpt>
      <trkpt lat="43.3001920" lon="-3.2570070">
        <ele>121.6</ele>
        <time>2022-01-16T11:10:29Z</time>
      </trkpt>
      <trkpt lat="43.3001470" lon="-3.2569260">
        <ele>121.6</ele>
        <time>2022-01-16T11:10:30Z</time>
      </trkpt>
      <trkpt lat="43.3000970" lon="-3.2568340">
        <ele>121.4</ele>
        <time>2022-01-16T11:10:31Z</time>
      </trkpt>
      <trkpt lat="43.3000490" lon="-3.2567490">
        <ele>121.4</ele>
        <time>2022-01-16T11:10:32Z</time>
      </trkpt>
      <trkpt lat="43.2999980" lon="-3.2566620">
        <ele>121.2</ele>
        <time>2022-01-16T11:10:33Z</time>
      </trkpt>
      <trkpt lat="43.2999440" lon="-3.2565760">
        <ele>121.0</ele>
        <time>2022-01-16T11:10:34Z</time>
      </trkpt>
      <trkpt lat="43.2998840" lon="-3.2564900">
        <ele>121.0</ele>
        <time>2022-01-16T11:10:35Z</time>
      </trkpt>
      <trkpt lat="43.2998230" lon="-3.2564100">
        <ele>120.8</ele>
        <time>2022-01-16T11:10:36Z</time>
      </trkpt>
      <trkpt lat="43.2997570" lon="-3.2563340">
        <ele>120.8</ele>
        <time>2022-01-16T11:10:37Z</time>
      </trkpt>
      <trkpt lat="43.2996890" lon="-3.2562580">
        <ele>120.6</ele>
        <time>2022-01-16T11:10:38Z</time>
      </trkpt>
      <trkpt lat="43.2996230" lon="-3.2561830">
        <ele>120.6</ele>
        <time>2022-01-16T11:10:39Z</time>
      </trkpt>
      <trkpt lat="43.2995600" lon="-3.2561080">
        <ele>120.4</ele>
        <time>2022-01-16T11:10:40Z</time>
      </trkpt>
      <trkpt lat="43.2994960" lon="-3.2560320">
        <ele>120.4</ele>
        <time>2022-01-16T11:10:41Z</time>
      </trkpt>
      <trkpt lat="43.2994290" lon="-3.2559600">
        <ele>120.2</ele>
        <time>2022-01-16T11:10:42Z</time>
      </trkpt>
      <trkpt lat="43.2993550" lon="-3.2558990">
        <ele>120.0</ele>
        <time>2022-01-16T11:10:43Z</time>
      </trkpt>
      <trkpt lat="43.2992730" lon="-3.2558550">
        <ele>119.8</ele>
        <time>2022-01-16T11:10:44Z</time>
      </trkpt>
      <trkpt lat="43.2991860" lon="-3.2558310">
        <ele>119.6</ele>
        <time>2022-01-16T11:10:45Z</time>
      </trkpt>
      <trkpt lat="43.2990950" lon="-3.2558280">
        <ele>119.4</ele>
        <time>2022-01-16T11:10:46Z</time>
      </trkpt>
      <trkpt lat="43.2990090" lon="-3.2558490">
        <ele>119.2</ele>
        <time>2022-01-16T11:10:47Z</time>
      </trkpt>
      <trkpt lat="43.2989250" lon="-3.2558880">
        <ele>119.0</ele>
        <time>2022-01-16T11:10:48Z</time>
      </trkpt>
      <trkpt lat="43.2988510" lon="-3.2559450">
        <ele>119.0</ele>
        <time>2022-01-16T11:10:49Z</time>
      </trkpt>
      <trkpt lat="43.2987820" lon="-3.2560130">
        <ele>119.0</ele>
        <time>2022-01-16T11:10:50Z</time>
      </trkpt>
      <trkpt lat="43.2987190" lon="-3.2560820">
        <ele>118.8</ele>
        <time>2022-01-16T11:10:51Z</time>
      </trkpt>
      <trkpt lat="43.2986600" lon="-3.2561510">
        <ele>118.8</ele>
        <time>2022-01-16T11:10:52Z</time>
      </trkpt>
      <trkpt lat="43.2986010" lon="-3.2562210">
        <ele>118.8</ele>
        <time>2022-01-16T11:10:53Z</time>
      </trkpt>
      <trkpt lat="43.2985370" lon="-3.2562870">
        <ele>118.8</ele>
        <time>2022-01-16T11:10:54Z</time>
      </trkpt>
      <trkpt lat="43.2984730" lon="-3.2563540">
        <ele>119.0</ele>
        <time>2022-01-16T11:10:55Z</time>
      </trkpt>
      <trkpt lat="43.2984100" lon="-3.2564200">
        <ele>118.8</ele>
        <time>2022-01-16T11:10:56Z</time>
      </trkpt>
      <trkpt lat="43.2983450" lon="-3.2564880">
        <ele>118.8</ele>
        <time>2022-01-16T11:10:57Z</time>
      </trkpt>
      <trkpt lat="43.2982810" lon="-3.2565550">
        <ele>118.8</ele>
        <time>2022-01-16T11:10:58Z</time>
      </trkpt>
      <trkpt lat="43.2982170" lon="-3.2566240">
        <ele>119.0</ele>
        <time>2022-01-16T11:10:59Z</time>
      </trkpt>
      <trkpt lat="43.2981510" lon="-3.2566930">
        <ele>119.0</ele>
        <time>2022-01-16T11:11:00Z</time>
      </trkpt>
      <trkpt lat="43.2980850" lon="-3.2567610">
        <ele>118.8</ele>
        <time>2022-01-16T11:11:01Z</time>
      </trkpt>
      <trkpt lat="43.2980150" lon="-3.2568350">
        <ele>119.0</ele>
        <time>2022-01-16T11:11:02Z</time>
      </trkpt>
      <trkpt lat="43.2979450" lon="-3.2569050">
        <ele>119.0</ele>
        <time>2022-01-16T11:11:03Z</time>
      </trkpt>
      <trkpt lat="43.2978780" lon="-3.2569730">
        <ele>119.0</ele>
        <time>2022-01-16T11:11:04Z</time>
      </trkpt>
      <trkpt lat="43.2978110" lon="-3.2570430">
        <ele>119.0</ele>
        <time>2022-01-16T11:11:05Z</time>
      </trkpt>
      <trkpt lat="43.2977450" lon="-3.2571120">
        <ele>119.2</ele>
        <time>2022-01-16T11:11:06Z</time>
      </trkpt>
      <trkpt lat="43.2976790" lon="-3.2571790">
        <ele>119.2</ele>
        <time>2022-01-16T11:11:07Z</time>
      </trkpt>
      <trkpt lat="43.2976140" lon="-3.2572440">
        <ele>119.2</ele>
        <time>2022-01-16T11:11:08Z</time>
      </trkpt>
      <trkpt lat="43.2975490" lon="-3.2573100">
        <ele>119.2</ele>
        <time>2022-01-16T11:11:09Z</time>
      </trkpt>
      <trkpt lat="43.2974840" lon="-3.2573770">
        <ele>119.4</ele>
        <time>2022-01-16T11:11:10Z</time>
      </trkpt>
      <trkpt lat="43.2974190" lon="-3.2574450">
        <ele>119.6</ele>
        <time>2022-01-16T11:11:11Z</time>
      </trkpt>
      <trkpt lat="43.2973520" lon="-3.2575110">
        <ele>119.6</ele>
        <time>2022-01-16T11:11:12Z</time>
      </trkpt>
      <trkpt lat="43.2972860" lon="-3.2575770">
        <ele>119.8</ele>
        <time>2022-01-16T11:11:13Z</time>
      </trkpt>
      <trkpt lat="43.2972190" lon="-3.2576440">
        <ele>119.8</ele>
        <time>2022-01-16T11:11:14Z</time>
      </trkpt>
      <trkpt lat="43.2971520" lon="-3.2577120">
        <ele>120.0</ele>
        <time>2022-01-16T11:11:15Z</time>
      </trkpt>
      <trkpt lat="43.2970880" lon="-3.2577770">
        <ele>120.0</ele>
        <time>2022-01-16T11:11:16Z</time>
      </trkpt>
      <trkpt lat="43.2970240" lon="-3.2578400">
        <ele>120.2</ele>
        <time>2022-01-16T11:11:17Z</time>
      </trkpt>
      <trkpt lat="43.2969600" lon="-3.2578970">
        <ele>120.2</ele>
        <time>2022-01-16T11:11:18Z</time>
      </trkpt>
      <trkpt lat="43.2968930" lon="-3.2579470">
        <ele>120.4</ele>
        <time>2022-01-16T11:11:19Z</time>
      </trkpt>
      <trkpt lat="43.2968210" lon="-3.2579840">
        <ele>120.4</ele>
        <time>2022-01-16T11:11:20Z</time>
      </trkpt>
      <trkpt lat="43.2967440" lon="-3.2580030">
        <ele>120.4</ele>
        <time>2022-01-16T11:11:21Z</time>
      </trkpt>
      <trkpt lat="43.2966640" lon="-3.2580070">
        <ele>120.4</ele>
        <time>2022-01-16T11:11:22Z</time>
      </trkpt>
      <trkpt lat="43.2965820" lon="-3.2579950">
        <ele>120.6</ele>
        <time>2022-01-16T11:11:23Z</time>
      </trkpt>
      <trkpt lat="43.2965030" lon="-3.2579650">
        <ele>120.6</ele>
        <time>2022-01-16T11:11:24Z</time>
      </trkpt>
      <trkpt lat="43.2964280" lon="-3.2579160">
        <ele>120.6</ele>
        <time>2022-01-16T11:11:25Z</time>
      </trkpt>
      <trkpt lat="43.2963600" lon="-3.2578510">
        <ele>120.8</ele>
        <time>2022-01-16T11:11:26Z</time>
      </trkpt>
      <trkpt lat="43.2962980" lon="-3.2577720">
        <ele>120.8</ele>
        <time>2022-01-16T11:11:27Z</time>
      </trkpt>
      <trkpt lat="43.2962390" lon="-3.2576890">
        <ele>120.8</ele>
        <time>2022-01-16T11:11:28Z</time>
      </trkpt>
      <trkpt lat="43.2961810" lon="-3.2576030">
        <ele>120.6</ele>
        <time>2022-01-16T11:11:29Z</time>
      </trkpt>
      <trkpt lat="43.2961260" lon="-3.2575100">
        <ele>120.4</ele>
        <time>2022-01-16T11:11:30Z</time>
      </trkpt>
      <trkpt lat="43.2960730" lon="-3.2574140">
        <ele>120.2</ele>
        <time>2022-01-16T11:11:31Z</time>
      </trkpt>
      <trkpt lat="43.2960200" lon="-3.2573150">
        <ele>119.8</ele>
        <time>2022-01-16T11:11:32Z</time>
      </trkpt>
      <trkpt lat="43.2959680" lon="-3.2572160">
        <ele>119.4</ele>
        <time>2022-01-16T11:11:33Z</time>
      </trkpt>
      <trkpt lat="43.2959150" lon="-3.2571190">
        <ele>119.2</ele>
        <time>2022-01-16T11:11:34Z</time>
      </trkpt>
      <trkpt lat="43.2958620" lon="-3.2570210">
        <ele>119.0</ele>
        <time>2022-01-16T11:11:35Z</time>
      </trkpt>
      <trkpt lat="43.2958100" lon="-3.2569240">
        <ele>118.8</ele>
        <time>2022-01-16T11:11:36Z</time>
      </trkpt>
      <trkpt lat="43.2957570" lon="-3.2568260">
        <ele>118.6</ele>
        <time>2022-01-16T11:11:37Z</time>
      </trkpt>
      <trkpt lat="43.2957050" lon="-3.2567260">
        <ele>118.2</ele>
        <time>2022-01-16T11:11:38Z</time>
      </trkpt>
      <trkpt lat="43.2956530" lon="-3.2566280">
        <ele>118.0</ele>
        <time>2022-01-16T11:11:39Z</time>
      </trkpt>
      <trkpt lat="43.2956020" lon="-3.2565280">
        <ele>117.8</ele>
        <time>2022-01-16T11:11:40Z</time>
      </trkpt>
      <trkpt lat="43.2955500" lon="-3.2564290">
        <ele>117.6</ele>
        <time>2022-01-16T11:11:41Z</time>
      </trkpt>
      <trkpt lat="43.2954990" lon="-3.2563300">
        <ele>117.4</ele>
        <time>2022-01-16T11:11:42Z</time>
      </trkpt>
      <trkpt lat="43.2954480" lon="-3.2562340">
        <ele>117.2</ele>
        <time>2022-01-16T11:11:43Z</time>
      </trkpt>
      <trkpt lat="43.2953960" lon="-3.2561390">
        <ele>117.2</ele>
        <time>2022-01-16T11:11:44Z</time>
      </trkpt>
      <trkpt lat="43.2953400" lon="-3.2560490">
        <ele>117.0</ele>
        <time>2022-01-16T11:11:45Z</time>
      </trkpt>
      <trkpt lat="43.2952840" lon="-3.2559610">
        <ele>116.8</ele>
        <time>2022-01-16T11:11:46Z</time>
      </trkpt>
      <trkpt lat="43.2952200" lon="-3.2558820">
        <ele>116.6</ele>
        <time>2022-01-16T11:11:47Z</time>
      </trkpt>
      <trkpt lat="43.2951460" lon="-3.2558180">
        <ele>116.4</ele>
        <time>2022-01-16T11:11:48Z</time>
      </trkpt>
      <trkpt lat="43.2950650" lon="-3.2557780">
        <ele>116.2</ele>
        <time>2022-01-16T11:11:49Z</time>
      </trkpt>
      <trkpt lat="43.2949840" lon="-3.2557650">
        <ele>116.0</ele>
        <time>2022-01-16T11:11:50Z</time>
      </trkpt>
      <trkpt lat="43.2948980" lon="-3.2557710">
        <ele>116.0</ele>
        <time>2022-01-16T11:11:51Z</time>
      </trkpt>
      <trkpt lat="43.2948120" lon="-3.2557890">
        <ele>115.8</ele>
        <time>2022-01-16T11:11:52Z</time>
      </trkpt>
      <trkpt lat="43.2947250" lon="-3.2558130">
        <ele>115.8</ele>
        <time>2022-01-16T11:11:53Z</time>
      </trkpt>
      <trkpt lat="43.2946410" lon="-3.2558380">
        <ele>116.0</ele>
        <time>2022-01-16T11:11:54Z</time>
      </trkpt>
      <trkpt lat="43.2945580" lon="-3.2558640">
        <ele>116.0</ele>
        <time>2022-01-16T11:11:55Z</time>
      </trkpt>
      <trkpt lat="43.2944750" lon="-3.2558860">
        <ele>116.0</ele>
        <time>2022-01-16T11:11:56Z</time>
      </trkpt>
      <trkpt lat="43.2943940" lon="-3.2559090">
        <ele>116.2</ele>
        <time>2022-01-16T11:11:57Z</time>
      </trkpt>
      <trkpt lat="43.2943140" lon="-3.2559340">
        <ele>116.4</ele>
        <time>2022-01-16T11:11:58Z</time>
      </trkpt>
      <trkpt lat="43.2942370" lon="-3.2559550">
        <ele>116.4</ele>
        <time>2022-01-16T11:11:59Z</time>
      </trkpt>
      <trkpt lat="43.2941610" lon="-3.2559700">
        <ele>116.6</ele>
        <time>2022-01-16T11:12:00Z</time>
      </trkpt>
      <trkpt lat="43.2940840" lon="-3.2559800">
        <ele>116.8</ele>
        <time>2022-01-16T11:12:01Z</time>
      </trkpt>
      <trkpt lat="43.2940100" lon="-3.2559870">
        <ele>117.0</ele>
        <time>2022-01-16T11:12:02Z</time>
      </trkpt>
      <trkpt lat="43.2939380" lon="-3.2559890">
        <ele>117.2</ele>
        <time>2022-01-16T11:12:03Z</time>
      </trkpt>
      <trkpt lat="43.2938650" lon="-3.2559840">
        <ele>117.4</ele>
        <time>2022-01-16T11:12:04Z</time>
      </trkpt>
      <trkpt lat="43.2937920" lon="-3.2559770">
        <ele>117.6</ele>
        <time>2022-01-16T11:12:05Z</time>
      </trkpt>
      <trkpt lat="43.2937200" lon="-3.2559740">
        <ele>118.0</ele>
        <time>2022-01-16T11:12:06Z</time>
      </trkpt>
      <trkpt lat="43.2936490" lon="-3.2559680">
        <ele>118.2</ele>
        <time>2022-01-16T11:12:07Z</time>
      </trkpt>
      <trkpt lat="43.2935820" lon="-3.2559650">
        <ele>118.4</ele>
        <time>2022-01-16T11:12:08Z</time>
      </trkpt>
      <trkpt lat="43.2935170" lon="-3.2559610">
        <ele>118.6</ele>
        <time>2022-01-16T11:12:09Z</time>
      </trkpt>
      <trkpt lat="43.2934550" lon="-3.2559550">
        <ele>118.8</ele>
        <time>2022-01-16T11:12:10Z</time>
      </trkpt>
      <trkpt lat="43.2933940" lon="-3.2559450">
        <ele>119.2</ele>
        <time>2022-01-16T11:12:11Z</time>
      </trkpt>
      <trkpt lat="43.2933370" lon="-3.2559350">
        <ele>119.6</ele>
        <time>2022-01-16T11:12:12Z</time>
      </trkpt>
      <trkpt lat="43.2932790" lon="-3.2559190">
        <ele>119.8</ele>
        <time>2022-01-16T11:12:13Z</time>
      </trkpt>
      <trkpt lat="43.2932200" lon="-3.2559000">
        <ele>120.2</ele>
        <time>2022-01-16T11:12:14Z</time>
      </trkpt>
      <trkpt lat="43.2931610" lon="-3.2558830">
        <ele>120.4</ele>
        <time>2022-01-16T11:12:15Z</time>
      </trkpt>
      <trkpt lat="43.2931040" lon="-3.2558720">
        <ele>120.6</ele>
        <time>2022-01-16T11:12:16Z</time>
      </trkpt>
      <trkpt lat="43.2930490" lon="-3.2558680">
        <ele>121.0</ele>
        <time>2022-01-16T11:12:17Z</time>
      </trkpt>
      <trkpt lat="43.2929930" lon="-3.2558710">
        <ele>121.4</ele>
        <time>2022-01-16T11:12:18Z</time>
      </trkpt>
      <trkpt lat="43.2929360" lon="-3.2558780">
        <ele>121.8</ele>
        <time>2022-01-16T11:12:19Z</time>
      </trkpt>
      <trkpt lat="43.2928800" lon="-3.2558900">
        <ele>122.2</ele>
        <time>2022-01-16T11:12:20Z</time>
      </trkpt>
      <trkpt lat="43.2928260" lon="-3.2559000">
        <ele>122.6</ele>
        <time>2022-01-16T11:12:21Z</time>
      </trkpt>
      <trkpt lat="43.2927740" lon="-3.2559140">
        <ele>123.0</ele>
        <time>2022-01-16T11:12:22Z</time>
      </trkpt>
      <trkpt lat="43.2927260" lon="-3.2559380">
        <ele>123.4</ele>
        <time>2022-01-16T11:12:23Z</time>
      </trkpt>
      <trkpt lat="43.2926760" lon="-3.2559660">
        <ele>123.8</ele>
        <time>2022-01-16T11:12:24Z</time>
      </trkpt>
      <trkpt lat="43.2926240" lon="-3.2559940">
        <ele>124.0</ele>
        <time>2022-01-16T11:12:25Z</time>
      </trkpt>
      <trkpt lat="43.2925740" lon="-3.2560260">
        <ele>124.4</ele>
        <time>2022-01-16T11:12:26Z</time>
      </trkpt>
      <trkpt lat="43.2925240" lon="-3.2560550">
        <ele>124.6</ele>
        <time>2022-01-16T11:12:27Z</time>
      </trkpt>
      <trkpt lat="43.2924760" lon="-3.2560920">
        <ele>125.0</ele>
        <time>2022-01-16T11:12:28Z</time>
      </trkpt>
      <trkpt lat="43.2924310" lon="-3.2561300">
        <ele>125.2</ele>
        <time>2022-01-16T11:12:29Z</time>
      </trkpt>
      <trkpt lat="43.2923850" lon="-3.2561710">
        <ele>125.6</ele>
        <time>2022-01-16T11:12:30Z</time>
      </trkpt>
      <trkpt lat="43.2923350" lon="-3.2562130">
        <ele>125.8</ele>
        <time>2022-01-16T11:12:31Z</time>
      </trkpt>
      <trkpt lat="43.2922860" lon="-3.2562570">
        <ele>126.2</ele>
        <time>2022-01-16T11:12:32Z</time>
      </trkpt>
      <trkpt lat="43.2922340" lon="-3.2563020">
        <ele>126.2</ele>
        <time>2022-01-16T11:12:33Z</time>
      </trkpt>
      <trkpt lat="43.2921830" lon="-3.2563530">
        <ele>126.4</ele>
        <time>2022-01-16T11:12:34Z</time>
      </trkpt>
      <trkpt lat="43.2921310" lon="-3.2563990">
        <ele>126.4</ele>
        <time>2022-01-16T11:12:35Z</time>
      </trkpt>
      <trkpt lat="43.2920770" lon="-3.2564440">
        <ele>126.4</ele>
        <time>2022-01-16T11:12:36Z</time>
      </trkpt>
      <trkpt lat="43.2920240" lon="-3.2564930">
        <ele>126.6</ele>
        <time>2022-01-16T11:12:37Z</time>
      </trkpt>
      <trkpt lat="43.2919720" lon="-3.2565390">
        <ele>126.6</ele>
        <time>2022-01-16T11:12:38Z</time>
      </trkpt>
      <trkpt lat="43.2919200" lon="-3.2565870">
        <ele>126.6</ele>
        <time>2022-01-16T11:12:39Z</time>
      </trkpt>
      <trkpt lat="43.2918670" lon="-3.2566370">
        <ele>126.6</ele>
        <time>2022-01-16T11:12:40Z</time>
      </trkpt>
      <trkpt lat="43.2918120" lon="-3.2566850">
        <ele>126.8</ele>
        <time>2022-01-16T11:12:41Z</time>
      </trkpt>
      <trkpt lat="43.2917540" lon="-3.2567330">
        <ele>126.8</ele>
        <time>2022-01-16T11:12:42Z</time>
      </trkpt>
      <trkpt lat="43.2916910" lon="-3.2567800">
        <ele>126.8</ele>
        <time>2022-01-16T11:12:43Z</time>
      </trkpt>
      <trkpt lat="43.2916300" lon="-3.2568290">
        <ele>126.8</ele>
        <time>2022-01-16T11:12:44Z</time>
      </trkpt>
      <trkpt lat="43.2915690" lon="-3.2568780">
        <ele>126.6</ele>
        <time>2022-01-16T11:12:45Z</time>
      </trkpt>
      <trkpt lat="43.2915060" lon="-3.2569280">
        <ele>126.6</ele>
        <time>2022-01-16T11:12:46Z</time>
      </trkpt>
      <trkpt lat="43.2914440" lon="-3.2569770">
        <ele>126.4</ele>
        <time>2022-01-16T11:12:47Z</time>
      </trkpt>
      <trkpt lat="43.2913830" lon="-3.2570230">
        <ele>126.2</ele>
        <time>2022-01-16T11:12:48Z</time>
      </trkpt>
      <trkpt lat="43.2913190" lon="-3.2570670">
        <ele>126.2</ele>
        <time>2022-01-16T11:12:49Z</time>
      </trkpt>
      <trkpt lat="43.2912510" lon="-3.2571050">
        <ele>126.0</ele>
        <time>2022-01-16T11:12:50Z</time>
      </trkpt>
      <trkpt lat="43.2911840" lon="-3.2571420">
        <ele>126.0</ele>
        <time>2022-01-16T11:12:51Z</time>
      </trkpt>
      <trkpt lat="43.2911160" lon="-3.2571770">
        <ele>126.0</ele>
        <time>2022-01-16T11:12:52Z</time>
      </trkpt>
      <trkpt lat="43.2910500" lon="-3.2572120">
        <ele>125.8</ele>
        <time>2022-01-16T11:12:53Z</time>
      </trkpt>
      <trkpt lat="43.2909850" lon="-3.2572500">
        <ele>125.8</ele>
        <time>2022-01-16T11:12:54Z</time>
      </trkpt>
      <trkpt lat="43.2909220" lon="-3.2572870">
        <ele>125.6</ele>
        <time>2022-01-16T11:12:55Z</time>
      </trkpt>
      <trkpt lat="43.2908570" lon="-3.2573220">
        <ele>125.6</ele>
        <time>2022-01-16T11:12:56Z</time>
      </trkpt>
      <trkpt lat="43.2907890" lon="-3.2573610">
        <ele>125.6</ele>
        <time>2022-01-16T11:12:57Z</time>
      </trkpt>
      <trkpt lat="43.2907210" lon="-3.2574010">
        <ele>125.4</ele>
        <time>2022-01-16T11:12:58Z</time>
      </trkpt>
      <trkpt lat="43.2906510" lon="-3.2574390">
        <ele>125.2</ele>
        <time>2022-01-16T11:12:59Z</time>
      </trkpt>
      <trkpt lat="43.2905770" lon="-3.2574720">
        <ele>125.0</ele>
        <time>2022-01-16T11:13:00Z</time>
      </trkpt>
      <trkpt lat="43.2905010" lon="-3.2575060">
        <ele>124.8</ele>
        <time>2022-01-16T11:13:01Z</time>
      </trkpt>
      <trkpt lat="43.2904250" lon="-3.2575450">
        <ele>124.6</ele>
        <time>2022-01-16T11:13:02Z</time>
      </trkpt>
      <trkpt lat="43.2903490" lon="-3.2575840">
        <ele>124.6</ele>
        <time>2022-01-16T11:13:03Z</time>
      </trkpt>
      <trkpt lat="43.2902700" lon="-3.2576140">
        <ele>124.4</ele>
        <time>2022-01-16T11:13:04Z</time>
      </trkpt>
      <trkpt lat="43.2901890" lon="-3.2576360">
        <ele>124.2</ele>
        <time>2022-01-16T11:13:05Z</time>
      </trkpt>
      <trkpt lat="43.2901080" lon="-3.2576500">
        <ele>124.0</ele>
        <time>2022-01-16T11:13:06Z</time>
      </trkpt>
      <trkpt lat="43.2900240" lon="-3.2576580">
        <ele>123.6</ele>
        <time>2022-01-16T11:13:07Z</time>
      </trkpt>
      <trkpt lat="43.2899400" lon="-3.2576590">
        <ele>123.4</ele>
        <time>2022-01-16T11:13:08Z</time>
      </trkpt>
      <trkpt lat="43.2898570" lon="-3.2576570">
        <ele>123.2</ele>
        <time>2022-01-16T11:13:09Z</time>
      </trkpt>
      <trkpt lat="43.2897720" lon="-3.2576510">
        <ele>122.8</ele>
        <time>2022-01-16T11:13:10Z</time>
      </trkpt>
      <trkpt lat="43.2896880" lon="-3.2576430">
        <ele>122.4</ele>
        <time>2022-01-16T11:13:11Z</time>
      </trkpt>
      <trkpt lat="43.2896030" lon="-3.2576360">
        <ele>122.2</ele>
        <time>2022-01-16T11:13:12Z</time>
      </trkpt>
      <trkpt lat="43.2895180" lon="-3.2576240">
        <ele>122.0</ele>
        <time>2022-01-16T11:13:13Z</time>
      </trkpt>
      <trkpt lat="43.2894320" lon="-3.2576170">
        <ele>121.6</ele>
        <time>2022-01-16T11:13:14Z</time>
      </trkpt>
      <trkpt lat="43.2893470" lon="-3.2576120">
        <ele>121.6</ele>
        <time>2022-01-16T11:13:15Z</time>
      </trkpt>
      <trkpt lat="43.2892650" lon="-3.2576100">
        <ele>121.4</ele>
        <time>2022-01-16T11:13:16Z</time>
      </trkpt>
      <trkpt lat="43.2891840" lon="-3.2576100">
        <ele>121.0</ele>
        <time>2022-01-16T11:13:17Z</time>
      </trkpt>
      <trkpt lat="43.2891000" lon="-3.2576170">
        <ele>120.8</ele>
        <time>2022-01-16T11:13:18Z</time>
      </trkpt>
      <trkpt lat="43.2890190" lon="-3.2576340">
        <ele>120.8</ele>
        <time>2022-01-16T11:13:19Z</time>
      </trkpt>
      <trkpt lat="43.2889420" lon="-3.2576580">
        <ele>120.8</ele>
        <time>2022-01-16T11:13:20Z</time>
      </trkpt>
      <trkpt lat="43.2888680" lon="-3.2576840">
        <ele>121.0</ele>
        <time>2022-01-16T11:13:21Z</time>
      </trkpt>
      <trkpt lat="43.2887950" lon="-3.2577100">
        <ele>121.2</ele>
        <time>2022-01-16T11:13:22Z</time>
      </trkpt>
      <trkpt lat="43.2887240" lon="-3.2577430">
        <ele>121.4</ele>
        <time>2022-01-16T11:13:23Z</time>
      </trkpt>
      <trkpt lat="43.2886560" lon="-3.2577800">
        <ele>121.6</ele>
        <time>2022-01-16T11:13:24Z</time>
      </trkpt>
      <trkpt lat="43.2885920" lon="-3.2578200">
        <ele>121.8</ele>
        <time>2022-01-16T11:13:25Z</time>
      </trkpt>
      <trkpt lat="43.2885250" lon="-3.2578470">
        <ele>122.2</ele>
        <time>2022-01-16T11:13:26Z</time>
      </trkpt>
      <trkpt lat="43.2884580" lon="-3.2578710">
        <ele>122.4</ele>
        <time>2022-01-16T11:13:27Z</time>
      </trkpt>
      <trkpt lat="43.2883910" lon="-3.2578910">
        <ele>122.6</ele>
        <time>2022-01-16T11:13:28Z</time>
      </trkpt>
      <trkpt lat="43.2883250" lon="-3.2579030">
        <ele>122.8</ele>
        <time>2022-01-16T11:13:29Z</time>
      </trkpt>
      <trkpt lat="43.2882580" lon="-3.2579110">
        <ele>123.0</ele>
        <time>2022-01-16T11:13:30Z</time>
      </trkpt>
      <trkpt lat="43.2881910" lon="-3.2579190">
        <ele>123.2</ele>
        <time>2022-01-16T11:13:31Z</time>
      </trkpt>
      <trkpt lat="43.2881250" lon="-3.2579260">
        <ele>123.6</ele>
        <time>2022-01-16T11:13:32Z</time>
      </trkpt>
      <trkpt lat="43.2880610" lon="-3.2579320">
        <ele>123.8</ele>
        <time>2022-01-16T11:13:33Z</time>
      </trkpt>
      <trkpt lat="43.2879990" lon="-3.2579350">
        <ele>123.8</ele>
        <time>2022-01-16T11:13:34Z</time>
      </trkpt>
      <trkpt lat="43.2879360" lon="-3.2579400">
        <ele>124.0</ele>
        <time>2022-01-16T11:13:35Z</time>
      </trkpt>
      <trkpt lat="43.2878740" lon="-3.2579450">
        <ele>124.0</ele>
        <time>2022-01-16T11:13:36Z</time>
      </trkpt>
      <trkpt lat="43.2878100" lon="-3.2579510">
        <ele>124.2</ele>
        <time>2022-01-16T11:13:37Z</time>
      </trkpt>
      <trkpt lat="43.2877440" lon="-3.2579500">
        <ele>124.2</ele>
        <time>2022-01-16T11:13:38Z</time>
      </trkpt>
      <trkpt lat="43.2876800" lon="-3.2579530">
        <ele>124.4</ele>
        <time>2022-01-16T11:13:39Z</time>
      </trkpt>
      <trkpt lat="43.2876150" lon="-3.2579570">
        <ele>124.6</ele>
        <time>2022-01-16T11:13:40Z</time>
      </trkpt>
      <trkpt lat="43.2875520" lon="-3.2579600">
        <ele>124.6</ele>
        <time>2022-01-16T11:13:41Z</time>
      </trkpt>
      <trkpt lat="43.2874890" lon="-3.2579550">
        <ele>124.8</ele>
        <time>2022-01-16T11:13:42Z</time>
      </trkpt>
      <trkpt lat="43.2874260" lon="-3.2579530">
        <ele>125.0</ele>
        <time>2022-01-16T11:13:43Z</time>
      </trkpt>
      <trkpt lat="43.2873640" lon="-3.2579540">
        <ele>125.2</ele>
        <time>2022-01-16T11:13:44Z</time>
      </trkpt>
      <trkpt lat="43.2873010" lon="-3.2579550">
        <ele>125.4</ele>
        <time>2022-01-16T11:13:45Z</time>
      </trkpt>
      <trkpt lat="43.2872380" lon="-3.2579510">
        <ele>125.6</ele>
        <time>2022-01-16T11:13:46Z</time>
      </trkpt>
      <trkpt lat="43.2871750" lon="-3.2579510">
        <ele>125.6</ele>
        <time>2022-01-16T11:13:47Z</time>
      </trkpt>
      <trkpt lat="43.2871120" lon="-3.2579540">
        <ele>125.6</ele>
        <time>2022-01-16T11:13:48Z</time>
      </trkpt>
      <trkpt lat="43.2870490" lon="-3.2579560">
        <ele>125.8</ele>
        <time>2022-01-16T11:13:49Z</time>
      </trkpt>
      <trkpt lat="43.2869870" lon="-3.2579640">
        <ele>126.0</ele>
        <time>2022-01-16T11:13:50Z</time>
      </trkpt>
      <trkpt lat="43.2869270" lon="-3.2579760">
        <ele>126.0</ele>
        <time>2022-01-16T11:13:51Z</time>
      </trkpt>
      <trkpt lat="43.2868680" lon="-3.2579900">
        <ele>126.2</ele>
        <time>2022-01-16T11:13:52Z</time>
      </trkpt>
      <trkpt lat="43.2868070" lon="-3.2580030">
        <ele>126.2</ele>
        <time>2022-01-16T11:13:53Z</time>
      </trkpt>
      <trkpt lat="43.2867440" lon="-3.2580190">
        <ele>126.2</ele>
        <time>2022-01-16T11:13:54Z</time>
      </trkpt>
      <trkpt lat="43.2866820" lon="-3.2580300">
        <ele>126.4</ele>
        <time>2022-01-16T11:13:55Z</time>
      </trkpt>
      <trkpt lat="43.2866200" lon="-3.2580390">
        <ele>126.4</ele>
        <time>2022-01-16T11:13:56Z</time>
      </trkpt>
      <trkpt lat="43.2865560" lon="-3.2580470">
        <ele>126.6</ele>
        <time>2022-01-16T11:13:57Z</time>
      </trkpt>
      <trkpt lat="43.2864920" lon="-3.2580560">
        <ele>126.6</ele>
        <time>2022-01-16T11:13:58Z</time>
      </trkpt>
      <trkpt lat="43.2864270" lon="-3.2580650">
        <ele>126.6</ele>
        <time>2022-01-16T11:13:59Z</time>
      </trkpt>
      <trkpt lat="43.2863630" lon="-3.2580710">
        <ele>126.6</ele>
        <time>2022-01-16T11:14:00Z</time>
      </trkpt>
      <trkpt lat="43.2862950" lon="-3.2580760">
        <ele>126.6</ele>
        <time>2022-01-16T11:14:01Z</time>
      </trkpt>
      <trkpt lat="43.2862280" lon="-3.2580830">
        <ele>126.6</ele>
        <time>2022-01-16T11:14:02Z</time>
      </trkpt>
      <trkpt lat="43.2861630" lon="-3.2580960">
        <ele>126.6</ele>
        <time>2022-01-16T11:14:03Z</time>
      </trkpt>
      <trkpt lat="43.2860950" lon="-3.2581100">
        <ele>126.8</ele>
        <time>2022-01-16T11:14:04Z</time>
      </trkpt>
      <trkpt lat="43.2860280" lon="-3.2581260">
        <ele>126.8</ele>
        <time>2022-01-16T11:14:05Z</time>
      </trkpt>
      <trkpt lat="43.2859570" lon="-3.2581480">
        <ele>127.0</ele>
        <time>2022-01-16T11:14:06Z</time>
      </trkpt>
      <trkpt lat="43.2858860" lon="-3.2581700">
        <ele>127.0</ele>
        <time>2022-01-16T11:14:07Z</time>
      </trkpt>
      <trkpt lat="43.2858150" lon="-3.2581990">
        <ele>127.0</ele>
        <time>2022-01-16T11:14:08Z</time>
      </trkpt>
      <trkpt lat="43.2857460" lon="-3.2582300">
        <ele>127.2</ele>
        <time>2022-01-16T11:14:09Z</time>
      </trkpt>
      <trkpt lat="43.2856770" lon="-3.2582590">
        <ele>127.0</ele>
        <time>2022-01-16T11:14:10Z</time>
      </trkpt>
      <trkpt lat="43.2856050" lon="-3.2582850">
        <ele>127.0</ele>
        <time>2022-01-16T11:14:11Z</time>
      </trkpt>
      <trkpt lat="43.2855320" lon="-3.2583150">
        <ele>127.0</ele>
        <time>2022-01-16T11:14:12Z</time>
      </trkpt>
      <trkpt lat="43.2854590" lon="-3.2583420">
        <ele>127.2</ele>
        <time>2022-01-16T11:14:13Z</time>
      </trkpt>
      <trkpt lat="43.2853880" lon="-3.2583720">
        <ele>127.2</ele>
        <time>2022-01-16T11:14:14Z</time>
      </trkpt>
      <trkpt lat="43.2853150" lon="-3.2584030">
        <ele>127.4</ele>
        <time>2022-01-16T11:14:15Z</time>
      </trkpt>
      <trkpt lat="43.2852410" lon="-3.2584350">
        <ele>127.4</ele>
        <time>2022-01-16T11:14:16Z</time>
      </trkpt>
      <trkpt lat="43.2851690" lon="-3.2584670">
        <ele>127.4</ele>
        <time>2022-01-16T11:14:17Z</time>
      </trkpt>
      <trkpt lat="43.2850960" lon="-3.2584990">
        <ele>127.6</ele>
        <time>2022-01-16T11:14:18Z</time>
      </trkpt>
      <trkpt lat="43.2850240" lon="-3.2585290">
        <ele>127.6</ele>
        <time>2022-01-16T11:14:19Z</time>
      </trkpt>
      <trkpt lat="43.2849520" lon="-3.2585590">
        <ele>127.8</ele>
        <time>2022-01-16T11:14:20Z</time>
      </trkpt>
      <trkpt lat="43.2848800" lon="-3.2585910">
        <ele>127.8</ele>
        <time>2022-01-16T11:14:21Z</time>
      </trkpt>
      <trkpt lat="43.2848100" lon="-3.2586210">
        <ele>127.8</ele>
        <time>2022-01-16T11:14:22Z</time>
      </trkpt>
      <trkpt lat="43.2847380" lon="-3.2586530">
        <ele>128.0</ele>
        <time>2022-01-16T11:14:23Z</time>
      </trkpt>
      <trkpt lat="43.2846650" lon="-3.2586840">
        <ele>128.0</ele>
        <time>2022-01-16T11:14:24Z</time>
      </trkpt>
      <trkpt lat="43.2845920" lon="-3.2587160">
        <ele>128.0</ele>
        <time>2022-01-16T11:14:25Z</time>
      </trkpt>
      <trkpt lat="43.2845190" lon="-3.2587490">
        <ele>128.2</ele>
        <time>2022-01-16T11:14:26Z</time>
      </trkpt>
      <trkpt lat="43.2844450" lon="-3.2587820">
        <ele>128.2</ele>
        <time>2022-01-16T11:14:27Z</time>
      </trkpt>
      <trkpt lat="43.2843730" lon="-3.2588160">
        <ele>128.2</ele>
        <time>2022-01-16T11:14:28Z</time>
      </trkpt>
      <trkpt lat="43.2842990" lon="-3.2588500">
        <ele>128.2</ele>
        <time>2022-01-16T11:14:29Z</time>
      </trkpt>
      <trkpt lat="43.2842250" lon="-3.2588850">
        <ele>128.0</ele>
        <time>2022-01-16T11:14:30Z</time>
      </trkpt>
      <trkpt lat="43.2841510" lon="-3.2589190">
        <ele>127.8</ele>
        <time>2022-01-16T11:14:31Z</time>
      </trkpt>
      <trkpt lat="43.2840760" lon="-3.2589530">
        <ele>127.8</ele>
        <time>2022-01-16T11:14:32Z</time>
      </trkpt>
      <trkpt lat="43.2839990" lon="-3.2589810">
        <ele>127.6</ele>
        <time>2022-01-16T11:14:33Z</time>
      </trkpt>
      <trkpt lat="43.2839180" lon="-3.2589990">
        <ele>127.4</ele>
        <time>2022-01-16T11:14:34Z</time>
      </trkpt>
      <trkpt lat="43.2838350" lon="-3.2589960">
        <ele>127.4</ele>
        <time>2022-01-16T11:14:35Z</time>
      </trkpt>
      <trkpt lat="43.2837510" lon="-3.2589780">
        <ele>127.2</ele>
        <time>2022-01-16T11:14:36Z</time>
      </trkpt>
      <trkpt lat="43.2836690" lon="-3.2589480">
        <ele>126.8</ele>
        <time>2022-01-16T11:14:37Z</time>
      </trkpt>
      <trkpt lat="43.2835900" lon="-3.2589020">
        <ele>126.6</ele>
        <time>2022-01-16T11:14:38Z</time>
      </trkpt>
      <trkpt lat="43.2835140" lon="-3.2588450">
        <ele>126.2</ele>
        <time>2022-01-16T11:14:39Z</time>
      </trkpt>
      <trkpt lat="43.2834390" lon="-3.2587840">
        <ele>125.8</ele>
        <time>2022-01-16T11:14:40Z</time>
      </trkpt>
      <trkpt lat="43.2833630" lon="-3.2587180">
        <ele>125.6</ele>
        <time>2022-01-16T11:14:41Z</time>
      </trkpt>
      <trkpt lat="43.2832860" lon="-3.2586530">
        <ele>125.4</ele>
        <time>2022-01-16T11:14:42Z</time>
      </trkpt>
      <trkpt lat="43.2832080" lon="-3.2585950">
        <ele>125.2</ele>
        <time>2022-01-16T11:14:43Z</time>
      </trkpt>
      <trkpt lat="43.2831300" lon="-3.2585420">
        <ele>124.6</ele>
        <time>2022-01-16T11:14:44Z</time>
      </trkpt>
      <trkpt lat="43.2830490" lon="-3.2584950">
        <ele>124.4</ele>
        <time>2022-01-16T11:14:45Z</time>
      </trkpt>
      <trkpt lat="43.2829640" lon="-3.2584660">
        <ele>124.2</ele>
        <time>2022-01-16T11:14:46Z</time>
      </trkpt>
      <trkpt lat="43.2828760" lon="-3.2584430">
        <ele>124.0</ele>
        <time>2022-01-16T11:14:47Z</time>
      </trkpt>
      <trkpt lat="43.2827860" lon="-3.2584310">
        <ele>123.8</ele>
        <time>2022-01-16T11:14:48Z</time>
      </trkpt>
      <trkpt lat="43.2826950" lon="-3.2584270">
        <ele>123.6</ele>
        <time>2022-01-16T11:14:49Z</time>
      </trkpt>
      <trkpt lat="43.2826060" lon="-3.2584280">
        <ele>123.6</ele>
        <time>2022-01-16T11:14:50Z</time>
      </trkpt>
      <trkpt lat="43.2825180" lon="-3.2584300">
        <ele>123.6</ele>
        <time>2022-01-16T11:14:51Z</time>
      </trkpt>
      <trkpt lat="43.2824350" lon="-3.2584340">
        <ele>123.8</ele>
        <time>2022-01-16T11:14:52Z</time>
      </trkpt>
      <trkpt lat="43.2823550" lon="-3.2584380">
        <ele>123.8</ele>
        <time>2022-01-16T11:14:53Z</time>
      </trkpt>
      <trkpt lat="43.2822760" lon="-3.2584420">
        <ele>124.2</ele>
        <time>2022-01-16T11:14:54Z</time>
      </trkpt>
      <trkpt lat="43.2822010" lon="-3.2584450">
        <ele>124.6</ele>
        <time>2022-01-16T11:14:55Z</time>
      </trkpt>
      <trkpt lat="43.2821290" lon="-3.2584490">
        <ele>125.0</ele>
        <time>2022-01-16T11:14:56Z</time>
      </trkpt>
      <trkpt lat="43.2820590" lon="-3.2584470">
        <ele>125.2</ele>
        <time>2022-01-16T11:14:57Z</time>
      </trkpt>
      <trkpt lat="43.2819910" lon="-3.2584410">
        <ele>125.4</ele>
        <time>2022-01-16T11:14:58Z</time>
      </trkpt>
      <trkpt lat="43.2819240" lon="-3.2584320">
        <ele>125.6</ele>
        <time>2022-01-16T11:14:59Z</time>
      </trkpt>
      <trkpt lat="43.2818570" lon="-3.2584220">
        <ele>125.8</ele>
        <time>2022-01-16T11:15:00Z</time>
      </trkpt>
      <trkpt lat="43.2817900" lon="-3.2584120">
        <ele>126.2</ele>
        <time>2022-01-16T11:15:01Z</time>
      </trkpt>
      <trkpt lat="43.2817240" lon="-3.2584010">
        <ele>126.4</ele>
        <time>2022-01-16T11:15:02Z</time>
      </trkpt>
      <trkpt lat="43.2816580" lon="-3.2583880">
        <ele>126.6</ele>
        <time>2022-01-16T11:15:03Z</time>
      </trkpt>
      <trkpt lat="43.2815940" lon="-3.2583820">
        <ele>126.8</ele>
        <time>2022-01-16T11:15:04Z</time>
      </trkpt>
      <trkpt lat="43.2815280" lon="-3.2583750">
        <ele>127.2</ele>
        <time>2022-01-16T11:15:05Z</time>
      </trkpt>
      <trkpt lat="43.2814630" lon="-3.2583680">
        <ele>127.4</ele>
        <time>2022-01-16T11:15:06Z</time>
      </trkpt>
      <trkpt lat="43.2813990" lon="-3.2583590">
        <ele>127.6</ele>
        <time>2022-01-16T11:15:07Z</time>
      </trkpt>
      <trkpt lat="43.2813350" lon="-3.2583500">
        <ele>127.8</ele>
        <time>2022-01-16T11:15:08Z</time>
      </trkpt>
      <trkpt lat="43.2812700" lon="-3.2583450">
        <ele>127.8</ele>
        <time>2022-01-16T11:15:09Z</time>
      </trkpt>
      <trkpt lat="43.2812070" lon="-3.2583400">
        <ele>128.0</ele>
        <time>2022-01-16T11:15:10Z</time>
      </trkpt>
      <trkpt lat="43.2811440" lon="-3.2583330">
        <ele>128.2</ele>
        <time>2022-01-16T11:15:11Z</time>
      </trkpt>
      <trkpt lat="43.2810820" lon="-3.2583260">
        <ele>128.6</ele>
        <time>2022-01-16T11:15:12Z</time>
      </trkpt>
      <trkpt lat="43.2810220" lon="-3.2583230">
        <ele>129.0</ele>
        <time>2022-01-16T11:15:13Z</time>
      </trkpt>
      <trkpt lat="43.2809620" lon="-3.2583220">
        <ele>129.2</ele>
        <time>2022-01-16T11:15:14Z</time>
      </trkpt>
      <trkpt lat="43.2809000" lon="-3.2583180">
        <ele>129.4</ele>
        <time>2022-01-16T11:15:15Z</time>
      </trkpt>
      <trkpt lat="43.2808390" lon="-3.2583170">
        <ele>129.8</ele>
        <time>2022-01-16T11:15:16Z</time>
      </trkpt>
      <trkpt lat="43.2807790" lon="-3.2583150">
        <ele>130.0</ele>
        <time>2022-01-16T11:15:17Z</time>
      </trkpt>
      <trkpt lat="43.2807180" lon="-3.2583160">
        <ele>130.2</ele>
        <time>2022-01-16T11:15:18Z</time>
      </trkpt>
      <trkpt lat="43.2806590" lon="-3.2583210">
        <ele>130.4</ele>
        <time>2022-01-16T11:15:19Z</time>
      </trkpt>
      <trkpt lat="43.2806010" lon="-3.2583330">
        <ele>130.6</ele>
        <time>2022-01-16T11:15:20Z</time>
      </trkpt>
      <trkpt lat="43.2805420" lon="-3.2583450">
        <ele>130.8</ele>
        <time>2022-01-16T11:15:21Z</time>
      </trkpt>
      <trkpt lat="43.2804860" lon="-3.2583640">
        <ele>131.0</ele>
        <time>2022-01-16T11:15:22Z</time>
      </trkpt>
      <trkpt lat="43.2804260" lon="-3.2583840">
        <ele>131.4</ele>
        <time>2022-01-16T11:15:23Z</time>
      </trkpt>
      <trkpt lat="43.2803630" lon="-3.2584010">
        <ele>131.6</ele>
        <time>2022-01-16T11:15:24Z</time>
      </trkpt>
      <trkpt lat="43.2802970" lon="-3.2584130">
        <ele>131.6</ele>
        <time>2022-01-16T11:15:25Z</time>
      </trkpt>
      <trkpt lat="43.2802320" lon="-3.2584280">
        <ele>131.8</ele>
        <time>2022-01-16T11:15:26Z</time>
      </trkpt>
      <trkpt lat="43.2801640" lon="-3.2584430">
        <ele>131.8</ele>
        <time>2022-01-16T11:15:27Z</time>
      </trkpt>
      <trkpt lat="43.2800950" lon="-3.2584600">
        <ele>131.8</ele>
        <time>2022-01-16T11:15:28Z</time>
      </trkpt>
      <trkpt lat="43.2800230" lon="-3.2584770">
        <ele>132.0</ele>
        <time>2022-01-16T11:15:29Z</time>
      </trkpt>
      <trkpt lat="43.2799510" lon="-3.2584910">
        <ele>132.0</ele>
        <time>2022-01-16T11:15:30Z</time>
      </trkpt>
      <trkpt lat="43.2798790" lon="-3.2585060">
        <ele>132.0</ele>
        <time>2022-01-16T11:15:31Z</time>
      </trkpt>
      <trkpt lat="43.2798070" lon="-3.2585220">
        <ele>132.0</ele>
        <time>2022-01-16T11:15:32Z</time>
      </trkpt>
      <trkpt lat="43.2797360" lon="-3.2585400">
        <ele>132.0</ele>
        <time>2022-01-16T11:15:33Z</time>
      </trkpt>
      <trkpt lat="43.2796630" lon="-3.2585580">
        <ele>131.8</ele>
        <time>2022-01-16T11:15:34Z</time>
      </trkpt>
      <trkpt lat="43.2795920" lon="-3.2585750">
        <ele>131.8</ele>
        <time>2022-01-16T11:15:35Z</time>
      </trkpt>
      <trkpt lat="43.2795200" lon="-3.2585920">
        <ele>131.8</ele>
        <time>2022-01-16T11:15:36Z</time>
      </trkpt>
      <trkpt lat="43.2794460" lon="-3.2586080">
        <ele>132.0</ele>
        <time>2022-01-16T11:15:37Z</time>
      </trkpt>
      <trkpt lat="43.2793720" lon="-3.2586240">
        <ele>132.0</ele>
        <time>2022-01-16T11:15:38Z</time>
      </trkpt>
      <trkpt lat="43.2792980" lon="-3.2586400">
        <ele>131.8</ele>
        <time>2022-01-16T11:15:39Z</time>
      </trkpt>
      <trkpt lat="43.2792250" lon="-3.2586570">
        <ele>131.8</ele>
        <time>2022-01-16T11:15:40Z</time>
      </trkpt>
      <trkpt lat="43.2791520" lon="-3.2586710">
        <ele>131.8</ele>
        <time>2022-01-16T11:15:41Z</time>
      </trkpt>
      <trkpt lat="43.2790770" lon="-3.2586760">
        <ele>131.6</ele>
        <time>2022-01-16T11:15:42Z</time>
      </trkpt>
      <trkpt lat="43.2790010" lon="-3.2586690">
        <ele>131.6</ele>
        <time>2022-01-16T11:15:43Z</time>
      </trkpt>
      <trkpt lat="43.2789240" lon="-3.2586490">
        <ele>131.6</ele>
        <time>2022-01-16T11:15:44Z</time>
      </trkpt>
      <trkpt lat="43.2788520" lon="-3.2586170">
        <ele>131.8</ele>
        <time>2022-01-16T11:15:45Z</time>
      </trkpt>
      <trkpt lat="43.2787840" lon="-3.2585710">
        <ele>131.8</ele>
        <time>2022-01-16T11:15:46Z</time>
      </trkpt>
      <trkpt lat="43.2787240" lon="-3.2585130">
        <ele>131.8</ele>
        <time>2022-01-16T11:15:47Z</time>
      </trkpt>
      <trkpt lat="43.2786670" lon="-3.2584540">
        <ele>131.8</ele>
        <time>2022-01-16T11:15:48Z</time>
      </trkpt>
      <trkpt lat="43.2786110" lon="-3.2583930">
        <ele>131.8</ele>
        <time>2022-01-16T11:15:49Z</time>
      </trkpt>
      <trkpt lat="43.2785570" lon="-3.2583260">
        <ele>131.8</ele>
        <time>2022-01-16T11:15:50Z</time>
      </trkpt>
      <trkpt lat="43.2785050" lon="-3.2582580">
        <ele>131.8</ele>
        <time>2022-01-16T11:15:51Z</time>
      </trkpt>
      <trkpt lat="43.2784510" lon="-3.2581900">
        <ele>131.8</ele>
        <time>2022-01-16T11:15:52Z</time>
      </trkpt>
      <trkpt lat="43.2783980" lon="-3.2581230">
        <ele>131.8</ele>
        <time>2022-01-16T11:15:53Z</time>
      </trkpt>
      <trkpt lat="43.2783450" lon="-3.2580550">
        <ele>131.8</ele>
        <time>2022-01-16T11:15:54Z</time>
      </trkpt>
      <trkpt lat="43.2782880" lon="-3.2579950">
        <ele>131.8</ele>
        <time>2022-01-16T11:15:55Z</time>
      </trkpt>
      <trkpt lat="43.2782300" lon="-3.2579370">
        <ele>132.0</ele>
        <time>2022-01-16T11:15:56Z</time>
      </trkpt>
      <trkpt lat="43.2781690" lon="-3.2578770">
        <ele>132.0</ele>
        <time>2022-01-16T11:15:57Z</time>
      </trkpt>
      <trkpt lat="43.2781110" lon="-3.2578210">
        <ele>132.0</ele>
        <time>2022-01-16T11:15:58Z</time>
      </trkpt>
      <trkpt lat="43.2780490" lon="-3.2577740">
        <ele>132.2</ele>
        <time>2022-01-16T11:15:59Z</time>
      </trkpt>
      <trkpt lat="43.2779860" lon="-3.2577370">
        <ele>132.2</ele>
        <time>2022-01-16T11:16:00Z</time>
      </trkpt>
      <trkpt lat="43.2779200" lon="-3.2577030">
        <ele>132.4</ele>
        <time>2022-01-16T11:16:01Z</time>
      </trkpt>
      <trkpt lat="43.2778530" lon="-3.2576710">
        <ele>132.6</ele>
        <time>2022-01-16T11:16:02Z</time>
      </trkpt>
      <trkpt lat="43.2777850" lon="-3.2576410">
        <ele>132.6</ele>
        <time>2022-01-16T11:16:03Z</time>
      </trkpt>
      <trkpt lat="43.2777160" lon="-3.2576150">
        <ele>132.8</ele>
        <time>2022-01-16T11:16:04Z</time>
      </trkpt>
      <trkpt lat="43.2776460" lon="-3.2575900">
        <ele>133.0</ele>
        <time>2022-01-16T11:16:05Z</time>
      </trkpt>
      <trkpt lat="43.2775750" lon="-3.2575660">
        <ele>133.0</ele>
        <time>2022-01-16T11:16:06Z</time>
      </trkpt>
      <trkpt lat="43.2775020" lon="-3.2575400">
        <ele>133.0</ele>
        <time>2022-01-16T11:16:07Z</time>
      </trkpt>
      <trkpt lat="43.2774270" lon="-3.2575160">
        <ele>133.0</ele>
        <time>2022-01-16T11:16:08Z</time>
      </trkpt>
      <trkpt lat="43.2773540" lon="-3.2574990">
        <ele>133.0</ele>
        <time>2022-01-16T11:16:09Z</time>
      </trkpt>
      <trkpt lat="43.2772780" lon="-3.2574860">
        <ele>132.8</ele>
        <time>2022-01-16T11:16:10Z</time>
      </trkpt>
      <trkpt lat="43.2772030" lon="-3.2574750">
        <ele>132.8</ele>
        <time>2022-01-16T11:16:11Z</time>
      </trkpt>
      <trkpt lat="43.2771280" lon="-3.2574700">
        <ele>132.8</ele>
        <time>2022-01-16T11:16:12Z</time>
      </trkpt>
      <trkpt lat="43.2770550" lon="-3.2574690">
        <ele>133.0</ele>
        <time>2022-01-16T11:16:13Z</time>
      </trkpt>
      <trkpt lat="43.2769830" lon="-3.2574720">
        <ele>133.2</ele>
        <time>2022-01-16T11:16:14Z</time>
      </trkpt>
      <trkpt lat="43.2769110" lon="-3.2574760">
        <ele>133.4</ele>
        <time>2022-01-16T11:16:15Z</time>
      </trkpt>
      <trkpt lat="43.2768380" lon="-3.2574780">
        <ele>133.2</ele>
        <time>2022-01-16T11:16:16Z</time>
      </trkpt>
      <trkpt lat="43.2767630" lon="-3.2574760">
        <ele>133.4</ele>
        <time>2022-01-16T11:16:17Z</time>
      </trkpt>
      <trkpt lat="43.2766890" lon="-3.2574760">
        <ele>133.4</ele>
        <time>2022-01-16T11:16:18Z</time>
      </trkpt>
      <trkpt lat="43.2766130" lon="-3.2574790">
        <ele>133.4</ele>
        <time>2022-01-16T11:16:19Z</time>
      </trkpt>
      <trkpt lat="43.2765370" lon="-3.2574840">
        <ele>133.4</ele>
        <time>2022-01-16T11:16:20Z</time>
      </trkpt>
      <trkpt lat="43.2764620" lon="-3.2574900">
        <ele>133.4</ele>
        <time>2022-01-16T11:16:21Z</time>
      </trkpt>
      <trkpt lat="43.2763860" lon="-3.2575000">
        <ele>133.4</ele>
        <time>2022-01-16T11:16:22Z</time>
      </trkpt>
      <trkpt lat="43.2763090" lon="-3.2575160">
        <ele>133.4</ele>
        <time>2022-01-16T11:16:23Z</time>
      </trkpt>
      <trkpt lat="43.2762340" lon="-3.2575360">
        <ele>133.4</ele>
        <time>2022-01-16T11:16:24Z</time>
      </trkpt>
      <trkpt lat="43.2761590" lon="-3.2575550">
        <ele>133.4</ele>
        <time>2022-01-16T11:16:25Z</time>
      </trkpt>
      <trkpt lat="43.2760840" lon="-3.2575720">
        <ele>133.4</ele>
        <time>2022-01-16T11:16:26Z</time>
      </trkpt>
      <trkpt lat="43.2760080" lon="-3.2575900">
        <ele>133.4</ele>
        <time>2022-01-16T11:16:27Z</time>
      </trkpt>
      <trkpt lat="43.2759310" lon="-3.2576090">
        <ele>133.4</ele>
        <time>2022-01-16T11:16:28Z</time>
      </trkpt>
      <trkpt lat="43.2758520" lon="-3.2576260">
        <ele>133.2</ele>
        <time>2022-01-16T11:16:29Z</time>
      </trkpt>
      <trkpt lat="43.2757710" lon="-3.2576450">
        <ele>133.0</ele>
        <time>2022-01-16T11:16:30Z</time>
      </trkpt>
      <trkpt lat="43.2756910" lon="-3.2576620">
        <ele>132.8</ele>
        <time>2022-01-16T11:16:31Z</time>
      </trkpt>
      <trkpt lat="43.2756090" lon="-3.2576760">
        <ele>132.6</ele>
        <time>2022-01-16T11:16:32Z</time>
      </trkpt>
      <trkpt lat="43.2755270" lon="-3.2576870">
        <ele>132.4</ele>
        <time>2022-01-16T11:16:33Z</time>
      </trkpt>
      <trkpt lat="43.2754450" lon="-3.2577020">
        <ele>132.2</ele>
        <time>2022-01-16T11:16:34Z</time>
      </trkpt>
      <trkpt lat="43.2753610" lon="-3.2577130">
        <ele>132.0</ele>
        <time>2022-01-16T11:16:35Z</time>
      </trkpt>
      <trkpt lat="43.2752780" lon="-3.2577270">
        <ele>132.0</ele>
        <time>2022-01-16T11:16:36Z</time>
      </trkpt>
      <trkpt lat="43.2751940" lon="-3.2577460">
        <ele>131.6</ele>
        <time>2022-01-16T11:16:37Z</time>
      </trkpt>
      <trkpt lat="43.2751080" lon="-3.2577660">
        <ele>131.6</ele>
        <time>2022-01-16T11:16:38Z</time>
      </trkpt>
      <trkpt lat="43.2750230" lon="-3.2577840">
        <ele>131.4</ele>
        <time>2022-01-16T11:16:39Z</time>
      </trkpt>
      <trkpt lat="43.2749420" lon="-3.2578030">
        <ele>131.2</ele>
        <time>2022-01-16T11:16:40Z</time>
      </trkpt>
      <trkpt lat="43.2748600" lon="-3.2578120">
        <ele>131.2</ele>
        <time>2022-01-16T11:16:41Z</time>
      </trkpt>
      <trkpt lat="43.2747760" lon="-3.2578110">
        <ele>131.0</ele>
        <time>2022-01-16T11:16:42Z</time>
      </trkpt>
      <trkpt lat="43.2746950" lon="-3.2578010">
        <ele>131.0</ele>
        <time>2022-01-16T11:16:43Z</time>
      </trkpt>
      <trkpt lat="43.2746130" lon="-3.2577740">
        <ele>131.0</ele>
        <time>2022-01-16T11:16:44Z</time>
      </trkpt>
      <trkpt lat="43.2745330" lon="-3.2577410">
        <ele>131.0</ele>
        <time>2022-01-16T11:16:45Z</time>
      </trkpt>
      <trkpt lat="43.2744540" lon="-3.2577020">
        <ele>131.0</ele>
        <time>2022-01-16T11:16:46Z</time>
      </trkpt>
      <trkpt lat="43.2743770" lon="-3.2576620">
        <ele>131.0</ele>
        <time>2022-01-16T11:16:47Z</time>
      </trkpt>
      <trkpt lat="43.2743030" lon="-3.2576220">
        <ele>131.2</ele>
        <time>2022-01-16T11:16:48Z</time>
      </trkpt>
      <trkpt lat="43.2742310" lon="-3.2575820">
        <ele>131.4</ele>
        <time>2022-01-16T11:16:49Z</time>
      </trkpt>
      <trkpt lat="43.2741600" lon="-3.2575410">
        <ele>131.6</ele>
        <time>2022-01-16T11:16:50Z</time>
      </trkpt>
      <trkpt lat="43.2740890" lon="-3.2574990">
        <ele>131.6</ele>
        <time>2022-01-16T11:16:51Z</time>
      </trkpt>
      <trkpt lat="43.2740130" lon="-3.2574650">
        <ele>131.8</ele>
        <time>2022-01-16T11:16:52Z</time>
      </trkpt>
      <trkpt lat="43.2739410" lon="-3.2574260">
        <ele>131.8</ele>
        <time>2022-01-16T11:16:53Z</time>
      </trkpt>
      <trkpt lat="43.2738690" lon="-3.2573890">
        <ele>132.0</ele>
        <time>2022-01-16T11:16:54Z</time>
      </trkpt>
      <trkpt lat="43.2737980" lon="-3.2573570">
        <ele>132.2</ele>
        <time>2022-01-16T11:16:55Z</time>
      </trkpt>
      <trkpt lat="43.2737270" lon="-3.2573220">
        <ele>132.4</ele>
        <time>2022-01-16T11:16:56Z</time>
      </trkpt>
      <trkpt lat="43.2736580" lon="-3.2572890">
        <ele>132.6</ele>
        <time>2022-01-16T11:16:57Z</time>
      </trkpt>
      <trkpt lat="43.2735920" lon="-3.2572590">
        <ele>132.8</ele>
        <time>2022-01-16T11:16:58Z</time>
      </trkpt>
      <trkpt lat="43.2735260" lon="-3.2572360">
        <ele>132.8</ele>
        <time>2022-01-16T11:16:59Z</time>
      </trkpt>
      <trkpt lat="43.2734610" lon="-3.2572150">
        <ele>133.2</ele>
        <time>2022-01-16T11:17:00Z</time>
      </trkpt>
      <trkpt lat="43.2733960" lon="-3.2571940">
        <ele>133.6</ele>
        <time>2022-01-16T11:17:01Z</time>
      </trkpt>
      <trkpt lat="43.2733340" lon="-3.2571710">
        <ele>133.8</ele>
        <time>2022-01-16T11:17:02Z</time>
      </trkpt>
      <trkpt lat="43.2732740" lon="-3.2571490">
        <ele>134.0</ele>
        <time>2022-01-16T11:17:03Z</time>
      </trkpt>
      <trkpt lat="43.2732160" lon="-3.2571290">
        <ele>134.4</ele>
        <time>2022-01-16T11:17:04Z</time>
      </trkpt>
      <trkpt lat="43.2731560" lon="-3.2571080">
        <ele>134.8</ele>
        <time>2022-01-16T11:17:05Z</time>
      </trkpt>
      <trkpt lat="43.2730980" lon="-3.2570890">
        <ele>135.0</ele>
        <time>2022-01-16T11:17:06Z</time>
      </trkpt>
      <trkpt lat="43.2730420" lon="-3.2570700">
        <ele>135.4</ele>
        <time>2022-01-16T11:17:07Z</time>
      </trkpt>
      <trkpt lat="43.2729860" lon="-3.2570480">
        <ele>135.6</ele>
        <time>2022-01-16T11:17:08Z</time>
      </trkpt>
      <trkpt lat="43.2729290" lon="-3.2570280">
        <ele>135.8</ele>
        <time>2022-01-16T11:17:09Z</time>
      </trkpt>
      <trkpt lat="43.2728750" lon="-3.2570050">
        <ele>136.2</ele>
        <time>2022-01-16T11:17:10Z</time>
      </trkpt>
      <trkpt lat="43.2728230" lon="-3.2569810">
        <ele>136.6</ele>
        <time>2022-01-16T11:17:11Z</time>
      </trkpt>
      <trkpt lat="43.2727720" lon="-3.2569610">
        <ele>136.8</ele>
        <time>2022-01-16T11:17:12Z</time>
      </trkpt>
      <trkpt lat="43.2727240" lon="-3.2569410">
        <ele>137.0</ele>
        <time>2022-01-16T11:17:13Z</time>
      </trkpt>
      <trkpt lat="43.2726780" lon="-3.2569110">
        <ele>137.4</ele>
        <time>2022-01-16T11:17:14Z</time>
      </trkpt>
      <trkpt lat="43.2726330" lon="-3.2568850">
        <ele>137.8</ele>
        <time>2022-01-16T11:17:15Z</time>
      </trkpt>
      <trkpt lat="43.2725870" lon="-3.2568690">
        <ele>138.2</ele>
        <time>2022-01-16T11:17:16Z</time>
      </trkpt>
      <trkpt lat="43.2725350" lon="-3.2568580">
        <ele>138.4</ele>
        <time>2022-01-16T11:17:17Z</time>
      </trkpt>
      <trkpt lat="43.2724780" lon="-3.2568480">
        <ele>138.6</ele>
        <time>2022-01-16T11:17:18Z</time>
      </trkpt>
      <trkpt lat="43.2724190" lon="-3.2568370">
        <ele>138.4</ele>
        <time>2022-01-16T11:17:19Z</time>
      </trkpt>
      <trkpt lat="43.2723640" lon="-3.2568140">
        <ele>138.0</ele>
        <time>2022-01-16T11:17:20Z</time>
      </trkpt>
      <trkpt lat="43.2723030" lon="-3.2567930">
        <ele>137.8</ele>
        <time>2022-01-16T11:17:21Z</time>
      </trkpt>
      <trkpt lat="43.2722310" lon="-3.2567710">
        <ele>137.4</ele>
        <time>2022-01-16T11:17:22Z</time>
      </trkpt>
      <trkpt lat="43.2721490" lon="-3.2567310">
        <ele>137.2</ele>
        <time>2022-01-16T11:17:23Z</time>
      </trkpt>
      <trkpt lat="43.2720660" lon="-3.2566830">
        <ele>136.6</ele>
        <time>2022-01-16T11:17:24Z</time>
      </trkpt>
      <trkpt lat="43.2719850" lon="-3.2566330">
        <ele>136.0</ele>
        <time>2022-01-16T11:17:25Z</time>
      </trkpt>
      <trkpt lat="43.2719090" lon="-3.2565740">
        <ele>135.2</ele>
        <time>2022-01-16T11:17:26Z</time>
      </trkpt>
      <trkpt lat="43.2718390" lon="-3.2565080">
        <ele>134.6</ele>
        <time>2022-01-16T11:17:27Z</time>
      </trkpt>
      <trkpt lat="43.2717740" lon="-3.2564420">
        <ele>134.2</ele>
        <time>2022-01-16T11:17:28Z</time>
      </trkpt>
      <trkpt lat="43.2717100" lon="-3.2563820">
        <ele>133.8</ele>
        <time>2022-01-16T11:17:29Z</time>
      </trkpt>
      <trkpt lat="43.2716400" lon="-3.2563450">
        <ele>133.8</ele>
        <time>2022-01-16T11:17:30Z</time>
      </trkpt>
      <trkpt lat="43.2715670" lon="-3.2563220">
        <ele>133.6</ele>
        <time>2022-01-16T11:17:31Z</time>
      </trkpt>
      <trkpt lat="43.2714920" lon="-3.2563220">
        <ele>133.2</ele>
        <time>2022-01-16T11:17:32Z</time>
      </trkpt>
      <trkpt lat="43.2714180" lon="-3.2563350">
        <ele>133.2</ele>
        <time>2022-01-16T11:17:33Z</time>
      </trkpt>
      <trkpt lat="43.2713520" lon="-3.2563660">
        <ele>132.8</ele>
        <time>2022-01-16T11:17:34Z</time>
      </trkpt>
      <trkpt lat="43.2713020" lon="-3.2564210">
        <ele>132.6</ele>
        <time>2022-01-16T11:17:35Z</time>
      </trkpt>
      <trkpt lat="43.2712640" lon="-3.2564790">
        <ele>132.0</ele>
        <time>2022-01-16T11:17:36Z</time>
      </trkpt>
      <trkpt lat="43.2712280" lon="-3.2565380">
        <ele>132.0</ele>
        <time>2022-01-16T11:17:37Z</time>
      </trkpt>
      <trkpt lat="43.2712000" lon="-3.2565930">
        <ele>131.8</ele>
        <time>2022-01-16T11:17:38Z</time>
      </trkpt>
      <trkpt lat="43.2711700" lon="-3.2566380">
        <ele>131.8</ele>
        <time>2022-01-16T11:17:39Z</time>
      </trkpt>
      <trkpt lat="43.2711450" lon="-3.2566780">
        <ele>131.6</ele>
        <time>2022-01-16T11:17:40Z</time>
      </trkpt>
      <trkpt lat="43.2711240" lon="-3.2567080">
        <ele>131.8</ele>
        <time>2022-01-16T11:17:41Z</time>
      </trkpt>
      <trkpt lat="43.2711060" lon="-3.2567250">
        <ele>131.8</ele>
        <time>2022-01-16T11:17:42Z</time>
      </trkpt>
      <trkpt lat="43.2710980" lon="-3.2567430">
        <ele>131.6</ele>
        <time>2022-01-16T11:17:43Z</time>
      </trkpt>
      <trkpt lat="43.2710860" lon="-3.2567510">
        <ele>131.6</ele>
        <time>2022-01-16T11:17:44Z</time>
      </trkpt>
      <trkpt lat="43.2710770" lon="-3.2567580">
        <ele>131.6</ele>
        <time>2022-01-16T11:17:45Z</time>
      </trkpt>
      <trkpt lat="43.2710690" lon="-3.2567590">
        <ele>131.8</ele>
        <time>2022-01-16T11:17:46Z</time>
      </trkpt>
      <trkpt lat="43.2710640" lon="-3.2567590">
        <ele>131.8</ele>
        <time>2022-01-16T11:17:47Z</time>
      </trkpt>
      <trkpt lat="43.2710560" lon="-3.2567550">
        <ele>131.6</ele>
        <time>2022-01-16T11:17:48Z</time>
      </trkpt>
      <trkpt lat="43.2710510" lon="-3.2567690">
        <ele>131.6</ele>
        <time>2022-01-16T11:17:49Z</time>
      </trkpt>
      <trkpt lat="43.2710380" lon="-3.2567790">
        <ele>131.6</ele>
        <time>2022-01-16T11:17:50Z</time>
      </trkpt>
      <trkpt lat="43.2710220" lon="-3.2567980">
        <ele>131.6</ele>
        <time>2022-01-16T11:17:51Z</time>
      </trkpt>
      <trkpt lat="43.2710020" lon="-3.2568240">
        <ele>131.4</ele>
        <time>2022-01-16T11:17:52Z</time>
      </trkpt>
      <trkpt lat="43.2709820" lon="-3.2568480">
        <ele>131.4</ele>
        <time>2022-01-16T11:17:53Z</time>
      </trkpt>
      <trkpt lat="43.2709570" lon="-3.2568740">
        <ele>131.4</ele>
        <time>2022-01-16T11:17:54Z</time>
      </trkpt>
      <trkpt lat="43.2709240" lon="-3.2569060">
        <ele>131.4</ele>
        <time>2022-01-16T11:17:55Z</time>
      </trkpt>
      <trkpt lat="43.2708840" lon="-3.2569420">
        <ele>131.4</ele>
        <time>2022-01-16T11:17:56Z</time>
      </trkpt>
      <trkpt lat="43.2708440" lon="-3.2569790">
        <ele>131.2</ele>
        <time>2022-01-16T11:17:57Z</time>
      </trkpt>
      <trkpt lat="43.2708030" lon="-3.2570190">
        <ele>131.0</ele>
        <time>2022-01-16T11:17:58Z</time>
      </trkpt>
      <trkpt lat="43.2707560" lon="-3.2570600">
        <ele>130.8</ele>
        <time>2022-01-16T11:17:59Z</time>
      </trkpt>
      <trkpt lat="43.2707050" lon="-3.2571020">
        <ele>130.8</ele>
        <time>2022-01-16T11:18:00Z</time>
      </trkpt>
      <trkpt lat="43.2706490" lon="-3.2571390">
        <ele>130.6</ele>
        <time>2022-01-16T11:18:01Z</time>
      </trkpt>
      <trkpt lat="43.2705850" lon="-3.2571610">
        <ele>130.6</ele>
        <time>2022-01-16T11:18:02Z</time>
      </trkpt>
      <trkpt lat="43.2705210" lon="-3.2571880">
        <ele>130.6</ele>
        <time>2022-01-16T11:18:03Z</time>
      </trkpt>
      <trkpt lat="43.2704540" lon="-3.2572090">
        <ele>130.6</ele>
        <time>2022-01-16T11:18:04Z</time>
      </trkpt>
      <trkpt lat="43.2703850" lon="-3.2572250">
        <ele>130.6</ele>
        <time>2022-01-16T11:18:05Z</time>
      </trkpt>
      <trkpt lat="43.2703160" lon="-3.2572380">
        <ele>130.6</ele>
        <time>2022-01-16T11:18:06Z</time>
      </trkpt>
      <trkpt lat="43.2702520" lon="-3.2572510">
        <ele>130.8</ele>
        <time>2022-01-16T11:18:07Z</time>
      </trkpt>
      <trkpt lat="43.2701840" lon="-3.2572600">
        <ele>131.0</ele>
        <time>2022-01-16T11:18:08Z</time>
      </trkpt>
      <trkpt lat="43.2701120" lon="-3.2572620">
        <ele>131.0</ele>
        <time>2022-01-16T11:18:09Z</time>
      </trkpt>
      <trkpt lat="43.2700400" lon="-3.2572560">
        <ele>131.0</ele>
        <time>2022-01-16T11:18:10Z</time>
      </trkpt>
      <trkpt lat="43.2699700" lon="-3.2572380">
        <ele>131.2</ele>
        <time>2022-01-16T11:18:11Z</time>
      </trkpt>
      <trkpt lat="43.2699010" lon="-3.2572110">
        <ele>131.4</ele>
        <time>2022-01-16T11:18:12Z</time>
      </trkpt>
      <trkpt lat="43.2698550" lon="-3.2571880">
        <ele>131.6</ele>
        <time>2022-01-16T11:18:13Z</time>
      </trkpt>
      <trkpt lat="43.2697990" lon="-3.2571470">
        <ele>131.8</ele>
        <time>2022-01-16T11:18:14Z</time>
      </trkpt>
      <trkpt lat="43.2697380" lon="-3.2571010">
        <ele>132.0</ele>
        <time>2022-01-16T11:18:15Z</time>
      </trkpt>
      <trkpt lat="43.2696730" lon="-3.2570530">
        <ele>132.0</ele>
        <time>2022-01-16T11:18:16Z</time>
      </trkpt>
      <trkpt lat="43.2696110" lon="-3.2570000">
        <ele>132.0</ele>
        <time>2022-01-16T11:18:17Z</time>
      </trkpt>
      <trkpt lat="43.2695480" lon="-3.2569510">
        <ele>132.0</ele>
        <time>2022-01-16T11:18:18Z</time>
      </trkpt>
      <trkpt lat="43.2694840" lon="-3.2569100">
        <ele>132.0</ele>
        <time>2022-01-16T11:18:19Z</time>
      </trkpt>
      <trkpt lat="43.2694200" lon="-3.2568730">
        <ele>132.0</ele>
        <time>2022-01-16T11:18:20Z</time>
      </trkpt>
      <trkpt lat="43.2693580" lon="-3.2568360">
        <ele>132.0</ele>
        <time>2022-01-16T11:18:21Z</time>
      </trkpt>
      <trkpt lat="43.2692970" lon="-3.2567960">
        <ele>132.2</ele>
        <time>2022-01-16T11:18:22Z</time>
      </trkpt>
      <trkpt lat="43.2692350" lon="-3.2567610">
        <ele>132.4</ele>
        <time>2022-01-16T11:18:23Z</time>
      </trkpt>
      <trkpt lat="43.2691700" lon="-3.2567370">
        <ele>132.6</ele>
        <time>2022-01-16T11:18:24Z</time>
      </trkpt>
      <trkpt lat="43.2691050" lon="-3.2567190">
        <ele>132.8</ele>
        <time>2022-01-16T11:18:25Z</time>
      </trkpt>
      <trkpt lat="43.2690400" lon="-3.2566930">
        <ele>133.0</ele>
        <time>2022-01-16T11:18:26Z</time>
      </trkpt>
      <trkpt lat="43.2689780" lon="-3.2566690">
        <ele>133.0</ele>
        <time>2022-01-16T11:18:27Z</time>
      </trkpt>
      <trkpt lat="43.2689190" lon="-3.2566460">
        <ele>133.4</ele>
        <time>2022-01-16T11:18:28Z</time>
      </trkpt>
      <trkpt lat="43.2688570" lon="-3.2566230">
        <ele>133.8</ele>
        <time>2022-01-16T11:18:29Z</time>
      </trkpt>
      <trkpt lat="43.2687960" lon="-3.2566050">
        <ele>134.0</ele>
        <time>2022-01-16T11:18:30Z</time>
      </trkpt>
      <trkpt lat="43.2687350" lon="-3.2565890">
        <ele>134.2</ele>
        <time>2022-01-16T11:18:31Z</time>
      </trkpt>
      <trkpt lat="43.2686770" lon="-3.2565760">
        <ele>134.2</ele>
        <time>2022-01-16T11:18:32Z</time>
      </trkpt>
      <trkpt lat="43.2686170" lon="-3.2565650">
        <ele>134.4</ele>
        <time>2022-01-16T11:18:33Z</time>
      </trkpt>
      <trkpt lat="43.2685570" lon="-3.2565550">
        <ele>134.8</ele>
        <time>2022-01-16T11:18:34Z</time>
      </trkpt>
      <trkpt lat="43.2684950" lon="-3.2565470">
        <ele>135.0</ele>
        <time>2022-01-16T11:18:35Z</time>
      </trkpt>
      <trkpt lat="43.2684360" lon="-3.2565350">
        <ele>135.2</ele>
        <time>2022-01-16T11:18:36Z</time>
      </trkpt>
      <trkpt lat="43.2683780" lon="-3.2565250">
        <ele>135.4</ele>
        <time>2022-01-16T11:18:37Z</time>
      </trkpt>
      <trkpt lat="43.2683210" lon="-3.2565140">
        <ele>135.6</ele>
        <time>2022-01-16T11:18:38Z</time>
      </trkpt>
      <trkpt lat="43.2682630" lon="-3.2565020">
        <ele>135.6</ele>
        <time>2022-01-16T11:18:39Z</time>
      </trkpt>
      <trkpt lat="43.2682060" lon="-3.2564910">
        <ele>135.8</ele>
        <time>2022-01-16T11:18:40Z</time>
      </trkpt>
      <trkpt lat="43.2681480" lon="-3.2564810">
        <ele>136.0</ele>
        <time>2022-01-16T11:18:41Z</time>
      </trkpt>
      <trkpt lat="43.2680890" lon="-3.2564720">
        <ele>136.0</ele>
        <time>2022-01-16T11:18:42Z</time>
      </trkpt>
      <trkpt lat="43.2680250" lon="-3.2564580">
        <ele>136.2</ele>
        <time>2022-01-16T11:18:43Z</time>
      </trkpt>
      <trkpt lat="43.2679610" lon="-3.2564460">
        <ele>136.4</ele>
        <time>2022-01-16T11:18:44Z</time>
      </trkpt>
      <trkpt lat="43.2678960" lon="-3.2564350">
        <ele>136.6</ele>
        <time>2022-01-16T11:18:45Z</time>
      </trkpt>
      <trkpt lat="43.2678310" lon="-3.2564270">
        <ele>136.8</ele>
        <time>2022-01-16T11:18:46Z</time>
      </trkpt>
      <trkpt lat="43.2677660" lon="-3.2564150">
        <ele>137.0</ele>
        <time>2022-01-16T11:18:47Z</time>
      </trkpt>
      <trkpt lat="43.2677030" lon="-3.2564080">
        <ele>137.2</ele>
        <time>2022-01-16T11:18:48Z</time>
      </trkpt>
      <trkpt lat="43.2676390" lon="-3.2564010">
        <ele>137.4</ele>
        <time>2022-01-16T11:18:49Z</time>
      </trkpt>
      <trkpt lat="43.2675770" lon="-3.2563970">
        <ele>137.8</ele>
        <time>2022-01-16T11:18:50Z</time>
      </trkpt>
      <trkpt lat="43.2675140" lon="-3.2563930">
        <ele>137.8</ele>
        <time>2022-01-16T11:18:51Z</time>
      </trkpt>
      <trkpt lat="43.2674500" lon="-3.2563940">
        <ele>138.0</ele>
        <time>2022-01-16T11:18:52Z</time>
      </trkpt>
      <trkpt lat="43.2673890" lon="-3.2563960">
        <ele>138.2</ele>
        <time>2022-01-16T11:18:53Z</time>
      </trkpt>
      <trkpt lat="43.2673280" lon="-3.2563970">
        <ele>138.2</ele>
        <time>2022-01-16T11:18:54Z</time>
      </trkpt>
      <trkpt lat="43.2672660" lon="-3.2564000">
        <ele>138.4</ele>
        <time>2022-01-16T11:18:55Z</time>
      </trkpt>
      <trkpt lat="43.2672050" lon="-3.2564060">
        <ele>138.4</ele>
        <time>2022-01-16T11:18:56Z</time>
      </trkpt>
      <trkpt lat="43.2671440" lon="-3.2564150">
        <ele>138.6</ele>
        <time>2022-01-16T11:18:57Z</time>
      </trkpt>
      <trkpt lat="43.2670850" lon="-3.2564270">
        <ele>138.8</ele>
        <time>2022-01-16T11:18:58Z</time>
      </trkpt>
      <trkpt lat="43.2670250" lon="-3.2564400">
        <ele>139.0</ele>
        <time>2022-01-16T11:18:59Z</time>
      </trkpt>
      <trkpt lat="43.2669660" lon="-3.2564600">
        <ele>139.2</ele>
        <time>2022-01-16T11:19:00Z</time>
      </trkpt>
      <trkpt lat="43.2669090" lon="-3.2564840">
        <ele>139.4</ele>
        <time>2022-01-16T11:19:01Z</time>
      </trkpt>
      <trkpt lat="43.2668540" lon="-3.2565120">
        <ele>139.6</ele>
        <time>2022-01-16T11:19:02Z</time>
      </trkpt>
      <trkpt lat="43.2667990" lon="-3.2565420">
        <ele>140.0</ele>
        <time>2022-01-16T11:19:03Z</time>
      </trkpt>
      <trkpt lat="43.2667460" lon="-3.2565750">
        <ele>140.2</ele>
        <time>2022-01-16T11:19:04Z</time>
      </trkpt>
      <trkpt lat="43.2666910" lon="-3.2566070">
        <ele>140.4</ele>
        <time>2022-01-16T11:19:05Z</time>
      </trkpt>
      <trkpt lat="43.2666350" lon="-3.2566420">
        <ele>140.8</ele>
        <time>2022-01-16T11:19:06Z</time>
      </trkpt>
      <trkpt lat="43.2665810" lon="-3.2566780">
        <ele>141.0</ele>
        <time>2022-01-16T11:19:07Z</time>
      </trkpt>
      <trkpt lat="43.2665270" lon="-3.2567200">
        <ele>141.2</ele>
        <time>2022-01-16T11:19:08Z</time>
      </trkpt>
      <trkpt lat="43.2664780" lon="-3.2567670">
        <ele>141.2</ele>
        <time>2022-01-16T11:19:09Z</time>
      </trkpt>
      <trkpt lat="43.2664300" lon="-3.2568180">
        <ele>141.2</ele>
        <time>2022-01-16T11:19:10Z</time>
      </trkpt>
      <trkpt lat="43.2663810" lon="-3.2568660">
        <ele>141.4</ele>
        <time>2022-01-16T11:19:11Z</time>
      </trkpt>
      <trkpt lat="43.2663340" lon="-3.2569150">
        <ele>141.6</ele>
        <time>2022-01-16T11:19:12Z</time>
      </trkpt>
      <trkpt lat="43.2662950" lon="-3.2569710">
        <ele>142.2</ele>
        <time>2022-01-16T11:19:13Z</time>
      </trkpt>
      <trkpt lat="43.2662560" lon="-3.2570260">
        <ele>142.2</ele>
        <time>2022-01-16T11:19:14Z</time>
      </trkpt>
      <trkpt lat="43.2662110" lon="-3.2570790">
        <ele>142.6</ele>
        <time>2022-01-16T11:19:15Z</time>
      </trkpt>
      <trkpt lat="43.2661640" lon="-3.2571300">
        <ele>142.8</ele>
        <time>2022-01-16T11:19:16Z</time>
      </trkpt>
      <trkpt lat="43.2661200" lon="-3.2571810">
        <ele>142.8</ele>
        <time>2022-01-16T11:19:17Z</time>
      </trkpt>
      <trkpt lat="43.2660710" lon="-3.2572310">
        <ele>143.0</ele>
        <time>2022-01-16T11:19:18Z</time>
      </trkpt>
      <trkpt lat="43.2660220" lon="-3.2572820">
        <ele>143.2</ele>
        <time>2022-01-16T11:19:19Z</time>
      </trkpt>
      <trkpt lat="43.2659740" lon="-3.2573340">
        <ele>143.4</ele>
        <time>2022-01-16T11:19:20Z</time>
      </trkpt>
      <trkpt lat="43.2659280" lon="-3.2573890">
        <ele>143.6</ele>
        <time>2022-01-16T11:19:21Z</time>
      </trkpt>
      <trkpt lat="43.2658790" lon="-3.2574390">
        <ele>144.0</ele>
        <time>2022-01-16T11:19:22Z</time>
      </trkpt>
      <trkpt lat="43.2658320" lon="-3.2574890">
        <ele>144.4</ele>
        <time>2022-01-16T11:19:23Z</time>
      </trkpt>
      <trkpt lat="43.2657870" lon="-3.2575400">
        <ele>144.6</ele>
        <time>2022-01-16T11:19:24Z</time>
      </trkpt>
      <trkpt lat="43.2657420" lon="-3.2575930">
        <ele>144.8</ele>
        <time>2022-01-16T11:19:25Z</time>
      </trkpt>
      <trkpt lat="43.2656970" lon="-3.2576460">
        <ele>145.0</ele>
        <time>2022-01-16T11:19:26Z</time>
      </trkpt>
      <trkpt lat="43.2656510" lon="-3.2576970">
        <ele>145.2</ele>
        <time>2022-01-16T11:19:27Z</time>
      </trkpt>
      <trkpt lat="43.2656060" lon="-3.2577500">
        <ele>145.4</ele>
        <time>2022-01-16T11:19:28Z</time>
      </trkpt>
      <trkpt lat="43.2655600" lon="-3.2578040">
        <ele>145.4</ele>
        <time>2022-01-16T11:19:29Z</time>
      </trkpt>
      <trkpt lat="43.2655150" lon="-3.2578590">
        <ele>145.8</ele>
        <time>2022-01-16T11:19:30Z</time>
      </trkpt>
      <trkpt lat="43.2654840" lon="-3.2579020">
        <ele>146.0</ele>
        <time>2022-01-16T11:19:31Z</time>
      </trkpt>
      <trkpt lat="43.2654460" lon="-3.2579630">
        <ele>146.2</ele>
        <time>2022-01-16T11:19:32Z</time>
      </trkpt>
      <trkpt lat="43.2654140" lon="-3.2580310">
        <ele>146.4</ele>
        <time>2022-01-16T11:19:33Z</time>
      </trkpt>
      <trkpt lat="43.2653880" lon="-3.2581040">
        <ele>146.8</ele>
        <time>2022-01-16T11:19:34Z</time>
      </trkpt>
      <trkpt lat="43.2653690" lon="-3.2581800">
        <ele>147.0</ele>
        <time>2022-01-16T11:19:35Z</time>
      </trkpt>
      <trkpt lat="43.2653540" lon="-3.2582600">
        <ele>147.2</ele>
        <time>2022-01-16T11:19:36Z</time>
      </trkpt>
      <trkpt lat="43.2653430" lon="-3.2583400">
        <ele>147.4</ele>
        <time>2022-01-16T11:19:37Z</time>
      </trkpt>
      <trkpt lat="43.2653370" lon="-3.2584200">
        <ele>147.8</ele>
        <time>2022-01-16T11:19:38Z</time>
      </trkpt>
      <trkpt lat="43.2653340" lon="-3.2584990">
        <ele>148.0</ele>
        <time>2022-01-16T11:19:39Z</time>
      </trkpt>
      <trkpt lat="43.2653290" lon="-3.2585780">
        <ele>148.2</ele>
        <time>2022-01-16T11:19:40Z</time>
      </trkpt>
      <trkpt lat="43.2653230" lon="-3.2586580">
        <ele>148.4</ele>
        <time>2022-01-16T11:19:41Z</time>
      </trkpt>
      <trkpt lat="43.2653160" lon="-3.2587400">
        <ele>148.8</ele>
        <time>2022-01-16T11:19:42Z</time>
      </trkpt>
      <trkpt lat="43.2653100" lon="-3.2588220">
        <ele>149.0</ele>
        <time>2022-01-16T11:19:43Z</time>
      </trkpt>
      <trkpt lat="43.2652990" lon="-3.2588990">
        <ele>149.2</ele>
        <time>2022-01-16T11:19:44Z</time>
      </trkpt>
      <trkpt lat="43.2652850" lon="-3.2589780">
        <ele>149.2</ele>
        <time>2022-01-16T11:19:45Z</time>
      </trkpt>
      <trkpt lat="43.2652660" lon="-3.2590550">
        <ele>149.2</ele>
        <time>2022-01-16T11:19:46Z</time>
      </trkpt>
      <trkpt lat="43.2652430" lon="-3.2591300">
        <ele>149.6</ele>
        <time>2022-01-16T11:19:47Z</time>
      </trkpt>
      <trkpt lat="43.2652150" lon="-3.2592020">
        <ele>149.6</ele>
        <time>2022-01-16T11:19:48Z</time>
      </trkpt>
      <trkpt lat="43.2651810" lon="-3.2592710">
        <ele>149.8</ele>
        <time>2022-01-16T11:19:49Z</time>
      </trkpt>
      <trkpt lat="43.2651440" lon="-3.2593380">
        <ele>150.0</ele>
        <time>2022-01-16T11:19:50Z</time>
      </trkpt>
      <trkpt lat="43.2651040" lon="-3.2594040">
        <ele>150.2</ele>
        <time>2022-01-16T11:19:51Z</time>
      </trkpt>
      <trkpt lat="43.2650620" lon="-3.2594680">
        <ele>150.4</ele>
        <time>2022-01-16T11:19:52Z</time>
      </trkpt>
      <trkpt lat="43.2650200" lon="-3.2595330">
        <ele>150.6</ele>
        <time>2022-01-16T11:19:53Z</time>
      </trkpt>
      <trkpt lat="43.2649780" lon="-3.2595980">
        <ele>151.0</ele>
        <time>2022-01-16T11:19:54Z</time>
      </trkpt>
      <trkpt lat="43.2649380" lon="-3.2596640">
        <ele>151.2</ele>
        <time>2022-01-16T11:19:55Z</time>
      </trkpt>
      <trkpt lat="43.2648980" lon="-3.2597310">
        <ele>151.6</ele>
        <time>2022-01-16T11:19:56Z</time>
      </trkpt>
      <trkpt lat="43.2648580" lon="-3.2597970">
        <ele>151.8</ele>
        <time>2022-01-16T11:19:57Z</time>
      </trkpt>
      <trkpt lat="43.2648160" lon="-3.2598610">
        <ele>152.0</ele>
        <time>2022-01-16T11:19:58Z</time>
      </trkpt>
      <trkpt lat="43.2647740" lon="-3.2599260">
        <ele>152.0</ele>
        <time>2022-01-16T11:19:59Z</time>
      </trkpt>
      <trkpt lat="43.2647330" lon="-3.2599900">
        <ele>152.2</ele>
        <time>2022-01-16T11:20:00Z</time>
      </trkpt>
      <trkpt lat="43.2646910" lon="-3.2600540">
        <ele>152.2</ele>
        <time>2022-01-16T11:20:01Z</time>
      </trkpt>
      <trkpt lat="43.2646500" lon="-3.2601190">
        <ele>152.4</ele>
        <time>2022-01-16T11:20:02Z</time>
      </trkpt>
      <trkpt lat="43.2646080" lon="-3.2601840">
        <ele>152.6</ele>
        <time>2022-01-16T11:20:03Z</time>
      </trkpt>
      <trkpt lat="43.2645640" lon="-3.2602480">
        <ele>152.6</ele>
        <time>2022-01-16T11:20:04Z</time>
      </trkpt>
      <trkpt lat="43.2645200" lon="-3.2603130">
        <ele>152.8</ele>
        <time>2022-01-16T11:20:05Z</time>
      </trkpt>
      <trkpt lat="43.2644790" lon="-3.2603800">
        <ele>153.0</ele>
        <time>2022-01-16T11:20:06Z</time>
      </trkpt>
      <trkpt lat="43.2644390" lon="-3.2604470">
        <ele>153.2</ele>
        <time>2022-01-16T11:20:07Z</time>
      </trkpt>
      <trkpt lat="43.2643980" lon="-3.2605140">
        <ele>153.2</ele>
        <time>2022-01-16T11:20:08Z</time>
      </trkpt>
      <trkpt lat="43.2643550" lon="-3.2605800">
        <ele>153.4</ele>
        <time>2022-01-16T11:20:09Z</time>
      </trkpt>
      <trkpt lat="43.2643140" lon="-3.2606450">
        <ele>153.4</ele>
        <time>2022-01-16T11:20:10Z</time>
      </trkpt>
      <trkpt lat="43.2642700" lon="-3.2607100">
        <ele>153.6</ele>
        <time>2022-01-16T11:20:11Z</time>
      </trkpt>
      <trkpt lat="43.2642260" lon="-3.2607750">
        <ele>153.6</ele>
        <time>2022-01-16T11:20:12Z</time>
      </trkpt>
      <trkpt lat="43.2641770" lon="-3.2608370">
        <ele>153.8</ele>
        <time>2022-01-16T11:20:13Z</time>
      </trkpt>
      <trkpt lat="43.2641270" lon="-3.2608970">
        <ele>153.8</ele>
        <time>2022-01-16T11:20:14Z</time>
      </trkpt>
      <trkpt lat="43.2640820" lon="-3.2609590">
        <ele>154.0</ele>
        <time>2022-01-16T11:20:15Z</time>
      </trkpt>
      <trkpt lat="43.2640350" lon="-3.2610180">
        <ele>154.0</ele>
        <time>2022-01-16T11:20:16Z</time>
      </trkpt>
      <trkpt lat="43.2639830" lon="-3.2610750">
        <ele>154.4</ele>
        <time>2022-01-16T11:20:17Z</time>
      </trkpt>
      <trkpt lat="43.2639330" lon="-3.2611310">
        <ele>154.6</ele>
        <time>2022-01-16T11:20:18Z</time>
      </trkpt>
      <trkpt lat="43.2638820" lon="-3.2611880">
        <ele>155.0</ele>
        <time>2022-01-16T11:20:19Z</time>
      </trkpt>
      <trkpt lat="43.2638320" lon="-3.2612440">
        <ele>155.2</ele>
        <time>2022-01-16T11:20:20Z</time>
      </trkpt>
      <trkpt lat="43.2637810" lon="-3.2613010">
        <ele>155.4</ele>
        <time>2022-01-16T11:20:21Z</time>
      </trkpt>
      <trkpt lat="43.2637290" lon="-3.2613520">
        <ele>155.4</ele>
        <time>2022-01-16T11:20:22Z</time>
      </trkpt>
      <trkpt lat="43.2636730" lon="-3.2613930">
        <ele>155.4</ele>
        <time>2022-01-16T11:20:23Z</time>
      </trkpt>
      <trkpt lat="43.2636160" lon="-3.2614320">
        <ele>155.6</ele>
        <time>2022-01-16T11:20:24Z</time>
      </trkpt>
      <trkpt lat="43.2635540" lon="-3.2614640">
        <ele>155.8</ele>
        <time>2022-01-16T11:20:25Z</time>
      </trkpt>
      <trkpt lat="43.2634900" lon="-3.2614900">
        <ele>155.8</ele>
        <time>2022-01-16T11:20:26Z</time>
      </trkpt>
      <trkpt lat="43.2634250" lon="-3.2615100">
        <ele>155.8</ele>
        <time>2022-01-16T11:20:27Z</time>
      </trkpt>
      <trkpt lat="43.2633570" lon="-3.2615240">
        <ele>155.8</ele>
        <time>2022-01-16T11:20:28Z</time>
      </trkpt>
      <trkpt lat="43.2632890" lon="-3.2615350">
        <ele>155.8</ele>
        <time>2022-01-16T11:20:29Z</time>
      </trkpt>
      <trkpt lat="43.2632190" lon="-3.2615440">
        <ele>156.0</ele>
        <time>2022-01-16T11:20:30Z</time>
      </trkpt>
      <trkpt lat="43.2631480" lon="-3.2615480">
        <ele>156.0</ele>
        <time>2022-01-16T11:20:31Z</time>
      </trkpt>
      <trkpt lat="43.2630750" lon="-3.2615420">
        <ele>155.8</ele>
        <time>2022-01-16T11:20:32Z</time>
      </trkpt>
      <trkpt lat="43.2630040" lon="-3.2615300">
        <ele>155.8</ele>
        <time>2022-01-16T11:20:33Z</time>
      </trkpt>
      <trkpt lat="43.2629330" lon="-3.2615040">
        <ele>156.0</ele>
        <time>2022-01-16T11:20:34Z</time>
      </trkpt>
      <trkpt lat="43.2628670" lon="-3.2614710">
        <ele>156.0</ele>
        <time>2022-01-16T11:20:35Z</time>
      </trkpt>
      <trkpt lat="43.2628020" lon="-3.2614300">
        <ele>156.0</ele>
        <time>2022-01-16T11:20:36Z</time>
      </trkpt>
      <trkpt lat="43.2627410" lon="-3.2613820">
        <ele>156.2</ele>
        <time>2022-01-16T11:20:37Z</time>
      </trkpt>
      <trkpt lat="43.2626800" lon="-3.2613310">
        <ele>156.4</ele>
        <time>2022-01-16T11:20:38Z</time>
      </trkpt>
      <trkpt lat="43.2626220" lon="-3.2612790">
        <ele>156.4</ele>
        <time>2022-01-16T11:20:39Z</time>
      </trkpt>
      <trkpt lat="43.2625640" lon="-3.2612230">
        <ele>156.6</ele>
        <time>2022-01-16T11:20:40Z</time>
      </trkpt>
      <trkpt lat="43.2625030" lon="-3.2611680">
        <ele>156.6</ele>
        <time>2022-01-16T11:20:41Z</time>
      </trkpt>
      <trkpt lat="43.2624430" lon="-3.2611130">
        <ele>156.6</ele>
        <time>2022-01-16T11:20:42Z</time>
      </trkpt>
      <trkpt lat="43.2623840" lon="-3.2610610">
        <ele>156.8</ele>
        <time>2022-01-16T11:20:43Z</time>
      </trkpt>
      <trkpt lat="43.2623240" lon="-3.2610040">
        <ele>156.8</ele>
        <time>2022-01-16T11:20:44Z</time>
      </trkpt>
      <trkpt lat="43.2622660" lon="-3.2609490">
        <ele>156.8</ele>
        <time>2022-01-16T11:20:45Z</time>
      </trkpt>
      <trkpt lat="43.2622030" lon="-3.2608940">
        <ele>156.8</ele>
        <time>2022-01-16T11:20:46Z</time>
      </trkpt>
      <trkpt lat="43.2621380" lon="-3.2608430">
        <ele>156.6</ele>
        <time>2022-01-16T11:20:47Z</time>
      </trkpt>
      <trkpt lat="43.2620700" lon="-3.2607930">
        <ele>156.6</ele>
        <time>2022-01-16T11:20:48Z</time>
      </trkpt>
      <trkpt lat="43.2620000" lon="-3.2607530">
        <ele>156.6</ele>
        <time>2022-01-16T11:20:49Z</time>
      </trkpt>
      <trkpt lat="43.2619210" lon="-3.2607370">
        <ele>156.6</ele>
        <time>2022-01-16T11:20:50Z</time>
      </trkpt>
      <trkpt lat="43.2618450" lon="-3.2607560">
        <ele>156.6</ele>
        <time>2022-01-16T11:20:51Z</time>
      </trkpt>
      <trkpt lat="43.2617690" lon="-3.2608000">
        <ele>156.6</ele>
        <time>2022-01-16T11:20:52Z</time>
      </trkpt>
      <trkpt lat="43.2617000" lon="-3.2608550">
        <ele>156.6</ele>
        <time>2022-01-16T11:20:53Z</time>
      </trkpt>
      <trkpt lat="43.2616380" lon="-3.2609170">
        <ele>156.6</ele>
        <time>2022-01-16T11:20:54Z</time>
      </trkpt>
      <trkpt lat="43.2615770" lon="-3.2609800">
        <ele>156.6</ele>
        <time>2022-01-16T11:20:55Z</time>
      </trkpt>
      <trkpt lat="43.2615140" lon="-3.2610400">
        <ele>156.4</ele>
        <time>2022-01-16T11:20:56Z</time>
      </trkpt>
      <trkpt lat="43.2614490" lon="-3.2610970">
        <ele>156.6</ele>
        <time>2022-01-16T11:20:57Z</time>
      </trkpt>
      <trkpt lat="43.2613840" lon="-3.2611520">
        <ele>156.6</ele>
        <time>2022-01-16T11:20:58Z</time>
      </trkpt>
      <trkpt lat="43.2613190" lon="-3.2612010">
        <ele>156.8</ele>
        <time>2022-01-16T11:20:59Z</time>
      </trkpt>
      <trkpt lat="43.2612530" lon="-3.2612500">
        <ele>156.8</ele>
        <time>2022-01-16T11:21:00Z</time>
      </trkpt>
      <trkpt lat="43.2611870" lon="-3.2613000">
        <ele>156.8</ele>
        <time>2022-01-16T11:21:01Z</time>
      </trkpt>
      <trkpt lat="43.2611210" lon="-3.2613490">
        <ele>157.0</ele>
        <time>2022-01-16T11:21:02Z</time>
      </trkpt>
      <trkpt lat="43.2610570" lon="-3.2613990">
        <ele>157.0</ele>
        <time>2022-01-16T11:21:03Z</time>
      </trkpt>
      <trkpt lat="43.2609930" lon="-3.2614480">
        <ele>157.0</ele>
        <time>2022-01-16T11:21:04Z</time>
      </trkpt>
      <trkpt lat="43.2609370" lon="-3.2615010">
        <ele>157.0</ele>
        <time>2022-01-16T11:21:05Z</time>
      </trkpt>
      <trkpt lat="43.2608790" lon="-3.2615570">
        <ele>157.0</ele>
        <time>2022-01-16T11:21:06Z</time>
      </trkpt>
      <trkpt lat="43.2608230" lon="-3.2616160">
        <ele>157.0</ele>
        <time>2022-01-16T11:21:07Z</time>
      </trkpt>
      <trkpt lat="43.2607670" lon="-3.2616770">
        <ele>157.0</ele>
        <time>2022-01-16T11:21:08Z</time>
      </trkpt>
      <trkpt lat="43.2607120" lon="-3.2617420">
        <ele>157.0</ele>
        <time>2022-01-16T11:21:09Z</time>
      </trkpt>
      <trkpt lat="43.2606570" lon="-3.2618090">
        <ele>157.0</ele>
        <time>2022-01-16T11:21:10Z</time>
      </trkpt>
      <trkpt lat="43.2605980" lon="-3.2618740">
        <ele>157.2</ele>
        <time>2022-01-16T11:21:11Z</time>
      </trkpt>
      <trkpt lat="43.2605400" lon="-3.2619360">
        <ele>157.4</ele>
        <time>2022-01-16T11:21:12Z</time>
      </trkpt>
      <trkpt lat="43.2604820" lon="-3.2620020">
        <ele>157.6</ele>
        <time>2022-01-16T11:21:13Z</time>
      </trkpt>
      <trkpt lat="43.2604240" lon="-3.2620660">
        <ele>157.6</ele>
        <time>2022-01-16T11:21:14Z</time>
      </trkpt>
      <trkpt lat="43.2603660" lon="-3.2621310">
        <ele>157.8</ele>
        <time>2022-01-16T11:21:15Z</time>
      </trkpt>
      <trkpt lat="43.2603030" lon="-3.2621960">
        <ele>157.8</ele>
        <time>2022-01-16T11:21:16Z</time>
      </trkpt>
      <trkpt lat="43.2602400" lon="-3.2622620">
        <ele>157.8</ele>
        <time>2022-01-16T11:21:17Z</time>
      </trkpt>
      <trkpt lat="43.2601780" lon="-3.2623280">
        <ele>157.8</ele>
        <time>2022-01-16T11:21:18Z</time>
      </trkpt>
      <trkpt lat="43.2601210" lon="-3.2624000">
        <ele>158.0</ele>
        <time>2022-01-16T11:21:19Z</time>
      </trkpt>
      <trkpt lat="43.2600670" lon="-3.2624740">
        <ele>158.0</ele>
        <time>2022-01-16T11:21:20Z</time>
      </trkpt>
      <trkpt lat="43.2600160" lon="-3.2625510">
        <ele>158.0</ele>
        <time>2022-01-16T11:21:21Z</time>
      </trkpt>
      <trkpt lat="43.2599680" lon="-3.2626310">
        <ele>158.2</ele>
        <time>2022-01-16T11:21:22Z</time>
      </trkpt>
      <trkpt lat="43.2599170" lon="-3.2627100">
        <ele>158.2</ele>
        <time>2022-01-16T11:21:23Z</time>
      </trkpt>
      <trkpt lat="43.2598680" lon="-3.2627870">
        <ele>158.2</ele>
        <time>2022-01-16T11:21:24Z</time>
      </trkpt>
      <trkpt lat="43.2598130" lon="-3.2628600">
        <ele>158.4</ele>
        <time>2022-01-16T11:21:25Z</time>
      </trkpt>
      <trkpt lat="43.2597560" lon="-3.2629280">
        <ele>158.4</ele>
        <time>2022-01-16T11:21:26Z</time>
      </trkpt>
      <trkpt lat="43.2596980" lon="-3.2629940">
        <ele>158.6</ele>
        <time>2022-01-16T11:21:27Z</time>
      </trkpt>
      <trkpt lat="43.2596360" lon="-3.2630560">
        <ele>158.6</ele>
        <time>2022-01-16T11:21:28Z</time>
      </trkpt>
      <trkpt lat="43.2595730" lon="-3.2631150">
        <ele>159.0</ele>
        <time>2022-01-16T11:21:29Z</time>
      </trkpt>
      <trkpt lat="43.2595050" lon="-3.2631680">
        <ele>159.0</ele>
        <time>2022-01-16T11:21:30Z</time>
      </trkpt>
      <trkpt lat="43.2594360" lon="-3.2632160">
        <ele>159.0</ele>
        <time>2022-01-16T11:21:31Z</time>
      </trkpt>
      <trkpt lat="43.2593620" lon="-3.2632530">
        <ele>159.0</ele>
        <time>2022-01-16T11:21:32Z</time>
      </trkpt>
      <trkpt lat="43.2592870" lon="-3.2632850">
        <ele>159.0</ele>
        <time>2022-01-16T11:21:33Z</time>
      </trkpt>
      <trkpt lat="43.2592130" lon="-3.2633140">
        <ele>159.2</ele>
        <time>2022-01-16T11:21:34Z</time>
      </trkpt>
      <trkpt lat="43.2591380" lon="-3.2633370">
        <ele>159.2</ele>
        <time>2022-01-16T11:21:35Z</time>
      </trkpt>
      <trkpt lat="43.2590650" lon="-3.2633600">
        <ele>159.2</ele>
        <time>2022-01-16T11:21:36Z</time>
      </trkpt>
      <trkpt lat="43.2589890" lon="-3.2633820">
        <ele>159.4</ele>
        <time>2022-01-16T11:21:37Z</time>
      </trkpt>
      <trkpt lat="43.2589150" lon="-3.2634050">
        <ele>159.6</ele>
        <time>2022-01-16T11:21:38Z</time>
      </trkpt>
      <trkpt lat="43.2588410" lon="-3.2634290">
        <ele>159.6</ele>
        <time>2022-01-16T11:21:39Z</time>
      </trkpt>
      <trkpt lat="43.2587690" lon="-3.2634490">
        <ele>160.0</ele>
        <time>2022-01-16T11:21:40Z</time>
      </trkpt>
      <trkpt lat="43.2586930" lon="-3.2634760">
        <ele>160.2</ele>
        <time>2022-01-16T11:21:41Z</time>
      </trkpt>
      <trkpt lat="43.2586200" lon="-3.2634990">
        <ele>160.2</ele>
        <time>2022-01-16T11:21:42Z</time>
      </trkpt>
      <trkpt lat="43.2585500" lon="-3.2635170">
        <ele>160.2</ele>
        <time>2022-01-16T11:21:43Z</time>
      </trkpt>
      <trkpt lat="43.2584790" lon="-3.2635410">
        <ele>160.2</ele>
        <time>2022-01-16T11:21:44Z</time>
      </trkpt>
      <trkpt lat="43.2584060" lon="-3.2635680">
        <ele>160.2</ele>
        <time>2022-01-16T11:21:45Z</time>
      </trkpt>
      <trkpt lat="43.2583300" lon="-3.2635980">
        <ele>160.2</ele>
        <time>2022-01-16T11:21:46Z</time>
      </trkpt>
      <trkpt lat="43.2582580" lon="-3.2636350">
        <ele>160.2</ele>
        <time>2022-01-16T11:21:47Z</time>
      </trkpt>
      <trkpt lat="43.2581840" lon="-3.2636730">
        <ele>160.2</ele>
        <time>2022-01-16T11:21:48Z</time>
      </trkpt>
      <trkpt lat="43.2581130" lon="-3.2637200">
        <ele>160.2</ele>
        <time>2022-01-16T11:21:49Z</time>
      </trkpt>
      <trkpt lat="43.2580460" lon="-3.2637780">
        <ele>160.4</ele>
        <time>2022-01-16T11:21:50Z</time>
      </trkpt>
      <trkpt lat="43.2579790" lon="-3.2638380">
        <ele>160.4</ele>
        <time>2022-01-16T11:21:51Z</time>
      </trkpt>
      <trkpt lat="43.2579190" lon="-3.2639100">
        <ele>160.6</ele>
        <time>2022-01-16T11:21:52Z</time>
      </trkpt>
      <trkpt lat="43.2578600" lon="-3.2639810">
        <ele>160.6</ele>
        <time>2022-01-16T11:21:53Z</time>
      </trkpt>
      <trkpt lat="43.2578050" lon="-3.2640510">
        <ele>160.6</ele>
        <time>2022-01-16T11:21:54Z</time>
      </trkpt>
      <trkpt lat="43.2577540" lon="-3.2641240">
        <ele>160.6</ele>
        <time>2022-01-16T11:21:55Z</time>
      </trkpt>
      <trkpt lat="43.2577000" lon="-3.2641920">
        <ele>160.6</ele>
        <time>2022-01-16T11:21:56Z</time>
      </trkpt>
      <trkpt lat="43.2576410" lon="-3.2642590">
        <ele>160.6</ele>
        <time>2022-01-16T11:21:57Z</time>
      </trkpt>
      <trkpt lat="43.2575770" lon="-3.2643180">
        <ele>160.6</ele>
        <time>2022-01-16T11:21:58Z</time>
      </trkpt>
      <trkpt lat="43.2575110" lon="-3.2643690">
        <ele>160.8</ele>
        <time>2022-01-16T11:21:59Z</time>
      </trkpt>
      <trkpt lat="43.2574390" lon="-3.2644050">
        <ele>160.8</ele>
        <time>2022-01-16T11:22:00Z</time>
      </trkpt>
      <trkpt lat="43.2573590" lon="-3.2644210">
        <ele>160.8</ele>
        <time>2022-01-16T11:22:01Z</time>
      </trkpt>
      <trkpt lat="43.2572780" lon="-3.2644240">
        <ele>160.8</ele>
        <time>2022-01-16T11:22:02Z</time>
      </trkpt>
      <trkpt lat="43.2571980" lon="-3.2644130">
        <ele>160.8</ele>
        <time>2022-01-16T11:22:03Z</time>
      </trkpt>
      <trkpt lat="43.2571190" lon="-3.2643940">
        <ele>161.0</ele>
        <time>2022-01-16T11:22:04Z</time>
      </trkpt>
      <trkpt lat="43.2570410" lon="-3.2643670">
        <ele>161.0</ele>
        <time>2022-01-16T11:22:05Z</time>
      </trkpt>
      <trkpt lat="43.2569640" lon="-3.2643340">
        <ele>161.0</ele>
        <time>2022-01-16T11:22:06Z</time>
      </trkpt>
      <trkpt lat="43.2568890" lon="-3.2642990">
        <ele>161.0</ele>
        <time>2022-01-16T11:22:07Z</time>
      </trkpt>
      <trkpt lat="43.2568140" lon="-3.2642590">
        <ele>160.8</ele>
        <time>2022-01-16T11:22:08Z</time>
      </trkpt>
      <trkpt lat="43.2567380" lon="-3.2642160">
        <ele>160.8</ele>
        <time>2022-01-16T11:22:09Z</time>
      </trkpt>
      <trkpt lat="43.2566620" lon="-3.2641740">
        <ele>160.8</ele>
        <time>2022-01-16T11:22:10Z</time>
      </trkpt>
      <trkpt lat="43.2565830" lon="-3.2641350">
        <ele>160.6</ele>
        <time>2022-01-16T11:22:11Z</time>
      </trkpt>
      <trkpt lat="43.2565080" lon="-3.2640980">
        <ele>160.6</ele>
        <time>2022-01-16T11:22:12Z</time>
      </trkpt>
      <trkpt lat="43.2564340" lon="-3.2640630">
        <ele>160.6</ele>
        <time>2022-01-16T11:22:13Z</time>
      </trkpt>
      <trkpt lat="43.2563620" lon="-3.2640280">
        <ele>160.6</ele>
        <time>2022-01-16T11:22:14Z</time>
      </trkpt>
      <trkpt lat="43.2562890" lon="-3.2639920">
        <ele>160.4</ele>
        <time>2022-01-16T11:22:15Z</time>
      </trkpt>
      <trkpt lat="43.2562160" lon="-3.2639540">
        <ele>160.2</ele>
        <time>2022-01-16T11:22:16Z</time>
      </trkpt>
      <trkpt lat="43.2561450" lon="-3.2639110">
        <ele>160.4</ele>
        <time>2022-01-16T11:22:17Z</time>
      </trkpt>
      <trkpt lat="43.2560740" lon="-3.2638650">
        <ele>160.4</ele>
        <time>2022-01-16T11:22:18Z</time>
      </trkpt>
      <trkpt lat="43.2560030" lon="-3.2638130">
        <ele>160.4</ele>
        <time>2022-01-16T11:22:19Z</time>
      </trkpt>
      <trkpt lat="43.2559370" lon="-3.2637580">
        <ele>160.6</ele>
        <time>2022-01-16T11:22:20Z</time>
      </trkpt>
      <trkpt lat="43.2558700" lon="-3.2637010">
        <ele>160.8</ele>
        <time>2022-01-16T11:22:21Z</time>
      </trkpt>
      <trkpt lat="43.2558010" lon="-3.2636440">
        <ele>161.0</ele>
        <time>2022-01-16T11:22:22Z</time>
      </trkpt>
      <trkpt lat="43.2557300" lon="-3.2635890">
        <ele>161.0</ele>
        <time>2022-01-16T11:22:23Z</time>
      </trkpt>
      <trkpt lat="43.2556600" lon="-3.2635330">
        <ele>161.2</ele>
        <time>2022-01-16T11:22:24Z</time>
      </trkpt>
      <trkpt lat="43.2555900" lon="-3.2634770">
        <ele>161.2</ele>
        <time>2022-01-16T11:22:25Z</time>
      </trkpt>
      <trkpt lat="43.2555170" lon="-3.2634230">
        <ele>161.2</ele>
        <time>2022-01-16T11:22:26Z</time>
      </trkpt>
      <trkpt lat="43.2554480" lon="-3.2633680">
        <ele>161.2</ele>
        <time>2022-01-16T11:22:27Z</time>
      </trkpt>
      <trkpt lat="43.2553770" lon="-3.2633170">
        <ele>161.0</ele>
        <time>2022-01-16T11:22:28Z</time>
      </trkpt>
      <trkpt lat="43.2553060" lon="-3.2632660">
        <ele>161.0</ele>
        <time>2022-01-16T11:22:29Z</time>
      </trkpt>
      <trkpt lat="43.2552360" lon="-3.2632190">
        <ele>161.0</ele>
        <time>2022-01-16T11:22:30Z</time>
      </trkpt>
      <trkpt lat="43.2551670" lon="-3.2631740">
        <ele>161.0</ele>
        <time>2022-01-16T11:22:31Z</time>
      </trkpt>
      <trkpt lat="43.2550980" lon="-3.2631320">
        <ele>161.2</ele>
        <time>2022-01-16T11:22:32Z</time>
      </trkpt>
      <trkpt lat="43.2550280" lon="-3.2630900">
        <ele>161.2</ele>
        <time>2022-01-16T11:22:33Z</time>
      </trkpt>
      <trkpt lat="43.2549600" lon="-3.2630500">
        <ele>161.2</ele>
        <time>2022-01-16T11:22:34Z</time>
      </trkpt>
      <trkpt lat="43.2548910" lon="-3.2630090">
        <ele>161.4</ele>
        <time>2022-01-16T11:22:35Z</time>
      </trkpt>
      <trkpt lat="43.2548190" lon="-3.2629680">
        <ele>161.4</ele>
        <time>2022-01-16T11:22:36Z</time>
      </trkpt>
      <trkpt lat="43.2547470" lon="-3.2629340">
        <ele>161.4</ele>
        <time>2022-01-16T11:22:37Z</time>
      </trkpt>
      <trkpt lat="43.2546730" lon="-3.2629050">
        <ele>161.4</ele>
        <time>2022-01-16T11:22:38Z</time>
      </trkpt>
      <trkpt lat="43.2545970" lon="-3.2628840">
        <ele>161.2</ele>
        <time>2022-01-16T11:22:39Z</time>
      </trkpt>
      <trkpt lat="43.2545200" lon="-3.2628740">
        <ele>161.4</ele>
        <time>2022-01-16T11:22:40Z</time>
      </trkpt>
      <trkpt lat="43.2544420" lon="-3.2628710">
        <ele>161.2</ele>
        <time>2022-01-16T11:22:41Z</time>
      </trkpt>
      <trkpt lat="43.2543620" lon="-3.2628690">
        <ele>161.2</ele>
        <time>2022-01-16T11:22:42Z</time>
      </trkpt>
      <trkpt lat="43.2542830" lon="-3.2628690">
        <ele>161.2</ele>
        <time>2022-01-16T11:22:43Z</time>
      </trkpt>
      <trkpt lat="43.2542040" lon="-3.2628690">
        <ele>161.2</ele>
        <time>2022-01-16T11:22:44Z</time>
      </trkpt>
      <trkpt lat="43.2541240" lon="-3.2628700">
        <ele>161.4</ele>
        <time>2022-01-16T11:22:45Z</time>
      </trkpt>
      <trkpt lat="43.2540440" lon="-3.2628710">
        <ele>161.2</ele>
        <time>2022-01-16T11:22:46Z</time>
      </trkpt>
      <trkpt lat="43.2539630" lon="-3.2628710">
        <ele>161.2</ele>
        <time>2022-01-16T11:22:47Z</time>
      </trkpt>
      <trkpt lat="43.2538810" lon="-3.2628720">
        <ele>161.2</ele>
        <time>2022-01-16T11:22:48Z</time>
      </trkpt>
      <trkpt lat="43.2537990" lon="-3.2628720">
        <ele>161.2</ele>
        <time>2022-01-16T11:22:49Z</time>
      </trkpt>
      <trkpt lat="43.2537180" lon="-3.2628720">
        <ele>161.2</ele>
        <time>2022-01-16T11:22:50Z</time>
      </trkpt>
      <trkpt lat="43.2536360" lon="-3.2628700">
        <ele>161.0</ele>
        <time>2022-01-16T11:22:51Z</time>
      </trkpt>
      <trkpt lat="43.2535550" lon="-3.2628630">
        <ele>160.8</ele>
        <time>2022-01-16T11:22:52Z</time>
      </trkpt>
      <trkpt lat="43.2534730" lon="-3.2628480">
        <ele>160.8</ele>
        <time>2022-01-16T11:22:53Z</time>
      </trkpt>
      <trkpt lat="43.2533910" lon="-3.2628170">
        <ele>160.8</ele>
        <time>2022-01-16T11:22:54Z</time>
      </trkpt>
      <trkpt lat="43.2533120" lon="-3.2627820">
        <ele>160.8</ele>
        <time>2022-01-16T11:22:55Z</time>
      </trkpt>
      <trkpt lat="43.2532360" lon="-3.2627350">
        <ele>160.8</ele>
        <time>2022-01-16T11:22:56Z</time>
      </trkpt>
      <trkpt lat="43.2531590" lon="-3.2626820">
        <ele>160.6</ele>
        <time>2022-01-16T11:22:57Z</time>
      </trkpt>
      <trkpt lat="43.2530810" lon="-3.2626280">
        <ele>160.4</ele>
        <time>2022-01-16T11:22:58Z</time>
      </trkpt>
      <trkpt lat="43.2530040" lon="-3.2625740">
        <ele>160.4</ele>
        <time>2022-01-16T11:22:59Z</time>
      </trkpt>
      <trkpt lat="43.2529270" lon="-3.2625190">
        <ele>160.2</ele>
        <time>2022-01-16T11:23:00Z</time>
      </trkpt>
      <trkpt lat="43.2528510" lon="-3.2624630">
        <ele>160.0</ele>
        <time>2022-01-16T11:23:01Z</time>
      </trkpt>
      <trkpt lat="43.2527740" lon="-3.2624070">
        <ele>159.8</ele>
        <time>2022-01-16T11:23:02Z</time>
      </trkpt>
      <trkpt lat="43.2526960" lon="-3.2623500">
        <ele>159.6</ele>
        <time>2022-01-16T11:23:03Z</time>
      </trkpt>
      <trkpt lat="43.2526210" lon="-3.2622940">
        <ele>159.6</ele>
        <time>2022-01-16T11:23:04Z</time>
      </trkpt>
      <trkpt lat="43.2525490" lon="-3.2622370">
        <ele>159.4</ele>
        <time>2022-01-16T11:23:05Z</time>
      </trkpt>
      <trkpt lat="43.2524770" lon="-3.2621800">
        <ele>159.2</ele>
        <time>2022-01-16T11:23:06Z</time>
      </trkpt>
      <trkpt lat="43.2524060" lon="-3.2621250">
        <ele>159.2</ele>
        <time>2022-01-16T11:23:07Z</time>
      </trkpt>
      <trkpt lat="43.2523340" lon="-3.2620730">
        <ele>159.2</ele>
        <time>2022-01-16T11:23:08Z</time>
      </trkpt>
      <trkpt lat="43.2522590" lon="-3.2620190">
        <ele>159.2</ele>
        <time>2022-01-16T11:23:09Z</time>
      </trkpt>
      <trkpt lat="43.2521810" lon="-3.2619700">
        <ele>159.4</ele>
        <time>2022-01-16T11:23:10Z</time>
      </trkpt>
      <trkpt lat="43.2521060" lon="-3.2619210">
        <ele>159.6</ele>
        <time>2022-01-16T11:23:11Z</time>
      </trkpt>
      <trkpt lat="43.2520310" lon="-3.2618700">
        <ele>159.8</ele>
        <time>2022-01-16T11:23:12Z</time>
      </trkpt>
      <trkpt lat="43.2519610" lon="-3.2618130">
        <ele>159.8</ele>
        <time>2022-01-16T11:23:13Z</time>
      </trkpt>
      <trkpt lat="43.2518920" lon="-3.2617580">
        <ele>159.8</ele>
        <time>2022-01-16T11:23:14Z</time>
      </trkpt>
      <trkpt lat="43.2518210" lon="-3.2617080">
        <ele>159.8</ele>
        <time>2022-01-16T11:23:15Z</time>
      </trkpt>
      <trkpt lat="43.2517480" lon="-3.2616550">
        <ele>159.8</ele>
        <time>2022-01-16T11:23:16Z</time>
      </trkpt>
      <trkpt lat="43.2516770" lon="-3.2616040">
        <ele>159.8</ele>
        <time>2022-01-16T11:23:17Z</time>
      </trkpt>
      <trkpt lat="43.2516070" lon="-3.2615540">
        <ele>160.0</ele>
        <time>2022-01-16T11:23:18Z</time>
      </trkpt>
      <trkpt lat="43.2515370" lon="-3.2615040">
        <ele>160.2</ele>
        <time>2022-01-16T11:23:19Z</time>
      </trkpt>
      <trkpt lat="43.2514680" lon="-3.2614550">
        <ele>160.0</ele>
        <time>2022-01-16T11:23:20Z</time>
      </trkpt>
      <trkpt lat="43.2513980" lon="-3.2614060">
        <ele>160.4</ele>
        <time>2022-01-16T11:23:21Z</time>
      </trkpt>
      <trkpt lat="43.2513280" lon="-3.2613570">
        <ele>160.4</ele>
        <time>2022-01-16T11:23:22Z</time>
      </trkpt>
      <trkpt lat="43.2512610" lon="-3.2613070">
        <ele>160.4</ele>
        <time>2022-01-16T11:23:23Z</time>
      </trkpt>
      <trkpt lat="43.2511940" lon="-3.2612570">
        <ele>160.4</ele>
        <time>2022-01-16T11:23:24Z</time>
      </trkpt>
      <trkpt lat="43.2511290" lon="-3.2612100">
        <ele>160.4</ele>
        <time>2022-01-16T11:23:25Z</time>
      </trkpt>
      <trkpt lat="43.2510620" lon="-3.2611650">
        <ele>160.6</ele>
        <time>2022-01-16T11:23:26Z</time>
      </trkpt>
      <trkpt lat="43.2509970" lon="-3.2611180">
        <ele>160.6</ele>
        <time>2022-01-16T11:23:27Z</time>
      </trkpt>
      <trkpt lat="43.2509330" lon="-3.2610720">
        <ele>160.8</ele>
        <time>2022-01-16T11:23:28Z</time>
      </trkpt>
      <trkpt lat="43.2508680" lon="-3.2610250">
        <ele>161.0</ele>
        <time>2022-01-16T11:23:29Z</time>
      </trkpt>
      <trkpt lat="43.2508050" lon="-3.2609800">
        <ele>161.2</ele>
        <time>2022-01-16T11:23:30Z</time>
      </trkpt>
      <trkpt lat="43.2507420" lon="-3.2609370">
        <ele>161.4</ele>
        <time>2022-01-16T11:23:31Z</time>
      </trkpt>
      <trkpt lat="43.2506800" lon="-3.2608930">
        <ele>161.6</ele>
        <time>2022-01-16T11:23:32Z</time>
      </trkpt>
      <trkpt lat="43.2506190" lon="-3.2608480">
        <ele>161.6</ele>
        <time>2022-01-16T11:23:33Z</time>
      </trkpt>
      <trkpt lat="43.2505570" lon="-3.2608040">
        <ele>161.8</ele>
        <time>2022-01-16T11:23:34Z</time>
      </trkpt>
      <trkpt lat="43.2504960" lon="-3.2607600">
        <ele>162.0</ele>
        <time>2022-01-16T11:23:35Z</time>
      </trkpt>
      <trkpt lat="43.2504350" lon="-3.2607160">
        <ele>162.2</ele>
        <time>2022-01-16T11:23:36Z</time>
      </trkpt>
      <trkpt lat="43.2503750" lon="-3.2606740">
        <ele>162.2</ele>
        <time>2022-01-16T11:23:37Z</time>
      </trkpt>
      <trkpt lat="43.2503160" lon="-3.2606320">
        <ele>162.4</ele>
        <time>2022-01-16T11:23:38Z</time>
      </trkpt>
      <trkpt lat="43.2502570" lon="-3.2605900">
        <ele>162.6</ele>
        <time>2022-01-16T11:23:39Z</time>
      </trkpt>
      <trkpt lat="43.2501960" lon="-3.2605480">
        <ele>162.6</ele>
        <time>2022-01-16T11:23:40Z</time>
      </trkpt>
      <trkpt lat="43.2501360" lon="-3.2605030">
        <ele>162.8</ele>
        <time>2022-01-16T11:23:41Z</time>
      </trkpt>
      <trkpt lat="43.2500770" lon="-3.2604580">
        <ele>163.0</ele>
        <time>2022-01-16T11:23:42Z</time>
      </trkpt>
      <trkpt lat="43.2500180" lon="-3.2604140">
        <ele>163.2</ele>
        <time>2022-01-16T11:23:43Z</time>
      </trkpt>
      <trkpt lat="43.2499590" lon="-3.2603700">
        <ele>163.4</ele>
        <time>2022-01-16T11:23:44Z</time>
      </trkpt>
      <trkpt lat="43.2499000" lon="-3.2603270">
        <ele>163.6</ele>
        <time>2022-01-16T11:23:45Z</time>
      </trkpt>
      <trkpt lat="43.2498420" lon="-3.2602830">
        <ele>164.0</ele>
        <time>2022-01-16T11:23:46Z</time>
      </trkpt>
      <trkpt lat="43.2497830" lon="-3.2602390">
        <ele>164.0</ele>
        <time>2022-01-16T11:23:47Z</time>
      </trkpt>
      <trkpt lat="43.2497230" lon="-3.2601940">
        <ele>164.2</ele>
        <time>2022-01-16T11:23:48Z</time>
      </trkpt>
      <trkpt lat="43.2496630" lon="-3.2601460">
        <ele>164.4</ele>
        <time>2022-01-16T11:23:49Z</time>
      </trkpt>
      <trkpt lat="43.2496020" lon="-3.2600950">
        <ele>164.2</ele>
        <time>2022-01-16T11:23:50Z</time>
      </trkpt>
      <trkpt lat="43.2495410" lon="-3.2600430">
        <ele>164.2</ele>
        <time>2022-01-16T11:23:51Z</time>
      </trkpt>
      <trkpt lat="43.2494790" lon="-3.2599930">
        <ele>164.0</ele>
        <time>2022-01-16T11:23:52Z</time>
      </trkpt>
      <trkpt lat="43.2494160" lon="-3.2599420">
        <ele>164.0</ele>
        <time>2022-01-16T11:23:53Z</time>
      </trkpt>
      <trkpt lat="43.2493530" lon="-3.2598900">
        <ele>164.0</ele>
        <time>2022-01-16T11:23:54Z</time>
      </trkpt>
      <trkpt lat="43.2492890" lon="-3.2598380">
        <ele>164.2</ele>
        <time>2022-01-16T11:23:55Z</time>
      </trkpt>
      <trkpt lat="43.2492260" lon="-3.2597870">
        <ele>164.0</ele>
        <time>2022-01-16T11:23:56Z</time>
      </trkpt>
      <trkpt lat="43.2491590" lon="-3.2597390">
        <ele>164.0</ele>
        <time>2022-01-16T11:23:57Z</time>
      </trkpt>
      <trkpt lat="43.2490930" lon="-3.2596920">
        <ele>163.8</ele>
        <time>2022-01-16T11:23:58Z</time>
      </trkpt>
      <trkpt lat="43.2490250" lon="-3.2596490">
        <ele>163.8</ele>
        <time>2022-01-16T11:23:59Z</time>
      </trkpt>
      <trkpt lat="43.2489540" lon="-3.2596140">
        <ele>163.8</ele>
        <time>2022-01-16T11:24:00Z</time>
      </trkpt>
      <trkpt lat="43.2488810" lon="-3.2595910">
        <ele>163.8</ele>
        <time>2022-01-16T11:24:01Z</time>
      </trkpt>
      <trkpt lat="43.2488090" lon="-3.2595740">
        <ele>163.8</ele>
        <time>2022-01-16T11:24:02Z</time>
      </trkpt>
      <trkpt lat="43.2487360" lon="-3.2595620">
        <ele>163.8</ele>
        <time>2022-01-16T11:24:03Z</time>
      </trkpt>
      <trkpt lat="43.2486590" lon="-3.2595570">
        <ele>163.8</ele>
        <time>2022-01-16T11:24:04Z</time>
      </trkpt>
      <trkpt lat="43.2485870" lon="-3.2595590">
        <ele>163.8</ele>
        <time>2022-01-16T11:24:05Z</time>
      </trkpt>
      <trkpt lat="43.2485150" lon="-3.2595630">
        <ele>164.0</ele>
        <time>2022-01-16T11:24:06Z</time>
      </trkpt>
      <trkpt lat="43.2484450" lon="-3.2595640">
        <ele>164.0</ele>
        <time>2022-01-16T11:24:07Z</time>
      </trkpt>
      <trkpt lat="43.2483760" lon="-3.2595640">
        <ele>164.2</ele>
        <time>2022-01-16T11:24:08Z</time>
      </trkpt>
      <trkpt lat="43.2483080" lon="-3.2595630">
        <ele>164.4</ele>
        <time>2022-01-16T11:24:09Z</time>
      </trkpt>
      <trkpt lat="43.2482400" lon="-3.2595620">
        <ele>164.6</ele>
        <time>2022-01-16T11:24:10Z</time>
      </trkpt>
      <trkpt lat="43.2481730" lon="-3.2595630">
        <ele>164.8</ele>
        <time>2022-01-16T11:24:11Z</time>
      </trkpt>
      <trkpt lat="43.2481080" lon="-3.2595650">
        <ele>165.0</ele>
        <time>2022-01-16T11:24:12Z</time>
      </trkpt>
      <trkpt lat="43.2480440" lon="-3.2595680">
        <ele>165.0</ele>
        <time>2022-01-16T11:24:13Z</time>
      </trkpt>
      <trkpt lat="43.2479790" lon="-3.2595700">
        <ele>165.4</ele>
        <time>2022-01-16T11:24:14Z</time>
      </trkpt>
      <trkpt lat="43.2479100" lon="-3.2595720">
        <ele>165.8</ele>
        <time>2022-01-16T11:24:15Z</time>
      </trkpt>
      <trkpt lat="43.2478460" lon="-3.2595760">
        <ele>166.0</ele>
        <time>2022-01-16T11:24:16Z</time>
      </trkpt>
      <trkpt lat="43.2477820" lon="-3.2595850">
        <ele>166.2</ele>
        <time>2022-01-16T11:24:17Z</time>
      </trkpt>
      <trkpt lat="43.2477200" lon="-3.2595990">
        <ele>166.4</ele>
        <time>2022-01-16T11:24:18Z</time>
      </trkpt>
      <trkpt lat="43.2476600" lon="-3.2596160">
        <ele>166.6</ele>
        <time>2022-01-16T11:24:19Z</time>
      </trkpt>
      <trkpt lat="43.2476000" lon="-3.2596400">
        <ele>166.8</ele>
        <time>2022-01-16T11:24:20Z</time>
      </trkpt>
      <trkpt lat="43.2475430" lon="-3.2596700">
        <ele>167.0</ele>
        <time>2022-01-16T11:24:21Z</time>
      </trkpt>
      <trkpt lat="43.2474890" lon="-3.2597030">
        <ele>167.4</ele>
        <time>2022-01-16T11:24:22Z</time>
      </trkpt>
      <trkpt lat="43.2474370" lon="-3.2597380">
        <ele>167.6</ele>
        <time>2022-01-16T11:24:23Z</time>
      </trkpt>
      <trkpt lat="43.2473850" lon="-3.2597750">
        <ele>167.8</ele>
        <time>2022-01-16T11:24:24Z</time>
      </trkpt>
      <trkpt lat="43.2473320" lon="-3.2598120">
        <ele>168.2</ele>
        <time>2022-01-16T11:24:25Z</time>
      </trkpt>
      <trkpt lat="43.2472790" lon="-3.2598480">
        <ele>168.6</ele>
        <time>2022-01-16T11:24:26Z</time>
      </trkpt>
      <trkpt lat="43.2472240" lon="-3.2598820">
        <ele>169.0</ele>
        <time>2022-01-16T11:24:27Z</time>
      </trkpt>
      <trkpt lat="43.2471720" lon="-3.2599160">
        <ele>169.4</ele>
        <time>2022-01-16T11:24:28Z</time>
      </trkpt>
      <trkpt lat="43.2471220" lon="-3.2599500">
        <ele>169.6</ele>
        <time>2022-01-16T11:24:29Z</time>
      </trkpt>
      <trkpt lat="43.2470730" lon="-3.2599850">
        <ele>169.8</ele>
        <time>2022-01-16T11:24:30Z</time>
      </trkpt>
      <trkpt lat="43.2470240" lon="-3.2600220">
        <ele>170.0</ele>
        <time>2022-01-16T11:24:31Z</time>
      </trkpt>
      <trkpt lat="43.2469740" lon="-3.2600580">
        <ele>170.2</ele>
        <time>2022-01-16T11:24:32Z</time>
      </trkpt>
      <trkpt lat="43.2469230" lon="-3.2600960">
        <ele>170.4</ele>
        <time>2022-01-16T11:24:33Z</time>
      </trkpt>
      <trkpt lat="43.2468700" lon="-3.2601370">
        <ele>170.6</ele>
        <time>2022-01-16T11:24:34Z</time>
      </trkpt>
      <trkpt lat="43.2468180" lon="-3.2601800">
        <ele>170.8</ele>
        <time>2022-01-16T11:24:35Z</time>
      </trkpt>
      <trkpt lat="43.2467680" lon="-3.2602250">
        <ele>171.0</ele>
        <time>2022-01-16T11:24:36Z</time>
      </trkpt>
      <trkpt lat="43.2467160" lon="-3.2602710">
        <ele>171.4</ele>
        <time>2022-01-16T11:24:37Z</time>
      </trkpt>
      <trkpt lat="43.2466670" lon="-3.2603160">
        <ele>171.8</ele>
        <time>2022-01-16T11:24:38Z</time>
      </trkpt>
      <trkpt lat="43.2466180" lon="-3.2603610">
        <ele>172.2</ele>
        <time>2022-01-16T11:24:39Z</time>
      </trkpt>
      <trkpt lat="43.2465680" lon="-3.2604040">
        <ele>172.4</ele>
        <time>2022-01-16T11:24:40Z</time>
      </trkpt>
      <trkpt lat="43.2465180" lon="-3.2604470">
        <ele>172.6</ele>
        <time>2022-01-16T11:24:41Z</time>
      </trkpt>
      <trkpt lat="43.2464670" lon="-3.2604850">
        <ele>172.6</ele>
        <time>2022-01-16T11:24:42Z</time>
      </trkpt>
      <trkpt lat="43.2464190" lon="-3.2605200">
        <ele>172.8</ele>
        <time>2022-01-16T11:24:43Z</time>
      </trkpt>
      <trkpt lat="43.2463710" lon="-3.2605520">
        <ele>173.0</ele>
        <time>2022-01-16T11:24:44Z</time>
      </trkpt>
      <trkpt lat="43.2463210" lon="-3.2605790">
        <ele>173.2</ele>
        <time>2022-01-16T11:24:45Z</time>
      </trkpt>
      <trkpt lat="43.2462680" lon="-3.2606020">
        <ele>173.4</ele>
        <time>2022-01-16T11:24:46Z</time>
      </trkpt>
      <trkpt lat="43.2462130" lon="-3.2606270">
        <ele>173.6</ele>
        <time>2022-01-16T11:24:47Z</time>
      </trkpt>
      <trkpt lat="43.2461610" lon="-3.2606510">
        <ele>173.8</ele>
        <time>2022-01-16T11:24:48Z</time>
      </trkpt>
      <trkpt lat="43.2461090" lon="-3.2606730">
        <ele>174.2</ele>
        <time>2022-01-16T11:24:49Z</time>
      </trkpt>
      <trkpt lat="43.2460580" lon="-3.2606960">
        <ele>174.4</ele>
        <time>2022-01-16T11:24:50Z</time>
      </trkpt>
      <trkpt lat="43.2459990" lon="-3.2606990">
        <ele>174.8</ele>
        <time>2022-01-16T11:24:51Z</time>
      </trkpt>
      <trkpt lat="43.2459470" lon="-3.2607070">
        <ele>175.2</ele>
        <time>2022-01-16T11:24:52Z</time>
      </trkpt>
      <trkpt lat="43.2458970" lon="-3.2607260">
        <ele>175.4</ele>
        <time>2022-01-16T11:24:53Z</time>
      </trkpt>
      <trkpt lat="43.2458500" lon="-3.2607500">
        <ele>175.8</ele>
        <time>2022-01-16T11:24:54Z</time>
      </trkpt>
      <trkpt lat="43.2458010" lon="-3.2607710">
        <ele>176.0</ele>
        <time>2022-01-16T11:24:55Z</time>
      </trkpt>
      <trkpt lat="43.2457520" lon="-3.2607840">
        <ele>176.4</ele>
        <time>2022-01-16T11:24:56Z</time>
      </trkpt>
      <trkpt lat="43.2457050" lon="-3.2607940">
        <ele>176.8</ele>
        <time>2022-01-16T11:24:57Z</time>
      </trkpt>
      <trkpt lat="43.2456560" lon="-3.2608080">
        <ele>177.0</ele>
        <time>2022-01-16T11:24:58Z</time>
      </trkpt>
      <trkpt lat="43.2456070" lon="-3.2608250">
        <ele>177.2</ele>
        <time>2022-01-16T11:24:59Z</time>
      </trkpt>
      <trkpt lat="43.2455580" lon="-3.2608400">
        <ele>177.6</ele>
        <time>2022-01-16T11:25:00Z</time>
      </trkpt>
      <trkpt lat="43.2455090" lon="-3.2608530">
        <ele>178.0</ele>
        <time>2022-01-16T11:25:01Z</time>
      </trkpt>
      <trkpt lat="43.2454610" lon="-3.2608700">
        <ele>178.2</ele>
        <time>2022-01-16T11:25:02Z</time>
      </trkpt>
      <trkpt lat="43.2454130" lon="-3.2608910">
        <ele>178.8</ele>
        <time>2022-01-16T11:25:03Z</time>
      </trkpt>
      <trkpt lat="43.2453630" lon="-3.2609090">
        <ele>179.2</ele>
        <time>2022-01-16T11:25:04Z</time>
      </trkpt>
      <trkpt lat="43.2453130" lon="-3.2609220">
        <ele>179.4</ele>
        <time>2022-01-16T11:25:05Z</time>
      </trkpt>
      <trkpt lat="43.2452650" lon="-3.2609390">
        <ele>179.8</ele>
        <time>2022-01-16T11:25:06Z</time>
      </trkpt>
      <trkpt lat="43.2452170" lon="-3.2609600">
        <ele>180.2</ele>
        <time>2022-01-16T11:25:07Z</time>
      </trkpt>
      <trkpt lat="43.2451680" lon="-3.2609820">
        <ele>180.4</ele>
        <time>2022-01-16T11:25:08Z</time>
      </trkpt>
      <trkpt lat="43.2451180" lon="-3.2610000">
        <ele>180.6</ele>
        <time>2022-01-16T11:25:09Z</time>
      </trkpt>
      <trkpt lat="43.2450690" lon="-3.2610170">
        <ele>181.0</ele>
        <time>2022-01-16T11:25:10Z</time>
      </trkpt>
      <trkpt lat="43.2450190" lon="-3.2610350">
        <ele>181.2</ele>
        <time>2022-01-16T11:25:11Z</time>
      </trkpt>
      <trkpt lat="43.2449700" lon="-3.2610530">
        <ele>181.4</ele>
        <time>2022-01-16T11:25:12Z</time>
      </trkpt>
      <trkpt lat="43.2449210" lon="-3.2610690">
        <ele>181.6</ele>
        <time>2022-01-16T11:25:13Z</time>
      </trkpt>
      <trkpt lat="43.2448710" lon="-3.2610850">
        <ele>181.8</ele>
        <time>2022-01-16T11:25:14Z</time>
      </trkpt>
      <trkpt lat="43.2448210" lon="-3.2611040">
        <ele>182.0</ele>
        <time>2022-01-16T11:25:15Z</time>
      </trkpt>
      <trkpt lat="43.2447720" lon="-3.2611230">
        <ele>182.4</ele>
        <time>2022-01-16T11:25:16Z</time>
      </trkpt>
      <trkpt lat="43.2447220" lon="-3.2611420">
        <ele>182.6</ele>
        <time>2022-01-16T11:25:17Z</time>
      </trkpt>
      <trkpt lat="43.2446670" lon="-3.2611560">
        <ele>182.6</ele>
        <time>2022-01-16T11:25:18Z</time>
      </trkpt>
      <trkpt lat="43.2446130" lon="-3.2611710">
        <ele>182.6</ele>
        <time>2022-01-16T11:25:19Z</time>
      </trkpt>
      <trkpt lat="43.2445620" lon="-3.2611890">
        <ele>182.8</ele>
        <time>2022-01-16T11:25:20Z</time>
      </trkpt>
      <trkpt lat="43.2445090" lon="-3.2612080">
        <ele>182.8</ele>
        <time>2022-01-16T11:25:21Z</time>
      </trkpt>
      <trkpt lat="43.2444590" lon="-3.2612270">
        <ele>182.6</ele>
        <time>2022-01-16T11:25:22Z</time>
      </trkpt>
      <trkpt lat="43.2444090" lon="-3.2612460">
        <ele>182.8</ele>
        <time>2022-01-16T11:25:23Z</time>
      </trkpt>
      <trkpt lat="43.2443610" lon="-3.2612630">
        <ele>182.8</ele>
        <time>2022-01-16T11:25:24Z</time>
      </trkpt>
      <trkpt lat="43.2443140" lon="-3.2612830">
        <ele>183.0</ele>
        <time>2022-01-16T11:25:25Z</time>
      </trkpt>
      <trkpt lat="43.2442720" lon="-3.2613100">
        <ele>183.0</ele>
        <time>2022-01-16T11:25:26Z</time>
      </trkpt>
      <trkpt lat="43.2442300" lon="-3.2613330">
        <ele>183.0</ele>
        <time>2022-01-16T11:25:27Z</time>
      </trkpt>
      <trkpt lat="43.2441880" lon="-3.2613520">
        <ele>183.0</ele>
        <time>2022-01-16T11:25:28Z</time>
      </trkpt>
      <trkpt lat="43.2441460" lon="-3.2613630">
        <ele>183.0</ele>
        <time>2022-01-16T11:25:29Z</time>
      </trkpt>
      <trkpt lat="43.2441080" lon="-3.2613520">
        <ele>183.2</ele>
        <time>2022-01-16T11:25:30Z</time>
      </trkpt>
      <trkpt lat="43.2440850" lon="-3.2613230">
        <ele>183.4</ele>
        <time>2022-01-16T11:25:31Z</time>
      </trkpt>
      <trkpt lat="43.2440760" lon="-3.2612810">
        <ele>183.6</ele>
        <time>2022-01-16T11:25:32Z</time>
      </trkpt>
      <trkpt lat="43.2440830" lon="-3.2612280">
        <ele>184.0</ele>
        <time>2022-01-16T11:25:33Z</time>
      </trkpt>
      <trkpt lat="43.2440950" lon="-3.2611700">
        <ele>184.2</ele>
        <time>2022-01-16T11:25:34Z</time>
      </trkpt>
      <trkpt lat="43.2441090" lon="-3.2611090">
        <ele>184.4</ele>
        <time>2022-01-16T11:25:35Z</time>
      </trkpt>
      <trkpt lat="43.2441250" lon="-3.2610490">
        <ele>184.6</ele>
        <time>2022-01-16T11:25:36Z</time>
      </trkpt>
      <trkpt lat="43.2441390" lon="-3.2609810">
        <ele>184.8</ele>
        <time>2022-01-16T11:25:37Z</time>
      </trkpt>
      <trkpt lat="43.2441570" lon="-3.2609140">
        <ele>185.0</ele>
        <time>2022-01-16T11:25:38Z</time>
      </trkpt>
      <trkpt lat="43.2441770" lon="-3.2608410">
        <ele>185.2</ele>
        <time>2022-01-16T11:25:39Z</time>
      </trkpt>
      <trkpt lat="43.2441950" lon="-3.2607650">
        <ele>185.4</ele>
        <time>2022-01-16T11:25:40Z</time>
      </trkpt>
      <trkpt lat="43.2442120" lon="-3.2606880">
        <ele>185.8</ele>
        <time>2022-01-16T11:25:41Z</time>
      </trkpt>
      <trkpt lat="43.2442290" lon="-3.2606130">
        <ele>185.8</ele>
        <time>2022-01-16T11:25:42Z</time>
      </trkpt>
      <trkpt lat="43.2442440" lon="-3.2605400">
        <ele>186.2</ele>
        <time>2022-01-16T11:25:43Z</time>
      </trkpt>
      <trkpt lat="43.2442590" lon="-3.2604680">
        <ele>186.2</ele>
        <time>2022-01-16T11:25:44Z</time>
      </trkpt>
      <trkpt lat="43.2442740" lon="-3.2603970">
        <ele>186.4</ele>
        <time>2022-01-16T11:25:45Z</time>
      </trkpt>
      <trkpt lat="43.2442900" lon="-3.2603250">
        <ele>186.6</ele>
        <time>2022-01-16T11:25:46Z</time>
      </trkpt>
      <trkpt lat="43.2443060" lon="-3.2602550">
        <ele>186.8</ele>
        <time>2022-01-16T11:25:47Z</time>
      </trkpt>
      <trkpt lat="43.2443250" lon="-3.2601840">
        <ele>187.0</ele>
        <time>2022-01-16T11:25:48Z</time>
      </trkpt>
      <trkpt lat="43.2443430" lon="-3.2601140">
        <ele>187.4</ele>
        <time>2022-01-16T11:25:49Z</time>
      </trkpt>
      <trkpt lat="43.2443620" lon="-3.2600420">
        <ele>187.4</ele>
        <time>2022-01-16T11:25:50Z</time>
      </trkpt>
      <trkpt lat="43.2443760" lon="-3.2599690">
        <ele>187.6</ele>
        <time>2022-01-16T11:25:51Z</time>
      </trkpt>
      <trkpt lat="43.2443910" lon="-3.2598920">
        <ele>187.8</ele>
        <time>2022-01-16T11:25:52Z</time>
      </trkpt>
      <trkpt lat="43.2444070" lon="-3.2598170">
        <ele>188.0</ele>
        <time>2022-01-16T11:25:53Z</time>
      </trkpt>
      <trkpt lat="43.2444250" lon="-3.2597410">
        <ele>188.2</ele>
        <time>2022-01-16T11:25:54Z</time>
      </trkpt>
      <trkpt lat="43.2444430" lon="-3.2596650">
        <ele>188.4</ele>
        <time>2022-01-16T11:25:55Z</time>
      </trkpt>
      <trkpt lat="43.2444600" lon="-3.2595930">
        <ele>188.6</ele>
        <time>2022-01-16T11:25:56Z</time>
      </trkpt>
      <trkpt lat="43.2444760" lon="-3.2595220">
        <ele>188.8</ele>
        <time>2022-01-16T11:25:57Z</time>
      </trkpt>
      <trkpt lat="43.2444920" lon="-3.2594490">
        <ele>189.0</ele>
        <time>2022-01-16T11:25:58Z</time>
      </trkpt>
      <trkpt lat="43.2445100" lon="-3.2593740">
        <ele>189.2</ele>
        <time>2022-01-16T11:25:59Z</time>
      </trkpt>
      <trkpt lat="43.2445260" lon="-3.2592980">
        <ele>189.4</ele>
        <time>2022-01-16T11:26:00Z</time>
      </trkpt>
      <trkpt lat="43.2445420" lon="-3.2592220">
        <ele>189.6</ele>
        <time>2022-01-16T11:26:01Z</time>
      </trkpt>
      <trkpt lat="43.2445590" lon="-3.2591450">
        <ele>189.8</ele>
        <time>2022-01-16T11:26:02Z</time>
      </trkpt>
      <trkpt lat="43.2445830" lon="-3.2590630">
        <ele>190.0</ele>
        <time>2022-01-16T11:26:03Z</time>
      </trkpt>
      <trkpt lat="43.2446020" lon="-3.2589860">
        <ele>190.0</ele>
        <time>2022-01-16T11:26:04Z</time>
      </trkpt>
      <trkpt lat="43.2446190" lon="-3.2589100">
        <ele>190.2</ele>
        <time>2022-01-16T11:26:05Z</time>
      </trkpt>
      <trkpt lat="43.2446350" lon="-3.2588350">
        <ele>190.4</ele>
        <time>2022-01-16T11:26:06Z</time>
      </trkpt>
      <trkpt lat="43.2446490" lon="-3.2587610">
        <ele>190.6</ele>
        <time>2022-01-16T11:26:07Z</time>
      </trkpt>
      <trkpt lat="43.2446660" lon="-3.2586870">
        <ele>190.8</ele>
        <time>2022-01-16T11:26:08Z</time>
      </trkpt>
      <trkpt lat="43.2446850" lon="-3.2586120">
        <ele>190.8</ele>
        <time>2022-01-16T11:26:09Z</time>
      </trkpt>
      <trkpt lat="43.2447010" lon="-3.2585350">
        <ele>191.2</ele>
        <time>2022-01-16T11:26:10Z</time>
      </trkpt>
      <trkpt lat="43.2447160" lon="-3.2584590">
        <ele>191.6</ele>
        <time>2022-01-16T11:26:11Z</time>
      </trkpt>
      <trkpt lat="43.2447300" lon="-3.2583850">
        <ele>192.0</ele>
        <time>2022-01-16T11:26:12Z</time>
      </trkpt>
      <trkpt lat="43.2447440" lon="-3.2583110">
        <ele>192.4</ele>
        <time>2022-01-16T11:26:13Z</time>
      </trkpt>
      <trkpt lat="43.2447610" lon="-3.2582380">
        <ele>192.8</ele>
        <time>2022-01-16T11:26:14Z</time>
      </trkpt>
      <trkpt lat="43.2447790" lon="-3.2581660">
        <ele>193.2</ele>
        <time>2022-01-16T11:26:15Z</time>
      </trkpt>
      <trkpt lat="43.2447960" lon="-3.2580930">
        <ele>193.4</ele>
        <time>2022-01-16T11:26:16Z</time>
      </trkpt>
      <trkpt lat="43.2448120" lon="-3.2580200">
        <ele>193.8</ele>
        <time>2022-01-16T11:26:17Z</time>
      </trkpt>
      <trkpt lat="43.2448270" lon="-3.2579470">
        <ele>194.0</ele>
        <time>2022-01-16T11:26:18Z</time>
      </trkpt>
      <trkpt lat="43.2448420" lon="-3.2578730">
        <ele>194.2</ele>
        <time>2022-01-16T11:26:19Z</time>
      </trkpt>
      <trkpt lat="43.2448580" lon="-3.2578000">
        <ele>194.4</ele>
        <time>2022-01-16T11:26:20Z</time>
      </trkpt>
      <trkpt lat="43.2448750" lon="-3.2577250">
        <ele>194.6</ele>
        <time>2022-01-16T11:26:21Z</time>
      </trkpt>
      <trkpt lat="43.2448890" lon="-3.2576490">
        <ele>194.8</ele>
        <time>2022-01-16T11:26:22Z</time>
      </trkpt>
      <trkpt lat="43.2449010" lon="-3.2575720">
        <ele>195.0</ele>
        <time>2022-01-16T11:26:23Z</time>
      </trkpt>
      <trkpt lat="43.2449110" lon="-3.2574930">
        <ele>195.2</ele>
        <time>2022-01-16T11:26:24Z</time>
      </trkpt>
      <trkpt lat="43.2449180" lon="-3.2574130">
        <ele>195.2</ele>
        <time>2022-01-16T11:26:25Z</time>
      </trkpt>
      <trkpt lat="43.2449230" lon="-3.2573330">
        <ele>195.4</ele>
        <time>2022-01-16T11:26:26Z</time>
      </trkpt>
      <trkpt lat="43.2449270" lon="-3.2572530">
        <ele>195.6</ele>
        <time>2022-01-16T11:26:27Z</time>
      </trkpt>
      <trkpt lat="43.2449250" lon="-3.2571720">
        <ele>195.6</ele>
        <time>2022-01-16T11:26:28Z</time>
      </trkpt>
      <trkpt lat="43.2449170" lon="-3.2570920">
        <ele>195.8</ele>
        <time>2022-01-16T11:26:29Z</time>
      </trkpt>
      <trkpt lat="43.2449080" lon="-3.2570130">
        <ele>196.0</ele>
        <time>2022-01-16T11:26:30Z</time>
      </trkpt>
      <trkpt lat="43.2448990" lon="-3.2569370">
        <ele>196.2</ele>
        <time>2022-01-16T11:26:31Z</time>
      </trkpt>
      <trkpt lat="43.2448880" lon="-3.2568590">
        <ele>196.4</ele>
        <time>2022-01-16T11:26:32Z</time>
      </trkpt>
      <trkpt lat="43.2448770" lon="-3.2567780">
        <ele>196.6</ele>
        <time>2022-01-16T11:26:33Z</time>
      </trkpt>
      <trkpt lat="43.2448670" lon="-3.2567000">
        <ele>197.0</ele>
        <time>2022-01-16T11:26:34Z</time>
      </trkpt>
      <trkpt lat="43.2448570" lon="-3.2566230">
        <ele>197.2</ele>
        <time>2022-01-16T11:26:35Z</time>
      </trkpt>
      <trkpt lat="43.2448450" lon="-3.2565450">
        <ele>197.4</ele>
        <time>2022-01-16T11:26:36Z</time>
      </trkpt>
      <trkpt lat="43.2448330" lon="-3.2564660">
        <ele>197.6</ele>
        <time>2022-01-16T11:26:37Z</time>
      </trkpt>
      <trkpt lat="43.2448190" lon="-3.2563870">
        <ele>197.8</ele>
        <time>2022-01-16T11:26:38Z</time>
      </trkpt>
      <trkpt lat="43.2448080" lon="-3.2563100">
        <ele>198.0</ele>
        <time>2022-01-16T11:26:39Z</time>
      </trkpt>
      <trkpt lat="43.2447940" lon="-3.2562320">
        <ele>198.4</ele>
        <time>2022-01-16T11:26:40Z</time>
      </trkpt>
      <trkpt lat="43.2447810" lon="-3.2561530">
        <ele>198.6</ele>
        <time>2022-01-16T11:26:41Z</time>
      </trkpt>
      <trkpt lat="43.2447660" lon="-3.2560760">
        <ele>198.6</ele>
        <time>2022-01-16T11:26:42Z</time>
      </trkpt>
      <trkpt lat="43.2447490" lon="-3.2560010">
        <ele>198.8</ele>
        <time>2022-01-16T11:26:43Z</time>
      </trkpt>
      <trkpt lat="43.2447350" lon="-3.2559230">
        <ele>198.8</ele>
        <time>2022-01-16T11:26:44Z</time>
      </trkpt>
      <trkpt lat="43.2447240" lon="-3.2558440">
        <ele>198.8</ele>
        <time>2022-01-16T11:26:45Z</time>
      </trkpt>
      <trkpt lat="43.2447200" lon="-3.2557640">
        <ele>199.0</ele>
        <time>2022-01-16T11:26:46Z</time>
      </trkpt>
      <trkpt lat="43.2447230" lon="-3.2556800">
        <ele>199.0</ele>
        <time>2022-01-16T11:26:47Z</time>
      </trkpt>
      <trkpt lat="43.2447310" lon="-3.2555980">
        <ele>199.0</ele>
        <time>2022-01-16T11:26:48Z</time>
      </trkpt>
      <trkpt lat="43.2447450" lon="-3.2555170">
        <ele>199.2</ele>
        <time>2022-01-16T11:26:49Z</time>
      </trkpt>
      <trkpt lat="43.2447640" lon="-3.2554380">
        <ele>199.2</ele>
        <time>2022-01-16T11:26:50Z</time>
      </trkpt>
      <trkpt lat="43.2447840" lon="-3.2553590">
        <ele>199.6</ele>
        <time>2022-01-16T11:26:51Z</time>
      </trkpt>
      <trkpt lat="43.2448090" lon="-3.2552810">
        <ele>200.0</ele>
        <time>2022-01-16T11:26:52Z</time>
      </trkpt>
      <trkpt lat="43.2448330" lon="-3.2552030">
        <ele>200.2</ele>
        <time>2022-01-16T11:26:53Z</time>
      </trkpt>
      <trkpt lat="43.2448510" lon="-3.2551260">
        <ele>200.4</ele>
        <time>2022-01-16T11:26:54Z</time>
      </trkpt>
      <trkpt lat="43.2448630" lon="-3.2550470">
        <ele>200.6</ele>
        <time>2022-01-16T11:26:55Z</time>
      </trkpt>
      <trkpt lat="43.2448700" lon="-3.2549670">
        <ele>200.8</ele>
        <time>2022-01-16T11:26:56Z</time>
      </trkpt>
      <trkpt lat="43.2448690" lon="-3.2548860">
        <ele>201.0</ele>
        <time>2022-01-16T11:26:57Z</time>
      </trkpt>
      <trkpt lat="43.2448560" lon="-3.2548090">
        <ele>201.4</ele>
        <time>2022-01-16T11:26:58Z</time>
      </trkpt>
      <trkpt lat="43.2448330" lon="-3.2547350">
        <ele>201.6</ele>
        <time>2022-01-16T11:26:59Z</time>
      </trkpt>
      <trkpt lat="43.2448000" lon="-3.2546670">
        <ele>201.8</ele>
        <time>2022-01-16T11:27:00Z</time>
      </trkpt>
      <trkpt lat="43.2447600" lon="-3.2546130">
        <ele>202.0</ele>
        <time>2022-01-16T11:27:01Z</time>
      </trkpt>
      <trkpt lat="43.2447130" lon="-3.2545740">
        <ele>202.2</ele>
        <time>2022-01-16T11:27:02Z</time>
      </trkpt>
      <trkpt lat="43.2446640" lon="-3.2545410">
        <ele>202.4</ele>
        <time>2022-01-16T11:27:03Z</time>
      </trkpt>
      <trkpt lat="43.2446120" lon="-3.2545160">
        <ele>202.6</ele>
        <time>2022-01-16T11:27:04Z</time>
      </trkpt>
      <trkpt lat="43.2445580" lon="-3.2544960">
        <ele>202.8</ele>
        <time>2022-01-16T11:27:05Z</time>
      </trkpt>
      <trkpt lat="43.2445030" lon="-3.2544870">
        <ele>203.0</ele>
        <time>2022-01-16T11:27:06Z</time>
      </trkpt>
      <trkpt lat="43.2444500" lon="-3.2544860">
        <ele>203.4</ele>
        <time>2022-01-16T11:27:07Z</time>
      </trkpt>
      <trkpt lat="43.2443960" lon="-3.2544900">
        <ele>203.4</ele>
        <time>2022-01-16T11:27:08Z</time>
      </trkpt>
      <trkpt lat="43.2443370" lon="-3.2544970">
        <ele>203.6</ele>
        <time>2022-01-16T11:27:09Z</time>
      </trkpt>
      <trkpt lat="43.2442800" lon="-3.2545030">
        <ele>204.0</ele>
        <time>2022-01-16T11:27:10Z</time>
      </trkpt>
      <trkpt lat="43.2442260" lon="-3.2545110">
        <ele>204.2</ele>
        <time>2022-01-16T11:27:11Z</time>
      </trkpt>
      <trkpt lat="43.2441740" lon="-3.2545190">
        <ele>204.4</ele>
        <time>2022-01-16T11:27:12Z</time>
      </trkpt>
      <trkpt lat="43.2441150" lon="-3.2545290">
        <ele>204.6</ele>
        <time>2022-01-16T11:27:13Z</time>
      </trkpt>
      <trkpt lat="43.2440600" lon="-3.2545380">
        <ele>204.8</ele>
        <time>2022-01-16T11:27:14Z</time>
      </trkpt>
      <trkpt lat="43.2440020" lon="-3.2545430">
        <ele>204.8</ele>
        <time>2022-01-16T11:27:15Z</time>
      </trkpt>
      <trkpt lat="43.2439430" lon="-3.2545490">
        <ele>204.8</ele>
        <time>2022-01-16T11:27:16Z</time>
      </trkpt>
      <trkpt lat="43.2438770" lon="-3.2545590">
        <ele>204.8</ele>
        <time>2022-01-16T11:27:17Z</time>
      </trkpt>
      <trkpt lat="43.2438120" lon="-3.2545690">
        <ele>205.0</ele>
        <time>2022-01-16T11:27:18Z</time>
      </trkpt>
      <trkpt lat="43.2437490" lon="-3.2545830">
        <ele>205.0</ele>
        <time>2022-01-16T11:27:19Z</time>
      </trkpt>
      <trkpt lat="43.2436850" lon="-3.2545910">
        <ele>205.2</ele>
        <time>2022-01-16T11:27:20Z</time>
      </trkpt>
      <trkpt lat="43.2436230" lon="-3.2545980">
        <ele>205.4</ele>
        <time>2022-01-16T11:27:21Z</time>
      </trkpt>
      <trkpt lat="43.2435600" lon="-3.2546040">
        <ele>205.6</ele>
        <time>2022-01-16T11:27:22Z</time>
      </trkpt>
      <trkpt lat="43.2434930" lon="-3.2546070">
        <ele>205.8</ele>
        <time>2022-01-16T11:27:23Z</time>
      </trkpt>
      <trkpt lat="43.2434230" lon="-3.2546130">
        <ele>206.0</ele>
        <time>2022-01-16T11:27:24Z</time>
      </trkpt>
      <trkpt lat="43.2433550" lon="-3.2546190">
        <ele>206.0</ele>
        <time>2022-01-16T11:27:25Z</time>
      </trkpt>
      <trkpt lat="43.2432820" lon="-3.2546190">
        <ele>206.0</ele>
        <time>2022-01-16T11:27:26Z</time>
      </trkpt>
      <trkpt lat="43.2432100" lon="-3.2546130">
        <ele>206.0</ele>
        <time>2022-01-16T11:27:27Z</time>
      </trkpt>
      <trkpt lat="43.2431380" lon="-3.2545990">
        <ele>206.0</ele>
        <time>2022-01-16T11:27:28Z</time>
      </trkpt>
      <trkpt lat="43.2430720" lon="-3.2545790">
        <ele>206.0</ele>
        <time>2022-01-16T11:27:29Z</time>
      </trkpt>
      <trkpt lat="43.2430060" lon="-3.2545500">
        <ele>206.0</ele>
        <time>2022-01-16T11:27:30Z</time>
      </trkpt>
      <trkpt lat="43.2429410" lon="-3.2545170">
        <ele>206.0</ele>
        <time>2022-01-16T11:27:31Z</time>
      </trkpt>
      <trkpt lat="43.2428780" lon="-3.2544790">
        <ele>206.0</ele>
        <time>2022-01-16T11:27:32Z</time>
      </trkpt>
      <trkpt lat="43.2428140" lon="-3.2544240">
        <ele>206.2</ele>
        <time>2022-01-16T11:27:33Z</time>
      </trkpt>
      <trkpt lat="43.2427540" lon="-3.2543660">
        <ele>206.2</ele>
        <time>2022-01-16T11:27:34Z</time>
      </trkpt>
      <trkpt lat="43.2427000" lon="-3.2542970">
        <ele>206.2</ele>
        <time>2022-01-16T11:27:35Z</time>
      </trkpt>
      <trkpt lat="43.2426510" lon="-3.2542150">
        <ele>206.4</ele>
        <time>2022-01-16T11:27:36Z</time>
      </trkpt>
      <trkpt lat="43.2426120" lon="-3.2541310">
        <ele>206.4</ele>
        <time>2022-01-16T11:27:37Z</time>
      </trkpt>
      <trkpt lat="43.2425840" lon="-3.2540340">
        <ele>206.6</ele>
        <time>2022-01-16T11:27:38Z</time>
      </trkpt>
      <trkpt lat="43.2425670" lon="-3.2539310">
        <ele>206.6</ele>
        <time>2022-01-16T11:27:39Z</time>
      </trkpt>
      <trkpt lat="43.2425560" lon="-3.2538210">
        <ele>206.6</ele>
        <time>2022-01-16T11:27:40Z</time>
      </trkpt>
      <trkpt lat="43.2425590" lon="-3.2537140">
        <ele>206.6</ele>
        <time>2022-01-16T11:27:41Z</time>
      </trkpt>
      <trkpt lat="43.2425750" lon="-3.2536110">
        <ele>206.6</ele>
        <time>2022-01-16T11:27:42Z</time>
      </trkpt>
      <trkpt lat="43.2426030" lon="-3.2535200">
        <ele>206.4</ele>
        <time>2022-01-16T11:27:43Z</time>
      </trkpt>
      <trkpt lat="43.2426340" lon="-3.2534340">
        <ele>206.2</ele>
        <time>2022-01-16T11:27:44Z</time>
      </trkpt>
      <trkpt lat="43.2426680" lon="-3.2533520">
        <ele>206.4</ele>
        <time>2022-01-16T11:27:45Z</time>
      </trkpt>
      <trkpt lat="43.2427080" lon="-3.2532700">
        <ele>206.6</ele>
        <time>2022-01-16T11:27:46Z</time>
      </trkpt>
      <trkpt lat="43.2427430" lon="-3.2531940">
        <ele>207.0</ele>
        <time>2022-01-16T11:27:47Z</time>
      </trkpt>
      <trkpt lat="43.2427760" lon="-3.2531200">
        <ele>207.2</ele>
        <time>2022-01-16T11:27:48Z</time>
      </trkpt>
      <trkpt lat="43.2428080" lon="-3.2530480">
        <ele>207.6</ele>
        <time>2022-01-16T11:27:49Z</time>
      </trkpt>
      <trkpt lat="43.2428390" lon="-3.2529760">
        <ele>207.8</ele>
        <time>2022-01-16T11:27:50Z</time>
      </trkpt>
      <trkpt lat="43.2428700" lon="-3.2529050">
        <ele>208.2</ele>
        <time>2022-01-16T11:27:51Z</time>
      </trkpt>
      <trkpt lat="43.2428980" lon="-3.2528330">
        <ele>208.8</ele>
        <time>2022-01-16T11:27:52Z</time>
      </trkpt>
      <trkpt lat="43.2429260" lon="-3.2527620">
        <ele>209.0</ele>
        <time>2022-01-16T11:27:53Z</time>
      </trkpt>
      <trkpt lat="43.2429530" lon="-3.2526920">
        <ele>209.4</ele>
        <time>2022-01-16T11:27:54Z</time>
      </trkpt>
      <trkpt lat="43.2429800" lon="-3.2526250">
        <ele>209.6</ele>
        <time>2022-01-16T11:27:55Z</time>
      </trkpt>
      <trkpt lat="43.2430050" lon="-3.2525580">
        <ele>209.8</ele>
        <time>2022-01-16T11:27:56Z</time>
      </trkpt>
      <trkpt lat="43.2430300" lon="-3.2524930">
        <ele>210.2</ele>
        <time>2022-01-16T11:27:57Z</time>
      </trkpt>
      <trkpt lat="43.2430520" lon="-3.2524280">
        <ele>210.6</ele>
        <time>2022-01-16T11:27:58Z</time>
      </trkpt>
      <trkpt lat="43.2430740" lon="-3.2523620">
        <ele>211.0</ele>
        <time>2022-01-16T11:27:59Z</time>
      </trkpt>
      <trkpt lat="43.2430950" lon="-3.2522960">
        <ele>211.4</ele>
        <time>2022-01-16T11:28:00Z</time>
      </trkpt>
      <trkpt lat="43.2431170" lon="-3.2522280">
        <ele>211.6</ele>
        <time>2022-01-16T11:28:01Z</time>
      </trkpt>
      <trkpt lat="43.2431380" lon="-3.2521590">
        <ele>211.8</ele>
        <time>2022-01-16T11:28:02Z</time>
      </trkpt>
      <trkpt lat="43.2431600" lon="-3.2520900">
        <ele>212.0</ele>
        <time>2022-01-16T11:28:03Z</time>
      </trkpt>
      <trkpt lat="43.2431800" lon="-3.2520220">
        <ele>212.2</ele>
        <time>2022-01-16T11:28:04Z</time>
      </trkpt>
      <trkpt lat="43.2432010" lon="-3.2519550">
        <ele>212.6</ele>
        <time>2022-01-16T11:28:05Z</time>
      </trkpt>
      <trkpt lat="43.2432210" lon="-3.2518880">
        <ele>212.8</ele>
        <time>2022-01-16T11:28:06Z</time>
      </trkpt>
      <trkpt lat="43.2432380" lon="-3.2518220">
        <ele>213.0</ele>
        <time>2022-01-16T11:28:07Z</time>
      </trkpt>
      <trkpt lat="43.2432550" lon="-3.2517550">
        <ele>213.4</ele>
        <time>2022-01-16T11:28:08Z</time>
      </trkpt>
      <trkpt lat="43.2432690" lon="-3.2516880">
        <ele>213.4</ele>
        <time>2022-01-16T11:28:09Z</time>
      </trkpt>
      <trkpt lat="43.2432800" lon="-3.2516170">
        <ele>213.6</ele>
        <time>2022-01-16T11:28:10Z</time>
      </trkpt>
      <trkpt lat="43.2432920" lon="-3.2515470">
        <ele>213.8</ele>
        <time>2022-01-16T11:28:11Z</time>
      </trkpt>
      <trkpt lat="43.2433020" lon="-3.2514730">
        <ele>214.0</ele>
        <time>2022-01-16T11:28:12Z</time>
      </trkpt>
      <trkpt lat="43.2433100" lon="-3.2513960">
        <ele>214.0</ele>
        <time>2022-01-16T11:28:13Z</time>
      </trkpt>
      <trkpt lat="43.2433140" lon="-3.2513170">
        <ele>214.2</ele>
        <time>2022-01-16T11:28:14Z</time>
      </trkpt>
      <trkpt lat="43.2433180" lon="-3.2512380">
        <ele>214.4</ele>
        <time>2022-01-16T11:28:15Z</time>
      </trkpt>
      <trkpt lat="43.2433160" lon="-3.2511590">
        <ele>214.6</ele>
        <time>2022-01-16T11:28:16Z</time>
      </trkpt>
      <trkpt lat="43.2433080" lon="-3.2510820">
        <ele>215.2</ele>
        <time>2022-01-16T11:28:17Z</time>
      </trkpt>
      <trkpt lat="43.2432980" lon="-3.2510070">
        <ele>215.6</ele>
        <time>2022-01-16T11:28:18Z</time>
      </trkpt>
      <trkpt lat="43.2432880" lon="-3.2509310">
        <ele>216.2</ele>
        <time>2022-01-16T11:28:19Z</time>
      </trkpt>
      <trkpt lat="43.2432750" lon="-3.2508520">
        <ele>216.4</ele>
        <time>2022-01-16T11:28:20Z</time>
      </trkpt>
      <trkpt lat="43.2432600" lon="-3.2507760">
        <ele>216.6</ele>
        <time>2022-01-16T11:28:21Z</time>
      </trkpt>
      <trkpt lat="43.2432410" lon="-3.2506980">
        <ele>216.8</ele>
        <time>2022-01-16T11:28:22Z</time>
      </trkpt>
      <trkpt lat="43.2432200" lon="-3.2506200">
        <ele>216.8</ele>
        <time>2022-01-16T11:28:23Z</time>
      </trkpt>
      <trkpt lat="43.2431940" lon="-3.2505440">
        <ele>216.8</ele>
        <time>2022-01-16T11:28:24Z</time>
      </trkpt>
      <trkpt lat="43.2431640" lon="-3.2504670">
        <ele>216.8</ele>
        <time>2022-01-16T11:28:25Z</time>
      </trkpt>
      <trkpt lat="43.2431330" lon="-3.2503910">
        <ele>216.8</ele>
        <time>2022-01-16T11:28:26Z</time>
      </trkpt>
      <trkpt lat="43.2431010" lon="-3.2503160">
        <ele>216.8</ele>
        <time>2022-01-16T11:28:27Z</time>
      </trkpt>
      <trkpt lat="43.2430660" lon="-3.2502410">
        <ele>216.8</ele>
        <time>2022-01-16T11:28:28Z</time>
      </trkpt>
      <trkpt lat="43.2430300" lon="-3.2501660">
        <ele>216.8</ele>
        <time>2022-01-16T11:28:29Z</time>
      </trkpt>
      <trkpt lat="43.2429910" lon="-3.2500920">
        <ele>216.6</ele>
        <time>2022-01-16T11:28:30Z</time>
      </trkpt>
      <trkpt lat="43.2429520" lon="-3.2500210">
        <ele>216.6</ele>
        <time>2022-01-16T11:28:31Z</time>
      </trkpt>
      <trkpt lat="43.2429110" lon="-3.2499500">
        <ele>216.6</ele>
        <time>2022-01-16T11:28:32Z</time>
      </trkpt>
      <trkpt lat="43.2428690" lon="-3.2498770">
        <ele>216.6</ele>
        <time>2022-01-16T11:28:33Z</time>
      </trkpt>
      <trkpt lat="43.2428300" lon="-3.2498040">
        <ele>216.6</ele>
        <time>2022-01-16T11:28:34Z</time>
      </trkpt>
      <trkpt lat="43.2427880" lon="-3.2497330">
        <ele>216.6</ele>
        <time>2022-01-16T11:28:35Z</time>
      </trkpt>
      <trkpt lat="43.2427470" lon="-3.2496610">
        <ele>216.4</ele>
        <time>2022-01-16T11:28:36Z</time>
      </trkpt>
      <trkpt lat="43.2427060" lon="-3.2495890">
        <ele>216.4</ele>
        <time>2022-01-16T11:28:37Z</time>
      </trkpt>
      <trkpt lat="43.2426660" lon="-3.2495160">
        <ele>216.2</ele>
        <time>2022-01-16T11:28:38Z</time>
      </trkpt>
      <trkpt lat="43.2426250" lon="-3.2494410">
        <ele>216.2</ele>
        <time>2022-01-16T11:28:39Z</time>
      </trkpt>
      <trkpt lat="43.2425880" lon="-3.2493650">
        <ele>216.2</ele>
        <time>2022-01-16T11:28:40Z</time>
      </trkpt>
      <trkpt lat="43.2425560" lon="-3.2492870">
        <ele>216.4</ele>
        <time>2022-01-16T11:28:41Z</time>
      </trkpt>
      <trkpt lat="43.2425350" lon="-3.2492080">
        <ele>216.6</ele>
        <time>2022-01-16T11:28:42Z</time>
      </trkpt>
      <trkpt lat="43.2425260" lon="-3.2491270">
        <ele>216.8</ele>
        <time>2022-01-16T11:28:43Z</time>
      </trkpt>
      <trkpt lat="43.2425250" lon="-3.2490400">
        <ele>217.0</ele>
        <time>2022-01-16T11:28:44Z</time>
      </trkpt>
      <trkpt lat="43.2425320" lon="-3.2489580">
        <ele>217.4</ele>
        <time>2022-01-16T11:28:45Z</time>
      </trkpt>
      <trkpt lat="43.2425410" lon="-3.2488760">
        <ele>217.8</ele>
        <time>2022-01-16T11:28:46Z</time>
      </trkpt>
      <trkpt lat="43.2425530" lon="-3.2487970">
        <ele>218.0</ele>
        <time>2022-01-16T11:28:47Z</time>
      </trkpt>
      <trkpt lat="43.2425640" lon="-3.2487190">
        <ele>218.2</ele>
        <time>2022-01-16T11:28:48Z</time>
      </trkpt>
      <trkpt lat="43.2425740" lon="-3.2486390">
        <ele>218.4</ele>
        <time>2022-01-16T11:28:49Z</time>
      </trkpt>
      <trkpt lat="43.2425830" lon="-3.2485610">
        <ele>218.8</ele>
        <time>2022-01-16T11:28:50Z</time>
      </trkpt>
      <trkpt lat="43.2425940" lon="-3.2484820">
        <ele>219.0</ele>
        <time>2022-01-16T11:28:51Z</time>
      </trkpt>
      <trkpt lat="43.2426040" lon="-3.2484060">
        <ele>219.2</ele>
        <time>2022-01-16T11:28:52Z</time>
      </trkpt>
      <trkpt lat="43.2426120" lon="-3.2483330">
        <ele>219.4</ele>
        <time>2022-01-16T11:28:53Z</time>
      </trkpt>
      <trkpt lat="43.2426230" lon="-3.2482620">
        <ele>219.8</ele>
        <time>2022-01-16T11:28:54Z</time>
      </trkpt>
      <trkpt lat="43.2426320" lon="-3.2481920">
        <ele>220.0</ele>
        <time>2022-01-16T11:28:55Z</time>
      </trkpt>
      <trkpt lat="43.2426390" lon="-3.2481200">
        <ele>220.2</ele>
        <time>2022-01-16T11:28:56Z</time>
      </trkpt>
      <trkpt lat="43.2426490" lon="-3.2480510">
        <ele>220.4</ele>
        <time>2022-01-16T11:28:57Z</time>
      </trkpt>
      <trkpt lat="43.2426540" lon="-3.2479820">
        <ele>220.6</ele>
        <time>2022-01-16T11:28:58Z</time>
      </trkpt>
      <trkpt lat="43.2426550" lon="-3.2479110">
        <ele>220.8</ele>
        <time>2022-01-16T11:28:59Z</time>
      </trkpt>
      <trkpt lat="43.2426540" lon="-3.2478410">
        <ele>221.4</ele>
        <time>2022-01-16T11:29:00Z</time>
      </trkpt>
      <trkpt lat="43.2426480" lon="-3.2477750">
        <ele>221.8</ele>
        <time>2022-01-16T11:29:01Z</time>
      </trkpt>
      <trkpt lat="43.2426390" lon="-3.2477080">
        <ele>222.0</ele>
        <time>2022-01-16T11:29:02Z</time>
      </trkpt>
      <trkpt lat="43.2426240" lon="-3.2476440">
        <ele>222.2</ele>
        <time>2022-01-16T11:29:03Z</time>
      </trkpt>
      <trkpt lat="43.2426070" lon="-3.2475800">
        <ele>222.4</ele>
        <time>2022-01-16T11:29:04Z</time>
      </trkpt>
      <trkpt lat="43.2425890" lon="-3.2475200">
        <ele>222.6</ele>
        <time>2022-01-16T11:29:05Z</time>
      </trkpt>
      <trkpt lat="43.2425710" lon="-3.2474620">
        <ele>223.0</ele>
        <time>2022-01-16T11:29:06Z</time>
      </trkpt>
      <trkpt lat="43.2425550" lon="-3.2474060">
        <ele>223.2</ele>
        <time>2022-01-16T11:29:07Z</time>
      </trkpt>
      <trkpt lat="43.2425390" lon="-3.2473520">
        <ele>223.4</ele>
        <time>2022-01-16T11:29:08Z</time>
      </trkpt>
      <trkpt lat="43.2425220" lon="-3.2472970">
        <ele>223.8</ele>
        <time>2022-01-16T11:29:09Z</time>
      </trkpt>
      <trkpt lat="43.2425010" lon="-3.2472400">
        <ele>224.2</ele>
        <time>2022-01-16T11:29:10Z</time>
      </trkpt>
      <trkpt lat="43.2424800" lon="-3.2471820">
        <ele>224.4</ele>
        <time>2022-01-16T11:29:11Z</time>
      </trkpt>
      <trkpt lat="43.2424580" lon="-3.2471230">
        <ele>224.6</ele>
        <time>2022-01-16T11:29:12Z</time>
      </trkpt>
      <trkpt lat="43.2424370" lon="-3.2470650">
        <ele>224.8</ele>
        <time>2022-01-16T11:29:13Z</time>
      </trkpt>
      <trkpt lat="43.2424140" lon="-3.2470070">
        <ele>225.0</ele>
        <time>2022-01-16T11:29:14Z</time>
      </trkpt>
      <trkpt lat="43.2423940" lon="-3.2469500">
        <ele>225.2</ele>
        <time>2022-01-16T11:29:15Z</time>
      </trkpt>
      <trkpt lat="43.2423760" lon="-3.2468940">
        <ele>225.4</ele>
        <time>2022-01-16T11:29:16Z</time>
      </trkpt>
      <trkpt lat="43.2423610" lon="-3.2468410">
        <ele>225.8</ele>
        <time>2022-01-16T11:29:17Z</time>
      </trkpt>
      <trkpt lat="43.2423440" lon="-3.2467910">
        <ele>226.0</ele>
        <time>2022-01-16T11:29:18Z</time>
      </trkpt>
      <trkpt lat="43.2423220" lon="-3.2467370">
        <ele>226.8</ele>
        <time>2022-01-16T11:29:19Z</time>
      </trkpt>
      <trkpt lat="43.2422960" lon="-3.2466840">
        <ele>227.0</ele>
        <time>2022-01-16T11:29:20Z</time>
      </trkpt>
      <trkpt lat="43.2422710" lon="-3.2466290">
        <ele>227.0</ele>
        <time>2022-01-16T11:29:21Z</time>
      </trkpt>
      <trkpt lat="43.2422410" lon="-3.2465760">
        <ele>227.2</ele>
        <time>2022-01-16T11:29:22Z</time>
      </trkpt>
      <trkpt lat="43.2422060" lon="-3.2465240">
        <ele>227.4</ele>
        <time>2022-01-16T11:29:23Z</time>
      </trkpt>
      <trkpt lat="43.2421700" lon="-3.2464780">
        <ele>227.6</ele>
        <time>2022-01-16T11:29:24Z</time>
      </trkpt>
      <trkpt lat="43.2421330" lon="-3.2464320">
        <ele>227.8</ele>
        <time>2022-01-16T11:29:25Z</time>
      </trkpt>
      <trkpt lat="43.2420950" lon="-3.2463910">
        <ele>228.0</ele>
        <time>2022-01-16T11:29:26Z</time>
      </trkpt>
      <trkpt lat="43.2420590" lon="-3.2463530">
        <ele>228.4</ele>
        <time>2022-01-16T11:29:27Z</time>
      </trkpt>
      <trkpt lat="43.2420280" lon="-3.2463200">
        <ele>228.8</ele>
        <time>2022-01-16T11:29:28Z</time>
      </trkpt>
      <trkpt lat="43.2419970" lon="-3.2462910">
        <ele>229.2</ele>
        <time>2022-01-16T11:29:29Z</time>
      </trkpt>
      <trkpt lat="43.2419650" lon="-3.2462610">
        <ele>229.6</ele>
        <time>2022-01-16T11:29:30Z</time>
      </trkpt>
      <trkpt lat="43.2419310" lon="-3.2462290">
        <ele>229.8</ele>
        <time>2022-01-16T11:29:31Z</time>
      </trkpt>
      <trkpt lat="43.2418990" lon="-3.2461990">
        <ele>230.0</ele>
        <time>2022-01-16T11:29:32Z</time>
      </trkpt>
      <trkpt lat="43.2418680" lon="-3.2461690">
        <ele>230.2</ele>
        <time>2022-01-16T11:29:33Z</time>
      </trkpt>
      <trkpt lat="43.2418360" lon="-3.2461290">
        <ele>230.4</ele>
        <time>2022-01-16T11:29:34Z</time>
      </trkpt>
      <trkpt lat="43.2418000" lon="-3.2460880">
        <ele>230.4</ele>
        <time>2022-01-16T11:29:35Z</time>
      </trkpt>
      <trkpt lat="43.2417600" lon="-3.2460420">
        <ele>230.8</ele>
        <time>2022-01-16T11:29:36Z</time>
      </trkpt>
      <trkpt lat="43.2417230" lon="-3.2459890">
        <ele>230.8</ele>
        <time>2022-01-16T11:29:37Z</time>
      </trkpt>
      <trkpt lat="43.2416890" lon="-3.2459360">
        <ele>231.0</ele>
        <time>2022-01-16T11:29:38Z</time>
      </trkpt>
      <trkpt lat="43.2416540" lon="-3.2458830">
        <ele>231.2</ele>
        <time>2022-01-16T11:29:39Z</time>
      </trkpt>
      <trkpt lat="43.2416200" lon="-3.2458290">
        <ele>231.4</ele>
        <time>2022-01-16T11:29:40Z</time>
      </trkpt>
      <trkpt lat="43.2415880" lon="-3.2457780">
        <ele>231.6</ele>
        <time>2022-01-16T11:29:41Z</time>
      </trkpt>
      <trkpt lat="43.2415560" lon="-3.2457220">
        <ele>232.0</ele>
        <time>2022-01-16T11:29:42Z</time>
      </trkpt>
      <trkpt lat="43.2415280" lon="-3.2456710">
        <ele>232.2</ele>
        <time>2022-01-16T11:29:43Z</time>
      </trkpt>
      <trkpt lat="43.2414850" lon="-3.2456190">
        <ele>232.6</ele>
        <time>2022-01-16T11:29:44Z</time>
      </trkpt>
      <trkpt lat="43.2414460" lon="-3.2455650">
        <ele>232.8</ele>
        <time>2022-01-16T11:29:45Z</time>
      </trkpt>
      <trkpt lat="43.2414100" lon="-3.2455110">
        <ele>233.0</ele>
        <time>2022-01-16T11:29:46Z</time>
      </trkpt>
      <trkpt lat="43.2413760" lon="-3.2454570">
        <ele>233.2</ele>
        <time>2022-01-16T11:29:47Z</time>
      </trkpt>
      <trkpt lat="43.2413400" lon="-3.2454000">
        <ele>233.2</ele>
        <time>2022-01-16T11:29:48Z</time>
      </trkpt>
      <trkpt lat="43.2413040" lon="-3.2453420">
        <ele>233.4</ele>
        <time>2022-01-16T11:29:49Z</time>
      </trkpt>
      <trkpt lat="43.2412680" lon="-3.2452820">
        <ele>233.8</ele>
        <time>2022-01-16T11:29:50Z</time>
      </trkpt>
      <trkpt lat="43.2412330" lon="-3.2452200">
        <ele>234.0</ele>
        <time>2022-01-16T11:29:51Z</time>
      </trkpt>
      <trkpt lat="43.2412010" lon="-3.2451600">
        <ele>234.2</ele>
        <time>2022-01-16T11:29:52Z</time>
      </trkpt>
      <trkpt lat="43.2411700" lon="-3.2451000">
        <ele>234.4</ele>
        <time>2022-01-16T11:29:53Z</time>
      </trkpt>
      <trkpt lat="43.2411410" lon="-3.2450410">
        <ele>234.8</ele>
        <time>2022-01-16T11:29:54Z</time>
      </trkpt>
      <trkpt lat="43.2411090" lon="-3.2449840">
        <ele>235.0</ele>
        <time>2022-01-16T11:29:55Z</time>
      </trkpt>
      <trkpt lat="43.2410810" lon="-3.2449310">
        <ele>235.2</ele>
        <time>2022-01-16T11:29:56Z</time>
      </trkpt>
      <trkpt lat="43.2410550" lon="-3.2448710">
        <ele>235.4</ele>
        <time>2022-01-16T11:29:57Z</time>
      </trkpt>
      <trkpt lat="43.2410280" lon="-3.2448150">
        <ele>235.6</ele>
        <time>2022-01-16T11:29:58Z</time>
      </trkpt>
      <trkpt lat="43.2410000" lon="-3.2447580">
        <ele>235.8</ele>
        <time>2022-01-16T11:29:59Z</time>
      </trkpt>
      <trkpt lat="43.2409750" lon="-3.2446980">
        <ele>236.0</ele>
        <time>2022-01-16T11:30:00Z</time>
      </trkpt>
      <trkpt lat="43.2409470" lon="-3.2446420">
        <ele>236.4</ele>
        <time>2022-01-16T11:30:01Z</time>
      </trkpt>
      <trkpt lat="43.2409200" lon="-3.2445840">
        <ele>236.8</ele>
        <time>2022-01-16T11:30:02Z</time>
      </trkpt>
      <trkpt lat="43.2408930" lon="-3.2445260">
        <ele>237.2</ele>
        <time>2022-01-16T11:30:03Z</time>
      </trkpt>
      <trkpt lat="43.2408620" lon="-3.2444690">
        <ele>237.4</ele>
        <time>2022-01-16T11:30:04Z</time>
      </trkpt>
      <trkpt lat="43.2408290" lon="-3.2444100">
        <ele>237.6</ele>
        <time>2022-01-16T11:30:05Z</time>
      </trkpt>
      <trkpt lat="43.2408010" lon="-3.2443490">
        <ele>237.6</ele>
        <time>2022-01-16T11:30:06Z</time>
      </trkpt>
      <trkpt lat="43.2407750" lon="-3.2442870">
        <ele>237.8</ele>
        <time>2022-01-16T11:30:07Z</time>
      </trkpt>
      <trkpt lat="43.2407490" lon="-3.2442240">
        <ele>237.8</ele>
        <time>2022-01-16T11:30:08Z</time>
      </trkpt>
      <trkpt lat="43.2407240" lon="-3.2441620">
        <ele>238.0</ele>
        <time>2022-01-16T11:30:09Z</time>
      </trkpt>
      <trkpt lat="43.2406970" lon="-3.2440970">
        <ele>238.4</ele>
        <time>2022-01-16T11:30:10Z</time>
      </trkpt>
      <trkpt lat="43.2406750" lon="-3.2440310">
        <ele>239.0</ele>
        <time>2022-01-16T11:30:11Z</time>
      </trkpt>
      <trkpt lat="43.2406570" lon="-3.2439630">
        <ele>239.2</ele>
        <time>2022-01-16T11:30:12Z</time>
      </trkpt>
      <trkpt lat="43.2406420" lon="-3.2438930">
        <ele>239.4</ele>
        <time>2022-01-16T11:30:13Z</time>
      </trkpt>
      <trkpt lat="43.2406280" lon="-3.2438230">
        <ele>239.4</ele>
        <time>2022-01-16T11:30:14Z</time>
      </trkpt>
      <trkpt lat="43.2406190" lon="-3.2437530">
        <ele>239.4</ele>
        <time>2022-01-16T11:30:15Z</time>
      </trkpt>
      <trkpt lat="43.2406120" lon="-3.2436820">
        <ele>239.4</ele>
        <time>2022-01-16T11:30:16Z</time>
      </trkpt>
      <trkpt lat="43.2406100" lon="-3.2436130">
        <ele>239.6</ele>
        <time>2022-01-16T11:30:17Z</time>
      </trkpt>
      <trkpt lat="43.2406130" lon="-3.2435430">
        <ele>240.0</ele>
        <time>2022-01-16T11:30:18Z</time>
      </trkpt>
      <trkpt lat="43.2406170" lon="-3.2434750">
        <ele>240.4</ele>
        <time>2022-01-16T11:30:19Z</time>
      </trkpt>
      <trkpt lat="43.2406150" lon="-3.2434060">
        <ele>240.8</ele>
        <time>2022-01-16T11:30:20Z</time>
      </trkpt>
      <trkpt lat="43.2406160" lon="-3.2433370">
        <ele>241.2</ele>
        <time>2022-01-16T11:30:21Z</time>
      </trkpt>
      <trkpt lat="43.2406170" lon="-3.2432640">
        <ele>241.6</ele>
        <time>2022-01-16T11:30:22Z</time>
      </trkpt>
      <trkpt lat="43.2406180" lon="-3.2431910">
        <ele>242.0</ele>
        <time>2022-01-16T11:30:23Z</time>
      </trkpt>
      <trkpt lat="43.2406100" lon="-3.2431150">
        <ele>242.4</ele>
        <time>2022-01-16T11:30:24Z</time>
      </trkpt>
      <trkpt lat="43.2406000" lon="-3.2430370">
        <ele>242.6</ele>
        <time>2022-01-16T11:30:25Z</time>
      </trkpt>
      <trkpt lat="43.2405860" lon="-3.2429620">
        <ele>242.6</ele>
        <time>2022-01-16T11:30:26Z</time>
      </trkpt>
      <trkpt lat="43.2405660" lon="-3.2428910">
        <ele>242.8</ele>
        <time>2022-01-16T11:30:27Z</time>
      </trkpt>
      <trkpt lat="43.2405420" lon="-3.2428210">
        <ele>242.8</ele>
        <time>2022-01-16T11:30:28Z</time>
      </trkpt>
      <trkpt lat="43.2405160" lon="-3.2427530">
        <ele>242.8</ele>
        <time>2022-01-16T11:30:29Z</time>
      </trkpt>
      <trkpt lat="43.2404850" lon="-3.2426890">
        <ele>242.8</ele>
        <time>2022-01-16T11:30:30Z</time>
      </trkpt>
      <trkpt lat="43.2404550" lon="-3.2426250">
        <ele>243.0</ele>
        <time>2022-01-16T11:30:31Z</time>
      </trkpt>
      <trkpt lat="43.2404210" lon="-3.2425600">
        <ele>243.2</ele>
        <time>2022-01-16T11:30:32Z</time>
      </trkpt>
      <trkpt lat="43.2403960" lon="-3.2425100">
        <ele>243.4</ele>
        <time>2022-01-16T11:30:33Z</time>
      </trkpt>
      <trkpt lat="43.2403660" lon="-3.2424560">
        <ele>243.4</ele>
        <time>2022-01-16T11:30:34Z</time>
      </trkpt>
      <trkpt lat="43.2403390" lon="-3.2424010">
        <ele>243.6</ele>
        <time>2022-01-16T11:30:35Z</time>
      </trkpt>
      <trkpt lat="43.2403150" lon="-3.2423500">
        <ele>243.6</ele>
        <time>2022-01-16T11:30:36Z</time>
      </trkpt>
      <trkpt lat="43.2402890" lon="-3.2422920">
        <ele>243.8</ele>
        <time>2022-01-16T11:30:37Z</time>
      </trkpt>
      <trkpt lat="43.2402630" lon="-3.2422320">
        <ele>244.2</ele>
        <time>2022-01-16T11:30:38Z</time>
      </trkpt>
      <trkpt lat="43.2402380" lon="-3.2421760">
        <ele>244.2</ele>
        <time>2022-01-16T11:30:39Z</time>
      </trkpt>
      <trkpt lat="43.2402150" lon="-3.2421150">
        <ele>244.4</ele>
        <time>2022-01-16T11:30:40Z</time>
      </trkpt>
      <trkpt lat="43.2401900" lon="-3.2420590">
        <ele>244.6</ele>
        <time>2022-01-16T11:30:41Z</time>
      </trkpt>
      <trkpt lat="43.2401710" lon="-3.2420080">
        <ele>244.6</ele>
        <time>2022-01-16T11:30:42Z</time>
      </trkpt>
      <trkpt lat="43.2401540" lon="-3.2419490">
        <ele>245.0</ele>
        <time>2022-01-16T11:30:43Z</time>
      </trkpt>
      <trkpt lat="43.2401270" lon="-3.2418900">
        <ele>245.0</ele>
        <time>2022-01-16T11:30:44Z</time>
      </trkpt>
      <trkpt lat="43.2400960" lon="-3.2418220">
        <ele>245.2</ele>
        <time>2022-01-16T11:30:45Z</time>
      </trkpt>
      <trkpt lat="43.2400740" lon="-3.2417560">
        <ele>245.4</ele>
        <time>2022-01-16T11:30:46Z</time>
      </trkpt>
      <trkpt lat="43.2400490" lon="-3.2416900">
        <ele>245.8</ele>
        <time>2022-01-16T11:30:47Z</time>
      </trkpt>
      <trkpt lat="43.2400180" lon="-3.2416240">
        <ele>246.0</ele>
        <time>2022-01-16T11:30:48Z</time>
      </trkpt>
      <trkpt lat="43.2399930" lon="-3.2415570">
        <ele>246.2</ele>
        <time>2022-01-16T11:30:49Z</time>
      </trkpt>
      <trkpt lat="43.2399620" lon="-3.2414870">
        <ele>246.4</ele>
        <time>2022-01-16T11:30:50Z</time>
      </trkpt>
      <trkpt lat="43.2399300" lon="-3.2414210">
        <ele>246.6</ele>
        <time>2022-01-16T11:30:51Z</time>
      </trkpt>
      <trkpt lat="43.2398990" lon="-3.2413560">
        <ele>246.8</ele>
        <time>2022-01-16T11:30:52Z</time>
      </trkpt>
      <trkpt lat="43.2398720" lon="-3.2412970">
        <ele>246.8</ele>
        <time>2022-01-16T11:30:53Z</time>
      </trkpt>
      <trkpt lat="43.2398500" lon="-3.2412400">
        <ele>247.0</ele>
        <time>2022-01-16T11:30:54Z</time>
      </trkpt>
      <trkpt lat="43.2398320" lon="-3.2411770">
        <ele>247.2</ele>
        <time>2022-01-16T11:30:55Z</time>
      </trkpt>
      <trkpt lat="43.2398140" lon="-3.2411100">
        <ele>247.2</ele>
        <time>2022-01-16T11:30:56Z</time>
      </trkpt>
      <trkpt lat="43.2397990" lon="-3.2410430">
        <ele>247.2</ele>
        <time>2022-01-16T11:30:57Z</time>
      </trkpt>
      <trkpt lat="43.2397820" lon="-3.2409770">
        <ele>247.6</ele>
        <time>2022-01-16T11:30:58Z</time>
      </trkpt>
      <trkpt lat="43.2397700" lon="-3.2409080">
        <ele>247.8</ele>
        <time>2022-01-16T11:30:59Z</time>
      </trkpt>
      <trkpt lat="43.2397610" lon="-3.2408410">
        <ele>247.8</ele>
        <time>2022-01-16T11:31:00Z</time>
      </trkpt>
      <trkpt lat="43.2397530" lon="-3.2407750">
        <ele>248.0</ele>
        <time>2022-01-16T11:31:01Z</time>
      </trkpt>
      <trkpt lat="43.2397530" lon="-3.2407060">
        <ele>248.0</ele>
        <time>2022-01-16T11:31:02Z</time>
      </trkpt>
      <trkpt lat="43.2397570" lon="-3.2406320">
        <ele>248.2</ele>
        <time>2022-01-16T11:31:03Z</time>
      </trkpt>
      <trkpt lat="43.2397580" lon="-3.2405550">
        <ele>248.4</ele>
        <time>2022-01-16T11:31:04Z</time>
      </trkpt>
      <trkpt lat="43.2397600" lon="-3.2404770">
        <ele>248.8</ele>
        <time>2022-01-16T11:31:05Z</time>
      </trkpt>
      <trkpt lat="43.2397680" lon="-3.2404030">
        <ele>249.0</ele>
        <time>2022-01-16T11:31:06Z</time>
      </trkpt>
      <trkpt lat="43.2397740" lon="-3.2403380">
        <ele>249.2</ele>
        <time>2022-01-16T11:31:07Z</time>
      </trkpt>
      <trkpt lat="43.2397880" lon="-3.2402780">
        <ele>249.4</ele>
        <time>2022-01-16T11:31:08Z</time>
      </trkpt>
      <trkpt lat="43.2398050" lon="-3.2402200">
        <ele>249.4</ele>
        <time>2022-01-16T11:31:09Z</time>
      </trkpt>
      <trkpt lat="43.2398260" lon="-3.2401700">
        <ele>249.4</ele>
        <time>2022-01-16T11:31:10Z</time>
      </trkpt>
      <trkpt lat="43.2398400" lon="-3.2401140">
        <ele>249.6</ele>
        <time>2022-01-16T11:31:11Z</time>
      </trkpt>
      <trkpt lat="43.2398610" lon="-3.2400600">
        <ele>249.8</ele>
        <time>2022-01-16T11:31:12Z</time>
      </trkpt>
      <trkpt lat="43.2398810" lon="-3.2400030">
        <ele>250.2</ele>
        <time>2022-01-16T11:31:13Z</time>
      </trkpt>
      <trkpt lat="43.2398920" lon="-3.2399430">
        <ele>250.6</ele>
        <time>2022-01-16T11:31:14Z</time>
      </trkpt>
      <trkpt lat="43.2398990" lon="-3.2398820">
        <ele>250.8</ele>
        <time>2022-01-16T11:31:15Z</time>
      </trkpt>
      <trkpt lat="43.2399120" lon="-3.2398200">
        <ele>251.0</ele>
        <time>2022-01-16T11:31:16Z</time>
      </trkpt>
      <trkpt lat="43.2399270" lon="-3.2397560">
        <ele>251.4</ele>
        <time>2022-01-16T11:31:17Z</time>
      </trkpt>
      <trkpt lat="43.2399420" lon="-3.2396920">
        <ele>251.6</ele>
        <time>2022-01-16T11:31:18Z</time>
      </trkpt>
      <trkpt lat="43.2399600" lon="-3.2396200">
        <ele>251.8</ele>
        <time>2022-01-16T11:31:19Z</time>
      </trkpt>
      <trkpt lat="43.2399750" lon="-3.2395520">
        <ele>251.8</ele>
        <time>2022-01-16T11:31:20Z</time>
      </trkpt>
      <trkpt lat="43.2399920" lon="-3.2394830">
        <ele>252.0</ele>
        <time>2022-01-16T11:31:21Z</time>
      </trkpt>
      <trkpt lat="43.2400100" lon="-3.2394150">
        <ele>252.4</ele>
        <time>2022-01-16T11:31:22Z</time>
      </trkpt>
      <trkpt lat="43.2400370" lon="-3.2393340">
        <ele>252.6</ele>
        <time>2022-01-16T11:31:23Z</time>
      </trkpt>
      <trkpt lat="43.2400630" lon="-3.2392510">
        <ele>252.8</ele>
        <time>2022-01-16T11:31:24Z</time>
      </trkpt>
      <trkpt lat="43.2400950" lon="-3.2391710">
        <ele>253.0</ele>
        <time>2022-01-16T11:31:25Z</time>
      </trkpt>
      <trkpt lat="43.2401320" lon="-3.2390900">
        <ele>253.2</ele>
        <time>2022-01-16T11:31:26Z</time>
      </trkpt>
      <trkpt lat="43.2401690" lon="-3.2390100">
        <ele>253.2</ele>
        <time>2022-01-16T11:31:27Z</time>
      </trkpt>
      <trkpt lat="43.2401990" lon="-3.2389270">
        <ele>253.2</ele>
        <time>2022-01-16T11:31:28Z</time>
      </trkpt>
      <trkpt lat="43.2402220" lon="-3.2388470">
        <ele>253.4</ele>
        <time>2022-01-16T11:31:29Z</time>
      </trkpt>
      <trkpt lat="43.2402390" lon="-3.2387670">
        <ele>253.4</ele>
        <time>2022-01-16T11:31:30Z</time>
      </trkpt>
      <trkpt lat="43.2402540" lon="-3.2386870">
        <ele>253.6</ele>
        <time>2022-01-16T11:31:31Z</time>
      </trkpt>
      <trkpt lat="43.2402680" lon="-3.2386060">
        <ele>253.8</ele>
        <time>2022-01-16T11:31:32Z</time>
      </trkpt>
      <trkpt lat="43.2402820" lon="-3.2385260">
        <ele>253.8</ele>
        <time>2022-01-16T11:31:33Z</time>
      </trkpt>
      <trkpt lat="43.2402940" lon="-3.2384440">
        <ele>253.8</ele>
        <time>2022-01-16T11:31:34Z</time>
      </trkpt>
      <trkpt lat="43.2403090" lon="-3.2383620">
        <ele>253.8</ele>
        <time>2022-01-16T11:31:35Z</time>
      </trkpt>
      <trkpt lat="43.2403270" lon="-3.2382830">
        <ele>253.8</ele>
        <time>2022-01-16T11:31:36Z</time>
      </trkpt>
      <trkpt lat="43.2403570" lon="-3.2382090">
        <ele>253.8</ele>
        <time>2022-01-16T11:31:37Z</time>
      </trkpt>
      <trkpt lat="43.2403990" lon="-3.2381480">
        <ele>253.8</ele>
        <time>2022-01-16T11:31:38Z</time>
      </trkpt>
      <trkpt lat="43.2404470" lon="-3.2381020">
        <ele>253.8</ele>
        <time>2022-01-16T11:31:39Z</time>
      </trkpt>
      <trkpt lat="43.2404940" lon="-3.2380700">
        <ele>254.0</ele>
        <time>2022-01-16T11:31:40Z</time>
      </trkpt>
      <trkpt lat="43.2405480" lon="-3.2380560">
        <ele>254.2</ele>
        <time>2022-01-16T11:31:41Z</time>
      </trkpt>
      <trkpt lat="43.2406060" lon="-3.2380610">
        <ele>254.4</ele>
        <time>2022-01-16T11:31:42Z</time>
      </trkpt>
      <trkpt lat="43.2406610" lon="-3.2380740">
        <ele>254.6</ele>
        <time>2022-01-16T11:31:43Z</time>
      </trkpt>
      <trkpt lat="43.2407210" lon="-3.2380900">
        <ele>254.6</ele>
        <time>2022-01-16T11:31:44Z</time>
      </trkpt>
      <trkpt lat="43.2407780" lon="-3.2381090">
        <ele>254.8</ele>
        <time>2022-01-16T11:31:45Z</time>
      </trkpt>
      <trkpt lat="43.2408400" lon="-3.2381190">
        <ele>255.0</ele>
        <time>2022-01-16T11:31:46Z</time>
      </trkpt>
      <trkpt lat="43.2408970" lon="-3.2381310">
        <ele>255.2</ele>
        <time>2022-01-16T11:31:47Z</time>
      </trkpt>
      <trkpt lat="43.2409520" lon="-3.2381420">
        <ele>255.6</ele>
        <time>2022-01-16T11:31:48Z</time>
      </trkpt>
      <trkpt lat="43.2410090" lon="-3.2381540">
        <ele>255.6</ele>
        <time>2022-01-16T11:31:49Z</time>
      </trkpt>
      <trkpt lat="43.2410600" lon="-3.2381640">
        <ele>256.0</ele>
        <time>2022-01-16T11:31:50Z</time>
      </trkpt>
      <trkpt lat="43.2411120" lon="-3.2381720">
        <ele>256.2</ele>
        <time>2022-01-16T11:31:51Z</time>
      </trkpt>
      <trkpt lat="43.2411580" lon="-3.2381780">
        <ele>256.6</ele>
        <time>2022-01-16T11:31:52Z</time>
      </trkpt>
      <trkpt lat="43.2412030" lon="-3.2381850">
        <ele>256.8</ele>
        <time>2022-01-16T11:31:53Z</time>
      </trkpt>
      <trkpt lat="43.2412500" lon="-3.2381910">
        <ele>257.0</ele>
        <time>2022-01-16T11:31:54Z</time>
      </trkpt>
      <trkpt lat="43.2413000" lon="-3.2381960">
        <ele>257.4</ele>
        <time>2022-01-16T11:31:55Z</time>
      </trkpt>
      <trkpt lat="43.2413510" lon="-3.2381980">
        <ele>257.6</ele>
        <time>2022-01-16T11:31:56Z</time>
      </trkpt>
      <trkpt lat="43.2414020" lon="-3.2382000">
        <ele>258.0</ele>
        <time>2022-01-16T11:31:57Z</time>
      </trkpt>
      <trkpt lat="43.2414520" lon="-3.2382060">
        <ele>258.2</ele>
        <time>2022-01-16T11:31:58Z</time>
      </trkpt>
      <trkpt lat="43.2415050" lon="-3.2382010">
        <ele>258.4</ele>
        <time>2022-01-16T11:31:59Z</time>
      </trkpt>
      <trkpt lat="43.2415590" lon="-3.2382020">
        <ele>258.6</ele>
        <time>2022-01-16T11:32:00Z</time>
      </trkpt>
      <trkpt lat="43.2416160" lon="-3.2382050">
        <ele>259.0</ele>
        <time>2022-01-16T11:32:01Z</time>
      </trkpt>
      <trkpt lat="43.2416730" lon="-3.2382080">
        <ele>259.2</ele>
        <time>2022-01-16T11:32:02Z</time>
      </trkpt>
      <trkpt lat="43.2417290" lon="-3.2382110">
        <ele>259.4</ele>
        <time>2022-01-16T11:32:03Z</time>
      </trkpt>
      <trkpt lat="43.2417860" lon="-3.2382110">
        <ele>259.8</ele>
        <time>2022-01-16T11:32:04Z</time>
      </trkpt>
      <trkpt lat="43.2418410" lon="-3.2382190">
        <ele>260.2</ele>
        <time>2022-01-16T11:32:05Z</time>
      </trkpt>
      <trkpt lat="43.2418990" lon="-3.2382220">
        <ele>260.2</ele>
        <time>2022-01-16T11:32:06Z</time>
      </trkpt>
      <trkpt lat="43.2419540" lon="-3.2382270">
        <ele>260.4</ele>
        <time>2022-01-16T11:32:07Z</time>
      </trkpt>
      <trkpt lat="43.2420090" lon="-3.2382350">
        <ele>260.6</ele>
        <time>2022-01-16T11:32:08Z</time>
      </trkpt>
      <trkpt lat="43.2420660" lon="-3.2382480">
        <ele>260.8</ele>
        <time>2022-01-16T11:32:09Z</time>
      </trkpt>
      <trkpt lat="43.2421180" lon="-3.2382650">
        <ele>260.8</ele>
        <time>2022-01-16T11:32:10Z</time>
      </trkpt>
      <trkpt lat="43.2421740" lon="-3.2382830">
        <ele>261.0</ele>
        <time>2022-01-16T11:32:11Z</time>
      </trkpt>
      <trkpt lat="43.2422290" lon="-3.2383010">
        <ele>261.2</ele>
        <time>2022-01-16T11:32:12Z</time>
      </trkpt>
      <trkpt lat="43.2422840" lon="-3.2383180">
        <ele>261.4</ele>
        <time>2022-01-16T11:32:13Z</time>
      </trkpt>
      <trkpt lat="43.2423410" lon="-3.2383350">
        <ele>261.6</ele>
        <time>2022-01-16T11:32:14Z</time>
      </trkpt>
      <trkpt lat="43.2423980" lon="-3.2383520">
        <ele>261.8</ele>
        <time>2022-01-16T11:32:15Z</time>
      </trkpt>
      <trkpt lat="43.2424580" lon="-3.2383710">
        <ele>262.0</ele>
        <time>2022-01-16T11:32:16Z</time>
      </trkpt>
      <trkpt lat="43.2425170" lon="-3.2383910">
        <ele>262.2</ele>
        <time>2022-01-16T11:32:17Z</time>
      </trkpt>
      <trkpt lat="43.2425770" lon="-3.2384090">
        <ele>262.2</ele>
        <time>2022-01-16T11:32:18Z</time>
      </trkpt>
      <trkpt lat="43.2426370" lon="-3.2384260">
        <ele>262.2</ele>
        <time>2022-01-16T11:32:19Z</time>
      </trkpt>
      <trkpt lat="43.2426980" lon="-3.2384430">
        <ele>262.2</ele>
        <time>2022-01-16T11:32:20Z</time>
      </trkpt>
      <trkpt lat="43.2427590" lon="-3.2384620">
        <ele>262.2</ele>
        <time>2022-01-16T11:32:21Z</time>
      </trkpt>
      <trkpt lat="43.2428200" lon="-3.2384810">
        <ele>262.2</ele>
        <time>2022-01-16T11:32:22Z</time>
      </trkpt>
      <trkpt lat="43.2428810" lon="-3.2384990">
        <ele>262.4</ele>
        <time>2022-01-16T11:32:23Z</time>
      </trkpt>
      <trkpt lat="43.2429410" lon="-3.2385160">
        <ele>262.6</ele>
        <time>2022-01-16T11:32:24Z</time>
      </trkpt>
      <trkpt lat="43.2430020" lon="-3.2385320">
        <ele>262.8</ele>
        <time>2022-01-16T11:32:25Z</time>
      </trkpt>
      <trkpt lat="43.2430630" lon="-3.2385490">
        <ele>263.0</ele>
        <time>2022-01-16T11:32:26Z</time>
      </trkpt>
      <trkpt lat="43.2431250" lon="-3.2385660">
        <ele>263.4</ele>
        <time>2022-01-16T11:32:27Z</time>
      </trkpt>
      <trkpt lat="43.2431880" lon="-3.2385770">
        <ele>263.6</ele>
        <time>2022-01-16T11:32:28Z</time>
      </trkpt>
      <trkpt lat="43.2432500" lon="-3.2385820">
        <ele>263.8</ele>
        <time>2022-01-16T11:32:29Z</time>
      </trkpt>
      <trkpt lat="43.2433110" lon="-3.2385730">
        <ele>263.8</ele>
        <time>2022-01-16T11:32:30Z</time>
      </trkpt>
      <trkpt lat="43.2433670" lon="-3.2385520">
        <ele>263.8</ele>
        <time>2022-01-16T11:32:31Z</time>
      </trkpt>
      <trkpt lat="43.2434190" lon="-3.2385180">
        <ele>264.0</ele>
        <time>2022-01-16T11:32:32Z</time>
      </trkpt>
      <trkpt lat="43.2434710" lon="-3.2384750">
        <ele>264.0</ele>
        <time>2022-01-16T11:32:33Z</time>
      </trkpt>
      <trkpt lat="43.2435200" lon="-3.2384240">
        <ele>264.2</ele>
        <time>2022-01-16T11:32:34Z</time>
      </trkpt>
      <trkpt lat="43.2435660" lon="-3.2383700">
        <ele>264.4</ele>
        <time>2022-01-16T11:32:35Z</time>
      </trkpt>
      <trkpt lat="43.2436100" lon="-3.2383120">
        <ele>264.8</ele>
        <time>2022-01-16T11:32:36Z</time>
      </trkpt>
      <trkpt lat="43.2436480" lon="-3.2382500">
        <ele>265.0</ele>
        <time>2022-01-16T11:32:37Z</time>
      </trkpt>
      <trkpt lat="43.2436810" lon="-3.2381850">
        <ele>265.2</ele>
        <time>2022-01-16T11:32:38Z</time>
      </trkpt>
      <trkpt lat="43.2437100" lon="-3.2381160">
        <ele>265.2</ele>
        <time>2022-01-16T11:32:39Z</time>
      </trkpt>
      <trkpt lat="43.2437390" lon="-3.2380420">
        <ele>265.2</ele>
        <time>2022-01-16T11:32:40Z</time>
      </trkpt>
      <trkpt lat="43.2437660" lon="-3.2379640">
        <ele>265.2</ele>
        <time>2022-01-16T11:32:41Z</time>
      </trkpt>
      <trkpt lat="43.2437890" lon="-3.2378810">
        <ele>265.2</ele>
        <time>2022-01-16T11:32:42Z</time>
      </trkpt>
      <trkpt lat="43.2438110" lon="-3.2377940">
        <ele>264.8</ele>
        <time>2022-01-16T11:32:43Z</time>
      </trkpt>
      <trkpt lat="43.2438320" lon="-3.2377060">
        <ele>264.6</ele>
        <time>2022-01-16T11:32:44Z</time>
      </trkpt>
      <trkpt lat="43.2438500" lon="-3.2376150">
        <ele>264.4</ele>
        <time>2022-01-16T11:32:45Z</time>
      </trkpt>
      <trkpt lat="43.2438660" lon="-3.2375230">
        <ele>264.2</ele>
        <time>2022-01-16T11:32:46Z</time>
      </trkpt>
      <trkpt lat="43.2438870" lon="-3.2374280">
        <ele>263.8</ele>
        <time>2022-01-16T11:32:47Z</time>
      </trkpt>
      <trkpt lat="43.2439060" lon="-3.2373330">
        <ele>263.4</ele>
        <time>2022-01-16T11:32:48Z</time>
      </trkpt>
      <trkpt lat="43.2439250" lon="-3.2372350">
        <ele>263.2</ele>
        <time>2022-01-16T11:32:49Z</time>
      </trkpt>
      <trkpt lat="43.2439440" lon="-3.2371340">
        <ele>263.2</ele>
        <time>2022-01-16T11:32:50Z</time>
      </trkpt>
      <trkpt lat="43.2439630" lon="-3.2370320">
        <ele>262.8</ele>
        <time>2022-01-16T11:32:51Z</time>
      </trkpt>
      <trkpt lat="43.2439840" lon="-3.2369280">
        <ele>262.6</ele>
        <time>2022-01-16T11:32:52Z</time>
      </trkpt>
      <trkpt lat="43.2440080" lon="-3.2368240">
        <ele>262.2</ele>
        <time>2022-01-16T11:32:53Z</time>
      </trkpt>
      <trkpt lat="43.2440310" lon="-3.2367180">
        <ele>261.8</ele>
        <time>2022-01-16T11:32:54Z</time>
      </trkpt>
      <trkpt lat="43.2440530" lon="-3.2366100">
        <ele>261.4</ele>
        <time>2022-01-16T11:32:55Z</time>
      </trkpt>
      <trkpt lat="43.2440750" lon="-3.2365000">
        <ele>261.2</ele>
        <time>2022-01-16T11:32:56Z</time>
      </trkpt>
      <trkpt lat="43.2440980" lon="-3.2363880">
        <ele>260.8</ele>
        <time>2022-01-16T11:32:57Z</time>
      </trkpt>
      <trkpt lat="43.2441220" lon="-3.2362740">
        <ele>260.6</ele>
        <time>2022-01-16T11:32:58Z</time>
      </trkpt>
      <trkpt lat="43.2441460" lon="-3.2361580">
        <ele>260.6</ele>
        <time>2022-01-16T11:32:59Z</time>
      </trkpt>
      <trkpt lat="43.2441720" lon="-3.2360420">
        <ele>260.2</ele>
        <time>2022-01-16T11:33:00Z</time>
      </trkpt>
      <trkpt lat="43.2442000" lon="-3.2359270">
        <ele>260.0</ele>
        <time>2022-01-16T11:33:01Z</time>
      </trkpt>
      <trkpt lat="43.2442310" lon="-3.2358120">
        <ele>259.8</ele>
        <time>2022-01-16T11:33:02Z</time>
      </trkpt>
      <trkpt lat="43.2442590" lon="-3.2356990">
        <ele>259.6</ele>
        <time>2022-01-16T11:33:03Z</time>
      </trkpt>
      <trkpt lat="43.2442850" lon="-3.2355870">
        <ele>259.2</ele>
        <time>2022-01-16T11:33:04Z</time>
      </trkpt>
      <trkpt lat="43.2443050" lon="-3.2354730">
        <ele>258.8</ele>
        <time>2022-01-16T11:33:05Z</time>
      </trkpt>
      <trkpt lat="43.2443100" lon="-3.2353560">
        <ele>258.4</ele>
        <time>2022-01-16T11:33:06Z</time>
      </trkpt>
      <trkpt lat="43.2442880" lon="-3.2352420">
        <ele>258.0</ele>
        <time>2022-01-16T11:33:07Z</time>
      </trkpt>
      <trkpt lat="43.2442440" lon="-3.2351350">
        <ele>257.6</ele>
        <time>2022-01-16T11:33:08Z</time>
      </trkpt>
      <trkpt lat="43.2441890" lon="-3.2350350">
        <ele>257.2</ele>
        <time>2022-01-16T11:33:09Z</time>
      </trkpt>
      <trkpt lat="43.2441220" lon="-3.2349460">
        <ele>256.8</ele>
        <time>2022-01-16T11:33:10Z</time>
      </trkpt>
      <trkpt lat="43.2440460" lon="-3.2348710">
        <ele>256.6</ele>
        <time>2022-01-16T11:33:11Z</time>
      </trkpt>
      <trkpt lat="43.2439580" lon="-3.2348170">
        <ele>255.8</ele>
        <time>2022-01-16T11:33:12Z</time>
      </trkpt>
      <trkpt lat="43.2438620" lon="-3.2347860">
        <ele>255.2</ele>
        <time>2022-01-16T11:33:13Z</time>
      </trkpt>
      <trkpt lat="43.2437660" lon="-3.2347640">
        <ele>254.6</ele>
        <time>2022-01-16T11:33:14Z</time>
      </trkpt>
      <trkpt lat="43.2436680" lon="-3.2347420">
        <ele>254.2</ele>
        <time>2022-01-16T11:33:15Z</time>
      </trkpt>
      <trkpt lat="43.2435700" lon="-3.2347220">
        <ele>253.8</ele>
        <time>2022-01-16T11:33:16Z</time>
      </trkpt>
      <trkpt lat="43.2434700" lon="-3.2347050">
        <ele>253.0</ele>
        <time>2022-01-16T11:33:17Z</time>
      </trkpt>
      <trkpt lat="43.2433690" lon="-3.2346870">
        <ele>252.6</ele>
        <time>2022-01-16T11:33:18Z</time>
      </trkpt>
      <trkpt lat="43.2432700" lon="-3.2346680">
        <ele>252.2</ele>
        <time>2022-01-16T11:33:19Z</time>
      </trkpt>
      <trkpt lat="43.2431760" lon="-3.2346440">
        <ele>251.6</ele>
        <time>2022-01-16T11:33:20Z</time>
      </trkpt>
      <trkpt lat="43.2430830" lon="-3.2346150">
        <ele>251.0</ele>
        <time>2022-01-16T11:33:21Z</time>
      </trkpt>
      <trkpt lat="43.2429970" lon="-3.2345890">
        <ele>250.6</ele>
        <time>2022-01-16T11:33:22Z</time>
      </trkpt>
      <trkpt lat="43.2429160" lon="-3.2345530">
        <ele>250.0</ele>
        <time>2022-01-16T11:33:23Z</time>
      </trkpt>
      <trkpt lat="43.2428400" lon="-3.2345080">
        <ele>249.6</ele>
        <time>2022-01-16T11:33:24Z</time>
      </trkpt>
      <trkpt lat="43.2427750" lon="-3.2344380">
        <ele>249.2</ele>
        <time>2022-01-16T11:33:25Z</time>
      </trkpt>
      <trkpt lat="43.2427200" lon="-3.2343510">
        <ele>248.8</ele>
        <time>2022-01-16T11:33:26Z</time>
      </trkpt>
      <trkpt lat="43.2426820" lon="-3.2342550">
        <ele>248.6</ele>
        <time>2022-01-16T11:33:27Z</time>
      </trkpt>
      <trkpt lat="43.2426700" lon="-3.2341620">
        <ele>248.2</ele>
        <time>2022-01-16T11:33:28Z</time>
      </trkpt>
      <trkpt lat="43.2427230" lon="-3.2340610">
        <ele>248.0</ele>
        <time>2022-01-16T11:33:29Z</time>
      </trkpt>
      <trkpt lat="43.2427870" lon="-3.2339550">
        <ele>247.8</ele>
        <time>2022-01-16T11:33:30Z</time>
      </trkpt>
      <trkpt lat="43.2428430" lon="-3.2338490">
        <ele>247.4</ele>
        <time>2022-01-16T11:33:31Z</time>
      </trkpt>
      <trkpt lat="43.2428970" lon="-3.2337320">
        <ele>247.2</ele>
        <time>2022-01-16T11:33:32Z</time>
      </trkpt>
      <trkpt lat="43.2429460" lon="-3.2336150">
        <ele>246.8</ele>
        <time>2022-01-16T11:33:33Z</time>
      </trkpt>
      <trkpt lat="43.2429960" lon="-3.2335010">
        <ele>246.4</ele>
        <time>2022-01-16T11:33:34Z</time>
      </trkpt>
      <trkpt lat="43.2430420" lon="-3.2333910">
        <ele>246.2</ele>
        <time>2022-01-16T11:33:35Z</time>
      </trkpt>
      <trkpt lat="43.2430780" lon="-3.2332770">
        <ele>245.8</ele>
        <time>2022-01-16T11:33:36Z</time>
      </trkpt>
      <trkpt lat="43.2431020" lon="-3.2331560">
        <ele>245.6</ele>
        <time>2022-01-16T11:33:37Z</time>
      </trkpt>
      <trkpt lat="43.2431110" lon="-3.2330270">
        <ele>245.2</ele>
        <time>2022-01-16T11:33:38Z</time>
      </trkpt>
      <trkpt lat="43.2431090" lon="-3.2328940">
        <ele>244.8</ele>
        <time>2022-01-16T11:33:39Z</time>
      </trkpt>
      <trkpt lat="43.2430920" lon="-3.2327650">
        <ele>244.4</ele>
        <time>2022-01-16T11:33:40Z</time>
      </trkpt>
      <trkpt lat="43.2430610" lon="-3.2326440">
        <ele>244.0</ele>
        <time>2022-01-16T11:33:41Z</time>
      </trkpt>
      <trkpt lat="43.2430260" lon="-3.2325250">
        <ele>243.6</ele>
        <time>2022-01-16T11:33:42Z</time>
      </trkpt>
      <trkpt lat="43.2429850" lon="-3.2324050">
        <ele>243.2</ele>
        <time>2022-01-16T11:33:43Z</time>
      </trkpt>
      <trkpt lat="43.2429410" lon="-3.2322930">
        <ele>242.8</ele>
        <time>2022-01-16T11:33:44Z</time>
      </trkpt>
      <trkpt lat="43.2428930" lon="-3.2321840">
        <ele>242.6</ele>
        <time>2022-01-16T11:33:45Z</time>
      </trkpt>
      <trkpt lat="43.2428320" lon="-3.2320850">
        <ele>242.2</ele>
        <time>2022-01-16T11:33:46Z</time>
      </trkpt>
      <trkpt lat="43.2427610" lon="-3.2319970">
        <ele>241.8</ele>
        <time>2022-01-16T11:33:47Z</time>
      </trkpt>
      <trkpt lat="43.2426780" lon="-3.2319250">
        <ele>241.2</ele>
        <time>2022-01-16T11:33:48Z</time>
      </trkpt>
      <trkpt lat="43.2425860" lon="-3.2318720">
        <ele>241.0</ele>
        <time>2022-01-16T11:33:49Z</time>
      </trkpt>
      <trkpt lat="43.2424910" lon="-3.2318350">
        <ele>240.4</ele>
        <time>2022-01-16T11:33:50Z</time>
      </trkpt>
      <trkpt lat="43.2423940" lon="-3.2318120">
        <ele>239.8</ele>
        <time>2022-01-16T11:33:51Z</time>
      </trkpt>
      <trkpt lat="43.2422990" lon="-3.2318040">
        <ele>239.4</ele>
        <time>2022-01-16T11:33:52Z</time>
      </trkpt>
      <trkpt lat="43.2422010" lon="-3.2318030">
        <ele>239.2</ele>
        <time>2022-01-16T11:33:53Z</time>
      </trkpt>
      <trkpt lat="43.2421050" lon="-3.2318040">
        <ele>238.6</ele>
        <time>2022-01-16T11:33:54Z</time>
      </trkpt>
      <trkpt lat="43.2420090" lon="-3.2318100">
        <ele>238.2</ele>
        <time>2022-01-16T11:33:55Z</time>
      </trkpt>
      <trkpt lat="43.2419180" lon="-3.2318260">
        <ele>237.6</ele>
        <time>2022-01-16T11:33:56Z</time>
      </trkpt>
      <trkpt lat="43.2418380" lon="-3.2318310">
        <ele>237.2</ele>
        <time>2022-01-16T11:33:57Z</time>
      </trkpt>
      <trkpt lat="43.2417640" lon="-3.2318110">
        <ele>236.6</ele>
        <time>2022-01-16T11:33:58Z</time>
      </trkpt>
      <trkpt lat="43.2417020" lon="-3.2317640">
        <ele>236.4</ele>
        <time>2022-01-16T11:33:59Z</time>
      </trkpt>
      <trkpt lat="43.2416530" lon="-3.2316950">
        <ele>236.0</ele>
        <time>2022-01-16T11:34:00Z</time>
      </trkpt>
      <trkpt lat="43.2416250" lon="-3.2316120">
        <ele>235.6</ele>
        <time>2022-01-16T11:34:01Z</time>
      </trkpt>
      <trkpt lat="43.2416170" lon="-3.2315230">
        <ele>235.2</ele>
        <time>2022-01-16T11:34:02Z</time>
      </trkpt>
      <trkpt lat="43.2416250" lon="-3.2314390">
        <ele>235.0</ele>
        <time>2022-01-16T11:34:03Z</time>
      </trkpt>
      <trkpt lat="43.2416500" lon="-3.2313560">
        <ele>234.8</ele>
        <time>2022-01-16T11:34:04Z</time>
      </trkpt>
      <trkpt lat="43.2416870" lon="-3.2312710">
        <ele>234.6</ele>
        <time>2022-01-16T11:34:05Z</time>
      </trkpt>
      <trkpt lat="43.2417300" lon="-3.2311840">
        <ele>234.6</ele>
        <time>2022-01-16T11:34:06Z</time>
      </trkpt>
      <trkpt lat="43.2417790" lon="-3.2310980">
        <ele>234.6</ele>
        <time>2022-01-16T11:34:07Z</time>
      </trkpt>
      <trkpt lat="43.2418340" lon="-3.2310120">
        <ele>234.4</ele>
        <time>2022-01-16T11:34:08Z</time>
      </trkpt>
      <trkpt lat="43.2418820" lon="-3.2309160">
        <ele>234.2</ele>
        <time>2022-01-16T11:34:09Z</time>
      </trkpt>
      <trkpt lat="43.2419320" lon="-3.2308190">
        <ele>233.6</ele>
        <time>2022-01-16T11:34:10Z</time>
      </trkpt>
      <trkpt lat="43.2419840" lon="-3.2307230">
        <ele>233.4</ele>
        <time>2022-01-16T11:34:11Z</time>
      </trkpt>
      <trkpt lat="43.2420360" lon="-3.2306270">
        <ele>232.8</ele>
        <time>2022-01-16T11:34:12Z</time>
      </trkpt>
      <trkpt lat="43.2420810" lon="-3.2305260">
        <ele>232.4</ele>
        <time>2022-01-16T11:34:13Z</time>
      </trkpt>
      <trkpt lat="43.2421230" lon="-3.2304200">
        <ele>232.2</ele>
        <time>2022-01-16T11:34:14Z</time>
      </trkpt>
      <trkpt lat="43.2421520" lon="-3.2303060">
        <ele>232.0</ele>
        <time>2022-01-16T11:34:15Z</time>
      </trkpt>
      <trkpt lat="43.2421660" lon="-3.2301860">
        <ele>231.8</ele>
        <time>2022-01-16T11:34:16Z</time>
      </trkpt>
      <trkpt lat="43.2421670" lon="-3.2300650">
        <ele>231.6</ele>
        <time>2022-01-16T11:34:17Z</time>
      </trkpt>
      <trkpt lat="43.2421560" lon="-3.2299480">
        <ele>231.4</ele>
        <time>2022-01-16T11:34:18Z</time>
      </trkpt>
      <trkpt lat="43.2421390" lon="-3.2298290">
        <ele>231.0</ele>
        <time>2022-01-16T11:34:19Z</time>
      </trkpt>
      <trkpt lat="43.2421100" lon="-3.2297160">
        <ele>230.6</ele>
        <time>2022-01-16T11:34:20Z</time>
      </trkpt>
      <trkpt lat="43.2420800" lon="-3.2296000">
        <ele>230.6</ele>
        <time>2022-01-16T11:34:21Z</time>
      </trkpt>
      <trkpt lat="43.2420520" lon="-3.2294830">
        <ele>230.4</ele>
        <time>2022-01-16T11:34:22Z</time>
      </trkpt>
      <trkpt lat="43.2420270" lon="-3.2293640">
        <ele>230.4</ele>
        <time>2022-01-16T11:34:23Z</time>
      </trkpt>
      <trkpt lat="43.2420050" lon="-3.2292460">
        <ele>230.2</ele>
        <time>2022-01-16T11:34:24Z</time>
      </trkpt>
      <trkpt lat="43.2419740" lon="-3.2291300">
        <ele>230.0</ele>
        <time>2022-01-16T11:34:25Z</time>
      </trkpt>
      <trkpt lat="43.2419340" lon="-3.2290240">
        <ele>229.2</ele>
        <time>2022-01-16T11:34:26Z</time>
      </trkpt>
      <trkpt lat="43.2418740" lon="-3.2289450">
        <ele>228.4</ele>
        <time>2022-01-16T11:34:27Z</time>
      </trkpt>
      <trkpt lat="43.2418030" lon="-3.2288920">
        <ele>227.6</ele>
        <time>2022-01-16T11:34:28Z</time>
      </trkpt>
      <trkpt lat="43.2417240" lon="-3.2288670">
        <ele>226.8</ele>
        <time>2022-01-16T11:34:29Z</time>
      </trkpt>
      <trkpt lat="43.2416400" lon="-3.2288700">
        <ele>226.4</ele>
        <time>2022-01-16T11:34:30Z</time>
      </trkpt>
      <trkpt lat="43.2415560" lon="-3.2288990">
        <ele>226.0</ele>
        <time>2022-01-16T11:34:31Z</time>
      </trkpt>
      <trkpt lat="43.2414700" lon="-3.2289430">
        <ele>225.4</ele>
        <time>2022-01-16T11:34:32Z</time>
      </trkpt>
      <trkpt lat="43.2413810" lon="-3.2289890">
        <ele>225.0</ele>
        <time>2022-01-16T11:34:33Z</time>
      </trkpt>
      <trkpt lat="43.2412930" lon="-3.2290340">
        <ele>224.6</ele>
        <time>2022-01-16T11:34:34Z</time>
      </trkpt>
      <trkpt lat="43.2412010" lon="-3.2290780">
        <ele>224.2</ele>
        <time>2022-01-16T11:34:35Z</time>
      </trkpt>
      <trkpt lat="43.2411070" lon="-3.2291170">
        <ele>223.8</ele>
        <time>2022-01-16T11:34:36Z</time>
      </trkpt>
      <trkpt lat="43.2410130" lon="-3.2291520">
        <ele>223.4</ele>
        <time>2022-01-16T11:34:37Z</time>
      </trkpt>
      <trkpt lat="43.2409140" lon="-3.2291870">
        <ele>223.0</ele>
        <time>2022-01-16T11:34:38Z</time>
      </trkpt>
      <trkpt lat="43.2408150" lon="-3.2292200">
        <ele>222.2</ele>
        <time>2022-01-16T11:34:39Z</time>
      </trkpt>
      <trkpt lat="43.2407130" lon="-3.2292520">
        <ele>221.8</ele>
        <time>2022-01-16T11:34:40Z</time>
      </trkpt>
      <trkpt lat="43.2406110" lon="-3.2292830">
        <ele>221.2</ele>
        <time>2022-01-16T11:34:41Z</time>
      </trkpt>
      <trkpt lat="43.2405120" lon="-3.2293140">
        <ele>220.6</ele>
        <time>2022-01-16T11:34:42Z</time>
      </trkpt>
      <trkpt lat="43.2404200" lon="-3.2293500">
        <ele>220.2</ele>
        <time>2022-01-16T11:34:43Z</time>
      </trkpt>
      <trkpt lat="43.2403300" lon="-3.2293870">
        <ele>219.6</ele>
        <time>2022-01-16T11:34:44Z</time>
      </trkpt>
      <trkpt lat="43.2402380" lon="-3.2294170">
        <ele>218.8</ele>
        <time>2022-01-16T11:34:45Z</time>
      </trkpt>
      <trkpt lat="43.2401530" lon="-3.2294430">
        <ele>218.6</ele>
        <time>2022-01-16T11:34:46Z</time>
      </trkpt>
      <trkpt lat="43.2400780" lon="-3.2294650">
        <ele>218.4</ele>
        <time>2022-01-16T11:34:47Z</time>
      </trkpt>
      <trkpt lat="43.2400070" lon="-3.2294760">
        <ele>218.2</ele>
        <time>2022-01-16T11:34:48Z</time>
      </trkpt>
      <trkpt lat="43.2399400" lon="-3.2294790">
        <ele>217.8</ele>
        <time>2022-01-16T11:34:49Z</time>
      </trkpt>
      <trkpt lat="43.2398770" lon="-3.2294630">
        <ele>217.4</ele>
        <time>2022-01-16T11:34:50Z</time>
      </trkpt>
      <trkpt lat="43.2398340" lon="-3.2294130">
        <ele>217.2</ele>
        <time>2022-01-16T11:34:51Z</time>
      </trkpt>
      <trkpt lat="43.2398180" lon="-3.2293320">
        <ele>216.8</ele>
        <time>2022-01-16T11:34:52Z</time>
      </trkpt>
      <trkpt lat="43.2398140" lon="-3.2292660">
        <ele>216.8</ele>
        <time>2022-01-16T11:34:53Z</time>
      </trkpt>
      <trkpt lat="43.2398150" lon="-3.2291980">
        <ele>216.4</ele>
        <time>2022-01-16T11:34:54Z</time>
      </trkpt>
      <trkpt lat="43.2398430" lon="-3.2291500">
        <ele>216.4</ele>
        <time>2022-01-16T11:34:55Z</time>
      </trkpt>
      <trkpt lat="43.2398900" lon="-3.2291230">
        <ele>216.4</ele>
        <time>2022-01-16T11:34:56Z</time>
      </trkpt>
      <trkpt lat="43.2399400" lon="-3.2290880">
        <ele>216.6</ele>
        <time>2022-01-16T11:34:57Z</time>
      </trkpt>
      <trkpt lat="43.2400010" lon="-3.2290550">
        <ele>216.8</ele>
        <time>2022-01-16T11:34:58Z</time>
      </trkpt>
      <trkpt lat="43.2400660" lon="-3.2290280">
        <ele>217.0</ele>
        <time>2022-01-16T11:34:59Z</time>
      </trkpt>
      <trkpt lat="43.2401370" lon="-3.2289930">
        <ele>217.0</ele>
        <time>2022-01-16T11:35:00Z</time>
      </trkpt>
      <trkpt lat="43.2402030" lon="-3.2289530">
        <ele>217.0</ele>
        <time>2022-01-16T11:35:01Z</time>
      </trkpt>
      <trkpt lat="43.2402630" lon="-3.2289050">
        <ele>217.0</ele>
        <time>2022-01-16T11:35:02Z</time>
      </trkpt>
      <trkpt lat="43.2403210" lon="-3.2288480">
        <ele>217.2</ele>
        <time>2022-01-16T11:35:03Z</time>
      </trkpt>
      <trkpt lat="43.2403710" lon="-3.2287910">
        <ele>217.2</ele>
        <time>2022-01-16T11:35:04Z</time>
      </trkpt>
      <trkpt lat="43.2404220" lon="-3.2287250">
        <ele>217.2</ele>
        <time>2022-01-16T11:35:05Z</time>
      </trkpt>
      <trkpt lat="43.2404760" lon="-3.2286540">
        <ele>217.2</ele>
        <time>2022-01-16T11:35:06Z</time>
      </trkpt>
      <trkpt lat="43.2405290" lon="-3.2285740">
        <ele>217.2</ele>
        <time>2022-01-16T11:35:07Z</time>
      </trkpt>
      <trkpt lat="43.2405800" lon="-3.2284830">
        <ele>217.2</ele>
        <time>2022-01-16T11:35:08Z</time>
      </trkpt>
      <trkpt lat="43.2406310" lon="-3.2283870">
        <ele>217.2</ele>
        <time>2022-01-16T11:35:09Z</time>
      </trkpt>
      <trkpt lat="43.2406830" lon="-3.2282910">
        <ele>217.0</ele>
        <time>2022-01-16T11:35:10Z</time>
      </trkpt>
      <trkpt lat="43.2407390" lon="-3.2281930">
        <ele>216.8</ele>
        <time>2022-01-16T11:35:11Z</time>
      </trkpt>
      <trkpt lat="43.2407920" lon="-3.2280910">
        <ele>216.2</ele>
        <time>2022-01-16T11:35:12Z</time>
      </trkpt>
      <trkpt lat="43.2408500" lon="-3.2279870">
        <ele>215.2</ele>
        <time>2022-01-16T11:35:13Z</time>
      </trkpt>
      <trkpt lat="43.2409080" lon="-3.2278840">
        <ele>214.6</ele>
        <time>2022-01-16T11:35:14Z</time>
      </trkpt>
      <trkpt lat="43.2409700" lon="-3.2277830">
        <ele>214.4</ele>
        <time>2022-01-16T11:35:15Z</time>
      </trkpt>
      <trkpt lat="43.2410310" lon="-3.2276830">
        <ele>214.2</ele>
        <time>2022-01-16T11:35:16Z</time>
      </trkpt>
      <trkpt lat="43.2410970" lon="-3.2275810">
        <ele>214.0</ele>
        <time>2022-01-16T11:35:17Z</time>
      </trkpt>
      <trkpt lat="43.2411620" lon="-3.2274810">
        <ele>213.6</ele>
        <time>2022-01-16T11:35:18Z</time>
      </trkpt>
      <trkpt lat="43.2412160" lon="-3.2273720">
        <ele>213.2</ele>
        <time>2022-01-16T11:35:19Z</time>
      </trkpt>
      <trkpt lat="43.2412630" lon="-3.2272600">
        <ele>213.0</ele>
        <time>2022-01-16T11:35:20Z</time>
      </trkpt>
      <trkpt lat="43.2413110" lon="-3.2271450">
        <ele>212.8</ele>
        <time>2022-01-16T11:35:21Z</time>
      </trkpt>
      <trkpt lat="43.2413500" lon="-3.2270330">
        <ele>212.6</ele>
        <time>2022-01-16T11:35:22Z</time>
      </trkpt>
      <trkpt lat="43.2413820" lon="-3.2269240">
        <ele>212.6</ele>
        <time>2022-01-16T11:35:23Z</time>
      </trkpt>
      <trkpt lat="43.2414090" lon="-3.2268170">
        <ele>212.6</ele>
        <time>2022-01-16T11:35:24Z</time>
      </trkpt>
      <trkpt lat="43.2414260" lon="-3.2267030">
        <ele>212.6</ele>
        <time>2022-01-16T11:35:25Z</time>
      </trkpt>
      <trkpt lat="43.2414290" lon="-3.2265830">
        <ele>212.6</ele>
        <time>2022-01-16T11:35:26Z</time>
      </trkpt>
      <trkpt lat="43.2414330" lon="-3.2264700">
        <ele>212.8</ele>
        <time>2022-01-16T11:35:27Z</time>
      </trkpt>
      <trkpt lat="43.2414280" lon="-3.2263540">
        <ele>212.8</ele>
        <time>2022-01-16T11:35:28Z</time>
      </trkpt>
      <trkpt lat="43.2414170" lon="-3.2262360">
        <ele>212.6</ele>
        <time>2022-01-16T11:35:29Z</time>
      </trkpt>
      <trkpt lat="43.2414020" lon="-3.2261210">
        <ele>212.4</ele>
        <time>2022-01-16T11:35:30Z</time>
      </trkpt>
      <trkpt lat="43.2413880" lon="-3.2260020">
        <ele>212.2</ele>
        <time>2022-01-16T11:35:31Z</time>
      </trkpt>
      <trkpt lat="43.2413750" lon="-3.2258840">
        <ele>212.0</ele>
        <time>2022-01-16T11:35:32Z</time>
      </trkpt>
      <trkpt lat="43.2413630" lon="-3.2257660">
        <ele>211.6</ele>
        <time>2022-01-16T11:35:33Z</time>
      </trkpt>
      <trkpt lat="43.2413710" lon="-3.2256410">
        <ele>211.6</ele>
        <time>2022-01-16T11:35:34Z</time>
      </trkpt>
      <trkpt lat="43.2413740" lon="-3.2255160">
        <ele>211.4</ele>
        <time>2022-01-16T11:35:35Z</time>
      </trkpt>
      <trkpt lat="43.2413860" lon="-3.2253990">
        <ele>211.0</ele>
        <time>2022-01-16T11:35:36Z</time>
      </trkpt>
      <trkpt lat="43.2414040" lon="-3.2252890">
        <ele>210.8</ele>
        <time>2022-01-16T11:35:37Z</time>
      </trkpt>
      <trkpt lat="43.2414290" lon="-3.2251780">
        <ele>210.6</ele>
        <time>2022-01-16T11:35:38Z</time>
      </trkpt>
      <trkpt lat="43.2414570" lon="-3.2250660">
        <ele>210.4</ele>
        <time>2022-01-16T11:35:39Z</time>
      </trkpt>
      <trkpt lat="43.2414910" lon="-3.2249520">
        <ele>210.2</ele>
        <time>2022-01-16T11:35:40Z</time>
      </trkpt>
      <trkpt lat="43.2415250" lon="-3.2248410">
        <ele>210.2</ele>
        <time>2022-01-16T11:35:41Z</time>
      </trkpt>
      <trkpt lat="43.2415620" lon="-3.2247310">
        <ele>210.0</ele>
        <time>2022-01-16T11:35:42Z</time>
      </trkpt>
      <trkpt lat="43.2415940" lon="-3.2246220">
        <ele>210.0</ele>
        <time>2022-01-16T11:35:43Z</time>
      </trkpt>
      <trkpt lat="43.2416100" lon="-3.2245100">
        <ele>210.0</ele>
        <time>2022-01-16T11:35:44Z</time>
      </trkpt>
      <trkpt lat="43.2416060" lon="-3.2243920">
        <ele>209.8</ele>
        <time>2022-01-16T11:35:45Z</time>
      </trkpt>
      <trkpt lat="43.2415890" lon="-3.2242750">
        <ele>209.8</ele>
        <time>2022-01-16T11:35:46Z</time>
      </trkpt>
      <trkpt lat="43.2415590" lon="-3.2241580">
        <ele>209.4</ele>
        <time>2022-01-16T11:35:47Z</time>
      </trkpt>
      <trkpt lat="43.2415220" lon="-3.2240400">
        <ele>209.2</ele>
        <time>2022-01-16T11:35:48Z</time>
      </trkpt>
      <trkpt lat="43.2414870" lon="-3.2239220">
        <ele>209.0</ele>
        <time>2022-01-16T11:35:49Z</time>
      </trkpt>
      <trkpt lat="43.2414530" lon="-3.2238070">
        <ele>208.8</ele>
        <time>2022-01-16T11:35:50Z</time>
      </trkpt>
      <trkpt lat="43.2414230" lon="-3.2236960">
        <ele>208.8</ele>
        <time>2022-01-16T11:35:51Z</time>
      </trkpt>
      <trkpt lat="43.2413890" lon="-3.2235860">
        <ele>208.6</ele>
        <time>2022-01-16T11:35:52Z</time>
      </trkpt>
      <trkpt lat="43.2413450" lon="-3.2234760">
        <ele>208.6</ele>
        <time>2022-01-16T11:35:53Z</time>
      </trkpt>
      <trkpt lat="43.2413030" lon="-3.2233660">
        <ele>208.4</ele>
        <time>2022-01-16T11:35:54Z</time>
      </trkpt>
      <trkpt lat="43.2412520" lon="-3.2232700">
        <ele>208.4</ele>
        <time>2022-01-16T11:35:55Z</time>
      </trkpt>
      <trkpt lat="43.2412030" lon="-3.2231690">
        <ele>208.2</ele>
        <time>2022-01-16T11:35:56Z</time>
      </trkpt>
      <trkpt lat="43.2411520" lon="-3.2230640">
        <ele>207.8</ele>
        <time>2022-01-16T11:35:57Z</time>
      </trkpt>
      <trkpt lat="43.2411050" lon="-3.2229540">
        <ele>207.6</ele>
        <time>2022-01-16T11:35:58Z</time>
      </trkpt>
      <trkpt lat="43.2410670" lon="-3.2228360">
        <ele>207.6</ele>
        <time>2022-01-16T11:35:59Z</time>
      </trkpt>
      <trkpt lat="43.2410350" lon="-3.2227210">
        <ele>207.4</ele>
        <time>2022-01-16T11:36:00Z</time>
      </trkpt>
      <trkpt lat="43.2410110" lon="-3.2226060">
        <ele>207.4</ele>
        <time>2022-01-16T11:36:01Z</time>
      </trkpt>
      <trkpt lat="43.2409870" lon="-3.2224840">
        <ele>207.2</ele>
        <time>2022-01-16T11:36:02Z</time>
      </trkpt>
      <trkpt lat="43.2409670" lon="-3.2223600">
        <ele>207.2</ele>
        <time>2022-01-16T11:36:03Z</time>
      </trkpt>
      <trkpt lat="43.2409480" lon="-3.2222340">
        <ele>207.2</ele>
        <time>2022-01-16T11:36:04Z</time>
      </trkpt>
      <trkpt lat="43.2409300" lon="-3.2221090">
        <ele>207.2</ele>
        <time>2022-01-16T11:36:05Z</time>
      </trkpt>
      <trkpt lat="43.2409040" lon="-3.2219850">
        <ele>207.2</ele>
        <time>2022-01-16T11:36:06Z</time>
      </trkpt>
      <trkpt lat="43.2408780" lon="-3.2218590">
        <ele>207.2</ele>
        <time>2022-01-16T11:36:07Z</time>
      </trkpt>
      <trkpt lat="43.2408510" lon="-3.2217360">
        <ele>207.4</ele>
        <time>2022-01-16T11:36:08Z</time>
      </trkpt>
      <trkpt lat="43.2408270" lon="-3.2216130">
        <ele>207.4</ele>
        <time>2022-01-16T11:36:09Z</time>
      </trkpt>
      <trkpt lat="43.2408160" lon="-3.2214850">
        <ele>207.4</ele>
        <time>2022-01-16T11:36:10Z</time>
      </trkpt>
      <trkpt lat="43.2408130" lon="-3.2213590">
        <ele>207.4</ele>
        <time>2022-01-16T11:36:11Z</time>
      </trkpt>
      <trkpt lat="43.2408100" lon="-3.2212360">
        <ele>207.4</ele>
        <time>2022-01-16T11:36:12Z</time>
      </trkpt>
      <trkpt lat="43.2408040" lon="-3.2211180">
        <ele>207.4</ele>
        <time>2022-01-16T11:36:13Z</time>
      </trkpt>
      <trkpt lat="43.2407940" lon="-3.2210040">
        <ele>207.4</ele>
        <time>2022-01-16T11:36:14Z</time>
      </trkpt>
      <trkpt lat="43.2407740" lon="-3.2208950">
        <ele>207.4</ele>
        <time>2022-01-16T11:36:15Z</time>
      </trkpt>
      <trkpt lat="43.2407430" lon="-3.2207890">
        <ele>207.4</ele>
        <time>2022-01-16T11:36:16Z</time>
      </trkpt>
      <trkpt lat="43.2407040" lon="-3.2206910">
        <ele>207.2</ele>
        <time>2022-01-16T11:36:17Z</time>
      </trkpt>
      <trkpt lat="43.2406600" lon="-3.2205960">
        <ele>207.2</ele>
        <time>2022-01-16T11:36:18Z</time>
      </trkpt>
      <trkpt lat="43.2406130" lon="-3.2204990">
        <ele>207.0</ele>
        <time>2022-01-16T11:36:19Z</time>
      </trkpt>
      <trkpt lat="43.2405620" lon="-3.2204050">
        <ele>206.8</ele>
        <time>2022-01-16T11:36:20Z</time>
      </trkpt>
      <trkpt lat="43.2405100" lon="-3.2203120">
        <ele>206.6</ele>
        <time>2022-01-16T11:36:21Z</time>
      </trkpt>
      <trkpt lat="43.2404590" lon="-3.2202220">
        <ele>206.4</ele>
        <time>2022-01-16T11:36:22Z</time>
      </trkpt>
      <trkpt lat="43.2404120" lon="-3.2201230">
        <ele>206.2</ele>
        <time>2022-01-16T11:36:23Z</time>
      </trkpt>
      <trkpt lat="43.2403690" lon="-3.2200190">
        <ele>206.0</ele>
        <time>2022-01-16T11:36:24Z</time>
      </trkpt>
      <trkpt lat="43.2403310" lon="-3.2199120">
        <ele>206.0</ele>
        <time>2022-01-16T11:36:25Z</time>
      </trkpt>
      <trkpt lat="43.2403030" lon="-3.2198030">
        <ele>205.8</ele>
        <time>2022-01-16T11:36:26Z</time>
      </trkpt>
      <trkpt lat="43.2402810" lon="-3.2196890">
        <ele>205.6</ele>
        <time>2022-01-16T11:36:27Z</time>
      </trkpt>
      <trkpt lat="43.2402610" lon="-3.2195770">
        <ele>205.6</ele>
        <time>2022-01-16T11:36:28Z</time>
      </trkpt>
      <trkpt lat="43.2402420" lon="-3.2194640">
        <ele>205.4</ele>
        <time>2022-01-16T11:36:29Z</time>
      </trkpt>
      <trkpt lat="43.2402260" lon="-3.2193520">
        <ele>205.4</ele>
        <time>2022-01-16T11:36:30Z</time>
      </trkpt>
      <trkpt lat="43.2402100" lon="-3.2192420">
        <ele>205.4</ele>
        <time>2022-01-16T11:36:31Z</time>
      </trkpt>
      <trkpt lat="43.2401920" lon="-3.2191320">
        <ele>205.2</ele>
        <time>2022-01-16T11:36:32Z</time>
      </trkpt>
      <trkpt lat="43.2401690" lon="-3.2190230">
        <ele>205.2</ele>
        <time>2022-01-16T11:36:33Z</time>
      </trkpt>
      <trkpt lat="43.2401450" lon="-3.2189150">
        <ele>205.0</ele>
        <time>2022-01-16T11:36:34Z</time>
      </trkpt>
      <trkpt lat="43.2401180" lon="-3.2188050">
        <ele>205.0</ele>
        <time>2022-01-16T11:36:35Z</time>
      </trkpt>
      <trkpt lat="43.2400830" lon="-3.2186960">
        <ele>204.8</ele>
        <time>2022-01-16T11:36:36Z</time>
      </trkpt>
      <trkpt lat="43.2400440" lon="-3.2185890">
        <ele>204.8</ele>
        <time>2022-01-16T11:36:37Z</time>
      </trkpt>
      <trkpt lat="43.2400070" lon="-3.2184830">
        <ele>204.8</ele>
        <time>2022-01-16T11:36:38Z</time>
      </trkpt>
      <trkpt lat="43.2399790" lon="-3.2183740">
        <ele>204.8</ele>
        <time>2022-01-16T11:36:39Z</time>
      </trkpt>
      <trkpt lat="43.2399530" lon="-3.2182590">
        <ele>204.6</ele>
        <time>2022-01-16T11:36:40Z</time>
      </trkpt>
      <trkpt lat="43.2399300" lon="-3.2181420">
        <ele>204.4</ele>
        <time>2022-01-16T11:36:41Z</time>
      </trkpt>
      <trkpt lat="43.2399140" lon="-3.2180250">
        <ele>204.0</ele>
        <time>2022-01-16T11:36:42Z</time>
      </trkpt>
      <trkpt lat="43.2399050" lon="-3.2179050">
        <ele>203.8</ele>
        <time>2022-01-16T11:36:43Z</time>
      </trkpt>
      <trkpt lat="43.2398980" lon="-3.2177830">
        <ele>203.6</ele>
        <time>2022-01-16T11:36:44Z</time>
      </trkpt>
      <trkpt lat="43.2398890" lon="-3.2176650">
        <ele>203.4</ele>
        <time>2022-01-16T11:36:45Z</time>
      </trkpt>
      <trkpt lat="43.2398850" lon="-3.2175420">
        <ele>203.2</ele>
        <time>2022-01-16T11:36:46Z</time>
      </trkpt>
      <trkpt lat="43.2398790" lon="-3.2174210">
        <ele>203.0</ele>
        <time>2022-01-16T11:36:47Z</time>
      </trkpt>
      <trkpt lat="43.2398760" lon="-3.2173000">
        <ele>202.8</ele>
        <time>2022-01-16T11:36:48Z</time>
      </trkpt>
      <trkpt lat="43.2398760" lon="-3.2171820">
        <ele>202.6</ele>
        <time>2022-01-16T11:36:49Z</time>
      </trkpt>
      <trkpt lat="43.2398770" lon="-3.2170670">
        <ele>202.6</ele>
        <time>2022-01-16T11:36:50Z</time>
      </trkpt>
      <trkpt lat="43.2398830" lon="-3.2169540">
        <ele>202.6</ele>
        <time>2022-01-16T11:36:51Z</time>
      </trkpt>
      <trkpt lat="43.2398920" lon="-3.2168410">
        <ele>202.4</ele>
        <time>2022-01-16T11:36:52Z</time>
      </trkpt>
      <trkpt lat="43.2399030" lon="-3.2167290">
        <ele>202.4</ele>
        <time>2022-01-16T11:36:53Z</time>
      </trkpt>
      <trkpt lat="43.2399180" lon="-3.2166170">
        <ele>202.4</ele>
        <time>2022-01-16T11:36:54Z</time>
      </trkpt>
      <trkpt lat="43.2399360" lon="-3.2165080">
        <ele>202.4</ele>
        <time>2022-01-16T11:36:55Z</time>
      </trkpt>
      <trkpt lat="43.2399610" lon="-3.2164010">
        <ele>202.4</ele>
        <time>2022-01-16T11:36:56Z</time>
      </trkpt>
      <trkpt lat="43.2399880" lon="-3.2162930">
        <ele>202.4</ele>
        <time>2022-01-16T11:36:57Z</time>
      </trkpt>
      <trkpt lat="43.2400190" lon="-3.2161850">
        <ele>202.2</ele>
        <time>2022-01-16T11:36:58Z</time>
      </trkpt>
      <trkpt lat="43.2400520" lon="-3.2160770">
        <ele>201.8</ele>
        <time>2022-01-16T11:36:59Z</time>
      </trkpt>
      <trkpt lat="43.2400890" lon="-3.2159670">
        <ele>201.6</ele>
        <time>2022-01-16T11:37:00Z</time>
      </trkpt>
      <trkpt lat="43.2401320" lon="-3.2158590">
        <ele>201.4</ele>
        <time>2022-01-16T11:37:01Z</time>
      </trkpt>
      <trkpt lat="43.2401790" lon="-3.2157510">
        <ele>201.0</ele>
        <time>2022-01-16T11:37:02Z</time>
      </trkpt>
      <trkpt lat="43.2402350" lon="-3.2156500">
        <ele>200.8</ele>
        <time>2022-01-16T11:37:03Z</time>
      </trkpt>
      <trkpt lat="43.2402940" lon="-3.2155490">
        <ele>200.4</ele>
        <time>2022-01-16T11:37:04Z</time>
      </trkpt>
      <trkpt lat="43.2403530" lon="-3.2154440">
        <ele>200.2</ele>
        <time>2022-01-16T11:37:05Z</time>
      </trkpt>
      <trkpt lat="43.2404130" lon="-3.2153420">
        <ele>199.8</ele>
        <time>2022-01-16T11:37:06Z</time>
      </trkpt>
      <trkpt lat="43.2404810" lon="-3.2152500">
        <ele>199.6</ele>
        <time>2022-01-16T11:37:07Z</time>
      </trkpt>
      <trkpt lat="43.2405500" lon="-3.2151540">
        <ele>198.8</ele>
        <time>2022-01-16T11:37:08Z</time>
      </trkpt>
      <trkpt lat="43.2406160" lon="-3.2150560">
        <ele>198.4</ele>
        <time>2022-01-16T11:37:09Z</time>
      </trkpt>
      <trkpt lat="43.2406810" lon="-3.2149590">
        <ele>198.2</ele>
        <time>2022-01-16T11:37:10Z</time>
      </trkpt>
      <trkpt lat="43.2407500" lon="-3.2148620">
        <ele>198.0</ele>
        <time>2022-01-16T11:37:11Z</time>
      </trkpt>
      <trkpt lat="43.2408230" lon="-3.2147660">
        <ele>197.6</ele>
        <time>2022-01-16T11:37:12Z</time>
      </trkpt>
      <trkpt lat="43.2409010" lon="-3.2146740">
        <ele>197.2</ele>
        <time>2022-01-16T11:37:13Z</time>
      </trkpt>
      <trkpt lat="43.2409770" lon="-3.2145850">
        <ele>197.0</ele>
        <time>2022-01-16T11:37:14Z</time>
      </trkpt>
      <trkpt lat="43.2410580" lon="-3.2144980">
        <ele>196.6</ele>
        <time>2022-01-16T11:37:15Z</time>
      </trkpt>
      <trkpt lat="43.2411410" lon="-3.2144150">
        <ele>195.8</ele>
        <time>2022-01-16T11:37:16Z</time>
      </trkpt>
      <trkpt lat="43.2412230" lon="-3.2143330">
        <ele>195.2</ele>
        <time>2022-01-16T11:37:17Z</time>
      </trkpt>
      <trkpt lat="43.2413070" lon="-3.2142520">
        <ele>194.8</ele>
        <time>2022-01-16T11:37:18Z</time>
      </trkpt>
      <trkpt lat="43.2413910" lon="-3.2141710">
        <ele>194.4</ele>
        <time>2022-01-16T11:37:19Z</time>
      </trkpt>
      <trkpt lat="43.2414720" lon="-3.2140870">
        <ele>194.0</ele>
        <time>2022-01-16T11:37:20Z</time>
      </trkpt>
      <trkpt lat="43.2415520" lon="-3.2140010">
        <ele>193.6</ele>
        <time>2022-01-16T11:37:21Z</time>
      </trkpt>
      <trkpt lat="43.2416320" lon="-3.2139140">
        <ele>193.0</ele>
        <time>2022-01-16T11:37:22Z</time>
      </trkpt>
      <trkpt lat="43.2417120" lon="-3.2138280">
        <ele>192.6</ele>
        <time>2022-01-16T11:37:23Z</time>
      </trkpt>
      <trkpt lat="43.2417930" lon="-3.2137430">
        <ele>192.2</ele>
        <time>2022-01-16T11:37:24Z</time>
      </trkpt>
      <trkpt lat="43.2418750" lon="-3.2136590">
        <ele>191.6</ele>
        <time>2022-01-16T11:37:25Z</time>
      </trkpt>
      <trkpt lat="43.2419590" lon="-3.2135750">
        <ele>191.2</ele>
        <time>2022-01-16T11:37:26Z</time>
      </trkpt>
      <trkpt lat="43.2420430" lon="-3.2134900">
        <ele>190.8</ele>
        <time>2022-01-16T11:37:27Z</time>
      </trkpt>
      <trkpt lat="43.2421270" lon="-3.2134070">
        <ele>190.6</ele>
        <time>2022-01-16T11:37:28Z</time>
      </trkpt>
      <trkpt lat="43.2422110" lon="-3.2133240">
        <ele>190.4</ele>
        <time>2022-01-16T11:37:29Z</time>
      </trkpt>
      <trkpt lat="43.2422940" lon="-3.2132420">
        <ele>190.0</ele>
        <time>2022-01-16T11:37:30Z</time>
      </trkpt>
      <trkpt lat="43.2423780" lon="-3.2131580">
        <ele>189.6</ele>
        <time>2022-01-16T11:37:31Z</time>
      </trkpt>
      <trkpt lat="43.2424580" lon="-3.2130710">
        <ele>189.4</ele>
        <time>2022-01-16T11:37:32Z</time>
      </trkpt>
      <trkpt lat="43.2425390" lon="-3.2129860">
        <ele>189.0</ele>
        <time>2022-01-16T11:37:33Z</time>
      </trkpt>
      <trkpt lat="43.2426160" lon="-3.2129030">
        <ele>189.0</ele>
        <time>2022-01-16T11:37:34Z</time>
      </trkpt>
      <trkpt lat="43.2426930" lon="-3.2128240">
        <ele>189.2</ele>
        <time>2022-01-16T11:37:35Z</time>
      </trkpt>
      <trkpt lat="43.2427650" lon="-3.2127450">
        <ele>189.4</ele>
        <time>2022-01-16T11:37:36Z</time>
      </trkpt>
      <trkpt lat="43.2428320" lon="-3.2126660">
        <ele>189.6</ele>
        <time>2022-01-16T11:37:37Z</time>
      </trkpt>
      <trkpt lat="43.2428930" lon="-3.2125820">
        <ele>190.0</ele>
        <time>2022-01-16T11:37:38Z</time>
      </trkpt>
      <trkpt lat="43.2429450" lon="-3.2124920">
        <ele>190.2</ele>
        <time>2022-01-16T11:37:39Z</time>
      </trkpt>
      <trkpt lat="43.2429890" lon="-3.2123990">
        <ele>190.4</ele>
        <time>2022-01-16T11:37:40Z</time>
      </trkpt>
      <trkpt lat="43.2430250" lon="-3.2123020">
        <ele>191.0</ele>
        <time>2022-01-16T11:37:41Z</time>
      </trkpt>
      <trkpt lat="43.2430560" lon="-3.2122040">
        <ele>191.6</ele>
        <time>2022-01-16T11:37:42Z</time>
      </trkpt>
      <trkpt lat="43.2430830" lon="-3.2121080">
        <ele>192.8</ele>
        <time>2022-01-16T11:37:43Z</time>
      </trkpt>
      <trkpt lat="43.2431090" lon="-3.2120120">
        <ele>193.2</ele>
        <time>2022-01-16T11:37:44Z</time>
      </trkpt>
      <trkpt lat="43.2431300" lon="-3.2119190">
        <ele>193.6</ele>
        <time>2022-01-16T11:37:45Z</time>
      </trkpt>
      <trkpt lat="43.2431510" lon="-3.2118290">
        <ele>193.8</ele>
        <time>2022-01-16T11:37:46Z</time>
      </trkpt>
      <trkpt lat="43.2431720" lon="-3.2117460">
        <ele>194.2</ele>
        <time>2022-01-16T11:37:47Z</time>
      </trkpt>
      <trkpt lat="43.2431920" lon="-3.2116690">
        <ele>194.8</ele>
        <time>2022-01-16T11:37:48Z</time>
      </trkpt>
      <trkpt lat="43.2432120" lon="-3.2115970">
        <ele>195.2</ele>
        <time>2022-01-16T11:37:49Z</time>
      </trkpt>
      <trkpt lat="43.2432300" lon="-3.2115270">
        <ele>195.6</ele>
        <time>2022-01-16T11:37:50Z</time>
      </trkpt>
      <trkpt lat="43.2432470" lon="-3.2114600">
        <ele>195.8</ele>
        <time>2022-01-16T11:37:51Z</time>
      </trkpt>
      <trkpt lat="43.2432640" lon="-3.2113960">
        <ele>196.0</ele>
        <time>2022-01-16T11:37:52Z</time>
      </trkpt>
      <trkpt lat="43.2432800" lon="-3.2113330">
        <ele>196.2</ele>
        <time>2022-01-16T11:37:53Z</time>
      </trkpt>
      <trkpt lat="43.2432970" lon="-3.2112700">
        <ele>196.4</ele>
        <time>2022-01-16T11:37:54Z</time>
      </trkpt>
      <trkpt lat="43.2433120" lon="-3.2112070">
        <ele>196.8</ele>
        <time>2022-01-16T11:37:55Z</time>
      </trkpt>
      <trkpt lat="43.2433260" lon="-3.2111430">
        <ele>197.0</ele>
        <time>2022-01-16T11:37:56Z</time>
      </trkpt>
      <trkpt lat="43.2433380" lon="-3.2110780">
        <ele>197.2</ele>
        <time>2022-01-16T11:37:57Z</time>
      </trkpt>
      <trkpt lat="43.2433470" lon="-3.2110130">
        <ele>197.4</ele>
        <time>2022-01-16T11:37:58Z</time>
      </trkpt>
      <trkpt lat="43.2433510" lon="-3.2109480">
        <ele>197.8</ele>
        <time>2022-01-16T11:37:59Z</time>
      </trkpt>
      <trkpt lat="43.2433510" lon="-3.2108820">
        <ele>198.2</ele>
        <time>2022-01-16T11:38:00Z</time>
      </trkpt>
      <trkpt lat="43.2433500" lon="-3.2108170">
        <ele>198.4</ele>
        <time>2022-01-16T11:38:01Z</time>
      </trkpt>
      <trkpt lat="43.2433470" lon="-3.2107560">
        <ele>198.6</ele>
        <time>2022-01-16T11:38:02Z</time>
      </trkpt>
      <trkpt lat="43.2433380" lon="-3.2106970">
        <ele>198.8</ele>
        <time>2022-01-16T11:38:03Z</time>
      </trkpt>
      <trkpt lat="43.2433260" lon="-3.2106380">
        <ele>199.2</ele>
        <time>2022-01-16T11:38:04Z</time>
      </trkpt>
      <trkpt lat="43.2433150" lon="-3.2105810">
        <ele>199.4</ele>
        <time>2022-01-16T11:38:05Z</time>
      </trkpt>
      <trkpt lat="43.2433040" lon="-3.2105300">
        <ele>199.6</ele>
        <time>2022-01-16T11:38:06Z</time>
      </trkpt>
      <trkpt lat="43.2432900" lon="-3.2104770">
        <ele>200.0</ele>
        <time>2022-01-16T11:38:07Z</time>
      </trkpt>
      <trkpt lat="43.2432740" lon="-3.2104260">
        <ele>200.4</ele>
        <time>2022-01-16T11:38:08Z</time>
      </trkpt>
      <trkpt lat="43.2432540" lon="-3.2103760">
        <ele>201.0</ele>
        <time>2022-01-16T11:38:09Z</time>
      </trkpt>
      <trkpt lat="43.2432350" lon="-3.2103330">
        <ele>201.2</ele>
        <time>2022-01-16T11:38:10Z</time>
      </trkpt>
      <trkpt lat="43.2432130" lon="-3.2102870">
        <ele>201.6</ele>
        <time>2022-01-16T11:38:11Z</time>
      </trkpt>
      <trkpt lat="43.2431850" lon="-3.2102410">
        <ele>202.2</ele>
        <time>2022-01-16T11:38:12Z</time>
      </trkpt>
      <trkpt lat="43.2431560" lon="-3.2101990">
        <ele>202.6</ele>
        <time>2022-01-16T11:38:13Z</time>
      </trkpt>
      <trkpt lat="43.2431270" lon="-3.2101580">
        <ele>203.0</ele>
        <time>2022-01-16T11:38:14Z</time>
      </trkpt>
      <trkpt lat="43.2430980" lon="-3.2101190">
        <ele>203.4</ele>
        <time>2022-01-16T11:38:15Z</time>
      </trkpt>
      <trkpt lat="43.2430650" lon="-3.2100850">
        <ele>203.6</ele>
        <time>2022-01-16T11:38:16Z</time>
      </trkpt>
      <trkpt lat="43.2430290" lon="-3.2100560">
        <ele>204.2</ele>
        <time>2022-01-16T11:38:17Z</time>
      </trkpt>
      <trkpt lat="43.2429960" lon="-3.2100230">
        <ele>204.8</ele>
        <time>2022-01-16T11:38:18Z</time>
      </trkpt>
      <trkpt lat="43.2429680" lon="-3.2099870">
        <ele>205.4</ele>
        <time>2022-01-16T11:38:19Z</time>
      </trkpt>
      <trkpt lat="43.2429340" lon="-3.2099570">
        <ele>205.6</ele>
        <time>2022-01-16T11:38:20Z</time>
      </trkpt>
      <trkpt lat="43.2428970" lon="-3.2099310">
        <ele>206.0</ele>
        <time>2022-01-16T11:38:21Z</time>
      </trkpt>
      <trkpt lat="43.2428550" lon="-3.2099100">
        <ele>206.4</ele>
        <time>2022-01-16T11:38:22Z</time>
      </trkpt>
      <trkpt lat="43.2428120" lon="-3.2098910">
        <ele>206.6</ele>
        <time>2022-01-16T11:38:23Z</time>
      </trkpt>
      <trkpt lat="43.2427680" lon="-3.2098750">
        <ele>207.0</ele>
        <time>2022-01-16T11:38:24Z</time>
      </trkpt>
      <trkpt lat="43.2427230" lon="-3.2098610">
        <ele>207.2</ele>
        <time>2022-01-16T11:38:25Z</time>
      </trkpt>
      <trkpt lat="43.2426800" lon="-3.2098460">
        <ele>207.4</ele>
        <time>2022-01-16T11:38:26Z</time>
      </trkpt>
      <trkpt lat="43.2426360" lon="-3.2098300">
        <ele>207.6</ele>
        <time>2022-01-16T11:38:27Z</time>
      </trkpt>
      <trkpt lat="43.2425920" lon="-3.2098170">
        <ele>208.0</ele>
        <time>2022-01-16T11:38:28Z</time>
      </trkpt>
      <trkpt lat="43.2425500" lon="-3.2098060">
        <ele>208.2</ele>
        <time>2022-01-16T11:38:29Z</time>
      </trkpt>
      <trkpt lat="43.2425050" lon="-3.2097970">
        <ele>208.2</ele>
        <time>2022-01-16T11:38:30Z</time>
      </trkpt>
      <trkpt lat="43.2424590" lon="-3.2097860">
        <ele>208.4</ele>
        <time>2022-01-16T11:38:31Z</time>
      </trkpt>
      <trkpt lat="43.2424080" lon="-3.2097670">
        <ele>208.4</ele>
        <time>2022-01-16T11:38:32Z</time>
      </trkpt>
      <trkpt lat="43.2423570" lon="-3.2097500">
        <ele>208.4</ele>
        <time>2022-01-16T11:38:33Z</time>
      </trkpt>
      <trkpt lat="43.2423030" lon="-3.2097380">
        <ele>208.6</ele>
        <time>2022-01-16T11:38:34Z</time>
      </trkpt>
      <trkpt lat="43.2422470" lon="-3.2097220">
        <ele>208.8</ele>
        <time>2022-01-16T11:38:35Z</time>
      </trkpt>
      <trkpt lat="43.2421970" lon="-3.2097060">
        <ele>208.8</ele>
        <time>2022-01-16T11:38:36Z</time>
      </trkpt>
      <trkpt lat="43.2421500" lon="-3.2096860">
        <ele>209.2</ele>
        <time>2022-01-16T11:38:37Z</time>
      </trkpt>
      <trkpt lat="43.2421020" lon="-3.2096590">
        <ele>209.4</ele>
        <time>2022-01-16T11:38:38Z</time>
      </trkpt>
      <trkpt lat="43.2420560" lon="-3.2096330">
        <ele>209.4</ele>
        <time>2022-01-16T11:38:39Z</time>
      </trkpt>
      <trkpt lat="43.2420110" lon="-3.2096050">
        <ele>209.8</ele>
        <time>2022-01-16T11:38:40Z</time>
      </trkpt>
      <trkpt lat="43.2419670" lon="-3.2095740">
        <ele>210.0</ele>
        <time>2022-01-16T11:38:41Z</time>
      </trkpt>
      <trkpt lat="43.2419240" lon="-3.2095430">
        <ele>210.2</ele>
        <time>2022-01-16T11:38:42Z</time>
      </trkpt>
      <trkpt lat="43.2418820" lon="-3.2095080">
        <ele>210.2</ele>
        <time>2022-01-16T11:38:43Z</time>
      </trkpt>
      <trkpt lat="43.2418390" lon="-3.2094690">
        <ele>210.4</ele>
        <time>2022-01-16T11:38:44Z</time>
      </trkpt>
      <trkpt lat="43.2417940" lon="-3.2094280">
        <ele>210.6</ele>
        <time>2022-01-16T11:38:45Z</time>
      </trkpt>
      <trkpt lat="43.2417520" lon="-3.2093840">
        <ele>210.8</ele>
        <time>2022-01-16T11:38:46Z</time>
      </trkpt>
      <trkpt lat="43.2417090" lon="-3.2093380">
        <ele>210.8</ele>
        <time>2022-01-16T11:38:47Z</time>
      </trkpt>
      <trkpt lat="43.2416660" lon="-3.2092940">
        <ele>211.0</ele>
        <time>2022-01-16T11:38:48Z</time>
      </trkpt>
      <trkpt lat="43.2416210" lon="-3.2092530">
        <ele>211.0</ele>
        <time>2022-01-16T11:38:49Z</time>
      </trkpt>
      <trkpt lat="43.2415800" lon="-3.2092110">
        <ele>211.2</ele>
        <time>2022-01-16T11:38:50Z</time>
      </trkpt>
      <trkpt lat="43.2415320" lon="-3.2091760">
        <ele>211.2</ele>
        <time>2022-01-16T11:38:51Z</time>
      </trkpt>
      <trkpt lat="43.2414830" lon="-3.2091470">
        <ele>211.4</ele>
        <time>2022-01-16T11:38:52Z</time>
      </trkpt>
      <trkpt lat="43.2414340" lon="-3.2091200">
        <ele>211.6</ele>
        <time>2022-01-16T11:38:53Z</time>
      </trkpt>
      <trkpt lat="43.2413860" lon="-3.2090940">
        <ele>212.0</ele>
        <time>2022-01-16T11:38:54Z</time>
      </trkpt>
      <trkpt lat="43.2413360" lon="-3.2090710">
        <ele>212.2</ele>
        <time>2022-01-16T11:38:55Z</time>
      </trkpt>
      <trkpt lat="43.2412850" lon="-3.2090500">
        <ele>212.4</ele>
        <time>2022-01-16T11:38:56Z</time>
      </trkpt>
      <trkpt lat="43.2412370" lon="-3.2090310">
        <ele>212.6</ele>
        <time>2022-01-16T11:38:57Z</time>
      </trkpt>
      <trkpt lat="43.2411880" lon="-3.2090150">
        <ele>212.8</ele>
        <time>2022-01-16T11:38:58Z</time>
      </trkpt>
      <trkpt lat="43.2411390" lon="-3.2090010">
        <ele>212.8</ele>
        <time>2022-01-16T11:38:59Z</time>
      </trkpt>
      <trkpt lat="43.2410890" lon="-3.2089910">
        <ele>213.0</ele>
        <time>2022-01-16T11:39:00Z</time>
      </trkpt>
      <trkpt lat="43.2410390" lon="-3.2089820">
        <ele>213.2</ele>
        <time>2022-01-16T11:39:01Z</time>
      </trkpt>
      <trkpt lat="43.2409900" lon="-3.2089750">
        <ele>213.2</ele>
        <time>2022-01-16T11:39:02Z</time>
      </trkpt>
      <trkpt lat="43.2409390" lon="-3.2089640">
        <ele>213.6</ele>
        <time>2022-01-16T11:39:03Z</time>
      </trkpt>
      <trkpt lat="43.2408900" lon="-3.2089510">
        <ele>213.8</ele>
        <time>2022-01-16T11:39:04Z</time>
      </trkpt>
      <trkpt lat="43.2408400" lon="-3.2089390">
        <ele>214.0</ele>
        <time>2022-01-16T11:39:05Z</time>
      </trkpt>
      <trkpt lat="43.2407910" lon="-3.2089290">
        <ele>214.2</ele>
        <time>2022-01-16T11:39:06Z</time>
      </trkpt>
      <trkpt lat="43.2407390" lon="-3.2089170">
        <ele>214.4</ele>
        <time>2022-01-16T11:39:07Z</time>
      </trkpt>
      <trkpt lat="43.2406880" lon="-3.2089030">
        <ele>214.6</ele>
        <time>2022-01-16T11:39:08Z</time>
      </trkpt>
      <trkpt lat="43.2406390" lon="-3.2088880">
        <ele>214.8</ele>
        <time>2022-01-16T11:39:09Z</time>
      </trkpt>
      <trkpt lat="43.2405890" lon="-3.2088780">
        <ele>215.0</ele>
        <time>2022-01-16T11:39:10Z</time>
      </trkpt>
      <trkpt lat="43.2405390" lon="-3.2088700">
        <ele>215.4</ele>
        <time>2022-01-16T11:39:11Z</time>
      </trkpt>
      <trkpt lat="43.2404860" lon="-3.2088620">
        <ele>215.6</ele>
        <time>2022-01-16T11:39:12Z</time>
      </trkpt>
      <trkpt lat="43.2404350" lon="-3.2088530">
        <ele>215.8</ele>
        <time>2022-01-16T11:39:13Z</time>
      </trkpt>
      <trkpt lat="43.2403840" lon="-3.2088430">
        <ele>216.0</ele>
        <time>2022-01-16T11:39:14Z</time>
      </trkpt>
      <trkpt lat="43.2403310" lon="-3.2088330">
        <ele>216.0</ele>
        <time>2022-01-16T11:39:15Z</time>
      </trkpt>
      <trkpt lat="43.2402780" lon="-3.2088250">
        <ele>216.2</ele>
        <time>2022-01-16T11:39:16Z</time>
      </trkpt>
      <trkpt lat="43.2402250" lon="-3.2088160">
        <ele>216.2</ele>
        <time>2022-01-16T11:39:17Z</time>
      </trkpt>
      <trkpt lat="43.2401730" lon="-3.2088070">
        <ele>216.4</ele>
        <time>2022-01-16T11:39:18Z</time>
      </trkpt>
      <trkpt lat="43.2401210" lon="-3.2087960">
        <ele>216.6</ele>
        <time>2022-01-16T11:39:19Z</time>
      </trkpt>
      <trkpt lat="43.2400680" lon="-3.2087880">
        <ele>216.8</ele>
        <time>2022-01-16T11:39:20Z</time>
      </trkpt>
      <trkpt lat="43.2400150" lon="-3.2087800">
        <ele>217.0</ele>
        <time>2022-01-16T11:39:21Z</time>
      </trkpt>
      <trkpt lat="43.2399630" lon="-3.2087750">
        <ele>217.2</ele>
        <time>2022-01-16T11:39:22Z</time>
      </trkpt>
      <trkpt lat="43.2399110" lon="-3.2087700">
        <ele>217.6</ele>
        <time>2022-01-16T11:39:23Z</time>
      </trkpt>
      <trkpt lat="43.2398610" lon="-3.2087690">
        <ele>217.8</ele>
        <time>2022-01-16T11:39:24Z</time>
      </trkpt>
      <trkpt lat="43.2398110" lon="-3.2087690">
        <ele>217.8</ele>
        <time>2022-01-16T11:39:25Z</time>
      </trkpt>
      <trkpt lat="43.2397600" lon="-3.2087710">
        <ele>218.0</ele>
        <time>2022-01-16T11:39:26Z</time>
      </trkpt>
      <trkpt lat="43.2397100" lon="-3.2087750">
        <ele>218.0</ele>
        <time>2022-01-16T11:39:27Z</time>
      </trkpt>
      <trkpt lat="43.2396590" lon="-3.2087790">
        <ele>218.4</ele>
        <time>2022-01-16T11:39:28Z</time>
      </trkpt>
      <trkpt lat="43.2396080" lon="-3.2087840">
        <ele>218.6</ele>
        <time>2022-01-16T11:39:29Z</time>
      </trkpt>
      <trkpt lat="43.2395580" lon="-3.2087930">
        <ele>218.8</ele>
        <time>2022-01-16T11:39:30Z</time>
      </trkpt>
      <trkpt lat="43.2395090" lon="-3.2088040">
        <ele>219.0</ele>
        <time>2022-01-16T11:39:31Z</time>
      </trkpt>
      <trkpt lat="43.2394610" lon="-3.2088170">
        <ele>219.0</ele>
        <time>2022-01-16T11:39:32Z</time>
      </trkpt>
      <trkpt lat="43.2394140" lon="-3.2088300">
        <ele>219.2</ele>
        <time>2022-01-16T11:39:33Z</time>
      </trkpt>
      <trkpt lat="43.2393670" lon="-3.2088440">
        <ele>219.4</ele>
        <time>2022-01-16T11:39:34Z</time>
      </trkpt>
      <trkpt lat="43.2393220" lon="-3.2088580">
        <ele>219.6</ele>
        <time>2022-01-16T11:39:35Z</time>
      </trkpt>
      <trkpt lat="43.2392760" lon="-3.2088740">
        <ele>220.0</ele>
        <time>2022-01-16T11:39:36Z</time>
      </trkpt>
      <trkpt lat="43.2392300" lon="-3.2088840">
        <ele>220.2</ele>
        <time>2022-01-16T11:39:37Z</time>
      </trkpt>
      <trkpt lat="43.2391820" lon="-3.2088900">
        <ele>220.6</ele>
        <time>2022-01-16T11:39:38Z</time>
      </trkpt>
      <trkpt lat="43.2391300" lon="-3.2088920">
        <ele>220.6</ele>
        <time>2022-01-16T11:39:39Z</time>
      </trkpt>
      <trkpt lat="43.2390820" lon="-3.2088960">
        <ele>220.8</ele>
        <time>2022-01-16T11:39:40Z</time>
      </trkpt>
      <trkpt lat="43.2390320" lon="-3.2088980">
        <ele>220.8</ele>
        <time>2022-01-16T11:39:41Z</time>
      </trkpt>
      <trkpt lat="43.2389840" lon="-3.2088980">
        <ele>221.0</ele>
        <time>2022-01-16T11:39:42Z</time>
      </trkpt>
      <trkpt lat="43.2389370" lon="-3.2088930">
        <ele>221.4</ele>
        <time>2022-01-16T11:39:43Z</time>
      </trkpt>
      <trkpt lat="43.2388900" lon="-3.2088850">
        <ele>221.6</ele>
        <time>2022-01-16T11:39:44Z</time>
      </trkpt>
      <trkpt lat="43.2388450" lon="-3.2088800">
        <ele>222.0</ele>
        <time>2022-01-16T11:39:45Z</time>
      </trkpt>
      <trkpt lat="43.2388010" lon="-3.2088680">
        <ele>222.2</ele>
        <time>2022-01-16T11:39:46Z</time>
      </trkpt>
      <trkpt lat="43.2387570" lon="-3.2088510">
        <ele>222.8</ele>
        <time>2022-01-16T11:39:47Z</time>
      </trkpt>
      <trkpt lat="43.2387100" lon="-3.2088270">
        <ele>223.0</ele>
        <time>2022-01-16T11:39:48Z</time>
      </trkpt>
      <trkpt lat="43.2386620" lon="-3.2088060">
        <ele>223.2</ele>
        <time>2022-01-16T11:39:49Z</time>
      </trkpt>
      <trkpt lat="43.2386160" lon="-3.2087850">
        <ele>223.4</ele>
        <time>2022-01-16T11:39:50Z</time>
      </trkpt>
      <trkpt lat="43.2385700" lon="-3.2087580">
        <ele>223.4</ele>
        <time>2022-01-16T11:39:51Z</time>
      </trkpt>
      <trkpt lat="43.2385190" lon="-3.2087320">
        <ele>223.8</ele>
        <time>2022-01-16T11:39:52Z</time>
      </trkpt>
      <trkpt lat="43.2384710" lon="-3.2087100">
        <ele>223.8</ele>
        <time>2022-01-16T11:39:53Z</time>
      </trkpt>
      <trkpt lat="43.2384220" lon="-3.2086880">
        <ele>224.2</ele>
        <time>2022-01-16T11:39:54Z</time>
      </trkpt>
      <trkpt lat="43.2383730" lon="-3.2086660">
        <ele>224.4</ele>
        <time>2022-01-16T11:39:55Z</time>
      </trkpt>
      <trkpt lat="43.2383260" lon="-3.2086440">
        <ele>224.6</ele>
        <time>2022-01-16T11:39:56Z</time>
      </trkpt>
      <trkpt lat="43.2382770" lon="-3.2086200">
        <ele>224.6</ele>
        <time>2022-01-16T11:39:57Z</time>
      </trkpt>
      <trkpt lat="43.2382280" lon="-3.2085930">
        <ele>224.8</ele>
        <time>2022-01-16T11:39:58Z</time>
      </trkpt>
      <trkpt lat="43.2381810" lon="-3.2085630">
        <ele>225.0</ele>
        <time>2022-01-16T11:39:59Z</time>
      </trkpt>
      <trkpt lat="43.2381360" lon="-3.2085300">
        <ele>225.0</ele>
        <time>2022-01-16T11:40:00Z</time>
      </trkpt>
      <trkpt lat="43.2380910" lon="-3.2084940">
        <ele>225.2</ele>
        <time>2022-01-16T11:40:01Z</time>
      </trkpt>
      <trkpt lat="43.2380470" lon="-3.2084590">
        <ele>225.4</ele>
        <time>2022-01-16T11:40:02Z</time>
      </trkpt>
      <trkpt lat="43.2380010" lon="-3.2084260">
        <ele>225.4</ele>
        <time>2022-01-16T11:40:03Z</time>
      </trkpt>
      <trkpt lat="43.2379550" lon="-3.2083910">
        <ele>225.6</ele>
        <time>2022-01-16T11:40:04Z</time>
      </trkpt>
      <trkpt lat="43.2379130" lon="-3.2083550">
        <ele>225.6</ele>
        <time>2022-01-16T11:40:05Z</time>
      </trkpt>
      <trkpt lat="43.2378690" lon="-3.2083170">
        <ele>225.8</ele>
        <time>2022-01-16T11:40:06Z</time>
      </trkpt>
      <trkpt lat="43.2378290" lon="-3.2082810">
        <ele>226.0</ele>
        <time>2022-01-16T11:40:07Z</time>
      </trkpt>
      <trkpt lat="43.2377880" lon="-3.2082450">
        <ele>226.2</ele>
        <time>2022-01-16T11:40:08Z</time>
      </trkpt>
      <trkpt lat="43.2377460" lon="-3.2082080">
        <ele>226.4</ele>
        <time>2022-01-16T11:40:09Z</time>
      </trkpt>
      <trkpt lat="43.2377040" lon="-3.2081690">
        <ele>226.6</ele>
        <time>2022-01-16T11:40:10Z</time>
      </trkpt>
      <trkpt lat="43.2376650" lon="-3.2081250">
        <ele>226.8</ele>
        <time>2022-01-16T11:40:11Z</time>
      </trkpt>
      <trkpt lat="43.2376200" lon="-3.2080820">
        <ele>227.0</ele>
        <time>2022-01-16T11:40:12Z</time>
      </trkpt>
      <trkpt lat="43.2375760" lon="-3.2080390">
        <ele>227.2</ele>
        <time>2022-01-16T11:40:13Z</time>
      </trkpt>
      <trkpt lat="43.2375350" lon="-3.2079940">
        <ele>227.4</ele>
        <time>2022-01-16T11:40:14Z</time>
      </trkpt>
      <trkpt lat="43.2374930" lon="-3.2079500">
        <ele>227.6</ele>
        <time>2022-01-16T11:40:15Z</time>
      </trkpt>
      <trkpt lat="43.2374530" lon="-3.2079070">
        <ele>227.8</ele>
        <time>2022-01-16T11:40:16Z</time>
      </trkpt>
      <trkpt lat="43.2374120" lon="-3.2078570">
        <ele>227.8</ele>
        <time>2022-01-16T11:40:17Z</time>
      </trkpt>
      <trkpt lat="43.2373780" lon="-3.2078030">
        <ele>228.0</ele>
        <time>2022-01-16T11:40:18Z</time>
      </trkpt>
      <trkpt lat="43.2373410" lon="-3.2077490">
        <ele>228.2</ele>
        <time>2022-01-16T11:40:19Z</time>
      </trkpt>
      <trkpt lat="43.2373110" lon="-3.2076960">
        <ele>228.2</ele>
        <time>2022-01-16T11:40:20Z</time>
      </trkpt>
      <trkpt lat="43.2372820" lon="-3.2076450">
        <ele>228.6</ele>
        <time>2022-01-16T11:40:21Z</time>
      </trkpt>
      <trkpt lat="43.2372470" lon="-3.2075890">
        <ele>228.8</ele>
        <time>2022-01-16T11:40:22Z</time>
      </trkpt>
      <trkpt lat="43.2372080" lon="-3.2075340">
        <ele>229.2</ele>
        <time>2022-01-16T11:40:23Z</time>
      </trkpt>
      <trkpt lat="43.2371700" lon="-3.2074640">
        <ele>229.6</ele>
        <time>2022-01-16T11:40:24Z</time>
      </trkpt>
      <trkpt lat="43.2371290" lon="-3.2074010">
        <ele>229.8</ele>
        <time>2022-01-16T11:40:25Z</time>
      </trkpt>
      <trkpt lat="43.2370900" lon="-3.2073430">
        <ele>230.0</ele>
        <time>2022-01-16T11:40:26Z</time>
      </trkpt>
      <trkpt lat="43.2370480" lon="-3.2072880">
        <ele>230.0</ele>
        <time>2022-01-16T11:40:27Z</time>
      </trkpt>
      <trkpt lat="43.2370030" lon="-3.2072430">
        <ele>230.0</ele>
        <time>2022-01-16T11:40:28Z</time>
      </trkpt>
      <trkpt lat="43.2369540" lon="-3.2072010">
        <ele>230.2</ele>
        <time>2022-01-16T11:40:29Z</time>
      </trkpt>
      <trkpt lat="43.2369060" lon="-3.2071610">
        <ele>230.4</ele>
        <time>2022-01-16T11:40:30Z</time>
      </trkpt>
      <trkpt lat="43.2368540" lon="-3.2071290">
        <ele>230.6</ele>
        <time>2022-01-16T11:40:31Z</time>
      </trkpt>
      <trkpt lat="43.2367990" lon="-3.2071030">
        <ele>230.6</ele>
        <time>2022-01-16T11:40:32Z</time>
      </trkpt>
      <trkpt lat="43.2367460" lon="-3.2070800">
        <ele>230.8</ele>
        <time>2022-01-16T11:40:33Z</time>
      </trkpt>
      <trkpt lat="43.2366900" lon="-3.2070560">
        <ele>231.2</ele>
        <time>2022-01-16T11:40:34Z</time>
      </trkpt>
      <trkpt lat="43.2366370" lon="-3.2070390">
        <ele>231.4</ele>
        <time>2022-01-16T11:40:35Z</time>
      </trkpt>
      <trkpt lat="43.2365830" lon="-3.2070220">
        <ele>231.6</ele>
        <time>2022-01-16T11:40:36Z</time>
      </trkpt>
      <trkpt lat="43.2365310" lon="-3.2070050">
        <ele>231.8</ele>
        <time>2022-01-16T11:40:37Z</time>
      </trkpt>
      <trkpt lat="43.2364820" lon="-3.2069790">
        <ele>232.2</ele>
        <time>2022-01-16T11:40:38Z</time>
      </trkpt>
      <trkpt lat="43.2364350" lon="-3.2069430">
        <ele>232.4</ele>
        <time>2022-01-16T11:40:39Z</time>
      </trkpt>
      <trkpt lat="43.2363910" lon="-3.2068910">
        <ele>232.6</ele>
        <time>2022-01-16T11:40:40Z</time>
      </trkpt>
      <trkpt lat="43.2363570" lon="-3.2068280">
        <ele>232.8</ele>
        <time>2022-01-16T11:40:41Z</time>
      </trkpt>
      <trkpt lat="43.2363360" lon="-3.2067640">
        <ele>233.0</ele>
        <time>2022-01-16T11:40:42Z</time>
      </trkpt>
      <trkpt lat="43.2363190" lon="-3.2066970">
        <ele>233.0</ele>
        <time>2022-01-16T11:40:43Z</time>
      </trkpt>
      <trkpt lat="43.2363090" lon="-3.2066210">
        <ele>233.2</ele>
        <time>2022-01-16T11:40:44Z</time>
      </trkpt>
      <trkpt lat="43.2362970" lon="-3.2065470">
        <ele>233.4</ele>
        <time>2022-01-16T11:40:45Z</time>
      </trkpt>
      <trkpt lat="43.2362830" lon="-3.2064720">
        <ele>233.6</ele>
        <time>2022-01-16T11:40:46Z</time>
      </trkpt>
      <trkpt lat="43.2362650" lon="-3.2063970">
        <ele>234.0</ele>
        <time>2022-01-16T11:40:47Z</time>
      </trkpt>
      <trkpt lat="43.2362400" lon="-3.2063290">
        <ele>234.2</ele>
        <time>2022-01-16T11:40:48Z</time>
      </trkpt>
      <trkpt lat="43.2362060" lon="-3.2062730">
        <ele>234.4</ele>
        <time>2022-01-16T11:40:49Z</time>
      </trkpt>
      <trkpt lat="43.2361670" lon="-3.2062290">
        <ele>234.4</ele>
        <time>2022-01-16T11:40:50Z</time>
      </trkpt>
      <trkpt lat="43.2361240" lon="-3.2061930">
        <ele>234.6</ele>
        <time>2022-01-16T11:40:51Z</time>
      </trkpt>
      <trkpt lat="43.2360820" lon="-3.2061620">
        <ele>235.0</ele>
        <time>2022-01-16T11:40:52Z</time>
      </trkpt>
      <trkpt lat="43.2360400" lon="-3.2061380">
        <ele>235.2</ele>
        <time>2022-01-16T11:40:53Z</time>
      </trkpt>
      <trkpt lat="43.2359950" lon="-3.2061210">
        <ele>235.4</ele>
        <time>2022-01-16T11:40:54Z</time>
      </trkpt>
      <trkpt lat="43.2359490" lon="-3.2061020">
        <ele>235.8</ele>
        <time>2022-01-16T11:40:55Z</time>
      </trkpt>
      <trkpt lat="43.2359030" lon="-3.2060920">
        <ele>236.0</ele>
        <time>2022-01-16T11:40:56Z</time>
      </trkpt>
      <trkpt lat="43.2358560" lon="-3.2060910">
        <ele>236.2</ele>
        <time>2022-01-16T11:40:57Z</time>
      </trkpt>
      <trkpt lat="43.2358080" lon="-3.2060940">
        <ele>236.4</ele>
        <time>2022-01-16T11:40:58Z</time>
      </trkpt>
      <trkpt lat="43.2357600" lon="-3.2060990">
        <ele>236.6</ele>
        <time>2022-01-16T11:40:59Z</time>
      </trkpt>
      <trkpt lat="43.2357140" lon="-3.2061070">
        <ele>236.8</ele>
        <time>2022-01-16T11:41:00Z</time>
      </trkpt>
      <trkpt lat="43.2356650" lon="-3.2061100">
        <ele>236.8</ele>
        <time>2022-01-16T11:41:01Z</time>
      </trkpt>
      <trkpt lat="43.2356180" lon="-3.2061140">
        <ele>237.0</ele>
        <time>2022-01-16T11:41:02Z</time>
      </trkpt>
      <trkpt lat="43.2355700" lon="-3.2061180">
        <ele>237.2</ele>
        <time>2022-01-16T11:41:03Z</time>
      </trkpt>
      <trkpt lat="43.2355220" lon="-3.2061220">
        <ele>237.4</ele>
        <time>2022-01-16T11:41:04Z</time>
      </trkpt>
      <trkpt lat="43.2354710" lon="-3.2061180">
        <ele>237.6</ele>
        <time>2022-01-16T11:41:05Z</time>
      </trkpt>
      <trkpt lat="43.2354200" lon="-3.2061010">
        <ele>237.6</ele>
        <time>2022-01-16T11:41:06Z</time>
      </trkpt>
      <trkpt lat="43.2353730" lon="-3.2060800">
        <ele>238.0</ele>
        <time>2022-01-16T11:41:07Z</time>
      </trkpt>
      <trkpt lat="43.2353280" lon="-3.2060540">
        <ele>238.2</ele>
        <time>2022-01-16T11:41:08Z</time>
      </trkpt>
      <trkpt lat="43.2352830" lon="-3.2060240">
        <ele>238.2</ele>
        <time>2022-01-16T11:41:09Z</time>
      </trkpt>
      <trkpt lat="43.2352380" lon="-3.2059890">
        <ele>238.4</ele>
        <time>2022-01-16T11:41:10Z</time>
      </trkpt>
      <trkpt lat="43.2351990" lon="-3.2059470">
        <ele>238.6</ele>
        <time>2022-01-16T11:41:11Z</time>
      </trkpt>
      <trkpt lat="43.2351610" lon="-3.2059020">
        <ele>238.8</ele>
        <time>2022-01-16T11:41:12Z</time>
      </trkpt>
      <trkpt lat="43.2351210" lon="-3.2058610">
        <ele>239.0</ele>
        <time>2022-01-16T11:41:13Z</time>
      </trkpt>
      <trkpt lat="43.2350810" lon="-3.2058200">
        <ele>239.4</ele>
        <time>2022-01-16T11:41:14Z</time>
      </trkpt>
      <trkpt lat="43.2350400" lon="-3.2057810">
        <ele>239.6</ele>
        <time>2022-01-16T11:41:15Z</time>
      </trkpt>
      <trkpt lat="43.2349980" lon="-3.2057430">
        <ele>239.8</ele>
        <time>2022-01-16T11:41:16Z</time>
      </trkpt>
      <trkpt lat="43.2349560" lon="-3.2057050">
        <ele>240.0</ele>
        <time>2022-01-16T11:41:17Z</time>
      </trkpt>
      <trkpt lat="43.2349140" lon="-3.2056640">
        <ele>240.2</ele>
        <time>2022-01-16T11:41:18Z</time>
      </trkpt>
      <trkpt lat="43.2348740" lon="-3.2056220">
        <ele>240.4</ele>
        <time>2022-01-16T11:41:19Z</time>
      </trkpt>
      <trkpt lat="43.2348330" lon="-3.2055800">
        <ele>240.6</ele>
        <time>2022-01-16T11:41:20Z</time>
      </trkpt>
      <trkpt lat="43.2347960" lon="-3.2055300">
        <ele>240.8</ele>
        <time>2022-01-16T11:41:21Z</time>
      </trkpt>
      <trkpt lat="43.2347620" lon="-3.2054750">
        <ele>241.0</ele>
        <time>2022-01-16T11:41:22Z</time>
      </trkpt>
      <trkpt lat="43.2347360" lon="-3.2054130">
        <ele>241.0</ele>
        <time>2022-01-16T11:41:23Z</time>
      </trkpt>
      <trkpt lat="43.2347100" lon="-3.2053560">
        <ele>241.2</ele>
        <time>2022-01-16T11:41:24Z</time>
      </trkpt>
      <trkpt lat="43.2346870" lon="-3.2052940">
        <ele>241.4</ele>
        <time>2022-01-16T11:41:25Z</time>
      </trkpt>
      <trkpt lat="43.2346700" lon="-3.2052270">
        <ele>241.6</ele>
        <time>2022-01-16T11:41:26Z</time>
      </trkpt>
      <trkpt lat="43.2346550" lon="-3.2051590">
        <ele>241.8</ele>
        <time>2022-01-16T11:41:27Z</time>
      </trkpt>
      <trkpt lat="43.2346390" lon="-3.2050880">
        <ele>242.0</ele>
        <time>2022-01-16T11:41:28Z</time>
      </trkpt>
      <trkpt lat="43.2346220" lon="-3.2050220">
        <ele>242.2</ele>
        <time>2022-01-16T11:41:29Z</time>
      </trkpt>
      <trkpt lat="43.2346080" lon="-3.2049530">
        <ele>242.2</ele>
        <time>2022-01-16T11:41:30Z</time>
      </trkpt>
      <trkpt lat="43.2345920" lon="-3.2048820">
        <ele>242.4</ele>
        <time>2022-01-16T11:41:31Z</time>
      </trkpt>
      <trkpt lat="43.2345770" lon="-3.2048130">
        <ele>242.6</ele>
        <time>2022-01-16T11:41:32Z</time>
      </trkpt>
      <trkpt lat="43.2345590" lon="-3.2047430">
        <ele>242.8</ele>
        <time>2022-01-16T11:41:33Z</time>
      </trkpt>
      <trkpt lat="43.2345390" lon="-3.2046750">
        <ele>243.0</ele>
        <time>2022-01-16T11:41:34Z</time>
      </trkpt>
      <trkpt lat="43.2345240" lon="-3.2046030">
        <ele>243.2</ele>
        <time>2022-01-16T11:41:35Z</time>
      </trkpt>
      <trkpt lat="43.2345090" lon="-3.2045300">
        <ele>243.4</ele>
        <time>2022-01-16T11:41:36Z</time>
      </trkpt>
      <trkpt lat="43.2345000" lon="-3.2044530">
        <ele>243.6</ele>
        <time>2022-01-16T11:41:37Z</time>
      </trkpt>
      <trkpt lat="43.2344930" lon="-3.2043750">
        <ele>243.6</ele>
        <time>2022-01-16T11:41:38Z</time>
      </trkpt>
      <trkpt lat="43.2344850" lon="-3.2042960">
        <ele>243.8</ele>
        <time>2022-01-16T11:41:39Z</time>
      </trkpt>
      <trkpt lat="43.2344760" lon="-3.2042130">
        <ele>243.8</ele>
        <time>2022-01-16T11:41:40Z</time>
      </trkpt>
      <trkpt lat="43.2344670" lon="-3.2041290">
        <ele>243.8</ele>
        <time>2022-01-16T11:41:41Z</time>
      </trkpt>
      <trkpt lat="43.2344520" lon="-3.2040510">
        <ele>244.0</ele>
        <time>2022-01-16T11:41:42Z</time>
      </trkpt>
      <trkpt lat="43.2344410" lon="-3.2039650">
        <ele>244.0</ele>
        <time>2022-01-16T11:41:43Z</time>
      </trkpt>
      <trkpt lat="43.2344250" lon="-3.2038790">
        <ele>243.8</ele>
        <time>2022-01-16T11:41:44Z</time>
      </trkpt>
      <trkpt lat="43.2344010" lon="-3.2037990">
        <ele>243.8</ele>
        <time>2022-01-16T11:41:45Z</time>
      </trkpt>
      <trkpt lat="43.2343690" lon="-3.2037200">
        <ele>243.8</ele>
        <time>2022-01-16T11:41:46Z</time>
      </trkpt>
      <trkpt lat="43.2343330" lon="-3.2036430">
        <ele>243.8</ele>
        <time>2022-01-16T11:41:47Z</time>
      </trkpt>
      <trkpt lat="43.2342960" lon="-3.2035730">
        <ele>243.8</ele>
        <time>2022-01-16T11:41:48Z</time>
      </trkpt>
      <trkpt lat="43.2342540" lon="-3.2035090">
        <ele>244.0</ele>
        <time>2022-01-16T11:41:49Z</time>
      </trkpt>
      <trkpt lat="43.2342100" lon="-3.2034480">
        <ele>244.0</ele>
        <time>2022-01-16T11:41:50Z</time>
      </trkpt>
      <trkpt lat="43.2341620" lon="-3.2033920">
        <ele>244.2</ele>
        <time>2022-01-16T11:41:51Z</time>
      </trkpt>
      <trkpt lat="43.2341130" lon="-3.2033410">
        <ele>244.2</ele>
        <time>2022-01-16T11:41:52Z</time>
      </trkpt>
      <trkpt lat="43.2340640" lon="-3.2032900">
        <ele>244.4</ele>
        <time>2022-01-16T11:41:53Z</time>
      </trkpt>
      <trkpt lat="43.2340140" lon="-3.2032380">
        <ele>244.4</ele>
        <time>2022-01-16T11:41:54Z</time>
      </trkpt>
      <trkpt lat="43.2339670" lon="-3.2031860">
        <ele>244.4</ele>
        <time>2022-01-16T11:41:55Z</time>
      </trkpt>
      <trkpt lat="43.2339200" lon="-3.2031310">
        <ele>244.6</ele>
        <time>2022-01-16T11:41:56Z</time>
      </trkpt>
      <trkpt lat="43.2338730" lon="-3.2030770">
        <ele>244.8</ele>
        <time>2022-01-16T11:41:57Z</time>
      </trkpt>
      <trkpt lat="43.2338340" lon="-3.2030190">
        <ele>245.0</ele>
        <time>2022-01-16T11:41:58Z</time>
      </trkpt>
      <trkpt lat="43.2337920" lon="-3.2029580">
        <ele>245.0</ele>
        <time>2022-01-16T11:41:59Z</time>
      </trkpt>
      <trkpt lat="43.2337540" lon="-3.2028890">
        <ele>245.2</ele>
        <time>2022-01-16T11:42:00Z</time>
      </trkpt>
      <trkpt lat="43.2337200" lon="-3.2028170">
        <ele>245.2</ele>
        <time>2022-01-16T11:42:01Z</time>
      </trkpt>
      <trkpt lat="43.2336900" lon="-3.2027410">
        <ele>245.4</ele>
        <time>2022-01-16T11:42:02Z</time>
      </trkpt>
      <trkpt lat="43.2336620" lon="-3.2026650">
        <ele>245.4</ele>
        <time>2022-01-16T11:42:03Z</time>
      </trkpt>
      <trkpt lat="43.2336350" lon="-3.2025890">
        <ele>245.6</ele>
        <time>2022-01-16T11:42:04Z</time>
      </trkpt>
      <trkpt lat="43.2336080" lon="-3.2025150">
        <ele>245.6</ele>
        <time>2022-01-16T11:42:05Z</time>
      </trkpt>
      <trkpt lat="43.2335840" lon="-3.2024410">
        <ele>245.8</ele>
        <time>2022-01-16T11:42:06Z</time>
      </trkpt>
      <trkpt lat="43.2335620" lon="-3.2023660">
        <ele>246.0</ele>
        <time>2022-01-16T11:42:07Z</time>
      </trkpt>
      <trkpt lat="43.2335370" lon="-3.2022960">
        <ele>246.2</ele>
        <time>2022-01-16T11:42:08Z</time>
      </trkpt>
      <trkpt lat="43.2335200" lon="-3.2022240">
        <ele>246.4</ele>
        <time>2022-01-16T11:42:09Z</time>
      </trkpt>
      <trkpt lat="43.2334970" lon="-3.2021560">
        <ele>246.6</ele>
        <time>2022-01-16T11:42:10Z</time>
      </trkpt>
      <trkpt lat="43.2334740" lon="-3.2020880">
        <ele>247.0</ele>
        <time>2022-01-16T11:42:11Z</time>
      </trkpt>
      <trkpt lat="43.2334530" lon="-3.2020160">
        <ele>247.2</ele>
        <time>2022-01-16T11:42:12Z</time>
      </trkpt>
      <trkpt lat="43.2334350" lon="-3.2019440">
        <ele>247.4</ele>
        <time>2022-01-16T11:42:13Z</time>
      </trkpt>
      <trkpt lat="43.2334190" lon="-3.2018710">
        <ele>247.8</ele>
        <time>2022-01-16T11:42:14Z</time>
      </trkpt>
      <trkpt lat="43.2334030" lon="-3.2017950">
        <ele>248.0</ele>
        <time>2022-01-16T11:42:15Z</time>
      </trkpt>
      <trkpt lat="43.2333880" lon="-3.2017240">
        <ele>248.4</ele>
        <time>2022-01-16T11:42:16Z</time>
      </trkpt>
      <trkpt lat="43.2333720" lon="-3.2016540">
        <ele>248.6</ele>
        <time>2022-01-16T11:42:17Z</time>
      </trkpt>
      <trkpt lat="43.2333570" lon="-3.2015850">
        <ele>249.0</ele>
        <time>2022-01-16T11:42:18Z</time>
      </trkpt>
      <trkpt lat="43.2333420" lon="-3.2015130">
        <ele>249.4</ele>
        <time>2022-01-16T11:42:19Z</time>
      </trkpt>
      <trkpt lat="43.2333280" lon="-3.2014460">
        <ele>249.8</ele>
        <time>2022-01-16T11:42:20Z</time>
      </trkpt>
      <trkpt lat="43.2333130" lon="-3.2013770">
        <ele>250.2</ele>
        <time>2022-01-16T11:42:21Z</time>
      </trkpt>
      <trkpt lat="43.2332980" lon="-3.2013030">
        <ele>250.4</ele>
        <time>2022-01-16T11:42:22Z</time>
      </trkpt>
      <trkpt lat="43.2332840" lon="-3.2012280">
        <ele>250.8</ele>
        <time>2022-01-16T11:42:23Z</time>
      </trkpt>
      <trkpt lat="43.2332690" lon="-3.2011510">
        <ele>251.2</ele>
        <time>2022-01-16T11:42:24Z</time>
      </trkpt>
      <trkpt lat="43.2332530" lon="-3.2010790">
        <ele>251.4</ele>
        <time>2022-01-16T11:42:25Z</time>
      </trkpt>
      <trkpt lat="43.2332400" lon="-3.2010070">
        <ele>251.8</ele>
        <time>2022-01-16T11:42:26Z</time>
      </trkpt>
      <trkpt lat="43.2332260" lon="-3.2009360">
        <ele>252.0</ele>
        <time>2022-01-16T11:42:27Z</time>
      </trkpt>
      <trkpt lat="43.2332100" lon="-3.2008650">
        <ele>252.2</ele>
        <time>2022-01-16T11:42:28Z</time>
      </trkpt>
      <trkpt lat="43.2331890" lon="-3.2008000">
        <ele>252.4</ele>
        <time>2022-01-16T11:42:29Z</time>
      </trkpt>
      <trkpt lat="43.2331680" lon="-3.2007330">
        <ele>252.6</ele>
        <time>2022-01-16T11:42:30Z</time>
      </trkpt>
      <trkpt lat="43.2331520" lon="-3.2006630">
        <ele>253.0</ele>
        <time>2022-01-16T11:42:31Z</time>
      </trkpt>
      <trkpt lat="43.2331350" lon="-3.2005960">
        <ele>253.2</ele>
        <time>2022-01-16T11:42:32Z</time>
      </trkpt>
      <trkpt lat="43.2331200" lon="-3.2005310">
        <ele>253.4</ele>
        <time>2022-01-16T11:42:33Z</time>
      </trkpt>
      <trkpt lat="43.2331080" lon="-3.2004630">
        <ele>253.8</ele>
        <time>2022-01-16T11:42:34Z</time>
      </trkpt>
      <trkpt lat="43.2330980" lon="-3.2004000">
        <ele>254.4</ele>
        <time>2022-01-16T11:42:35Z</time>
      </trkpt>
      <trkpt lat="43.2330870" lon="-3.2003370">
        <ele>254.6</ele>
        <time>2022-01-16T11:42:36Z</time>
      </trkpt>
      <trkpt lat="43.2330770" lon="-3.2002700">
        <ele>255.2</ele>
        <time>2022-01-16T11:42:37Z</time>
      </trkpt>
      <trkpt lat="43.2330650" lon="-3.2002030">
        <ele>255.6</ele>
        <time>2022-01-16T11:42:38Z</time>
      </trkpt>
      <trkpt lat="43.2330510" lon="-3.2001360">
        <ele>256.0</ele>
        <time>2022-01-16T11:42:39Z</time>
      </trkpt>
      <trkpt lat="43.2330350" lon="-3.2000700">
        <ele>256.2</ele>
        <time>2022-01-16T11:42:40Z</time>
      </trkpt>
      <trkpt lat="43.2330190" lon="-3.2000030">
        <ele>256.4</ele>
        <time>2022-01-16T11:42:41Z</time>
      </trkpt>
      <trkpt lat="43.2330020" lon="-3.1999370">
        <ele>256.6</ele>
        <time>2022-01-16T11:42:42Z</time>
      </trkpt>
      <trkpt lat="43.2329840" lon="-3.1998740">
        <ele>257.0</ele>
        <time>2022-01-16T11:42:43Z</time>
      </trkpt>
      <trkpt lat="43.2329650" lon="-3.1998110">
        <ele>257.2</ele>
        <time>2022-01-16T11:42:44Z</time>
      </trkpt>
      <trkpt lat="43.2329450" lon="-3.1997490">
        <ele>257.2</ele>
        <time>2022-01-16T11:42:45Z</time>
      </trkpt>
      <trkpt lat="43.2329230" lon="-3.1996880">
        <ele>257.6</ele>
        <time>2022-01-16T11:42:46Z</time>
      </trkpt>
      <trkpt lat="43.2329000" lon="-3.1996280">
        <ele>258.0</ele>
        <time>2022-01-16T11:42:47Z</time>
      </trkpt>
      <trkpt lat="43.2328740" lon="-3.1995700">
        <ele>258.2</ele>
        <time>2022-01-16T11:42:48Z</time>
      </trkpt>
      <trkpt lat="43.2328460" lon="-3.1995130">
        <ele>258.4</ele>
        <time>2022-01-16T11:42:49Z</time>
      </trkpt>
      <trkpt lat="43.2328140" lon="-3.1994590">
        <ele>258.6</ele>
        <time>2022-01-16T11:42:50Z</time>
      </trkpt>
      <trkpt lat="43.2327810" lon="-3.1994060">
        <ele>258.8</ele>
        <time>2022-01-16T11:42:51Z</time>
      </trkpt>
      <trkpt lat="43.2327470" lon="-3.1993550">
        <ele>259.0</ele>
        <time>2022-01-16T11:42:52Z</time>
      </trkpt>
      <trkpt lat="43.2327130" lon="-3.1993110">
        <ele>259.2</ele>
        <time>2022-01-16T11:42:53Z</time>
      </trkpt>
      <trkpt lat="43.2326830" lon="-3.1992740">
        <ele>259.4</ele>
        <time>2022-01-16T11:42:54Z</time>
      </trkpt>
      <trkpt lat="43.2326550" lon="-3.1992460">
        <ele>259.6</ele>
        <time>2022-01-16T11:42:55Z</time>
      </trkpt>
      <trkpt lat="43.2326310" lon="-3.1992220">
        <ele>260.0</ele>
        <time>2022-01-16T11:42:56Z</time>
      </trkpt>
      <trkpt lat="43.2326070" lon="-3.1991990">
        <ele>260.2</ele>
        <time>2022-01-16T11:42:57Z</time>
      </trkpt>
      <trkpt lat="43.2325740" lon="-3.1991760">
        <ele>260.4</ele>
        <time>2022-01-16T11:42:58Z</time>
      </trkpt>
      <trkpt lat="43.2325350" lon="-3.1991550">
        <ele>260.4</ele>
        <time>2022-01-16T11:42:59Z</time>
      </trkpt>
      <trkpt lat="43.2324940" lon="-3.1991370">
        <ele>260.6</ele>
        <time>2022-01-16T11:43:00Z</time>
      </trkpt>
      <trkpt lat="43.2324530" lon="-3.1991190">
        <ele>260.8</ele>
        <time>2022-01-16T11:43:01Z</time>
      </trkpt>
      <trkpt lat="43.2324120" lon="-3.1991020">
        <ele>261.2</ele>
        <time>2022-01-16T11:43:02Z</time>
      </trkpt>
      <trkpt lat="43.2323700" lon="-3.1990880">
        <ele>261.4</ele>
        <time>2022-01-16T11:43:03Z</time>
      </trkpt>
      <trkpt lat="43.2323290" lon="-3.1990740">
        <ele>261.6</ele>
        <time>2022-01-16T11:43:04Z</time>
      </trkpt>
      <trkpt lat="43.2322870" lon="-3.1990590">
        <ele>262.0</ele>
        <time>2022-01-16T11:43:05Z</time>
      </trkpt>
      <trkpt lat="43.2322450" lon="-3.1990470">
        <ele>262.0</ele>
        <time>2022-01-16T11:43:06Z</time>
      </trkpt>
      <trkpt lat="43.2322030" lon="-3.1990390">
        <ele>262.2</ele>
        <time>2022-01-16T11:43:07Z</time>
      </trkpt>
      <trkpt lat="43.2321620" lon="-3.1990320">
        <ele>262.4</ele>
        <time>2022-01-16T11:43:08Z</time>
      </trkpt>
      <trkpt lat="43.2321200" lon="-3.1990240">
        <ele>262.6</ele>
        <time>2022-01-16T11:43:09Z</time>
      </trkpt>
      <trkpt lat="43.2320790" lon="-3.1990170">
        <ele>263.0</ele>
        <time>2022-01-16T11:43:10Z</time>
      </trkpt>
      <trkpt lat="43.2320380" lon="-3.1990090">
        <ele>263.2</ele>
        <time>2022-01-16T11:43:11Z</time>
      </trkpt>
      <trkpt lat="43.2319970" lon="-3.1990010">
        <ele>263.6</ele>
        <time>2022-01-16T11:43:12Z</time>
      </trkpt>
      <trkpt lat="43.2319560" lon="-3.1989920">
        <ele>263.8</ele>
        <time>2022-01-16T11:43:13Z</time>
      </trkpt>
      <trkpt lat="43.2319140" lon="-3.1989840">
        <ele>264.0</ele>
        <time>2022-01-16T11:43:14Z</time>
      </trkpt>
      <trkpt lat="43.2318730" lon="-3.1989770">
        <ele>264.4</ele>
        <time>2022-01-16T11:43:15Z</time>
      </trkpt>
      <trkpt lat="43.2318310" lon="-3.1989690">
        <ele>264.6</ele>
        <time>2022-01-16T11:43:16Z</time>
      </trkpt>
      <trkpt lat="43.2317890" lon="-3.1989630">
        <ele>264.8</ele>
        <time>2022-01-16T11:43:17Z</time>
      </trkpt>
      <trkpt lat="43.2317460" lon="-3.1989530">
        <ele>265.0</ele>
        <time>2022-01-16T11:43:18Z</time>
      </trkpt>
      <trkpt lat="43.2317060" lon="-3.1989410">
        <ele>265.4</ele>
        <time>2022-01-16T11:43:19Z</time>
      </trkpt>
      <trkpt lat="43.2316650" lon="-3.1989290">
        <ele>265.4</ele>
        <time>2022-01-16T11:43:20Z</time>
      </trkpt>
      <trkpt lat="43.2316240" lon="-3.1989220">
        <ele>265.6</ele>
        <time>2022-01-16T11:43:21Z</time>
      </trkpt>
      <trkpt lat="43.2315800" lon="-3.1989140">
        <ele>265.6</ele>
        <time>2022-01-16T11:43:22Z</time>
      </trkpt>
      <trkpt lat="43.2315350" lon="-3.1989040">
        <ele>265.8</ele>
        <time>2022-01-16T11:43:23Z</time>
      </trkpt>
      <trkpt lat="43.2314900" lon="-3.1988930">
        <ele>266.0</ele>
        <time>2022-01-16T11:43:24Z</time>
      </trkpt>
      <trkpt lat="43.2314450" lon="-3.1988820">
        <ele>266.2</ele>
        <time>2022-01-16T11:43:25Z</time>
      </trkpt>
      <trkpt lat="43.2313990" lon="-3.1988690">
        <ele>266.2</ele>
        <time>2022-01-16T11:43:26Z</time>
      </trkpt>
      <trkpt lat="43.2313520" lon="-3.1988530">
        <ele>266.6</ele>
        <time>2022-01-16T11:43:27Z</time>
      </trkpt>
      <trkpt lat="43.2313040" lon="-3.1988340">
        <ele>266.8</ele>
        <time>2022-01-16T11:43:28Z</time>
      </trkpt>
      <trkpt lat="43.2312550" lon="-3.1988110">
        <ele>266.8</ele>
        <time>2022-01-16T11:43:29Z</time>
      </trkpt>
      <trkpt lat="43.2312090" lon="-3.1987820">
        <ele>266.8</ele>
        <time>2022-01-16T11:43:30Z</time>
      </trkpt>
      <trkpt lat="43.2311620" lon="-3.1987500">
        <ele>266.8</ele>
        <time>2022-01-16T11:43:31Z</time>
      </trkpt>
      <trkpt lat="43.2311160" lon="-3.1987130">
        <ele>266.8</ele>
        <time>2022-01-16T11:43:32Z</time>
      </trkpt>
      <trkpt lat="43.2310650" lon="-3.1986700">
        <ele>266.6</ele>
        <time>2022-01-16T11:43:33Z</time>
      </trkpt>
      <trkpt lat="43.2310160" lon="-3.1986200">
        <ele>266.8</ele>
        <time>2022-01-16T11:43:34Z</time>
      </trkpt>
      <trkpt lat="43.2309710" lon="-3.1985640">
        <ele>266.8</ele>
        <time>2022-01-16T11:43:35Z</time>
      </trkpt>
      <trkpt lat="43.2309330" lon="-3.1985050">
        <ele>266.8</ele>
        <time>2022-01-16T11:43:36Z</time>
      </trkpt>
      <trkpt lat="43.2308960" lon="-3.1984450">
        <ele>266.8</ele>
        <time>2022-01-16T11:43:37Z</time>
      </trkpt>
      <trkpt lat="43.2308640" lon="-3.1983800">
        <ele>266.8</ele>
        <time>2022-01-16T11:43:38Z</time>
      </trkpt>
      <trkpt lat="43.2308340" lon="-3.1983190">
        <ele>266.8</ele>
        <time>2022-01-16T11:43:39Z</time>
      </trkpt>
      <trkpt lat="43.2308070" lon="-3.1982570">
        <ele>266.8</ele>
        <time>2022-01-16T11:43:40Z</time>
      </trkpt>
      <trkpt lat="43.2307850" lon="-3.1981950">
        <ele>267.0</ele>
        <time>2022-01-16T11:43:41Z</time>
      </trkpt>
      <trkpt lat="43.2307620" lon="-3.1981340">
        <ele>267.2</ele>
        <time>2022-01-16T11:43:42Z</time>
      </trkpt>
      <trkpt lat="43.2307450" lon="-3.1980630">
        <ele>267.2</ele>
        <time>2022-01-16T11:43:43Z</time>
      </trkpt>
      <trkpt lat="43.2307190" lon="-3.1980020">
        <ele>267.4</ele>
        <time>2022-01-16T11:43:44Z</time>
      </trkpt>
      <trkpt lat="43.2306970" lon="-3.1979420">
        <ele>267.6</ele>
        <time>2022-01-16T11:43:45Z</time>
      </trkpt>
      <trkpt lat="43.2306790" lon="-3.1978780">
        <ele>267.8</ele>
        <time>2022-01-16T11:43:46Z</time>
      </trkpt>
      <trkpt lat="43.2306600" lon="-3.1978150">
        <ele>268.0</ele>
        <time>2022-01-16T11:43:47Z</time>
      </trkpt>
      <trkpt lat="43.2306350" lon="-3.1977560">
        <ele>268.4</ele>
        <time>2022-01-16T11:43:48Z</time>
      </trkpt>
      <trkpt lat="43.2306090" lon="-3.1976960">
        <ele>268.6</ele>
        <time>2022-01-16T11:43:49Z</time>
      </trkpt>
      <trkpt lat="43.2305810" lon="-3.1976330">
        <ele>268.8</ele>
        <time>2022-01-16T11:43:50Z</time>
      </trkpt>
      <trkpt lat="43.2305500" lon="-3.1975750">
        <ele>269.0</ele>
        <time>2022-01-16T11:43:51Z</time>
      </trkpt>
      <trkpt lat="43.2305200" lon="-3.1975130">
        <ele>269.0</ele>
        <time>2022-01-16T11:43:52Z</time>
      </trkpt>
      <trkpt lat="43.2304890" lon="-3.1974510">
        <ele>269.4</ele>
        <time>2022-01-16T11:43:53Z</time>
      </trkpt>
      <trkpt lat="43.2304570" lon="-3.1973930">
        <ele>269.6</ele>
        <time>2022-01-16T11:43:54Z</time>
      </trkpt>
      <trkpt lat="43.2304260" lon="-3.1973320">
        <ele>269.8</ele>
        <time>2022-01-16T11:43:55Z</time>
      </trkpt>
      <trkpt lat="43.2303950" lon="-3.1972730">
        <ele>270.0</ele>
        <time>2022-01-16T11:43:56Z</time>
      </trkpt>
      <trkpt lat="43.2303680" lon="-3.1972070">
        <ele>270.2</ele>
        <time>2022-01-16T11:43:57Z</time>
      </trkpt>
      <trkpt lat="43.2303410" lon="-3.1971450">
        <ele>270.4</ele>
        <time>2022-01-16T11:43:58Z</time>
      </trkpt>
      <trkpt lat="43.2303120" lon="-3.1970840">
        <ele>270.4</ele>
        <time>2022-01-16T11:43:59Z</time>
      </trkpt>
      <trkpt lat="43.2302850" lon="-3.1970240">
        <ele>270.6</ele>
        <time>2022-01-16T11:44:00Z</time>
      </trkpt>
      <trkpt lat="43.2302560" lon="-3.1969650">
        <ele>270.8</ele>
        <time>2022-01-16T11:44:01Z</time>
      </trkpt>
      <trkpt lat="43.2302220" lon="-3.1969100">
        <ele>271.0</ele>
        <time>2022-01-16T11:44:02Z</time>
      </trkpt>
      <trkpt lat="43.2301890" lon="-3.1968550">
        <ele>271.2</ele>
        <time>2022-01-16T11:44:03Z</time>
      </trkpt>
      <trkpt lat="43.2301550" lon="-3.1968040">
        <ele>271.4</ele>
        <time>2022-01-16T11:44:04Z</time>
      </trkpt>
      <trkpt lat="43.2301210" lon="-3.1967550">
        <ele>271.6</ele>
        <time>2022-01-16T11:44:05Z</time>
      </trkpt>
      <trkpt lat="43.2300860" lon="-3.1967020">
        <ele>271.8</ele>
        <time>2022-01-16T11:44:06Z</time>
      </trkpt>
      <trkpt lat="43.2300510" lon="-3.1966500">
        <ele>271.8</ele>
        <time>2022-01-16T11:44:07Z</time>
      </trkpt>
      <trkpt lat="43.2300180" lon="-3.1965960">
        <ele>272.0</ele>
        <time>2022-01-16T11:44:08Z</time>
      </trkpt>
      <trkpt lat="43.2299830" lon="-3.1965490">
        <ele>272.2</ele>
        <time>2022-01-16T11:44:09Z</time>
      </trkpt>
      <trkpt lat="43.2299500" lon="-3.1964960">
        <ele>272.4</ele>
        <time>2022-01-16T11:44:10Z</time>
      </trkpt>
      <trkpt lat="43.2299200" lon="-3.1964420">
        <ele>272.8</ele>
        <time>2022-01-16T11:44:11Z</time>
      </trkpt>
      <trkpt lat="43.2298840" lon="-3.1963900">
        <ele>273.0</ele>
        <time>2022-01-16T11:44:12Z</time>
      </trkpt>
      <trkpt lat="43.2298480" lon="-3.1963380">
        <ele>273.2</ele>
        <time>2022-01-16T11:44:13Z</time>
      </trkpt>
      <trkpt lat="43.2298110" lon="-3.1962860">
        <ele>273.4</ele>
        <time>2022-01-16T11:44:14Z</time>
      </trkpt>
      <trkpt lat="43.2297740" lon="-3.1962340">
        <ele>273.6</ele>
        <time>2022-01-16T11:44:15Z</time>
      </trkpt>
      <trkpt lat="43.2297480" lon="-3.1961700">
        <ele>273.8</ele>
        <time>2022-01-16T11:44:16Z</time>
      </trkpt>
      <trkpt lat="43.2297160" lon="-3.1961110">
        <ele>273.8</ele>
        <time>2022-01-16T11:44:17Z</time>
      </trkpt>
      <trkpt lat="43.2296850" lon="-3.1960570">
        <ele>274.0</ele>
        <time>2022-01-16T11:44:18Z</time>
      </trkpt>
      <trkpt lat="43.2296580" lon="-3.1960020">
        <ele>274.2</ele>
        <time>2022-01-16T11:44:19Z</time>
      </trkpt>
      <trkpt lat="43.2296300" lon="-3.1959430">
        <ele>274.6</ele>
        <time>2022-01-16T11:44:20Z</time>
      </trkpt>
      <trkpt lat="43.2295990" lon="-3.1958830">
        <ele>274.8</ele>
        <time>2022-01-16T11:44:21Z</time>
      </trkpt>
      <trkpt lat="43.2295720" lon="-3.1958160">
        <ele>275.0</ele>
        <time>2022-01-16T11:44:22Z</time>
      </trkpt>
      <trkpt lat="43.2295460" lon="-3.1957430">
        <ele>275.2</ele>
        <time>2022-01-16T11:44:23Z</time>
      </trkpt>
      <trkpt lat="43.2295200" lon="-3.1956650">
        <ele>275.4</ele>
        <time>2022-01-16T11:44:24Z</time>
      </trkpt>
      <trkpt lat="43.2294960" lon="-3.1955800">
        <ele>275.6</ele>
        <time>2022-01-16T11:44:25Z</time>
      </trkpt>
      <trkpt lat="43.2294730" lon="-3.1954880">
        <ele>275.8</ele>
        <time>2022-01-16T11:44:26Z</time>
      </trkpt>
      <trkpt lat="43.2294510" lon="-3.1953910">
        <ele>275.8</ele>
        <time>2022-01-16T11:44:27Z</time>
      </trkpt>
      <trkpt lat="43.2294260" lon="-3.1952970">
        <ele>276.0</ele>
        <time>2022-01-16T11:44:28Z</time>
      </trkpt>
      <trkpt lat="43.2294000" lon="-3.1952000">
        <ele>276.2</ele>
        <time>2022-01-16T11:44:29Z</time>
      </trkpt>
      <trkpt lat="43.2293750" lon="-3.1951020">
        <ele>276.4</ele>
        <time>2022-01-16T11:44:30Z</time>
      </trkpt>
      <trkpt lat="43.2293480" lon="-3.1949950">
        <ele>276.8</ele>
        <time>2022-01-16T11:44:31Z</time>
      </trkpt>
      <trkpt lat="43.2293210" lon="-3.1948910">
        <ele>277.4</ele>
        <time>2022-01-16T11:44:32Z</time>
      </trkpt>
      <trkpt lat="43.2292910" lon="-3.1947880">
        <ele>277.6</ele>
        <time>2022-01-16T11:44:33Z</time>
      </trkpt>
      <trkpt lat="43.2292630" lon="-3.1946860">
        <ele>278.0</ele>
        <time>2022-01-16T11:44:34Z</time>
      </trkpt>
      <trkpt lat="43.2292360" lon="-3.1945850">
        <ele>278.4</ele>
        <time>2022-01-16T11:44:35Z</time>
      </trkpt>
      <trkpt lat="43.2292080" lon="-3.1944840">
        <ele>279.2</ele>
        <time>2022-01-16T11:44:36Z</time>
      </trkpt>
      <trkpt lat="43.2291760" lon="-3.1943840">
        <ele>279.8</ele>
        <time>2022-01-16T11:44:37Z</time>
      </trkpt>
      <trkpt lat="43.2291400" lon="-3.1942860">
        <ele>280.4</ele>
        <time>2022-01-16T11:44:38Z</time>
      </trkpt>
      <trkpt lat="43.2290970" lon="-3.1941950">
        <ele>280.8</ele>
        <time>2022-01-16T11:44:39Z</time>
      </trkpt>
      <trkpt lat="43.2290510" lon="-3.1941080">
        <ele>281.2</ele>
        <time>2022-01-16T11:44:40Z</time>
      </trkpt>
      <trkpt lat="43.2290030" lon="-3.1940280">
        <ele>281.6</ele>
        <time>2022-01-16T11:44:41Z</time>
      </trkpt>
      <trkpt lat="43.2289430" lon="-3.1939540">
        <ele>281.8</ele>
        <time>2022-01-16T11:44:42Z</time>
      </trkpt>
      <trkpt lat="43.2288820" lon="-3.1938820">
        <ele>282.2</ele>
        <time>2022-01-16T11:44:43Z</time>
      </trkpt>
      <trkpt lat="43.2288230" lon="-3.1938120">
        <ele>282.6</ele>
        <time>2022-01-16T11:44:44Z</time>
      </trkpt>
      <trkpt lat="43.2287670" lon="-3.1937400">
        <ele>283.0</ele>
        <time>2022-01-16T11:44:45Z</time>
      </trkpt>
      <trkpt lat="43.2287120" lon="-3.1936640">
        <ele>283.6</ele>
        <time>2022-01-16T11:44:46Z</time>
      </trkpt>
      <trkpt lat="43.2286540" lon="-3.1935910">
        <ele>284.2</ele>
        <time>2022-01-16T11:44:47Z</time>
      </trkpt>
      <trkpt lat="43.2285940" lon="-3.1935210">
        <ele>284.6</ele>
        <time>2022-01-16T11:44:48Z</time>
      </trkpt>
      <trkpt lat="43.2285370" lon="-3.1934530">
        <ele>285.0</ele>
        <time>2022-01-16T11:44:49Z</time>
      </trkpt>
      <trkpt lat="43.2284790" lon="-3.1933810">
        <ele>285.2</ele>
        <time>2022-01-16T11:44:50Z</time>
      </trkpt>
      <trkpt lat="43.2284220" lon="-3.1933110">
        <ele>285.6</ele>
        <time>2022-01-16T11:44:51Z</time>
      </trkpt>
      <trkpt lat="43.2283650" lon="-3.1932420">
        <ele>285.8</ele>
        <time>2022-01-16T11:44:52Z</time>
      </trkpt>
      <trkpt lat="43.2283090" lon="-3.1931740">
        <ele>286.6</ele>
        <time>2022-01-16T11:44:53Z</time>
      </trkpt>
      <trkpt lat="43.2282540" lon="-3.1931060">
        <ele>287.2</ele>
        <time>2022-01-16T11:44:54Z</time>
      </trkpt>
      <trkpt lat="43.2281980" lon="-3.1930440">
        <ele>287.8</ele>
        <time>2022-01-16T11:44:55Z</time>
      </trkpt>
      <trkpt lat="43.2281410" lon="-3.1929870">
        <ele>288.0</ele>
        <time>2022-01-16T11:44:56Z</time>
      </trkpt>
      <trkpt lat="43.2280880" lon="-3.1929330">
        <ele>288.4</ele>
        <time>2022-01-16T11:44:57Z</time>
      </trkpt>
      <trkpt lat="43.2280360" lon="-3.1928850">
        <ele>289.0</ele>
        <time>2022-01-16T11:44:58Z</time>
      </trkpt>
      <trkpt lat="43.2279860" lon="-3.1928340">
        <ele>289.6</ele>
        <time>2022-01-16T11:44:59Z</time>
      </trkpt>
      <trkpt lat="43.2279390" lon="-3.1927900">
        <ele>290.2</ele>
        <time>2022-01-16T11:45:00Z</time>
      </trkpt>
      <trkpt lat="43.2278920" lon="-3.1927490">
        <ele>290.4</ele>
        <time>2022-01-16T11:45:01Z</time>
      </trkpt>
      <trkpt lat="43.2278450" lon="-3.1927110">
        <ele>290.8</ele>
        <time>2022-01-16T11:45:02Z</time>
      </trkpt>
      <trkpt lat="43.2277980" lon="-3.1926750">
        <ele>291.0</ele>
        <time>2022-01-16T11:45:03Z</time>
      </trkpt>
      <trkpt lat="43.2277510" lon="-3.1926390">
        <ele>291.2</ele>
        <time>2022-01-16T11:45:04Z</time>
      </trkpt>
      <trkpt lat="43.2277050" lon="-3.1926050">
        <ele>291.4</ele>
        <time>2022-01-16T11:45:05Z</time>
      </trkpt>
      <trkpt lat="43.2276600" lon="-3.1925710">
        <ele>291.8</ele>
        <time>2022-01-16T11:45:06Z</time>
      </trkpt>
      <trkpt lat="43.2276120" lon="-3.1925370">
        <ele>292.0</ele>
        <time>2022-01-16T11:45:07Z</time>
      </trkpt>
      <trkpt lat="43.2275680" lon="-3.1925020">
        <ele>292.2</ele>
        <time>2022-01-16T11:45:08Z</time>
      </trkpt>
      <trkpt lat="43.2275210" lon="-3.1924660">
        <ele>292.4</ele>
        <time>2022-01-16T11:45:09Z</time>
      </trkpt>
      <trkpt lat="43.2274730" lon="-3.1924280">
        <ele>292.8</ele>
        <time>2022-01-16T11:45:10Z</time>
      </trkpt>
      <trkpt lat="43.2274250" lon="-3.1923890">
        <ele>293.0</ele>
        <time>2022-01-16T11:45:11Z</time>
      </trkpt>
      <trkpt lat="43.2273840" lon="-3.1923470">
        <ele>293.2</ele>
        <time>2022-01-16T11:45:12Z</time>
      </trkpt>
      <trkpt lat="43.2273420" lon="-3.1923000">
        <ele>293.4</ele>
        <time>2022-01-16T11:45:13Z</time>
      </trkpt>
      <trkpt lat="43.2273040" lon="-3.1922490">
        <ele>293.8</ele>
        <time>2022-01-16T11:45:14Z</time>
      </trkpt>
      <trkpt lat="43.2272680" lon="-3.1921930">
        <ele>294.2</ele>
        <time>2022-01-16T11:45:15Z</time>
      </trkpt>
      <trkpt lat="43.2272390" lon="-3.1921320">
        <ele>294.6</ele>
        <time>2022-01-16T11:45:16Z</time>
      </trkpt>
      <trkpt lat="43.2272110" lon="-3.1920700">
        <ele>294.8</ele>
        <time>2022-01-16T11:45:17Z</time>
      </trkpt>
      <trkpt lat="43.2271840" lon="-3.1920050">
        <ele>295.2</ele>
        <time>2022-01-16T11:45:18Z</time>
      </trkpt>
      <trkpt lat="43.2271590" lon="-3.1919390">
        <ele>295.8</ele>
        <time>2022-01-16T11:45:19Z</time>
      </trkpt>
      <trkpt lat="43.2271330" lon="-3.1918710">
        <ele>296.0</ele>
        <time>2022-01-16T11:45:20Z</time>
      </trkpt>
      <trkpt lat="43.2271100" lon="-3.1918020">
        <ele>296.2</ele>
        <time>2022-01-16T11:45:21Z</time>
      </trkpt>
      <trkpt lat="43.2270880" lon="-3.1917340">
        <ele>296.4</ele>
        <time>2022-01-16T11:45:22Z</time>
      </trkpt>
      <trkpt lat="43.2270660" lon="-3.1916660">
        <ele>296.6</ele>
        <time>2022-01-16T11:45:23Z</time>
      </trkpt>
      <trkpt lat="43.2270420" lon="-3.1915990">
        <ele>296.8</ele>
        <time>2022-01-16T11:45:24Z</time>
      </trkpt>
      <trkpt lat="43.2270210" lon="-3.1915300">
        <ele>297.0</ele>
        <time>2022-01-16T11:45:25Z</time>
      </trkpt>
      <trkpt lat="43.2270000" lon="-3.1914630">
        <ele>297.2</ele>
        <time>2022-01-16T11:45:26Z</time>
      </trkpt>
      <trkpt lat="43.2269800" lon="-3.1913960">
        <ele>297.6</ele>
        <time>2022-01-16T11:45:27Z</time>
      </trkpt>
      <trkpt lat="43.2269630" lon="-3.1913340">
        <ele>297.8</ele>
        <time>2022-01-16T11:45:28Z</time>
      </trkpt>
      <trkpt lat="43.2269450" lon="-3.1912770">
        <ele>298.0</ele>
        <time>2022-01-16T11:45:29Z</time>
      </trkpt>
      <trkpt lat="43.2269230" lon="-3.1912140">
        <ele>298.0</ele>
        <time>2022-01-16T11:45:30Z</time>
      </trkpt>
      <trkpt lat="43.2268950" lon="-3.1911440">
        <ele>298.0</ele>
        <time>2022-01-16T11:45:31Z</time>
      </trkpt>
      <trkpt lat="43.2268710" lon="-3.1910770">
        <ele>298.0</ele>
        <time>2022-01-16T11:45:32Z</time>
      </trkpt>
      <trkpt lat="43.2268470" lon="-3.1910070">
        <ele>298.2</ele>
        <time>2022-01-16T11:45:33Z</time>
      </trkpt>
      <trkpt lat="43.2268270" lon="-3.1909350">
        <ele>298.2</ele>
        <time>2022-01-16T11:45:34Z</time>
      </trkpt>
      <trkpt lat="43.2268060" lon="-3.1908640">
        <ele>298.6</ele>
        <time>2022-01-16T11:45:35Z</time>
      </trkpt>
      <trkpt lat="43.2267830" lon="-3.1907950">
        <ele>299.0</ele>
        <time>2022-01-16T11:45:36Z</time>
      </trkpt>
      <trkpt lat="43.2267650" lon="-3.1907310">
        <ele>299.2</ele>
        <time>2022-01-16T11:45:37Z</time>
      </trkpt>
      <trkpt lat="43.2267500" lon="-3.1906660">
        <ele>299.4</ele>
        <time>2022-01-16T11:45:38Z</time>
      </trkpt>
      <trkpt lat="43.2267320" lon="-3.1906130">
        <ele>299.6</ele>
        <time>2022-01-16T11:45:39Z</time>
      </trkpt>
      <trkpt lat="43.2267120" lon="-3.1905720">
        <ele>299.8</ele>
        <time>2022-01-16T11:45:40Z</time>
      </trkpt>
      <trkpt lat="43.2266920" lon="-3.1905350">
        <ele>300.0</ele>
        <time>2022-01-16T11:45:41Z</time>
      </trkpt>
      <trkpt lat="43.2266740" lon="-3.1905020">
        <ele>300.0</ele>
        <time>2022-01-16T11:45:42Z</time>
      </trkpt>
      <trkpt lat="43.2266570" lon="-3.1904740">
        <ele>300.0</ele>
        <time>2022-01-16T11:45:43Z</time>
      </trkpt>
      <trkpt lat="43.2266450" lon="-3.1904510">
        <ele>300.0</ele>
        <time>2022-01-16T11:45:44Z</time>
      </trkpt>
      <trkpt lat="43.2266380" lon="-3.1904320">
        <ele>300.0</ele>
        <time>2022-01-16T11:45:45Z</time>
      </trkpt>
      <trkpt lat="43.2266320" lon="-3.1904170">
        <ele>300.0</ele>
        <time>2022-01-16T11:45:46Z</time>
      </trkpt>
      <trkpt lat="43.2266270" lon="-3.1904050">
        <ele>300.2</ele>
        <time>2022-01-16T11:45:47Z</time>
      </trkpt>
      <trkpt lat="43.2266250" lon="-3.1904000">
        <ele>300.2</ele>
        <time>2022-01-16T11:45:48Z</time>
      </trkpt>
      <trkpt lat="43.2266250" lon="-3.1903980">
        <ele>300.2</ele>
        <time>2022-01-16T11:45:49Z</time>
      </trkpt>
      <trkpt lat="43.2266330" lon="-3.1902950">
        <ele>299.6</ele>
        <time>2022-01-16T11:45:58Z</time>
      </trkpt>
      <trkpt lat="43.2266500" lon="-3.1903150">
        <ele>299.4</ele>
        <time>2022-01-16T11:45:59Z</time>
      </trkpt>
      <trkpt lat="43.2266680" lon="-3.1903370">
        <ele>299.4</ele>
        <time>2022-01-16T11:46:00Z</time>
      </trkpt>
      <trkpt lat="43.2266870" lon="-3.1903620">
        <ele>299.4</ele>
        <time>2022-01-16T11:46:01Z</time>
      </trkpt>
      <trkpt lat="43.2267030" lon="-3.1903890">
        <ele>299.6</ele>
        <time>2022-01-16T11:46:02Z</time>
      </trkpt>
      <trkpt lat="43.2267150" lon="-3.1904190">
        <ele>299.6</ele>
        <time>2022-01-16T11:46:03Z</time>
      </trkpt>
      <trkpt lat="43.2267210" lon="-3.1904470">
        <ele>299.6</ele>
        <time>2022-01-16T11:46:04Z</time>
      </trkpt>
      <trkpt lat="43.2267120" lon="-3.1904730">
        <ele>299.6</ele>
        <time>2022-01-16T11:46:05Z</time>
      </trkpt>
      <trkpt lat="43.2266940" lon="-3.1904850">
        <ele>299.6</ele>
        <time>2022-01-16T11:46:06Z</time>
      </trkpt>
      <trkpt lat="43.2266760" lon="-3.1904830">
        <ele>299.8</ele>
        <time>2022-01-16T11:46:07Z</time>
      </trkpt>
      <trkpt lat="43.2266610" lon="-3.1904680">
        <ele>299.8</ele>
        <time>2022-01-16T11:46:08Z</time>
      </trkpt>
      <trkpt lat="43.2266450" lon="-3.1904450">
        <ele>299.8</ele>
        <time>2022-01-16T11:46:09Z</time>
      </trkpt>
      <trkpt lat="43.2266300" lon="-3.1904160">
        <ele>299.8</ele>
        <time>2022-01-16T11:46:10Z</time>
      </trkpt>
      <trkpt lat="43.2266130" lon="-3.1903870">
        <ele>299.8</ele>
        <time>2022-01-16T11:46:11Z</time>
      </trkpt>
      <trkpt lat="43.2265920" lon="-3.1903480">
        <ele>299.8</ele>
        <time>2022-01-16T11:46:12Z</time>
      </trkpt>
      <trkpt lat="43.2265740" lon="-3.1903110">
        <ele>299.8</ele>
        <time>2022-01-16T11:46:13Z</time>
      </trkpt>
      <trkpt lat="43.2265530" lon="-3.1902770">
        <ele>299.6</ele>
        <time>2022-01-16T11:46:14Z</time>
      </trkpt>
      <trkpt lat="43.2265280" lon="-3.1902450">
        <ele>299.4</ele>
        <time>2022-01-16T11:46:15Z</time>
      </trkpt>
      <trkpt lat="43.2265040" lon="-3.1902060">
        <ele>299.2</ele>
        <time>2022-01-16T11:46:16Z</time>
      </trkpt>
      <trkpt lat="43.2264760" lon="-3.1901660">
        <ele>299.0</ele>
        <time>2022-01-16T11:46:17Z</time>
      </trkpt>
      <trkpt lat="43.2264450" lon="-3.1901270">
        <ele>298.8</ele>
        <time>2022-01-16T11:46:18Z</time>
      </trkpt>
      <trkpt lat="43.2264090" lon="-3.1900870">
        <ele>298.6</ele>
        <time>2022-01-16T11:46:19Z</time>
      </trkpt>
      <trkpt lat="43.2263700" lon="-3.1900410">
        <ele>298.4</ele>
        <time>2022-01-16T11:46:20Z</time>
      </trkpt>
      <trkpt lat="43.2263240" lon="-3.1899960">
        <ele>298.0</ele>
        <time>2022-01-16T11:46:21Z</time>
      </trkpt>
      <trkpt lat="43.2262750" lon="-3.1899490">
        <ele>297.6</ele>
        <time>2022-01-16T11:46:22Z</time>
      </trkpt>
      <trkpt lat="43.2262220" lon="-3.1899020">
        <ele>297.2</ele>
        <time>2022-01-16T11:46:23Z</time>
      </trkpt>
      <trkpt lat="43.2261640" lon="-3.1898590">
        <ele>296.6</ele>
        <time>2022-01-16T11:46:24Z</time>
      </trkpt>
      <trkpt lat="43.2261030" lon="-3.1898190">
        <ele>296.0</ele>
        <time>2022-01-16T11:46:25Z</time>
      </trkpt>
      <trkpt lat="43.2260400" lon="-3.1897820">
        <ele>295.6</ele>
        <time>2022-01-16T11:46:26Z</time>
      </trkpt>
      <trkpt lat="43.2259730" lon="-3.1897470">
        <ele>295.4</ele>
        <time>2022-01-16T11:46:27Z</time>
      </trkpt>
      <trkpt lat="43.2259040" lon="-3.1897130">
        <ele>295.0</ele>
        <time>2022-01-16T11:46:28Z</time>
      </trkpt>
      <trkpt lat="43.2258310" lon="-3.1896840">
        <ele>294.6</ele>
        <time>2022-01-16T11:46:29Z</time>
      </trkpt>
      <trkpt lat="43.2257620" lon="-3.1896600">
        <ele>294.4</ele>
        <time>2022-01-16T11:46:30Z</time>
      </trkpt>
      <trkpt lat="43.2256970" lon="-3.1896420">
        <ele>294.2</ele>
        <time>2022-01-16T11:46:31Z</time>
      </trkpt>
      <trkpt lat="43.2256350" lon="-3.1896290">
        <ele>294.2</ele>
        <time>2022-01-16T11:46:32Z</time>
      </trkpt>
      <trkpt lat="43.2255750" lon="-3.1896190">
        <ele>294.0</ele>
        <time>2022-01-16T11:46:33Z</time>
      </trkpt>
      <trkpt lat="43.2255240" lon="-3.1896110">
        <ele>293.8</ele>
        <time>2022-01-16T11:46:34Z</time>
      </trkpt>
      <trkpt lat="43.2254740" lon="-3.1896040">
        <ele>293.4</ele>
        <time>2022-01-16T11:46:35Z</time>
      </trkpt>
      <trkpt lat="43.2254260" lon="-3.1895940">
        <ele>293.2</ele>
        <time>2022-01-16T11:46:36Z</time>
      </trkpt>
      <trkpt lat="43.2253750" lon="-3.1895810">
        <ele>293.0</ele>
        <time>2022-01-16T11:46:37Z</time>
      </trkpt>
      <trkpt lat="43.2253220" lon="-3.1895640">
        <ele>292.8</ele>
        <time>2022-01-16T11:46:38Z</time>
      </trkpt>
      <trkpt lat="43.2252700" lon="-3.1895460">
        <ele>292.6</ele>
        <time>2022-01-16T11:46:39Z</time>
      </trkpt>
      <trkpt lat="43.2252180" lon="-3.1895200">
        <ele>292.4</ele>
        <time>2022-01-16T11:46:40Z</time>
      </trkpt>
      <trkpt lat="43.2251640" lon="-3.1894870">
        <ele>292.2</ele>
        <time>2022-01-16T11:46:41Z</time>
      </trkpt>
      <trkpt lat="43.2251080" lon="-3.1894530">
        <ele>292.0</ele>
        <time>2022-01-16T11:46:42Z</time>
      </trkpt>
      <trkpt lat="43.2250540" lon="-3.1894170">
        <ele>291.6</ele>
        <time>2022-01-16T11:46:43Z</time>
      </trkpt>
      <trkpt lat="43.2250060" lon="-3.1893780">
        <ele>291.4</ele>
        <time>2022-01-16T11:46:44Z</time>
      </trkpt>
      <trkpt lat="43.2249590" lon="-3.1893340">
        <ele>291.4</ele>
        <time>2022-01-16T11:46:45Z</time>
      </trkpt>
      <trkpt lat="43.2249110" lon="-3.1892840">
        <ele>291.4</ele>
        <time>2022-01-16T11:46:46Z</time>
      </trkpt>
      <trkpt lat="43.2248530" lon="-3.1892300">
        <ele>291.2</ele>
        <time>2022-01-16T11:46:47Z</time>
      </trkpt>
      <trkpt lat="43.2247940" lon="-3.1891770">
        <ele>290.8</ele>
        <time>2022-01-16T11:46:48Z</time>
      </trkpt>
      <trkpt lat="43.2247330" lon="-3.1891270">
        <ele>290.4</ele>
        <time>2022-01-16T11:46:49Z</time>
      </trkpt>
      <trkpt lat="43.2246670" lon="-3.1890760">
        <ele>290.2</ele>
        <time>2022-01-16T11:46:50Z</time>
      </trkpt>
      <trkpt lat="43.2245960" lon="-3.1890250">
        <ele>289.8</ele>
        <time>2022-01-16T11:46:51Z</time>
      </trkpt>
      <trkpt lat="43.2245210" lon="-3.1889790">
        <ele>289.2</ele>
        <time>2022-01-16T11:46:52Z</time>
      </trkpt>
      <trkpt lat="43.2244390" lon="-3.1889410">
        <ele>288.6</ele>
        <time>2022-01-16T11:46:53Z</time>
      </trkpt>
      <trkpt lat="43.2243570" lon="-3.1889140">
        <ele>288.2</ele>
        <time>2022-01-16T11:46:54Z</time>
      </trkpt>
      <trkpt lat="43.2242740" lon="-3.1888990">
        <ele>287.6</ele>
        <time>2022-01-16T11:46:55Z</time>
      </trkpt>
      <trkpt lat="43.2241920" lon="-3.1888880">
        <ele>287.2</ele>
        <time>2022-01-16T11:46:56Z</time>
      </trkpt>
      <trkpt lat="43.2241110" lon="-3.1888790">
        <ele>286.8</ele>
        <time>2022-01-16T11:46:57Z</time>
      </trkpt>
      <trkpt lat="43.2240230" lon="-3.1888760">
        <ele>286.2</ele>
        <time>2022-01-16T11:46:58Z</time>
      </trkpt>
      <trkpt lat="43.2239350" lon="-3.1888730">
        <ele>285.8</ele>
        <time>2022-01-16T11:46:59Z</time>
      </trkpt>
      <trkpt lat="43.2238430" lon="-3.1888680">
        <ele>285.0</ele>
        <time>2022-01-16T11:47:00Z</time>
      </trkpt>
      <trkpt lat="43.2237510" lon="-3.1888530">
        <ele>284.4</ele>
        <time>2022-01-16T11:47:01Z</time>
      </trkpt>
      <trkpt lat="43.2236590" lon="-3.1888200">
        <ele>284.2</ele>
        <time>2022-01-16T11:47:02Z</time>
      </trkpt>
      <trkpt lat="43.2235680" lon="-3.1887750">
        <ele>283.8</ele>
        <time>2022-01-16T11:47:03Z</time>
      </trkpt>
      <trkpt lat="43.2234840" lon="-3.1887130">
        <ele>283.4</ele>
        <time>2022-01-16T11:47:04Z</time>
      </trkpt>
      <trkpt lat="43.2234050" lon="-3.1886410">
        <ele>283.0</ele>
        <time>2022-01-16T11:47:05Z</time>
      </trkpt>
      <trkpt lat="43.2233300" lon="-3.1885570">
        <ele>282.6</ele>
        <time>2022-01-16T11:47:06Z</time>
      </trkpt>
      <trkpt lat="43.2232620" lon="-3.1884630">
        <ele>282.2</ele>
        <time>2022-01-16T11:47:07Z</time>
      </trkpt>
      <trkpt lat="43.2231960" lon="-3.1883590">
        <ele>282.0</ele>
        <time>2022-01-16T11:47:08Z</time>
      </trkpt>
      <trkpt lat="43.2231350" lon="-3.1882500">
        <ele>281.6</ele>
        <time>2022-01-16T11:47:09Z</time>
      </trkpt>
      <trkpt lat="43.2230760" lon="-3.1881390">
        <ele>281.0</ele>
        <time>2022-01-16T11:47:10Z</time>
      </trkpt>
      <trkpt lat="43.2230120" lon="-3.1880310">
        <ele>280.0</ele>
        <time>2022-01-16T11:47:11Z</time>
      </trkpt>
      <trkpt lat="43.2229440" lon="-3.1879320">
        <ele>279.2</ele>
        <time>2022-01-16T11:47:12Z</time>
      </trkpt>
      <trkpt lat="43.2228690" lon="-3.1878420">
        <ele>278.4</ele>
        <time>2022-01-16T11:47:13Z</time>
      </trkpt>
      <trkpt lat="43.2227860" lon="-3.1877590">
        <ele>277.8</ele>
        <time>2022-01-16T11:47:14Z</time>
      </trkpt>
      <trkpt lat="43.2226970" lon="-3.1876860">
        <ele>277.4</ele>
        <time>2022-01-16T11:47:15Z</time>
      </trkpt>
      <trkpt lat="43.2226030" lon="-3.1876200">
        <ele>276.8</ele>
        <time>2022-01-16T11:47:16Z</time>
      </trkpt>
      <trkpt lat="43.2225110" lon="-3.1875580">
        <ele>276.0</ele>
        <time>2022-01-16T11:47:17Z</time>
      </trkpt>
      <trkpt lat="43.2224210" lon="-3.1874990">
        <ele>275.8</ele>
        <time>2022-01-16T11:47:18Z</time>
      </trkpt>
      <trkpt lat="43.2223350" lon="-3.1874350">
        <ele>275.4</ele>
        <time>2022-01-16T11:47:19Z</time>
      </trkpt>
      <trkpt lat="43.2222510" lon="-3.1873580">
        <ele>275.0</ele>
        <time>2022-01-16T11:47:20Z</time>
      </trkpt>
      <trkpt lat="43.2221720" lon="-3.1872710">
        <ele>274.6</ele>
        <time>2022-01-16T11:47:21Z</time>
      </trkpt>
      <trkpt lat="43.2221070" lon="-3.1871610">
        <ele>274.2</ele>
        <time>2022-01-16T11:47:22Z</time>
      </trkpt>
      <trkpt lat="43.2220480" lon="-3.1870480">
        <ele>274.0</ele>
        <time>2022-01-16T11:47:23Z</time>
      </trkpt>
      <trkpt lat="43.2219990" lon="-3.1869250">
        <ele>273.0</ele>
        <time>2022-01-16T11:47:24Z</time>
      </trkpt>
      <trkpt lat="43.2219630" lon="-3.1867920">
        <ele>272.4</ele>
        <time>2022-01-16T11:47:25Z</time>
      </trkpt>
      <trkpt lat="43.2219410" lon="-3.1866500">
        <ele>271.4</ele>
        <time>2022-01-16T11:47:26Z</time>
      </trkpt>
      <trkpt lat="43.2219330" lon="-3.1865020">
        <ele>270.8</ele>
        <time>2022-01-16T11:47:27Z</time>
      </trkpt>
      <trkpt lat="43.2219420" lon="-3.1863570">
        <ele>270.6</ele>
        <time>2022-01-16T11:47:28Z</time>
      </trkpt>
      <trkpt lat="43.2219630" lon="-3.1862140">
        <ele>270.2</ele>
        <time>2022-01-16T11:47:29Z</time>
      </trkpt>
      <trkpt lat="43.2219940" lon="-3.1860830">
        <ele>269.6</ele>
        <time>2022-01-16T11:47:30Z</time>
      </trkpt>
      <trkpt lat="43.2220340" lon="-3.1859600">
        <ele>269.2</ele>
        <time>2022-01-16T11:47:31Z</time>
      </trkpt>
      <trkpt lat="43.2220800" lon="-3.1858360">
        <ele>268.6</ele>
        <time>2022-01-16T11:47:32Z</time>
      </trkpt>
      <trkpt lat="43.2221280" lon="-3.1857080">
        <ele>268.0</ele>
        <time>2022-01-16T11:47:33Z</time>
      </trkpt>
      <trkpt lat="43.2221760" lon="-3.1855740">
        <ele>267.6</ele>
        <time>2022-01-16T11:47:34Z</time>
      </trkpt>
      <trkpt lat="43.2222190" lon="-3.1854380">
        <ele>266.8</ele>
        <time>2022-01-16T11:47:35Z</time>
      </trkpt>
      <trkpt lat="43.2222580" lon="-3.1853020">
        <ele>266.2</ele>
        <time>2022-01-16T11:47:36Z</time>
      </trkpt>
      <trkpt lat="43.2222940" lon="-3.1851650">
        <ele>265.6</ele>
        <time>2022-01-16T11:47:37Z</time>
      </trkpt>
      <trkpt lat="43.2223280" lon="-3.1850280">
        <ele>265.0</ele>
        <time>2022-01-16T11:47:38Z</time>
      </trkpt>
      <trkpt lat="43.2223620" lon="-3.1848880">
        <ele>264.6</ele>
        <time>2022-01-16T11:47:39Z</time>
      </trkpt>
      <trkpt lat="43.2223990" lon="-3.1847510">
        <ele>264.0</ele>
        <time>2022-01-16T11:47:40Z</time>
      </trkpt>
      <trkpt lat="43.2224410" lon="-3.1846190">
        <ele>263.6</ele>
        <time>2022-01-16T11:47:41Z</time>
      </trkpt>
      <trkpt lat="43.2224890" lon="-3.1844950">
        <ele>263.0</ele>
        <time>2022-01-16T11:47:42Z</time>
      </trkpt>
      <trkpt lat="43.2225420" lon="-3.1843740">
        <ele>262.4</ele>
        <time>2022-01-16T11:47:43Z</time>
      </trkpt>
      <trkpt lat="43.2225980" lon="-3.1842550">
        <ele>261.8</ele>
        <time>2022-01-16T11:47:44Z</time>
      </trkpt>
      <trkpt lat="43.2226540" lon="-3.1841330">
        <ele>261.4</ele>
        <time>2022-01-16T11:47:45Z</time>
      </trkpt>
      <trkpt lat="43.2227080" lon="-3.1840060">
        <ele>260.6</ele>
        <time>2022-01-16T11:47:46Z</time>
      </trkpt>
      <trkpt lat="43.2227540" lon="-3.1838750">
        <ele>260.4</ele>
        <time>2022-01-16T11:47:47Z</time>
      </trkpt>
      <trkpt lat="43.2227890" lon="-3.1837370">
        <ele>260.0</ele>
        <time>2022-01-16T11:47:48Z</time>
      </trkpt>
      <trkpt lat="43.2228110" lon="-3.1835920">
        <ele>259.6</ele>
        <time>2022-01-16T11:47:49Z</time>
      </trkpt>
      <trkpt lat="43.2228200" lon="-3.1834430">
        <ele>259.2</ele>
        <time>2022-01-16T11:47:50Z</time>
      </trkpt>
      <trkpt lat="43.2228120" lon="-3.1832920">
        <ele>258.6</ele>
        <time>2022-01-16T11:47:51Z</time>
      </trkpt>
      <trkpt lat="43.2227890" lon="-3.1831430">
        <ele>258.0</ele>
        <time>2022-01-16T11:47:52Z</time>
      </trkpt>
      <trkpt lat="43.2227480" lon="-3.1830000">
        <ele>257.2</ele>
        <time>2022-01-16T11:47:53Z</time>
      </trkpt>
      <trkpt lat="43.2226960" lon="-3.1828640">
        <ele>256.6</ele>
        <time>2022-01-16T11:47:54Z</time>
      </trkpt>
      <trkpt lat="43.2226370" lon="-3.1827350">
        <ele>256.2</ele>
        <time>2022-01-16T11:47:55Z</time>
      </trkpt>
      <trkpt lat="43.2225740" lon="-3.1826070">
        <ele>255.8</ele>
        <time>2022-01-16T11:47:56Z</time>
      </trkpt>
      <trkpt lat="43.2225130" lon="-3.1824780">
        <ele>255.4</ele>
        <time>2022-01-16T11:47:57Z</time>
      </trkpt>
      <trkpt lat="43.2224590" lon="-3.1823450">
        <ele>255.0</ele>
        <time>2022-01-16T11:47:58Z</time>
      </trkpt>
      <trkpt lat="43.2224120" lon="-3.1822070">
        <ele>254.6</ele>
        <time>2022-01-16T11:47:59Z</time>
      </trkpt>
      <trkpt lat="43.2223740" lon="-3.1820630">
        <ele>254.2</ele>
        <time>2022-01-16T11:48:00Z</time>
      </trkpt>
      <trkpt lat="43.2223470" lon="-3.1819150">
        <ele>253.4</ele>
        <time>2022-01-16T11:48:01Z</time>
      </trkpt>
      <trkpt lat="43.2223320" lon="-3.1817630">
        <ele>252.8</ele>
        <time>2022-01-16T11:48:02Z</time>
      </trkpt>
      <trkpt lat="43.2223300" lon="-3.1816100">
        <ele>252.4</ele>
        <time>2022-01-16T11:48:03Z</time>
      </trkpt>
      <trkpt lat="43.2223340" lon="-3.1814570">
        <ele>251.8</ele>
        <time>2022-01-16T11:48:04Z</time>
      </trkpt>
      <trkpt lat="43.2223400" lon="-3.1813080">
        <ele>251.2</ele>
        <time>2022-01-16T11:48:05Z</time>
      </trkpt>
      <trkpt lat="43.2223440" lon="-3.1811620">
        <ele>250.8</ele>
        <time>2022-01-16T11:48:06Z</time>
      </trkpt>
      <trkpt lat="43.2223400" lon="-3.1810160">
        <ele>250.2</ele>
        <time>2022-01-16T11:48:07Z</time>
      </trkpt>
      <trkpt lat="43.2223240" lon="-3.1808700">
        <ele>249.6</ele>
        <time>2022-01-16T11:48:08Z</time>
      </trkpt>
      <trkpt lat="43.2222840" lon="-3.1807280">
        <ele>248.6</ele>
        <time>2022-01-16T11:48:09Z</time>
      </trkpt>
      <trkpt lat="43.2222350" lon="-3.1805920">
        <ele>247.8</ele>
        <time>2022-01-16T11:48:10Z</time>
      </trkpt>
      <trkpt lat="43.2221750" lon="-3.1804610">
        <ele>247.2</ele>
        <time>2022-01-16T11:48:11Z</time>
      </trkpt>
      <trkpt lat="43.2221030" lon="-3.1803390">
        <ele>246.6</ele>
        <time>2022-01-16T11:48:12Z</time>
      </trkpt>
      <trkpt lat="43.2220230" lon="-3.1802310">
        <ele>245.6</ele>
        <time>2022-01-16T11:48:13Z</time>
      </trkpt>
      <trkpt lat="43.2219350" lon="-3.1801320">
        <ele>245.0</ele>
        <time>2022-01-16T11:48:14Z</time>
      </trkpt>
      <trkpt lat="43.2218440" lon="-3.1800370">
        <ele>244.4</ele>
        <time>2022-01-16T11:48:15Z</time>
      </trkpt>
      <trkpt lat="43.2217490" lon="-3.1799500">
        <ele>243.8</ele>
        <time>2022-01-16T11:48:16Z</time>
      </trkpt>
      <trkpt lat="43.2216510" lon="-3.1798710">
        <ele>243.2</ele>
        <time>2022-01-16T11:48:17Z</time>
      </trkpt>
      <trkpt lat="43.2215460" lon="-3.1798080">
        <ele>242.6</ele>
        <time>2022-01-16T11:48:18Z</time>
      </trkpt>
      <trkpt lat="43.2214350" lon="-3.1797720">
        <ele>242.4</ele>
        <time>2022-01-16T11:48:19Z</time>
      </trkpt>
      <trkpt lat="43.2213200" lon="-3.1797690">
        <ele>241.8</ele>
        <time>2022-01-16T11:48:20Z</time>
      </trkpt>
      <trkpt lat="43.2212040" lon="-3.1797980">
        <ele>241.0</ele>
        <time>2022-01-16T11:48:21Z</time>
      </trkpt>
      <trkpt lat="43.2210930" lon="-3.1798500">
        <ele>240.4</ele>
        <time>2022-01-16T11:48:22Z</time>
      </trkpt>
      <trkpt lat="43.2209850" lon="-3.1799180">
        <ele>239.6</ele>
        <time>2022-01-16T11:48:23Z</time>
      </trkpt>
      <trkpt lat="43.2208820" lon="-3.1799980">
        <ele>239.2</ele>
        <time>2022-01-16T11:48:24Z</time>
      </trkpt>
      <trkpt lat="43.2207820" lon="-3.1800830">
        <ele>238.6</ele>
        <time>2022-01-16T11:48:25Z</time>
      </trkpt>
      <trkpt lat="43.2206790" lon="-3.1801640">
        <ele>238.0</ele>
        <time>2022-01-16T11:48:26Z</time>
      </trkpt>
      <trkpt lat="43.2205720" lon="-3.1802400">
        <ele>237.2</ele>
        <time>2022-01-16T11:48:27Z</time>
      </trkpt>
      <trkpt lat="43.2204620" lon="-3.1803050">
        <ele>236.6</ele>
        <time>2022-01-16T11:48:28Z</time>
      </trkpt>
      <trkpt lat="43.2203470" lon="-3.1803510">
        <ele>236.0</ele>
        <time>2022-01-16T11:48:29Z</time>
      </trkpt>
      <trkpt lat="43.2202290" lon="-3.1803700">
        <ele>235.4</ele>
        <time>2022-01-16T11:48:30Z</time>
      </trkpt>
      <trkpt lat="43.2201100" lon="-3.1803620">
        <ele>234.6</ele>
        <time>2022-01-16T11:48:31Z</time>
      </trkpt>
      <trkpt lat="43.2199950" lon="-3.1803290">
        <ele>233.4</ele>
        <time>2022-01-16T11:48:32Z</time>
      </trkpt>
      <trkpt lat="43.2198860" lon="-3.1802730">
        <ele>232.6</ele>
        <time>2022-01-16T11:48:33Z</time>
      </trkpt>
      <trkpt lat="43.2197820" lon="-3.1801990">
        <ele>232.2</ele>
        <time>2022-01-16T11:48:34Z</time>
      </trkpt>
      <trkpt lat="43.2196860" lon="-3.1801130">
        <ele>232.0</ele>
        <time>2022-01-16T11:48:35Z</time>
      </trkpt>
      <trkpt lat="43.2195930" lon="-3.1800230">
        <ele>231.6</ele>
        <time>2022-01-16T11:48:36Z</time>
      </trkpt>
      <trkpt lat="43.2195010" lon="-3.1799340">
        <ele>231.0</ele>
        <time>2022-01-16T11:48:37Z</time>
      </trkpt>
      <trkpt lat="43.2194080" lon="-3.1798470">
        <ele>230.2</ele>
        <time>2022-01-16T11:48:38Z</time>
      </trkpt>
      <trkpt lat="43.2193110" lon="-3.1797740">
        <ele>229.6</ele>
        <time>2022-01-16T11:48:39Z</time>
      </trkpt>
      <trkpt lat="43.2192100" lon="-3.1797060">
        <ele>228.8</ele>
        <time>2022-01-16T11:48:40Z</time>
      </trkpt>
      <trkpt lat="43.2191120" lon="-3.1796350">
        <ele>228.2</ele>
        <time>2022-01-16T11:48:41Z</time>
      </trkpt>
      <trkpt lat="43.2190130" lon="-3.1795660">
        <ele>227.8</ele>
        <time>2022-01-16T11:48:42Z</time>
      </trkpt>
      <trkpt lat="43.2189160" lon="-3.1794960">
        <ele>227.2</ele>
        <time>2022-01-16T11:48:43Z</time>
      </trkpt>
      <trkpt lat="43.2188180" lon="-3.1794220">
        <ele>227.0</ele>
        <time>2022-01-16T11:48:44Z</time>
      </trkpt>
      <trkpt lat="43.2187270" lon="-3.1793400">
        <ele>226.4</ele>
        <time>2022-01-16T11:48:45Z</time>
      </trkpt>
      <trkpt lat="43.2186360" lon="-3.1792520">
        <ele>225.8</ele>
        <time>2022-01-16T11:48:46Z</time>
      </trkpt>
      <trkpt lat="43.2185410" lon="-3.1791630">
        <ele>225.0</ele>
        <time>2022-01-16T11:48:47Z</time>
      </trkpt>
      <trkpt lat="43.2184440" lon="-3.1790830">
        <ele>224.4</ele>
        <time>2022-01-16T11:48:48Z</time>
      </trkpt>
      <trkpt lat="43.2183460" lon="-3.1790060">
        <ele>223.8</ele>
        <time>2022-01-16T11:48:49Z</time>
      </trkpt>
      <trkpt lat="43.2182480" lon="-3.1789230">
        <ele>223.2</ele>
        <time>2022-01-16T11:48:50Z</time>
      </trkpt>
      <trkpt lat="43.2181520" lon="-3.1788410">
        <ele>222.2</ele>
        <time>2022-01-16T11:48:51Z</time>
      </trkpt>
      <trkpt lat="43.2180540" lon="-3.1787610">
        <ele>221.2</ele>
        <time>2022-01-16T11:48:52Z</time>
      </trkpt>
      <trkpt lat="43.2179580" lon="-3.1786770">
        <ele>220.4</ele>
        <time>2022-01-16T11:48:53Z</time>
      </trkpt>
      <trkpt lat="43.2178590" lon="-3.1785940">
        <ele>220.0</ele>
        <time>2022-01-16T11:48:54Z</time>
      </trkpt>
      <trkpt lat="43.2177610" lon="-3.1785200">
        <ele>219.2</ele>
        <time>2022-01-16T11:48:55Z</time>
      </trkpt>
      <trkpt lat="43.2176630" lon="-3.1784490">
        <ele>218.8</ele>
        <time>2022-01-16T11:48:56Z</time>
      </trkpt>
      <trkpt lat="43.2175650" lon="-3.1783760">
        <ele>218.4</ele>
        <time>2022-01-16T11:48:57Z</time>
      </trkpt>
      <trkpt lat="43.2174670" lon="-3.1783060">
        <ele>218.0</ele>
        <time>2022-01-16T11:48:58Z</time>
      </trkpt>
      <trkpt lat="43.2173690" lon="-3.1782340">
        <ele>217.2</ele>
        <time>2022-01-16T11:48:59Z</time>
      </trkpt>
      <trkpt lat="43.2172710" lon="-3.1781620">
        <ele>216.6</ele>
        <time>2022-01-16T11:49:00Z</time>
      </trkpt>
      <trkpt lat="43.2171740" lon="-3.1780930">
        <ele>216.2</ele>
        <time>2022-01-16T11:49:01Z</time>
      </trkpt>
      <trkpt lat="43.2170820" lon="-3.1780260">
        <ele>215.8</ele>
        <time>2022-01-16T11:49:02Z</time>
      </trkpt>
      <trkpt lat="43.2169920" lon="-3.1779540">
        <ele>215.2</ele>
        <time>2022-01-16T11:49:03Z</time>
      </trkpt>
      <trkpt lat="43.2169020" lon="-3.1778800">
        <ele>214.6</ele>
        <time>2022-01-16T11:49:04Z</time>
      </trkpt>
      <trkpt lat="43.2168100" lon="-3.1778050">
        <ele>214.0</ele>
        <time>2022-01-16T11:49:05Z</time>
      </trkpt>
      <trkpt lat="43.2167150" lon="-3.1777330">
        <ele>213.6</ele>
        <time>2022-01-16T11:49:06Z</time>
      </trkpt>
      <trkpt lat="43.2166240" lon="-3.1776590">
        <ele>213.0</ele>
        <time>2022-01-16T11:49:07Z</time>
      </trkpt>
      <trkpt lat="43.2165390" lon="-3.1775840">
        <ele>212.6</ele>
        <time>2022-01-16T11:49:08Z</time>
      </trkpt>
      <trkpt lat="43.2164590" lon="-3.1775130">
        <ele>212.0</ele>
        <time>2022-01-16T11:49:09Z</time>
      </trkpt>
      <trkpt lat="43.2163830" lon="-3.1774580">
        <ele>211.6</ele>
        <time>2022-01-16T11:49:10Z</time>
      </trkpt>
      <trkpt lat="43.2163110" lon="-3.1774140">
        <ele>211.0</ele>
        <time>2022-01-16T11:49:11Z</time>
      </trkpt>
      <trkpt lat="43.2162420" lon="-3.1773710">
        <ele>210.6</ele>
        <time>2022-01-16T11:49:12Z</time>
      </trkpt>
      <trkpt lat="43.2161910" lon="-3.1773160">
        <ele>210.2</ele>
        <time>2022-01-16T11:49:13Z</time>
      </trkpt>
      <trkpt lat="43.2161690" lon="-3.1772440">
        <ele>210.0</ele>
        <time>2022-01-16T11:49:14Z</time>
      </trkpt>
      <trkpt lat="43.2161790" lon="-3.1771660">
        <ele>209.6</ele>
        <time>2022-01-16T11:49:15Z</time>
      </trkpt>
      <trkpt lat="43.2162120" lon="-3.1771030">
        <ele>209.2</ele>
        <time>2022-01-16T11:49:16Z</time>
      </trkpt>
      <trkpt lat="43.2162600" lon="-3.1770510">
        <ele>209.0</ele>
        <time>2022-01-16T11:49:17Z</time>
      </trkpt>
      <trkpt lat="43.2163060" lon="-3.1770080">
        <ele>208.8</ele>
        <time>2022-01-16T11:49:18Z</time>
      </trkpt>
      <trkpt lat="43.2163520" lon="-3.1769590">
        <ele>208.6</ele>
        <time>2022-01-16T11:49:19Z</time>
      </trkpt>
      <trkpt lat="43.2163940" lon="-3.1769060">
        <ele>208.4</ele>
        <time>2022-01-16T11:49:20Z</time>
      </trkpt>
      <trkpt lat="43.2164370" lon="-3.1768490">
        <ele>208.2</ele>
        <time>2022-01-16T11:49:21Z</time>
      </trkpt>
      <trkpt lat="43.2164840" lon="-3.1767880">
        <ele>207.8</ele>
        <time>2022-01-16T11:49:22Z</time>
      </trkpt>
      <trkpt lat="43.2165330" lon="-3.1767240">
        <ele>207.4</ele>
        <time>2022-01-16T11:49:23Z</time>
      </trkpt>
      <trkpt lat="43.2165850" lon="-3.1766570">
        <ele>206.8</ele>
        <time>2022-01-16T11:49:24Z</time>
      </trkpt>
      <trkpt lat="43.2166350" lon="-3.1765970">
        <ele>206.4</ele>
        <time>2022-01-16T11:49:25Z</time>
      </trkpt>
      <trkpt lat="43.2166780" lon="-3.1765430">
        <ele>206.2</ele>
        <time>2022-01-16T11:49:26Z</time>
      </trkpt>
      <trkpt lat="43.2167210" lon="-3.1764920">
        <ele>205.8</ele>
        <time>2022-01-16T11:49:27Z</time>
      </trkpt>
      <trkpt lat="43.2167640" lon="-3.1764450">
        <ele>205.6</ele>
        <time>2022-01-16T11:49:28Z</time>
      </trkpt>
      <trkpt lat="43.2168030" lon="-3.1764060">
        <ele>205.4</ele>
        <time>2022-01-16T11:49:29Z</time>
      </trkpt>
      <trkpt lat="43.2168330" lon="-3.1763770">
        <ele>205.2</ele>
        <time>2022-01-16T11:49:30Z</time>
      </trkpt>
      <trkpt lat="43.2168600" lon="-3.1763550">
        <ele>205.2</ele>
        <time>2022-01-16T11:49:31Z</time>
      </trkpt>
      <trkpt lat="43.2168860" lon="-3.1763350">
        <ele>205.0</ele>
        <time>2022-01-16T11:49:32Z</time>
      </trkpt>
      <trkpt lat="43.2169110" lon="-3.1763150">
        <ele>205.0</ele>
        <time>2022-01-16T11:49:33Z</time>
      </trkpt>
      <trkpt lat="43.2169290" lon="-3.1762970">
        <ele>204.8</ele>
        <time>2022-01-16T11:49:34Z</time>
      </trkpt>
      <trkpt lat="43.2169390" lon="-3.1762830">
        <ele>204.6</ele>
        <time>2022-01-16T11:49:35Z</time>
      </trkpt>
      <trkpt lat="43.2169430" lon="-3.1762760">
        <ele>204.6</ele>
        <time>2022-01-16T11:49:36Z</time>
      </trkpt>
      <trkpt lat="43.2169470" lon="-3.1762760">
        <ele>204.4</ele>
        <time>2022-01-16T11:49:37Z</time>
      </trkpt>
      <trkpt lat="43.2169790" lon="-3.1762350">
        <ele>204.2</ele>
        <time>2022-01-16T11:50:12Z</time>
      </trkpt>
      <trkpt lat="43.2170050" lon="-3.1762100">
        <ele>204.2</ele>
        <time>2022-01-16T11:50:13Z</time>
      </trkpt>
      <trkpt lat="43.2170420" lon="-3.1761860">
        <ele>204.0</ele>
        <time>2022-01-16T11:50:14Z</time>
      </trkpt>
      <trkpt lat="43.2170840" lon="-3.1761610">
        <ele>204.0</ele>
        <time>2022-01-16T11:50:15Z</time>
      </trkpt>
      <trkpt lat="43.2171360" lon="-3.1761300">
        <ele>203.8</ele>
        <time>2022-01-16T11:50:16Z</time>
      </trkpt>
      <trkpt lat="43.2171950" lon="-3.1760900">
        <ele>203.6</ele>
        <time>2022-01-16T11:50:17Z</time>
      </trkpt>
      <trkpt lat="43.2172620" lon="-3.1760510">
        <ele>203.2</ele>
        <time>2022-01-16T11:50:18Z</time>
      </trkpt>
      <trkpt lat="43.2173380" lon="-3.1760140">
        <ele>202.6</ele>
        <time>2022-01-16T11:50:19Z</time>
      </trkpt>
      <trkpt lat="43.2174210" lon="-3.1759790">
        <ele>202.2</ele>
        <time>2022-01-16T11:50:20Z</time>
      </trkpt>
      <trkpt lat="43.2175080" lon="-3.1759520">
        <ele>201.8</ele>
        <time>2022-01-16T11:50:21Z</time>
      </trkpt>
      <trkpt lat="43.2175980" lon="-3.1759360">
        <ele>201.4</ele>
        <time>2022-01-16T11:50:22Z</time>
      </trkpt>
      <trkpt lat="43.2176970" lon="-3.1759390">
        <ele>200.8</ele>
        <time>2022-01-16T11:50:23Z</time>
      </trkpt>
      <trkpt lat="43.2177970" lon="-3.1759550">
        <ele>200.4</ele>
        <time>2022-01-16T11:50:24Z</time>
      </trkpt>
      <trkpt lat="43.2178950" lon="-3.1759840">
        <ele>199.8</ele>
        <time>2022-01-16T11:50:25Z</time>
      </trkpt>
      <trkpt lat="43.2179890" lon="-3.1760260">
        <ele>199.4</ele>
        <time>2022-01-16T11:50:26Z</time>
      </trkpt>
      <trkpt lat="43.2180750" lon="-3.1760840">
        <ele>198.8</ele>
        <time>2022-01-16T11:50:27Z</time>
      </trkpt>
      <trkpt lat="43.2181570" lon="-3.1761600">
        <ele>198.2</ele>
        <time>2022-01-16T11:50:28Z</time>
      </trkpt>
      <trkpt lat="43.2182400" lon="-3.1762480">
        <ele>197.8</ele>
        <time>2022-01-16T11:50:29Z</time>
      </trkpt>
      <trkpt lat="43.2183210" lon="-3.1763340">
        <ele>197.2</ele>
        <time>2022-01-16T11:50:30Z</time>
      </trkpt>
      <trkpt lat="43.2183960" lon="-3.1764200">
        <ele>196.6</ele>
        <time>2022-01-16T11:50:31Z</time>
      </trkpt>
      <trkpt lat="43.2184690" lon="-3.1765080">
        <ele>195.8</ele>
        <time>2022-01-16T11:50:32Z</time>
      </trkpt>
      <trkpt lat="43.2185420" lon="-3.1765930">
        <ele>195.2</ele>
        <time>2022-01-16T11:50:33Z</time>
      </trkpt>
      <trkpt lat="43.2186150" lon="-3.1766670">
        <ele>194.4</ele>
        <time>2022-01-16T11:50:34Z</time>
      </trkpt>
      <trkpt lat="43.2186910" lon="-3.1767250">
        <ele>193.6</ele>
        <time>2022-01-16T11:50:35Z</time>
      </trkpt>
      <trkpt lat="43.2187720" lon="-3.1767550">
        <ele>193.0</ele>
        <time>2022-01-16T11:50:36Z</time>
      </trkpt>
      <trkpt lat="43.2188560" lon="-3.1767540">
        <ele>192.2</ele>
        <time>2022-01-16T11:50:37Z</time>
      </trkpt>
      <trkpt lat="43.2189370" lon="-3.1767160">
        <ele>191.6</ele>
        <time>2022-01-16T11:50:38Z</time>
      </trkpt>
      <trkpt lat="43.2190090" lon="-3.1766460">
        <ele>191.0</ele>
        <time>2022-01-16T11:50:39Z</time>
      </trkpt>
      <trkpt lat="43.2190570" lon="-3.1765600">
        <ele>190.0</ele>
        <time>2022-01-16T11:50:40Z</time>
      </trkpt>
      <trkpt lat="43.2191050" lon="-3.1764550">
        <ele>189.6</ele>
        <time>2022-01-16T11:50:41Z</time>
      </trkpt>
      <trkpt lat="43.2191510" lon="-3.1763490">
        <ele>189.0</ele>
        <time>2022-01-16T11:50:42Z</time>
      </trkpt>
      <trkpt lat="43.2192020" lon="-3.1762380">
        <ele>188.2</ele>
        <time>2022-01-16T11:50:43Z</time>
      </trkpt>
      <trkpt lat="43.2192530" lon="-3.1761210">
        <ele>187.6</ele>
        <time>2022-01-16T11:50:44Z</time>
      </trkpt>
      <trkpt lat="43.2192980" lon="-3.1760020">
        <ele>187.0</ele>
        <time>2022-01-16T11:50:45Z</time>
      </trkpt>
      <trkpt lat="43.2193530" lon="-3.1758760">
        <ele>186.6</ele>
        <time>2022-01-16T11:50:46Z</time>
      </trkpt>
      <trkpt lat="43.2194110" lon="-3.1757550">
        <ele>186.0</ele>
        <time>2022-01-16T11:50:47Z</time>
      </trkpt>
      <trkpt lat="43.2194740" lon="-3.1756410">
        <ele>185.2</ele>
        <time>2022-01-16T11:50:48Z</time>
      </trkpt>
      <trkpt lat="43.2195450" lon="-3.1755430">
        <ele>184.4</ele>
        <time>2022-01-16T11:50:49Z</time>
      </trkpt>
      <trkpt lat="43.2196300" lon="-3.1754710">
        <ele>183.8</ele>
        <time>2022-01-16T11:50:50Z</time>
      </trkpt>
      <trkpt lat="43.2197250" lon="-3.1754240">
        <ele>183.2</ele>
        <time>2022-01-16T11:50:51Z</time>
      </trkpt>
      <trkpt lat="43.2198250" lon="-3.1753970">
        <ele>182.2</ele>
        <time>2022-01-16T11:50:52Z</time>
      </trkpt>
      <trkpt lat="43.2199320" lon="-3.1753780">
        <ele>181.4</ele>
        <time>2022-01-16T11:50:53Z</time>
      </trkpt>
      <trkpt lat="43.2200410" lon="-3.1753600">
        <ele>180.8</ele>
        <time>2022-01-16T11:50:54Z</time>
      </trkpt>
      <trkpt lat="43.2201470" lon="-3.1753620">
        <ele>180.2</ele>
        <time>2022-01-16T11:50:55Z</time>
      </trkpt>
      <trkpt lat="43.2202560" lon="-3.1753550">
        <ele>179.4</ele>
        <time>2022-01-16T11:50:56Z</time>
      </trkpt>
      <trkpt lat="43.2203670" lon="-3.1753450">
        <ele>178.8</ele>
        <time>2022-01-16T11:50:57Z</time>
      </trkpt>
      <trkpt lat="43.2204830" lon="-3.1753330">
        <ele>178.0</ele>
        <time>2022-01-16T11:50:58Z</time>
      </trkpt>
      <trkpt lat="43.2205950" lon="-3.1753220">
        <ele>177.2</ele>
        <time>2022-01-16T11:50:59Z</time>
      </trkpt>
      <trkpt lat="43.2207120" lon="-3.1753120">
        <ele>176.2</ele>
        <time>2022-01-16T11:51:00Z</time>
      </trkpt>
      <trkpt lat="43.2208260" lon="-3.1753040">
        <ele>175.4</ele>
        <time>2022-01-16T11:51:01Z</time>
      </trkpt>
      <trkpt lat="43.2209500" lon="-3.1752960">
        <ele>174.4</ele>
        <time>2022-01-16T11:51:02Z</time>
      </trkpt>
      <trkpt lat="43.2210740" lon="-3.1752890">
        <ele>173.4</ele>
        <time>2022-01-16T11:51:03Z</time>
      </trkpt>
      <trkpt lat="43.2212030" lon="-3.1752810">
        <ele>172.4</ele>
        <time>2022-01-16T11:51:04Z</time>
      </trkpt>
      <trkpt lat="43.2213300" lon="-3.1752750">
        <ele>171.8</ele>
        <time>2022-01-16T11:51:05Z</time>
      </trkpt>
      <trkpt lat="43.2214610" lon="-3.1752690">
        <ele>171.0</ele>
        <time>2022-01-16T11:51:06Z</time>
      </trkpt>
      <trkpt lat="43.2215880" lon="-3.1752610">
        <ele>169.8</ele>
        <time>2022-01-16T11:51:07Z</time>
      </trkpt>
      <trkpt lat="43.2217150" lon="-3.1752550">
        <ele>169.2</ele>
        <time>2022-01-16T11:51:08Z</time>
      </trkpt>
      <trkpt lat="43.2218440" lon="-3.1752510">
        <ele>168.4</ele>
        <time>2022-01-16T11:51:09Z</time>
      </trkpt>
      <trkpt lat="43.2219670" lon="-3.1752450">
        <ele>167.6</ele>
        <time>2022-01-16T11:51:10Z</time>
      </trkpt>
      <trkpt lat="43.2220930" lon="-3.1752380">
        <ele>166.8</ele>
        <time>2022-01-16T11:51:11Z</time>
      </trkpt>
      <trkpt lat="43.2222070" lon="-3.1752290">
        <ele>165.8</ele>
        <time>2022-01-16T11:51:12Z</time>
      </trkpt>
      <trkpt lat="43.2223190" lon="-3.1752140">
        <ele>164.8</ele>
        <time>2022-01-16T11:51:13Z</time>
      </trkpt>
      <trkpt lat="43.2224250" lon="-3.1751920">
        <ele>164.2</ele>
        <time>2022-01-16T11:51:14Z</time>
      </trkpt>
      <trkpt lat="43.2225210" lon="-3.1751570">
        <ele>163.6</ele>
        <time>2022-01-16T11:51:15Z</time>
      </trkpt>
      <trkpt lat="43.2226020" lon="-3.1750990">
        <ele>162.4</ele>
        <time>2022-01-16T11:51:16Z</time>
      </trkpt>
      <trkpt lat="43.2226670" lon="-3.1750180">
        <ele>161.8</ele>
        <time>2022-01-16T11:51:17Z</time>
      </trkpt>
      <trkpt lat="43.2227200" lon="-3.1749200">
        <ele>161.6</ele>
        <time>2022-01-16T11:51:18Z</time>
      </trkpt>
      <trkpt lat="43.2227520" lon="-3.1748080">
        <ele>161.2</ele>
        <time>2022-01-16T11:51:19Z</time>
      </trkpt>
      <trkpt lat="43.2227670" lon="-3.1746780">
        <ele>160.8</ele>
        <time>2022-01-16T11:51:20Z</time>
      </trkpt>
      <trkpt lat="43.2227670" lon="-3.1745410">
        <ele>160.2</ele>
        <time>2022-01-16T11:51:21Z</time>
      </trkpt>
      <trkpt lat="43.2227420" lon="-3.1744070">
        <ele>159.6</ele>
        <time>2022-01-16T11:51:22Z</time>
      </trkpt>
      <trkpt lat="43.2226970" lon="-3.1742810">
        <ele>159.2</ele>
        <time>2022-01-16T11:51:23Z</time>
      </trkpt>
      <trkpt lat="43.2226450" lon="-3.1741590">
        <ele>158.8</ele>
        <time>2022-01-16T11:51:24Z</time>
      </trkpt>
      <trkpt lat="43.2225940" lon="-3.1740420">
        <ele>158.4</ele>
        <time>2022-01-16T11:51:25Z</time>
      </trkpt>
      <trkpt lat="43.2225410" lon="-3.1739320">
        <ele>158.2</ele>
        <time>2022-01-16T11:51:26Z</time>
      </trkpt>
      <trkpt lat="43.2224870" lon="-3.1738260">
        <ele>158.0</ele>
        <time>2022-01-16T11:51:27Z</time>
      </trkpt>
      <trkpt lat="43.2224350" lon="-3.1737240">
        <ele>157.4</ele>
        <time>2022-01-16T11:51:28Z</time>
      </trkpt>
      <trkpt lat="43.2223770" lon="-3.1736260">
        <ele>156.8</ele>
        <time>2022-01-16T11:51:29Z</time>
      </trkpt>
      <trkpt lat="43.2223070" lon="-3.1735400">
        <ele>156.4</ele>
        <time>2022-01-16T11:51:30Z</time>
      </trkpt>
      <trkpt lat="43.2222380" lon="-3.1734540">
        <ele>156.2</ele>
        <time>2022-01-16T11:51:31Z</time>
      </trkpt>
      <trkpt lat="43.2221750" lon="-3.1733490">
        <ele>156.0</ele>
        <time>2022-01-16T11:51:32Z</time>
      </trkpt>
      <trkpt lat="43.2221410" lon="-3.1732290">
        <ele>155.8</ele>
        <time>2022-01-16T11:51:33Z</time>
      </trkpt>
      <trkpt lat="43.2221110" lon="-3.1731030">
        <ele>155.6</ele>
        <time>2022-01-16T11:51:34Z</time>
      </trkpt>
      <trkpt lat="43.2220780" lon="-3.1729770">
        <ele>155.2</ele>
        <time>2022-01-16T11:51:35Z</time>
      </trkpt>
      <trkpt lat="43.2220310" lon="-3.1728560">
        <ele>155.0</ele>
        <time>2022-01-16T11:51:36Z</time>
      </trkpt>
      <trkpt lat="43.2219750" lon="-3.1727350">
        <ele>154.6</ele>
        <time>2022-01-16T11:51:37Z</time>
      </trkpt>
      <trkpt lat="43.2219170" lon="-3.1726140">
        <ele>154.4</ele>
        <time>2022-01-16T11:51:38Z</time>
      </trkpt>
      <trkpt lat="43.2218580" lon="-3.1724920">
        <ele>154.0</ele>
        <time>2022-01-16T11:51:39Z</time>
      </trkpt>
      <trkpt lat="43.2218000" lon="-3.1723680">
        <ele>153.8</ele>
        <time>2022-01-16T11:51:40Z</time>
      </trkpt>
      <trkpt lat="43.2217450" lon="-3.1722430">
        <ele>153.6</ele>
        <time>2022-01-16T11:51:41Z</time>
      </trkpt>
      <trkpt lat="43.2216890" lon="-3.1721170">
        <ele>153.2</ele>
        <time>2022-01-16T11:51:42Z</time>
      </trkpt>
      <trkpt lat="43.2216320" lon="-3.1719900">
        <ele>152.8</ele>
        <time>2022-01-16T11:51:43Z</time>
      </trkpt>
      <trkpt lat="43.2215760" lon="-3.1718630">
        <ele>152.6</ele>
        <time>2022-01-16T11:51:44Z</time>
      </trkpt>
      <trkpt lat="43.2215170" lon="-3.1717370">
        <ele>152.4</ele>
        <time>2022-01-16T11:51:45Z</time>
      </trkpt>
      <trkpt lat="43.2214570" lon="-3.1716110">
        <ele>152.2</ele>
        <time>2022-01-16T11:51:46Z</time>
      </trkpt>
      <trkpt lat="43.2213950" lon="-3.1714840">
        <ele>151.6</ele>
        <time>2022-01-16T11:51:47Z</time>
      </trkpt>
      <trkpt lat="43.2213330" lon="-3.1713560">
        <ele>151.2</ele>
        <time>2022-01-16T11:51:48Z</time>
      </trkpt>
      <trkpt lat="43.2212710" lon="-3.1712280">
        <ele>150.8</ele>
        <time>2022-01-16T11:51:49Z</time>
      </trkpt>
      <trkpt lat="43.2212110" lon="-3.1710990">
        <ele>150.4</ele>
        <time>2022-01-16T11:51:50Z</time>
      </trkpt>
      <trkpt lat="43.2211510" lon="-3.1709700">
        <ele>149.8</ele>
        <time>2022-01-16T11:51:51Z</time>
      </trkpt>
      <trkpt lat="43.2210910" lon="-3.1708420">
        <ele>149.4</ele>
        <time>2022-01-16T11:51:52Z</time>
      </trkpt>
      <trkpt lat="43.2210340" lon="-3.1707120">
        <ele>148.6</ele>
        <time>2022-01-16T11:51:53Z</time>
      </trkpt>
      <trkpt lat="43.2209760" lon="-3.1705790">
        <ele>148.2</ele>
        <time>2022-01-16T11:51:54Z</time>
      </trkpt>
      <trkpt lat="43.2209170" lon="-3.1704450">
        <ele>147.8</ele>
        <time>2022-01-16T11:51:55Z</time>
      </trkpt>
      <trkpt lat="43.2208560" lon="-3.1703090">
        <ele>147.2</ele>
        <time>2022-01-16T11:51:56Z</time>
      </trkpt>
      <trkpt lat="43.2207950" lon="-3.1701730">
        <ele>146.8</ele>
        <time>2022-01-16T11:51:57Z</time>
      </trkpt>
      <trkpt lat="43.2207350" lon="-3.1700360">
        <ele>146.4</ele>
        <time>2022-01-16T11:51:58Z</time>
      </trkpt>
      <trkpt lat="43.2206760" lon="-3.1699000">
        <ele>146.2</ele>
        <time>2022-01-16T11:51:59Z</time>
      </trkpt>
      <trkpt lat="43.2206170" lon="-3.1697650">
        <ele>145.8</ele>
        <time>2022-01-16T11:52:00Z</time>
      </trkpt>
      <trkpt lat="43.2205560" lon="-3.1696310">
        <ele>145.4</ele>
        <time>2022-01-16T11:52:01Z</time>
      </trkpt>
      <trkpt lat="43.2204970" lon="-3.1694970">
        <ele>145.0</ele>
        <time>2022-01-16T11:52:02Z</time>
      </trkpt>
      <trkpt lat="43.2204390" lon="-3.1693610">
        <ele>144.8</ele>
        <time>2022-01-16T11:52:03Z</time>
      </trkpt>
      <trkpt lat="43.2203870" lon="-3.1692240">
        <ele>144.4</ele>
        <time>2022-01-16T11:52:04Z</time>
      </trkpt>
      <trkpt lat="43.2203360" lon="-3.1690840">
        <ele>144.2</ele>
        <time>2022-01-16T11:52:05Z</time>
      </trkpt>
      <trkpt lat="43.2202930" lon="-3.1689430">
        <ele>143.6</ele>
        <time>2022-01-16T11:52:06Z</time>
      </trkpt>
      <trkpt lat="43.2202530" lon="-3.1688000">
        <ele>143.2</ele>
        <time>2022-01-16T11:52:07Z</time>
      </trkpt>
      <trkpt lat="43.2202100" lon="-3.1686590">
        <ele>143.0</ele>
        <time>2022-01-16T11:52:08Z</time>
      </trkpt>
      <trkpt lat="43.2201680" lon="-3.1685210">
        <ele>142.4</ele>
        <time>2022-01-16T11:52:09Z</time>
      </trkpt>
      <trkpt lat="43.2201250" lon="-3.1683850">
        <ele>142.0</ele>
        <time>2022-01-16T11:52:10Z</time>
      </trkpt>
      <trkpt lat="43.2200890" lon="-3.1682470">
        <ele>141.8</ele>
        <time>2022-01-16T11:52:11Z</time>
      </trkpt>
      <trkpt lat="43.2200530" lon="-3.1681160">
        <ele>141.8</ele>
        <time>2022-01-16T11:52:12Z</time>
      </trkpt>
      <trkpt lat="43.2200240" lon="-3.1679900">
        <ele>141.8</ele>
        <time>2022-01-16T11:52:13Z</time>
      </trkpt>
      <trkpt lat="43.2200050" lon="-3.1678660">
        <ele>141.8</ele>
        <time>2022-01-16T11:52:14Z</time>
      </trkpt>
      <trkpt lat="43.2199920" lon="-3.1677430">
        <ele>141.6</ele>
        <time>2022-01-16T11:52:15Z</time>
      </trkpt>
      <trkpt lat="43.2199820" lon="-3.1676170">
        <ele>141.4</ele>
        <time>2022-01-16T11:52:16Z</time>
      </trkpt>
      <trkpt lat="43.2199710" lon="-3.1674850">
        <ele>141.0</ele>
        <time>2022-01-16T11:52:17Z</time>
      </trkpt>
      <trkpt lat="43.2199570" lon="-3.1673460">
        <ele>140.4</ele>
        <time>2022-01-16T11:52:18Z</time>
      </trkpt>
      <trkpt lat="43.2199410" lon="-3.1672010">
        <ele>139.4</ele>
        <time>2022-01-16T11:52:19Z</time>
      </trkpt>
      <trkpt lat="43.2199210" lon="-3.1670510">
        <ele>138.8</ele>
        <time>2022-01-16T11:52:20Z</time>
      </trkpt>
      <trkpt lat="43.2199020" lon="-3.1668980">
        <ele>138.4</ele>
        <time>2022-01-16T11:52:21Z</time>
      </trkpt>
      <trkpt lat="43.2198820" lon="-3.1667440">
        <ele>138.0</ele>
        <time>2022-01-16T11:52:22Z</time>
      </trkpt>
      <trkpt lat="43.2198640" lon="-3.1666010">
        <ele>137.8</ele>
        <time>2022-01-16T11:52:23Z</time>
      </trkpt>
      <trkpt lat="43.2198460" lon="-3.1664560">
        <ele>137.8</ele>
        <time>2022-01-16T11:52:24Z</time>
      </trkpt>
      <trkpt lat="43.2198300" lon="-3.1663140">
        <ele>137.6</ele>
        <time>2022-01-16T11:52:25Z</time>
      </trkpt>
      <trkpt lat="43.2198140" lon="-3.1661740">
        <ele>137.6</ele>
        <time>2022-01-16T11:52:26Z</time>
      </trkpt>
      <trkpt lat="43.2197980" lon="-3.1660350">
        <ele>137.2</ele>
        <time>2022-01-16T11:52:27Z</time>
      </trkpt>
      <trkpt lat="43.2197820" lon="-3.1658950">
        <ele>136.8</ele>
        <time>2022-01-16T11:52:28Z</time>
      </trkpt>
      <trkpt lat="43.2197660" lon="-3.1657550">
        <ele>136.4</ele>
        <time>2022-01-16T11:52:29Z</time>
      </trkpt>
      <trkpt lat="43.2197490" lon="-3.1656170">
        <ele>135.8</ele>
        <time>2022-01-16T11:52:30Z</time>
      </trkpt>
      <trkpt lat="43.2197320" lon="-3.1654780">
        <ele>135.4</ele>
        <time>2022-01-16T11:52:31Z</time>
      </trkpt>
      <trkpt lat="43.2197150" lon="-3.1653390">
        <ele>135.2</ele>
        <time>2022-01-16T11:52:32Z</time>
      </trkpt>
      <trkpt lat="43.2196980" lon="-3.1652020">
        <ele>134.8</ele>
        <time>2022-01-16T11:52:33Z</time>
      </trkpt>
      <trkpt lat="43.2196800" lon="-3.1650650">
        <ele>134.6</ele>
        <time>2022-01-16T11:52:34Z</time>
      </trkpt>
      <trkpt lat="43.2196620" lon="-3.1649270">
        <ele>134.2</ele>
        <time>2022-01-16T11:52:35Z</time>
      </trkpt>
      <trkpt lat="43.2196430" lon="-3.1647900">
        <ele>134.0</ele>
        <time>2022-01-16T11:52:36Z</time>
      </trkpt>
      <trkpt lat="43.2196260" lon="-3.1646510">
        <ele>133.8</ele>
        <time>2022-01-16T11:52:37Z</time>
      </trkpt>
      <trkpt lat="43.2196070" lon="-3.1645140">
        <ele>133.4</ele>
        <time>2022-01-16T11:52:38Z</time>
      </trkpt>
      <trkpt lat="43.2195880" lon="-3.1643770">
        <ele>133.2</ele>
        <time>2022-01-16T11:52:39Z</time>
      </trkpt>
      <trkpt lat="43.2195700" lon="-3.1642400">
        <ele>132.8</ele>
        <time>2022-01-16T11:52:40Z</time>
      </trkpt>
      <trkpt lat="43.2195520" lon="-3.1641040">
        <ele>132.6</ele>
        <time>2022-01-16T11:52:41Z</time>
      </trkpt>
      <trkpt lat="43.2195340" lon="-3.1639680">
        <ele>132.2</ele>
        <time>2022-01-16T11:52:42Z</time>
      </trkpt>
      <trkpt lat="43.2195160" lon="-3.1638310">
        <ele>132.0</ele>
        <time>2022-01-16T11:52:43Z</time>
      </trkpt>
      <trkpt lat="43.2194980" lon="-3.1636940">
        <ele>131.6</ele>
        <time>2022-01-16T11:52:44Z</time>
      </trkpt>
      <trkpt lat="43.2194800" lon="-3.1635570">
        <ele>131.4</ele>
        <time>2022-01-16T11:52:45Z</time>
      </trkpt>
      <trkpt lat="43.2194620" lon="-3.1634180">
        <ele>131.0</ele>
        <time>2022-01-16T11:52:46Z</time>
      </trkpt>
      <trkpt lat="43.2194460" lon="-3.1632770">
        <ele>130.8</ele>
        <time>2022-01-16T11:52:47Z</time>
      </trkpt>
      <trkpt lat="43.2194300" lon="-3.1631360">
        <ele>130.2</ele>
        <time>2022-01-16T11:52:48Z</time>
      </trkpt>
      <trkpt lat="43.2194150" lon="-3.1629960">
        <ele>130.0</ele>
        <time>2022-01-16T11:52:49Z</time>
      </trkpt>
      <trkpt lat="43.2194020" lon="-3.1628570">
        <ele>129.8</ele>
        <time>2022-01-16T11:52:50Z</time>
      </trkpt>
      <trkpt lat="43.2193900" lon="-3.1627180">
        <ele>129.4</ele>
        <time>2022-01-16T11:52:51Z</time>
      </trkpt>
      <trkpt lat="43.2193810" lon="-3.1625790">
        <ele>129.2</ele>
        <time>2022-01-16T11:52:52Z</time>
      </trkpt>
      <trkpt lat="43.2193730" lon="-3.1624390">
        <ele>128.8</ele>
        <time>2022-01-16T11:52:53Z</time>
      </trkpt>
      <trkpt lat="43.2193680" lon="-3.1622990">
        <ele>128.4</ele>
        <time>2022-01-16T11:52:54Z</time>
      </trkpt>
      <trkpt lat="43.2193640" lon="-3.1621570">
        <ele>128.0</ele>
        <time>2022-01-16T11:52:55Z</time>
      </trkpt>
      <trkpt lat="43.2193620" lon="-3.1620160">
        <ele>127.6</ele>
        <time>2022-01-16T11:52:56Z</time>
      </trkpt>
      <trkpt lat="43.2193610" lon="-3.1618750">
        <ele>127.2</ele>
        <time>2022-01-16T11:52:57Z</time>
      </trkpt>
      <trkpt lat="43.2193620" lon="-3.1617340">
        <ele>127.0</ele>
        <time>2022-01-16T11:52:58Z</time>
      </trkpt>
      <trkpt lat="43.2193670" lon="-3.1615930">
        <ele>126.6</ele>
        <time>2022-01-16T11:52:59Z</time>
      </trkpt>
      <trkpt lat="43.2193780" lon="-3.1614510">
        <ele>126.4</ele>
        <time>2022-01-16T11:53:00Z</time>
      </trkpt>
      <trkpt lat="43.2193960" lon="-3.1613120">
        <ele>126.0</ele>
        <time>2022-01-16T11:53:01Z</time>
      </trkpt>
      <trkpt lat="43.2194210" lon="-3.1611730">
        <ele>125.6</ele>
        <time>2022-01-16T11:53:02Z</time>
      </trkpt>
      <trkpt lat="43.2194510" lon="-3.1610360">
        <ele>125.2</ele>
        <time>2022-01-16T11:53:03Z</time>
      </trkpt>
      <trkpt lat="43.2194860" lon="-3.1609020">
        <ele>124.6</ele>
        <time>2022-01-16T11:53:04Z</time>
      </trkpt>
      <trkpt lat="43.2195260" lon="-3.1607700">
        <ele>124.0</ele>
        <time>2022-01-16T11:53:05Z</time>
      </trkpt>
      <trkpt lat="43.2195690" lon="-3.1606380">
        <ele>123.2</ele>
        <time>2022-01-16T11:53:06Z</time>
      </trkpt>
      <trkpt lat="43.2196120" lon="-3.1605040">
        <ele>122.6</ele>
        <time>2022-01-16T11:53:07Z</time>
      </trkpt>
      <trkpt lat="43.2196520" lon="-3.1603660">
        <ele>122.2</ele>
        <time>2022-01-16T11:53:08Z</time>
      </trkpt>
      <trkpt lat="43.2196890" lon="-3.1602230">
        <ele>121.6</ele>
        <time>2022-01-16T11:53:09Z</time>
      </trkpt>
      <trkpt lat="43.2197190" lon="-3.1600750">
        <ele>121.0</ele>
        <time>2022-01-16T11:53:10Z</time>
      </trkpt>
      <trkpt lat="43.2197400" lon="-3.1599230">
        <ele>120.6</ele>
        <time>2022-01-16T11:53:11Z</time>
      </trkpt>
      <trkpt lat="43.2197520" lon="-3.1597710">
        <ele>120.4</ele>
        <time>2022-01-16T11:53:12Z</time>
      </trkpt>
      <trkpt lat="43.2197550" lon="-3.1596240">
        <ele>120.4</ele>
        <time>2022-01-16T11:53:13Z</time>
      </trkpt>
      <trkpt lat="43.2197500" lon="-3.1594820">
        <ele>120.4</ele>
        <time>2022-01-16T11:53:14Z</time>
      </trkpt>
      <trkpt lat="43.2197400" lon="-3.1593460">
        <ele>120.6</ele>
        <time>2022-01-16T11:53:15Z</time>
      </trkpt>
      <trkpt lat="43.2197270" lon="-3.1592120">
        <ele>120.6</ele>
        <time>2022-01-16T11:53:16Z</time>
      </trkpt>
      <trkpt lat="43.2197140" lon="-3.1590790">
        <ele>120.6</ele>
        <time>2022-01-16T11:53:17Z</time>
      </trkpt>
      <trkpt lat="43.2197040" lon="-3.1589480">
        <ele>120.8</ele>
        <time>2022-01-16T11:53:18Z</time>
      </trkpt>
      <trkpt lat="43.2196950" lon="-3.1588190">
        <ele>120.8</ele>
        <time>2022-01-16T11:53:19Z</time>
      </trkpt>
      <trkpt lat="43.2196900" lon="-3.1586900">
        <ele>121.0</ele>
        <time>2022-01-16T11:53:20Z</time>
      </trkpt>
      <trkpt lat="43.2196890" lon="-3.1585610">
        <ele>121.0</ele>
        <time>2022-01-16T11:53:21Z</time>
      </trkpt>
      <trkpt lat="43.2196920" lon="-3.1584350">
        <ele>121.0</ele>
        <time>2022-01-16T11:53:22Z</time>
      </trkpt>
      <trkpt lat="43.2197000" lon="-3.1583100">
        <ele>120.8</ele>
        <time>2022-01-16T11:53:23Z</time>
      </trkpt>
      <trkpt lat="43.2197110" lon="-3.1581850">
        <ele>120.6</ele>
        <time>2022-01-16T11:53:24Z</time>
      </trkpt>
      <trkpt lat="43.2197250" lon="-3.1580600">
        <ele>120.6</ele>
        <time>2022-01-16T11:53:25Z</time>
      </trkpt>
      <trkpt lat="43.2197390" lon="-3.1579350">
        <ele>120.4</ele>
        <time>2022-01-16T11:53:26Z</time>
      </trkpt>
      <trkpt lat="43.2197550" lon="-3.1578110">
        <ele>120.4</ele>
        <time>2022-01-16T11:53:27Z</time>
      </trkpt>
      <trkpt lat="43.2197700" lon="-3.1576850">
        <ele>120.2</ele>
        <time>2022-01-16T11:53:28Z</time>
      </trkpt>
      <trkpt lat="43.2197860" lon="-3.1575590">
        <ele>120.0</ele>
        <time>2022-01-16T11:53:29Z</time>
      </trkpt>
      <trkpt lat="43.2198010" lon="-3.1574330">
        <ele>120.0</ele>
        <time>2022-01-16T11:53:30Z</time>
      </trkpt>
      <trkpt lat="43.2198150" lon="-3.1573060">
        <ele>119.8</ele>
        <time>2022-01-16T11:53:31Z</time>
      </trkpt>
      <trkpt lat="43.2198290" lon="-3.1571790">
        <ele>119.6</ele>
        <time>2022-01-16T11:53:32Z</time>
      </trkpt>
      <trkpt lat="43.2198410" lon="-3.1570490">
        <ele>119.4</ele>
        <time>2022-01-16T11:53:33Z</time>
      </trkpt>
      <trkpt lat="43.2198500" lon="-3.1569180">
        <ele>119.2</ele>
        <time>2022-01-16T11:53:34Z</time>
      </trkpt>
      <trkpt lat="43.2198620" lon="-3.1567840">
        <ele>118.8</ele>
        <time>2022-01-16T11:53:35Z</time>
      </trkpt>
      <trkpt lat="43.2198720" lon="-3.1566520">
        <ele>118.6</ele>
        <time>2022-01-16T11:53:36Z</time>
      </trkpt>
      <trkpt lat="43.2198820" lon="-3.1565170">
        <ele>118.2</ele>
        <time>2022-01-16T11:53:37Z</time>
      </trkpt>
      <trkpt lat="43.2198920" lon="-3.1563830">
        <ele>117.8</ele>
        <time>2022-01-16T11:53:38Z</time>
      </trkpt>
      <trkpt lat="43.2199030" lon="-3.1562480">
        <ele>117.4</ele>
        <time>2022-01-16T11:53:39Z</time>
      </trkpt>
      <trkpt lat="43.2199130" lon="-3.1561140">
        <ele>117.0</ele>
        <time>2022-01-16T11:53:40Z</time>
      </trkpt>
      <trkpt lat="43.2199230" lon="-3.1559780">
        <ele>116.8</ele>
        <time>2022-01-16T11:53:41Z</time>
      </trkpt>
      <trkpt lat="43.2199310" lon="-3.1558420">
        <ele>116.4</ele>
        <time>2022-01-16T11:53:42Z</time>
      </trkpt>
      <trkpt lat="43.2199370" lon="-3.1557040">
        <ele>116.0</ele>
        <time>2022-01-16T11:53:43Z</time>
      </trkpt>
      <trkpt lat="43.2199400" lon="-3.1555670">
        <ele>115.4</ele>
        <time>2022-01-16T11:53:44Z</time>
      </trkpt>
      <trkpt lat="43.2199380" lon="-3.1554290">
        <ele>115.0</ele>
        <time>2022-01-16T11:53:45Z</time>
      </trkpt>
      <trkpt lat="43.2199330" lon="-3.1552910">
        <ele>114.8</ele>
        <time>2022-01-16T11:53:46Z</time>
      </trkpt>
      <trkpt lat="43.2199260" lon="-3.1551520">
        <ele>114.4</ele>
        <time>2022-01-16T11:53:47Z</time>
      </trkpt>
      <trkpt lat="43.2199170" lon="-3.1550140">
        <ele>114.0</ele>
        <time>2022-01-16T11:53:48Z</time>
      </trkpt>
      <trkpt lat="43.2199110" lon="-3.1548750">
        <ele>113.6</ele>
        <time>2022-01-16T11:53:49Z</time>
      </trkpt>
      <trkpt lat="43.2199060" lon="-3.1547360">
        <ele>113.4</ele>
        <time>2022-01-16T11:53:50Z</time>
      </trkpt>
      <trkpt lat="43.2199030" lon="-3.1545960">
        <ele>113.0</ele>
        <time>2022-01-16T11:53:51Z</time>
      </trkpt>
      <trkpt lat="43.2199040" lon="-3.1544550">
        <ele>112.4</ele>
        <time>2022-01-16T11:53:52Z</time>
      </trkpt>
      <trkpt lat="43.2199030" lon="-3.1543150">
        <ele>112.2</ele>
        <time>2022-01-16T11:53:53Z</time>
      </trkpt>
      <trkpt lat="43.2199040" lon="-3.1541730">
        <ele>111.6</ele>
        <time>2022-01-16T11:53:54Z</time>
      </trkpt>
      <trkpt lat="43.2199100" lon="-3.1540280">
        <ele>111.2</ele>
        <time>2022-01-16T11:53:55Z</time>
      </trkpt>
      <trkpt lat="43.2199180" lon="-3.1538810">
        <ele>110.6</ele>
        <time>2022-01-16T11:53:56Z</time>
      </trkpt>
      <trkpt lat="43.2199240" lon="-3.1537330">
        <ele>110.2</ele>
        <time>2022-01-16T11:53:57Z</time>
      </trkpt>
      <trkpt lat="43.2199300" lon="-3.1535850">
        <ele>109.6</ele>
        <time>2022-01-16T11:53:58Z</time>
      </trkpt>
      <trkpt lat="43.2199370" lon="-3.1534380">
        <ele>109.2</ele>
        <time>2022-01-16T11:53:59Z</time>
      </trkpt>
      <trkpt lat="43.2199430" lon="-3.1532920">
        <ele>108.6</ele>
        <time>2022-01-16T11:54:00Z</time>
      </trkpt>
      <trkpt lat="43.2199500" lon="-3.1531440">
        <ele>108.2</ele>
        <time>2022-01-16T11:54:01Z</time>
      </trkpt>
      <trkpt lat="43.2199570" lon="-3.1529970">
        <ele>107.8</ele>
        <time>2022-01-16T11:54:02Z</time>
      </trkpt>
      <trkpt lat="43.2199630" lon="-3.1528510">
        <ele>107.6</ele>
        <time>2022-01-16T11:54:03Z</time>
      </trkpt>
      <trkpt lat="43.2199690" lon="-3.1527080">
        <ele>107.4</ele>
        <time>2022-01-16T11:54:04Z</time>
      </trkpt>
      <trkpt lat="43.2199720" lon="-3.1525630">
        <ele>107.2</ele>
        <time>2022-01-16T11:54:05Z</time>
      </trkpt>
      <trkpt lat="43.2199660" lon="-3.1524200">
        <ele>106.8</ele>
        <time>2022-01-16T11:54:06Z</time>
      </trkpt>
      <trkpt lat="43.2199550" lon="-3.1522780">
        <ele>106.4</ele>
        <time>2022-01-16T11:54:07Z</time>
      </trkpt>
      <trkpt lat="43.2199390" lon="-3.1521370">
        <ele>106.0</ele>
        <time>2022-01-16T11:54:08Z</time>
      </trkpt>
      <trkpt lat="43.2199190" lon="-3.1520000">
        <ele>105.8</ele>
        <time>2022-01-16T11:54:09Z</time>
      </trkpt>
      <trkpt lat="43.2198960" lon="-3.1518640">
        <ele>105.4</ele>
        <time>2022-01-16T11:54:10Z</time>
      </trkpt>
      <trkpt lat="43.2198710" lon="-3.1517300">
        <ele>105.0</ele>
        <time>2022-01-16T11:54:11Z</time>
      </trkpt>
      <trkpt lat="43.2198450" lon="-3.1515990">
        <ele>104.8</ele>
        <time>2022-01-16T11:54:12Z</time>
      </trkpt>
      <trkpt lat="43.2198190" lon="-3.1514690">
        <ele>104.8</ele>
        <time>2022-01-16T11:54:13Z</time>
      </trkpt>
      <trkpt lat="43.2197940" lon="-3.1513400">
        <ele>104.8</ele>
        <time>2022-01-16T11:54:14Z</time>
      </trkpt>
      <trkpt lat="43.2197690" lon="-3.1512130">
        <ele>104.8</ele>
        <time>2022-01-16T11:54:15Z</time>
      </trkpt>
      <trkpt lat="43.2197440" lon="-3.1510860">
        <ele>104.8</ele>
        <time>2022-01-16T11:54:16Z</time>
      </trkpt>
      <trkpt lat="43.2197180" lon="-3.1509600">
        <ele>104.8</ele>
        <time>2022-01-16T11:54:17Z</time>
      </trkpt>
      <trkpt lat="43.2196940" lon="-3.1508340">
        <ele>104.6</ele>
        <time>2022-01-16T11:54:18Z</time>
      </trkpt>
      <trkpt lat="43.2196690" lon="-3.1507080">
        <ele>104.4</ele>
        <time>2022-01-16T11:54:19Z</time>
      </trkpt>
      <trkpt lat="43.2196450" lon="-3.1505830">
        <ele>104.2</ele>
        <time>2022-01-16T11:54:20Z</time>
      </trkpt>
      <trkpt lat="43.2196200" lon="-3.1504590">
        <ele>104.0</ele>
        <time>2022-01-16T11:54:21Z</time>
      </trkpt>
      <trkpt lat="43.2195960" lon="-3.1503340">
        <ele>104.0</ele>
        <time>2022-01-16T11:54:22Z</time>
      </trkpt>
      <trkpt lat="43.2195690" lon="-3.1502110">
        <ele>103.8</ele>
        <time>2022-01-16T11:54:23Z</time>
      </trkpt>
      <trkpt lat="43.2195450" lon="-3.1500860">
        <ele>103.8</ele>
        <time>2022-01-16T11:54:24Z</time>
      </trkpt>
      <trkpt lat="43.2195210" lon="-3.1499610">
        <ele>103.6</ele>
        <time>2022-01-16T11:54:25Z</time>
      </trkpt>
      <trkpt lat="43.2194960" lon="-3.1498370">
        <ele>103.4</ele>
        <time>2022-01-16T11:54:26Z</time>
      </trkpt>
      <trkpt lat="43.2194720" lon="-3.1497110">
        <ele>103.2</ele>
        <time>2022-01-16T11:54:27Z</time>
      </trkpt>
      <trkpt lat="43.2194480" lon="-3.1495860">
        <ele>103.2</ele>
        <time>2022-01-16T11:54:28Z</time>
      </trkpt>
      <trkpt lat="43.2194240" lon="-3.1494610">
        <ele>103.0</ele>
        <time>2022-01-16T11:54:29Z</time>
      </trkpt>
      <trkpt lat="43.2193980" lon="-3.1493350">
        <ele>103.0</ele>
        <time>2022-01-16T11:54:30Z</time>
      </trkpt>
      <trkpt lat="43.2193710" lon="-3.1492100">
        <ele>102.8</ele>
        <time>2022-01-16T11:54:31Z</time>
      </trkpt>
      <trkpt lat="43.2193420" lon="-3.1490860">
        <ele>102.6</ele>
        <time>2022-01-16T11:54:32Z</time>
      </trkpt>
      <trkpt lat="43.2193110" lon="-3.1489650">
        <ele>102.6</ele>
        <time>2022-01-16T11:54:33Z</time>
      </trkpt>
      <trkpt lat="43.2192740" lon="-3.1488460">
        <ele>102.4</ele>
        <time>2022-01-16T11:54:34Z</time>
      </trkpt>
      <trkpt lat="43.2192360" lon="-3.1487290">
        <ele>102.4</ele>
        <time>2022-01-16T11:54:35Z</time>
      </trkpt>
      <trkpt lat="43.2191950" lon="-3.1486140">
        <ele>102.2</ele>
        <time>2022-01-16T11:54:36Z</time>
      </trkpt>
      <trkpt lat="43.2191530" lon="-3.1485020">
        <ele>102.2</ele>
        <time>2022-01-16T11:54:37Z</time>
      </trkpt>
      <trkpt lat="43.2191080" lon="-3.1483930">
        <ele>102.2</ele>
        <time>2022-01-16T11:54:38Z</time>
      </trkpt>
      <trkpt lat="43.2190610" lon="-3.1482870">
        <ele>102.0</ele>
        <time>2022-01-16T11:54:39Z</time>
      </trkpt>
      <trkpt lat="43.2190130" lon="-3.1481800">
        <ele>102.0</ele>
        <time>2022-01-16T11:54:40Z</time>
      </trkpt>
      <trkpt lat="43.2189630" lon="-3.1480740">
        <ele>101.8</ele>
        <time>2022-01-16T11:54:41Z</time>
      </trkpt>
      <trkpt lat="43.2189140" lon="-3.1479680">
        <ele>101.8</ele>
        <time>2022-01-16T11:54:42Z</time>
      </trkpt>
      <trkpt lat="43.2188640" lon="-3.1478650">
        <ele>101.8</ele>
        <time>2022-01-16T11:54:43Z</time>
      </trkpt>
      <trkpt lat="43.2188160" lon="-3.1477610">
        <ele>101.8</ele>
        <time>2022-01-16T11:54:44Z</time>
      </trkpt>
      <trkpt lat="43.2187680" lon="-3.1476580">
        <ele>102.0</ele>
        <time>2022-01-16T11:54:45Z</time>
      </trkpt>
      <trkpt lat="43.2187210" lon="-3.1475560">
        <ele>101.8</ele>
        <time>2022-01-16T11:54:46Z</time>
      </trkpt>
      <trkpt lat="43.2186740" lon="-3.1474530">
        <ele>101.8</ele>
        <time>2022-01-16T11:54:47Z</time>
      </trkpt>
      <trkpt lat="43.2186270" lon="-3.1473500">
        <ele>101.6</ele>
        <time>2022-01-16T11:54:48Z</time>
      </trkpt>
      <trkpt lat="43.2185800" lon="-3.1472470">
        <ele>101.4</ele>
        <time>2022-01-16T11:54:49Z</time>
      </trkpt>
      <trkpt lat="43.2185330" lon="-3.1471420">
        <ele>101.2</ele>
        <time>2022-01-16T11:54:50Z</time>
      </trkpt>
      <trkpt lat="43.2184850" lon="-3.1470370">
        <ele>101.0</ele>
        <time>2022-01-16T11:54:51Z</time>
      </trkpt>
      <trkpt lat="43.2184390" lon="-3.1469300">
        <ele>101.0</ele>
        <time>2022-01-16T11:54:52Z</time>
      </trkpt>
      <trkpt lat="43.2183940" lon="-3.1468220">
        <ele>100.8</ele>
        <time>2022-01-16T11:54:53Z</time>
      </trkpt>
      <trkpt lat="43.2183480" lon="-3.1467150">
        <ele>100.6</ele>
        <time>2022-01-16T11:54:54Z</time>
      </trkpt>
      <trkpt lat="43.2183010" lon="-3.1466070">
        <ele>100.6</ele>
        <time>2022-01-16T11:54:55Z</time>
      </trkpt>
      <trkpt lat="43.2182540" lon="-3.1464990">
        <ele>100.2</ele>
        <time>2022-01-16T11:54:56Z</time>
      </trkpt>
      <trkpt lat="43.2182050" lon="-3.1463910">
        <ele>100.0</ele>
        <time>2022-01-16T11:54:57Z</time>
      </trkpt>
      <trkpt lat="43.2181540" lon="-3.1462830">
        <ele>99.8</ele>
        <time>2022-01-16T11:54:58Z</time>
      </trkpt>
      <trkpt lat="43.2181000" lon="-3.1461770">
        <ele>99.6</ele>
        <time>2022-01-16T11:54:59Z</time>
      </trkpt>
      <trkpt lat="43.2180440" lon="-3.1460730">
        <ele>99.4</ele>
        <time>2022-01-16T11:55:00Z</time>
      </trkpt>
      <trkpt lat="43.2179860" lon="-3.1459740">
        <ele>99.2</ele>
        <time>2022-01-16T11:55:01Z</time>
      </trkpt>
      <trkpt lat="43.2179270" lon="-3.1458760">
        <ele>99.0</ele>
        <time>2022-01-16T11:55:02Z</time>
      </trkpt>
      <trkpt lat="43.2178690" lon="-3.1457820">
        <ele>99.0</ele>
        <time>2022-01-16T11:55:03Z</time>
      </trkpt>
      <trkpt lat="43.2178120" lon="-3.1456900">
        <ele>99.0</ele>
        <time>2022-01-16T11:55:04Z</time>
      </trkpt>
      <trkpt lat="43.2177580" lon="-3.1455960">
        <ele>99.0</ele>
        <time>2022-01-16T11:55:05Z</time>
      </trkpt>
      <trkpt lat="43.2177070" lon="-3.1455020">
        <ele>99.2</ele>
        <time>2022-01-16T11:55:06Z</time>
      </trkpt>
      <trkpt lat="43.2176550" lon="-3.1454070">
        <ele>99.2</ele>
        <time>2022-01-16T11:55:07Z</time>
      </trkpt>
      <trkpt lat="43.2176060" lon="-3.1453090">
        <ele>99.4</ele>
        <time>2022-01-16T11:55:08Z</time>
      </trkpt>
      <trkpt lat="43.2175580" lon="-3.1452080">
        <ele>99.4</ele>
        <time>2022-01-16T11:55:09Z</time>
      </trkpt>
      <trkpt lat="43.2175130" lon="-3.1451040">
        <ele>99.4</ele>
        <time>2022-01-16T11:55:10Z</time>
      </trkpt>
      <trkpt lat="43.2174700" lon="-3.1450000">
        <ele>99.4</ele>
        <time>2022-01-16T11:55:11Z</time>
      </trkpt>
      <trkpt lat="43.2174310" lon="-3.1448900">
        <ele>99.4</ele>
        <time>2022-01-16T11:55:12Z</time>
      </trkpt>
      <trkpt lat="43.2173930" lon="-3.1447770">
        <ele>99.4</ele>
        <time>2022-01-16T11:55:13Z</time>
      </trkpt>
      <trkpt lat="43.2173560" lon="-3.1446610">
        <ele>99.4</ele>
        <time>2022-01-16T11:55:14Z</time>
      </trkpt>
      <trkpt lat="43.2173180" lon="-3.1445430">
        <ele>99.2</ele>
        <time>2022-01-16T11:55:15Z</time>
      </trkpt>
      <trkpt lat="43.2172820" lon="-3.1444240">
        <ele>98.8</ele>
        <time>2022-01-16T11:55:16Z</time>
      </trkpt>
      <trkpt lat="43.2172480" lon="-3.1443020">
        <ele>98.4</ele>
        <time>2022-01-16T11:55:17Z</time>
      </trkpt>
      <trkpt lat="43.2172160" lon="-3.1441800">
        <ele>98.2</ele>
        <time>2022-01-16T11:55:18Z</time>
      </trkpt>
      <trkpt lat="43.2171880" lon="-3.1440540">
        <ele>98.2</ele>
        <time>2022-01-16T11:55:19Z</time>
      </trkpt>
      <trkpt lat="43.2171620" lon="-3.1439280">
        <ele>97.8</ele>
        <time>2022-01-16T11:55:20Z</time>
      </trkpt>
      <trkpt lat="43.2171380" lon="-3.1438000">
        <ele>97.2</ele>
        <time>2022-01-16T11:55:21Z</time>
      </trkpt>
      <trkpt lat="43.2171180" lon="-3.1436720">
        <ele>96.8</ele>
        <time>2022-01-16T11:55:22Z</time>
      </trkpt>
      <trkpt lat="43.2171010" lon="-3.1435440">
        <ele>96.4</ele>
        <time>2022-01-16T11:55:23Z</time>
      </trkpt>
      <trkpt lat="43.2170860" lon="-3.1434160">
        <ele>96.0</ele>
        <time>2022-01-16T11:55:24Z</time>
      </trkpt>
      <trkpt lat="43.2170730" lon="-3.1432890">
        <ele>95.6</ele>
        <time>2022-01-16T11:55:25Z</time>
      </trkpt>
      <trkpt lat="43.2170590" lon="-3.1431630">
        <ele>95.2</ele>
        <time>2022-01-16T11:55:26Z</time>
      </trkpt>
      <trkpt lat="43.2170440" lon="-3.1430370">
        <ele>94.8</ele>
        <time>2022-01-16T11:55:27Z</time>
      </trkpt>
      <trkpt lat="43.2170270" lon="-3.1429100">
        <ele>94.6</ele>
        <time>2022-01-16T11:55:28Z</time>
      </trkpt>
      <trkpt lat="43.2170120" lon="-3.1427820">
        <ele>94.0</ele>
        <time>2022-01-16T11:55:29Z</time>
      </trkpt>
      <trkpt lat="43.2169950" lon="-3.1426550">
        <ele>93.8</ele>
        <time>2022-01-16T11:55:30Z</time>
      </trkpt>
      <trkpt lat="43.2169790" lon="-3.1425300">
        <ele>93.4</ele>
        <time>2022-01-16T11:55:31Z</time>
      </trkpt>
      <trkpt lat="43.2169620" lon="-3.1424050">
        <ele>93.2</ele>
        <time>2022-01-16T11:55:32Z</time>
      </trkpt>
      <trkpt lat="43.2169470" lon="-3.1422820">
        <ele>93.0</ele>
        <time>2022-01-16T11:55:33Z</time>
      </trkpt>
      <trkpt lat="43.2169330" lon="-3.1421580">
        <ele>93.0</ele>
        <time>2022-01-16T11:55:34Z</time>
      </trkpt>
      <trkpt lat="43.2169200" lon="-3.1420360">
        <ele>92.8</ele>
        <time>2022-01-16T11:55:35Z</time>
      </trkpt>
      <trkpt lat="43.2169040" lon="-3.1419140">
        <ele>92.6</ele>
        <time>2022-01-16T11:55:36Z</time>
      </trkpt>
      <trkpt lat="43.2168870" lon="-3.1417910">
        <ele>92.6</ele>
        <time>2022-01-16T11:55:37Z</time>
      </trkpt>
      <trkpt lat="43.2168690" lon="-3.1416680">
        <ele>92.2</ele>
        <time>2022-01-16T11:55:38Z</time>
      </trkpt>
      <trkpt lat="43.2168560" lon="-3.1415410">
        <ele>92.0</ele>
        <time>2022-01-16T11:55:39Z</time>
      </trkpt>
      <trkpt lat="43.2168420" lon="-3.1414140">
        <ele>91.8</ele>
        <time>2022-01-16T11:55:40Z</time>
      </trkpt>
      <trkpt lat="43.2168270" lon="-3.1412870">
        <ele>91.2</ele>
        <time>2022-01-16T11:55:41Z</time>
      </trkpt>
      <trkpt lat="43.2168120" lon="-3.1411590">
        <ele>90.8</ele>
        <time>2022-01-16T11:55:42Z</time>
      </trkpt>
      <trkpt lat="43.2167960" lon="-3.1410310">
        <ele>90.6</ele>
        <time>2022-01-16T11:55:43Z</time>
      </trkpt>
      <trkpt lat="43.2167810" lon="-3.1409030">
        <ele>90.4</ele>
        <time>2022-01-16T11:55:44Z</time>
      </trkpt>
      <trkpt lat="43.2167670" lon="-3.1407720">
        <ele>90.2</ele>
        <time>2022-01-16T11:55:45Z</time>
      </trkpt>
      <trkpt lat="43.2167520" lon="-3.1406410">
        <ele>89.8</ele>
        <time>2022-01-16T11:55:46Z</time>
      </trkpt>
      <trkpt lat="43.2167400" lon="-3.1405080">
        <ele>89.6</ele>
        <time>2022-01-16T11:55:47Z</time>
      </trkpt>
      <trkpt lat="43.2167280" lon="-3.1403750">
        <ele>89.4</ele>
        <time>2022-01-16T11:55:48Z</time>
      </trkpt>
      <trkpt lat="43.2167230" lon="-3.1402410">
        <ele>89.0</ele>
        <time>2022-01-16T11:55:49Z</time>
      </trkpt>
      <trkpt lat="43.2167060" lon="-3.1401100">
        <ele>88.8</ele>
        <time>2022-01-16T11:55:50Z</time>
      </trkpt>
      <trkpt lat="43.2166800" lon="-3.1399820">
        <ele>88.6</ele>
        <time>2022-01-16T11:55:51Z</time>
      </trkpt>
      <trkpt lat="43.2166480" lon="-3.1398630">
        <ele>88.4</ele>
        <time>2022-01-16T11:55:52Z</time>
      </trkpt>
      <trkpt lat="43.2166180" lon="-3.1397430">
        <ele>88.2</ele>
        <time>2022-01-16T11:55:53Z</time>
      </trkpt>
      <trkpt lat="43.2165820" lon="-3.1396280">
        <ele>88.0</ele>
        <time>2022-01-16T11:55:54Z</time>
      </trkpt>
      <trkpt lat="43.2165480" lon="-3.1395110">
        <ele>88.0</ele>
        <time>2022-01-16T11:55:55Z</time>
      </trkpt>
      <trkpt lat="43.2165150" lon="-3.1393940">
        <ele>87.8</ele>
        <time>2022-01-16T11:55:56Z</time>
      </trkpt>
      <trkpt lat="43.2164820" lon="-3.1392800">
        <ele>87.8</ele>
        <time>2022-01-16T11:55:57Z</time>
      </trkpt>
      <trkpt lat="43.2164500" lon="-3.1391660">
        <ele>87.8</ele>
        <time>2022-01-16T11:55:58Z</time>
      </trkpt>
      <trkpt lat="43.2164180" lon="-3.1390520">
        <ele>87.8</ele>
        <time>2022-01-16T11:55:59Z</time>
      </trkpt>
      <trkpt lat="43.2163870" lon="-3.1389380">
        <ele>87.8</ele>
        <time>2022-01-16T11:56:00Z</time>
      </trkpt>
      <trkpt lat="43.2163560" lon="-3.1388250">
        <ele>87.8</ele>
        <time>2022-01-16T11:56:01Z</time>
      </trkpt>
      <trkpt lat="43.2163240" lon="-3.1387140">
        <ele>87.8</ele>
        <time>2022-01-16T11:56:02Z</time>
      </trkpt>
      <trkpt lat="43.2162930" lon="-3.1386040">
        <ele>87.8</ele>
        <time>2022-01-16T11:56:03Z</time>
      </trkpt>
      <trkpt lat="43.2162620" lon="-3.1384940">
        <ele>87.8</ele>
        <time>2022-01-16T11:56:04Z</time>
      </trkpt>
      <trkpt lat="43.2162310" lon="-3.1383830">
        <ele>87.8</ele>
        <time>2022-01-16T11:56:05Z</time>
      </trkpt>
      <trkpt lat="43.2162000" lon="-3.1382730">
        <ele>87.8</ele>
        <time>2022-01-16T11:56:06Z</time>
      </trkpt>
      <trkpt lat="43.2161690" lon="-3.1381630">
        <ele>87.6</ele>
        <time>2022-01-16T11:56:07Z</time>
      </trkpt>
      <trkpt lat="43.2161390" lon="-3.1380530">
        <ele>87.6</ele>
        <time>2022-01-16T11:56:08Z</time>
      </trkpt>
      <trkpt lat="43.2161070" lon="-3.1379420">
        <ele>87.6</ele>
        <time>2022-01-16T11:56:09Z</time>
      </trkpt>
      <trkpt lat="43.2160760" lon="-3.1378320">
        <ele>87.4</ele>
        <time>2022-01-16T11:56:10Z</time>
      </trkpt>
      <trkpt lat="43.2160450" lon="-3.1377230">
        <ele>87.4</ele>
        <time>2022-01-16T11:56:11Z</time>
      </trkpt>
      <trkpt lat="43.2160140" lon="-3.1376120">
        <ele>87.4</ele>
        <time>2022-01-16T11:56:12Z</time>
      </trkpt>
      <trkpt lat="43.2159830" lon="-3.1375010">
        <ele>87.4</ele>
        <time>2022-01-16T11:56:13Z</time>
      </trkpt>
      <trkpt lat="43.2159530" lon="-3.1373900">
        <ele>87.6</ele>
        <time>2022-01-16T11:56:14Z</time>
      </trkpt>
      <trkpt lat="43.2159240" lon="-3.1372810">
        <ele>87.6</ele>
        <time>2022-01-16T11:56:15Z</time>
      </trkpt>
      <trkpt lat="43.2158970" lon="-3.1371730">
        <ele>87.8</ele>
        <time>2022-01-16T11:56:16Z</time>
      </trkpt>
      <trkpt lat="43.2158720" lon="-3.1370650">
        <ele>87.8</ele>
        <time>2022-01-16T11:56:17Z</time>
      </trkpt>
      <trkpt lat="43.2158340" lon="-3.1369640">
        <ele>87.8</ele>
        <time>2022-01-16T11:56:18Z</time>
      </trkpt>
      <trkpt lat="43.2158040" lon="-3.1368550">
        <ele>87.8</ele>
        <time>2022-01-16T11:56:19Z</time>
      </trkpt>
      <trkpt lat="43.2157740" lon="-3.1367460">
        <ele>87.6</ele>
        <time>2022-01-16T11:56:20Z</time>
      </trkpt>
      <trkpt lat="43.2157440" lon="-3.1366360">
        <ele>87.6</ele>
        <time>2022-01-16T11:56:21Z</time>
      </trkpt>
      <trkpt lat="43.2157140" lon="-3.1365270">
        <ele>87.4</ele>
        <time>2022-01-16T11:56:22Z</time>
      </trkpt>
      <trkpt lat="43.2156830" lon="-3.1364170">
        <ele>87.4</ele>
        <time>2022-01-16T11:56:23Z</time>
      </trkpt>
      <trkpt lat="43.2156520" lon="-3.1363080">
        <ele>87.2</ele>
        <time>2022-01-16T11:56:24Z</time>
      </trkpt>
      <trkpt lat="43.2156280" lon="-3.1362000">
        <ele>87.0</ele>
        <time>2022-01-16T11:56:25Z</time>
      </trkpt>
      <trkpt lat="43.2155980" lon="-3.1360930">
        <ele>87.0</ele>
        <time>2022-01-16T11:56:26Z</time>
      </trkpt>
      <trkpt lat="43.2155690" lon="-3.1359840">
        <ele>86.8</ele>
        <time>2022-01-16T11:56:27Z</time>
      </trkpt>
      <trkpt lat="43.2155400" lon="-3.1358750">
        <ele>86.8</ele>
        <time>2022-01-16T11:56:28Z</time>
      </trkpt>
      <trkpt lat="43.2155090" lon="-3.1357640">
        <ele>86.6</ele>
        <time>2022-01-16T11:56:29Z</time>
      </trkpt>
      <trkpt lat="43.2154770" lon="-3.1356530">
        <ele>86.6</ele>
        <time>2022-01-16T11:56:30Z</time>
      </trkpt>
      <trkpt lat="43.2154520" lon="-3.1355390">
        <ele>86.4</ele>
        <time>2022-01-16T11:56:31Z</time>
      </trkpt>
      <trkpt lat="43.2154220" lon="-3.1354260">
        <ele>86.4</ele>
        <time>2022-01-16T11:56:32Z</time>
      </trkpt>
      <trkpt lat="43.2153960" lon="-3.1353110">
        <ele>86.2</ele>
        <time>2022-01-16T11:56:33Z</time>
      </trkpt>
      <trkpt lat="43.2153710" lon="-3.1351970">
        <ele>86.0</ele>
        <time>2022-01-16T11:56:34Z</time>
      </trkpt>
      <trkpt lat="43.2153440" lon="-3.1350850">
        <ele>85.8</ele>
        <time>2022-01-16T11:56:35Z</time>
      </trkpt>
      <trkpt lat="43.2153180" lon="-3.1349720">
        <ele>85.8</ele>
        <time>2022-01-16T11:56:36Z</time>
      </trkpt>
      <trkpt lat="43.2152920" lon="-3.1348610">
        <ele>85.6</ele>
        <time>2022-01-16T11:56:37Z</time>
      </trkpt>
      <trkpt lat="43.2152650" lon="-3.1347490">
        <ele>85.6</ele>
        <time>2022-01-16T11:56:38Z</time>
      </trkpt>
      <trkpt lat="43.2152460" lon="-3.1346330">
        <ele>85.6</ele>
        <time>2022-01-16T11:56:39Z</time>
      </trkpt>
      <trkpt lat="43.2152190" lon="-3.1345220">
        <ele>85.6</ele>
        <time>2022-01-16T11:56:40Z</time>
      </trkpt>
      <trkpt lat="43.2151890" lon="-3.1344150">
        <ele>85.4</ele>
        <time>2022-01-16T11:56:41Z</time>
      </trkpt>
      <trkpt lat="43.2151480" lon="-3.1343150">
        <ele>85.6</ele>
        <time>2022-01-16T11:56:42Z</time>
      </trkpt>
      <trkpt lat="43.2151070" lon="-3.1342160">
        <ele>85.6</ele>
        <time>2022-01-16T11:56:43Z</time>
      </trkpt>
      <trkpt lat="43.2150620" lon="-3.1341180">
        <ele>85.6</ele>
        <time>2022-01-16T11:56:44Z</time>
      </trkpt>
      <trkpt lat="43.2150160" lon="-3.1340220">
        <ele>85.6</ele>
        <time>2022-01-16T11:56:45Z</time>
      </trkpt>
      <trkpt lat="43.2149680" lon="-3.1339270">
        <ele>85.8</ele>
        <time>2022-01-16T11:56:46Z</time>
      </trkpt>
      <trkpt lat="43.2149270" lon="-3.1338370">
        <ele>85.8</ele>
        <time>2022-01-16T11:56:47Z</time>
      </trkpt>
      <trkpt lat="43.2148810" lon="-3.1337530">
        <ele>85.8</ele>
        <time>2022-01-16T11:56:48Z</time>
      </trkpt>
      <trkpt lat="43.2148360" lon="-3.1336680">
        <ele>85.8</ele>
        <time>2022-01-16T11:56:49Z</time>
      </trkpt>
      <trkpt lat="43.2147920" lon="-3.1335870">
        <ele>85.8</ele>
        <time>2022-01-16T11:56:50Z</time>
      </trkpt>
      <trkpt lat="43.2147510" lon="-3.1335120">
        <ele>85.8</ele>
        <time>2022-01-16T11:56:51Z</time>
      </trkpt>
      <trkpt lat="43.2147140" lon="-3.1334430">
        <ele>85.6</ele>
        <time>2022-01-16T11:56:52Z</time>
      </trkpt>
      <trkpt lat="43.2146810" lon="-3.1333790">
        <ele>85.4</ele>
        <time>2022-01-16T11:56:53Z</time>
      </trkpt>
      <trkpt lat="43.2146500" lon="-3.1333310">
        <ele>85.2</ele>
        <time>2022-01-16T11:56:54Z</time>
      </trkpt>
      <trkpt lat="43.2146180" lon="-3.1333000">
        <ele>85.2</ele>
        <time>2022-01-16T11:56:55Z</time>
      </trkpt>
      <trkpt lat="43.2145960" lon="-3.1332920">
        <ele>85.2</ele>
        <time>2022-01-16T11:56:56Z</time>
      </trkpt>
      <trkpt lat="43.2145690" lon="-3.1333000">
        <ele>85.0</ele>
        <time>2022-01-16T11:56:57Z</time>
      </trkpt>
      <trkpt lat="43.2145430" lon="-3.1333200">
        <ele>85.0</ele>
        <time>2022-01-16T11:56:58Z</time>
      </trkpt>
      <trkpt lat="43.2145100" lon="-3.1333380">
        <ele>84.8</ele>
        <time>2022-01-16T11:56:59Z</time>
      </trkpt>
      <trkpt lat="43.2144740" lon="-3.1333590">
        <ele>84.6</ele>
        <time>2022-01-16T11:57:00Z</time>
      </trkpt>
      <trkpt lat="43.2144390" lon="-3.1333860">
        <ele>84.2</ele>
        <time>2022-01-16T11:57:01Z</time>
      </trkpt>
      <trkpt lat="43.2144140" lon="-3.1334040">
        <ele>83.6</ele>
        <time>2022-01-16T11:57:02Z</time>
      </trkpt>
      <trkpt lat="43.2143780" lon="-3.1334210">
        <ele>83.0</ele>
        <time>2022-01-16T11:57:03Z</time>
      </trkpt>
      <trkpt lat="43.2143440" lon="-3.1334450">
        <ele>82.6</ele>
        <time>2022-01-16T11:57:04Z</time>
      </trkpt>
      <trkpt lat="43.2143100" lon="-3.1334460">
        <ele>82.4</ele>
        <time>2022-01-16T11:57:05Z</time>
      </trkpt>
      <trkpt lat="43.2142790" lon="-3.1334310">
        <ele>82.0</ele>
        <time>2022-01-16T11:57:06Z</time>
      </trkpt>
      <trkpt lat="43.2142620" lon="-3.1333930">
        <ele>81.8</ele>
        <time>2022-01-16T11:57:07Z</time>
      </trkpt>
      <trkpt lat="43.2142480" lon="-3.1333470">
        <ele>81.6</ele>
        <time>2022-01-16T11:57:08Z</time>
      </trkpt>
      <trkpt lat="43.2142320" lon="-3.1333010">
        <ele>81.4</ele>
        <time>2022-01-16T11:57:09Z</time>
      </trkpt>
      <trkpt lat="43.2142070" lon="-3.1332530">
        <ele>81.4</ele>
        <time>2022-01-16T11:57:10Z</time>
      </trkpt>
      <trkpt lat="43.2141970" lon="-3.1331920">
        <ele>81.2</ele>
        <time>2022-01-16T11:57:11Z</time>
      </trkpt>
      <trkpt lat="43.2141870" lon="-3.1331370">
        <ele>81.0</ele>
        <time>2022-01-16T11:57:12Z</time>
      </trkpt>
      <trkpt lat="43.2141770" lon="-3.1330850">
        <ele>81.2</ele>
        <time>2022-01-16T11:57:13Z</time>
      </trkpt>
      <trkpt lat="43.2141680" lon="-3.1330260">
        <ele>81.2</ele>
        <time>2022-01-16T11:57:14Z</time>
      </trkpt>
      <trkpt lat="43.2141590" lon="-3.1329770">
        <ele>81.6</ele>
        <time>2022-01-16T11:57:15Z</time>
      </trkpt>
      <trkpt lat="43.2141540" lon="-3.1329300">
        <ele>81.6</ele>
        <time>2022-01-16T11:57:16Z</time>
      </trkpt>
      <trkpt lat="43.2141540" lon="-3.1328890">
        <ele>81.8</ele>
        <time>2022-01-16T11:57:17Z</time>
      </trkpt>
      <trkpt lat="43.2141510" lon="-3.1328620">
        <ele>81.8</ele>
        <time>2022-01-16T11:57:18Z</time>
      </trkpt>
      <trkpt lat="43.2141500" lon="-3.1328330">
        <ele>81.6</ele>
        <time>2022-01-16T11:57:19Z</time>
      </trkpt>
      <trkpt lat="43.2141500" lon="-3.1328050">
        <ele>81.4</ele>
        <time>2022-01-16T11:57:20Z</time>
      </trkpt>
      <trkpt lat="43.2141480" lon="-3.1327740">
        <ele>81.4</ele>
        <time>2022-01-16T11:57:21Z</time>
      </trkpt>
      <trkpt lat="43.2141460" lon="-3.1327410">
        <ele>81.4</ele>
        <time>2022-01-16T11:57:22Z</time>
      </trkpt>
      <trkpt lat="43.2141440" lon="-3.1327070">
        <ele>81.4</ele>
        <time>2022-01-16T11:57:23Z</time>
      </trkpt>
      <trkpt lat="43.2141360" lon="-3.1326700">
        <ele>81.4</ele>
        <time>2022-01-16T11:57:24Z</time>
      </trkpt>
      <trkpt lat="43.2141320" lon="-3.1326340">
        <ele>81.4</ele>
        <time>2022-01-16T11:57:25Z</time>
      </trkpt>
      <trkpt lat="43.2141240" lon="-3.1326060">
        <ele>81.4</ele>
        <time>2022-01-16T11:57:26Z</time>
      </trkpt>
      <trkpt lat="43.2141040" lon="-3.1325710">
        <ele>81.4</ele>
        <time>2022-01-16T11:57:27Z</time>
      </trkpt>
      <trkpt lat="43.2141010" lon="-3.1325340">
        <ele>81.4</ele>
        <time>2022-01-16T11:57:28Z</time>
      </trkpt>
      <trkpt lat="43.2141020" lon="-3.1324880">
        <ele>81.4</ele>
        <time>2022-01-16T11:57:29Z</time>
      </trkpt>
      <trkpt lat="43.2140990" lon="-3.1324420">
        <ele>81.4</ele>
        <time>2022-01-16T11:57:30Z</time>
      </trkpt>
      <trkpt lat="43.2141020" lon="-3.1324040">
        <ele>81.4</ele>
        <time>2022-01-16T11:57:31Z</time>
      </trkpt>
      <trkpt lat="43.2141020" lon="-3.1323620">
        <ele>81.2</ele>
        <time>2022-01-16T11:57:32Z</time>
      </trkpt>
      <trkpt lat="43.2140980" lon="-3.1323110">
        <ele>81.2</ele>
        <time>2022-01-16T11:57:33Z</time>
      </trkpt>
      <trkpt lat="43.2140910" lon="-3.1322650">
        <ele>81.2</ele>
        <time>2022-01-16T11:57:34Z</time>
      </trkpt>
      <trkpt lat="43.2140830" lon="-3.1322220">
        <ele>81.0</ele>
        <time>2022-01-16T11:57:35Z</time>
      </trkpt>
      <trkpt lat="43.2140640" lon="-3.1321690">
        <ele>81.0</ele>
        <time>2022-01-16T11:57:36Z</time>
      </trkpt>
      <trkpt lat="43.2140480" lon="-3.1321190">
        <ele>81.0</ele>
        <time>2022-01-16T11:57:37Z</time>
      </trkpt>
      <trkpt lat="43.2140290" lon="-3.1320730">
        <ele>81.0</ele>
        <time>2022-01-16T11:57:38Z</time>
      </trkpt>
      <trkpt lat="43.2140080" lon="-3.1320300">
        <ele>80.8</ele>
        <time>2022-01-16T11:57:39Z</time>
      </trkpt>
      <trkpt lat="43.2139890" lon="-3.1319870">
        <ele>80.8</ele>
        <time>2022-01-16T11:57:40Z</time>
      </trkpt>
      <trkpt lat="43.2139710" lon="-3.1319320">
        <ele>80.6</ele>
        <time>2022-01-16T11:57:41Z</time>
      </trkpt>
      <trkpt lat="43.2139520" lon="-3.1318720">
        <ele>80.4</ele>
        <time>2022-01-16T11:57:42Z</time>
      </trkpt>
      <trkpt lat="43.2139340" lon="-3.1318070">
        <ele>80.4</ele>
        <time>2022-01-16T11:57:43Z</time>
      </trkpt>
      <trkpt lat="43.2139070" lon="-3.1317420">
        <ele>80.4</ele>
        <time>2022-01-16T11:57:44Z</time>
      </trkpt>
      <trkpt lat="43.2138840" lon="-3.1316800">
        <ele>80.4</ele>
        <time>2022-01-16T11:57:45Z</time>
      </trkpt>
      <trkpt lat="43.2138670" lon="-3.1316230">
        <ele>80.2</ele>
        <time>2022-01-16T11:57:46Z</time>
      </trkpt>
      <trkpt lat="43.2138550" lon="-3.1315690">
        <ele>80.4</ele>
        <time>2022-01-16T11:57:47Z</time>
      </trkpt>
      <trkpt lat="43.2138400" lon="-3.1315100">
        <ele>80.4</ele>
        <time>2022-01-16T11:57:48Z</time>
      </trkpt>
      <trkpt lat="43.2138250" lon="-3.1314460">
        <ele>80.4</ele>
        <time>2022-01-16T11:57:49Z</time>
      </trkpt>
      <trkpt lat="43.2138060" lon="-3.1313840">
        <ele>80.4</ele>
        <time>2022-01-16T11:57:50Z</time>
      </trkpt>
      <trkpt lat="43.2137950" lon="-3.1313240">
        <ele>80.2</ele>
        <time>2022-01-16T11:57:51Z</time>
      </trkpt>
      <trkpt lat="43.2137790" lon="-3.1312600">
        <ele>80.2</ele>
        <time>2022-01-16T11:57:52Z</time>
      </trkpt>
      <trkpt lat="43.2137570" lon="-3.1311940">
        <ele>80.2</ele>
        <time>2022-01-16T11:57:53Z</time>
      </trkpt>
      <trkpt lat="43.2137350" lon="-3.1311340">
        <ele>80.2</ele>
        <time>2022-01-16T11:57:54Z</time>
      </trkpt>
      <trkpt lat="43.2137120" lon="-3.1310830">
        <ele>80.4</ele>
        <time>2022-01-16T11:57:55Z</time>
      </trkpt>
      <trkpt lat="43.2136950" lon="-3.1310380">
        <ele>80.4</ele>
        <time>2022-01-16T11:57:56Z</time>
      </trkpt>
      <trkpt lat="43.2136830" lon="-3.1310060">
        <ele>80.4</ele>
        <time>2022-01-16T11:57:57Z</time>
      </trkpt>
      <trkpt lat="43.2136750" lon="-3.1309840">
        <ele>80.4</ele>
        <time>2022-01-16T11:57:58Z</time>
      </trkpt>
      <trkpt lat="43.2136710" lon="-3.1309710">
        <ele>80.6</ele>
        <time>2022-01-16T11:57:59Z</time>
      </trkpt>
      <trkpt lat="43.2136590" lon="-3.1309520">
        <ele>80.6</ele>
        <time>2022-01-16T11:58:00Z</time>
      </trkpt>
      <trkpt lat="43.2136530" lon="-3.1309340">
        <ele>80.6</ele>
        <time>2022-01-16T11:58:01Z</time>
      </trkpt>
      <trkpt lat="43.2136420" lon="-3.1309140">
        <ele>80.4</ele>
        <time>2022-01-16T11:58:02Z</time>
      </trkpt>
      <trkpt lat="43.2136350" lon="-3.1308980">
        <ele>80.4</ele>
        <time>2022-01-16T11:58:03Z</time>
      </trkpt>
      <trkpt lat="43.2136140" lon="-3.1308910">
        <ele>80.4</ele>
        <time>2022-01-16T11:58:04Z</time>
      </trkpt>
      <trkpt lat="43.2135900" lon="-3.1305630">
        <ele>80.4</ele>
        <time>2022-01-16T11:59:03Z</time>
      </trkpt>
      <trkpt lat="43.2135830" lon="-3.1305240">
        <ele>80.4</ele>
        <time>2022-01-16T11:59:04Z</time>
      </trkpt>
      <trkpt lat="43.2135740" lon="-3.1304740">
        <ele>80.6</ele>
        <time>2022-01-16T11:59:05Z</time>
      </trkpt>
      <trkpt lat="43.2135500" lon="-3.1304180">
        <ele>80.6</ele>
        <time>2022-01-16T11:59:06Z</time>
      </trkpt>
      <trkpt lat="43.2135320" lon="-3.1303600">
        <ele>80.6</ele>
        <time>2022-01-16T11:59:07Z</time>
      </trkpt>
      <trkpt lat="43.2135120" lon="-3.1303010">
        <ele>80.6</ele>
        <time>2022-01-16T11:59:08Z</time>
      </trkpt>
      <trkpt lat="43.2134920" lon="-3.1302440">
        <ele>80.8</ele>
        <time>2022-01-16T11:59:09Z</time>
      </trkpt>
      <trkpt lat="43.2134770" lon="-3.1301800">
        <ele>80.8</ele>
        <time>2022-01-16T11:59:10Z</time>
      </trkpt>
      <trkpt lat="43.2134610" lon="-3.1301150">
        <ele>81.0</ele>
        <time>2022-01-16T11:59:11Z</time>
      </trkpt>
      <trkpt lat="43.2134300" lon="-3.1300400">
        <ele>81.4</ele>
        <time>2022-01-16T11:59:12Z</time>
      </trkpt>
      <trkpt lat="43.2134030" lon="-3.1299660">
        <ele>81.6</ele>
        <time>2022-01-16T11:59:13Z</time>
      </trkpt>
      <trkpt lat="43.2133860" lon="-3.1298870">
        <ele>81.8</ele>
        <time>2022-01-16T11:59:14Z</time>
      </trkpt>
      <trkpt lat="43.2133650" lon="-3.1298020">
        <ele>82.0</ele>
        <time>2022-01-16T11:59:15Z</time>
      </trkpt>
      <trkpt lat="43.2133430" lon="-3.1297120">
        <ele>82.2</ele>
        <time>2022-01-16T11:59:16Z</time>
      </trkpt>
      <trkpt lat="43.2133200" lon="-3.1296230">
        <ele>82.2</ele>
        <time>2022-01-16T11:59:17Z</time>
      </trkpt>
      <trkpt lat="43.2132880" lon="-3.1295450">
        <ele>82.4</ele>
        <time>2022-01-16T11:59:18Z</time>
      </trkpt>
      <trkpt lat="43.2132510" lon="-3.1294720">
        <ele>82.4</ele>
        <time>2022-01-16T11:59:19Z</time>
      </trkpt>
      <trkpt lat="43.2132140" lon="-3.1293950">
        <ele>82.4</ele>
        <time>2022-01-16T11:59:20Z</time>
      </trkpt>
      <trkpt lat="43.2131790" lon="-3.1293140">
        <ele>82.4</ele>
        <time>2022-01-16T11:59:21Z</time>
      </trkpt>
      <trkpt lat="43.2131430" lon="-3.1292290">
        <ele>82.2</ele>
        <time>2022-01-16T11:59:22Z</time>
      </trkpt>
      <trkpt lat="43.2131100" lon="-3.1291380">
        <ele>82.0</ele>
        <time>2022-01-16T11:59:23Z</time>
      </trkpt>
      <trkpt lat="43.2130740" lon="-3.1290450">
        <ele>81.2</ele>
        <time>2022-01-16T11:59:24Z</time>
      </trkpt>
      <trkpt lat="43.2130410" lon="-3.1289480">
        <ele>80.8</ele>
        <time>2022-01-16T11:59:25Z</time>
      </trkpt>
      <trkpt lat="43.2130070" lon="-3.1288490">
        <ele>80.6</ele>
        <time>2022-01-16T11:59:26Z</time>
      </trkpt>
      <trkpt lat="43.2129720" lon="-3.1287490">
        <ele>80.6</ele>
        <time>2022-01-16T11:59:27Z</time>
      </trkpt>
      <trkpt lat="43.2129410" lon="-3.1286470">
        <ele>80.4</ele>
        <time>2022-01-16T11:59:28Z</time>
      </trkpt>
      <trkpt lat="43.2129160" lon="-3.1285390">
        <ele>80.4</ele>
        <time>2022-01-16T11:59:29Z</time>
      </trkpt>
      <trkpt lat="43.2128810" lon="-3.1284330">
        <ele>80.2</ele>
        <time>2022-01-16T11:59:30Z</time>
      </trkpt>
      <trkpt lat="43.2128440" lon="-3.1283270">
        <ele>80.2</ele>
        <time>2022-01-16T11:59:31Z</time>
      </trkpt>
      <trkpt lat="43.2128100" lon="-3.1282200">
        <ele>80.2</ele>
        <time>2022-01-16T11:59:32Z</time>
      </trkpt>
      <trkpt lat="43.2127780" lon="-3.1281080">
        <ele>80.0</ele>
        <time>2022-01-16T11:59:33Z</time>
      </trkpt>
      <trkpt lat="43.2127510" lon="-3.1279930">
        <ele>80.0</ele>
        <time>2022-01-16T11:59:34Z</time>
      </trkpt>
      <trkpt lat="43.2127390" lon="-3.1278710">
        <ele>79.8</ele>
        <time>2022-01-16T11:59:35Z</time>
      </trkpt>
      <trkpt lat="43.2127230" lon="-3.1277580">
        <ele>79.6</ele>
        <time>2022-01-16T11:59:36Z</time>
      </trkpt>
      <trkpt lat="43.2127070" lon="-3.1276450">
        <ele>79.6</ele>
        <time>2022-01-16T11:59:37Z</time>
      </trkpt>
      <trkpt lat="43.2126840" lon="-3.1275340">
        <ele>79.2</ele>
        <time>2022-01-16T11:59:38Z</time>
      </trkpt>
      <trkpt lat="43.2126580" lon="-3.1274240">
        <ele>79.2</ele>
        <time>2022-01-16T11:59:39Z</time>
      </trkpt>
      <trkpt lat="43.2126210" lon="-3.1273170">
        <ele>79.0</ele>
        <time>2022-01-16T11:59:40Z</time>
      </trkpt>
      <trkpt lat="43.2125750" lon="-3.1272130">
        <ele>79.0</ele>
        <time>2022-01-16T11:59:41Z</time>
      </trkpt>
      <trkpt lat="43.2125270" lon="-3.1271140">
        <ele>79.0</ele>
        <time>2022-01-16T11:59:42Z</time>
      </trkpt>
      <trkpt lat="43.2124660" lon="-3.1270290">
        <ele>79.0</ele>
        <time>2022-01-16T11:59:43Z</time>
      </trkpt>
      <trkpt lat="43.2124040" lon="-3.1269490">
        <ele>79.2</ele>
        <time>2022-01-16T11:59:44Z</time>
      </trkpt>
      <trkpt lat="43.2123410" lon="-3.1268730">
        <ele>79.0</ele>
        <time>2022-01-16T11:59:45Z</time>
      </trkpt>
      <trkpt lat="43.2122760" lon="-3.1268000">
        <ele>79.2</ele>
        <time>2022-01-16T11:59:46Z</time>
      </trkpt>
      <trkpt lat="43.2122130" lon="-3.1267270">
        <ele>79.4</ele>
        <time>2022-01-16T11:59:47Z</time>
      </trkpt>
      <trkpt lat="43.2121580" lon="-3.1266480">
        <ele>79.4</ele>
        <time>2022-01-16T11:59:48Z</time>
      </trkpt>
      <trkpt lat="43.2121040" lon="-3.1265670">
        <ele>79.2</ele>
        <time>2022-01-16T11:59:49Z</time>
      </trkpt>
      <trkpt lat="43.2120530" lon="-3.1264810">
        <ele>79.2</ele>
        <time>2022-01-16T11:59:50Z</time>
      </trkpt>
      <trkpt lat="43.2120170" lon="-3.1263820">
        <ele>79.4</ele>
        <time>2022-01-16T11:59:51Z</time>
      </trkpt>
      <trkpt lat="43.2119740" lon="-3.1262890">
        <ele>79.4</ele>
        <time>2022-01-16T11:59:52Z</time>
      </trkpt>
      <trkpt lat="43.2119260" lon="-3.1262050">
        <ele>79.4</ele>
        <time>2022-01-16T11:59:53Z</time>
      </trkpt>
      <trkpt lat="43.2118780" lon="-3.1261150">
        <ele>79.4</ele>
        <time>2022-01-16T11:59:54Z</time>
      </trkpt>
      <trkpt lat="43.2118300" lon="-3.1260240">
        <ele>79.4</ele>
        <time>2022-01-16T11:59:55Z</time>
      </trkpt>
      <trkpt lat="43.2117800" lon="-3.1259320">
        <ele>79.4</ele>
        <time>2022-01-16T11:59:56Z</time>
      </trkpt>
      <trkpt lat="43.2117300" lon="-3.1258420">
        <ele>79.4</ele>
        <time>2022-01-16T11:59:57Z</time>
      </trkpt>
      <trkpt lat="43.2116800" lon="-3.1257510">
        <ele>79.4</ele>
        <time>2022-01-16T11:59:58Z</time>
      </trkpt>
      <trkpt lat="43.2116300" lon="-3.1256600">
        <ele>79.2</ele>
        <time>2022-01-16T11:59:59Z</time>
      </trkpt>
      <trkpt lat="43.2115820" lon="-3.1255680">
        <ele>79.2</ele>
        <time>2022-01-16T12:00:00Z</time>
      </trkpt>
      <trkpt lat="43.2115320" lon="-3.1254800">
        <ele>79.2</ele>
        <time>2022-01-16T12:00:01Z</time>
      </trkpt>
      <trkpt lat="43.2114810" lon="-3.1253990">
        <ele>79.0</ele>
        <time>2022-01-16T12:00:02Z</time>
      </trkpt>
      <trkpt lat="43.2114270" lon="-3.1253230">
        <ele>79.0</ele>
        <time>2022-01-16T12:00:03Z</time>
      </trkpt>
      <trkpt lat="43.2113710" lon="-3.1252500">
        <ele>79.0</ele>
        <time>2022-01-16T12:00:04Z</time>
      </trkpt>
      <trkpt lat="43.2113110" lon="-3.1251780">
        <ele>78.8</ele>
        <time>2022-01-16T12:00:05Z</time>
      </trkpt>
      <trkpt lat="43.2112510" lon="-3.1251040">
        <ele>78.6</ele>
        <time>2022-01-16T12:00:06Z</time>
      </trkpt>
      <trkpt lat="43.2111920" lon="-3.1250320">
        <ele>78.6</ele>
        <time>2022-01-16T12:00:07Z</time>
      </trkpt>
      <trkpt lat="43.2111320" lon="-3.1249630">
        <ele>78.6</ele>
        <time>2022-01-16T12:00:08Z</time>
      </trkpt>
      <trkpt lat="43.2110700" lon="-3.1249030">
        <ele>78.6</ele>
        <time>2022-01-16T12:00:09Z</time>
      </trkpt>
      <trkpt lat="43.2110090" lon="-3.1248460">
        <ele>78.8</ele>
        <time>2022-01-16T12:00:10Z</time>
      </trkpt>
      <trkpt lat="43.2109590" lon="-3.1247780">
        <ele>78.8</ele>
        <time>2022-01-16T12:00:11Z</time>
      </trkpt>
      <trkpt lat="43.2109320" lon="-3.1246900">
        <ele>78.8</ele>
        <time>2022-01-16T12:00:12Z</time>
      </trkpt>
      <trkpt lat="43.2109420" lon="-3.1245910">
        <ele>79.0</ele>
        <time>2022-01-16T12:00:13Z</time>
      </trkpt>
      <trkpt lat="43.2109680" lon="-3.1245030">
        <ele>79.0</ele>
        <time>2022-01-16T12:00:14Z</time>
      </trkpt>
      <trkpt lat="43.2110080" lon="-3.1244260">
        <ele>78.8</ele>
        <time>2022-01-16T12:00:15Z</time>
      </trkpt>
      <trkpt lat="43.2110500" lon="-3.1243500">
        <ele>78.6</ele>
        <time>2022-01-16T12:00:16Z</time>
      </trkpt>
      <trkpt lat="43.2110900" lon="-3.1242620">
        <ele>78.6</ele>
        <time>2022-01-16T12:00:17Z</time>
      </trkpt>
      <trkpt lat="43.2111160" lon="-3.1241660">
        <ele>78.6</ele>
        <time>2022-01-16T12:00:18Z</time>
      </trkpt>
      <trkpt lat="43.2111260" lon="-3.1240650">
        <ele>78.8</ele>
        <time>2022-01-16T12:00:19Z</time>
      </trkpt>
      <trkpt lat="43.2111220" lon="-3.1239620">
        <ele>79.2</ele>
        <time>2022-01-16T12:00:20Z</time>
      </trkpt>
      <trkpt lat="43.2111070" lon="-3.1238640">
        <ele>79.4</ele>
        <time>2022-01-16T12:00:21Z</time>
      </trkpt>
      <trkpt lat="43.2110900" lon="-3.1237680">
        <ele>79.4</ele>
        <time>2022-01-16T12:00:22Z</time>
      </trkpt>
      <trkpt lat="43.2110770" lon="-3.1236700">
        <ele>79.6</ele>
        <time>2022-01-16T12:00:23Z</time>
      </trkpt>
      <trkpt lat="43.2110640" lon="-3.1235710">
        <ele>79.6</ele>
        <time>2022-01-16T12:00:24Z</time>
      </trkpt>
      <trkpt lat="43.2110450" lon="-3.1234710">
        <ele>79.6</ele>
        <time>2022-01-16T12:00:25Z</time>
      </trkpt>
      <trkpt lat="43.2110270" lon="-3.1233700">
        <ele>79.6</ele>
        <time>2022-01-16T12:00:26Z</time>
      </trkpt>
      <trkpt lat="43.2110080" lon="-3.1232680">
        <ele>79.6</ele>
        <time>2022-01-16T12:00:27Z</time>
      </trkpt>
      <trkpt lat="43.2109890" lon="-3.1231710">
        <ele>79.6</ele>
        <time>2022-01-16T12:00:28Z</time>
      </trkpt>
      <trkpt lat="43.2109680" lon="-3.1230740">
        <ele>79.6</ele>
        <time>2022-01-16T12:00:29Z</time>
      </trkpt>
      <trkpt lat="43.2109420" lon="-3.1229740">
        <ele>79.6</ele>
        <time>2022-01-16T12:00:30Z</time>
      </trkpt>
      <trkpt lat="43.2109120" lon="-3.1228750">
        <ele>79.6</ele>
        <time>2022-01-16T12:00:31Z</time>
      </trkpt>
      <trkpt lat="43.2108800" lon="-3.1227810">
        <ele>79.6</ele>
        <time>2022-01-16T12:00:32Z</time>
      </trkpt>
      <trkpt lat="43.2108450" lon="-3.1226900">
        <ele>79.6</ele>
        <time>2022-01-16T12:00:33Z</time>
      </trkpt>
      <trkpt lat="43.2108060" lon="-3.1226050">
        <ele>79.8</ele>
        <time>2022-01-16T12:00:34Z</time>
      </trkpt>
      <trkpt lat="43.2107640" lon="-3.1225230">
        <ele>80.0</ele>
        <time>2022-01-16T12:00:35Z</time>
      </trkpt>
      <trkpt lat="43.2107240" lon="-3.1224410">
        <ele>80.0</ele>
        <time>2022-01-16T12:00:36Z</time>
      </trkpt>
      <trkpt lat="43.2106820" lon="-3.1223520">
        <ele>80.0</ele>
        <time>2022-01-16T12:00:37Z</time>
      </trkpt>
      <trkpt lat="43.2106410" lon="-3.1222640">
        <ele>80.2</ele>
        <time>2022-01-16T12:00:38Z</time>
      </trkpt>
      <trkpt lat="43.2106010" lon="-3.1221780">
        <ele>80.2</ele>
        <time>2022-01-16T12:00:39Z</time>
      </trkpt>
      <trkpt lat="43.2105610" lon="-3.1220930">
        <ele>80.2</ele>
        <time>2022-01-16T12:00:40Z</time>
      </trkpt>
      <trkpt lat="43.2105190" lon="-3.1220050">
        <ele>80.2</ele>
        <time>2022-01-16T12:00:41Z</time>
      </trkpt>
      <trkpt lat="43.2104760" lon="-3.1219160">
        <ele>80.2</ele>
        <time>2022-01-16T12:00:42Z</time>
      </trkpt>
      <trkpt lat="43.2104350" lon="-3.1218190">
        <ele>80.2</ele>
        <time>2022-01-16T12:00:43Z</time>
      </trkpt>
      <trkpt lat="43.2103940" lon="-3.1217250">
        <ele>79.8</ele>
        <time>2022-01-16T12:00:44Z</time>
      </trkpt>
      <trkpt lat="43.2103530" lon="-3.1216280">
        <ele>79.6</ele>
        <time>2022-01-16T12:00:45Z</time>
      </trkpt>
      <trkpt lat="43.2103120" lon="-3.1215300">
        <ele>79.6</ele>
        <time>2022-01-16T12:00:46Z</time>
      </trkpt>
      <trkpt lat="43.2102660" lon="-3.1214310">
        <ele>79.6</ele>
        <time>2022-01-16T12:00:47Z</time>
      </trkpt>
      <trkpt lat="43.2102210" lon="-3.1213310">
        <ele>79.6</ele>
        <time>2022-01-16T12:00:48Z</time>
      </trkpt>
      <trkpt lat="43.2101770" lon="-3.1212280">
        <ele>79.8</ele>
        <time>2022-01-16T12:00:49Z</time>
      </trkpt>
      <trkpt lat="43.2101320" lon="-3.1211280">
        <ele>80.0</ele>
        <time>2022-01-16T12:00:50Z</time>
      </trkpt>
      <trkpt lat="43.2100920" lon="-3.1210270">
        <ele>80.2</ele>
        <time>2022-01-16T12:00:51Z</time>
      </trkpt>
      <trkpt lat="43.2100580" lon="-3.1209240">
        <ele>80.4</ele>
        <time>2022-01-16T12:00:52Z</time>
      </trkpt>
      <trkpt lat="43.2100330" lon="-3.1208160">
        <ele>80.2</ele>
        <time>2022-01-16T12:00:53Z</time>
      </trkpt>
      <trkpt lat="43.2100160" lon="-3.1207070">
        <ele>80.0</ele>
        <time>2022-01-16T12:00:54Z</time>
      </trkpt>
      <trkpt lat="43.2100100" lon="-3.1205960">
        <ele>80.0</ele>
        <time>2022-01-16T12:00:55Z</time>
      </trkpt>
      <trkpt lat="43.2100130" lon="-3.1204860">
        <ele>80.0</ele>
        <time>2022-01-16T12:00:56Z</time>
      </trkpt>
      <trkpt lat="43.2100230" lon="-3.1203760">
        <ele>79.6</ele>
        <time>2022-01-16T12:00:57Z</time>
      </trkpt>
      <trkpt lat="43.2100360" lon="-3.1202690">
        <ele>79.6</ele>
        <time>2022-01-16T12:00:58Z</time>
      </trkpt>
      <trkpt lat="43.2100490" lon="-3.1201580">
        <ele>79.4</ele>
        <time>2022-01-16T12:00:59Z</time>
      </trkpt>
      <trkpt lat="43.2100630" lon="-3.1200430">
        <ele>79.2</ele>
        <time>2022-01-16T12:01:00Z</time>
      </trkpt>
      <trkpt lat="43.2100790" lon="-3.1199320">
        <ele>79.0</ele>
        <time>2022-01-16T12:01:01Z</time>
      </trkpt>
      <trkpt lat="43.2100940" lon="-3.1198200">
        <ele>79.0</ele>
        <time>2022-01-16T12:01:02Z</time>
      </trkpt>
      <trkpt lat="43.2101090" lon="-3.1197080">
        <ele>78.8</ele>
        <time>2022-01-16T12:01:03Z</time>
      </trkpt>
      <trkpt lat="43.2101240" lon="-3.1195980">
        <ele>78.6</ele>
        <time>2022-01-16T12:01:04Z</time>
      </trkpt>
      <trkpt lat="43.2101380" lon="-3.1194870">
        <ele>78.2</ele>
        <time>2022-01-16T12:01:05Z</time>
      </trkpt>
      <trkpt lat="43.2101520" lon="-3.1193760">
        <ele>78.2</ele>
        <time>2022-01-16T12:01:06Z</time>
      </trkpt>
      <trkpt lat="43.2101670" lon="-3.1192660">
        <ele>78.2</ele>
        <time>2022-01-16T12:01:07Z</time>
      </trkpt>
      <trkpt lat="43.2101810" lon="-3.1191570">
        <ele>78.2</ele>
        <time>2022-01-16T12:01:08Z</time>
      </trkpt>
      <trkpt lat="43.2101940" lon="-3.1190470">
        <ele>78.2</ele>
        <time>2022-01-16T12:01:09Z</time>
      </trkpt>
      <trkpt lat="43.2102080" lon="-3.1189380">
        <ele>78.2</ele>
        <time>2022-01-16T12:01:10Z</time>
      </trkpt>
      <trkpt lat="43.2102220" lon="-3.1188300">
        <ele>78.0</ele>
        <time>2022-01-16T12:01:11Z</time>
      </trkpt>
      <trkpt lat="43.2102340" lon="-3.1187220">
        <ele>78.0</ele>
        <time>2022-01-16T12:01:12Z</time>
      </trkpt>
      <trkpt lat="43.2102470" lon="-3.1186130">
        <ele>78.0</ele>
        <time>2022-01-16T12:01:13Z</time>
      </trkpt>
      <trkpt lat="43.2102630" lon="-3.1185050">
        <ele>78.0</ele>
        <time>2022-01-16T12:01:14Z</time>
      </trkpt>
      <trkpt lat="43.2102780" lon="-3.1183970">
        <ele>78.2</ele>
        <time>2022-01-16T12:01:15Z</time>
      </trkpt>
      <trkpt lat="43.2102920" lon="-3.1182880">
        <ele>78.0</ele>
        <time>2022-01-16T12:01:16Z</time>
      </trkpt>
      <trkpt lat="43.2103050" lon="-3.1181800">
        <ele>78.0</ele>
        <time>2022-01-16T12:01:17Z</time>
      </trkpt>
      <trkpt lat="43.2103160" lon="-3.1180690">
        <ele>78.0</ele>
        <time>2022-01-16T12:01:18Z</time>
      </trkpt>
      <trkpt lat="43.2103310" lon="-3.1179630">
        <ele>78.0</ele>
        <time>2022-01-16T12:01:19Z</time>
      </trkpt>
      <trkpt lat="43.2103490" lon="-3.1178500">
        <ele>78.0</ele>
        <time>2022-01-16T12:01:20Z</time>
      </trkpt>
      <trkpt lat="43.2103640" lon="-3.1177400">
        <ele>77.8</ele>
        <time>2022-01-16T12:01:21Z</time>
      </trkpt>
      <trkpt lat="43.2103780" lon="-3.1176300">
        <ele>77.8</ele>
        <time>2022-01-16T12:01:22Z</time>
      </trkpt>
      <trkpt lat="43.2103900" lon="-3.1175190">
        <ele>78.0</ele>
        <time>2022-01-16T12:01:23Z</time>
      </trkpt>
      <trkpt lat="43.2104030" lon="-3.1174070">
        <ele>77.8</ele>
        <time>2022-01-16T12:01:24Z</time>
      </trkpt>
      <trkpt lat="43.2104140" lon="-3.1172930">
        <ele>77.8</ele>
        <time>2022-01-16T12:01:25Z</time>
      </trkpt>
      <trkpt lat="43.2104280" lon="-3.1171790">
        <ele>77.6</ele>
        <time>2022-01-16T12:01:26Z</time>
      </trkpt>
      <trkpt lat="43.2104440" lon="-3.1170660">
        <ele>77.4</ele>
        <time>2022-01-16T12:01:27Z</time>
      </trkpt>
      <trkpt lat="43.2104580" lon="-3.1169560">
        <ele>77.4</ele>
        <time>2022-01-16T12:01:28Z</time>
      </trkpt>
      <trkpt lat="43.2104690" lon="-3.1168460">
        <ele>77.2</ele>
        <time>2022-01-16T12:01:29Z</time>
      </trkpt>
      <trkpt lat="43.2104820" lon="-3.1167360">
        <ele>77.0</ele>
        <time>2022-01-16T12:01:30Z</time>
      </trkpt>
      <trkpt lat="43.2104960" lon="-3.1166270">
        <ele>76.8</ele>
        <time>2022-01-16T12:01:31Z</time>
      </trkpt>
      <trkpt lat="43.2105080" lon="-3.1165170">
        <ele>76.6</ele>
        <time>2022-01-16T12:01:32Z</time>
      </trkpt>
      <trkpt lat="43.2105170" lon="-3.1164050">
        <ele>76.4</ele>
        <time>2022-01-16T12:01:33Z</time>
      </trkpt>
      <trkpt lat="43.2105280" lon="-3.1162950">
        <ele>76.4</ele>
        <time>2022-01-16T12:01:34Z</time>
      </trkpt>
      <trkpt lat="43.2105400" lon="-3.1161820">
        <ele>76.4</ele>
        <time>2022-01-16T12:01:35Z</time>
      </trkpt>
      <trkpt lat="43.2105550" lon="-3.1160690">
        <ele>76.2</ele>
        <time>2022-01-16T12:01:36Z</time>
      </trkpt>
      <trkpt lat="43.2105660" lon="-3.1159580">
        <ele>75.8</ele>
        <time>2022-01-16T12:01:37Z</time>
      </trkpt>
      <trkpt lat="43.2105810" lon="-3.1158470">
        <ele>75.6</ele>
        <time>2022-01-16T12:01:38Z</time>
      </trkpt>
      <trkpt lat="43.2105970" lon="-3.1157370">
        <ele>75.4</ele>
        <time>2022-01-16T12:01:39Z</time>
      </trkpt>
      <trkpt lat="43.2106090" lon="-3.1156280">
        <ele>75.2</ele>
        <time>2022-01-16T12:01:40Z</time>
      </trkpt>
      <trkpt lat="43.2106220" lon="-3.1155190">
        <ele>75.0</ele>
        <time>2022-01-16T12:01:41Z</time>
      </trkpt>
      <trkpt lat="43.2106350" lon="-3.1154100">
        <ele>74.8</ele>
        <time>2022-01-16T12:01:42Z</time>
      </trkpt>
      <trkpt lat="43.2106500" lon="-3.1153010">
        <ele>74.8</ele>
        <time>2022-01-16T12:01:43Z</time>
      </trkpt>
      <trkpt lat="43.2106710" lon="-3.1151930">
        <ele>75.0</ele>
        <time>2022-01-16T12:01:44Z</time>
      </trkpt>
      <trkpt lat="43.2106950" lon="-3.1150900">
        <ele>75.0</ele>
        <time>2022-01-16T12:01:45Z</time>
      </trkpt>
      <trkpt lat="43.2107260" lon="-3.1149910">
        <ele>75.0</ele>
        <time>2022-01-16T12:01:46Z</time>
      </trkpt>
      <trkpt lat="43.2107590" lon="-3.1149000">
        <ele>75.0</ele>
        <time>2022-01-16T12:01:47Z</time>
      </trkpt>
      <trkpt lat="43.2108000" lon="-3.1148060">
        <ele>75.0</ele>
        <time>2022-01-16T12:01:48Z</time>
      </trkpt>
      <trkpt lat="43.2108390" lon="-3.1147210">
        <ele>75.0</ele>
        <time>2022-01-16T12:01:49Z</time>
      </trkpt>
      <trkpt lat="43.2108800" lon="-3.1146380">
        <ele>75.0</ele>
        <time>2022-01-16T12:01:50Z</time>
      </trkpt>
      <trkpt lat="43.2109230" lon="-3.1145530">
        <ele>74.8</ele>
        <time>2022-01-16T12:01:51Z</time>
      </trkpt>
      <trkpt lat="43.2109670" lon="-3.1144620">
        <ele>74.6</ele>
        <time>2022-01-16T12:01:52Z</time>
      </trkpt>
      <trkpt lat="43.2110100" lon="-3.1143680">
        <ele>74.4</ele>
        <time>2022-01-16T12:01:53Z</time>
      </trkpt>
      <trkpt lat="43.2110550" lon="-3.1142730">
        <ele>74.4</ele>
        <time>2022-01-16T12:01:54Z</time>
      </trkpt>
      <trkpt lat="43.2111020" lon="-3.1141800">
        <ele>74.2</ele>
        <time>2022-01-16T12:01:55Z</time>
      </trkpt>
      <trkpt lat="43.2111450" lon="-3.1140840">
        <ele>74.2</ele>
        <time>2022-01-16T12:01:56Z</time>
      </trkpt>
      <trkpt lat="43.2111820" lon="-3.1139870">
        <ele>74.0</ele>
        <time>2022-01-16T12:01:57Z</time>
      </trkpt>
      <trkpt lat="43.2112240" lon="-3.1138940">
        <ele>74.2</ele>
        <time>2022-01-16T12:01:58Z</time>
      </trkpt>
      <trkpt lat="43.2112750" lon="-3.1138080">
        <ele>74.2</ele>
        <time>2022-01-16T12:01:59Z</time>
      </trkpt>
      <trkpt lat="43.2113190" lon="-3.1137120">
        <ele>74.2</ele>
        <time>2022-01-16T12:02:00Z</time>
      </trkpt>
      <trkpt lat="43.2113630" lon="-3.1136200">
        <ele>74.2</ele>
        <time>2022-01-16T12:02:01Z</time>
      </trkpt>
      <trkpt lat="43.2114060" lon="-3.1135310">
        <ele>74.2</ele>
        <time>2022-01-16T12:02:02Z</time>
      </trkpt>
      <trkpt lat="43.2114400" lon="-3.1134300">
        <ele>74.2</ele>
        <time>2022-01-16T12:02:03Z</time>
      </trkpt>
      <trkpt lat="43.2114820" lon="-3.1133330">
        <ele>74.2</ele>
        <time>2022-01-16T12:02:04Z</time>
      </trkpt>
      <trkpt lat="43.2115240" lon="-3.1132380">
        <ele>74.2</ele>
        <time>2022-01-16T12:02:05Z</time>
      </trkpt>
      <trkpt lat="43.2115580" lon="-3.1131380">
        <ele>74.2</ele>
        <time>2022-01-16T12:02:06Z</time>
      </trkpt>
      <trkpt lat="43.2115920" lon="-3.1130400">
        <ele>74.4</ele>
        <time>2022-01-16T12:02:07Z</time>
      </trkpt>
      <trkpt lat="43.2116260" lon="-3.1129470">
        <ele>74.4</ele>
        <time>2022-01-16T12:02:08Z</time>
      </trkpt>
      <trkpt lat="43.2116550" lon="-3.1128580">
        <ele>74.4</ele>
        <time>2022-01-16T12:02:09Z</time>
      </trkpt>
      <trkpt lat="43.2116960" lon="-3.1127730">
        <ele>74.4</ele>
        <time>2022-01-16T12:02:10Z</time>
      </trkpt>
      <trkpt lat="43.2117270" lon="-3.1126790">
        <ele>74.4</ele>
        <time>2022-01-16T12:02:11Z</time>
      </trkpt>
      <trkpt lat="43.2117620" lon="-3.1125890">
        <ele>74.4</ele>
        <time>2022-01-16T12:02:12Z</time>
      </trkpt>
      <trkpt lat="43.2118010" lon="-3.1124940">
        <ele>74.6</ele>
        <time>2022-01-16T12:02:13Z</time>
      </trkpt>
      <trkpt lat="43.2118340" lon="-3.1123920">
        <ele>74.8</ele>
        <time>2022-01-16T12:02:14Z</time>
      </trkpt>
      <trkpt lat="43.2118550" lon="-3.1122860">
        <ele>75.0</ele>
        <time>2022-01-16T12:02:15Z</time>
      </trkpt>
      <trkpt lat="43.2118680" lon="-3.1121790">
        <ele>75.0</ele>
        <time>2022-01-16T12:02:16Z</time>
      </trkpt>
      <trkpt lat="43.2118740" lon="-3.1120700">
        <ele>75.0</ele>
        <time>2022-01-16T12:02:17Z</time>
      </trkpt>
      <trkpt lat="43.2118780" lon="-3.1119600">
        <ele>75.2</ele>
        <time>2022-01-16T12:02:18Z</time>
      </trkpt>
      <trkpt lat="43.2118820" lon="-3.1118490">
        <ele>75.2</ele>
        <time>2022-01-16T12:02:19Z</time>
      </trkpt>
      <trkpt lat="43.2118820" lon="-3.1117400">
        <ele>75.2</ele>
        <time>2022-01-16T12:02:20Z</time>
      </trkpt>
      <trkpt lat="43.2118780" lon="-3.1116300">
        <ele>75.2</ele>
        <time>2022-01-16T12:02:21Z</time>
      </trkpt>
      <trkpt lat="43.2118730" lon="-3.1115200">
        <ele>75.0</ele>
        <time>2022-01-16T12:02:22Z</time>
      </trkpt>
      <trkpt lat="43.2118530" lon="-3.1114110">
        <ele>74.8</ele>
        <time>2022-01-16T12:02:23Z</time>
      </trkpt>
      <trkpt lat="43.2118120" lon="-3.1113100">
        <ele>74.8</ele>
        <time>2022-01-16T12:02:24Z</time>
      </trkpt>
      <trkpt lat="43.2117700" lon="-3.1112120">
        <ele>74.6</ele>
        <time>2022-01-16T12:02:25Z</time>
      </trkpt>
      <trkpt lat="43.2117210" lon="-3.1111210">
        <ele>74.4</ele>
        <time>2022-01-16T12:02:26Z</time>
      </trkpt>
      <trkpt lat="43.2116740" lon="-3.1110250">
        <ele>74.2</ele>
        <time>2022-01-16T12:02:27Z</time>
      </trkpt>
      <trkpt lat="43.2116290" lon="-3.1109310">
        <ele>74.2</ele>
        <time>2022-01-16T12:02:28Z</time>
      </trkpt>
      <trkpt lat="43.2115910" lon="-3.1108280">
        <ele>74.2</ele>
        <time>2022-01-16T12:02:29Z</time>
      </trkpt>
      <trkpt lat="43.2115550" lon="-3.1107250">
        <ele>74.2</ele>
        <time>2022-01-16T12:02:30Z</time>
      </trkpt>
      <trkpt lat="43.2115210" lon="-3.1106180">
        <ele>74.2</ele>
        <time>2022-01-16T12:02:31Z</time>
      </trkpt>
      <trkpt lat="43.2114890" lon="-3.1105090">
        <ele>74.2</ele>
        <time>2022-01-16T12:02:32Z</time>
      </trkpt>
      <trkpt lat="43.2114670" lon="-3.1103970">
        <ele>74.2</ele>
        <time>2022-01-16T12:02:33Z</time>
      </trkpt>
      <trkpt lat="43.2114480" lon="-3.1102850">
        <ele>74.4</ele>
        <time>2022-01-16T12:02:34Z</time>
      </trkpt>
      <trkpt lat="43.2114360" lon="-3.1101690">
        <ele>74.4</ele>
        <time>2022-01-16T12:02:35Z</time>
      </trkpt>
      <trkpt lat="43.2114180" lon="-3.1100560">
        <ele>74.4</ele>
        <time>2022-01-16T12:02:36Z</time>
      </trkpt>
      <trkpt lat="43.2114070" lon="-3.1099390">
        <ele>74.4</ele>
        <time>2022-01-16T12:02:37Z</time>
      </trkpt>
      <trkpt lat="43.2113860" lon="-3.1098290">
        <ele>74.4</ele>
        <time>2022-01-16T12:02:38Z</time>
      </trkpt>
      <trkpt lat="43.2113630" lon="-3.1097210">
        <ele>74.4</ele>
        <time>2022-01-16T12:02:39Z</time>
      </trkpt>
      <trkpt lat="43.2113430" lon="-3.1096120">
        <ele>74.4</ele>
        <time>2022-01-16T12:02:40Z</time>
      </trkpt>
      <trkpt lat="43.2113230" lon="-3.1095030">
        <ele>74.2</ele>
        <time>2022-01-16T12:02:41Z</time>
      </trkpt>
      <trkpt lat="43.2113130" lon="-3.1093880">
        <ele>74.2</ele>
        <time>2022-01-16T12:02:42Z</time>
      </trkpt>
      <trkpt lat="43.2113080" lon="-3.1092720">
        <ele>74.2</ele>
        <time>2022-01-16T12:02:43Z</time>
      </trkpt>
      <trkpt lat="43.2113090" lon="-3.1091530">
        <ele>74.0</ele>
        <time>2022-01-16T12:02:44Z</time>
      </trkpt>
      <trkpt lat="43.2113200" lon="-3.1090340">
        <ele>74.0</ele>
        <time>2022-01-16T12:02:45Z</time>
      </trkpt>
      <trkpt lat="43.2113380" lon="-3.1089200">
        <ele>73.8</ele>
        <time>2022-01-16T12:02:46Z</time>
      </trkpt>
      <trkpt lat="43.2113730" lon="-3.1088090">
        <ele>73.8</ele>
        <time>2022-01-16T12:02:47Z</time>
      </trkpt>
      <trkpt lat="43.2114170" lon="-3.1087050">
        <ele>73.6</ele>
        <time>2022-01-16T12:02:48Z</time>
      </trkpt>
      <trkpt lat="43.2114670" lon="-3.1086030">
        <ele>73.4</ele>
        <time>2022-01-16T12:02:49Z</time>
      </trkpt>
      <trkpt lat="43.2115170" lon="-3.1085030">
        <ele>73.4</ele>
        <time>2022-01-16T12:02:50Z</time>
      </trkpt>
      <trkpt lat="43.2115680" lon="-3.1084060">
        <ele>73.2</ele>
        <time>2022-01-16T12:02:51Z</time>
      </trkpt>
      <trkpt lat="43.2116170" lon="-3.1083100">
        <ele>72.8</ele>
        <time>2022-01-16T12:02:52Z</time>
      </trkpt>
      <trkpt lat="43.2116650" lon="-3.1082140">
        <ele>72.8</ele>
        <time>2022-01-16T12:02:53Z</time>
      </trkpt>
      <trkpt lat="43.2117100" lon="-3.1081190">
        <ele>73.0</ele>
        <time>2022-01-16T12:02:54Z</time>
      </trkpt>
      <trkpt lat="43.2117580" lon="-3.1080270">
        <ele>73.0</ele>
        <time>2022-01-16T12:02:55Z</time>
      </trkpt>
      <trkpt lat="43.2118040" lon="-3.1079360">
        <ele>73.0</ele>
        <time>2022-01-16T12:02:56Z</time>
      </trkpt>
      <trkpt lat="43.2118500" lon="-3.1078440">
        <ele>73.0</ele>
        <time>2022-01-16T12:02:57Z</time>
      </trkpt>
      <trkpt lat="43.2118950" lon="-3.1077510">
        <ele>73.2</ele>
        <time>2022-01-16T12:02:58Z</time>
      </trkpt>
      <trkpt lat="43.2119410" lon="-3.1076570">
        <ele>73.2</ele>
        <time>2022-01-16T12:02:59Z</time>
      </trkpt>
      <trkpt lat="43.2119860" lon="-3.1075640">
        <ele>73.0</ele>
        <time>2022-01-16T12:03:00Z</time>
      </trkpt>
      <trkpt lat="43.2120300" lon="-3.1074700">
        <ele>73.0</ele>
        <time>2022-01-16T12:03:01Z</time>
      </trkpt>
      <trkpt lat="43.2120770" lon="-3.1073770">
        <ele>73.0</ele>
        <time>2022-01-16T12:03:02Z</time>
      </trkpt>
      <trkpt lat="43.2121250" lon="-3.1072820">
        <ele>73.0</ele>
        <time>2022-01-16T12:03:03Z</time>
      </trkpt>
      <trkpt lat="43.2121730" lon="-3.1071880">
        <ele>73.0</ele>
        <time>2022-01-16T12:03:04Z</time>
      </trkpt>
      <trkpt lat="43.2122230" lon="-3.1070920">
        <ele>73.0</ele>
        <time>2022-01-16T12:03:05Z</time>
      </trkpt>
      <trkpt lat="43.2122730" lon="-3.1069950">
        <ele>72.8</ele>
        <time>2022-01-16T12:03:06Z</time>
      </trkpt>
      <trkpt lat="43.2123220" lon="-3.1069000">
        <ele>72.8</ele>
        <time>2022-01-16T12:03:07Z</time>
      </trkpt>
      <trkpt lat="43.2123700" lon="-3.1068050">
        <ele>72.8</ele>
        <time>2022-01-16T12:03:08Z</time>
      </trkpt>
      <trkpt lat="43.2124180" lon="-3.1067090">
        <ele>72.6</ele>
        <time>2022-01-16T12:03:09Z</time>
      </trkpt>
      <trkpt lat="43.2124650" lon="-3.1066160">
        <ele>72.6</ele>
        <time>2022-01-16T12:03:10Z</time>
      </trkpt>
      <trkpt lat="43.2125160" lon="-3.1065160">
        <ele>72.6</ele>
        <time>2022-01-16T12:03:11Z</time>
      </trkpt>
      <trkpt lat="43.2125630" lon="-3.1064170">
        <ele>72.6</ele>
        <time>2022-01-16T12:03:12Z</time>
      </trkpt>
      <trkpt lat="43.2126080" lon="-3.1063180">
        <ele>72.6</ele>
        <time>2022-01-16T12:03:13Z</time>
      </trkpt>
      <trkpt lat="43.2126510" lon="-3.1062170">
        <ele>72.4</ele>
        <time>2022-01-16T12:03:14Z</time>
      </trkpt>
      <trkpt lat="43.2126900" lon="-3.1061140">
        <ele>72.6</ele>
        <time>2022-01-16T12:03:15Z</time>
      </trkpt>
      <trkpt lat="43.2127230" lon="-3.1060100">
        <ele>72.6</ele>
        <time>2022-01-16T12:03:16Z</time>
      </trkpt>
      <trkpt lat="43.2127480" lon="-3.1059020">
        <ele>72.6</ele>
        <time>2022-01-16T12:03:17Z</time>
      </trkpt>
      <trkpt lat="43.2127660" lon="-3.1057900">
        <ele>72.8</ele>
        <time>2022-01-16T12:03:18Z</time>
      </trkpt>
      <trkpt lat="43.2127760" lon="-3.1056790">
        <ele>72.8</ele>
        <time>2022-01-16T12:03:19Z</time>
      </trkpt>
      <trkpt lat="43.2127840" lon="-3.1055660">
        <ele>73.0</ele>
        <time>2022-01-16T12:03:20Z</time>
      </trkpt>
      <trkpt lat="43.2127900" lon="-3.1054540">
        <ele>73.2</ele>
        <time>2022-01-16T12:03:21Z</time>
      </trkpt>
      <trkpt lat="43.2127900" lon="-3.1053450">
        <ele>73.4</ele>
        <time>2022-01-16T12:03:22Z</time>
      </trkpt>
      <trkpt lat="43.2127970" lon="-3.1052320">
        <ele>73.4</ele>
        <time>2022-01-16T12:03:23Z</time>
      </trkpt>
      <trkpt lat="43.2127980" lon="-3.1051230">
        <ele>73.6</ele>
        <time>2022-01-16T12:03:24Z</time>
      </trkpt>
      <trkpt lat="43.2127990" lon="-3.1050160">
        <ele>73.6</ele>
        <time>2022-01-16T12:03:25Z</time>
      </trkpt>
      <trkpt lat="43.2128020" lon="-3.1049080">
        <ele>73.8</ele>
        <time>2022-01-16T12:03:26Z</time>
      </trkpt>
      <trkpt lat="43.2128090" lon="-3.1047990">
        <ele>73.8</ele>
        <time>2022-01-16T12:03:27Z</time>
      </trkpt>
      <trkpt lat="43.2128120" lon="-3.1046940">
        <ele>74.0</ele>
        <time>2022-01-16T12:03:28Z</time>
      </trkpt>
      <trkpt lat="43.2128080" lon="-3.1045890">
        <ele>74.0</ele>
        <time>2022-01-16T12:03:29Z</time>
      </trkpt>
      <trkpt lat="43.2128090" lon="-3.1044840">
        <ele>74.2</ele>
        <time>2022-01-16T12:03:30Z</time>
      </trkpt>
      <trkpt lat="43.2128130" lon="-3.1043780">
        <ele>74.2</ele>
        <time>2022-01-16T12:03:31Z</time>
      </trkpt>
      <trkpt lat="43.2128170" lon="-3.1042700">
        <ele>74.2</ele>
        <time>2022-01-16T12:03:32Z</time>
      </trkpt>
      <trkpt lat="43.2128200" lon="-3.1041610">
        <ele>74.4</ele>
        <time>2022-01-16T12:03:33Z</time>
      </trkpt>
      <trkpt lat="43.2128240" lon="-3.1040410">
        <ele>74.4</ele>
        <time>2022-01-16T12:03:34Z</time>
      </trkpt>
      <trkpt lat="43.2128280" lon="-3.1039290">
        <ele>74.4</ele>
        <time>2022-01-16T12:03:35Z</time>
      </trkpt>
      <trkpt lat="43.2128330" lon="-3.1038190">
        <ele>74.4</ele>
        <time>2022-01-16T12:03:36Z</time>
      </trkpt>
      <trkpt lat="43.2128370" lon="-3.1037100">
        <ele>74.6</ele>
        <time>2022-01-16T12:03:37Z</time>
      </trkpt>
      <trkpt lat="43.2128400" lon="-3.1036020">
        <ele>74.6</ele>
        <time>2022-01-16T12:03:38Z</time>
      </trkpt>
      <trkpt lat="43.2128410" lon="-3.1034940">
        <ele>74.8</ele>
        <time>2022-01-16T12:03:39Z</time>
      </trkpt>
      <trkpt lat="43.2128410" lon="-3.1033840">
        <ele>74.8</ele>
        <time>2022-01-16T12:03:40Z</time>
      </trkpt>
      <trkpt lat="43.2128360" lon="-3.1032770">
        <ele>74.8</ele>
        <time>2022-01-16T12:03:41Z</time>
      </trkpt>
      <trkpt lat="43.2128300" lon="-3.1031710">
        <ele>75.0</ele>
        <time>2022-01-16T12:03:42Z</time>
      </trkpt>
      <trkpt lat="43.2128230" lon="-3.1030660">
        <ele>75.0</ele>
        <time>2022-01-16T12:03:43Z</time>
      </trkpt>
      <trkpt lat="43.2128160" lon="-3.1029610">
        <ele>75.4</ele>
        <time>2022-01-16T12:03:44Z</time>
      </trkpt>
      <trkpt lat="43.2128080" lon="-3.1028580">
        <ele>75.6</ele>
        <time>2022-01-16T12:03:45Z</time>
      </trkpt>
      <trkpt lat="43.2128010" lon="-3.1027530">
        <ele>75.8</ele>
        <time>2022-01-16T12:03:46Z</time>
      </trkpt>
      <trkpt lat="43.2127910" lon="-3.1026490">
        <ele>75.6</ele>
        <time>2022-01-16T12:03:47Z</time>
      </trkpt>
      <trkpt lat="43.2127830" lon="-3.1025440">
        <ele>75.6</ele>
        <time>2022-01-16T12:03:48Z</time>
      </trkpt>
      <trkpt lat="43.2127770" lon="-3.1024370">
        <ele>75.4</ele>
        <time>2022-01-16T12:03:49Z</time>
      </trkpt>
      <trkpt lat="43.2127710" lon="-3.1023310">
        <ele>75.2</ele>
        <time>2022-01-16T12:03:50Z</time>
      </trkpt>
      <trkpt lat="43.2127660" lon="-3.1022240">
        <ele>75.2</ele>
        <time>2022-01-16T12:03:51Z</time>
      </trkpt>
      <trkpt lat="43.2127620" lon="-3.1021170">
        <ele>75.0</ele>
        <time>2022-01-16T12:03:52Z</time>
      </trkpt>
      <trkpt lat="43.2127570" lon="-3.1020090">
        <ele>74.6</ele>
        <time>2022-01-16T12:03:53Z</time>
      </trkpt>
      <trkpt lat="43.2127500" lon="-3.1019000">
        <ele>74.4</ele>
        <time>2022-01-16T12:03:54Z</time>
      </trkpt>
      <trkpt lat="43.2127480" lon="-3.1017880">
        <ele>74.2</ele>
        <time>2022-01-16T12:03:55Z</time>
      </trkpt>
      <trkpt lat="43.2127450" lon="-3.1016740">
        <ele>74.0</ele>
        <time>2022-01-16T12:03:56Z</time>
      </trkpt>
      <trkpt lat="43.2127410" lon="-3.1015590">
        <ele>73.8</ele>
        <time>2022-01-16T12:03:57Z</time>
      </trkpt>
      <trkpt lat="43.2127430" lon="-3.1014410">
        <ele>73.6</ele>
        <time>2022-01-16T12:03:58Z</time>
      </trkpt>
      <trkpt lat="43.2127450" lon="-3.1013240">
        <ele>73.4</ele>
        <time>2022-01-16T12:03:59Z</time>
      </trkpt>
      <trkpt lat="43.2127460" lon="-3.1012090">
        <ele>73.4</ele>
        <time>2022-01-16T12:04:00Z</time>
      </trkpt>
      <trkpt lat="43.2127460" lon="-3.1010920">
        <ele>73.2</ele>
        <time>2022-01-16T12:04:01Z</time>
      </trkpt>
      <trkpt lat="43.2127480" lon="-3.1009740">
        <ele>73.2</ele>
        <time>2022-01-16T12:04:02Z</time>
      </trkpt>
      <trkpt lat="43.2127500" lon="-3.1008540">
        <ele>73.2</ele>
        <time>2022-01-16T12:04:03Z</time>
      </trkpt>
      <trkpt lat="43.2127510" lon="-3.1007330">
        <ele>73.0</ele>
        <time>2022-01-16T12:04:04Z</time>
      </trkpt>
      <trkpt lat="43.2127500" lon="-3.1006120">
        <ele>72.8</ele>
        <time>2022-01-16T12:04:05Z</time>
      </trkpt>
      <trkpt lat="43.2127470" lon="-3.1004920">
        <ele>72.6</ele>
        <time>2022-01-16T12:04:06Z</time>
      </trkpt>
      <trkpt lat="43.2127470" lon="-3.1003710">
        <ele>72.4</ele>
        <time>2022-01-16T12:04:07Z</time>
      </trkpt>
      <trkpt lat="43.2127480" lon="-3.1002500">
        <ele>72.2</ele>
        <time>2022-01-16T12:04:08Z</time>
      </trkpt>
      <trkpt lat="43.2127510" lon="-3.1001320">
        <ele>72.2</ele>
        <time>2022-01-16T12:04:09Z</time>
      </trkpt>
      <trkpt lat="43.2127580" lon="-3.1000150">
        <ele>72.2</ele>
        <time>2022-01-16T12:04:10Z</time>
      </trkpt>
      <trkpt lat="43.2127620" lon="-3.0999020">
        <ele>72.2</ele>
        <time>2022-01-16T12:04:11Z</time>
      </trkpt>
      <trkpt lat="43.2127710" lon="-3.0997860">
        <ele>72.0</ele>
        <time>2022-01-16T12:04:12Z</time>
      </trkpt>
      <trkpt lat="43.2127820" lon="-3.0996670">
        <ele>72.0</ele>
        <time>2022-01-16T12:04:13Z</time>
      </trkpt>
      <trkpt lat="43.2127940" lon="-3.0995450">
        <ele>71.8</ele>
        <time>2022-01-16T12:04:14Z</time>
      </trkpt>
      <trkpt lat="43.2128070" lon="-3.0994180">
        <ele>71.8</ele>
        <time>2022-01-16T12:04:15Z</time>
      </trkpt>
      <trkpt lat="43.2128190" lon="-3.0992960">
        <ele>71.6</ele>
        <time>2022-01-16T12:04:16Z</time>
      </trkpt>
      <trkpt lat="43.2128310" lon="-3.0991740">
        <ele>71.4</ele>
        <time>2022-01-16T12:04:17Z</time>
      </trkpt>
      <trkpt lat="43.2128430" lon="-3.0990520">
        <ele>71.2</ele>
        <time>2022-01-16T12:04:18Z</time>
      </trkpt>
      <trkpt lat="43.2128560" lon="-3.0989330">
        <ele>71.0</ele>
        <time>2022-01-16T12:04:19Z</time>
      </trkpt>
      <trkpt lat="43.2128690" lon="-3.0988140">
        <ele>70.8</ele>
        <time>2022-01-16T12:04:20Z</time>
      </trkpt>
      <trkpt lat="43.2128810" lon="-3.0986950">
        <ele>70.6</ele>
        <time>2022-01-16T12:04:21Z</time>
      </trkpt>
      <trkpt lat="43.2128920" lon="-3.0985790">
        <ele>70.6</ele>
        <time>2022-01-16T12:04:22Z</time>
      </trkpt>
      <trkpt lat="43.2129030" lon="-3.0984600">
        <ele>70.6</ele>
        <time>2022-01-16T12:04:23Z</time>
      </trkpt>
      <trkpt lat="43.2129140" lon="-3.0983420">
        <ele>70.6</ele>
        <time>2022-01-16T12:04:24Z</time>
      </trkpt>
      <trkpt lat="43.2129250" lon="-3.0982230">
        <ele>70.6</ele>
        <time>2022-01-16T12:04:25Z</time>
      </trkpt>
      <trkpt lat="43.2129340" lon="-3.0981060">
        <ele>70.4</ele>
        <time>2022-01-16T12:04:26Z</time>
      </trkpt>
      <trkpt lat="43.2129390" lon="-3.0979900">
        <ele>70.4</ele>
        <time>2022-01-16T12:04:27Z</time>
      </trkpt>
      <trkpt lat="43.2129430" lon="-3.0978740">
        <ele>70.2</ele>
        <time>2022-01-16T12:04:28Z</time>
      </trkpt>
      <trkpt lat="43.2129460" lon="-3.0977580">
        <ele>70.0</ele>
        <time>2022-01-16T12:04:29Z</time>
      </trkpt>
      <trkpt lat="43.2129470" lon="-3.0976420">
        <ele>69.8</ele>
        <time>2022-01-16T12:04:30Z</time>
      </trkpt>
      <trkpt lat="43.2129470" lon="-3.0975260">
        <ele>69.6</ele>
        <time>2022-01-16T12:04:31Z</time>
      </trkpt>
      <trkpt lat="43.2129460" lon="-3.0974090">
        <ele>69.4</ele>
        <time>2022-01-16T12:04:32Z</time>
      </trkpt>
      <trkpt lat="43.2129470" lon="-3.0972910">
        <ele>69.2</ele>
        <time>2022-01-16T12:04:33Z</time>
      </trkpt>
      <trkpt lat="43.2129440" lon="-3.0971720">
        <ele>69.0</ele>
        <time>2022-01-16T12:04:34Z</time>
      </trkpt>
      <trkpt lat="43.2129410" lon="-3.0970580">
        <ele>69.0</ele>
        <time>2022-01-16T12:04:35Z</time>
      </trkpt>
      <trkpt lat="43.2129390" lon="-3.0969410">
        <ele>69.0</ele>
        <time>2022-01-16T12:04:36Z</time>
      </trkpt>
      <trkpt lat="43.2129460" lon="-3.0968190">
        <ele>68.8</ele>
        <time>2022-01-16T12:04:37Z</time>
      </trkpt>
      <trkpt lat="43.2129470" lon="-3.0967030">
        <ele>68.8</ele>
        <time>2022-01-16T12:04:38Z</time>
      </trkpt>
      <trkpt lat="43.2129460" lon="-3.0965890">
        <ele>68.8</ele>
        <time>2022-01-16T12:04:39Z</time>
      </trkpt>
      <trkpt lat="43.2129450" lon="-3.0964760">
        <ele>68.6</ele>
        <time>2022-01-16T12:04:40Z</time>
      </trkpt>
      <trkpt lat="43.2129420" lon="-3.0963650">
        <ele>68.4</ele>
        <time>2022-01-16T12:04:41Z</time>
      </trkpt>
      <trkpt lat="43.2129400" lon="-3.0962570">
        <ele>68.4</ele>
        <time>2022-01-16T12:04:42Z</time>
      </trkpt>
      <trkpt lat="43.2129380" lon="-3.0961510">
        <ele>68.2</ele>
        <time>2022-01-16T12:04:43Z</time>
      </trkpt>
      <trkpt lat="43.2129350" lon="-3.0960500">
        <ele>68.2</ele>
        <time>2022-01-16T12:04:44Z</time>
      </trkpt>
      <trkpt lat="43.2129270" lon="-3.0959500">
        <ele>68.0</ele>
        <time>2022-01-16T12:04:45Z</time>
      </trkpt>
      <trkpt lat="43.2129100" lon="-3.0958520">
        <ele>68.0</ele>
        <time>2022-01-16T12:04:46Z</time>
      </trkpt>
      <trkpt lat="43.2128560" lon="-3.0957780">
        <ele>67.8</ele>
        <time>2022-01-16T12:04:47Z</time>
      </trkpt>
      <trkpt lat="43.2127970" lon="-3.0957190">
        <ele>67.4</ele>
        <time>2022-01-16T12:04:48Z</time>
      </trkpt>
      <trkpt lat="43.2127330" lon="-3.0956600">
        <ele>67.2</ele>
        <time>2022-01-16T12:04:49Z</time>
      </trkpt>
      <trkpt lat="43.2126670" lon="-3.0956100">
        <ele>67.0</ele>
        <time>2022-01-16T12:04:50Z</time>
      </trkpt>
      <trkpt lat="43.2126050" lon="-3.0955580">
        <ele>67.0</ele>
        <time>2022-01-16T12:04:51Z</time>
      </trkpt>
      <trkpt lat="43.2125420" lon="-3.0955060">
        <ele>67.0</ele>
        <time>2022-01-16T12:04:52Z</time>
      </trkpt>
      <trkpt lat="43.2124740" lon="-3.0954540">
        <ele>66.8</ele>
        <time>2022-01-16T12:04:53Z</time>
      </trkpt>
      <trkpt lat="43.2124070" lon="-3.0954140">
        <ele>66.8</ele>
        <time>2022-01-16T12:04:54Z</time>
      </trkpt>
      <trkpt lat="43.2123410" lon="-3.0953850">
        <ele>66.8</ele>
        <time>2022-01-16T12:04:55Z</time>
      </trkpt>
      <trkpt lat="43.2122710" lon="-3.0953700">
        <ele>66.8</ele>
        <time>2022-01-16T12:04:56Z</time>
      </trkpt>
      <trkpt lat="43.2122000" lon="-3.0953640">
        <ele>67.0</ele>
        <time>2022-01-16T12:04:57Z</time>
      </trkpt>
      <trkpt lat="43.2121250" lon="-3.0953670">
        <ele>67.0</ele>
        <time>2022-01-16T12:04:58Z</time>
      </trkpt>
      <trkpt lat="43.2120510" lon="-3.0953730">
        <ele>67.2</ele>
        <time>2022-01-16T12:04:59Z</time>
      </trkpt>
      <trkpt lat="43.2119810" lon="-3.0953770">
        <ele>67.2</ele>
        <time>2022-01-16T12:05:00Z</time>
      </trkpt>
      <trkpt lat="43.2119160" lon="-3.0953870">
        <ele>67.4</ele>
        <time>2022-01-16T12:05:01Z</time>
      </trkpt>
      <trkpt lat="43.2118470" lon="-3.0953890">
        <ele>67.4</ele>
        <time>2022-01-16T12:05:02Z</time>
      </trkpt>
      <trkpt lat="43.2117750" lon="-3.0953910">
        <ele>67.4</ele>
        <time>2022-01-16T12:05:03Z</time>
      </trkpt>
      <trkpt lat="43.2117020" lon="-3.0953890">
        <ele>67.6</ele>
        <time>2022-01-16T12:05:04Z</time>
      </trkpt>
      <trkpt lat="43.2116270" lon="-3.0953900">
        <ele>67.6</ele>
        <time>2022-01-16T12:05:05Z</time>
      </trkpt>
      <trkpt lat="43.2115510" lon="-3.0953940">
        <ele>67.6</ele>
        <time>2022-01-16T12:05:06Z</time>
      </trkpt>
      <trkpt lat="43.2114740" lon="-3.0953950">
        <ele>67.6</ele>
        <time>2022-01-16T12:05:07Z</time>
      </trkpt>
      <trkpt lat="43.2113890" lon="-3.0953930">
        <ele>67.4</ele>
        <time>2022-01-16T12:05:08Z</time>
      </trkpt>
      <trkpt lat="43.2113070" lon="-3.0954030">
        <ele>67.0</ele>
        <time>2022-01-16T12:05:09Z</time>
      </trkpt>
      <trkpt lat="43.2112240" lon="-3.0954180">
        <ele>66.8</ele>
        <time>2022-01-16T12:05:10Z</time>
      </trkpt>
      <trkpt lat="43.2111440" lon="-3.0954360">
        <ele>66.6</ele>
        <time>2022-01-16T12:05:11Z</time>
      </trkpt>
      <trkpt lat="43.2110620" lon="-3.0954500">
        <ele>66.6</ele>
        <time>2022-01-16T12:05:12Z</time>
      </trkpt>
      <trkpt lat="43.2109810" lon="-3.0954650">
        <ele>66.4</ele>
        <time>2022-01-16T12:05:13Z</time>
      </trkpt>
      <trkpt lat="43.2109020" lon="-3.0954800">
        <ele>66.4</ele>
        <time>2022-01-16T12:05:14Z</time>
      </trkpt>
      <trkpt lat="43.2108230" lon="-3.0954930">
        <ele>66.4</ele>
        <time>2022-01-16T12:05:15Z</time>
      </trkpt>
      <trkpt lat="43.2107440" lon="-3.0955060">
        <ele>66.4</ele>
        <time>2022-01-16T12:05:16Z</time>
      </trkpt>
      <trkpt lat="43.2106690" lon="-3.0955190">
        <ele>66.4</ele>
        <time>2022-01-16T12:05:17Z</time>
      </trkpt>
      <trkpt lat="43.2105930" lon="-3.0955290">
        <ele>66.4</ele>
        <time>2022-01-16T12:05:18Z</time>
      </trkpt>
      <trkpt lat="43.2105250" lon="-3.0955390">
        <ele>66.4</ele>
        <time>2022-01-16T12:05:19Z</time>
      </trkpt>
      <trkpt lat="43.2104650" lon="-3.0955500">
        <ele>66.4</ele>
        <time>2022-01-16T12:05:20Z</time>
      </trkpt>
      <trkpt lat="43.2104180" lon="-3.0955610">
        <ele>66.6</ele>
        <time>2022-01-16T12:05:21Z</time>
      </trkpt>
      <trkpt lat="43.2103900" lon="-3.0955630">
        <ele>66.6</ele>
        <time>2022-01-16T12:05:22Z</time>
      </trkpt>
      <trkpt lat="43.2103710" lon="-3.0955610">
        <ele>66.6</ele>
        <time>2022-01-16T12:05:23Z</time>
      </trkpt>
      <trkpt lat="43.2103550" lon="-3.0955650">
        <ele>66.6</ele>
        <time>2022-01-16T12:05:24Z</time>
      </trkpt>
      <trkpt lat="43.2103300" lon="-3.0955690">
        <ele>66.6</ele>
        <time>2022-01-16T12:05:25Z</time>
      </trkpt>
      <trkpt lat="43.2102990" lon="-3.0955740">
        <ele>66.8</ele>
        <time>2022-01-16T12:05:26Z</time>
      </trkpt>
      <trkpt lat="43.2102620" lon="-3.0955590">
        <ele>66.8</ele>
        <time>2022-01-16T12:05:27Z</time>
      </trkpt>
      <trkpt lat="43.2102320" lon="-3.0955180">
        <ele>66.8</ele>
        <time>2022-01-16T12:05:28Z</time>
      </trkpt>
      <trkpt lat="43.2101990" lon="-3.0954550">
        <ele>66.8</ele>
        <time>2022-01-16T12:05:29Z</time>
      </trkpt>
      <trkpt lat="43.2101610" lon="-3.0953790">
        <ele>66.8</ele>
        <time>2022-01-16T12:05:30Z</time>
      </trkpt>
      <trkpt lat="43.2101240" lon="-3.0952990">
        <ele>66.6</ele>
        <time>2022-01-16T12:05:31Z</time>
      </trkpt>
      <trkpt lat="43.2100860" lon="-3.0952110">
        <ele>66.4</ele>
        <time>2022-01-16T12:05:32Z</time>
      </trkpt>
      <trkpt lat="43.2100510" lon="-3.0951270">
        <ele>66.2</ele>
        <time>2022-01-16T12:05:33Z</time>
      </trkpt>
      <trkpt lat="43.2100150" lon="-3.0950390">
        <ele>65.8</ele>
        <time>2022-01-16T12:05:34Z</time>
      </trkpt>
      <trkpt lat="43.2099750" lon="-3.0949480">
        <ele>65.8</ele>
        <time>2022-01-16T12:05:35Z</time>
      </trkpt>
      <trkpt lat="43.2099300" lon="-3.0948580">
        <ele>65.6</ele>
        <time>2022-01-16T12:05:36Z</time>
      </trkpt>
      <trkpt lat="43.2098890" lon="-3.0947620">
        <ele>65.4</ele>
        <time>2022-01-16T12:05:37Z</time>
      </trkpt>
      <trkpt lat="43.2098460" lon="-3.0946630">
        <ele>65.2</ele>
        <time>2022-01-16T12:05:38Z</time>
      </trkpt>
      <trkpt lat="43.2098020" lon="-3.0945660">
        <ele>65.0</ele>
        <time>2022-01-16T12:05:39Z</time>
      </trkpt>
      <trkpt lat="43.2097550" lon="-3.0944710">
        <ele>64.8</ele>
        <time>2022-01-16T12:05:40Z</time>
      </trkpt>
      <trkpt lat="43.2097120" lon="-3.0943740">
        <ele>64.6</ele>
        <time>2022-01-16T12:05:41Z</time>
      </trkpt>
      <trkpt lat="43.2096670" lon="-3.0942780">
        <ele>64.4</ele>
        <time>2022-01-16T12:05:42Z</time>
      </trkpt>
      <trkpt lat="43.2096240" lon="-3.0941830">
        <ele>64.4</ele>
        <time>2022-01-16T12:05:43Z</time>
      </trkpt>
      <trkpt lat="43.2095800" lon="-3.0940870">
        <ele>64.4</ele>
        <time>2022-01-16T12:05:44Z</time>
      </trkpt>
      <trkpt lat="43.2095380" lon="-3.0939920">
        <ele>64.4</ele>
        <time>2022-01-16T12:05:45Z</time>
      </trkpt>
      <trkpt lat="43.2094970" lon="-3.0939030">
        <ele>64.4</ele>
        <time>2022-01-16T12:05:46Z</time>
      </trkpt>
      <trkpt lat="43.2094570" lon="-3.0938110">
        <ele>64.4</ele>
        <time>2022-01-16T12:05:47Z</time>
      </trkpt>
      <trkpt lat="43.2094170" lon="-3.0937180">
        <ele>64.8</ele>
        <time>2022-01-16T12:05:48Z</time>
      </trkpt>
      <trkpt lat="43.2093780" lon="-3.0936270">
        <ele>65.0</ele>
        <time>2022-01-16T12:05:49Z</time>
      </trkpt>
      <trkpt lat="43.2093390" lon="-3.0935390">
        <ele>65.4</ele>
        <time>2022-01-16T12:05:50Z</time>
      </trkpt>
      <trkpt lat="43.2093020" lon="-3.0934520">
        <ele>65.6</ele>
        <time>2022-01-16T12:05:51Z</time>
      </trkpt>
      <trkpt lat="43.2092650" lon="-3.0933660">
        <ele>66.0</ele>
        <time>2022-01-16T12:05:52Z</time>
      </trkpt>
      <trkpt lat="43.2092280" lon="-3.0932830">
        <ele>66.6</ele>
        <time>2022-01-16T12:05:53Z</time>
      </trkpt>
      <trkpt lat="43.2091910" lon="-3.0932010">
        <ele>66.8</ele>
        <time>2022-01-16T12:05:54Z</time>
      </trkpt>
      <trkpt lat="43.2091560" lon="-3.0931200">
        <ele>67.2</ele>
        <time>2022-01-16T12:05:55Z</time>
      </trkpt>
      <trkpt lat="43.2091210" lon="-3.0930380">
        <ele>67.4</ele>
        <time>2022-01-16T12:05:56Z</time>
      </trkpt>
      <trkpt lat="43.2090860" lon="-3.0929580">
        <ele>67.6</ele>
        <time>2022-01-16T12:05:57Z</time>
      </trkpt>
      <trkpt lat="43.2090500" lon="-3.0928780">
        <ele>68.0</ele>
        <time>2022-01-16T12:05:58Z</time>
      </trkpt>
      <trkpt lat="43.2090150" lon="-3.0927970">
        <ele>68.2</ele>
        <time>2022-01-16T12:05:59Z</time>
      </trkpt>
      <trkpt lat="43.2089800" lon="-3.0927150">
        <ele>68.2</ele>
        <time>2022-01-16T12:06:00Z</time>
      </trkpt>
      <trkpt lat="43.2089430" lon="-3.0926320">
        <ele>68.4</ele>
        <time>2022-01-16T12:06:01Z</time>
      </trkpt>
      <trkpt lat="43.2089060" lon="-3.0925420">
        <ele>68.4</ele>
        <time>2022-01-16T12:06:02Z</time>
      </trkpt>
      <trkpt lat="43.2088690" lon="-3.0924530">
        <ele>68.4</ele>
        <time>2022-01-16T12:06:03Z</time>
      </trkpt>
      <trkpt lat="43.2088300" lon="-3.0923650">
        <ele>68.4</ele>
        <time>2022-01-16T12:06:04Z</time>
      </trkpt>
      <trkpt lat="43.2087900" lon="-3.0922800">
        <ele>68.2</ele>
        <time>2022-01-16T12:06:05Z</time>
      </trkpt>
      <trkpt lat="43.2087480" lon="-3.0921940">
        <ele>68.2</ele>
        <time>2022-01-16T12:06:06Z</time>
      </trkpt>
      <trkpt lat="43.2087050" lon="-3.0921100">
        <ele>68.2</ele>
        <time>2022-01-16T12:06:07Z</time>
      </trkpt>
      <trkpt lat="43.2086620" lon="-3.0920270">
        <ele>68.2</ele>
        <time>2022-01-16T12:06:08Z</time>
      </trkpt>
      <trkpt lat="43.2086130" lon="-3.0919510">
        <ele>68.2</ele>
        <time>2022-01-16T12:06:09Z</time>
      </trkpt>
      <trkpt lat="43.2085680" lon="-3.0918740">
        <ele>68.2</ele>
        <time>2022-01-16T12:06:10Z</time>
      </trkpt>
      <trkpt lat="43.2085200" lon="-3.0918000">
        <ele>68.2</ele>
        <time>2022-01-16T12:06:11Z</time>
      </trkpt>
      <trkpt lat="43.2084700" lon="-3.0917280">
        <ele>68.4</ele>
        <time>2022-01-16T12:06:12Z</time>
      </trkpt>
      <trkpt lat="43.2084210" lon="-3.0916560">
        <ele>68.6</ele>
        <time>2022-01-16T12:06:13Z</time>
      </trkpt>
      <trkpt lat="43.2083700" lon="-3.0915850">
        <ele>68.8</ele>
        <time>2022-01-16T12:06:14Z</time>
      </trkpt>
      <trkpt lat="43.2083210" lon="-3.0915130">
        <ele>69.0</ele>
        <time>2022-01-16T12:06:15Z</time>
      </trkpt>
      <trkpt lat="43.2082760" lon="-3.0914400">
        <ele>69.0</ele>
        <time>2022-01-16T12:06:16Z</time>
      </trkpt>
      <trkpt lat="43.2082290" lon="-3.0913700">
        <ele>69.2</ele>
        <time>2022-01-16T12:06:17Z</time>
      </trkpt>
      <trkpt lat="43.2081840" lon="-3.0912980">
        <ele>69.2</ele>
        <time>2022-01-16T12:06:18Z</time>
      </trkpt>
      <trkpt lat="43.2081380" lon="-3.0912270">
        <ele>69.4</ele>
        <time>2022-01-16T12:06:19Z</time>
      </trkpt>
      <trkpt lat="43.2080950" lon="-3.0911540">
        <ele>69.6</ele>
        <time>2022-01-16T12:06:20Z</time>
      </trkpt>
      <trkpt lat="43.2080540" lon="-3.0910820">
        <ele>69.8</ele>
        <time>2022-01-16T12:06:21Z</time>
      </trkpt>
      <trkpt lat="43.2080090" lon="-3.0910160">
        <ele>70.0</ele>
        <time>2022-01-16T12:06:22Z</time>
      </trkpt>
      <trkpt lat="43.2079660" lon="-3.0909490">
        <ele>70.2</ele>
        <time>2022-01-16T12:06:23Z</time>
      </trkpt>
      <trkpt lat="43.2079240" lon="-3.0908850">
        <ele>70.8</ele>
        <time>2022-01-16T12:06:24Z</time>
      </trkpt>
      <trkpt lat="43.2078840" lon="-3.0908230">
        <ele>71.2</ele>
        <time>2022-01-16T12:06:25Z</time>
      </trkpt>
      <trkpt lat="43.2078450" lon="-3.0907600">
        <ele>71.6</ele>
        <time>2022-01-16T12:06:26Z</time>
      </trkpt>
      <trkpt lat="43.2078040" lon="-3.0907000">
        <ele>72.0</ele>
        <time>2022-01-16T12:06:27Z</time>
      </trkpt>
      <trkpt lat="43.2077630" lon="-3.0906390">
        <ele>72.2</ele>
        <time>2022-01-16T12:06:28Z</time>
      </trkpt>
      <trkpt lat="43.2077200" lon="-3.0905790">
        <ele>72.6</ele>
        <time>2022-01-16T12:06:29Z</time>
      </trkpt>
      <trkpt lat="43.2076770" lon="-3.0905200">
        <ele>72.8</ele>
        <time>2022-01-16T12:06:30Z</time>
      </trkpt>
      <trkpt lat="43.2076330" lon="-3.0904630">
        <ele>73.4</ele>
        <time>2022-01-16T12:06:31Z</time>
      </trkpt>
      <trkpt lat="43.2075910" lon="-3.0904070">
        <ele>73.8</ele>
        <time>2022-01-16T12:06:32Z</time>
      </trkpt>
      <trkpt lat="43.2075460" lon="-3.0903530">
        <ele>74.2</ele>
        <time>2022-01-16T12:06:33Z</time>
      </trkpt>
      <trkpt lat="43.2075000" lon="-3.0902980">
        <ele>74.4</ele>
        <time>2022-01-16T12:06:34Z</time>
      </trkpt>
      <trkpt lat="43.2074560" lon="-3.0902400">
        <ele>74.8</ele>
        <time>2022-01-16T12:06:35Z</time>
      </trkpt>
      <trkpt lat="43.2074130" lon="-3.0901820">
        <ele>75.0</ele>
        <time>2022-01-16T12:06:36Z</time>
      </trkpt>
      <trkpt lat="43.2073720" lon="-3.0901250">
        <ele>75.4</ele>
        <time>2022-01-16T12:06:37Z</time>
      </trkpt>
      <trkpt lat="43.2073270" lon="-3.0900630">
        <ele>76.0</ele>
        <time>2022-01-16T12:06:38Z</time>
      </trkpt>
      <trkpt lat="43.2072810" lon="-3.0900010">
        <ele>76.2</ele>
        <time>2022-01-16T12:06:39Z</time>
      </trkpt>
      <trkpt lat="43.2072340" lon="-3.0899330">
        <ele>76.4</ele>
        <time>2022-01-16T12:06:40Z</time>
      </trkpt>
      <trkpt lat="43.2071880" lon="-3.0898670">
        <ele>76.4</ele>
        <time>2022-01-16T12:06:41Z</time>
      </trkpt>
      <trkpt lat="43.2071390" lon="-3.0897940">
        <ele>76.2</ele>
        <time>2022-01-16T12:06:42Z</time>
      </trkpt>
      <trkpt lat="43.2070900" lon="-3.0897160">
        <ele>76.0</ele>
        <time>2022-01-16T12:06:43Z</time>
      </trkpt>
      <trkpt lat="43.2070400" lon="-3.0896330">
        <ele>75.6</ele>
        <time>2022-01-16T12:06:44Z</time>
      </trkpt>
      <trkpt lat="43.2069870" lon="-3.0895500">
        <ele>75.4</ele>
        <time>2022-01-16T12:06:45Z</time>
      </trkpt>
      <trkpt lat="43.2069310" lon="-3.0894660">
        <ele>75.0</ele>
        <time>2022-01-16T12:06:46Z</time>
      </trkpt>
      <trkpt lat="43.2068720" lon="-3.0893780">
        <ele>74.6</ele>
        <time>2022-01-16T12:06:47Z</time>
      </trkpt>
      <trkpt lat="43.2068160" lon="-3.0892860">
        <ele>74.2</ele>
        <time>2022-01-16T12:06:48Z</time>
      </trkpt>
      <trkpt lat="43.2067600" lon="-3.0891940">
        <ele>73.8</ele>
        <time>2022-01-16T12:06:49Z</time>
      </trkpt>
      <trkpt lat="43.2067070" lon="-3.0891020">
        <ele>73.4</ele>
        <time>2022-01-16T12:06:50Z</time>
      </trkpt>
      <trkpt lat="43.2066520" lon="-3.0890080">
        <ele>73.2</ele>
        <time>2022-01-16T12:06:51Z</time>
      </trkpt>
      <trkpt lat="43.2066070" lon="-3.0889020">
        <ele>73.0</ele>
        <time>2022-01-16T12:06:52Z</time>
      </trkpt>
      <trkpt lat="43.2065640" lon="-3.0887950">
        <ele>73.0</ele>
        <time>2022-01-16T12:06:53Z</time>
      </trkpt>
      <trkpt lat="43.2065250" lon="-3.0886860">
        <ele>72.8</ele>
        <time>2022-01-16T12:06:54Z</time>
      </trkpt>
      <trkpt lat="43.2064910" lon="-3.0885750">
        <ele>72.8</ele>
        <time>2022-01-16T12:06:55Z</time>
      </trkpt>
      <trkpt lat="43.2064630" lon="-3.0884640">
        <ele>72.8</ele>
        <time>2022-01-16T12:06:56Z</time>
      </trkpt>
      <trkpt lat="43.2064420" lon="-3.0883510">
        <ele>72.8</ele>
        <time>2022-01-16T12:06:57Z</time>
      </trkpt>
      <trkpt lat="43.2064290" lon="-3.0882380">
        <ele>72.8</ele>
        <time>2022-01-16T12:06:58Z</time>
      </trkpt>
      <trkpt lat="43.2064200" lon="-3.0881270">
        <ele>72.8</ele>
        <time>2022-01-16T12:06:59Z</time>
      </trkpt>
      <trkpt lat="43.2064150" lon="-3.0880180">
        <ele>73.0</ele>
        <time>2022-01-16T12:07:00Z</time>
      </trkpt>
      <trkpt lat="43.2064120" lon="-3.0879110">
        <ele>72.8</ele>
        <time>2022-01-16T12:07:01Z</time>
      </trkpt>
      <trkpt lat="43.2064090" lon="-3.0878040">
        <ele>72.8</ele>
        <time>2022-01-16T12:07:02Z</time>
      </trkpt>
      <trkpt lat="43.2064050" lon="-3.0877000">
        <ele>72.8</ele>
        <time>2022-01-16T12:07:03Z</time>
      </trkpt>
      <trkpt lat="43.2064020" lon="-3.0875970">
        <ele>72.4</ele>
        <time>2022-01-16T12:07:04Z</time>
      </trkpt>
      <trkpt lat="43.2064000" lon="-3.0874940">
        <ele>72.0</ele>
        <time>2022-01-16T12:07:05Z</time>
      </trkpt>
      <trkpt lat="43.2063980" lon="-3.0873920">
        <ele>71.8</ele>
        <time>2022-01-16T12:07:06Z</time>
      </trkpt>
      <trkpt lat="43.2063900" lon="-3.0872930">
        <ele>71.4</ele>
        <time>2022-01-16T12:07:07Z</time>
      </trkpt>
      <trkpt lat="43.2063760" lon="-3.0871930">
        <ele>71.4</ele>
        <time>2022-01-16T12:07:08Z</time>
      </trkpt>
      <trkpt lat="43.2063580" lon="-3.0870880">
        <ele>71.0</ele>
        <time>2022-01-16T12:07:09Z</time>
      </trkpt>
      <trkpt lat="43.2063510" lon="-3.0869750">
        <ele>70.8</ele>
        <time>2022-01-16T12:07:10Z</time>
      </trkpt>
      <trkpt lat="43.2063580" lon="-3.0868570">
        <ele>70.4</ele>
        <time>2022-01-16T12:07:11Z</time>
      </trkpt>
      <trkpt lat="43.2063730" lon="-3.0867410">
        <ele>69.8</ele>
        <time>2022-01-16T12:07:12Z</time>
      </trkpt>
      <trkpt lat="43.2063840" lon="-3.0866210">
        <ele>69.4</ele>
        <time>2022-01-16T12:07:13Z</time>
      </trkpt>
      <trkpt lat="43.2063880" lon="-3.0864970">
        <ele>69.0</ele>
        <time>2022-01-16T12:07:14Z</time>
      </trkpt>
      <trkpt lat="43.2063890" lon="-3.0863680">
        <ele>68.6</ele>
        <time>2022-01-16T12:07:15Z</time>
      </trkpt>
      <trkpt lat="43.2063900" lon="-3.0862350">
        <ele>68.0</ele>
        <time>2022-01-16T12:07:16Z</time>
      </trkpt>
      <trkpt lat="43.2063890" lon="-3.0861020">
        <ele>67.2</ele>
        <time>2022-01-16T12:07:17Z</time>
      </trkpt>
      <trkpt lat="43.2063880" lon="-3.0859650">
        <ele>66.6</ele>
        <time>2022-01-16T12:07:18Z</time>
      </trkpt>
      <trkpt lat="43.2063870" lon="-3.0858270">
        <ele>66.2</ele>
        <time>2022-01-16T12:07:19Z</time>
      </trkpt>
      <trkpt lat="43.2063860" lon="-3.0856910">
        <ele>66.0</ele>
        <time>2022-01-16T12:07:20Z</time>
      </trkpt>
      <trkpt lat="43.2063840" lon="-3.0855560">
        <ele>65.6</ele>
        <time>2022-01-16T12:07:21Z</time>
      </trkpt>
      <trkpt lat="43.2063820" lon="-3.0854200">
        <ele>65.6</ele>
        <time>2022-01-16T12:07:22Z</time>
      </trkpt>
      <trkpt lat="43.2063810" lon="-3.0852860">
        <ele>65.4</ele>
        <time>2022-01-16T12:07:23Z</time>
      </trkpt>
      <trkpt lat="43.2063810" lon="-3.0851500">
        <ele>65.0</ele>
        <time>2022-01-16T12:07:24Z</time>
      </trkpt>
      <trkpt lat="43.2063790" lon="-3.0850150">
        <ele>64.4</ele>
        <time>2022-01-16T12:07:25Z</time>
      </trkpt>
      <trkpt lat="43.2063770" lon="-3.0848800">
        <ele>64.0</ele>
        <time>2022-01-16T12:07:26Z</time>
      </trkpt>
      <trkpt lat="43.2063740" lon="-3.0847450">
        <ele>63.8</ele>
        <time>2022-01-16T12:07:27Z</time>
      </trkpt>
      <trkpt lat="43.2063700" lon="-3.0846100">
        <ele>63.6</ele>
        <time>2022-01-16T12:07:28Z</time>
      </trkpt>
      <trkpt lat="43.2063670" lon="-3.0844730">
        <ele>63.2</ele>
        <time>2022-01-16T12:07:29Z</time>
      </trkpt>
      <trkpt lat="43.2063660" lon="-3.0843370">
        <ele>62.6</ele>
        <time>2022-01-16T12:07:30Z</time>
      </trkpt>
      <trkpt lat="43.2063660" lon="-3.0842000">
        <ele>62.2</ele>
        <time>2022-01-16T12:07:31Z</time>
      </trkpt>
      <trkpt lat="43.2063720" lon="-3.0840600">
        <ele>61.8</ele>
        <time>2022-01-16T12:07:32Z</time>
      </trkpt>
      <trkpt lat="43.2063710" lon="-3.0839270">
        <ele>61.6</ele>
        <time>2022-01-16T12:07:33Z</time>
      </trkpt>
      <trkpt lat="43.2063690" lon="-3.0837970">
        <ele>61.4</ele>
        <time>2022-01-16T12:07:34Z</time>
      </trkpt>
      <trkpt lat="43.2063660" lon="-3.0836670">
        <ele>61.2</ele>
        <time>2022-01-16T12:07:35Z</time>
      </trkpt>
      <trkpt lat="43.2063630" lon="-3.0835380">
        <ele>61.0</ele>
        <time>2022-01-16T12:07:36Z</time>
      </trkpt>
      <trkpt lat="43.2063610" lon="-3.0834120">
        <ele>60.8</ele>
        <time>2022-01-16T12:07:37Z</time>
      </trkpt>
      <trkpt lat="43.2063610" lon="-3.0832850">
        <ele>60.6</ele>
        <time>2022-01-16T12:07:38Z</time>
      </trkpt>
      <trkpt lat="43.2063700" lon="-3.0831510">
        <ele>60.6</ele>
        <time>2022-01-16T12:07:39Z</time>
      </trkpt>
      <trkpt lat="43.2063730" lon="-3.0830230">
        <ele>60.6</ele>
        <time>2022-01-16T12:07:40Z</time>
      </trkpt>
      <trkpt lat="43.2063730" lon="-3.0829000">
        <ele>60.8</ele>
        <time>2022-01-16T12:07:41Z</time>
      </trkpt>
      <trkpt lat="43.2063700" lon="-3.0827800">
        <ele>60.8</ele>
        <time>2022-01-16T12:07:42Z</time>
      </trkpt>
      <trkpt lat="43.2063670" lon="-3.0826630">
        <ele>61.2</ele>
        <time>2022-01-16T12:07:43Z</time>
      </trkpt>
      <trkpt lat="43.2063640" lon="-3.0825480">
        <ele>61.2</ele>
        <time>2022-01-16T12:07:44Z</time>
      </trkpt>
      <trkpt lat="43.2063620" lon="-3.0824350">
        <ele>61.4</ele>
        <time>2022-01-16T12:07:45Z</time>
      </trkpt>
      <trkpt lat="43.2063590" lon="-3.0823240">
        <ele>61.4</ele>
        <time>2022-01-16T12:07:46Z</time>
      </trkpt>
      <trkpt lat="43.2063570" lon="-3.0822150">
        <ele>61.6</ele>
        <time>2022-01-16T12:07:47Z</time>
      </trkpt>
      <trkpt lat="43.2063560" lon="-3.0821060">
        <ele>61.6</ele>
        <time>2022-01-16T12:07:48Z</time>
      </trkpt>
      <trkpt lat="43.2063560" lon="-3.0819970">
        <ele>62.0</ele>
        <time>2022-01-16T12:07:49Z</time>
      </trkpt>
      <trkpt lat="43.2063550" lon="-3.0818880">
        <ele>62.0</ele>
        <time>2022-01-16T12:07:50Z</time>
      </trkpt>
      <trkpt lat="43.2063540" lon="-3.0817770">
        <ele>62.0</ele>
        <time>2022-01-16T12:07:51Z</time>
      </trkpt>
      <trkpt lat="43.2063510" lon="-3.0816680">
        <ele>61.8</ele>
        <time>2022-01-16T12:07:52Z</time>
      </trkpt>
      <trkpt lat="43.2063490" lon="-3.0815560">
        <ele>61.8</ele>
        <time>2022-01-16T12:07:53Z</time>
      </trkpt>
      <trkpt lat="43.2063480" lon="-3.0814420">
        <ele>61.8</ele>
        <time>2022-01-16T12:07:54Z</time>
      </trkpt>
      <trkpt lat="43.2063470" lon="-3.0813280">
        <ele>61.8</ele>
        <time>2022-01-16T12:07:55Z</time>
      </trkpt>
      <trkpt lat="43.2063470" lon="-3.0812120">
        <ele>61.6</ele>
        <time>2022-01-16T12:07:56Z</time>
      </trkpt>
      <trkpt lat="43.2063460" lon="-3.0810970">
        <ele>61.6</ele>
        <time>2022-01-16T12:07:57Z</time>
      </trkpt>
      <trkpt lat="43.2063430" lon="-3.0809800">
        <ele>61.4</ele>
        <time>2022-01-16T12:07:58Z</time>
      </trkpt>
      <trkpt lat="43.2063390" lon="-3.0808620">
        <ele>61.0</ele>
        <time>2022-01-16T12:07:59Z</time>
      </trkpt>
      <trkpt lat="43.2063380" lon="-3.0807420">
        <ele>60.8</ele>
        <time>2022-01-16T12:08:00Z</time>
      </trkpt>
      <trkpt lat="43.2063350" lon="-3.0806230">
        <ele>60.6</ele>
        <time>2022-01-16T12:08:01Z</time>
      </trkpt>
      <trkpt lat="43.2063340" lon="-3.0805030">
        <ele>60.6</ele>
        <time>2022-01-16T12:08:02Z</time>
      </trkpt>
      <trkpt lat="43.2063340" lon="-3.0803830">
        <ele>60.6</ele>
        <time>2022-01-16T12:08:03Z</time>
      </trkpt>
      <trkpt lat="43.2063320" lon="-3.0802610">
        <ele>60.4</ele>
        <time>2022-01-16T12:08:04Z</time>
      </trkpt>
      <trkpt lat="43.2063290" lon="-3.0801400">
        <ele>60.2</ele>
        <time>2022-01-16T12:08:05Z</time>
      </trkpt>
      <trkpt lat="43.2063250" lon="-3.0800170">
        <ele>60.0</ele>
        <time>2022-01-16T12:08:06Z</time>
      </trkpt>
      <trkpt lat="43.2063220" lon="-3.0798950">
        <ele>59.8</ele>
        <time>2022-01-16T12:08:07Z</time>
      </trkpt>
      <trkpt lat="43.2063200" lon="-3.0797720">
        <ele>59.6</ele>
        <time>2022-01-16T12:08:08Z</time>
      </trkpt>
      <trkpt lat="43.2063190" lon="-3.0796470">
        <ele>59.6</ele>
        <time>2022-01-16T12:08:09Z</time>
      </trkpt>
      <trkpt lat="43.2063180" lon="-3.0795240">
        <ele>59.6</ele>
        <time>2022-01-16T12:08:10Z</time>
      </trkpt>
      <trkpt lat="43.2063150" lon="-3.0794050">
        <ele>59.6</ele>
        <time>2022-01-16T12:08:11Z</time>
      </trkpt>
      <trkpt lat="43.2063100" lon="-3.0792890">
        <ele>59.6</ele>
        <time>2022-01-16T12:08:12Z</time>
      </trkpt>
      <trkpt lat="43.2063090" lon="-3.0791720">
        <ele>59.8</ele>
        <time>2022-01-16T12:08:13Z</time>
      </trkpt>
      <trkpt lat="43.2063070" lon="-3.0790600">
        <ele>60.2</ele>
        <time>2022-01-16T12:08:14Z</time>
      </trkpt>
      <trkpt lat="43.2063000" lon="-3.0789550">
        <ele>60.4</ele>
        <time>2022-01-16T12:08:15Z</time>
      </trkpt>
      <trkpt lat="43.2062890" lon="-3.0788520">
        <ele>60.6</ele>
        <time>2022-01-16T12:08:16Z</time>
      </trkpt>
      <trkpt lat="43.2062740" lon="-3.0787520">
        <ele>61.0</ele>
        <time>2022-01-16T12:08:17Z</time>
      </trkpt>
      <trkpt lat="43.2062580" lon="-3.0786530">
        <ele>61.2</ele>
        <time>2022-01-16T12:08:18Z</time>
      </trkpt>
      <trkpt lat="43.2062410" lon="-3.0785550">
        <ele>61.4</ele>
        <time>2022-01-16T12:08:19Z</time>
      </trkpt>
      <trkpt lat="43.2062200" lon="-3.0784560">
        <ele>61.6</ele>
        <time>2022-01-16T12:08:20Z</time>
      </trkpt>
      <trkpt lat="43.2061960" lon="-3.0783610">
        <ele>61.8</ele>
        <time>2022-01-16T12:08:21Z</time>
      </trkpt>
      <trkpt lat="43.2061690" lon="-3.0782670">
        <ele>62.0</ele>
        <time>2022-01-16T12:08:22Z</time>
      </trkpt>
      <trkpt lat="43.2061400" lon="-3.0781750">
        <ele>62.4</ele>
        <time>2022-01-16T12:08:23Z</time>
      </trkpt>
      <trkpt lat="43.2061060" lon="-3.0780820">
        <ele>62.8</ele>
        <time>2022-01-16T12:08:24Z</time>
      </trkpt>
      <trkpt lat="43.2060680" lon="-3.0779900">
        <ele>63.0</ele>
        <time>2022-01-16T12:08:25Z</time>
      </trkpt>
      <trkpt lat="43.2060260" lon="-3.0778990">
        <ele>63.2</ele>
        <time>2022-01-16T12:08:26Z</time>
      </trkpt>
      <trkpt lat="43.2059840" lon="-3.0778120">
        <ele>63.2</ele>
        <time>2022-01-16T12:08:27Z</time>
      </trkpt>
      <trkpt lat="43.2059380" lon="-3.0777270">
        <ele>63.2</ele>
        <time>2022-01-16T12:08:28Z</time>
      </trkpt>
      <trkpt lat="43.2058880" lon="-3.0776420">
        <ele>63.2</ele>
        <time>2022-01-16T12:08:29Z</time>
      </trkpt>
      <trkpt lat="43.2058340" lon="-3.0775620">
        <ele>63.2</ele>
        <time>2022-01-16T12:08:30Z</time>
      </trkpt>
      <trkpt lat="43.2057800" lon="-3.0774820">
        <ele>63.2</ele>
        <time>2022-01-16T12:08:31Z</time>
      </trkpt>
      <trkpt lat="43.2057270" lon="-3.0774020">
        <ele>63.4</ele>
        <time>2022-01-16T12:08:32Z</time>
      </trkpt>
      <trkpt lat="43.2056720" lon="-3.0773250">
        <ele>63.4</ele>
        <time>2022-01-16T12:08:33Z</time>
      </trkpt>
      <trkpt lat="43.2056140" lon="-3.0772490">
        <ele>63.2</ele>
        <time>2022-01-16T12:08:34Z</time>
      </trkpt>
      <trkpt lat="43.2055570" lon="-3.0771730">
        <ele>63.2</ele>
        <time>2022-01-16T12:08:35Z</time>
      </trkpt>
      <trkpt lat="43.2054980" lon="-3.0770990">
        <ele>63.2</ele>
        <time>2022-01-16T12:08:36Z</time>
      </trkpt>
      <trkpt lat="43.2054380" lon="-3.0770230">
        <ele>63.2</ele>
        <time>2022-01-16T12:08:37Z</time>
      </trkpt>
      <trkpt lat="43.2053800" lon="-3.0769490">
        <ele>63.2</ele>
        <time>2022-01-16T12:08:38Z</time>
      </trkpt>
      <trkpt lat="43.2053260" lon="-3.0768740">
        <ele>63.2</ele>
        <time>2022-01-16T12:08:39Z</time>
      </trkpt>
      <trkpt lat="43.2052690" lon="-3.0768020">
        <ele>63.2</ele>
        <time>2022-01-16T12:08:40Z</time>
      </trkpt>
      <trkpt lat="43.2052130" lon="-3.0767300">
        <ele>63.2</ele>
        <time>2022-01-16T12:08:41Z</time>
      </trkpt>
      <trkpt lat="43.2051580" lon="-3.0766560">
        <ele>63.4</ele>
        <time>2022-01-16T12:08:42Z</time>
      </trkpt>
      <trkpt lat="43.2051000" lon="-3.0765810">
        <ele>63.4</ele>
        <time>2022-01-16T12:08:43Z</time>
      </trkpt>
      <trkpt lat="43.2050420" lon="-3.0765080">
        <ele>63.4</ele>
        <time>2022-01-16T12:08:44Z</time>
      </trkpt>
      <trkpt lat="43.2049790" lon="-3.0764340">
        <ele>63.4</ele>
        <time>2022-01-16T12:08:45Z</time>
      </trkpt>
      <trkpt lat="43.2049160" lon="-3.0763540">
        <ele>63.4</ele>
        <time>2022-01-16T12:08:46Z</time>
      </trkpt>
      <trkpt lat="43.2048540" lon="-3.0762730">
        <ele>63.2</ele>
        <time>2022-01-16T12:08:47Z</time>
      </trkpt>
      <trkpt lat="43.2047900" lon="-3.0761850">
        <ele>63.2</ele>
        <time>2022-01-16T12:08:48Z</time>
      </trkpt>
      <trkpt lat="43.2047240" lon="-3.0760940">
        <ele>62.8</ele>
        <time>2022-01-16T12:08:49Z</time>
      </trkpt>
      <trkpt lat="43.2046620" lon="-3.0759980">
        <ele>62.4</ele>
        <time>2022-01-16T12:08:50Z</time>
      </trkpt>
      <trkpt lat="43.2045970" lon="-3.0759010">
        <ele>61.8</ele>
        <time>2022-01-16T12:08:51Z</time>
      </trkpt>
      <trkpt lat="43.2045270" lon="-3.0758070">
        <ele>61.2</ele>
        <time>2022-01-16T12:08:52Z</time>
      </trkpt>
      <trkpt lat="43.2044500" lon="-3.0757140">
        <ele>60.6</ele>
        <time>2022-01-16T12:08:53Z</time>
      </trkpt>
      <trkpt lat="43.2043760" lon="-3.0756190">
        <ele>60.2</ele>
        <time>2022-01-16T12:08:54Z</time>
      </trkpt>
      <trkpt lat="43.2043030" lon="-3.0755300">
        <ele>59.8</ele>
        <time>2022-01-16T12:08:55Z</time>
      </trkpt>
      <trkpt lat="43.2042320" lon="-3.0754420">
        <ele>59.4</ele>
        <time>2022-01-16T12:08:56Z</time>
      </trkpt>
      <trkpt lat="43.2041610" lon="-3.0753530">
        <ele>59.2</ele>
        <time>2022-01-16T12:08:57Z</time>
      </trkpt>
      <trkpt lat="43.2040880" lon="-3.0752670">
        <ele>59.2</ele>
        <time>2022-01-16T12:08:58Z</time>
      </trkpt>
      <trkpt lat="43.2040180" lon="-3.0751810">
        <ele>59.0</ele>
        <time>2022-01-16T12:08:59Z</time>
      </trkpt>
      <trkpt lat="43.2039480" lon="-3.0750950">
        <ele>59.0</ele>
        <time>2022-01-16T12:09:00Z</time>
      </trkpt>
      <trkpt lat="43.2038760" lon="-3.0750100">
        <ele>58.8</ele>
        <time>2022-01-16T12:09:01Z</time>
      </trkpt>
      <trkpt lat="43.2038060" lon="-3.0749260">
        <ele>58.8</ele>
        <time>2022-01-16T12:09:02Z</time>
      </trkpt>
      <trkpt lat="43.2037360" lon="-3.0748440">
        <ele>58.6</ele>
        <time>2022-01-16T12:09:03Z</time>
      </trkpt>
      <trkpt lat="43.2036670" lon="-3.0747610">
        <ele>58.4</ele>
        <time>2022-01-16T12:09:04Z</time>
      </trkpt>
      <trkpt lat="43.2035970" lon="-3.0746780">
        <ele>58.4</ele>
        <time>2022-01-16T12:09:05Z</time>
      </trkpt>
      <trkpt lat="43.2035260" lon="-3.0745950">
        <ele>58.2</ele>
        <time>2022-01-16T12:09:06Z</time>
      </trkpt>
      <trkpt lat="43.2034580" lon="-3.0745120">
        <ele>58.2</ele>
        <time>2022-01-16T12:09:07Z</time>
      </trkpt>
      <trkpt lat="43.2033900" lon="-3.0744280">
        <ele>58.0</ele>
        <time>2022-01-16T12:09:08Z</time>
      </trkpt>
      <trkpt lat="43.2033190" lon="-3.0743440">
        <ele>57.8</ele>
        <time>2022-01-16T12:09:09Z</time>
      </trkpt>
      <trkpt lat="43.2032510" lon="-3.0742590">
        <ele>57.8</ele>
        <time>2022-01-16T12:09:10Z</time>
      </trkpt>
      <trkpt lat="43.2031840" lon="-3.0741750">
        <ele>57.6</ele>
        <time>2022-01-16T12:09:11Z</time>
      </trkpt>
      <trkpt lat="43.2031170" lon="-3.0740950">
        <ele>57.6</ele>
        <time>2022-01-16T12:09:12Z</time>
      </trkpt>
      <trkpt lat="43.2030510" lon="-3.0740150">
        <ele>57.6</ele>
        <time>2022-01-16T12:09:13Z</time>
      </trkpt>
      <trkpt lat="43.2029850" lon="-3.0739370">
        <ele>57.6</ele>
        <time>2022-01-16T12:09:14Z</time>
      </trkpt>
      <trkpt lat="43.2029210" lon="-3.0738600">
        <ele>57.6</ele>
        <time>2022-01-16T12:09:15Z</time>
      </trkpt>
      <trkpt lat="43.2028570" lon="-3.0737850">
        <ele>57.6</ele>
        <time>2022-01-16T12:09:16Z</time>
      </trkpt>
      <trkpt lat="43.2027950" lon="-3.0737100">
        <ele>57.8</ele>
        <time>2022-01-16T12:09:17Z</time>
      </trkpt>
      <trkpt lat="43.2027300" lon="-3.0736360">
        <ele>57.8</ele>
        <time>2022-01-16T12:09:18Z</time>
      </trkpt>
      <trkpt lat="43.2026680" lon="-3.0735610">
        <ele>58.0</ele>
        <time>2022-01-16T12:09:19Z</time>
      </trkpt>
      <trkpt lat="43.2026050" lon="-3.0734860">
        <ele>58.0</ele>
        <time>2022-01-16T12:09:20Z</time>
      </trkpt>
      <trkpt lat="43.2025440" lon="-3.0734100">
        <ele>58.0</ele>
        <time>2022-01-16T12:09:21Z</time>
      </trkpt>
      <trkpt lat="43.2024810" lon="-3.0733330">
        <ele>57.8</ele>
        <time>2022-01-16T12:09:22Z</time>
      </trkpt>
      <trkpt lat="43.2024160" lon="-3.0732570">
        <ele>57.8</ele>
        <time>2022-01-16T12:09:23Z</time>
      </trkpt>
      <trkpt lat="43.2023520" lon="-3.0731780">
        <ele>58.0</ele>
        <time>2022-01-16T12:09:24Z</time>
      </trkpt>
      <trkpt lat="43.2022880" lon="-3.0731000">
        <ele>58.0</ele>
        <time>2022-01-16T12:09:25Z</time>
      </trkpt>
      <trkpt lat="43.2022240" lon="-3.0730210">
        <ele>58.0</ele>
        <time>2022-01-16T12:09:26Z</time>
      </trkpt>
      <trkpt lat="43.2021610" lon="-3.0729440">
        <ele>58.0</ele>
        <time>2022-01-16T12:09:27Z</time>
      </trkpt>
      <trkpt lat="43.2020960" lon="-3.0728720">
        <ele>58.0</ele>
        <time>2022-01-16T12:09:28Z</time>
      </trkpt>
      <trkpt lat="43.2020330" lon="-3.0727960">
        <ele>58.0</ele>
        <time>2022-01-16T12:09:29Z</time>
      </trkpt>
      <trkpt lat="43.2019720" lon="-3.0727220">
        <ele>58.0</ele>
        <time>2022-01-16T12:09:30Z</time>
      </trkpt>
      <trkpt lat="43.2019130" lon="-3.0726490">
        <ele>58.2</ele>
        <time>2022-01-16T12:09:31Z</time>
      </trkpt>
      <trkpt lat="43.2018510" lon="-3.0725740">
        <ele>58.4</ele>
        <time>2022-01-16T12:09:32Z</time>
      </trkpt>
      <trkpt lat="43.2017890" lon="-3.0724970">
        <ele>58.4</ele>
        <time>2022-01-16T12:09:33Z</time>
      </trkpt>
      <trkpt lat="43.2017290" lon="-3.0724210">
        <ele>58.6</ele>
        <time>2022-01-16T12:09:34Z</time>
      </trkpt>
      <trkpt lat="43.2016700" lon="-3.0723470">
        <ele>58.8</ele>
        <time>2022-01-16T12:09:35Z</time>
      </trkpt>
      <trkpt lat="43.2016120" lon="-3.0722720">
        <ele>58.8</ele>
        <time>2022-01-16T12:09:36Z</time>
      </trkpt>
      <trkpt lat="43.2015570" lon="-3.0721950">
        <ele>59.0</ele>
        <time>2022-01-16T12:09:37Z</time>
      </trkpt>
      <trkpt lat="43.2015020" lon="-3.0721200">
        <ele>59.2</ele>
        <time>2022-01-16T12:09:38Z</time>
      </trkpt>
      <trkpt lat="43.2014480" lon="-3.0720390">
        <ele>59.2</ele>
        <time>2022-01-16T12:09:39Z</time>
      </trkpt>
      <trkpt lat="43.2013920" lon="-3.0719560">
        <ele>59.2</ele>
        <time>2022-01-16T12:09:40Z</time>
      </trkpt>
      <trkpt lat="43.2013360" lon="-3.0718710">
        <ele>59.2</ele>
        <time>2022-01-16T12:09:41Z</time>
      </trkpt>
      <trkpt lat="43.2012810" lon="-3.0717830">
        <ele>59.0</ele>
        <time>2022-01-16T12:09:42Z</time>
      </trkpt>
      <trkpt lat="43.2012260" lon="-3.0716910">
        <ele>58.8</ele>
        <time>2022-01-16T12:09:43Z</time>
      </trkpt>
      <trkpt lat="43.2011670" lon="-3.0715990">
        <ele>58.8</ele>
        <time>2022-01-16T12:09:44Z</time>
      </trkpt>
      <trkpt lat="43.2011100" lon="-3.0715100">
        <ele>58.6</ele>
        <time>2022-01-16T12:09:45Z</time>
      </trkpt>
      <trkpt lat="43.2010540" lon="-3.0714190">
        <ele>58.6</ele>
        <time>2022-01-16T12:09:46Z</time>
      </trkpt>
      <trkpt lat="43.2010010" lon="-3.0713280">
        <ele>58.6</ele>
        <time>2022-01-16T12:09:47Z</time>
      </trkpt>
      <trkpt lat="43.2009490" lon="-3.0712380">
        <ele>58.8</ele>
        <time>2022-01-16T12:09:48Z</time>
      </trkpt>
      <trkpt lat="43.2008970" lon="-3.0711520">
        <ele>59.0</ele>
        <time>2022-01-16T12:09:49Z</time>
      </trkpt>
      <trkpt lat="43.2008490" lon="-3.0710680">
        <ele>59.2</ele>
        <time>2022-01-16T12:09:50Z</time>
      </trkpt>
      <trkpt lat="43.2008000" lon="-3.0709860">
        <ele>59.4</ele>
        <time>2022-01-16T12:09:51Z</time>
      </trkpt>
      <trkpt lat="43.2007510" lon="-3.0709040">
        <ele>59.4</ele>
        <time>2022-01-16T12:09:52Z</time>
      </trkpt>
      <trkpt lat="43.2007020" lon="-3.0708230">
        <ele>59.6</ele>
        <time>2022-01-16T12:09:53Z</time>
      </trkpt>
      <trkpt lat="43.2006520" lon="-3.0707450">
        <ele>59.6</ele>
        <time>2022-01-16T12:09:54Z</time>
      </trkpt>
      <trkpt lat="43.2006000" lon="-3.0706710">
        <ele>60.0</ele>
        <time>2022-01-16T12:09:55Z</time>
      </trkpt>
      <trkpt lat="43.2005500" lon="-3.0705970">
        <ele>60.2</ele>
        <time>2022-01-16T12:09:56Z</time>
      </trkpt>
      <trkpt lat="43.2005010" lon="-3.0705280">
        <ele>60.4</ele>
        <time>2022-01-16T12:09:57Z</time>
      </trkpt>
      <trkpt lat="43.2004540" lon="-3.0704650">
        <ele>60.8</ele>
        <time>2022-01-16T12:09:58Z</time>
      </trkpt>
      <trkpt lat="43.2004070" lon="-3.0704080">
        <ele>61.2</ele>
        <time>2022-01-16T12:09:59Z</time>
      </trkpt>
      <trkpt lat="43.2003620" lon="-3.0703570">
        <ele>61.6</ele>
        <time>2022-01-16T12:10:00Z</time>
      </trkpt>
      <trkpt lat="43.2003140" lon="-3.0703180">
        <ele>61.8</ele>
        <time>2022-01-16T12:10:01Z</time>
      </trkpt>
      <trkpt lat="43.2002650" lon="-3.0702920">
        <ele>62.4</ele>
        <time>2022-01-16T12:10:02Z</time>
      </trkpt>
      <trkpt lat="43.2002130" lon="-3.0702750">
        <ele>63.0</ele>
        <time>2022-01-16T12:10:03Z</time>
      </trkpt>
      <trkpt lat="43.2001620" lon="-3.0702600">
        <ele>63.4</ele>
        <time>2022-01-16T12:10:04Z</time>
      </trkpt>
      <trkpt lat="43.2001100" lon="-3.0702290">
        <ele>63.8</ele>
        <time>2022-01-16T12:10:05Z</time>
      </trkpt>
      <trkpt lat="43.2000640" lon="-3.0701760">
        <ele>64.2</ele>
        <time>2022-01-16T12:10:06Z</time>
      </trkpt>
      <trkpt lat="43.2000200" lon="-3.0701060">
        <ele>64.2</ele>
        <time>2022-01-16T12:10:07Z</time>
      </trkpt>
      <trkpt lat="43.1999790" lon="-3.0700260">
        <ele>64.4</ele>
        <time>2022-01-16T12:10:08Z</time>
      </trkpt>
      <trkpt lat="43.1999450" lon="-3.0699380">
        <ele>64.4</ele>
        <time>2022-01-16T12:10:09Z</time>
      </trkpt>
      <trkpt lat="43.1999140" lon="-3.0698430">
        <ele>64.4</ele>
        <time>2022-01-16T12:10:10Z</time>
      </trkpt>
      <trkpt lat="43.1998820" lon="-3.0697460">
        <ele>64.2</ele>
        <time>2022-01-16T12:10:11Z</time>
      </trkpt>
      <trkpt lat="43.1998500" lon="-3.0696490">
        <ele>64.0</ele>
        <time>2022-01-16T12:10:12Z</time>
      </trkpt>
      <trkpt lat="43.1998180" lon="-3.0695500">
        <ele>63.8</ele>
        <time>2022-01-16T12:10:13Z</time>
      </trkpt>
      <trkpt lat="43.1997860" lon="-3.0694510">
        <ele>63.4</ele>
        <time>2022-01-16T12:10:14Z</time>
      </trkpt>
      <trkpt lat="43.1997530" lon="-3.0693490">
        <ele>63.4</ele>
        <time>2022-01-16T12:10:15Z</time>
      </trkpt>
      <trkpt lat="43.1997180" lon="-3.0692500">
        <ele>63.2</ele>
        <time>2022-01-16T12:10:16Z</time>
      </trkpt>
      <trkpt lat="43.1996810" lon="-3.0691510">
        <ele>62.8</ele>
        <time>2022-01-16T12:10:17Z</time>
      </trkpt>
      <trkpt lat="43.1996410" lon="-3.0690560">
        <ele>62.6</ele>
        <time>2022-01-16T12:10:18Z</time>
      </trkpt>
      <trkpt lat="43.1996000" lon="-3.0689650">
        <ele>62.6</ele>
        <time>2022-01-16T12:10:19Z</time>
      </trkpt>
      <trkpt lat="43.1995630" lon="-3.0688750">
        <ele>62.6</ele>
        <time>2022-01-16T12:10:20Z</time>
      </trkpt>
      <trkpt lat="43.1995220" lon="-3.0687850">
        <ele>62.6</ele>
        <time>2022-01-16T12:10:21Z</time>
      </trkpt>
      <trkpt lat="43.1994810" lon="-3.0686950">
        <ele>63.0</ele>
        <time>2022-01-16T12:10:22Z</time>
      </trkpt>
      <trkpt lat="43.1994400" lon="-3.0686050">
        <ele>63.4</ele>
        <time>2022-01-16T12:10:23Z</time>
      </trkpt>
      <trkpt lat="43.1993980" lon="-3.0685180">
        <ele>63.6</ele>
        <time>2022-01-16T12:10:24Z</time>
      </trkpt>
      <trkpt lat="43.1993580" lon="-3.0684320">
        <ele>64.0</ele>
        <time>2022-01-16T12:10:25Z</time>
      </trkpt>
      <trkpt lat="43.1993180" lon="-3.0683490">
        <ele>64.4</ele>
        <time>2022-01-16T12:10:26Z</time>
      </trkpt>
      <trkpt lat="43.1992770" lon="-3.0682700">
        <ele>64.8</ele>
        <time>2022-01-16T12:10:27Z</time>
      </trkpt>
      <trkpt lat="43.1992360" lon="-3.0681930">
        <ele>65.0</ele>
        <time>2022-01-16T12:10:28Z</time>
      </trkpt>
      <trkpt lat="43.1991940" lon="-3.0681210">
        <ele>65.4</ele>
        <time>2022-01-16T12:10:29Z</time>
      </trkpt>
      <trkpt lat="43.1991530" lon="-3.0680490">
        <ele>65.8</ele>
        <time>2022-01-16T12:10:30Z</time>
      </trkpt>
      <trkpt lat="43.1991110" lon="-3.0679770">
        <ele>66.0</ele>
        <time>2022-01-16T12:10:31Z</time>
      </trkpt>
      <trkpt lat="43.1990640" lon="-3.0679020">
        <ele>66.0</ele>
        <time>2022-01-16T12:10:32Z</time>
      </trkpt>
      <trkpt lat="43.1990170" lon="-3.0678300">
        <ele>66.2</ele>
        <time>2022-01-16T12:10:33Z</time>
      </trkpt>
      <trkpt lat="43.1989690" lon="-3.0677540">
        <ele>66.2</ele>
        <time>2022-01-16T12:10:34Z</time>
      </trkpt>
      <trkpt lat="43.1989190" lon="-3.0676810">
        <ele>66.4</ele>
        <time>2022-01-16T12:10:35Z</time>
      </trkpt>
      <trkpt lat="43.1988690" lon="-3.0676040">
        <ele>66.4</ele>
        <time>2022-01-16T12:10:36Z</time>
      </trkpt>
      <trkpt lat="43.1988200" lon="-3.0675260">
        <ele>66.4</ele>
        <time>2022-01-16T12:10:37Z</time>
      </trkpt>
      <trkpt lat="43.1987690" lon="-3.0674480">
        <ele>66.4</ele>
        <time>2022-01-16T12:10:38Z</time>
      </trkpt>
      <trkpt lat="43.1987190" lon="-3.0673710">
        <ele>66.4</ele>
        <time>2022-01-16T12:10:39Z</time>
      </trkpt>
      <trkpt lat="43.1986660" lon="-3.0672960">
        <ele>66.4</ele>
        <time>2022-01-16T12:10:40Z</time>
      </trkpt>
      <trkpt lat="43.1986140" lon="-3.0672230">
        <ele>66.4</ele>
        <time>2022-01-16T12:10:41Z</time>
      </trkpt>
      <trkpt lat="43.1985610" lon="-3.0671520">
        <ele>66.6</ele>
        <time>2022-01-16T12:10:42Z</time>
      </trkpt>
      <trkpt lat="43.1985100" lon="-3.0670810">
        <ele>66.6</ele>
        <time>2022-01-16T12:10:43Z</time>
      </trkpt>
      <trkpt lat="43.1984560" lon="-3.0670150">
        <ele>66.8</ele>
        <time>2022-01-16T12:10:44Z</time>
      </trkpt>
      <trkpt lat="43.1984020" lon="-3.0669490">
        <ele>67.0</ele>
        <time>2022-01-16T12:10:45Z</time>
      </trkpt>
      <trkpt lat="43.1983480" lon="-3.0668840">
        <ele>67.2</ele>
        <time>2022-01-16T12:10:46Z</time>
      </trkpt>
      <trkpt lat="43.1982940" lon="-3.0668160">
        <ele>67.4</ele>
        <time>2022-01-16T12:10:47Z</time>
      </trkpt>
      <trkpt lat="43.1982430" lon="-3.0667460">
        <ele>67.6</ele>
        <time>2022-01-16T12:10:48Z</time>
      </trkpt>
      <trkpt lat="43.1981940" lon="-3.0666720">
        <ele>67.8</ele>
        <time>2022-01-16T12:10:49Z</time>
      </trkpt>
      <trkpt lat="43.1981450" lon="-3.0665950">
        <ele>68.0</ele>
        <time>2022-01-16T12:10:50Z</time>
      </trkpt>
      <trkpt lat="43.1980990" lon="-3.0665090">
        <ele>68.2</ele>
        <time>2022-01-16T12:10:51Z</time>
      </trkpt>
      <trkpt lat="43.1980550" lon="-3.0664180">
        <ele>68.4</ele>
        <time>2022-01-16T12:10:52Z</time>
      </trkpt>
      <trkpt lat="43.1980140" lon="-3.0663230">
        <ele>68.2</ele>
        <time>2022-01-16T12:10:53Z</time>
      </trkpt>
      <trkpt lat="43.1979670" lon="-3.0662290">
        <ele>68.2</ele>
        <time>2022-01-16T12:10:54Z</time>
      </trkpt>
      <trkpt lat="43.1979160" lon="-3.0661350">
        <ele>68.0</ele>
        <time>2022-01-16T12:10:55Z</time>
      </trkpt>
      <trkpt lat="43.1978600" lon="-3.0660450">
        <ele>67.8</ele>
        <time>2022-01-16T12:10:56Z</time>
      </trkpt>
      <trkpt lat="43.1978030" lon="-3.0659570">
        <ele>67.6</ele>
        <time>2022-01-16T12:10:57Z</time>
      </trkpt>
      <trkpt lat="43.1977390" lon="-3.0658790">
        <ele>67.6</ele>
        <time>2022-01-16T12:10:58Z</time>
      </trkpt>
      <trkpt lat="43.1976780" lon="-3.0658040">
        <ele>67.8</ele>
        <time>2022-01-16T12:10:59Z</time>
      </trkpt>
      <trkpt lat="43.1976170" lon="-3.0657300">
        <ele>68.0</ele>
        <time>2022-01-16T12:11:00Z</time>
      </trkpt>
      <trkpt lat="43.1975570" lon="-3.0656560">
        <ele>68.2</ele>
        <time>2022-01-16T12:11:01Z</time>
      </trkpt>
      <trkpt lat="43.1974970" lon="-3.0655780">
        <ele>68.6</ele>
        <time>2022-01-16T12:11:02Z</time>
      </trkpt>
      <trkpt lat="43.1974440" lon="-3.0655000">
        <ele>69.0</ele>
        <time>2022-01-16T12:11:03Z</time>
      </trkpt>
      <trkpt lat="43.1973930" lon="-3.0654140">
        <ele>69.2</ele>
        <time>2022-01-16T12:11:04Z</time>
      </trkpt>
      <trkpt lat="43.1973470" lon="-3.0653250">
        <ele>69.4</ele>
        <time>2022-01-16T12:11:05Z</time>
      </trkpt>
      <trkpt lat="43.1973040" lon="-3.0652320">
        <ele>69.4</ele>
        <time>2022-01-16T12:11:06Z</time>
      </trkpt>
      <trkpt lat="43.1972640" lon="-3.0651350">
        <ele>69.2</ele>
        <time>2022-01-16T12:11:07Z</time>
      </trkpt>
      <trkpt lat="43.1972270" lon="-3.0650320">
        <ele>69.2</ele>
        <time>2022-01-16T12:11:08Z</time>
      </trkpt>
      <trkpt lat="43.1971910" lon="-3.0649260">
        <ele>69.2</ele>
        <time>2022-01-16T12:11:09Z</time>
      </trkpt>
      <trkpt lat="43.1971540" lon="-3.0648160">
        <ele>69.2</ele>
        <time>2022-01-16T12:11:10Z</time>
      </trkpt>
      <trkpt lat="43.1971160" lon="-3.0647070">
        <ele>69.0</ele>
        <time>2022-01-16T12:11:11Z</time>
      </trkpt>
      <trkpt lat="43.1970760" lon="-3.0645990">
        <ele>68.8</ele>
        <time>2022-01-16T12:11:12Z</time>
      </trkpt>
      <trkpt lat="43.1970360" lon="-3.0644940">
        <ele>68.8</ele>
        <time>2022-01-16T12:11:13Z</time>
      </trkpt>
      <trkpt lat="43.1969930" lon="-3.0643890">
        <ele>68.6</ele>
        <time>2022-01-16T12:11:14Z</time>
      </trkpt>
      <trkpt lat="43.1969530" lon="-3.0642800">
        <ele>68.2</ele>
        <time>2022-01-16T12:11:15Z</time>
      </trkpt>
      <trkpt lat="43.1969130" lon="-3.0641680">
        <ele>67.8</ele>
        <time>2022-01-16T12:11:16Z</time>
      </trkpt>
      <trkpt lat="43.1968760" lon="-3.0640550">
        <ele>67.4</ele>
        <time>2022-01-16T12:11:17Z</time>
      </trkpt>
      <trkpt lat="43.1968390" lon="-3.0639400">
        <ele>67.2</ele>
        <time>2022-01-16T12:11:18Z</time>
      </trkpt>
      <trkpt lat="43.1968040" lon="-3.0638250">
        <ele>67.0</ele>
        <time>2022-01-16T12:11:19Z</time>
      </trkpt>
      <trkpt lat="43.1967720" lon="-3.0637100">
        <ele>67.0</ele>
        <time>2022-01-16T12:11:20Z</time>
      </trkpt>
      <trkpt lat="43.1967420" lon="-3.0635980">
        <ele>67.0</ele>
        <time>2022-01-16T12:11:21Z</time>
      </trkpt>
      <trkpt lat="43.1967140" lon="-3.0634870">
        <ele>67.2</ele>
        <time>2022-01-16T12:11:22Z</time>
      </trkpt>
      <trkpt lat="43.1966870" lon="-3.0633730">
        <ele>67.2</ele>
        <time>2022-01-16T12:11:23Z</time>
      </trkpt>
      <trkpt lat="43.1966600" lon="-3.0632570">
        <ele>67.4</ele>
        <time>2022-01-16T12:11:24Z</time>
      </trkpt>
      <trkpt lat="43.1966330" lon="-3.0631460">
        <ele>67.4</ele>
        <time>2022-01-16T12:11:25Z</time>
      </trkpt>
      <trkpt lat="43.1966090" lon="-3.0630350">
        <ele>67.4</ele>
        <time>2022-01-16T12:11:26Z</time>
      </trkpt>
      <trkpt lat="43.1965880" lon="-3.0629250">
        <ele>67.6</ele>
        <time>2022-01-16T12:11:27Z</time>
      </trkpt>
      <trkpt lat="43.1965690" lon="-3.0628140">
        <ele>67.6</ele>
        <time>2022-01-16T12:11:28Z</time>
      </trkpt>
      <trkpt lat="43.1965540" lon="-3.0627030">
        <ele>67.8</ele>
        <time>2022-01-16T12:11:29Z</time>
      </trkpt>
      <trkpt lat="43.1965400" lon="-3.0625910">
        <ele>67.8</ele>
        <time>2022-01-16T12:11:30Z</time>
      </trkpt>
      <trkpt lat="43.1965290" lon="-3.0624780">
        <ele>67.8</ele>
        <time>2022-01-16T12:11:31Z</time>
      </trkpt>
      <trkpt lat="43.1965200" lon="-3.0623640">
        <ele>67.8</ele>
        <time>2022-01-16T12:11:32Z</time>
      </trkpt>
      <trkpt lat="43.1965170" lon="-3.0622500">
        <ele>67.8</ele>
        <time>2022-01-16T12:11:33Z</time>
      </trkpt>
      <trkpt lat="43.1965180" lon="-3.0621380">
        <ele>67.8</ele>
        <time>2022-01-16T12:11:34Z</time>
      </trkpt>
      <trkpt lat="43.1965240" lon="-3.0620260">
        <ele>67.6</ele>
        <time>2022-01-16T12:11:35Z</time>
      </trkpt>
      <trkpt lat="43.1965380" lon="-3.0619160">
        <ele>67.6</ele>
        <time>2022-01-16T12:11:36Z</time>
      </trkpt>
      <trkpt lat="43.1965540" lon="-3.0618060">
        <ele>67.6</ele>
        <time>2022-01-16T12:11:37Z</time>
      </trkpt>
      <trkpt lat="43.1965750" lon="-3.0616970">
        <ele>67.6</ele>
        <time>2022-01-16T12:11:38Z</time>
      </trkpt>
      <trkpt lat="43.1966030" lon="-3.0615920">
        <ele>67.4</ele>
        <time>2022-01-16T12:11:39Z</time>
      </trkpt>
      <trkpt lat="43.1966340" lon="-3.0614890">
        <ele>67.4</ele>
        <time>2022-01-16T12:11:40Z</time>
      </trkpt>
      <trkpt lat="43.1966710" lon="-3.0613860">
        <ele>67.4</ele>
        <time>2022-01-16T12:11:41Z</time>
      </trkpt>
      <trkpt lat="43.1967120" lon="-3.0612850">
        <ele>67.4</ele>
        <time>2022-01-16T12:11:42Z</time>
      </trkpt>
      <trkpt lat="43.1967540" lon="-3.0611840">
        <ele>67.4</ele>
        <time>2022-01-16T12:11:43Z</time>
      </trkpt>
      <trkpt lat="43.1967990" lon="-3.0610840">
        <ele>67.4</ele>
        <time>2022-01-16T12:11:44Z</time>
      </trkpt>
      <trkpt lat="43.1968460" lon="-3.0609820">
        <ele>67.4</ele>
        <time>2022-01-16T12:11:45Z</time>
      </trkpt>
      <trkpt lat="43.1968930" lon="-3.0608820">
        <ele>67.2</ele>
        <time>2022-01-16T12:11:46Z</time>
      </trkpt>
      <trkpt lat="43.1969400" lon="-3.0607820">
        <ele>67.0</ele>
        <time>2022-01-16T12:11:47Z</time>
      </trkpt>
      <trkpt lat="43.1969860" lon="-3.0606810">
        <ele>66.6</ele>
        <time>2022-01-16T12:11:48Z</time>
      </trkpt>
      <trkpt lat="43.1970320" lon="-3.0605800">
        <ele>66.4</ele>
        <time>2022-01-16T12:11:49Z</time>
      </trkpt>
      <trkpt lat="43.1970780" lon="-3.0604800">
        <ele>66.4</ele>
        <time>2022-01-16T12:11:50Z</time>
      </trkpt>
      <trkpt lat="43.1971230" lon="-3.0603800">
        <ele>66.2</ele>
        <time>2022-01-16T12:11:51Z</time>
      </trkpt>
      <trkpt lat="43.1971690" lon="-3.0602820">
        <ele>66.2</ele>
        <time>2022-01-16T12:11:52Z</time>
      </trkpt>
      <trkpt lat="43.1972140" lon="-3.0601810">
        <ele>66.0</ele>
        <time>2022-01-16T12:11:53Z</time>
      </trkpt>
      <trkpt lat="43.1972590" lon="-3.0600790">
        <ele>65.8</ele>
        <time>2022-01-16T12:11:54Z</time>
      </trkpt>
      <trkpt lat="43.1973000" lon="-3.0599800">
        <ele>65.6</ele>
        <time>2022-01-16T12:11:55Z</time>
      </trkpt>
      <trkpt lat="43.1973430" lon="-3.0598820">
        <ele>65.4</ele>
        <time>2022-01-16T12:11:56Z</time>
      </trkpt>
      <trkpt lat="43.1973890" lon="-3.0597850">
        <ele>65.2</ele>
        <time>2022-01-16T12:11:57Z</time>
      </trkpt>
      <trkpt lat="43.1974330" lon="-3.0596870">
        <ele>65.0</ele>
        <time>2022-01-16T12:11:58Z</time>
      </trkpt>
      <trkpt lat="43.1974760" lon="-3.0595800">
        <ele>65.0</ele>
        <time>2022-01-16T12:11:59Z</time>
      </trkpt>
      <trkpt lat="43.1975140" lon="-3.0594690">
        <ele>65.0</ele>
        <time>2022-01-16T12:12:00Z</time>
      </trkpt>
      <trkpt lat="43.1975460" lon="-3.0593550">
        <ele>65.0</ele>
        <time>2022-01-16T12:12:01Z</time>
      </trkpt>
      <trkpt lat="43.1975670" lon="-3.0592420">
        <ele>65.0</ele>
        <time>2022-01-16T12:12:02Z</time>
      </trkpt>
      <trkpt lat="43.1975850" lon="-3.0591290">
        <ele>65.0</ele>
        <time>2022-01-16T12:12:03Z</time>
      </trkpt>
      <trkpt lat="43.1976080" lon="-3.0590090">
        <ele>65.2</ele>
        <time>2022-01-16T12:12:04Z</time>
      </trkpt>
      <trkpt lat="43.1976300" lon="-3.0588990">
        <ele>65.2</ele>
        <time>2022-01-16T12:12:05Z</time>
      </trkpt>
      <trkpt lat="43.1976570" lon="-3.0587850">
        <ele>65.2</ele>
        <time>2022-01-16T12:12:06Z</time>
      </trkpt>
      <trkpt lat="43.1976870" lon="-3.0586720">
        <ele>65.2</ele>
        <time>2022-01-16T12:12:07Z</time>
      </trkpt>
      <trkpt lat="43.1977190" lon="-3.0585600">
        <ele>65.0</ele>
        <time>2022-01-16T12:12:08Z</time>
      </trkpt>
      <trkpt lat="43.1977480" lon="-3.0584530">
        <ele>64.8</ele>
        <time>2022-01-16T12:12:09Z</time>
      </trkpt>
      <trkpt lat="43.1977740" lon="-3.0583460">
        <ele>64.6</ele>
        <time>2022-01-16T12:12:10Z</time>
      </trkpt>
      <trkpt lat="43.1978050" lon="-3.0582380">
        <ele>64.4</ele>
        <time>2022-01-16T12:12:11Z</time>
      </trkpt>
      <trkpt lat="43.1978370" lon="-3.0581330">
        <ele>64.4</ele>
        <time>2022-01-16T12:12:12Z</time>
      </trkpt>
      <trkpt lat="43.1978710" lon="-3.0580260">
        <ele>64.4</ele>
        <time>2022-01-16T12:12:13Z</time>
      </trkpt>
      <trkpt lat="43.1978980" lon="-3.0579180">
        <ele>64.4</ele>
        <time>2022-01-16T12:12:14Z</time>
      </trkpt>
      <trkpt lat="43.1979300" lon="-3.0578060">
        <ele>64.2</ele>
        <time>2022-01-16T12:12:15Z</time>
      </trkpt>
      <trkpt lat="43.1979640" lon="-3.0576930">
        <ele>63.4</ele>
        <time>2022-01-16T12:12:16Z</time>
      </trkpt>
      <trkpt lat="43.1980040" lon="-3.0575720">
        <ele>62.8</ele>
        <time>2022-01-16T12:12:17Z</time>
      </trkpt>
      <trkpt lat="43.1980410" lon="-3.0574510">
        <ele>62.2</ele>
        <time>2022-01-16T12:12:18Z</time>
      </trkpt>
      <trkpt lat="43.1980790" lon="-3.0573240">
        <ele>61.6</ele>
        <time>2022-01-16T12:12:19Z</time>
      </trkpt>
      <trkpt lat="43.1981170" lon="-3.0571930">
        <ele>61.0</ele>
        <time>2022-01-16T12:12:20Z</time>
      </trkpt>
      <trkpt lat="43.1981580" lon="-3.0570570">
        <ele>60.4</ele>
        <time>2022-01-16T12:12:21Z</time>
      </trkpt>
      <trkpt lat="43.1982040" lon="-3.0569220">
        <ele>59.8</ele>
        <time>2022-01-16T12:12:22Z</time>
      </trkpt>
      <trkpt lat="43.1982560" lon="-3.0567900">
        <ele>59.4</ele>
        <time>2022-01-16T12:12:23Z</time>
      </trkpt>
      <trkpt lat="43.1983080" lon="-3.0566610">
        <ele>58.8</ele>
        <time>2022-01-16T12:12:24Z</time>
      </trkpt>
      <trkpt lat="43.1983620" lon="-3.0565350">
        <ele>57.8</ele>
        <time>2022-01-16T12:12:25Z</time>
      </trkpt>
      <trkpt lat="43.1984190" lon="-3.0564110">
        <ele>57.0</ele>
        <time>2022-01-16T12:12:26Z</time>
      </trkpt>
      <trkpt lat="43.1984770" lon="-3.0562890">
        <ele>56.2</ele>
        <time>2022-01-16T12:12:27Z</time>
      </trkpt>
      <trkpt lat="43.1985330" lon="-3.0561630">
        <ele>55.6</ele>
        <time>2022-01-16T12:12:28Z</time>
      </trkpt>
      <trkpt lat="43.1985910" lon="-3.0560400">
        <ele>55.0</ele>
        <time>2022-01-16T12:12:29Z</time>
      </trkpt>
      <trkpt lat="43.1986510" lon="-3.0559200">
        <ele>54.8</ele>
        <time>2022-01-16T12:12:30Z</time>
      </trkpt>
      <trkpt lat="43.1987130" lon="-3.0558080">
        <ele>54.6</ele>
        <time>2022-01-16T12:12:31Z</time>
      </trkpt>
      <trkpt lat="43.1987760" lon="-3.0556940">
        <ele>54.4</ele>
        <time>2022-01-16T12:12:32Z</time>
      </trkpt>
      <trkpt lat="43.1988390" lon="-3.0555800">
        <ele>53.8</ele>
        <time>2022-01-16T12:12:33Z</time>
      </trkpt>
      <trkpt lat="43.1989040" lon="-3.0554660">
        <ele>53.2</ele>
        <time>2022-01-16T12:12:34Z</time>
      </trkpt>
      <trkpt lat="43.1989690" lon="-3.0553520">
        <ele>52.8</ele>
        <time>2022-01-16T12:12:35Z</time>
      </trkpt>
      <trkpt lat="43.1990340" lon="-3.0552390">
        <ele>52.6</ele>
        <time>2022-01-16T12:12:36Z</time>
      </trkpt>
      <trkpt lat="43.1990950" lon="-3.0551240">
        <ele>52.4</ele>
        <time>2022-01-16T12:12:37Z</time>
      </trkpt>
      <trkpt lat="43.1991540" lon="-3.0550080">
        <ele>52.2</ele>
        <time>2022-01-16T12:12:38Z</time>
      </trkpt>
      <trkpt lat="43.1992110" lon="-3.0548960">
        <ele>52.0</ele>
        <time>2022-01-16T12:12:39Z</time>
      </trkpt>
      <trkpt lat="43.1992680" lon="-3.0547890">
        <ele>51.8</ele>
        <time>2022-01-16T12:12:40Z</time>
      </trkpt>
      <trkpt lat="43.1993230" lon="-3.0546830">
        <ele>51.6</ele>
        <time>2022-01-16T12:12:41Z</time>
      </trkpt>
      <trkpt lat="43.1993780" lon="-3.0545760">
        <ele>51.4</ele>
        <time>2022-01-16T12:12:42Z</time>
      </trkpt>
      <trkpt lat="43.1994350" lon="-3.0544650">
        <ele>51.2</ele>
        <time>2022-01-16T12:12:43Z</time>
      </trkpt>
      <trkpt lat="43.1994900" lon="-3.0543570">
        <ele>51.0</ele>
        <time>2022-01-16T12:12:44Z</time>
      </trkpt>
      <trkpt lat="43.1995460" lon="-3.0542470">
        <ele>50.8</ele>
        <time>2022-01-16T12:12:45Z</time>
      </trkpt>
      <trkpt lat="43.1996010" lon="-3.0541360">
        <ele>50.8</ele>
        <time>2022-01-16T12:12:46Z</time>
      </trkpt>
      <trkpt lat="43.1996610" lon="-3.0540210">
        <ele>50.6</ele>
        <time>2022-01-16T12:12:47Z</time>
      </trkpt>
      <trkpt lat="43.1997200" lon="-3.0539100">
        <ele>50.6</ele>
        <time>2022-01-16T12:12:48Z</time>
      </trkpt>
      <trkpt lat="43.1997780" lon="-3.0538000">
        <ele>50.4</ele>
        <time>2022-01-16T12:12:49Z</time>
      </trkpt>
      <trkpt lat="43.1998350" lon="-3.0536930">
        <ele>50.2</ele>
        <time>2022-01-16T12:12:50Z</time>
      </trkpt>
      <trkpt lat="43.1998890" lon="-3.0535890">
        <ele>50.2</ele>
        <time>2022-01-16T12:12:51Z</time>
      </trkpt>
      <trkpt lat="43.1999450" lon="-3.0534850">
        <ele>50.2</ele>
        <time>2022-01-16T12:12:52Z</time>
      </trkpt>
      <trkpt lat="43.2000030" lon="-3.0533820">
        <ele>50.0</ele>
        <time>2022-01-16T12:12:53Z</time>
      </trkpt>
      <trkpt lat="43.2000630" lon="-3.0532790">
        <ele>49.8</ele>
        <time>2022-01-16T12:12:54Z</time>
      </trkpt>
      <trkpt lat="43.2001240" lon="-3.0531740">
        <ele>49.6</ele>
        <time>2022-01-16T12:12:55Z</time>
      </trkpt>
      <trkpt lat="43.2001870" lon="-3.0530680">
        <ele>49.4</ele>
        <time>2022-01-16T12:12:56Z</time>
      </trkpt>
      <trkpt lat="43.2002500" lon="-3.0529650">
        <ele>49.2</ele>
        <time>2022-01-16T12:12:57Z</time>
      </trkpt>
      <trkpt lat="43.2003170" lon="-3.0528640">
        <ele>49.0</ele>
        <time>2022-01-16T12:12:58Z</time>
      </trkpt>
      <trkpt lat="43.2003850" lon="-3.0527650">
        <ele>48.8</ele>
        <time>2022-01-16T12:12:59Z</time>
      </trkpt>
      <trkpt lat="43.2004520" lon="-3.0526750">
        <ele>48.6</ele>
        <time>2022-01-16T12:13:00Z</time>
      </trkpt>
      <trkpt lat="43.2005180" lon="-3.0525920">
        <ele>48.4</ele>
        <time>2022-01-16T12:13:01Z</time>
      </trkpt>
      <trkpt lat="43.2005840" lon="-3.0525140">
        <ele>48.2</ele>
        <time>2022-01-16T12:13:02Z</time>
      </trkpt>
      <trkpt lat="43.2006450" lon="-3.0524450">
        <ele>48.0</ele>
        <time>2022-01-16T12:13:03Z</time>
      </trkpt>
      <trkpt lat="43.2006990" lon="-3.0523820">
        <ele>47.8</ele>
        <time>2022-01-16T12:13:04Z</time>
      </trkpt>
      <trkpt lat="43.2007490" lon="-3.0523240">
        <ele>47.4</ele>
        <time>2022-01-16T12:13:05Z</time>
      </trkpt>
      <trkpt lat="43.2007950" lon="-3.0522650">
        <ele>47.2</ele>
        <time>2022-01-16T12:13:06Z</time>
      </trkpt>
      <trkpt lat="43.2008460" lon="-3.0522050">
        <ele>47.2</ele>
        <time>2022-01-16T12:13:07Z</time>
      </trkpt>
      <trkpt lat="43.2008950" lon="-3.0521470">
        <ele>47.2</ele>
        <time>2022-01-16T12:13:08Z</time>
      </trkpt>
      <trkpt lat="43.2009450" lon="-3.0520960">
        <ele>47.2</ele>
        <time>2022-01-16T12:13:09Z</time>
      </trkpt>
      <trkpt lat="43.2009960" lon="-3.0520430">
        <ele>47.2</ele>
        <time>2022-01-16T12:13:10Z</time>
      </trkpt>
      <trkpt lat="43.2010480" lon="-3.0519840">
        <ele>47.2</ele>
        <time>2022-01-16T12:13:11Z</time>
      </trkpt>
      <trkpt lat="43.2010980" lon="-3.0519240">
        <ele>47.4</ele>
        <time>2022-01-16T12:13:12Z</time>
      </trkpt>
      <trkpt lat="43.2011490" lon="-3.0518580">
        <ele>47.6</ele>
        <time>2022-01-16T12:13:13Z</time>
      </trkpt>
      <trkpt lat="43.2011960" lon="-3.0517920">
        <ele>47.8</ele>
        <time>2022-01-16T12:13:14Z</time>
      </trkpt>
      <trkpt lat="43.2012430" lon="-3.0517260">
        <ele>48.0</ele>
        <time>2022-01-16T12:13:15Z</time>
      </trkpt>
      <trkpt lat="43.2012890" lon="-3.0516590">
        <ele>48.0</ele>
        <time>2022-01-16T12:13:16Z</time>
      </trkpt>
      <trkpt lat="43.2013360" lon="-3.0515920">
        <ele>48.0</ele>
        <time>2022-01-16T12:13:17Z</time>
      </trkpt>
      <trkpt lat="43.2013930" lon="-3.0515280">
        <ele>48.4</ele>
        <time>2022-01-16T12:13:18Z</time>
      </trkpt>
      <trkpt lat="43.2014470" lon="-3.0514600">
        <ele>48.4</ele>
        <time>2022-01-16T12:13:19Z</time>
      </trkpt>
      <trkpt lat="43.2015060" lon="-3.0514010">
        <ele>48.4</ele>
        <time>2022-01-16T12:13:20Z</time>
      </trkpt>
      <trkpt lat="43.2015620" lon="-3.0513300">
        <ele>48.4</ele>
        <time>2022-01-16T12:13:21Z</time>
      </trkpt>
      <trkpt lat="43.2016160" lon="-3.0512630">
        <ele>48.4</ele>
        <time>2022-01-16T12:13:22Z</time>
      </trkpt>
      <trkpt lat="43.2016680" lon="-3.0512040">
        <ele>48.4</ele>
        <time>2022-01-16T12:13:23Z</time>
      </trkpt>
      <trkpt lat="43.2017300" lon="-3.0511510">
        <ele>48.4</ele>
        <time>2022-01-16T12:13:24Z</time>
      </trkpt>
      <trkpt lat="43.2017990" lon="-3.0510930">
        <ele>48.4</ele>
        <time>2022-01-16T12:13:25Z</time>
      </trkpt>
      <trkpt lat="43.2018700" lon="-3.0510160">
        <ele>48.2</ele>
        <time>2022-01-16T12:13:26Z</time>
      </trkpt>
      <trkpt lat="43.2019360" lon="-3.0509320">
        <ele>48.2</ele>
        <time>2022-01-16T12:13:27Z</time>
      </trkpt>
      <trkpt lat="43.2020040" lon="-3.0508490">
        <ele>48.0</ele>
        <time>2022-01-16T12:13:28Z</time>
      </trkpt>
      <trkpt lat="43.2020680" lon="-3.0507690">
        <ele>47.6</ele>
        <time>2022-01-16T12:13:29Z</time>
      </trkpt>
      <trkpt lat="43.2021320" lon="-3.0506860">
        <ele>47.4</ele>
        <time>2022-01-16T12:13:30Z</time>
      </trkpt>
      <trkpt lat="43.2021960" lon="-3.0506050">
        <ele>47.4</ele>
        <time>2022-01-16T12:13:31Z</time>
      </trkpt>
      <trkpt lat="43.2022590" lon="-3.0505250">
        <ele>47.0</ele>
        <time>2022-01-16T12:13:32Z</time>
      </trkpt>
      <trkpt lat="43.2023220" lon="-3.0504430">
        <ele>46.8</ele>
        <time>2022-01-16T12:13:33Z</time>
      </trkpt>
      <trkpt lat="43.2023810" lon="-3.0503630">
        <ele>46.8</ele>
        <time>2022-01-16T12:13:34Z</time>
      </trkpt>
      <trkpt lat="43.2024380" lon="-3.0502850">
        <ele>46.6</ele>
        <time>2022-01-16T12:13:35Z</time>
      </trkpt>
      <trkpt lat="43.2024970" lon="-3.0502010">
        <ele>46.6</ele>
        <time>2022-01-16T12:13:36Z</time>
      </trkpt>
      <trkpt lat="43.2025460" lon="-3.0501110">
        <ele>46.4</ele>
        <time>2022-01-16T12:13:37Z</time>
      </trkpt>
      <trkpt lat="43.2025850" lon="-3.0500130">
        <ele>46.4</ele>
        <time>2022-01-16T12:13:38Z</time>
      </trkpt>
      <trkpt lat="43.2026200" lon="-3.0499130">
        <ele>46.4</ele>
        <time>2022-01-16T12:13:39Z</time>
      </trkpt>
      <trkpt lat="43.2026560" lon="-3.0498090">
        <ele>46.4</ele>
        <time>2022-01-16T12:13:40Z</time>
      </trkpt>
      <trkpt lat="43.2026940" lon="-3.0497020">
        <ele>46.4</ele>
        <time>2022-01-16T12:13:41Z</time>
      </trkpt>
      <trkpt lat="43.2027370" lon="-3.0496010">
        <ele>46.4</ele>
        <time>2022-01-16T12:13:42Z</time>
      </trkpt>
      <trkpt lat="43.2027850" lon="-3.0495060">
        <ele>46.4</ele>
        <time>2022-01-16T12:13:43Z</time>
      </trkpt>
      <trkpt lat="43.2028350" lon="-3.0494150">
        <ele>46.2</ele>
        <time>2022-01-16T12:13:44Z</time>
      </trkpt>
      <trkpt lat="43.2028910" lon="-3.0493260">
        <ele>46.2</ele>
        <time>2022-01-16T12:13:45Z</time>
      </trkpt>
      <trkpt lat="43.2029470" lon="-3.0492370">
        <ele>46.0</ele>
        <time>2022-01-16T12:13:46Z</time>
      </trkpt>
      <trkpt lat="43.2029980" lon="-3.0491530">
        <ele>46.0</ele>
        <time>2022-01-16T12:13:47Z</time>
      </trkpt>
      <trkpt lat="43.2030510" lon="-3.0490640">
        <ele>45.8</ele>
        <time>2022-01-16T12:13:48Z</time>
      </trkpt>
      <trkpt lat="43.2031060" lon="-3.0489750">
        <ele>45.8</ele>
        <time>2022-01-16T12:13:49Z</time>
      </trkpt>
      <trkpt lat="43.2031600" lon="-3.0488830">
        <ele>45.8</ele>
        <time>2022-01-16T12:13:50Z</time>
      </trkpt>
      <trkpt lat="43.2032130" lon="-3.0487910">
        <ele>45.8</ele>
        <time>2022-01-16T12:13:51Z</time>
      </trkpt>
      <trkpt lat="43.2032620" lon="-3.0486990">
        <ele>46.0</ele>
        <time>2022-01-16T12:13:52Z</time>
      </trkpt>
      <trkpt lat="43.2033150" lon="-3.0486080">
        <ele>46.0</ele>
        <time>2022-01-16T12:13:53Z</time>
      </trkpt>
      <trkpt lat="43.2033680" lon="-3.0485180">
        <ele>46.2</ele>
        <time>2022-01-16T12:13:54Z</time>
      </trkpt>
      <trkpt lat="43.2034200" lon="-3.0484300">
        <ele>46.2</ele>
        <time>2022-01-16T12:13:55Z</time>
      </trkpt>
      <trkpt lat="43.2034700" lon="-3.0483410">
        <ele>46.2</ele>
        <time>2022-01-16T12:13:56Z</time>
      </trkpt>
      <trkpt lat="43.2035230" lon="-3.0482510">
        <ele>46.4</ele>
        <time>2022-01-16T12:13:57Z</time>
      </trkpt>
      <trkpt lat="43.2035770" lon="-3.0481620">
        <ele>46.4</ele>
        <time>2022-01-16T12:13:58Z</time>
      </trkpt>
      <trkpt lat="43.2036340" lon="-3.0480710">
        <ele>46.4</ele>
        <time>2022-01-16T12:13:59Z</time>
      </trkpt>
      <trkpt lat="43.2036880" lon="-3.0479870">
        <ele>46.6</ele>
        <time>2022-01-16T12:14:00Z</time>
      </trkpt>
      <trkpt lat="43.2037460" lon="-3.0479060">
        <ele>46.6</ele>
        <time>2022-01-16T12:14:01Z</time>
      </trkpt>
      <trkpt lat="43.2038060" lon="-3.0478320">
        <ele>46.6</ele>
        <time>2022-01-16T12:14:02Z</time>
      </trkpt>
      <trkpt lat="43.2038680" lon="-3.0477640">
        <ele>46.6</ele>
        <time>2022-01-16T12:14:03Z</time>
      </trkpt>
      <trkpt lat="43.2039350" lon="-3.0477000">
        <ele>46.6</ele>
        <time>2022-01-16T12:14:04Z</time>
      </trkpt>
      <trkpt lat="43.2040060" lon="-3.0476430">
        <ele>46.6</ele>
        <time>2022-01-16T12:14:05Z</time>
      </trkpt>
      <trkpt lat="43.2040830" lon="-3.0475900">
        <ele>46.4</ele>
        <time>2022-01-16T12:14:06Z</time>
      </trkpt>
      <trkpt lat="43.2041680" lon="-3.0475390">
        <ele>46.0</ele>
        <time>2022-01-16T12:14:07Z</time>
      </trkpt>
      <trkpt lat="43.2042520" lon="-3.0474790">
        <ele>45.6</ele>
        <time>2022-01-16T12:14:08Z</time>
      </trkpt>
      <trkpt lat="43.2043370" lon="-3.0474170">
        <ele>45.2</ele>
        <time>2022-01-16T12:14:09Z</time>
      </trkpt>
      <trkpt lat="43.2044250" lon="-3.0473560">
        <ele>44.8</ele>
        <time>2022-01-16T12:14:10Z</time>
      </trkpt>
      <trkpt lat="43.2045120" lon="-3.0472960">
        <ele>44.4</ele>
        <time>2022-01-16T12:14:11Z</time>
      </trkpt>
      <trkpt lat="43.2045980" lon="-3.0472360">
        <ele>44.0</ele>
        <time>2022-01-16T12:14:12Z</time>
      </trkpt>
      <trkpt lat="43.2046840" lon="-3.0471780">
        <ele>43.6</ele>
        <time>2022-01-16T12:14:13Z</time>
      </trkpt>
      <trkpt lat="43.2047690" lon="-3.0471190">
        <ele>43.0</ele>
        <time>2022-01-16T12:14:14Z</time>
      </trkpt>
      <trkpt lat="43.2048530" lon="-3.0470610">
        <ele>42.8</ele>
        <time>2022-01-16T12:14:15Z</time>
      </trkpt>
      <trkpt lat="43.2049350" lon="-3.0470060">
        <ele>42.6</ele>
        <time>2022-01-16T12:14:16Z</time>
      </trkpt>
      <trkpt lat="43.2050180" lon="-3.0469530">
        <ele>42.4</ele>
        <time>2022-01-16T12:14:17Z</time>
      </trkpt>
      <trkpt lat="43.2050970" lon="-3.0469020">
        <ele>42.2</ele>
        <time>2022-01-16T12:14:18Z</time>
      </trkpt>
      <trkpt lat="43.2051700" lon="-3.0468500">
        <ele>42.2</ele>
        <time>2022-01-16T12:14:19Z</time>
      </trkpt>
      <trkpt lat="43.2052450" lon="-3.0468040">
        <ele>42.4</ele>
        <time>2022-01-16T12:14:20Z</time>
      </trkpt>
      <trkpt lat="43.2053170" lon="-3.0467530">
        <ele>42.6</ele>
        <time>2022-01-16T12:14:21Z</time>
      </trkpt>
      <trkpt lat="43.2053940" lon="-3.0467030">
        <ele>42.8</ele>
        <time>2022-01-16T12:14:22Z</time>
      </trkpt>
      <trkpt lat="43.2054610" lon="-3.0466540">
        <ele>43.0</ele>
        <time>2022-01-16T12:14:23Z</time>
      </trkpt>
      <trkpt lat="43.2055280" lon="-3.0466020">
        <ele>43.2</ele>
        <time>2022-01-16T12:14:24Z</time>
      </trkpt>
      <trkpt lat="43.2055940" lon="-3.0465510">
        <ele>43.4</ele>
        <time>2022-01-16T12:14:25Z</time>
      </trkpt>
      <trkpt lat="43.2056570" lon="-3.0465060">
        <ele>43.6</ele>
        <time>2022-01-16T12:14:26Z</time>
      </trkpt>
      <trkpt lat="43.2057270" lon="-3.0464630">
        <ele>43.8</ele>
        <time>2022-01-16T12:14:27Z</time>
      </trkpt>
      <trkpt lat="43.2057910" lon="-3.0464180">
        <ele>44.0</ele>
        <time>2022-01-16T12:14:28Z</time>
      </trkpt>
      <trkpt lat="43.2058570" lon="-3.0463730">
        <ele>44.2</ele>
        <time>2022-01-16T12:14:29Z</time>
      </trkpt>
      <trkpt lat="43.2059260" lon="-3.0463330">
        <ele>44.4</ele>
        <time>2022-01-16T12:14:30Z</time>
      </trkpt>
      <trkpt lat="43.2059930" lon="-3.0462910">
        <ele>44.6</ele>
        <time>2022-01-16T12:14:31Z</time>
      </trkpt>
      <trkpt lat="43.2060580" lon="-3.0462450">
        <ele>44.8</ele>
        <time>2022-01-16T12:14:32Z</time>
      </trkpt>
      <trkpt lat="43.2061200" lon="-3.0462000">
        <ele>45.0</ele>
        <time>2022-01-16T12:14:33Z</time>
      </trkpt>
      <trkpt lat="43.2061800" lon="-3.0461540">
        <ele>45.2</ele>
        <time>2022-01-16T12:14:34Z</time>
      </trkpt>
      <trkpt lat="43.2062370" lon="-3.0461060">
        <ele>45.4</ele>
        <time>2022-01-16T12:14:35Z</time>
      </trkpt>
      <trkpt lat="43.2062940" lon="-3.0460560">
        <ele>45.6</ele>
        <time>2022-01-16T12:14:36Z</time>
      </trkpt>
      <trkpt lat="43.2063510" lon="-3.0459920">
        <ele>45.8</ele>
        <time>2022-01-16T12:14:37Z</time>
      </trkpt>
      <trkpt lat="43.2064080" lon="-3.0459200">
        <ele>45.8</ele>
        <time>2022-01-16T12:14:38Z</time>
      </trkpt>
      <trkpt lat="43.2064680" lon="-3.0458410">
        <ele>45.8</ele>
        <time>2022-01-16T12:14:39Z</time>
      </trkpt>
      <trkpt lat="43.2065240" lon="-3.0457580">
        <ele>45.4</ele>
        <time>2022-01-16T12:14:40Z</time>
      </trkpt>
      <trkpt lat="43.2065860" lon="-3.0456730">
        <ele>45.2</ele>
        <time>2022-01-16T12:14:41Z</time>
      </trkpt>
      <trkpt lat="43.2066500" lon="-3.0455880">
        <ele>44.8</ele>
        <time>2022-01-16T12:14:42Z</time>
      </trkpt>
      <trkpt lat="43.2067170" lon="-3.0455070">
        <ele>44.4</ele>
        <time>2022-01-16T12:14:43Z</time>
      </trkpt>
      <trkpt lat="43.2067790" lon="-3.0454260">
        <ele>44.2</ele>
        <time>2022-01-16T12:14:44Z</time>
      </trkpt>
      <trkpt lat="43.2068470" lon="-3.0453480">
        <ele>43.8</ele>
        <time>2022-01-16T12:14:45Z</time>
      </trkpt>
      <trkpt lat="43.2069130" lon="-3.0452660">
        <ele>43.2</ele>
        <time>2022-01-16T12:14:46Z</time>
      </trkpt>
      <trkpt lat="43.2069760" lon="-3.0451820">
        <ele>42.8</ele>
        <time>2022-01-16T12:14:47Z</time>
      </trkpt>
      <trkpt lat="43.2070390" lon="-3.0450990">
        <ele>42.6</ele>
        <time>2022-01-16T12:14:48Z</time>
      </trkpt>
      <trkpt lat="43.2071040" lon="-3.0450120">
        <ele>42.4</ele>
        <time>2022-01-16T12:14:49Z</time>
      </trkpt>
      <trkpt lat="43.2071670" lon="-3.0449310">
        <ele>42.2</ele>
        <time>2022-01-16T12:14:50Z</time>
      </trkpt>
      <trkpt lat="43.2072360" lon="-3.0448420">
        <ele>42.0</ele>
        <time>2022-01-16T12:14:51Z</time>
      </trkpt>
      <trkpt lat="43.2073020" lon="-3.0447520">
        <ele>41.8</ele>
        <time>2022-01-16T12:14:52Z</time>
      </trkpt>
      <trkpt lat="43.2073680" lon="-3.0446640">
        <ele>41.8</ele>
        <time>2022-01-16T12:14:53Z</time>
      </trkpt>
      <trkpt lat="43.2074250" lon="-3.0445760">
        <ele>41.6</ele>
        <time>2022-01-16T12:14:54Z</time>
      </trkpt>
      <trkpt lat="43.2074810" lon="-3.0444830">
        <ele>41.6</ele>
        <time>2022-01-16T12:14:55Z</time>
      </trkpt>
      <trkpt lat="43.2075390" lon="-3.0443930">
        <ele>41.6</ele>
        <time>2022-01-16T12:14:56Z</time>
      </trkpt>
      <trkpt lat="43.2075940" lon="-3.0443030">
        <ele>41.6</ele>
        <time>2022-01-16T12:14:57Z</time>
      </trkpt>
      <trkpt lat="43.2076440" lon="-3.0442180">
        <ele>41.8</ele>
        <time>2022-01-16T12:14:58Z</time>
      </trkpt>
      <trkpt lat="43.2076940" lon="-3.0441320">
        <ele>42.0</ele>
        <time>2022-01-16T12:14:59Z</time>
      </trkpt>
      <trkpt lat="43.2077400" lon="-3.0440440">
        <ele>42.2</ele>
        <time>2022-01-16T12:15:00Z</time>
      </trkpt>
      <trkpt lat="43.2077860" lon="-3.0439520">
        <ele>42.2</ele>
        <time>2022-01-16T12:15:01Z</time>
      </trkpt>
      <trkpt lat="43.2078230" lon="-3.0438620">
        <ele>42.8</ele>
        <time>2022-01-16T12:15:02Z</time>
      </trkpt>
      <trkpt lat="43.2078550" lon="-3.0437740">
        <ele>43.4</ele>
        <time>2022-01-16T12:15:03Z</time>
      </trkpt>
      <trkpt lat="43.2078880" lon="-3.0436830">
        <ele>43.8</ele>
        <time>2022-01-16T12:15:04Z</time>
      </trkpt>
      <trkpt lat="43.2079160" lon="-3.0436000">
        <ele>44.2</ele>
        <time>2022-01-16T12:15:05Z</time>
      </trkpt>
      <trkpt lat="43.2079470" lon="-3.0435210">
        <ele>44.6</ele>
        <time>2022-01-16T12:15:06Z</time>
      </trkpt>
      <trkpt lat="43.2079750" lon="-3.0434470">
        <ele>45.2</ele>
        <time>2022-01-16T12:15:07Z</time>
      </trkpt>
      <trkpt lat="43.2080000" lon="-3.0433750">
        <ele>45.6</ele>
        <time>2022-01-16T12:15:08Z</time>
      </trkpt>
      <trkpt lat="43.2080250" lon="-3.0433030">
        <ele>46.2</ele>
        <time>2022-01-16T12:15:09Z</time>
      </trkpt>
      <trkpt lat="43.2080460" lon="-3.0432310">
        <ele>46.8</ele>
        <time>2022-01-16T12:15:10Z</time>
      </trkpt>
      <trkpt lat="43.2080590" lon="-3.0431610">
        <ele>47.2</ele>
        <time>2022-01-16T12:15:11Z</time>
      </trkpt>
      <trkpt lat="43.2080610" lon="-3.0431000">
        <ele>47.8</ele>
        <time>2022-01-16T12:15:12Z</time>
      </trkpt>
      <trkpt lat="43.2080590" lon="-3.0430480">
        <ele>48.2</ele>
        <time>2022-01-16T12:15:13Z</time>
      </trkpt>
      <trkpt lat="43.2080590" lon="-3.0429910">
        <ele>48.2</ele>
        <time>2022-01-16T12:15:14Z</time>
      </trkpt>
      <trkpt lat="43.2080720" lon="-3.0429260">
        <ele>48.4</ele>
        <time>2022-01-16T12:15:15Z</time>
      </trkpt>
      <trkpt lat="43.2080990" lon="-3.0428570">
        <ele>48.4</ele>
        <time>2022-01-16T12:15:16Z</time>
      </trkpt>
      <trkpt lat="43.2081430" lon="-3.0427860">
        <ele>48.0</ele>
        <time>2022-01-16T12:15:17Z</time>
      </trkpt>
      <trkpt lat="43.2082000" lon="-3.0427170">
        <ele>47.8</ele>
        <time>2022-01-16T12:15:18Z</time>
      </trkpt>
      <trkpt lat="43.2082600" lon="-3.0426460">
        <ele>47.2</ele>
        <time>2022-01-16T12:15:19Z</time>
      </trkpt>
      <trkpt lat="43.2083220" lon="-3.0425710">
        <ele>46.8</ele>
        <time>2022-01-16T12:15:20Z</time>
      </trkpt>
      <trkpt lat="43.2083860" lon="-3.0424910">
        <ele>46.2</ele>
        <time>2022-01-16T12:15:21Z</time>
      </trkpt>
      <trkpt lat="43.2084480" lon="-3.0424110">
        <ele>46.0</ele>
        <time>2022-01-16T12:15:22Z</time>
      </trkpt>
      <trkpt lat="43.2085130" lon="-3.0423320">
        <ele>45.6</ele>
        <time>2022-01-16T12:15:23Z</time>
      </trkpt>
      <trkpt lat="43.2085760" lon="-3.0422480">
        <ele>45.4</ele>
        <time>2022-01-16T12:15:24Z</time>
      </trkpt>
      <trkpt lat="43.2086420" lon="-3.0421610">
        <ele>45.0</ele>
        <time>2022-01-16T12:15:25Z</time>
      </trkpt>
      <trkpt lat="43.2087120" lon="-3.0420770">
        <ele>44.4</ele>
        <time>2022-01-16T12:15:26Z</time>
      </trkpt>
      <trkpt lat="43.2087840" lon="-3.0419910">
        <ele>44.0</ele>
        <time>2022-01-16T12:15:27Z</time>
      </trkpt>
      <trkpt lat="43.2088580" lon="-3.0419100">
        <ele>43.6</ele>
        <time>2022-01-16T12:15:28Z</time>
      </trkpt>
      <trkpt lat="43.2089330" lon="-3.0418250">
        <ele>43.4</ele>
        <time>2022-01-16T12:15:29Z</time>
      </trkpt>
      <trkpt lat="43.2090100" lon="-3.0417420">
        <ele>43.0</ele>
        <time>2022-01-16T12:15:30Z</time>
      </trkpt>
      <trkpt lat="43.2090880" lon="-3.0416650">
        <ele>42.6</ele>
        <time>2022-01-16T12:15:31Z</time>
      </trkpt>
      <trkpt lat="43.2091670" lon="-3.0415880">
        <ele>42.4</ele>
        <time>2022-01-16T12:15:32Z</time>
      </trkpt>
      <trkpt lat="43.2092480" lon="-3.0415110">
        <ele>42.2</ele>
        <time>2022-01-16T12:15:33Z</time>
      </trkpt>
      <trkpt lat="43.2093280" lon="-3.0414330">
        <ele>42.0</ele>
        <time>2022-01-16T12:15:34Z</time>
      </trkpt>
      <trkpt lat="43.2094060" lon="-3.0413590">
        <ele>41.6</ele>
        <time>2022-01-16T12:15:35Z</time>
      </trkpt>
      <trkpt lat="43.2094850" lon="-3.0412860">
        <ele>41.4</ele>
        <time>2022-01-16T12:15:36Z</time>
      </trkpt>
      <trkpt lat="43.2095600" lon="-3.0412150">
        <ele>41.2</ele>
        <time>2022-01-16T12:15:37Z</time>
      </trkpt>
      <trkpt lat="43.2096350" lon="-3.0411460">
        <ele>41.0</ele>
        <time>2022-01-16T12:15:38Z</time>
      </trkpt>
      <trkpt lat="43.2097110" lon="-3.0410800">
        <ele>40.8</ele>
        <time>2022-01-16T12:15:39Z</time>
      </trkpt>
      <trkpt lat="43.2097860" lon="-3.0410150">
        <ele>40.8</ele>
        <time>2022-01-16T12:15:40Z</time>
      </trkpt>
      <trkpt lat="43.2098580" lon="-3.0409550">
        <ele>40.8</ele>
        <time>2022-01-16T12:15:41Z</time>
      </trkpt>
      <trkpt lat="43.2099390" lon="-3.0408950">
        <ele>40.8</ele>
        <time>2022-01-16T12:15:42Z</time>
      </trkpt>
      <trkpt lat="43.2100150" lon="-3.0408280">
        <ele>40.8</ele>
        <time>2022-01-16T12:15:43Z</time>
      </trkpt>
      <trkpt lat="43.2100870" lon="-3.0407580">
        <ele>40.6</ele>
        <time>2022-01-16T12:15:44Z</time>
      </trkpt>
      <trkpt lat="43.2101600" lon="-3.0406820">
        <ele>40.2</ele>
        <time>2022-01-16T12:15:45Z</time>
      </trkpt>
      <trkpt lat="43.2102360" lon="-3.0406040">
        <ele>40.0</ele>
        <time>2022-01-16T12:15:46Z</time>
      </trkpt>
      <trkpt lat="43.2103120" lon="-3.0405260">
        <ele>39.8</ele>
        <time>2022-01-16T12:15:47Z</time>
      </trkpt>
      <trkpt lat="43.2103870" lon="-3.0404470">
        <ele>39.6</ele>
        <time>2022-01-16T12:15:48Z</time>
      </trkpt>
      <trkpt lat="43.2104600" lon="-3.0403700">
        <ele>39.6</ele>
        <time>2022-01-16T12:15:49Z</time>
      </trkpt>
      <trkpt lat="43.2105360" lon="-3.0402910">
        <ele>39.6</ele>
        <time>2022-01-16T12:15:50Z</time>
      </trkpt>
      <trkpt lat="43.2106140" lon="-3.0402090">
        <ele>39.6</ele>
        <time>2022-01-16T12:15:51Z</time>
      </trkpt>
      <trkpt lat="43.2106870" lon="-3.0401320">
        <ele>39.4</ele>
        <time>2022-01-16T12:15:52Z</time>
      </trkpt>
      <trkpt lat="43.2107610" lon="-3.0400560">
        <ele>39.2</ele>
        <time>2022-01-16T12:15:53Z</time>
      </trkpt>
      <trkpt lat="43.2108340" lon="-3.0399800">
        <ele>39.2</ele>
        <time>2022-01-16T12:15:54Z</time>
      </trkpt>
      <trkpt lat="43.2109060" lon="-3.0399070">
        <ele>39.0</ele>
        <time>2022-01-16T12:15:55Z</time>
      </trkpt>
      <trkpt lat="43.2109770" lon="-3.0398310">
        <ele>38.8</ele>
        <time>2022-01-16T12:15:56Z</time>
      </trkpt>
      <trkpt lat="43.2110470" lon="-3.0397540">
        <ele>39.0</ele>
        <time>2022-01-16T12:15:57Z</time>
      </trkpt>
      <trkpt lat="43.2111140" lon="-3.0396780">
        <ele>39.0</ele>
        <time>2022-01-16T12:15:58Z</time>
      </trkpt>
      <trkpt lat="43.2111800" lon="-3.0396010">
        <ele>39.0</ele>
        <time>2022-01-16T12:15:59Z</time>
      </trkpt>
      <trkpt lat="43.2112470" lon="-3.0395220">
        <ele>39.0</ele>
        <time>2022-01-16T12:16:00Z</time>
      </trkpt>
      <trkpt lat="43.2113120" lon="-3.0394460">
        <ele>39.2</ele>
        <time>2022-01-16T12:16:01Z</time>
      </trkpt>
      <trkpt lat="43.2113790" lon="-3.0393700">
        <ele>39.2</ele>
        <time>2022-01-16T12:16:02Z</time>
      </trkpt>
      <trkpt lat="43.2114450" lon="-3.0392960">
        <ele>39.2</ele>
        <time>2022-01-16T12:16:03Z</time>
      </trkpt>
      <trkpt lat="43.2115110" lon="-3.0392210">
        <ele>39.2</ele>
        <time>2022-01-16T12:16:04Z</time>
      </trkpt>
      <trkpt lat="43.2115760" lon="-3.0391480">
        <ele>39.2</ele>
        <time>2022-01-16T12:16:05Z</time>
      </trkpt>
      <trkpt lat="43.2116400" lon="-3.0390750">
        <ele>39.4</ele>
        <time>2022-01-16T12:16:06Z</time>
      </trkpt>
      <trkpt lat="43.2117050" lon="-3.0390020">
        <ele>39.6</ele>
        <time>2022-01-16T12:16:07Z</time>
      </trkpt>
      <trkpt lat="43.2117680" lon="-3.0389330">
        <ele>39.6</ele>
        <time>2022-01-16T12:16:08Z</time>
      </trkpt>
      <trkpt lat="43.2118360" lon="-3.0388650">
        <ele>39.8</ele>
        <time>2022-01-16T12:16:09Z</time>
      </trkpt>
      <trkpt lat="43.2119050" lon="-3.0388010">
        <ele>39.8</ele>
        <time>2022-01-16T12:16:10Z</time>
      </trkpt>
      <trkpt lat="43.2119750" lon="-3.0387370">
        <ele>39.8</ele>
        <time>2022-01-16T12:16:11Z</time>
      </trkpt>
      <trkpt lat="43.2120490" lon="-3.0386710">
        <ele>39.8</ele>
        <time>2022-01-16T12:16:12Z</time>
      </trkpt>
      <trkpt lat="43.2121240" lon="-3.0386100">
        <ele>39.6</ele>
        <time>2022-01-16T12:16:13Z</time>
      </trkpt>
      <trkpt lat="43.2122010" lon="-3.0385500">
        <ele>39.4</ele>
        <time>2022-01-16T12:16:14Z</time>
      </trkpt>
      <trkpt lat="43.2122740" lon="-3.0384950">
        <ele>39.4</ele>
        <time>2022-01-16T12:16:15Z</time>
      </trkpt>
      <trkpt lat="43.2123530" lon="-3.0384500">
        <ele>39.2</ele>
        <time>2022-01-16T12:16:16Z</time>
      </trkpt>
      <trkpt lat="43.2124300" lon="-3.0384100">
        <ele>39.2</ele>
        <time>2022-01-16T12:16:17Z</time>
      </trkpt>
      <trkpt lat="43.2125090" lon="-3.0383730">
        <ele>39.0</ele>
        <time>2022-01-16T12:16:18Z</time>
      </trkpt>
      <trkpt lat="43.2125870" lon="-3.0383390">
        <ele>38.8</ele>
        <time>2022-01-16T12:16:19Z</time>
      </trkpt>
      <trkpt lat="43.2126680" lon="-3.0383030">
        <ele>38.8</ele>
        <time>2022-01-16T12:16:20Z</time>
      </trkpt>
      <trkpt lat="43.2127520" lon="-3.0382700">
        <ele>38.8</ele>
        <time>2022-01-16T12:16:21Z</time>
      </trkpt>
      <trkpt lat="43.2128330" lon="-3.0382340">
        <ele>38.8</ele>
        <time>2022-01-16T12:16:22Z</time>
      </trkpt>
      <trkpt lat="43.2129170" lon="-3.0381990">
        <ele>39.0</ele>
        <time>2022-01-16T12:16:23Z</time>
      </trkpt>
      <trkpt lat="43.2130030" lon="-3.0381660">
        <ele>39.0</ele>
        <time>2022-01-16T12:16:24Z</time>
      </trkpt>
      <trkpt lat="43.2130850" lon="-3.0381320">
        <ele>38.8</ele>
        <time>2022-01-16T12:16:25Z</time>
      </trkpt>
      <trkpt lat="43.2131700" lon="-3.0380930">
        <ele>38.4</ele>
        <time>2022-01-16T12:16:26Z</time>
      </trkpt>
      <trkpt lat="43.2132520" lon="-3.0380510">
        <ele>38.4</ele>
        <time>2022-01-16T12:16:27Z</time>
      </trkpt>
      <trkpt lat="43.2133360" lon="-3.0380030">
        <ele>38.0</ele>
        <time>2022-01-16T12:16:28Z</time>
      </trkpt>
      <trkpt lat="43.2134180" lon="-3.0379480">
        <ele>38.0</ele>
        <time>2022-01-16T12:16:29Z</time>
      </trkpt>
      <trkpt lat="43.2134970" lon="-3.0378870">
        <ele>38.0</ele>
        <time>2022-01-16T12:16:30Z</time>
      </trkpt>
      <trkpt lat="43.2135740" lon="-3.0378200">
        <ele>38.0</ele>
        <time>2022-01-16T12:16:31Z</time>
      </trkpt>
      <trkpt lat="43.2136470" lon="-3.0377480">
        <ele>38.0</ele>
        <time>2022-01-16T12:16:32Z</time>
      </trkpt>
      <trkpt lat="43.2137170" lon="-3.0376700">
        <ele>38.2</ele>
        <time>2022-01-16T12:16:33Z</time>
      </trkpt>
      <trkpt lat="43.2137850" lon="-3.0375900">
        <ele>38.4</ele>
        <time>2022-01-16T12:16:34Z</time>
      </trkpt>
      <trkpt lat="43.2138520" lon="-3.0375050">
        <ele>38.6</ele>
        <time>2022-01-16T12:16:35Z</time>
      </trkpt>
      <trkpt lat="43.2139180" lon="-3.0374200">
        <ele>38.6</ele>
        <time>2022-01-16T12:16:36Z</time>
      </trkpt>
      <trkpt lat="43.2139810" lon="-3.0373370">
        <ele>38.6</ele>
        <time>2022-01-16T12:16:37Z</time>
      </trkpt>
      <trkpt lat="43.2140450" lon="-3.0372540">
        <ele>38.6</ele>
        <time>2022-01-16T12:16:38Z</time>
      </trkpt>
      <trkpt lat="43.2141070" lon="-3.0371720">
        <ele>38.6</ele>
        <time>2022-01-16T12:16:39Z</time>
      </trkpt>
      <trkpt lat="43.2141690" lon="-3.0370890">
        <ele>38.4</ele>
        <time>2022-01-16T12:16:40Z</time>
      </trkpt>
      <trkpt lat="43.2142320" lon="-3.0370070">
        <ele>38.4</ele>
        <time>2022-01-16T12:16:41Z</time>
      </trkpt>
      <trkpt lat="43.2142930" lon="-3.0369260">
        <ele>38.6</ele>
        <time>2022-01-16T12:16:42Z</time>
      </trkpt>
      <trkpt lat="43.2143560" lon="-3.0368490">
        <ele>39.0</ele>
        <time>2022-01-16T12:16:43Z</time>
      </trkpt>
      <trkpt lat="43.2144230" lon="-3.0367730">
        <ele>39.4</ele>
        <time>2022-01-16T12:16:44Z</time>
      </trkpt>
      <trkpt lat="43.2144910" lon="-3.0367010">
        <ele>39.6</ele>
        <time>2022-01-16T12:16:45Z</time>
      </trkpt>
      <trkpt lat="43.2145610" lon="-3.0366300">
        <ele>39.8</ele>
        <time>2022-01-16T12:16:46Z</time>
      </trkpt>
      <trkpt lat="43.2146320" lon="-3.0365610">
        <ele>39.8</ele>
        <time>2022-01-16T12:16:47Z</time>
      </trkpt>
      <trkpt lat="43.2147000" lon="-3.0364940">
        <ele>40.0</ele>
        <time>2022-01-16T12:16:48Z</time>
      </trkpt>
      <trkpt lat="43.2147680" lon="-3.0364270">
        <ele>40.0</ele>
        <time>2022-01-16T12:16:49Z</time>
      </trkpt>
      <trkpt lat="43.2148360" lon="-3.0363620">
        <ele>40.0</ele>
        <time>2022-01-16T12:16:50Z</time>
      </trkpt>
      <trkpt lat="43.2149040" lon="-3.0362970">
        <ele>40.2</ele>
        <time>2022-01-16T12:16:51Z</time>
      </trkpt>
      <trkpt lat="43.2149720" lon="-3.0362320">
        <ele>40.2</ele>
        <time>2022-01-16T12:16:52Z</time>
      </trkpt>
      <trkpt lat="43.2150410" lon="-3.0361670">
        <ele>40.2</ele>
        <time>2022-01-16T12:16:53Z</time>
      </trkpt>
      <trkpt lat="43.2151100" lon="-3.0361020">
        <ele>40.6</ele>
        <time>2022-01-16T12:16:54Z</time>
      </trkpt>
      <trkpt lat="43.2151790" lon="-3.0360340">
        <ele>40.6</ele>
        <time>2022-01-16T12:16:55Z</time>
      </trkpt>
      <trkpt lat="43.2152480" lon="-3.0359650">
        <ele>40.6</ele>
        <time>2022-01-16T12:16:56Z</time>
      </trkpt>
      <trkpt lat="43.2153170" lon="-3.0358960">
        <ele>40.6</ele>
        <time>2022-01-16T12:16:57Z</time>
      </trkpt>
      <trkpt lat="43.2153860" lon="-3.0358280">
        <ele>40.8</ele>
        <time>2022-01-16T12:16:58Z</time>
      </trkpt>
      <trkpt lat="43.2154560" lon="-3.0357600">
        <ele>40.8</ele>
        <time>2022-01-16T12:16:59Z</time>
      </trkpt>
      <trkpt lat="43.2155270" lon="-3.0356920">
        <ele>40.8</ele>
        <time>2022-01-16T12:17:00Z</time>
      </trkpt>
      <trkpt lat="43.2155990" lon="-3.0356240">
        <ele>40.8</ele>
        <time>2022-01-16T12:17:01Z</time>
      </trkpt>
      <trkpt lat="43.2156690" lon="-3.0355560">
        <ele>41.0</ele>
        <time>2022-01-16T12:17:02Z</time>
      </trkpt>
      <trkpt lat="43.2157370" lon="-3.0354870">
        <ele>41.0</ele>
        <time>2022-01-16T12:17:03Z</time>
      </trkpt>
      <trkpt lat="43.2158040" lon="-3.0354170">
        <ele>41.0</ele>
        <time>2022-01-16T12:17:04Z</time>
      </trkpt>
      <trkpt lat="43.2158740" lon="-3.0353510">
        <ele>41.0</ele>
        <time>2022-01-16T12:17:05Z</time>
      </trkpt>
      <trkpt lat="43.2159430" lon="-3.0352840">
        <ele>41.0</ele>
        <time>2022-01-16T12:17:06Z</time>
      </trkpt>
      <trkpt lat="43.2160090" lon="-3.0352140">
        <ele>41.0</ele>
        <time>2022-01-16T12:17:07Z</time>
      </trkpt>
      <trkpt lat="43.2160760" lon="-3.0351450">
        <ele>41.0</ele>
        <time>2022-01-16T12:17:08Z</time>
      </trkpt>
      <trkpt lat="43.2161480" lon="-3.0350770">
        <ele>41.0</ele>
        <time>2022-01-16T12:17:09Z</time>
      </trkpt>
      <trkpt lat="43.2162140" lon="-3.0350050">
        <ele>41.0</ele>
        <time>2022-01-16T12:17:10Z</time>
      </trkpt>
      <trkpt lat="43.2162810" lon="-3.0349280">
        <ele>41.0</ele>
        <time>2022-01-16T12:17:11Z</time>
      </trkpt>
      <trkpt lat="43.2163450" lon="-3.0348490">
        <ele>41.0</ele>
        <time>2022-01-16T12:17:12Z</time>
      </trkpt>
      <trkpt lat="43.2164060" lon="-3.0347670">
        <ele>41.2</ele>
        <time>2022-01-16T12:17:13Z</time>
      </trkpt>
      <trkpt lat="43.2164670" lon="-3.0346840">
        <ele>41.2</ele>
        <time>2022-01-16T12:17:14Z</time>
      </trkpt>
      <trkpt lat="43.2165250" lon="-3.0346000">
        <ele>41.2</ele>
        <time>2022-01-16T12:17:15Z</time>
      </trkpt>
      <trkpt lat="43.2165800" lon="-3.0345130">
        <ele>41.2</ele>
        <time>2022-01-16T12:17:16Z</time>
      </trkpt>
      <trkpt lat="43.2166310" lon="-3.0344290">
        <ele>41.2</ele>
        <time>2022-01-16T12:17:17Z</time>
      </trkpt>
      <trkpt lat="43.2166850" lon="-3.0343420">
        <ele>41.2</ele>
        <time>2022-01-16T12:17:18Z</time>
      </trkpt>
      <trkpt lat="43.2167360" lon="-3.0342540">
        <ele>41.2</ele>
        <time>2022-01-16T12:17:19Z</time>
      </trkpt>
      <trkpt lat="43.2167820" lon="-3.0341670">
        <ele>41.2</ele>
        <time>2022-01-16T12:17:20Z</time>
      </trkpt>
      <trkpt lat="43.2168230" lon="-3.0340740">
        <ele>41.2</ele>
        <time>2022-01-16T12:17:21Z</time>
      </trkpt>
      <trkpt lat="43.2168610" lon="-3.0339760">
        <ele>41.2</ele>
        <time>2022-01-16T12:17:22Z</time>
      </trkpt>
      <trkpt lat="43.2168970" lon="-3.0338710">
        <ele>41.2</ele>
        <time>2022-01-16T12:17:23Z</time>
      </trkpt>
      <trkpt lat="43.2169300" lon="-3.0337630">
        <ele>41.2</ele>
        <time>2022-01-16T12:17:24Z</time>
      </trkpt>
      <trkpt lat="43.2169630" lon="-3.0336510">
        <ele>41.2</ele>
        <time>2022-01-16T12:17:25Z</time>
      </trkpt>
      <trkpt lat="43.2169930" lon="-3.0335400">
        <ele>41.2</ele>
        <time>2022-01-16T12:17:26Z</time>
      </trkpt>
      <trkpt lat="43.2170220" lon="-3.0334300">
        <ele>41.2</ele>
        <time>2022-01-16T12:17:27Z</time>
      </trkpt>
      <trkpt lat="43.2170460" lon="-3.0333200">
        <ele>41.4</ele>
        <time>2022-01-16T12:17:28Z</time>
      </trkpt>
      <trkpt lat="43.2170660" lon="-3.0332130">
        <ele>41.6</ele>
        <time>2022-01-16T12:17:29Z</time>
      </trkpt>
      <trkpt lat="43.2170790" lon="-3.0331040">
        <ele>42.0</ele>
        <time>2022-01-16T12:17:30Z</time>
      </trkpt>
      <trkpt lat="43.2170900" lon="-3.0329990">
        <ele>42.4</ele>
        <time>2022-01-16T12:17:31Z</time>
      </trkpt>
      <trkpt lat="43.2171020" lon="-3.0328980">
        <ele>42.6</ele>
        <time>2022-01-16T12:17:32Z</time>
      </trkpt>
      <trkpt lat="43.2171130" lon="-3.0328030">
        <ele>43.0</ele>
        <time>2022-01-16T12:17:33Z</time>
      </trkpt>
      <trkpt lat="43.2171240" lon="-3.0327070">
        <ele>43.4</ele>
        <time>2022-01-16T12:17:34Z</time>
      </trkpt>
      <trkpt lat="43.2171330" lon="-3.0326190">
        <ele>44.2</ele>
        <time>2022-01-16T12:17:35Z</time>
      </trkpt>
      <trkpt lat="43.2171430" lon="-3.0325340">
        <ele>44.6</ele>
        <time>2022-01-16T12:17:36Z</time>
      </trkpt>
      <trkpt lat="43.2171520" lon="-3.0324540">
        <ele>45.0</ele>
        <time>2022-01-16T12:17:37Z</time>
      </trkpt>
      <trkpt lat="43.2171650" lon="-3.0323770">
        <ele>45.4</ele>
        <time>2022-01-16T12:17:38Z</time>
      </trkpt>
      <trkpt lat="43.2171780" lon="-3.0323020">
        <ele>45.8</ele>
        <time>2022-01-16T12:17:39Z</time>
      </trkpt>
      <trkpt lat="43.2171910" lon="-3.0322260">
        <ele>46.2</ele>
        <time>2022-01-16T12:17:40Z</time>
      </trkpt>
      <trkpt lat="43.2172030" lon="-3.0321500">
        <ele>46.8</ele>
        <time>2022-01-16T12:17:41Z</time>
      </trkpt>
      <trkpt lat="43.2172150" lon="-3.0320750">
        <ele>47.4</ele>
        <time>2022-01-16T12:17:42Z</time>
      </trkpt>
      <trkpt lat="43.2172280" lon="-3.0320020">
        <ele>47.6</ele>
        <time>2022-01-16T12:17:43Z</time>
      </trkpt>
      <trkpt lat="43.2172410" lon="-3.0319280">
        <ele>48.0</ele>
        <time>2022-01-16T12:17:44Z</time>
      </trkpt>
      <trkpt lat="43.2172490" lon="-3.0318620">
        <ele>48.6</ele>
        <time>2022-01-16T12:17:45Z</time>
      </trkpt>
      <trkpt lat="43.2172560" lon="-3.0317930">
        <ele>49.2</ele>
        <time>2022-01-16T12:17:46Z</time>
      </trkpt>
      <trkpt lat="43.2172620" lon="-3.0317220">
        <ele>49.8</ele>
        <time>2022-01-16T12:17:47Z</time>
      </trkpt>
      <trkpt lat="43.2172660" lon="-3.0316510">
        <ele>50.2</ele>
        <time>2022-01-16T12:17:48Z</time>
      </trkpt>
      <trkpt lat="43.2172680" lon="-3.0315800">
        <ele>50.6</ele>
        <time>2022-01-16T12:17:49Z</time>
      </trkpt>
      <trkpt lat="43.2172670" lon="-3.0315100">
        <ele>51.0</ele>
        <time>2022-01-16T12:17:50Z</time>
      </trkpt>
      <trkpt lat="43.2172600" lon="-3.0314400">
        <ele>51.6</ele>
        <time>2022-01-16T12:17:51Z</time>
      </trkpt>
      <trkpt lat="43.2172500" lon="-3.0313720">
        <ele>52.0</ele>
        <time>2022-01-16T12:17:52Z</time>
      </trkpt>
      <trkpt lat="43.2172350" lon="-3.0313060">
        <ele>52.6</ele>
        <time>2022-01-16T12:17:53Z</time>
      </trkpt>
      <trkpt lat="43.2172160" lon="-3.0312430">
        <ele>53.2</ele>
        <time>2022-01-16T12:17:54Z</time>
      </trkpt>
      <trkpt lat="43.2171970" lon="-3.0311810">
        <ele>53.6</ele>
        <time>2022-01-16T12:17:55Z</time>
      </trkpt>
      <trkpt lat="43.2171780" lon="-3.0311210">
        <ele>54.0</ele>
        <time>2022-01-16T12:17:56Z</time>
      </trkpt>
      <trkpt lat="43.2171580" lon="-3.0310630">
        <ele>54.8</ele>
        <time>2022-01-16T12:17:57Z</time>
      </trkpt>
      <trkpt lat="43.2171400" lon="-3.0310050">
        <ele>55.2</ele>
        <time>2022-01-16T12:17:58Z</time>
      </trkpt>
      <trkpt lat="43.2171230" lon="-3.0309480">
        <ele>55.8</ele>
        <time>2022-01-16T12:17:59Z</time>
      </trkpt>
      <trkpt lat="43.2171050" lon="-3.0308880">
        <ele>56.6</ele>
        <time>2022-01-16T12:18:00Z</time>
      </trkpt>
      <trkpt lat="43.2171030" lon="-3.0308130">
        <ele>57.2</ele>
        <time>2022-01-16T12:18:01Z</time>
      </trkpt>
      <trkpt lat="43.2170920" lon="-3.0307520">
        <ele>57.8</ele>
        <time>2022-01-16T12:18:02Z</time>
      </trkpt>
      <trkpt lat="43.2170860" lon="-3.0306870">
        <ele>58.2</ele>
        <time>2022-01-16T12:18:03Z</time>
      </trkpt>
      <trkpt lat="43.2170820" lon="-3.0306220">
        <ele>58.6</ele>
        <time>2022-01-16T12:18:04Z</time>
      </trkpt>
      <trkpt lat="43.2170830" lon="-3.0305550">
        <ele>59.0</ele>
        <time>2022-01-16T12:18:05Z</time>
      </trkpt>
      <trkpt lat="43.2170880" lon="-3.0304880">
        <ele>59.2</ele>
        <time>2022-01-16T12:18:06Z</time>
      </trkpt>
      <trkpt lat="43.2170980" lon="-3.0304210">
        <ele>59.6</ele>
        <time>2022-01-16T12:18:07Z</time>
      </trkpt>
      <trkpt lat="43.2171120" lon="-3.0303540">
        <ele>60.6</ele>
        <time>2022-01-16T12:18:08Z</time>
      </trkpt>
      <trkpt lat="43.2171270" lon="-3.0302900">
        <ele>61.2</ele>
        <time>2022-01-16T12:18:09Z</time>
      </trkpt>
      <trkpt lat="43.2171470" lon="-3.0302260">
        <ele>61.6</ele>
        <time>2022-01-16T12:18:10Z</time>
      </trkpt>
      <trkpt lat="43.2171700" lon="-3.0301630">
        <ele>62.0</ele>
        <time>2022-01-16T12:18:11Z</time>
      </trkpt>
      <trkpt lat="43.2171970" lon="-3.0301030">
        <ele>62.4</ele>
        <time>2022-01-16T12:18:12Z</time>
      </trkpt>
      <trkpt lat="43.2172290" lon="-3.0300460">
        <ele>62.6</ele>
        <time>2022-01-16T12:18:13Z</time>
      </trkpt>
      <trkpt lat="43.2172630" lon="-3.0299910">
        <ele>63.2</ele>
        <time>2022-01-16T12:18:14Z</time>
      </trkpt>
      <trkpt lat="43.2172980" lon="-3.0299380">
        <ele>63.6</ele>
        <time>2022-01-16T12:18:15Z</time>
      </trkpt>
      <trkpt lat="43.2173330" lon="-3.0298850">
        <ele>63.8</ele>
        <time>2022-01-16T12:18:16Z</time>
      </trkpt>
      <trkpt lat="43.2173680" lon="-3.0298270">
        <ele>64.0</ele>
        <time>2022-01-16T12:18:17Z</time>
      </trkpt>
      <trkpt lat="43.2174040" lon="-3.0297680">
        <ele>64.2</ele>
        <time>2022-01-16T12:18:18Z</time>
      </trkpt>
      <trkpt lat="43.2174440" lon="-3.0297090">
        <ele>64.2</ele>
        <time>2022-01-16T12:18:19Z</time>
      </trkpt>
      <trkpt lat="43.2174890" lon="-3.0296480">
        <ele>64.0</ele>
        <time>2022-01-16T12:18:20Z</time>
      </trkpt>
      <trkpt lat="43.2175360" lon="-3.0295800">
        <ele>63.8</ele>
        <time>2022-01-16T12:18:21Z</time>
      </trkpt>
      <trkpt lat="43.2175850" lon="-3.0295090">
        <ele>63.6</ele>
        <time>2022-01-16T12:18:22Z</time>
      </trkpt>
      <trkpt lat="43.2176370" lon="-3.0294340">
        <ele>63.2</ele>
        <time>2022-01-16T12:18:23Z</time>
      </trkpt>
      <trkpt lat="43.2176920" lon="-3.0293530">
        <ele>62.8</ele>
        <time>2022-01-16T12:18:24Z</time>
      </trkpt>
      <trkpt lat="43.2177460" lon="-3.0292720">
        <ele>62.2</ele>
        <time>2022-01-16T12:18:25Z</time>
      </trkpt>
      <trkpt lat="43.2178090" lon="-3.0291770">
        <ele>61.2</ele>
        <time>2022-01-16T12:18:26Z</time>
      </trkpt>
      <trkpt lat="43.2178730" lon="-3.0290840">
        <ele>60.8</ele>
        <time>2022-01-16T12:18:27Z</time>
      </trkpt>
      <trkpt lat="43.2179390" lon="-3.0289880">
        <ele>60.0</ele>
        <time>2022-01-16T12:18:28Z</time>
      </trkpt>
      <trkpt lat="43.2180050" lon="-3.0288890">
        <ele>59.2</ele>
        <time>2022-01-16T12:18:29Z</time>
      </trkpt>
      <trkpt lat="43.2180720" lon="-3.0287890">
        <ele>58.8</ele>
        <time>2022-01-16T12:18:30Z</time>
      </trkpt>
      <trkpt lat="43.2181400" lon="-3.0286880">
        <ele>58.6</ele>
        <time>2022-01-16T12:18:31Z</time>
      </trkpt>
      <trkpt lat="43.2182070" lon="-3.0285870">
        <ele>58.2</ele>
        <time>2022-01-16T12:18:32Z</time>
      </trkpt>
      <trkpt lat="43.2182750" lon="-3.0284850">
        <ele>57.8</ele>
        <time>2022-01-16T12:18:33Z</time>
      </trkpt>
      <trkpt lat="43.2183430" lon="-3.0283840">
        <ele>57.6</ele>
        <time>2022-01-16T12:18:34Z</time>
      </trkpt>
      <trkpt lat="43.2184110" lon="-3.0282830">
        <ele>57.2</ele>
        <time>2022-01-16T12:18:35Z</time>
      </trkpt>
      <trkpt lat="43.2184780" lon="-3.0281820">
        <ele>57.0</ele>
        <time>2022-01-16T12:18:36Z</time>
      </trkpt>
      <trkpt lat="43.2185420" lon="-3.0280810">
        <ele>56.8</ele>
        <time>2022-01-16T12:18:37Z</time>
      </trkpt>
      <trkpt lat="43.2186090" lon="-3.0279800">
        <ele>56.4</ele>
        <time>2022-01-16T12:18:38Z</time>
      </trkpt>
      <trkpt lat="43.2186770" lon="-3.0278770">
        <ele>56.0</ele>
        <time>2022-01-16T12:18:39Z</time>
      </trkpt>
      <trkpt lat="43.2187450" lon="-3.0277710">
        <ele>55.6</ele>
        <time>2022-01-16T12:18:40Z</time>
      </trkpt>
      <trkpt lat="43.2188130" lon="-3.0276640">
        <ele>55.0</ele>
        <time>2022-01-16T12:18:41Z</time>
      </trkpt>
      <trkpt lat="43.2188840" lon="-3.0275570">
        <ele>54.4</ele>
        <time>2022-01-16T12:18:42Z</time>
      </trkpt>
      <trkpt lat="43.2189690" lon="-3.0274550">
        <ele>54.0</ele>
        <time>2022-01-16T12:18:43Z</time>
      </trkpt>
      <trkpt lat="43.2190580" lon="-3.0273550">
        <ele>53.2</ele>
        <time>2022-01-16T12:18:44Z</time>
      </trkpt>
      <trkpt lat="43.2191480" lon="-3.0272540">
        <ele>52.8</ele>
        <time>2022-01-16T12:18:45Z</time>
      </trkpt>
      <trkpt lat="43.2192450" lon="-3.0271600">
        <ele>51.8</ele>
        <time>2022-01-16T12:18:46Z</time>
      </trkpt>
      <trkpt lat="43.2193470" lon="-3.0270780">
        <ele>51.0</ele>
        <time>2022-01-16T12:18:47Z</time>
      </trkpt>
      <trkpt lat="43.2194600" lon="-3.0270090">
        <ele>50.2</ele>
        <time>2022-01-16T12:18:48Z</time>
      </trkpt>
      <trkpt lat="43.2195790" lon="-3.0269510">
        <ele>49.0</ele>
        <time>2022-01-16T12:18:49Z</time>
      </trkpt>
      <trkpt lat="43.2197050" lon="-3.0268970">
        <ele>48.2</ele>
        <time>2022-01-16T12:18:50Z</time>
      </trkpt>
      <trkpt lat="43.2198310" lon="-3.0268400">
        <ele>46.8</ele>
        <time>2022-01-16T12:18:51Z</time>
      </trkpt>
      <trkpt lat="43.2199560" lon="-3.0267840">
        <ele>45.6</ele>
        <time>2022-01-16T12:18:52Z</time>
      </trkpt>
      <trkpt lat="43.2200840" lon="-3.0267280">
        <ele>43.8</ele>
        <time>2022-01-16T12:18:53Z</time>
      </trkpt>
      <trkpt lat="43.2202140" lon="-3.0266680">
        <ele>42.8</ele>
        <time>2022-01-16T12:18:54Z</time>
      </trkpt>
      <trkpt lat="43.2203390" lon="-3.0266140">
        <ele>42.0</ele>
        <time>2022-01-16T12:18:55Z</time>
      </trkpt>
      <trkpt lat="43.2204660" lon="-3.0265610">
        <ele>40.8</ele>
        <time>2022-01-16T12:18:56Z</time>
      </trkpt>
      <trkpt lat="43.2205890" lon="-3.0265090">
        <ele>40.0</ele>
        <time>2022-01-16T12:18:57Z</time>
      </trkpt>
      <trkpt lat="43.2207100" lon="-3.0264570">
        <ele>39.4</ele>
        <time>2022-01-16T12:18:58Z</time>
      </trkpt>
      <trkpt lat="43.2208300" lon="-3.0264030">
        <ele>38.6</ele>
        <time>2022-01-16T12:18:59Z</time>
      </trkpt>
      <trkpt lat="43.2209500" lon="-3.0263520">
        <ele>38.2</ele>
        <time>2022-01-16T12:19:00Z</time>
      </trkpt>
      <trkpt lat="43.2210650" lon="-3.0262960">
        <ele>37.8</ele>
        <time>2022-01-16T12:19:01Z</time>
      </trkpt>
      <trkpt lat="43.2211740" lon="-3.0262340">
        <ele>37.6</ele>
        <time>2022-01-16T12:19:02Z</time>
      </trkpt>
      <trkpt lat="43.2212790" lon="-3.0261670">
        <ele>37.6</ele>
        <time>2022-01-16T12:19:03Z</time>
      </trkpt>
      <trkpt lat="43.2213750" lon="-3.0260950">
        <ele>37.6</ele>
        <time>2022-01-16T12:19:04Z</time>
      </trkpt>
      <trkpt lat="43.2214710" lon="-3.0260280">
        <ele>37.8</ele>
        <time>2022-01-16T12:19:05Z</time>
      </trkpt>
      <trkpt lat="43.2215620" lon="-3.0259610">
        <ele>38.0</ele>
        <time>2022-01-16T12:19:06Z</time>
      </trkpt>
      <trkpt lat="43.2216560" lon="-3.0258970">
        <ele>38.2</ele>
        <time>2022-01-16T12:19:07Z</time>
      </trkpt>
      <trkpt lat="43.2217440" lon="-3.0258290">
        <ele>38.2</ele>
        <time>2022-01-16T12:19:08Z</time>
      </trkpt>
      <trkpt lat="43.2218300" lon="-3.0257630">
        <ele>38.2</ele>
        <time>2022-01-16T12:19:09Z</time>
      </trkpt>
      <trkpt lat="43.2219170" lon="-3.0256950">
        <ele>37.8</ele>
        <time>2022-01-16T12:19:10Z</time>
      </trkpt>
      <trkpt lat="43.2220070" lon="-3.0256260">
        <ele>37.2</ele>
        <time>2022-01-16T12:19:11Z</time>
      </trkpt>
      <trkpt lat="43.2221050" lon="-3.0255580">
        <ele>36.8</ele>
        <time>2022-01-16T12:19:12Z</time>
      </trkpt>
      <trkpt lat="43.2222020" lon="-3.0254890">
        <ele>36.4</ele>
        <time>2022-01-16T12:19:13Z</time>
      </trkpt>
      <trkpt lat="43.2223020" lon="-3.0254190">
        <ele>35.8</ele>
        <time>2022-01-16T12:19:14Z</time>
      </trkpt>
      <trkpt lat="43.2224030" lon="-3.0253500">
        <ele>35.4</ele>
        <time>2022-01-16T12:19:15Z</time>
      </trkpt>
      <trkpt lat="43.2225020" lon="-3.0252800">
        <ele>35.0</ele>
        <time>2022-01-16T12:19:16Z</time>
      </trkpt>
      <trkpt lat="43.2225980" lon="-3.0252110">
        <ele>34.8</ele>
        <time>2022-01-16T12:19:17Z</time>
      </trkpt>
      <trkpt lat="43.2226940" lon="-3.0251420">
        <ele>34.6</ele>
        <time>2022-01-16T12:19:18Z</time>
      </trkpt>
      <trkpt lat="43.2227880" lon="-3.0250760">
        <ele>34.6</ele>
        <time>2022-01-16T12:19:19Z</time>
      </trkpt>
      <trkpt lat="43.2228800" lon="-3.0250150">
        <ele>34.4</ele>
        <time>2022-01-16T12:19:20Z</time>
      </trkpt>
      <trkpt lat="43.2229720" lon="-3.0249530">
        <ele>34.2</ele>
        <time>2022-01-16T12:19:21Z</time>
      </trkpt>
      <trkpt lat="43.2230640" lon="-3.0248880">
        <ele>34.2</ele>
        <time>2022-01-16T12:19:22Z</time>
      </trkpt>
      <trkpt lat="43.2231550" lon="-3.0248250">
        <ele>34.2</ele>
        <time>2022-01-16T12:19:23Z</time>
      </trkpt>
      <trkpt lat="43.2232460" lon="-3.0247620">
        <ele>34.2</ele>
        <time>2022-01-16T12:19:24Z</time>
      </trkpt>
      <trkpt lat="43.2233390" lon="-3.0247040">
        <ele>34.2</ele>
        <time>2022-01-16T12:19:25Z</time>
      </trkpt>
      <trkpt lat="43.2234260" lon="-3.0246410">
        <ele>34.0</ele>
        <time>2022-01-16T12:19:26Z</time>
      </trkpt>
      <trkpt lat="43.2235180" lon="-3.0245850">
        <ele>34.0</ele>
        <time>2022-01-16T12:19:27Z</time>
      </trkpt>
      <trkpt lat="43.2236060" lon="-3.0245320">
        <ele>34.2</ele>
        <time>2022-01-16T12:19:28Z</time>
      </trkpt>
      <trkpt lat="43.2236950" lon="-3.0244830">
        <ele>34.2</ele>
        <time>2022-01-16T12:19:29Z</time>
      </trkpt>
      <trkpt lat="43.2237810" lon="-3.0244340">
        <ele>34.2</ele>
        <time>2022-01-16T12:19:30Z</time>
      </trkpt>
      <trkpt lat="43.2238630" lon="-3.0243860">
        <ele>34.0</ele>
        <time>2022-01-16T12:19:31Z</time>
      </trkpt>
      <trkpt lat="43.2239430" lon="-3.0243350">
        <ele>34.0</ele>
        <time>2022-01-16T12:19:32Z</time>
      </trkpt>
      <trkpt lat="43.2240230" lon="-3.0242790">
        <ele>34.0</ele>
        <time>2022-01-16T12:19:33Z</time>
      </trkpt>
      <trkpt lat="43.2241030" lon="-3.0242130">
        <ele>34.0</ele>
        <time>2022-01-16T12:19:34Z</time>
      </trkpt>
      <trkpt lat="43.2241790" lon="-3.0241440">
        <ele>34.0</ele>
        <time>2022-01-16T12:19:35Z</time>
      </trkpt>
      <trkpt lat="43.2242490" lon="-3.0240700">
        <ele>34.0</ele>
        <time>2022-01-16T12:19:36Z</time>
      </trkpt>
      <trkpt lat="43.2243180" lon="-3.0239890">
        <ele>34.0</ele>
        <time>2022-01-16T12:19:37Z</time>
      </trkpt>
      <trkpt lat="43.2243870" lon="-3.0239000">
        <ele>33.8</ele>
        <time>2022-01-16T12:19:38Z</time>
      </trkpt>
      <trkpt lat="43.2244530" lon="-3.0238080">
        <ele>33.8</ele>
        <time>2022-01-16T12:19:39Z</time>
      </trkpt>
      <trkpt lat="43.2245150" lon="-3.0237110">
        <ele>33.6</ele>
        <time>2022-01-16T12:19:40Z</time>
      </trkpt>
      <trkpt lat="43.2245700" lon="-3.0236150">
        <ele>33.6</ele>
        <time>2022-01-16T12:19:41Z</time>
      </trkpt>
      <trkpt lat="43.2246240" lon="-3.0235110">
        <ele>33.4</ele>
        <time>2022-01-16T12:19:42Z</time>
      </trkpt>
      <trkpt lat="43.2246750" lon="-3.0234060">
        <ele>33.4</ele>
        <time>2022-01-16T12:19:43Z</time>
      </trkpt>
      <trkpt lat="43.2247230" lon="-3.0233030">
        <ele>33.4</ele>
        <time>2022-01-16T12:19:44Z</time>
      </trkpt>
      <trkpt lat="43.2247730" lon="-3.0231990">
        <ele>33.4</ele>
        <time>2022-01-16T12:19:45Z</time>
      </trkpt>
      <trkpt lat="43.2248180" lon="-3.0230950">
        <ele>33.2</ele>
        <time>2022-01-16T12:19:46Z</time>
      </trkpt>
      <trkpt lat="43.2248630" lon="-3.0229890">
        <ele>33.0</ele>
        <time>2022-01-16T12:19:47Z</time>
      </trkpt>
      <trkpt lat="43.2249080" lon="-3.0228830">
        <ele>33.0</ele>
        <time>2022-01-16T12:19:48Z</time>
      </trkpt>
      <trkpt lat="43.2249550" lon="-3.0227760">
        <ele>33.0</ele>
        <time>2022-01-16T12:19:49Z</time>
      </trkpt>
      <trkpt lat="43.2250010" lon="-3.0226710">
        <ele>33.0</ele>
        <time>2022-01-16T12:19:50Z</time>
      </trkpt>
      <trkpt lat="43.2250450" lon="-3.0225680">
        <ele>33.0</ele>
        <time>2022-01-16T12:19:51Z</time>
      </trkpt>
      <trkpt lat="43.2250890" lon="-3.0224680">
        <ele>33.0</ele>
        <time>2022-01-16T12:19:52Z</time>
      </trkpt>
      <trkpt lat="43.2251300" lon="-3.0223690">
        <ele>33.0</ele>
        <time>2022-01-16T12:19:53Z</time>
      </trkpt>
      <trkpt lat="43.2251690" lon="-3.0222720">
        <ele>33.0</ele>
        <time>2022-01-16T12:19:54Z</time>
      </trkpt>
      <trkpt lat="43.2252090" lon="-3.0221680">
        <ele>32.8</ele>
        <time>2022-01-16T12:19:55Z</time>
      </trkpt>
      <trkpt lat="43.2252520" lon="-3.0220610">
        <ele>32.8</ele>
        <time>2022-01-16T12:19:56Z</time>
      </trkpt>
      <trkpt lat="43.2252930" lon="-3.0219580">
        <ele>33.0</ele>
        <time>2022-01-16T12:19:57Z</time>
      </trkpt>
      <trkpt lat="43.2253220" lon="-3.0218410">
        <ele>32.8</ele>
        <time>2022-01-16T12:19:58Z</time>
      </trkpt>
      <trkpt lat="43.2253480" lon="-3.0217190">
        <ele>32.8</ele>
        <time>2022-01-16T12:19:59Z</time>
      </trkpt>
      <trkpt lat="43.2253730" lon="-3.0215980">
        <ele>32.8</ele>
        <time>2022-01-16T12:20:00Z</time>
      </trkpt>
      <trkpt lat="43.2253970" lon="-3.0214800">
        <ele>32.6</ele>
        <time>2022-01-16T12:20:01Z</time>
      </trkpt>
      <trkpt lat="43.2254140" lon="-3.0213570">
        <ele>32.6</ele>
        <time>2022-01-16T12:20:02Z</time>
      </trkpt>
      <trkpt lat="43.2254300" lon="-3.0212380">
        <ele>32.8</ele>
        <time>2022-01-16T12:20:03Z</time>
      </trkpt>
      <trkpt lat="43.2254430" lon="-3.0211220">
        <ele>32.6</ele>
        <time>2022-01-16T12:20:04Z</time>
      </trkpt>
      <trkpt lat="43.2254540" lon="-3.0210070">
        <ele>33.0</ele>
        <time>2022-01-16T12:20:05Z</time>
      </trkpt>
      <trkpt lat="43.2254670" lon="-3.0208890">
        <ele>32.8</ele>
        <time>2022-01-16T12:20:06Z</time>
      </trkpt>
      <trkpt lat="43.2254950" lon="-3.0207500">
        <ele>32.8</ele>
        <time>2022-01-16T12:20:07Z</time>
      </trkpt>
      <trkpt lat="43.2255140" lon="-3.0206310">
        <ele>32.8</ele>
        <time>2022-01-16T12:20:08Z</time>
      </trkpt>
      <trkpt lat="43.2255320" lon="-3.0205120">
        <ele>32.6</ele>
        <time>2022-01-16T12:20:09Z</time>
      </trkpt>
      <trkpt lat="43.2255600" lon="-3.0203700">
        <ele>32.6</ele>
        <time>2022-01-16T12:20:10Z</time>
      </trkpt>
      <trkpt lat="43.2255800" lon="-3.0202400">
        <ele>32.6</ele>
        <time>2022-01-16T12:20:11Z</time>
      </trkpt>
      <trkpt lat="43.2255990" lon="-3.0201180">
        <ele>32.6</ele>
        <time>2022-01-16T12:20:12Z</time>
      </trkpt>
      <trkpt lat="43.2256160" lon="-3.0199960">
        <ele>32.4</ele>
        <time>2022-01-16T12:20:13Z</time>
      </trkpt>
      <trkpt lat="43.2256350" lon="-3.0198700">
        <ele>32.4</ele>
        <time>2022-01-16T12:20:14Z</time>
      </trkpt>
      <trkpt lat="43.2256540" lon="-3.0197510">
        <ele>32.4</ele>
        <time>2022-01-16T12:20:15Z</time>
      </trkpt>
      <trkpt lat="43.2256760" lon="-3.0196230">
        <ele>32.4</ele>
        <time>2022-01-16T12:20:16Z</time>
      </trkpt>
      <trkpt lat="43.2256950" lon="-3.0194950">
        <ele>32.4</ele>
        <time>2022-01-16T12:20:17Z</time>
      </trkpt>
      <trkpt lat="43.2257100" lon="-3.0193740">
        <ele>32.4</ele>
        <time>2022-01-16T12:20:18Z</time>
      </trkpt>
      <trkpt lat="43.2257260" lon="-3.0192460">
        <ele>32.4</ele>
        <time>2022-01-16T12:20:19Z</time>
      </trkpt>
      <trkpt lat="43.2257430" lon="-3.0191240">
        <ele>32.2</ele>
        <time>2022-01-16T12:20:20Z</time>
      </trkpt>
      <trkpt lat="43.2257570" lon="-3.0190120">
        <ele>32.2</ele>
        <time>2022-01-16T12:20:21Z</time>
      </trkpt>
      <trkpt lat="43.2257750" lon="-3.0188910">
        <ele>32.2</ele>
        <time>2022-01-16T12:20:22Z</time>
      </trkpt>
      <trkpt lat="43.2257990" lon="-3.0187770">
        <ele>32.2</ele>
        <time>2022-01-16T12:20:23Z</time>
      </trkpt>
      <trkpt lat="43.2258240" lon="-3.0186580">
        <ele>32.2</ele>
        <time>2022-01-16T12:20:24Z</time>
      </trkpt>
      <trkpt lat="43.2258590" lon="-3.0185410">
        <ele>32.2</ele>
        <time>2022-01-16T12:20:25Z</time>
      </trkpt>
      <trkpt lat="43.2258990" lon="-3.0184240">
        <ele>32.4</ele>
        <time>2022-01-16T12:20:26Z</time>
      </trkpt>
      <trkpt lat="43.2259470" lon="-3.0183060">
        <ele>32.4</ele>
        <time>2022-01-16T12:20:27Z</time>
      </trkpt>
      <trkpt lat="43.2260040" lon="-3.0181890">
        <ele>32.4</ele>
        <time>2022-01-16T12:20:28Z</time>
      </trkpt>
      <trkpt lat="43.2260620" lon="-3.0180810">
        <ele>32.4</ele>
        <time>2022-01-16T12:20:29Z</time>
      </trkpt>
      <trkpt lat="43.2261240" lon="-3.0179800">
        <ele>32.4</ele>
        <time>2022-01-16T12:20:30Z</time>
      </trkpt>
      <trkpt lat="43.2261890" lon="-3.0178780">
        <ele>32.4</ele>
        <time>2022-01-16T12:20:31Z</time>
      </trkpt>
      <trkpt lat="43.2262550" lon="-3.0177830">
        <ele>32.4</ele>
        <time>2022-01-16T12:20:32Z</time>
      </trkpt>
      <trkpt lat="43.2263230" lon="-3.0176960">
        <ele>32.4</ele>
        <time>2022-01-16T12:20:33Z</time>
      </trkpt>
      <trkpt lat="43.2263940" lon="-3.0176100">
        <ele>32.4</ele>
        <time>2022-01-16T12:20:34Z</time>
      </trkpt>
      <trkpt lat="43.2264660" lon="-3.0175300">
        <ele>32.6</ele>
        <time>2022-01-16T12:20:35Z</time>
      </trkpt>
      <trkpt lat="43.2265410" lon="-3.0174520">
        <ele>32.6</ele>
        <time>2022-01-16T12:20:36Z</time>
      </trkpt>
      <trkpt lat="43.2266160" lon="-3.0173800">
        <ele>32.4</ele>
        <time>2022-01-16T12:20:37Z</time>
      </trkpt>
      <trkpt lat="43.2266940" lon="-3.0173120">
        <ele>32.4</ele>
        <time>2022-01-16T12:20:38Z</time>
      </trkpt>
      <trkpt lat="43.2267740" lon="-3.0172470">
        <ele>32.6</ele>
        <time>2022-01-16T12:20:39Z</time>
      </trkpt>
      <trkpt lat="43.2268540" lon="-3.0171850">
        <ele>32.4</ele>
        <time>2022-01-16T12:20:40Z</time>
      </trkpt>
      <trkpt lat="43.2269380" lon="-3.0171260">
        <ele>32.2</ele>
        <time>2022-01-16T12:20:41Z</time>
      </trkpt>
      <trkpt lat="43.2270220" lon="-3.0170660">
        <ele>32.2</ele>
        <time>2022-01-16T12:20:42Z</time>
      </trkpt>
      <trkpt lat="43.2271070" lon="-3.0170070">
        <ele>32.2</ele>
        <time>2022-01-16T12:20:43Z</time>
      </trkpt>
      <trkpt lat="43.2271850" lon="-3.0169540">
        <ele>32.0</ele>
        <time>2022-01-16T12:20:44Z</time>
      </trkpt>
      <trkpt lat="43.2272680" lon="-3.0168990">
        <ele>32.0</ele>
        <time>2022-01-16T12:20:45Z</time>
      </trkpt>
      <trkpt lat="43.2273510" lon="-3.0168460">
        <ele>32.0</ele>
        <time>2022-01-16T12:20:46Z</time>
      </trkpt>
      <trkpt lat="43.2274350" lon="-3.0167940">
        <ele>31.8</ele>
        <time>2022-01-16T12:20:47Z</time>
      </trkpt>
      <trkpt lat="43.2275190" lon="-3.0167410">
        <ele>31.6</ele>
        <time>2022-01-16T12:20:48Z</time>
      </trkpt>
      <trkpt lat="43.2276070" lon="-3.0166890">
        <ele>31.4</ele>
        <time>2022-01-16T12:20:49Z</time>
      </trkpt>
      <trkpt lat="43.2276950" lon="-3.0166380">
        <ele>31.2</ele>
        <time>2022-01-16T12:20:50Z</time>
      </trkpt>
      <trkpt lat="43.2277840" lon="-3.0165890">
        <ele>31.0</ele>
        <time>2022-01-16T12:20:51Z</time>
      </trkpt>
      <trkpt lat="43.2278720" lon="-3.0165370">
        <ele>30.8</ele>
        <time>2022-01-16T12:20:52Z</time>
      </trkpt>
      <trkpt lat="43.2279530" lon="-3.0164900">
        <ele>30.6</ele>
        <time>2022-01-16T12:20:53Z</time>
      </trkpt>
      <trkpt lat="43.2280430" lon="-3.0164310">
        <ele>30.4</ele>
        <time>2022-01-16T12:20:54Z</time>
      </trkpt>
      <trkpt lat="43.2281260" lon="-3.0163780">
        <ele>30.2</ele>
        <time>2022-01-16T12:20:55Z</time>
      </trkpt>
      <trkpt lat="43.2282090" lon="-3.0163210">
        <ele>30.2</ele>
        <time>2022-01-16T12:20:56Z</time>
      </trkpt>
      <trkpt lat="43.2282900" lon="-3.0162630">
        <ele>30.0</ele>
        <time>2022-01-16T12:20:57Z</time>
      </trkpt>
      <trkpt lat="43.2283720" lon="-3.0162020">
        <ele>30.2</ele>
        <time>2022-01-16T12:20:58Z</time>
      </trkpt>
      <trkpt lat="43.2284520" lon="-3.0161400">
        <ele>30.4</ele>
        <time>2022-01-16T12:20:59Z</time>
      </trkpt>
      <trkpt lat="43.2285310" lon="-3.0160770">
        <ele>30.4</ele>
        <time>2022-01-16T12:21:00Z</time>
      </trkpt>
      <trkpt lat="43.2286090" lon="-3.0160100">
        <ele>30.6</ele>
        <time>2022-01-16T12:21:01Z</time>
      </trkpt>
      <trkpt lat="43.2286860" lon="-3.0159410">
        <ele>30.6</ele>
        <time>2022-01-16T12:21:02Z</time>
      </trkpt>
      <trkpt lat="43.2287640" lon="-3.0158700">
        <ele>30.6</ele>
        <time>2022-01-16T12:21:03Z</time>
      </trkpt>
      <trkpt lat="43.2288420" lon="-3.0157960">
        <ele>30.6</ele>
        <time>2022-01-16T12:21:04Z</time>
      </trkpt>
      <trkpt lat="43.2289210" lon="-3.0157230">
        <ele>30.6</ele>
        <time>2022-01-16T12:21:05Z</time>
      </trkpt>
      <trkpt lat="43.2289990" lon="-3.0156520">
        <ele>30.6</ele>
        <time>2022-01-16T12:21:06Z</time>
      </trkpt>
      <trkpt lat="43.2290770" lon="-3.0155800">
        <ele>30.4</ele>
        <time>2022-01-16T12:21:07Z</time>
      </trkpt>
      <trkpt lat="43.2291580" lon="-3.0155070">
        <ele>30.4</ele>
        <time>2022-01-16T12:21:08Z</time>
      </trkpt>
      <trkpt lat="43.2292370" lon="-3.0154320">
        <ele>30.2</ele>
        <time>2022-01-16T12:21:09Z</time>
      </trkpt>
      <trkpt lat="43.2293160" lon="-3.0153600">
        <ele>30.2</ele>
        <time>2022-01-16T12:21:10Z</time>
      </trkpt>
      <trkpt lat="43.2293920" lon="-3.0152870">
        <ele>30.2</ele>
        <time>2022-01-16T12:21:11Z</time>
      </trkpt>
      <trkpt lat="43.2294680" lon="-3.0152150">
        <ele>30.0</ele>
        <time>2022-01-16T12:21:12Z</time>
      </trkpt>
      <trkpt lat="43.2295460" lon="-3.0151430">
        <ele>30.0</ele>
        <time>2022-01-16T12:21:13Z</time>
      </trkpt>
      <trkpt lat="43.2296250" lon="-3.0150730">
        <ele>30.0</ele>
        <time>2022-01-16T12:21:14Z</time>
      </trkpt>
      <trkpt lat="43.2297070" lon="-3.0150040">
        <ele>29.8</ele>
        <time>2022-01-16T12:21:15Z</time>
      </trkpt>
      <trkpt lat="43.2297860" lon="-3.0149350">
        <ele>29.6</ele>
        <time>2022-01-16T12:21:16Z</time>
      </trkpt>
      <trkpt lat="43.2298670" lon="-3.0148650">
        <ele>29.4</ele>
        <time>2022-01-16T12:21:17Z</time>
      </trkpt>
      <trkpt lat="43.2299420" lon="-3.0147930">
        <ele>29.2</ele>
        <time>2022-01-16T12:21:18Z</time>
      </trkpt>
      <trkpt lat="43.2300150" lon="-3.0147240">
        <ele>29.0</ele>
        <time>2022-01-16T12:21:19Z</time>
      </trkpt>
      <trkpt lat="43.2300910" lon="-3.0146500">
        <ele>29.0</ele>
        <time>2022-01-16T12:21:20Z</time>
      </trkpt>
      <trkpt lat="43.2301690" lon="-3.0145800">
        <ele>28.8</ele>
        <time>2022-01-16T12:21:21Z</time>
      </trkpt>
      <trkpt lat="43.2302440" lon="-3.0145100">
        <ele>28.8</ele>
        <time>2022-01-16T12:21:22Z</time>
      </trkpt>
      <trkpt lat="43.2303210" lon="-3.0144410">
        <ele>28.8</ele>
        <time>2022-01-16T12:21:23Z</time>
      </trkpt>
      <trkpt lat="43.2303970" lon="-3.0143710">
        <ele>28.8</ele>
        <time>2022-01-16T12:21:24Z</time>
      </trkpt>
      <trkpt lat="43.2304750" lon="-3.0143020">
        <ele>28.8</ele>
        <time>2022-01-16T12:21:25Z</time>
      </trkpt>
      <trkpt lat="43.2305540" lon="-3.0142340">
        <ele>28.8</ele>
        <time>2022-01-16T12:21:26Z</time>
      </trkpt>
      <trkpt lat="43.2306320" lon="-3.0141650">
        <ele>28.8</ele>
        <time>2022-01-16T12:21:27Z</time>
      </trkpt>
      <trkpt lat="43.2307080" lon="-3.0140930">
        <ele>28.8</ele>
        <time>2022-01-16T12:21:28Z</time>
      </trkpt>
      <trkpt lat="43.2307840" lon="-3.0140210">
        <ele>28.8</ele>
        <time>2022-01-16T12:21:29Z</time>
      </trkpt>
      <trkpt lat="43.2308640" lon="-3.0139480">
        <ele>28.8</ele>
        <time>2022-01-16T12:21:30Z</time>
      </trkpt>
      <trkpt lat="43.2309440" lon="-3.0138770">
        <ele>28.8</ele>
        <time>2022-01-16T12:21:31Z</time>
      </trkpt>
      <trkpt lat="43.2310190" lon="-3.0138080">
        <ele>28.8</ele>
        <time>2022-01-16T12:21:32Z</time>
      </trkpt>
      <trkpt lat="43.2310950" lon="-3.0137390">
        <ele>29.0</ele>
        <time>2022-01-16T12:21:33Z</time>
      </trkpt>
      <trkpt lat="43.2311650" lon="-3.0136710">
        <ele>29.2</ele>
        <time>2022-01-16T12:21:34Z</time>
      </trkpt>
      <trkpt lat="43.2312350" lon="-3.0136080">
        <ele>29.6</ele>
        <time>2022-01-16T12:21:35Z</time>
      </trkpt>
      <trkpt lat="43.2313060" lon="-3.0135470">
        <ele>29.8</ele>
        <time>2022-01-16T12:21:36Z</time>
      </trkpt>
      <trkpt lat="43.2313750" lon="-3.0134860">
        <ele>30.2</ele>
        <time>2022-01-16T12:21:37Z</time>
      </trkpt>
      <trkpt lat="43.2314410" lon="-3.0134280">
        <ele>30.4</ele>
        <time>2022-01-16T12:21:38Z</time>
      </trkpt>
      <trkpt lat="43.2315090" lon="-3.0133740">
        <ele>30.6</ele>
        <time>2022-01-16T12:21:39Z</time>
      </trkpt>
      <trkpt lat="43.2315800" lon="-3.0133320">
        <ele>31.0</ele>
        <time>2022-01-16T12:21:40Z</time>
      </trkpt>
      <trkpt lat="43.2316490" lon="-3.0133100">
        <ele>31.4</ele>
        <time>2022-01-16T12:21:41Z</time>
      </trkpt>
      <trkpt lat="43.2317230" lon="-3.0132970">
        <ele>31.8</ele>
        <time>2022-01-16T12:21:42Z</time>
      </trkpt>
      <trkpt lat="43.2317970" lon="-3.0133000">
        <ele>32.6</ele>
        <time>2022-01-16T12:21:43Z</time>
      </trkpt>
      <trkpt lat="43.2318680" lon="-3.0133120">
        <ele>33.2</ele>
        <time>2022-01-16T12:21:44Z</time>
      </trkpt>
      <trkpt lat="43.2319450" lon="-3.0133290">
        <ele>33.6</ele>
        <time>2022-01-16T12:21:45Z</time>
      </trkpt>
      <trkpt lat="43.2320160" lon="-3.0133520">
        <ele>34.0</ele>
        <time>2022-01-16T12:21:46Z</time>
      </trkpt>
      <trkpt lat="43.2320820" lon="-3.0133830">
        <ele>34.2</ele>
        <time>2022-01-16T12:21:47Z</time>
      </trkpt>
      <trkpt lat="43.2321380" lon="-3.0134180">
        <ele>34.6</ele>
        <time>2022-01-16T12:21:48Z</time>
      </trkpt>
      <trkpt lat="43.2322020" lon="-3.0134600">
        <ele>34.8</ele>
        <time>2022-01-16T12:21:49Z</time>
      </trkpt>
      <trkpt lat="43.2322600" lon="-3.0135120">
        <ele>35.2</ele>
        <time>2022-01-16T12:21:50Z</time>
      </trkpt>
      <trkpt lat="43.2323250" lon="-3.0135620">
        <ele>35.2</ele>
        <time>2022-01-16T12:21:51Z</time>
      </trkpt>
      <trkpt lat="43.2324030" lon="-3.0136270">
        <ele>35.4</ele>
        <time>2022-01-16T12:21:52Z</time>
      </trkpt>
      <trkpt lat="43.2324670" lon="-3.0136890">
        <ele>35.4</ele>
        <time>2022-01-16T12:21:53Z</time>
      </trkpt>
      <trkpt lat="43.2325330" lon="-3.0137500">
        <ele>35.2</ele>
        <time>2022-01-16T12:21:54Z</time>
      </trkpt>
      <trkpt lat="43.2325980" lon="-3.0138120">
        <ele>35.2</ele>
        <time>2022-01-16T12:21:55Z</time>
      </trkpt>
      <trkpt lat="43.2326650" lon="-3.0138740">
        <ele>35.0</ele>
        <time>2022-01-16T12:21:56Z</time>
      </trkpt>
      <trkpt lat="43.2327220" lon="-3.0139500">
        <ele>34.8</ele>
        <time>2022-01-16T12:21:57Z</time>
      </trkpt>
      <trkpt lat="43.2327820" lon="-3.0140260">
        <ele>34.6</ele>
        <time>2022-01-16T12:21:58Z</time>
      </trkpt>
      <trkpt lat="43.2328410" lon="-3.0141060">
        <ele>34.4</ele>
        <time>2022-01-16T12:21:59Z</time>
      </trkpt>
      <trkpt lat="43.2328990" lon="-3.0141910">
        <ele>34.2</ele>
        <time>2022-01-16T12:22:00Z</time>
      </trkpt>
      <trkpt lat="43.2329560" lon="-3.0142790">
        <ele>33.8</ele>
        <time>2022-01-16T12:22:01Z</time>
      </trkpt>
      <trkpt lat="43.2330140" lon="-3.0143650">
        <ele>33.6</ele>
        <time>2022-01-16T12:22:02Z</time>
      </trkpt>
      <trkpt lat="43.2330770" lon="-3.0144480">
        <ele>33.2</ele>
        <time>2022-01-16T12:22:03Z</time>
      </trkpt>
      <trkpt lat="43.2331460" lon="-3.0145240">
        <ele>33.0</ele>
        <time>2022-01-16T12:22:04Z</time>
      </trkpt>
      <trkpt lat="43.2332160" lon="-3.0145990">
        <ele>32.6</ele>
        <time>2022-01-16T12:22:05Z</time>
      </trkpt>
      <trkpt lat="43.2332870" lon="-3.0146660">
        <ele>32.4</ele>
        <time>2022-01-16T12:22:06Z</time>
      </trkpt>
      <trkpt lat="43.2333650" lon="-3.0147150">
        <ele>32.2</ele>
        <time>2022-01-16T12:22:07Z</time>
      </trkpt>
      <trkpt lat="43.2334460" lon="-3.0147560">
        <ele>32.2</ele>
        <time>2022-01-16T12:22:08Z</time>
      </trkpt>
      <trkpt lat="43.2335260" lon="-3.0147930">
        <ele>32.2</ele>
        <time>2022-01-16T12:22:09Z</time>
      </trkpt>
      <trkpt lat="43.2336060" lon="-3.0148310">
        <ele>32.4</ele>
        <time>2022-01-16T12:22:10Z</time>
      </trkpt>
      <trkpt lat="43.2336850" lon="-3.0148690">
        <ele>32.4</ele>
        <time>2022-01-16T12:22:11Z</time>
      </trkpt>
      <trkpt lat="43.2337630" lon="-3.0149100">
        <ele>32.6</ele>
        <time>2022-01-16T12:22:12Z</time>
      </trkpt>
      <trkpt lat="43.2338410" lon="-3.0149550">
        <ele>32.6</ele>
        <time>2022-01-16T12:22:13Z</time>
      </trkpt>
      <trkpt lat="43.2339200" lon="-3.0149990">
        <ele>32.6</ele>
        <time>2022-01-16T12:22:14Z</time>
      </trkpt>
      <trkpt lat="43.2339970" lon="-3.0150420">
        <ele>32.6</ele>
        <time>2022-01-16T12:22:15Z</time>
      </trkpt>
      <trkpt lat="43.2340740" lon="-3.0150870">
        <ele>32.8</ele>
        <time>2022-01-16T12:22:16Z</time>
      </trkpt>
      <trkpt lat="43.2341490" lon="-3.0151320">
        <ele>32.8</ele>
        <time>2022-01-16T12:22:17Z</time>
      </trkpt>
      <trkpt lat="43.2342240" lon="-3.0151740">
        <ele>33.2</ele>
        <time>2022-01-16T12:22:18Z</time>
      </trkpt>
      <trkpt lat="43.2342970" lon="-3.0152120">
        <ele>33.4</ele>
        <time>2022-01-16T12:22:19Z</time>
      </trkpt>
      <trkpt lat="43.2343650" lon="-3.0152540">
        <ele>33.6</ele>
        <time>2022-01-16T12:22:20Z</time>
      </trkpt>
      <trkpt lat="43.2344330" lon="-3.0152880">
        <ele>33.8</ele>
        <time>2022-01-16T12:22:21Z</time>
      </trkpt>
      <trkpt lat="43.2344960" lon="-3.0153160">
        <ele>34.2</ele>
        <time>2022-01-16T12:22:22Z</time>
      </trkpt>
      <trkpt lat="43.2345590" lon="-3.0153260">
        <ele>34.6</ele>
        <time>2022-01-16T12:22:23Z</time>
      </trkpt>
      <trkpt lat="43.2346260" lon="-3.0153110">
        <ele>35.2</ele>
        <time>2022-01-16T12:22:24Z</time>
      </trkpt>
      <trkpt lat="43.2346890" lon="-3.0153020">
        <ele>35.8</ele>
        <time>2022-01-16T12:22:25Z</time>
      </trkpt>
      <trkpt lat="43.2347470" lon="-3.0152830">
        <ele>36.0</ele>
        <time>2022-01-16T12:22:26Z</time>
      </trkpt>
      <trkpt lat="43.2348070" lon="-3.0152400">
        <ele>36.2</ele>
        <time>2022-01-16T12:22:27Z</time>
      </trkpt>
      <trkpt lat="43.2348740" lon="-3.0151770">
        <ele>36.2</ele>
        <time>2022-01-16T12:22:28Z</time>
      </trkpt>
      <trkpt lat="43.2349370" lon="-3.0151050">
        <ele>36.2</ele>
        <time>2022-01-16T12:22:29Z</time>
      </trkpt>
      <trkpt lat="43.2349970" lon="-3.0150250">
        <ele>36.2</ele>
        <time>2022-01-16T12:22:30Z</time>
      </trkpt>
      <trkpt lat="43.2350470" lon="-3.0149460">
        <ele>36.0</ele>
        <time>2022-01-16T12:22:31Z</time>
      </trkpt>
      <trkpt lat="43.2351040" lon="-3.0148550">
        <ele>36.0</ele>
        <time>2022-01-16T12:22:32Z</time>
      </trkpt>
      <trkpt lat="43.2351580" lon="-3.0147600">
        <ele>35.8</ele>
        <time>2022-01-16T12:22:33Z</time>
      </trkpt>
      <trkpt lat="43.2352090" lon="-3.0146580">
        <ele>35.6</ele>
        <time>2022-01-16T12:22:34Z</time>
      </trkpt>
      <trkpt lat="43.2352480" lon="-3.0145410">
        <ele>35.0</ele>
        <time>2022-01-16T12:22:35Z</time>
      </trkpt>
      <trkpt lat="43.2352840" lon="-3.0144190">
        <ele>34.4</ele>
        <time>2022-01-16T12:22:36Z</time>
      </trkpt>
      <trkpt lat="43.2353150" lon="-3.0142910">
        <ele>33.6</ele>
        <time>2022-01-16T12:22:37Z</time>
      </trkpt>
      <trkpt lat="43.2353450" lon="-3.0141590">
        <ele>33.0</ele>
        <time>2022-01-16T12:22:38Z</time>
      </trkpt>
      <trkpt lat="43.2353730" lon="-3.0140230">
        <ele>32.4</ele>
        <time>2022-01-16T12:22:39Z</time>
      </trkpt>
      <trkpt lat="43.2353990" lon="-3.0138850">
        <ele>31.8</ele>
        <time>2022-01-16T12:22:40Z</time>
      </trkpt>
      <trkpt lat="43.2354260" lon="-3.0137460">
        <ele>31.4</ele>
        <time>2022-01-16T12:22:41Z</time>
      </trkpt>
      <trkpt lat="43.2354530" lon="-3.0136040">
        <ele>30.6</ele>
        <time>2022-01-16T12:22:42Z</time>
      </trkpt>
      <trkpt lat="43.2354750" lon="-3.0134620">
        <ele>29.6</ele>
        <time>2022-01-16T12:22:43Z</time>
      </trkpt>
      <trkpt lat="43.2354880" lon="-3.0133180">
        <ele>29.2</ele>
        <time>2022-01-16T12:22:44Z</time>
      </trkpt>
      <trkpt lat="43.2354900" lon="-3.0131730">
        <ele>28.8</ele>
        <time>2022-01-16T12:22:45Z</time>
      </trkpt>
      <trkpt lat="43.2354880" lon="-3.0130280">
        <ele>28.2</ele>
        <time>2022-01-16T12:22:46Z</time>
      </trkpt>
      <trkpt lat="43.2354830" lon="-3.0128860">
        <ele>27.6</ele>
        <time>2022-01-16T12:22:47Z</time>
      </trkpt>
      <trkpt lat="43.2354760" lon="-3.0127440">
        <ele>27.2</ele>
        <time>2022-01-16T12:22:48Z</time>
      </trkpt>
      <trkpt lat="43.2354680" lon="-3.0126040">
        <ele>27.0</ele>
        <time>2022-01-16T12:22:49Z</time>
      </trkpt>
      <trkpt lat="43.2354620" lon="-3.0124670">
        <ele>26.8</ele>
        <time>2022-01-16T12:22:50Z</time>
      </trkpt>
      <trkpt lat="43.2354600" lon="-3.0123340">
        <ele>26.4</ele>
        <time>2022-01-16T12:22:51Z</time>
      </trkpt>
      <trkpt lat="43.2354640" lon="-3.0122020">
        <ele>25.8</ele>
        <time>2022-01-16T12:22:52Z</time>
      </trkpt>
      <trkpt lat="43.2354650" lon="-3.0120720">
        <ele>25.4</ele>
        <time>2022-01-16T12:22:53Z</time>
      </trkpt>
      <trkpt lat="43.2354720" lon="-3.0119430">
        <ele>25.2</ele>
        <time>2022-01-16T12:22:54Z</time>
      </trkpt>
      <trkpt lat="43.2354790" lon="-3.0118160">
        <ele>25.2</ele>
        <time>2022-01-16T12:22:55Z</time>
      </trkpt>
      <trkpt lat="43.2354890" lon="-3.0116890">
        <ele>25.2</ele>
        <time>2022-01-16T12:22:56Z</time>
      </trkpt>
      <trkpt lat="43.2354970" lon="-3.0115630">
        <ele>25.4</ele>
        <time>2022-01-16T12:22:57Z</time>
      </trkpt>
      <trkpt lat="43.2355040" lon="-3.0114370">
        <ele>25.4</ele>
        <time>2022-01-16T12:22:58Z</time>
      </trkpt>
      <trkpt lat="43.2355090" lon="-3.0113170">
        <ele>25.4</ele>
        <time>2022-01-16T12:22:59Z</time>
      </trkpt>
      <trkpt lat="43.2355160" lon="-3.0112020">
        <ele>25.2</ele>
        <time>2022-01-16T12:23:00Z</time>
      </trkpt>
      <trkpt lat="43.2355140" lon="-3.0110880">
        <ele>25.2</ele>
        <time>2022-01-16T12:23:01Z</time>
      </trkpt>
      <trkpt lat="43.2355000" lon="-3.0109770">
        <ele>25.2</ele>
        <time>2022-01-16T12:23:02Z</time>
      </trkpt>
      <trkpt lat="43.2354780" lon="-3.0108710">
        <ele>25.0</ele>
        <time>2022-01-16T12:23:03Z</time>
      </trkpt>
      <trkpt lat="43.2354510" lon="-3.0107680">
        <ele>25.0</ele>
        <time>2022-01-16T12:23:04Z</time>
      </trkpt>
      <trkpt lat="43.2354320" lon="-3.0106600">
        <ele>25.0</ele>
        <time>2022-01-16T12:23:05Z</time>
      </trkpt>
      <trkpt lat="43.2354210" lon="-3.0105550">
        <ele>25.0</ele>
        <time>2022-01-16T12:23:06Z</time>
      </trkpt>
      <trkpt lat="43.2354270" lon="-3.0104500">
        <ele>25.0</ele>
        <time>2022-01-16T12:23:07Z</time>
      </trkpt>
      <trkpt lat="43.2354500" lon="-3.0103460">
        <ele>25.0</ele>
        <time>2022-01-16T12:23:08Z</time>
      </trkpt>
      <trkpt lat="43.2354870" lon="-3.0102460">
        <ele>25.0</ele>
        <time>2022-01-16T12:23:09Z</time>
      </trkpt>
      <trkpt lat="43.2355320" lon="-3.0101490">
        <ele>24.8</ele>
        <time>2022-01-16T12:23:10Z</time>
      </trkpt>
      <trkpt lat="43.2355750" lon="-3.0100460">
        <ele>24.6</ele>
        <time>2022-01-16T12:23:11Z</time>
      </trkpt>
      <trkpt lat="43.2356020" lon="-3.0099370">
        <ele>24.2</ele>
        <time>2022-01-16T12:23:12Z</time>
      </trkpt>
      <trkpt lat="43.2356280" lon="-3.0098230">
        <ele>23.8</ele>
        <time>2022-01-16T12:23:13Z</time>
      </trkpt>
      <trkpt lat="43.2356500" lon="-3.0097090">
        <ele>23.8</ele>
        <time>2022-01-16T12:23:14Z</time>
      </trkpt>
      <trkpt lat="43.2356690" lon="-3.0095940">
        <ele>23.6</ele>
        <time>2022-01-16T12:23:15Z</time>
      </trkpt>
      <trkpt lat="43.2356910" lon="-3.0094800">
        <ele>23.6</ele>
        <time>2022-01-16T12:23:16Z</time>
      </trkpt>
      <trkpt lat="43.2357180" lon="-3.0093640">
        <ele>23.4</ele>
        <time>2022-01-16T12:23:17Z</time>
      </trkpt>
      <trkpt lat="43.2357430" lon="-3.0092510">
        <ele>23.6</ele>
        <time>2022-01-16T12:23:18Z</time>
      </trkpt>
      <trkpt lat="43.2357670" lon="-3.0091370">
        <ele>23.6</ele>
        <time>2022-01-16T12:23:19Z</time>
      </trkpt>
      <trkpt lat="43.2357930" lon="-3.0090230">
        <ele>23.6</ele>
        <time>2022-01-16T12:23:20Z</time>
      </trkpt>
      <trkpt lat="43.2358190" lon="-3.0089070">
        <ele>23.6</ele>
        <time>2022-01-16T12:23:21Z</time>
      </trkpt>
      <trkpt lat="43.2358460" lon="-3.0087920">
        <ele>23.6</ele>
        <time>2022-01-16T12:23:22Z</time>
      </trkpt>
      <trkpt lat="43.2358720" lon="-3.0086780">
        <ele>23.6</ele>
        <time>2022-01-16T12:23:23Z</time>
      </trkpt>
      <trkpt lat="43.2358970" lon="-3.0085620">
        <ele>23.6</ele>
        <time>2022-01-16T12:23:24Z</time>
      </trkpt>
      <trkpt lat="43.2359210" lon="-3.0084490">
        <ele>23.6</ele>
        <time>2022-01-16T12:23:25Z</time>
      </trkpt>
      <trkpt lat="43.2359470" lon="-3.0083330">
        <ele>23.2</ele>
        <time>2022-01-16T12:23:26Z</time>
      </trkpt>
      <trkpt lat="43.2359740" lon="-3.0082180">
        <ele>23.0</ele>
        <time>2022-01-16T12:23:27Z</time>
      </trkpt>
      <trkpt lat="43.2360000" lon="-3.0081010">
        <ele>22.8</ele>
        <time>2022-01-16T12:23:28Z</time>
      </trkpt>
      <trkpt lat="43.2360260" lon="-3.0079850">
        <ele>22.8</ele>
        <time>2022-01-16T12:23:29Z</time>
      </trkpt>
      <trkpt lat="43.2360520" lon="-3.0078680">
        <ele>22.6</ele>
        <time>2022-01-16T12:23:30Z</time>
      </trkpt>
      <trkpt lat="43.2360790" lon="-3.0077500">
        <ele>22.4</ele>
        <time>2022-01-16T12:23:31Z</time>
      </trkpt>
      <trkpt lat="43.2361050" lon="-3.0076340">
        <ele>22.4</ele>
        <time>2022-01-16T12:23:32Z</time>
      </trkpt>
      <trkpt lat="43.2361310" lon="-3.0075200">
        <ele>22.2</ele>
        <time>2022-01-16T12:23:33Z</time>
      </trkpt>
      <trkpt lat="43.2361550" lon="-3.0074010">
        <ele>22.2</ele>
        <time>2022-01-16T12:23:34Z</time>
      </trkpt>
      <trkpt lat="43.2361790" lon="-3.0072810">
        <ele>22.0</ele>
        <time>2022-01-16T12:23:35Z</time>
      </trkpt>
      <trkpt lat="43.2362020" lon="-3.0071540">
        <ele>21.8</ele>
        <time>2022-01-16T12:23:36Z</time>
      </trkpt>
      <trkpt lat="43.2362270" lon="-3.0070340">
        <ele>21.4</ele>
        <time>2022-01-16T12:23:37Z</time>
      </trkpt>
      <trkpt lat="43.2362540" lon="-3.0069150">
        <ele>21.2</ele>
        <time>2022-01-16T12:23:38Z</time>
      </trkpt>
      <trkpt lat="43.2362830" lon="-3.0067900">
        <ele>21.2</ele>
        <time>2022-01-16T12:23:39Z</time>
      </trkpt>
      <trkpt lat="43.2363110" lon="-3.0066730">
        <ele>21.0</ele>
        <time>2022-01-16T12:23:40Z</time>
      </trkpt>
      <trkpt lat="43.2363350" lon="-3.0065510">
        <ele>21.0</ele>
        <time>2022-01-16T12:23:41Z</time>
      </trkpt>
      <trkpt lat="43.2363600" lon="-3.0064290">
        <ele>21.2</ele>
        <time>2022-01-16T12:23:42Z</time>
      </trkpt>
      <trkpt lat="43.2363900" lon="-3.0063040">
        <ele>21.4</ele>
        <time>2022-01-16T12:23:43Z</time>
      </trkpt>
      <trkpt lat="43.2364180" lon="-3.0061790">
        <ele>21.4</ele>
        <time>2022-01-16T12:23:44Z</time>
      </trkpt>
      <trkpt lat="43.2364490" lon="-3.0060610">
        <ele>21.4</ele>
        <time>2022-01-16T12:23:45Z</time>
      </trkpt>
      <trkpt lat="43.2364790" lon="-3.0059430">
        <ele>21.4</ele>
        <time>2022-01-16T12:23:46Z</time>
      </trkpt>
      <trkpt lat="43.2365100" lon="-3.0058220">
        <ele>21.6</ele>
        <time>2022-01-16T12:23:47Z</time>
      </trkpt>
      <trkpt lat="43.2365330" lon="-3.0057070">
        <ele>21.6</ele>
        <time>2022-01-16T12:23:48Z</time>
      </trkpt>
      <trkpt lat="43.2365590" lon="-3.0055920">
        <ele>21.6</ele>
        <time>2022-01-16T12:23:49Z</time>
      </trkpt>
      <trkpt lat="43.2365820" lon="-3.0054780">
        <ele>21.6</ele>
        <time>2022-01-16T12:23:50Z</time>
      </trkpt>
      <trkpt lat="43.2366120" lon="-3.0053600">
        <ele>21.4</ele>
        <time>2022-01-16T12:23:51Z</time>
      </trkpt>
      <trkpt lat="43.2366390" lon="-3.0052430">
        <ele>21.4</ele>
        <time>2022-01-16T12:23:52Z</time>
      </trkpt>
      <trkpt lat="43.2366660" lon="-3.0051260">
        <ele>21.4</ele>
        <time>2022-01-16T12:23:53Z</time>
      </trkpt>
      <trkpt lat="43.2366940" lon="-3.0050050">
        <ele>21.2</ele>
        <time>2022-01-16T12:23:54Z</time>
      </trkpt>
      <trkpt lat="43.2367230" lon="-3.0048840">
        <ele>21.2</ele>
        <time>2022-01-16T12:23:55Z</time>
      </trkpt>
      <trkpt lat="43.2367520" lon="-3.0047670">
        <ele>21.4</ele>
        <time>2022-01-16T12:23:56Z</time>
      </trkpt>
      <trkpt lat="43.2367830" lon="-3.0046510">
        <ele>21.4</ele>
        <time>2022-01-16T12:23:57Z</time>
      </trkpt>
      <trkpt lat="43.2368140" lon="-3.0045360">
        <ele>21.4</ele>
        <time>2022-01-16T12:23:58Z</time>
      </trkpt>
      <trkpt lat="43.2368470" lon="-3.0044270">
        <ele>21.4</ele>
        <time>2022-01-16T12:23:59Z</time>
      </trkpt>
      <trkpt lat="43.2368870" lon="-3.0043220">
        <ele>21.6</ele>
        <time>2022-01-16T12:24:00Z</time>
      </trkpt>
      <trkpt lat="43.2369270" lon="-3.0042180">
        <ele>21.6</ele>
        <time>2022-01-16T12:24:01Z</time>
      </trkpt>
      <trkpt lat="43.2369690" lon="-3.0041170">
        <ele>21.6</ele>
        <time>2022-01-16T12:24:02Z</time>
      </trkpt>
      <trkpt lat="43.2370170" lon="-3.0040220">
        <ele>21.4</ele>
        <time>2022-01-16T12:24:03Z</time>
      </trkpt>
      <trkpt lat="43.2370680" lon="-3.0039280">
        <ele>21.0</ele>
        <time>2022-01-16T12:24:04Z</time>
      </trkpt>
      <trkpt lat="43.2371180" lon="-3.0038290">
        <ele>21.0</ele>
        <time>2022-01-16T12:24:05Z</time>
      </trkpt>
      <trkpt lat="43.2371710" lon="-3.0037330">
        <ele>20.8</ele>
        <time>2022-01-16T12:24:06Z</time>
      </trkpt>
      <trkpt lat="43.2372240" lon="-3.0036390">
        <ele>20.8</ele>
        <time>2022-01-16T12:24:07Z</time>
      </trkpt>
      <trkpt lat="43.2372740" lon="-3.0035430">
        <ele>20.6</ele>
        <time>2022-01-16T12:24:08Z</time>
      </trkpt>
      <trkpt lat="43.2373220" lon="-3.0034450">
        <ele>20.8</ele>
        <time>2022-01-16T12:24:09Z</time>
      </trkpt>
      <trkpt lat="43.2373650" lon="-3.0033440">
        <ele>20.8</ele>
        <time>2022-01-16T12:24:10Z</time>
      </trkpt>
      <trkpt lat="43.2374030" lon="-3.0032410">
        <ele>20.8</ele>
        <time>2022-01-16T12:24:11Z</time>
      </trkpt>
      <trkpt lat="43.2374370" lon="-3.0031420">
        <ele>21.0</ele>
        <time>2022-01-16T12:24:12Z</time>
      </trkpt>
      <trkpt lat="43.2374680" lon="-3.0030470">
        <ele>21.2</ele>
        <time>2022-01-16T12:24:13Z</time>
      </trkpt>
      <trkpt lat="43.2375000" lon="-3.0029550">
        <ele>21.4</ele>
        <time>2022-01-16T12:24:14Z</time>
      </trkpt>
      <trkpt lat="43.2375270" lon="-3.0028650">
        <ele>21.8</ele>
        <time>2022-01-16T12:24:15Z</time>
      </trkpt>
      <trkpt lat="43.2375510" lon="-3.0027740">
        <ele>22.2</ele>
        <time>2022-01-16T12:24:16Z</time>
      </trkpt>
      <trkpt lat="43.2375710" lon="-3.0026850">
        <ele>22.6</ele>
        <time>2022-01-16T12:24:17Z</time>
      </trkpt>
      <trkpt lat="43.2375970" lon="-3.0025990">
        <ele>23.2</ele>
        <time>2022-01-16T12:24:18Z</time>
      </trkpt>
      <trkpt lat="43.2376200" lon="-3.0025120">
        <ele>23.6</ele>
        <time>2022-01-16T12:24:19Z</time>
      </trkpt>
      <trkpt lat="43.2376400" lon="-3.0024240">
        <ele>24.0</ele>
        <time>2022-01-16T12:24:20Z</time>
      </trkpt>
      <trkpt lat="43.2376560" lon="-3.0023360">
        <ele>24.4</ele>
        <time>2022-01-16T12:24:21Z</time>
      </trkpt>
      <trkpt lat="43.2376730" lon="-3.0022530">
        <ele>24.6</ele>
        <time>2022-01-16T12:24:22Z</time>
      </trkpt>
      <trkpt lat="43.2376990" lon="-3.0021690">
        <ele>24.8</ele>
        <time>2022-01-16T12:24:23Z</time>
      </trkpt>
      <trkpt lat="43.2377260" lon="-3.0020860">
        <ele>25.4</ele>
        <time>2022-01-16T12:24:24Z</time>
      </trkpt>
      <trkpt lat="43.2377520" lon="-3.0020040">
        <ele>26.2</ele>
        <time>2022-01-16T12:24:25Z</time>
      </trkpt>
      <trkpt lat="43.2377750" lon="-3.0019180">
        <ele>26.4</ele>
        <time>2022-01-16T12:24:26Z</time>
      </trkpt>
      <trkpt lat="43.2377990" lon="-3.0018340">
        <ele>26.8</ele>
        <time>2022-01-16T12:24:27Z</time>
      </trkpt>
      <trkpt lat="43.2378250" lon="-3.0017500">
        <ele>27.2</ele>
        <time>2022-01-16T12:24:28Z</time>
      </trkpt>
      <trkpt lat="43.2378550" lon="-3.0016670">
        <ele>27.8</ele>
        <time>2022-01-16T12:24:29Z</time>
      </trkpt>
      <trkpt lat="43.2378850" lon="-3.0015780">
        <ele>28.2</ele>
        <time>2022-01-16T12:24:30Z</time>
      </trkpt>
      <trkpt lat="43.2379180" lon="-3.0014890">
        <ele>28.4</ele>
        <time>2022-01-16T12:24:31Z</time>
      </trkpt>
      <trkpt lat="43.2379460" lon="-3.0013980">
        <ele>28.4</ele>
        <time>2022-01-16T12:24:32Z</time>
      </trkpt>
      <trkpt lat="43.2379830" lon="-3.0013090">
        <ele>28.6</ele>
        <time>2022-01-16T12:24:33Z</time>
      </trkpt>
      <trkpt lat="43.2380220" lon="-3.0012180">
        <ele>28.8</ele>
        <time>2022-01-16T12:24:34Z</time>
      </trkpt>
      <trkpt lat="43.2380570" lon="-3.0011230">
        <ele>28.8</ele>
        <time>2022-01-16T12:24:35Z</time>
      </trkpt>
      <trkpt lat="43.2380930" lon="-3.0010300">
        <ele>29.0</ele>
        <time>2022-01-16T12:24:36Z</time>
      </trkpt>
      <trkpt lat="43.2381250" lon="-3.0009360">
        <ele>29.0</ele>
        <time>2022-01-16T12:24:37Z</time>
      </trkpt>
      <trkpt lat="43.2381570" lon="-3.0008440">
        <ele>29.0</ele>
        <time>2022-01-16T12:24:38Z</time>
      </trkpt>
      <trkpt lat="43.2381940" lon="-3.0007540">
        <ele>29.4</ele>
        <time>2022-01-16T12:24:39Z</time>
      </trkpt>
      <trkpt lat="43.2382320" lon="-3.0006670">
        <ele>29.4</ele>
        <time>2022-01-16T12:24:40Z</time>
      </trkpt>
      <trkpt lat="43.2382740" lon="-3.0005820">
        <ele>29.6</ele>
        <time>2022-01-16T12:24:41Z</time>
      </trkpt>
      <trkpt lat="43.2383170" lon="-3.0004970">
        <ele>29.6</ele>
        <time>2022-01-16T12:24:42Z</time>
      </trkpt>
      <trkpt lat="43.2383600" lon="-3.0004150">
        <ele>29.6</ele>
        <time>2022-01-16T12:24:43Z</time>
      </trkpt>
      <trkpt lat="43.2383960" lon="-3.0003290">
        <ele>29.8</ele>
        <time>2022-01-16T12:24:44Z</time>
      </trkpt>
      <trkpt lat="43.2384390" lon="-3.0002470">
        <ele>30.2</ele>
        <time>2022-01-16T12:24:45Z</time>
      </trkpt>
      <trkpt lat="43.2384810" lon="-3.0001660">
        <ele>30.6</ele>
        <time>2022-01-16T12:24:46Z</time>
      </trkpt>
      <trkpt lat="43.2385230" lon="-3.0000850">
        <ele>30.8</ele>
        <time>2022-01-16T12:24:47Z</time>
      </trkpt>
      <trkpt lat="43.2385700" lon="-3.0000060">
        <ele>31.0</ele>
        <time>2022-01-16T12:24:48Z</time>
      </trkpt>
      <trkpt lat="43.2386210" lon="-2.9999300">
        <ele>31.2</ele>
        <time>2022-01-16T12:24:49Z</time>
      </trkpt>
      <trkpt lat="43.2386720" lon="-2.9998520">
        <ele>31.2</ele>
        <time>2022-01-16T12:24:50Z</time>
      </trkpt>
      <trkpt lat="43.2387290" lon="-2.9997790">
        <ele>31.2</ele>
        <time>2022-01-16T12:24:51Z</time>
      </trkpt>
      <trkpt lat="43.2387770" lon="-2.9996970">
        <ele>31.2</ele>
        <time>2022-01-16T12:24:52Z</time>
      </trkpt>
      <trkpt lat="43.2388300" lon="-2.9996160">
        <ele>31.2</ele>
        <time>2022-01-16T12:24:53Z</time>
      </trkpt>
      <trkpt lat="43.2388850" lon="-2.9995340">
        <ele>31.0</ele>
        <time>2022-01-16T12:24:54Z</time>
      </trkpt>
      <trkpt lat="43.2389410" lon="-2.9994510">
        <ele>31.0</ele>
        <time>2022-01-16T12:24:55Z</time>
      </trkpt>
      <trkpt lat="43.2389980" lon="-2.9993660">
        <ele>30.8</ele>
        <time>2022-01-16T12:24:56Z</time>
      </trkpt>
      <trkpt lat="43.2390580" lon="-2.9992800">
        <ele>30.4</ele>
        <time>2022-01-16T12:24:57Z</time>
      </trkpt>
      <trkpt lat="43.2391200" lon="-2.9991950">
        <ele>30.2</ele>
        <time>2022-01-16T12:24:58Z</time>
      </trkpt>
      <trkpt lat="43.2391730" lon="-2.9991020">
        <ele>29.8</ele>
        <time>2022-01-16T12:24:59Z</time>
      </trkpt>
      <trkpt lat="43.2392260" lon="-2.9990100">
        <ele>29.8</ele>
        <time>2022-01-16T12:25:00Z</time>
      </trkpt>
      <trkpt lat="43.2392740" lon="-2.9989170">
        <ele>29.6</ele>
        <time>2022-01-16T12:25:01Z</time>
      </trkpt>
      <trkpt lat="43.2393320" lon="-2.9988260">
        <ele>29.6</ele>
        <time>2022-01-16T12:25:02Z</time>
      </trkpt>
      <trkpt lat="43.2393930" lon="-2.9987350">
        <ele>29.2</ele>
        <time>2022-01-16T12:25:03Z</time>
      </trkpt>
      <trkpt lat="43.2394580" lon="-2.9986440">
        <ele>28.8</ele>
        <time>2022-01-16T12:25:04Z</time>
      </trkpt>
      <trkpt lat="43.2395210" lon="-2.9985500">
        <ele>28.6</ele>
        <time>2022-01-16T12:25:05Z</time>
      </trkpt>
      <trkpt lat="43.2395800" lon="-2.9984530">
        <ele>28.0</ele>
        <time>2022-01-16T12:25:06Z</time>
      </trkpt>
      <trkpt lat="43.2396420" lon="-2.9983540">
        <ele>27.8</ele>
        <time>2022-01-16T12:25:07Z</time>
      </trkpt>
      <trkpt lat="43.2396900" lon="-2.9982610">
        <ele>27.4</ele>
        <time>2022-01-16T12:25:08Z</time>
      </trkpt>
      <trkpt lat="43.2397470" lon="-2.9981560">
        <ele>27.0</ele>
        <time>2022-01-16T12:25:09Z</time>
      </trkpt>
      <trkpt lat="43.2397920" lon="-2.9980460">
        <ele>26.6</ele>
        <time>2022-01-16T12:25:10Z</time>
      </trkpt>
      <trkpt lat="43.2398440" lon="-2.9979380">
        <ele>26.2</ele>
        <time>2022-01-16T12:25:11Z</time>
      </trkpt>
      <trkpt lat="43.2398990" lon="-2.9978280">
        <ele>26.0</ele>
        <time>2022-01-16T12:25:12Z</time>
      </trkpt>
      <trkpt lat="43.2399540" lon="-2.9977190">
        <ele>25.8</ele>
        <time>2022-01-16T12:25:13Z</time>
      </trkpt>
      <trkpt lat="43.2400050" lon="-2.9976070">
        <ele>25.2</ele>
        <time>2022-01-16T12:25:14Z</time>
      </trkpt>
      <trkpt lat="43.2400560" lon="-2.9974930">
        <ele>25.0</ele>
        <time>2022-01-16T12:25:15Z</time>
      </trkpt>
      <trkpt lat="43.2401040" lon="-2.9973770">
        <ele>24.8</ele>
        <time>2022-01-16T12:25:16Z</time>
      </trkpt>
      <trkpt lat="43.2401520" lon="-2.9972620">
        <ele>24.6</ele>
        <time>2022-01-16T12:25:17Z</time>
      </trkpt>
      <trkpt lat="43.2401940" lon="-2.9971460">
        <ele>24.4</ele>
        <time>2022-01-16T12:25:18Z</time>
      </trkpt>
      <trkpt lat="43.2402350" lon="-2.9970340">
        <ele>24.2</ele>
        <time>2022-01-16T12:25:19Z</time>
      </trkpt>
      <trkpt lat="43.2402780" lon="-2.9969230">
        <ele>24.2</ele>
        <time>2022-01-16T12:25:20Z</time>
      </trkpt>
      <trkpt lat="43.2403250" lon="-2.9968140">
        <ele>24.0</ele>
        <time>2022-01-16T12:25:21Z</time>
      </trkpt>
      <trkpt lat="43.2403730" lon="-2.9967060">
        <ele>24.0</ele>
        <time>2022-01-16T12:25:22Z</time>
      </trkpt>
      <trkpt lat="43.2404220" lon="-2.9965970">
        <ele>23.6</ele>
        <time>2022-01-16T12:25:23Z</time>
      </trkpt>
      <trkpt lat="43.2404750" lon="-2.9964890">
        <ele>23.4</ele>
        <time>2022-01-16T12:25:24Z</time>
      </trkpt>
      <trkpt lat="43.2405300" lon="-2.9963850">
        <ele>23.2</ele>
        <time>2022-01-16T12:25:25Z</time>
      </trkpt>
      <trkpt lat="43.2405880" lon="-2.9962810">
        <ele>23.0</ele>
        <time>2022-01-16T12:25:26Z</time>
      </trkpt>
      <trkpt lat="43.2406430" lon="-2.9961750">
        <ele>22.6</ele>
        <time>2022-01-16T12:25:27Z</time>
      </trkpt>
      <trkpt lat="43.2406960" lon="-2.9960640">
        <ele>22.6</ele>
        <time>2022-01-16T12:25:28Z</time>
      </trkpt>
      <trkpt lat="43.2407480" lon="-2.9959510">
        <ele>22.2</ele>
        <time>2022-01-16T12:25:29Z</time>
      </trkpt>
      <trkpt lat="43.2407960" lon="-2.9958370">
        <ele>21.8</ele>
        <time>2022-01-16T12:25:30Z</time>
      </trkpt>
      <trkpt lat="43.2408440" lon="-2.9957240">
        <ele>21.6</ele>
        <time>2022-01-16T12:25:31Z</time>
      </trkpt>
      <trkpt lat="43.2408910" lon="-2.9956100">
        <ele>21.2</ele>
        <time>2022-01-16T12:25:32Z</time>
      </trkpt>
      <trkpt lat="43.2409420" lon="-2.9954970">
        <ele>20.8</ele>
        <time>2022-01-16T12:25:33Z</time>
      </trkpt>
      <trkpt lat="43.2409920" lon="-2.9953850">
        <ele>20.6</ele>
        <time>2022-01-16T12:25:34Z</time>
      </trkpt>
      <trkpt lat="43.2410470" lon="-2.9952780">
        <ele>20.4</ele>
        <time>2022-01-16T12:25:35Z</time>
      </trkpt>
      <trkpt lat="43.2411090" lon="-2.9951750">
        <ele>20.2</ele>
        <time>2022-01-16T12:25:36Z</time>
      </trkpt>
      <trkpt lat="43.2411730" lon="-2.9950780">
        <ele>19.8</ele>
        <time>2022-01-16T12:25:37Z</time>
      </trkpt>
      <trkpt lat="43.2412390" lon="-2.9949850">
        <ele>19.6</ele>
        <time>2022-01-16T12:25:38Z</time>
      </trkpt>
      <trkpt lat="43.2413020" lon="-2.9948910">
        <ele>19.4</ele>
        <time>2022-01-16T12:25:39Z</time>
      </trkpt>
      <trkpt lat="43.2413680" lon="-2.9947980">
        <ele>19.2</ele>
        <time>2022-01-16T12:25:40Z</time>
      </trkpt>
      <trkpt lat="43.2414360" lon="-2.9947070">
        <ele>19.0</ele>
        <time>2022-01-16T12:25:41Z</time>
      </trkpt>
      <trkpt lat="43.2415020" lon="-2.9946140">
        <ele>19.0</ele>
        <time>2022-01-16T12:25:42Z</time>
      </trkpt>
      <trkpt lat="43.2415700" lon="-2.9945250">
        <ele>18.8</ele>
        <time>2022-01-16T12:25:43Z</time>
      </trkpt>
      <trkpt lat="43.2416340" lon="-2.9944360">
        <ele>18.6</ele>
        <time>2022-01-16T12:25:44Z</time>
      </trkpt>
      <trkpt lat="43.2417020" lon="-2.9943480">
        <ele>18.6</ele>
        <time>2022-01-16T12:25:45Z</time>
      </trkpt>
      <trkpt lat="43.2417680" lon="-2.9942590">
        <ele>18.6</ele>
        <time>2022-01-16T12:25:46Z</time>
      </trkpt>
      <trkpt lat="43.2418350" lon="-2.9941710">
        <ele>18.6</ele>
        <time>2022-01-16T12:25:47Z</time>
      </trkpt>
      <trkpt lat="43.2418960" lon="-2.9940800">
        <ele>18.6</ele>
        <time>2022-01-16T12:25:48Z</time>
      </trkpt>
      <trkpt lat="43.2419590" lon="-2.9939900">
        <ele>18.4</ele>
        <time>2022-01-16T12:25:49Z</time>
      </trkpt>
      <trkpt lat="43.2420240" lon="-2.9939020">
        <ele>18.6</ele>
        <time>2022-01-16T12:25:50Z</time>
      </trkpt>
      <trkpt lat="43.2420870" lon="-2.9938100">
        <ele>18.4</ele>
        <time>2022-01-16T12:25:51Z</time>
      </trkpt>
      <trkpt lat="43.2421530" lon="-2.9937210">
        <ele>18.4</ele>
        <time>2022-01-16T12:25:52Z</time>
      </trkpt>
      <trkpt lat="43.2422180" lon="-2.9936300">
        <ele>18.2</ele>
        <time>2022-01-16T12:25:53Z</time>
      </trkpt>
      <trkpt lat="43.2422830" lon="-2.9935410">
        <ele>18.0</ele>
        <time>2022-01-16T12:25:54Z</time>
      </trkpt>
      <trkpt lat="43.2423500" lon="-2.9934530">
        <ele>17.8</ele>
        <time>2022-01-16T12:25:55Z</time>
      </trkpt>
      <trkpt lat="43.2424140" lon="-2.9933640">
        <ele>17.6</ele>
        <time>2022-01-16T12:25:56Z</time>
      </trkpt>
      <trkpt lat="43.2424790" lon="-2.9932780">
        <ele>17.6</ele>
        <time>2022-01-16T12:25:57Z</time>
      </trkpt>
      <trkpt lat="43.2425420" lon="-2.9931890">
        <ele>17.6</ele>
        <time>2022-01-16T12:25:58Z</time>
      </trkpt>
      <trkpt lat="43.2426070" lon="-2.9931000">
        <ele>17.6</ele>
        <time>2022-01-16T12:25:59Z</time>
      </trkpt>
      <trkpt lat="43.2426700" lon="-2.9930080">
        <ele>17.4</ele>
        <time>2022-01-16T12:26:00Z</time>
      </trkpt>
      <trkpt lat="43.2427320" lon="-2.9929170">
        <ele>17.4</ele>
        <time>2022-01-16T12:26:01Z</time>
      </trkpt>
      <trkpt lat="43.2427970" lon="-2.9928270">
        <ele>17.2</ele>
        <time>2022-01-16T12:26:02Z</time>
      </trkpt>
      <trkpt lat="43.2428600" lon="-2.9927370">
        <ele>17.2</ele>
        <time>2022-01-16T12:26:03Z</time>
      </trkpt>
      <trkpt lat="43.2429250" lon="-2.9926480">
        <ele>17.2</ele>
        <time>2022-01-16T12:26:04Z</time>
      </trkpt>
      <trkpt lat="43.2429870" lon="-2.9925580">
        <ele>17.2</ele>
        <time>2022-01-16T12:26:05Z</time>
      </trkpt>
      <trkpt lat="43.2430490" lon="-2.9924690">
        <ele>17.2</ele>
        <time>2022-01-16T12:26:06Z</time>
      </trkpt>
      <trkpt lat="43.2431120" lon="-2.9923800">
        <ele>17.2</ele>
        <time>2022-01-16T12:26:07Z</time>
      </trkpt>
      <trkpt lat="43.2431740" lon="-2.9922900">
        <ele>17.2</ele>
        <time>2022-01-16T12:26:08Z</time>
      </trkpt>
      <trkpt lat="43.2432340" lon="-2.9921990">
        <ele>17.0</ele>
        <time>2022-01-16T12:26:09Z</time>
      </trkpt>
      <trkpt lat="43.2432970" lon="-2.9921100">
        <ele>17.0</ele>
        <time>2022-01-16T12:26:10Z</time>
      </trkpt>
      <trkpt lat="43.2433600" lon="-2.9920250">
        <ele>16.8</ele>
        <time>2022-01-16T12:26:11Z</time>
      </trkpt>
      <trkpt lat="43.2434210" lon="-2.9919400">
        <ele>16.6</ele>
        <time>2022-01-16T12:26:12Z</time>
      </trkpt>
      <trkpt lat="43.2434820" lon="-2.9918540">
        <ele>16.4</ele>
        <time>2022-01-16T12:26:13Z</time>
      </trkpt>
      <trkpt lat="43.2435430" lon="-2.9917670">
        <ele>16.2</ele>
        <time>2022-01-16T12:26:14Z</time>
      </trkpt>
      <trkpt lat="43.2436050" lon="-2.9916800">
        <ele>16.2</ele>
        <time>2022-01-16T12:26:15Z</time>
      </trkpt>
      <trkpt lat="43.2436650" lon="-2.9915960">
        <ele>16.2</ele>
        <time>2022-01-16T12:26:16Z</time>
      </trkpt>
      <trkpt lat="43.2437250" lon="-2.9915090">
        <ele>16.4</ele>
        <time>2022-01-16T12:26:17Z</time>
      </trkpt>
      <trkpt lat="43.2437850" lon="-2.9914200">
        <ele>16.4</ele>
        <time>2022-01-16T12:26:18Z</time>
      </trkpt>
      <trkpt lat="43.2438450" lon="-2.9913340">
        <ele>16.4</ele>
        <time>2022-01-16T12:26:19Z</time>
      </trkpt>
      <trkpt lat="43.2439060" lon="-2.9912460">
        <ele>16.4</ele>
        <time>2022-01-16T12:26:20Z</time>
      </trkpt>
      <trkpt lat="43.2439650" lon="-2.9911620">
        <ele>16.6</ele>
        <time>2022-01-16T12:26:21Z</time>
      </trkpt>
      <trkpt lat="43.2440230" lon="-2.9910760">
        <ele>16.6</ele>
        <time>2022-01-16T12:26:22Z</time>
      </trkpt>
      <trkpt lat="43.2440810" lon="-2.9909930">
        <ele>16.6</ele>
        <time>2022-01-16T12:26:23Z</time>
      </trkpt>
      <trkpt lat="43.2441410" lon="-2.9909100">
        <ele>16.6</ele>
        <time>2022-01-16T12:26:24Z</time>
      </trkpt>
      <trkpt lat="43.2442000" lon="-2.9908300">
        <ele>16.8</ele>
        <time>2022-01-16T12:26:25Z</time>
      </trkpt>
      <trkpt lat="43.2442590" lon="-2.9907500">
        <ele>17.0</ele>
        <time>2022-01-16T12:26:26Z</time>
      </trkpt>
      <trkpt lat="43.2443140" lon="-2.9906700">
        <ele>17.2</ele>
        <time>2022-01-16T12:26:27Z</time>
      </trkpt>
      <trkpt lat="43.2443690" lon="-2.9905950">
        <ele>17.4</ele>
        <time>2022-01-16T12:26:28Z</time>
      </trkpt>
      <trkpt lat="43.2444250" lon="-2.9905180">
        <ele>17.4</ele>
        <time>2022-01-16T12:26:29Z</time>
      </trkpt>
      <trkpt lat="43.2444800" lon="-2.9904400">
        <ele>17.6</ele>
        <time>2022-01-16T12:26:30Z</time>
      </trkpt>
      <trkpt lat="43.2445350" lon="-2.9903630">
        <ele>17.6</ele>
        <time>2022-01-16T12:26:31Z</time>
      </trkpt>
      <trkpt lat="43.2445890" lon="-2.9902880">
        <ele>18.0</ele>
        <time>2022-01-16T12:26:32Z</time>
      </trkpt>
      <trkpt lat="43.2446430" lon="-2.9902150">
        <ele>18.2</ele>
        <time>2022-01-16T12:26:33Z</time>
      </trkpt>
      <trkpt lat="43.2446950" lon="-2.9901420">
        <ele>18.8</ele>
        <time>2022-01-16T12:26:34Z</time>
      </trkpt>
      <trkpt lat="43.2447450" lon="-2.9900680">
        <ele>19.0</ele>
        <time>2022-01-16T12:26:35Z</time>
      </trkpt>
      <trkpt lat="43.2447940" lon="-2.9899910">
        <ele>19.2</ele>
        <time>2022-01-16T12:26:36Z</time>
      </trkpt>
      <trkpt lat="43.2448390" lon="-2.9899120">
        <ele>19.4</ele>
        <time>2022-01-16T12:26:37Z</time>
      </trkpt>
      <trkpt lat="43.2448810" lon="-2.9898290">
        <ele>19.4</ele>
        <time>2022-01-16T12:26:38Z</time>
      </trkpt>
      <trkpt lat="43.2449230" lon="-2.9897440">
        <ele>19.6</ele>
        <time>2022-01-16T12:26:39Z</time>
      </trkpt>
      <trkpt lat="43.2449670" lon="-2.9896560">
        <ele>19.6</ele>
        <time>2022-01-16T12:26:40Z</time>
      </trkpt>
      <trkpt lat="43.2450050" lon="-2.9895630">
        <ele>19.8</ele>
        <time>2022-01-16T12:26:41Z</time>
      </trkpt>
      <trkpt lat="43.2450360" lon="-2.9894630">
        <ele>19.6</ele>
        <time>2022-01-16T12:26:42Z</time>
      </trkpt>
      <trkpt lat="43.2450630" lon="-2.9893550">
        <ele>19.4</ele>
        <time>2022-01-16T12:26:43Z</time>
      </trkpt>
      <trkpt lat="43.2450840" lon="-2.9892330">
        <ele>19.2</ele>
        <time>2022-01-16T12:26:44Z</time>
      </trkpt>
      <trkpt lat="43.2451070" lon="-2.9891060">
        <ele>18.8</ele>
        <time>2022-01-16T12:26:45Z</time>
      </trkpt>
      <trkpt lat="43.2451250" lon="-2.9889730">
        <ele>18.2</ele>
        <time>2022-01-16T12:26:46Z</time>
      </trkpt>
      <trkpt lat="43.2451400" lon="-2.9888370">
        <ele>17.6</ele>
        <time>2022-01-16T12:26:47Z</time>
      </trkpt>
      <trkpt lat="43.2451560" lon="-2.9886970">
        <ele>16.8</ele>
        <time>2022-01-16T12:26:48Z</time>
      </trkpt>
      <trkpt lat="43.2451750" lon="-2.9885570">
        <ele>16.0</ele>
        <time>2022-01-16T12:26:49Z</time>
      </trkpt>
      <trkpt lat="43.2451950" lon="-2.9884130">
        <ele>15.2</ele>
        <time>2022-01-16T12:26:50Z</time>
      </trkpt>
      <trkpt lat="43.2452160" lon="-2.9882660">
        <ele>14.6</ele>
        <time>2022-01-16T12:26:51Z</time>
      </trkpt>
      <trkpt lat="43.2452360" lon="-2.9881150">
        <ele>13.6</ele>
        <time>2022-01-16T12:26:52Z</time>
      </trkpt>
      <trkpt lat="43.2452570" lon="-2.9879650">
        <ele>12.6</ele>
        <time>2022-01-16T12:26:53Z</time>
      </trkpt>
      <trkpt lat="43.2452760" lon="-2.9878160">
        <ele>11.8</ele>
        <time>2022-01-16T12:26:54Z</time>
      </trkpt>
      <trkpt lat="43.2452970" lon="-2.9876760">
        <ele>11.2</ele>
        <time>2022-01-16T12:26:55Z</time>
      </trkpt>
      <trkpt lat="43.2453190" lon="-2.9875320">
        <ele>10.6</ele>
        <time>2022-01-16T12:26:56Z</time>
      </trkpt>
      <trkpt lat="43.2453390" lon="-2.9873890">
        <ele>10.2</ele>
        <time>2022-01-16T12:26:57Z</time>
      </trkpt>
      <trkpt lat="43.2453580" lon="-2.9872500">
        <ele>9.8</ele>
        <time>2022-01-16T12:26:58Z</time>
      </trkpt>
      <trkpt lat="43.2453810" lon="-2.9871110">
        <ele>9.6</ele>
        <time>2022-01-16T12:26:59Z</time>
      </trkpt>
      <trkpt lat="43.2454040" lon="-2.9869740">
        <ele>9.4</ele>
        <time>2022-01-16T12:27:00Z</time>
      </trkpt>
      <trkpt lat="43.2454240" lon="-2.9868390">
        <ele>9.2</ele>
        <time>2022-01-16T12:27:01Z</time>
      </trkpt>
      <trkpt lat="43.2454400" lon="-2.9867040">
        <ele>8.8</ele>
        <time>2022-01-16T12:27:02Z</time>
      </trkpt>
      <trkpt lat="43.2454600" lon="-2.9865670">
        <ele>8.8</ele>
        <time>2022-01-16T12:27:03Z</time>
      </trkpt>
      <trkpt lat="43.2454830" lon="-2.9864290">
        <ele>8.6</ele>
        <time>2022-01-16T12:27:04Z</time>
      </trkpt>
      <trkpt lat="43.2455030" lon="-2.9862930">
        <ele>8.4</ele>
        <time>2022-01-16T12:27:05Z</time>
      </trkpt>
      <trkpt lat="43.2455230" lon="-2.9861560">
        <ele>8.0</ele>
        <time>2022-01-16T12:27:06Z</time>
      </trkpt>
      <trkpt lat="43.2455400" lon="-2.9860220">
        <ele>7.8</ele>
        <time>2022-01-16T12:27:07Z</time>
      </trkpt>
      <trkpt lat="43.2455570" lon="-2.9858910">
        <ele>7.4</ele>
        <time>2022-01-16T12:27:08Z</time>
      </trkpt>
      <trkpt lat="43.2455770" lon="-2.9857580">
        <ele>7.4</ele>
        <time>2022-01-16T12:27:09Z</time>
      </trkpt>
      <trkpt lat="43.2456000" lon="-2.9856260">
        <ele>7.2</ele>
        <time>2022-01-16T12:27:10Z</time>
      </trkpt>
      <trkpt lat="43.2456200" lon="-2.9854910">
        <ele>6.8</ele>
        <time>2022-01-16T12:27:11Z</time>
      </trkpt>
      <trkpt lat="43.2456390" lon="-2.9853550">
        <ele>6.4</ele>
        <time>2022-01-16T12:27:12Z</time>
      </trkpt>
      <trkpt lat="43.2456600" lon="-2.9852270">
        <ele>6.2</ele>
        <time>2022-01-16T12:27:13Z</time>
      </trkpt>
      <trkpt lat="43.2456820" lon="-2.9850990">
        <ele>6.0</ele>
        <time>2022-01-16T12:27:14Z</time>
      </trkpt>
      <trkpt lat="43.2457000" lon="-2.9849740">
        <ele>6.0</ele>
        <time>2022-01-16T12:27:15Z</time>
      </trkpt>
      <trkpt lat="43.2457180" lon="-2.9848530">
        <ele>5.8</ele>
        <time>2022-01-16T12:27:16Z</time>
      </trkpt>
      <trkpt lat="43.2457280" lon="-2.9847340">
        <ele>5.8</ele>
        <time>2022-01-16T12:27:17Z</time>
      </trkpt>
      <trkpt lat="43.2457380" lon="-2.9846170">
        <ele>6.0</ele>
        <time>2022-01-16T12:27:18Z</time>
      </trkpt>
      <trkpt lat="43.2457480" lon="-2.9845040">
        <ele>6.2</ele>
        <time>2022-01-16T12:27:19Z</time>
      </trkpt>
      <trkpt lat="43.2457660" lon="-2.9843940">
        <ele>6.4</ele>
        <time>2022-01-16T12:27:20Z</time>
      </trkpt>
      <trkpt lat="43.2457890" lon="-2.9842900">
        <ele>7.0</ele>
        <time>2022-01-16T12:27:21Z</time>
      </trkpt>
      <trkpt lat="43.2458150" lon="-2.9841910">
        <ele>7.2</ele>
        <time>2022-01-16T12:27:22Z</time>
      </trkpt>
      <trkpt lat="43.2458420" lon="-2.9841000">
        <ele>7.6</ele>
        <time>2022-01-16T12:27:23Z</time>
      </trkpt>
      <trkpt lat="43.2458700" lon="-2.9840110">
        <ele>8.0</ele>
        <time>2022-01-16T12:27:24Z</time>
      </trkpt>
      <trkpt lat="43.2458970" lon="-2.9839240">
        <ele>8.4</ele>
        <time>2022-01-16T12:27:25Z</time>
      </trkpt>
      <trkpt lat="43.2459220" lon="-2.9838350">
        <ele>8.8</ele>
        <time>2022-01-16T12:27:26Z</time>
      </trkpt>
      <trkpt lat="43.2459520" lon="-2.9837410">
        <ele>8.8</ele>
        <time>2022-01-16T12:27:27Z</time>
      </trkpt>
      <trkpt lat="43.2459810" lon="-2.9836420">
        <ele>8.8</ele>
        <time>2022-01-16T12:27:28Z</time>
      </trkpt>
      <trkpt lat="43.2460080" lon="-2.9835340">
        <ele>8.8</ele>
        <time>2022-01-16T12:27:29Z</time>
      </trkpt>
      <trkpt lat="43.2460480" lon="-2.9834260">
        <ele>8.8</ele>
        <time>2022-01-16T12:27:30Z</time>
      </trkpt>
      <trkpt lat="43.2460890" lon="-2.9833170">
        <ele>8.6</ele>
        <time>2022-01-16T12:27:31Z</time>
      </trkpt>
      <trkpt lat="43.2461360" lon="-2.9832110">
        <ele>8.4</ele>
        <time>2022-01-16T12:27:32Z</time>
      </trkpt>
      <trkpt lat="43.2461820" lon="-2.9831080">
        <ele>8.4</ele>
        <time>2022-01-16T12:27:33Z</time>
      </trkpt>
      <trkpt lat="43.2462220" lon="-2.9829990">
        <ele>8.0</ele>
        <time>2022-01-16T12:27:34Z</time>
      </trkpt>
      <trkpt lat="43.2462480" lon="-2.9828890">
        <ele>7.6</ele>
        <time>2022-01-16T12:27:35Z</time>
      </trkpt>
      <trkpt lat="43.2462710" lon="-2.9827760">
        <ele>7.6</ele>
        <time>2022-01-16T12:27:36Z</time>
      </trkpt>
      <trkpt lat="43.2463000" lon="-2.9826620">
        <ele>7.4</ele>
        <time>2022-01-16T12:27:37Z</time>
      </trkpt>
      <trkpt lat="43.2463350" lon="-2.9825520">
        <ele>7.2</ele>
        <time>2022-01-16T12:27:38Z</time>
      </trkpt>
      <trkpt lat="43.2463730" lon="-2.9824440">
        <ele>7.2</ele>
        <time>2022-01-16T12:27:39Z</time>
      </trkpt>
      <trkpt lat="43.2464160" lon="-2.9823360">
        <ele>7.2</ele>
        <time>2022-01-16T12:27:40Z</time>
      </trkpt>
      <trkpt lat="43.2464640" lon="-2.9822270">
        <ele>7.0</ele>
        <time>2022-01-16T12:27:41Z</time>
      </trkpt>
      <trkpt lat="43.2465090" lon="-2.9821190">
        <ele>6.8</ele>
        <time>2022-01-16T12:27:42Z</time>
      </trkpt>
      <trkpt lat="43.2465510" lon="-2.9820070">
        <ele>6.4</ele>
        <time>2022-01-16T12:27:43Z</time>
      </trkpt>
      <trkpt lat="43.2465890" lon="-2.9818950">
        <ele>6.4</ele>
        <time>2022-01-16T12:27:44Z</time>
      </trkpt>
      <trkpt lat="43.2466280" lon="-2.9817840">
        <ele>6.2</ele>
        <time>2022-01-16T12:27:45Z</time>
      </trkpt>
      <trkpt lat="43.2466600" lon="-2.9816730">
        <ele>5.8</ele>
        <time>2022-01-16T12:27:46Z</time>
      </trkpt>
      <trkpt lat="43.2466920" lon="-2.9815670">
        <ele>5.6</ele>
        <time>2022-01-16T12:27:47Z</time>
      </trkpt>
      <trkpt lat="43.2467280" lon="-2.9814590">
        <ele>5.6</ele>
        <time>2022-01-16T12:27:48Z</time>
      </trkpt>
      <trkpt lat="43.2467670" lon="-2.9813510">
        <ele>5.6</ele>
        <time>2022-01-16T12:27:49Z</time>
      </trkpt>
      <trkpt lat="43.2468060" lon="-2.9812450">
        <ele>5.6</ele>
        <time>2022-01-16T12:27:50Z</time>
      </trkpt>
      <trkpt lat="43.2468430" lon="-2.9811430">
        <ele>5.6</ele>
        <time>2022-01-16T12:27:51Z</time>
      </trkpt>
      <trkpt lat="43.2468820" lon="-2.9810400">
        <ele>5.8</ele>
        <time>2022-01-16T12:27:52Z</time>
      </trkpt>
      <trkpt lat="43.2469200" lon="-2.9809320">
        <ele>5.8</ele>
        <time>2022-01-16T12:27:53Z</time>
      </trkpt>
      <trkpt lat="43.2469580" lon="-2.9808220">
        <ele>5.8</ele>
        <time>2022-01-16T12:27:54Z</time>
      </trkpt>
      <trkpt lat="43.2470020" lon="-2.9807210">
        <ele>5.6</ele>
        <time>2022-01-16T12:27:55Z</time>
      </trkpt>
      <trkpt lat="43.2470470" lon="-2.9806200">
        <ele>5.6</ele>
        <time>2022-01-16T12:27:56Z</time>
      </trkpt>
      <trkpt lat="43.2470860" lon="-2.9805170">
        <ele>5.6</ele>
        <time>2022-01-16T12:27:57Z</time>
      </trkpt>
      <trkpt lat="43.2471220" lon="-2.9804100">
        <ele>5.6</ele>
        <time>2022-01-16T12:27:58Z</time>
      </trkpt>
      <trkpt lat="43.2471600" lon="-2.9803010">
        <ele>5.4</ele>
        <time>2022-01-16T12:27:59Z</time>
      </trkpt>
      <trkpt lat="43.2471980" lon="-2.9801910">
        <ele>5.4</ele>
        <time>2022-01-16T12:28:00Z</time>
      </trkpt>
      <trkpt lat="43.2472350" lon="-2.9800810">
        <ele>5.2</ele>
        <time>2022-01-16T12:28:01Z</time>
      </trkpt>
      <trkpt lat="43.2472700" lon="-2.9799700">
        <ele>5.2</ele>
        <time>2022-01-16T12:28:02Z</time>
      </trkpt>
      <trkpt lat="43.2473060" lon="-2.9798600">
        <ele>5.0</ele>
        <time>2022-01-16T12:28:03Z</time>
      </trkpt>
      <trkpt lat="43.2473410" lon="-2.9797520">
        <ele>4.8</ele>
        <time>2022-01-16T12:28:04Z</time>
      </trkpt>
      <trkpt lat="43.2473780" lon="-2.9796450">
        <ele>4.6</ele>
        <time>2022-01-16T12:28:05Z</time>
      </trkpt>
      <trkpt lat="43.2474150" lon="-2.9795400">
        <ele>4.4</ele>
        <time>2022-01-16T12:28:06Z</time>
      </trkpt>
      <trkpt lat="43.2474550" lon="-2.9794320">
        <ele>4.4</ele>
        <time>2022-01-16T12:28:07Z</time>
      </trkpt>
      <trkpt lat="43.2474930" lon="-2.9793240">
        <ele>4.2</ele>
        <time>2022-01-16T12:28:08Z</time>
      </trkpt>
      <trkpt lat="43.2475280" lon="-2.9792140">
        <ele>4.2</ele>
        <time>2022-01-16T12:28:09Z</time>
      </trkpt>
      <trkpt lat="43.2475640" lon="-2.9791030">
        <ele>4.4</ele>
        <time>2022-01-16T12:28:10Z</time>
      </trkpt>
      <trkpt lat="43.2476060" lon="-2.9789810">
        <ele>4.4</ele>
        <time>2022-01-16T12:28:11Z</time>
      </trkpt>
      <trkpt lat="43.2476360" lon="-2.9788660">
        <ele>4.4</ele>
        <time>2022-01-16T12:28:12Z</time>
      </trkpt>
      <trkpt lat="43.2476520" lon="-2.9787530">
        <ele>4.6</ele>
        <time>2022-01-16T12:28:13Z</time>
      </trkpt>
      <trkpt lat="43.2476600" lon="-2.9786390">
        <ele>4.6</ele>
        <time>2022-01-16T12:28:14Z</time>
      </trkpt>
      <trkpt lat="43.2476710" lon="-2.9785260">
        <ele>4.8</ele>
        <time>2022-01-16T12:28:15Z</time>
      </trkpt>
      <trkpt lat="43.2476930" lon="-2.9784190">
        <ele>5.0</ele>
        <time>2022-01-16T12:28:16Z</time>
      </trkpt>
      <trkpt lat="43.2477290" lon="-2.9783220">
        <ele>5.2</ele>
        <time>2022-01-16T12:28:17Z</time>
      </trkpt>
      <trkpt lat="43.2477720" lon="-2.9782320">
        <ele>5.4</ele>
        <time>2022-01-16T12:28:18Z</time>
      </trkpt>
      <trkpt lat="43.2478190" lon="-2.9781490">
        <ele>5.6</ele>
        <time>2022-01-16T12:28:19Z</time>
      </trkpt>
      <trkpt lat="43.2478670" lon="-2.9780720">
        <ele>5.8</ele>
        <time>2022-01-16T12:28:20Z</time>
      </trkpt>
      <trkpt lat="43.2479150" lon="-2.9779970">
        <ele>6.0</ele>
        <time>2022-01-16T12:28:21Z</time>
      </trkpt>
      <trkpt lat="43.2479610" lon="-2.9779270">
        <ele>6.2</ele>
        <time>2022-01-16T12:28:22Z</time>
      </trkpt>
      <trkpt lat="43.2480090" lon="-2.9778610">
        <ele>6.6</ele>
        <time>2022-01-16T12:28:23Z</time>
      </trkpt>
      <trkpt lat="43.2480570" lon="-2.9778010">
        <ele>7.2</ele>
        <time>2022-01-16T12:28:24Z</time>
      </trkpt>
      <trkpt lat="43.2481060" lon="-2.9777450">
        <ele>7.6</ele>
        <time>2022-01-16T12:28:25Z</time>
      </trkpt>
      <trkpt lat="43.2481550" lon="-2.9776890">
        <ele>8.0</ele>
        <time>2022-01-16T12:28:26Z</time>
      </trkpt>
      <trkpt lat="43.2482090" lon="-2.9776330">
        <ele>8.6</ele>
        <time>2022-01-16T12:28:27Z</time>
      </trkpt>
      <trkpt lat="43.2482650" lon="-2.9775810">
        <ele>8.8</ele>
        <time>2022-01-16T12:28:28Z</time>
      </trkpt>
      <trkpt lat="43.2483210" lon="-2.9775300">
        <ele>9.0</ele>
        <time>2022-01-16T12:28:29Z</time>
      </trkpt>
      <trkpt lat="43.2483730" lon="-2.9774800">
        <ele>9.2</ele>
        <time>2022-01-16T12:28:30Z</time>
      </trkpt>
      <trkpt lat="43.2484340" lon="-2.9774330">
        <ele>9.4</ele>
        <time>2022-01-16T12:28:31Z</time>
      </trkpt>
      <trkpt lat="43.2484930" lon="-2.9773840">
        <ele>9.4</ele>
        <time>2022-01-16T12:28:32Z</time>
      </trkpt>
      <trkpt lat="43.2485540" lon="-2.9773330">
        <ele>9.4</ele>
        <time>2022-01-16T12:28:33Z</time>
      </trkpt>
      <trkpt lat="43.2486170" lon="-2.9772840">
        <ele>9.8</ele>
        <time>2022-01-16T12:28:34Z</time>
      </trkpt>
      <trkpt lat="43.2486790" lon="-2.9772390">
        <ele>9.8</ele>
        <time>2022-01-16T12:28:35Z</time>
      </trkpt>
      <trkpt lat="43.2487400" lon="-2.9771950">
        <ele>9.6</ele>
        <time>2022-01-16T12:28:36Z</time>
      </trkpt>
      <trkpt lat="43.2488020" lon="-2.9771540">
        <ele>10.0</ele>
        <time>2022-01-16T12:28:37Z</time>
      </trkpt>
      <trkpt lat="43.2488630" lon="-2.9771070">
        <ele>10.0</ele>
        <time>2022-01-16T12:28:38Z</time>
      </trkpt>
      <trkpt lat="43.2489220" lon="-2.9770540">
        <ele>10.2</ele>
        <time>2022-01-16T12:28:39Z</time>
      </trkpt>
      <trkpt lat="43.2489810" lon="-2.9769990">
        <ele>10.4</ele>
        <time>2022-01-16T12:28:40Z</time>
      </trkpt>
      <trkpt lat="43.2490330" lon="-2.9769430">
        <ele>10.6</ele>
        <time>2022-01-16T12:28:41Z</time>
      </trkpt>
      <trkpt lat="43.2490880" lon="-2.9768830">
        <ele>10.6</ele>
        <time>2022-01-16T12:28:42Z</time>
      </trkpt>
      <trkpt lat="43.2491470" lon="-2.9768200">
        <ele>10.8</ele>
        <time>2022-01-16T12:28:43Z</time>
      </trkpt>
      <trkpt lat="43.2492020" lon="-2.9767500">
        <ele>10.8</ele>
        <time>2022-01-16T12:28:44Z</time>
      </trkpt>
      <trkpt lat="43.2492540" lon="-2.9766740">
        <ele>10.8</ele>
        <time>2022-01-16T12:28:45Z</time>
      </trkpt>
      <trkpt lat="43.2493020" lon="-2.9766000">
        <ele>10.8</ele>
        <time>2022-01-16T12:28:46Z</time>
      </trkpt>
      <trkpt lat="43.2493540" lon="-2.9765220">
        <ele>10.8</ele>
        <time>2022-01-16T12:28:47Z</time>
      </trkpt>
      <trkpt lat="43.2494070" lon="-2.9764440">
        <ele>10.8</ele>
        <time>2022-01-16T12:28:48Z</time>
      </trkpt>
      <trkpt lat="43.2494570" lon="-2.9763660">
        <ele>10.6</ele>
        <time>2022-01-16T12:28:49Z</time>
      </trkpt>
      <trkpt lat="43.2495030" lon="-2.9762890">
        <ele>10.6</ele>
        <time>2022-01-16T12:28:50Z</time>
      </trkpt>
      <trkpt lat="43.2495520" lon="-2.9762100">
        <ele>10.6</ele>
        <time>2022-01-16T12:28:51Z</time>
      </trkpt>
      <trkpt lat="43.2496010" lon="-2.9761270">
        <ele>10.4</ele>
        <time>2022-01-16T12:28:52Z</time>
      </trkpt>
      <trkpt lat="43.2496490" lon="-2.9760420">
        <ele>10.2</ele>
        <time>2022-01-16T12:28:53Z</time>
      </trkpt>
      <trkpt lat="43.2497010" lon="-2.9759550">
        <ele>10.0</ele>
        <time>2022-01-16T12:28:54Z</time>
      </trkpt>
      <trkpt lat="43.2497530" lon="-2.9758690">
        <ele>9.8</ele>
        <time>2022-01-16T12:28:55Z</time>
      </trkpt>
      <trkpt lat="43.2498070" lon="-2.9757840">
        <ele>9.6</ele>
        <time>2022-01-16T12:28:56Z</time>
      </trkpt>
      <trkpt lat="43.2498640" lon="-2.9756970">
        <ele>9.4</ele>
        <time>2022-01-16T12:28:57Z</time>
      </trkpt>
      <trkpt lat="43.2499170" lon="-2.9756060">
        <ele>9.4</ele>
        <time>2022-01-16T12:28:58Z</time>
      </trkpt>
      <trkpt lat="43.2499680" lon="-2.9755140">
        <ele>9.4</ele>
        <time>2022-01-16T12:28:59Z</time>
      </trkpt>
      <trkpt lat="43.2500290" lon="-2.9754200">
        <ele>9.2</ele>
        <time>2022-01-16T12:29:00Z</time>
      </trkpt>
      <trkpt lat="43.2500830" lon="-2.9753300">
        <ele>9.2</ele>
        <time>2022-01-16T12:29:01Z</time>
      </trkpt>
      <trkpt lat="43.2501330" lon="-2.9752470">
        <ele>9.2</ele>
        <time>2022-01-16T12:29:02Z</time>
      </trkpt>
      <trkpt lat="43.2501850" lon="-2.9751700">
        <ele>9.2</ele>
        <time>2022-01-16T12:29:03Z</time>
      </trkpt>
      <trkpt lat="43.2502460" lon="-2.9750950">
        <ele>9.2</ele>
        <time>2022-01-16T12:29:04Z</time>
      </trkpt>
      <trkpt lat="43.2503110" lon="-2.9750190">
        <ele>9.0</ele>
        <time>2022-01-16T12:29:05Z</time>
      </trkpt>
      <trkpt lat="43.2503820" lon="-2.9749360">
        <ele>8.8</ele>
        <time>2022-01-16T12:29:06Z</time>
      </trkpt>
      <trkpt lat="43.2504500" lon="-2.9748550">
        <ele>8.6</ele>
        <time>2022-01-16T12:29:07Z</time>
      </trkpt>
      <trkpt lat="43.2505220" lon="-2.9747720">
        <ele>8.2</ele>
        <time>2022-01-16T12:29:08Z</time>
      </trkpt>
      <trkpt lat="43.2505930" lon="-2.9746900">
        <ele>8.0</ele>
        <time>2022-01-16T12:29:09Z</time>
      </trkpt>
      <trkpt lat="43.2506630" lon="-2.9746050">
        <ele>7.6</ele>
        <time>2022-01-16T12:29:10Z</time>
      </trkpt>
      <trkpt lat="43.2507310" lon="-2.9745200">
        <ele>7.0</ele>
        <time>2022-01-16T12:29:11Z</time>
      </trkpt>
      <trkpt lat="43.2507930" lon="-2.9744340">
        <ele>6.4</ele>
        <time>2022-01-16T12:29:12Z</time>
      </trkpt>
      <trkpt lat="43.2508560" lon="-2.9743470">
        <ele>6.2</ele>
        <time>2022-01-16T12:29:13Z</time>
      </trkpt>
      <trkpt lat="43.2509310" lon="-2.9742680">
        <ele>6.0</ele>
        <time>2022-01-16T12:29:14Z</time>
      </trkpt>
      <trkpt lat="43.2509920" lon="-2.9741850">
        <ele>5.8</ele>
        <time>2022-01-16T12:29:15Z</time>
      </trkpt>
      <trkpt lat="43.2510620" lon="-2.9741140">
        <ele>5.6</ele>
        <time>2022-01-16T12:29:16Z</time>
      </trkpt>
      <trkpt lat="43.2511230" lon="-2.9740410">
        <ele>5.2</ele>
        <time>2022-01-16T12:29:17Z</time>
      </trkpt>
      <trkpt lat="43.2512000" lon="-2.9739770">
        <ele>4.6</ele>
        <time>2022-01-16T12:29:18Z</time>
      </trkpt>
      <trkpt lat="43.2512690" lon="-2.9739190">
        <ele>4.2</ele>
        <time>2022-01-16T12:29:19Z</time>
      </trkpt>
      <trkpt lat="43.2513360" lon="-2.9738650">
        <ele>3.6</ele>
        <time>2022-01-16T12:29:20Z</time>
      </trkpt>
      <trkpt lat="43.2514090" lon="-2.9738210">
        <ele>3.4</ele>
        <time>2022-01-16T12:29:21Z</time>
      </trkpt>
      <trkpt lat="43.2514860" lon="-2.9737780">
        <ele>3.4</ele>
        <time>2022-01-16T12:29:22Z</time>
      </trkpt>
      <trkpt lat="43.2515770" lon="-2.9737440">
        <ele>3.4</ele>
        <time>2022-01-16T12:29:23Z</time>
      </trkpt>
      <trkpt lat="43.2516680" lon="-2.9737260">
        <ele>3.2</ele>
        <time>2022-01-16T12:29:24Z</time>
      </trkpt>
      <trkpt lat="43.2517680" lon="-2.9737240">
        <ele>3.2</ele>
        <time>2022-01-16T12:29:25Z</time>
      </trkpt>
      <trkpt lat="43.2518720" lon="-2.9737290">
        <ele>3.2</ele>
        <time>2022-01-16T12:29:26Z</time>
      </trkpt>
      <trkpt lat="43.2519780" lon="-2.9737390">
        <ele>3.4</ele>
        <time>2022-01-16T12:29:27Z</time>
      </trkpt>
      <trkpt lat="43.2520790" lon="-2.9737550">
        <ele>3.6</ele>
        <time>2022-01-16T12:29:28Z</time>
      </trkpt>
      <trkpt lat="43.2521860" lon="-2.9737590">
        <ele>3.6</ele>
        <time>2022-01-16T12:29:29Z</time>
      </trkpt>
      <trkpt lat="43.2522860" lon="-2.9737630">
        <ele>3.8</ele>
        <time>2022-01-16T12:29:30Z</time>
      </trkpt>
      <trkpt lat="43.2523870" lon="-2.9737740">
        <ele>4.0</ele>
        <time>2022-01-16T12:29:31Z</time>
      </trkpt>
      <trkpt lat="43.2524790" lon="-2.9737840">
        <ele>4.2</ele>
        <time>2022-01-16T12:29:32Z</time>
      </trkpt>
      <trkpt lat="43.2525710" lon="-2.9737910">
        <ele>4.2</ele>
        <time>2022-01-16T12:29:33Z</time>
      </trkpt>
      <trkpt lat="43.2526600" lon="-2.9737880">
        <ele>4.4</ele>
        <time>2022-01-16T12:29:34Z</time>
      </trkpt>
      <trkpt lat="43.2527450" lon="-2.9737830">
        <ele>4.6</ele>
        <time>2022-01-16T12:29:35Z</time>
      </trkpt>
      <trkpt lat="43.2528290" lon="-2.9737800">
        <ele>4.8</ele>
        <time>2022-01-16T12:29:36Z</time>
      </trkpt>
      <trkpt lat="43.2529150" lon="-2.9737760">
        <ele>5.0</ele>
        <time>2022-01-16T12:29:37Z</time>
      </trkpt>
      <trkpt lat="43.2529950" lon="-2.9737840">
        <ele>5.2</ele>
        <time>2022-01-16T12:29:38Z</time>
      </trkpt>
      <trkpt lat="43.2530700" lon="-2.9737870">
        <ele>5.4</ele>
        <time>2022-01-16T12:29:39Z</time>
      </trkpt>
      <trkpt lat="43.2531510" lon="-2.9737830">
        <ele>5.8</ele>
        <time>2022-01-16T12:29:40Z</time>
      </trkpt>
      <trkpt lat="43.2532260" lon="-2.9737890">
        <ele>6.2</ele>
        <time>2022-01-16T12:29:41Z</time>
      </trkpt>
      <trkpt lat="43.2532990" lon="-2.9737840">
        <ele>6.6</ele>
        <time>2022-01-16T12:29:42Z</time>
      </trkpt>
      <trkpt lat="43.2533680" lon="-2.9737910">
        <ele>6.8</ele>
        <time>2022-01-16T12:29:43Z</time>
      </trkpt>
      <trkpt lat="43.2534400" lon="-2.9737850">
        <ele>7.2</ele>
        <time>2022-01-16T12:29:44Z</time>
      </trkpt>
      <trkpt lat="43.2535100" lon="-2.9737670">
        <ele>7.6</ele>
        <time>2022-01-16T12:29:45Z</time>
      </trkpt>
      <trkpt lat="43.2535750" lon="-2.9737360">
        <ele>8.0</ele>
        <time>2022-01-16T12:29:46Z</time>
      </trkpt>
      <trkpt lat="43.2536300" lon="-2.9736870">
        <ele>8.4</ele>
        <time>2022-01-16T12:29:47Z</time>
      </trkpt>
      <trkpt lat="43.2536790" lon="-2.9736260">
        <ele>8.8</ele>
        <time>2022-01-16T12:29:48Z</time>
      </trkpt>
      <trkpt lat="43.2537230" lon="-2.9735530">
        <ele>9.0</ele>
        <time>2022-01-16T12:29:49Z</time>
      </trkpt>
      <trkpt lat="43.2537690" lon="-2.9734870">
        <ele>9.2</ele>
        <time>2022-01-16T12:29:50Z</time>
      </trkpt>
      <trkpt lat="43.2538280" lon="-2.9734370">
        <ele>9.6</ele>
        <time>2022-01-16T12:29:51Z</time>
      </trkpt>
      <trkpt lat="43.2538880" lon="-2.9734150">
        <ele>9.8</ele>
        <time>2022-01-16T12:29:52Z</time>
      </trkpt>
      <trkpt lat="43.2539440" lon="-2.9734160">
        <ele>10.0</ele>
        <time>2022-01-16T12:29:53Z</time>
      </trkpt>
      <trkpt lat="43.2539970" lon="-2.9734390">
        <ele>10.2</ele>
        <time>2022-01-16T12:29:54Z</time>
      </trkpt>
      <trkpt lat="43.2540480" lon="-2.9734670">
        <ele>10.6</ele>
        <time>2022-01-16T12:29:55Z</time>
      </trkpt>
      <trkpt lat="43.2541040" lon="-2.9734870">
        <ele>10.6</ele>
        <time>2022-01-16T12:29:56Z</time>
      </trkpt>
      <trkpt lat="43.2541610" lon="-2.9734800">
        <ele>10.8</ele>
        <time>2022-01-16T12:29:57Z</time>
      </trkpt>
      <trkpt lat="43.2542140" lon="-2.9734440">
        <ele>11.2</ele>
        <time>2022-01-16T12:29:58Z</time>
      </trkpt>
      <trkpt lat="43.2542690" lon="-2.9733890">
        <ele>11.4</ele>
        <time>2022-01-16T12:29:59Z</time>
      </trkpt>
      <trkpt lat="43.2543260" lon="-2.9733320">
        <ele>11.6</ele>
        <time>2022-01-16T12:30:00Z</time>
      </trkpt>
      <trkpt lat="43.2543790" lon="-2.9732710">
        <ele>11.8</ele>
        <time>2022-01-16T12:30:01Z</time>
      </trkpt>
      <trkpt lat="43.2544350" lon="-2.9732040">
        <ele>11.8</ele>
        <time>2022-01-16T12:30:02Z</time>
      </trkpt>
      <trkpt lat="43.2544900" lon="-2.9731330">
        <ele>11.8</ele>
        <time>2022-01-16T12:30:03Z</time>
      </trkpt>
      <trkpt lat="43.2545460" lon="-2.9730560">
        <ele>11.8</ele>
        <time>2022-01-16T12:30:04Z</time>
      </trkpt>
      <trkpt lat="43.2546000" lon="-2.9729720">
        <ele>11.8</ele>
        <time>2022-01-16T12:30:05Z</time>
      </trkpt>
      <trkpt lat="43.2546510" lon="-2.9728870">
        <ele>11.8</ele>
        <time>2022-01-16T12:30:06Z</time>
      </trkpt>
      <trkpt lat="43.2547050" lon="-2.9728030">
        <ele>11.8</ele>
        <time>2022-01-16T12:30:07Z</time>
      </trkpt>
      <trkpt lat="43.2547600" lon="-2.9727190">
        <ele>11.8</ele>
        <time>2022-01-16T12:30:08Z</time>
      </trkpt>
      <trkpt lat="43.2548150" lon="-2.9726310">
        <ele>11.6</ele>
        <time>2022-01-16T12:30:09Z</time>
      </trkpt>
      <trkpt lat="43.2548680" lon="-2.9725380">
        <ele>11.4</ele>
        <time>2022-01-16T12:30:10Z</time>
      </trkpt>
      <trkpt lat="43.2549180" lon="-2.9724410">
        <ele>11.2</ele>
        <time>2022-01-16T12:30:11Z</time>
      </trkpt>
      <trkpt lat="43.2549690" lon="-2.9723450">
        <ele>11.0</ele>
        <time>2022-01-16T12:30:12Z</time>
      </trkpt>
      <trkpt lat="43.2550200" lon="-2.9722470">
        <ele>10.6</ele>
        <time>2022-01-16T12:30:13Z</time>
      </trkpt>
      <trkpt lat="43.2550690" lon="-2.9721470">
        <ele>10.4</ele>
        <time>2022-01-16T12:30:14Z</time>
      </trkpt>
      <trkpt lat="43.2551180" lon="-2.9720450">
        <ele>10.0</ele>
        <time>2022-01-16T12:30:15Z</time>
      </trkpt>
      <trkpt lat="43.2551700" lon="-2.9719430">
        <ele>9.8</ele>
        <time>2022-01-16T12:30:16Z</time>
      </trkpt>
      <trkpt lat="43.2552230" lon="-2.9718390">
        <ele>9.6</ele>
        <time>2022-01-16T12:30:17Z</time>
      </trkpt>
      <trkpt lat="43.2552730" lon="-2.9717340">
        <ele>9.2</ele>
        <time>2022-01-16T12:30:18Z</time>
      </trkpt>
      <trkpt lat="43.2553220" lon="-2.9716290">
        <ele>9.0</ele>
        <time>2022-01-16T12:30:19Z</time>
      </trkpt>
      <trkpt lat="43.2553720" lon="-2.9715230">
        <ele>8.8</ele>
        <time>2022-01-16T12:30:20Z</time>
      </trkpt>
      <trkpt lat="43.2554280" lon="-2.9714240">
        <ele>8.6</ele>
        <time>2022-01-16T12:30:21Z</time>
      </trkpt>
      <trkpt lat="43.2554920" lon="-2.9713310">
        <ele>8.2</ele>
        <time>2022-01-16T12:30:22Z</time>
      </trkpt>
      <trkpt lat="43.2555630" lon="-2.9712450">
        <ele>8.0</ele>
        <time>2022-01-16T12:30:23Z</time>
      </trkpt>
      <trkpt lat="43.2556400" lon="-2.9711640">
        <ele>7.8</ele>
        <time>2022-01-16T12:30:24Z</time>
      </trkpt>
      <trkpt lat="43.2557260" lon="-2.9710900">
        <ele>7.6</ele>
        <time>2022-01-16T12:30:25Z</time>
      </trkpt>
      <trkpt lat="43.2558150" lon="-2.9710260">
        <ele>7.0</ele>
        <time>2022-01-16T12:30:26Z</time>
      </trkpt>
      <trkpt lat="43.2559080" lon="-2.9709710">
        <ele>6.8</ele>
        <time>2022-01-16T12:30:27Z</time>
      </trkpt>
      <trkpt lat="43.2560030" lon="-2.9709220">
        <ele>6.2</ele>
        <time>2022-01-16T12:30:28Z</time>
      </trkpt>
      <trkpt lat="43.2561040" lon="-2.9708760">
        <ele>5.8</ele>
        <time>2022-01-16T12:30:29Z</time>
      </trkpt>
      <trkpt lat="43.2562060" lon="-2.9708280">
        <ele>5.4</ele>
        <time>2022-01-16T12:30:30Z</time>
      </trkpt>
      <trkpt lat="43.2563020" lon="-2.9707870">
        <ele>5.2</ele>
        <time>2022-01-16T12:30:31Z</time>
      </trkpt>
      <trkpt lat="43.2564010" lon="-2.9707480">
        <ele>5.0</ele>
        <time>2022-01-16T12:30:32Z</time>
      </trkpt>
      <trkpt lat="43.2564990" lon="-2.9707080">
        <ele>4.8</ele>
        <time>2022-01-16T12:30:33Z</time>
      </trkpt>
      <trkpt lat="43.2565940" lon="-2.9706690">
        <ele>4.8</ele>
        <time>2022-01-16T12:30:34Z</time>
      </trkpt>
      <trkpt lat="43.2566860" lon="-2.9706270">
        <ele>4.8</ele>
        <time>2022-01-16T12:30:35Z</time>
      </trkpt>
      <trkpt lat="43.2567720" lon="-2.9705840">
        <ele>5.0</ele>
        <time>2022-01-16T12:30:36Z</time>
      </trkpt>
      <trkpt lat="43.2568570" lon="-2.9705390">
        <ele>5.0</ele>
        <time>2022-01-16T12:30:37Z</time>
      </trkpt>
      <trkpt lat="43.2569390" lon="-2.9705020">
        <ele>5.2</ele>
        <time>2022-01-16T12:30:38Z</time>
      </trkpt>
      <trkpt lat="43.2570190" lon="-2.9704630">
        <ele>5.4</ele>
        <time>2022-01-16T12:30:39Z</time>
      </trkpt>
      <trkpt lat="43.2570990" lon="-2.9704190">
        <ele>5.6</ele>
        <time>2022-01-16T12:30:40Z</time>
      </trkpt>
      <trkpt lat="43.2571770" lon="-2.9703660">
        <ele>5.8</ele>
        <time>2022-01-16T12:30:41Z</time>
      </trkpt>
      <trkpt lat="43.2572520" lon="-2.9703080">
        <ele>6.0</ele>
        <time>2022-01-16T12:30:42Z</time>
      </trkpt>
      <trkpt lat="43.2573240" lon="-2.9702450">
        <ele>6.2</ele>
        <time>2022-01-16T12:30:43Z</time>
      </trkpt>
      <trkpt lat="43.2573930" lon="-2.9701820">
        <ele>6.2</ele>
        <time>2022-01-16T12:30:44Z</time>
      </trkpt>
      <trkpt lat="43.2574580" lon="-2.9701290">
        <ele>6.2</ele>
        <time>2022-01-16T12:30:45Z</time>
      </trkpt>
      <trkpt lat="43.2575300" lon="-2.9700590">
        <ele>6.2</ele>
        <time>2022-01-16T12:30:46Z</time>
      </trkpt>
      <trkpt lat="43.2575980" lon="-2.9699950">
        <ele>6.8</ele>
        <time>2022-01-16T12:30:47Z</time>
      </trkpt>
      <trkpt lat="43.2576690" lon="-2.9699260">
        <ele>7.2</ele>
        <time>2022-01-16T12:30:48Z</time>
      </trkpt>
      <trkpt lat="43.2577360" lon="-2.9698680">
        <ele>7.6</ele>
        <time>2022-01-16T12:30:49Z</time>
      </trkpt>
      <trkpt lat="43.2578050" lon="-2.9698170">
        <ele>7.8</ele>
        <time>2022-01-16T12:30:50Z</time>
      </trkpt>
      <trkpt lat="43.2578790" lon="-2.9697730">
        <ele>8.0</ele>
        <time>2022-01-16T12:30:51Z</time>
      </trkpt>
      <trkpt lat="43.2579550" lon="-2.9697340">
        <ele>8.0</ele>
        <time>2022-01-16T12:30:52Z</time>
      </trkpt>
      <trkpt lat="43.2580320" lon="-2.9696930">
        <ele>8.2</ele>
        <time>2022-01-16T12:30:53Z</time>
      </trkpt>
      <trkpt lat="43.2581100" lon="-2.9696550">
        <ele>8.4</ele>
        <time>2022-01-16T12:30:54Z</time>
      </trkpt>
      <trkpt lat="43.2581870" lon="-2.9696230">
        <ele>8.4</ele>
        <time>2022-01-16T12:30:55Z</time>
      </trkpt>
      <trkpt lat="43.2582650" lon="-2.9695950">
        <ele>8.2</ele>
        <time>2022-01-16T12:30:56Z</time>
      </trkpt>
      <trkpt lat="43.2583460" lon="-2.9695930">
        <ele>8.4</ele>
        <time>2022-01-16T12:30:57Z</time>
      </trkpt>
      <trkpt lat="43.2584290" lon="-2.9695970">
        <ele>8.6</ele>
        <time>2022-01-16T12:30:58Z</time>
      </trkpt>
      <trkpt lat="43.2585130" lon="-2.9696190">
        <ele>8.6</ele>
        <time>2022-01-16T12:30:59Z</time>
      </trkpt>
      <trkpt lat="43.2585960" lon="-2.9696530">
        <ele>8.8</ele>
        <time>2022-01-16T12:31:00Z</time>
      </trkpt>
      <trkpt lat="43.2586810" lon="-2.9696910">
        <ele>8.8</ele>
        <time>2022-01-16T12:31:01Z</time>
      </trkpt>
      <trkpt lat="43.2587630" lon="-2.9697310">
        <ele>8.8</ele>
        <time>2022-01-16T12:31:02Z</time>
      </trkpt>
      <trkpt lat="43.2588560" lon="-2.9697760">
        <ele>8.8</ele>
        <time>2022-01-16T12:31:03Z</time>
      </trkpt>
      <trkpt lat="43.2589420" lon="-2.9698220">
        <ele>8.8</ele>
        <time>2022-01-16T12:31:04Z</time>
      </trkpt>
      <trkpt lat="43.2590270" lon="-2.9698630">
        <ele>9.0</ele>
        <time>2022-01-16T12:31:05Z</time>
      </trkpt>
      <trkpt lat="43.2591050" lon="-2.9699210">
        <ele>9.2</ele>
        <time>2022-01-16T12:31:06Z</time>
      </trkpt>
      <trkpt lat="43.2591910" lon="-2.9699630">
        <ele>9.2</ele>
        <time>2022-01-16T12:31:07Z</time>
      </trkpt>
      <trkpt lat="43.2592790" lon="-2.9699980">
        <ele>9.4</ele>
        <time>2022-01-16T12:31:08Z</time>
      </trkpt>
      <trkpt lat="43.2593700" lon="-2.9700270">
        <ele>9.4</ele>
        <time>2022-01-16T12:31:09Z</time>
      </trkpt>
      <trkpt lat="43.2594630" lon="-2.9700510">
        <ele>9.4</ele>
        <time>2022-01-16T12:31:10Z</time>
      </trkpt>
      <trkpt lat="43.2595580" lon="-2.9700690">
        <ele>9.2</ele>
        <time>2022-01-16T12:31:11Z</time>
      </trkpt>
      <trkpt lat="43.2596520" lon="-2.9700840">
        <ele>9.2</ele>
        <time>2022-01-16T12:31:12Z</time>
      </trkpt>
      <trkpt lat="43.2597450" lon="-2.9700970">
        <ele>9.8</ele>
        <time>2022-01-16T12:31:13Z</time>
      </trkpt>
      <trkpt lat="43.2598340" lon="-2.9701140">
        <ele>10.4</ele>
        <time>2022-01-16T12:31:14Z</time>
      </trkpt>
      <trkpt lat="43.2599250" lon="-2.9701260">
        <ele>10.4</ele>
        <time>2022-01-16T12:31:15Z</time>
      </trkpt>
      <trkpt lat="43.2600140" lon="-2.9701400">
        <ele>10.6</ele>
        <time>2022-01-16T12:31:16Z</time>
      </trkpt>
      <trkpt lat="43.2601060" lon="-2.9701570">
        <ele>10.6</ele>
        <time>2022-01-16T12:31:17Z</time>
      </trkpt>
      <trkpt lat="43.2601960" lon="-2.9701810">
        <ele>10.6</ele>
        <time>2022-01-16T12:31:18Z</time>
      </trkpt>
      <trkpt lat="43.2602790" lon="-2.9702230">
        <ele>10.4</ele>
        <time>2022-01-16T12:31:19Z</time>
      </trkpt>
      <trkpt lat="43.2603640" lon="-2.9702720">
        <ele>10.6</ele>
        <time>2022-01-16T12:31:20Z</time>
      </trkpt>
      <trkpt lat="43.2604470" lon="-2.9703290">
        <ele>10.6</ele>
        <time>2022-01-16T12:31:21Z</time>
      </trkpt>
      <trkpt lat="43.2605320" lon="-2.9703890">
        <ele>10.6</ele>
        <time>2022-01-16T12:31:22Z</time>
      </trkpt>
      <trkpt lat="43.2606130" lon="-2.9704470">
        <ele>11.0</ele>
        <time>2022-01-16T12:31:23Z</time>
      </trkpt>
      <trkpt lat="43.2606920" lon="-2.9705020">
        <ele>11.4</ele>
        <time>2022-01-16T12:31:24Z</time>
      </trkpt>
      <trkpt lat="43.2607630" lon="-2.9705700">
        <ele>12.0</ele>
        <time>2022-01-16T12:31:25Z</time>
      </trkpt>
      <trkpt lat="43.2608360" lon="-2.9706480">
        <ele>12.4</ele>
        <time>2022-01-16T12:31:26Z</time>
      </trkpt>
      <trkpt lat="43.2608970" lon="-2.9707450">
        <ele>12.6</ele>
        <time>2022-01-16T12:31:27Z</time>
      </trkpt>
      <trkpt lat="43.2609610" lon="-2.9708360">
        <ele>12.8</ele>
        <time>2022-01-16T12:31:28Z</time>
      </trkpt>
      <trkpt lat="43.2610250" lon="-2.9709310">
        <ele>13.0</ele>
        <time>2022-01-16T12:31:29Z</time>
      </trkpt>
      <trkpt lat="43.2610880" lon="-2.9710240">
        <ele>13.2</ele>
        <time>2022-01-16T12:31:30Z</time>
      </trkpt>
      <trkpt lat="43.2611490" lon="-2.9711140">
        <ele>13.4</ele>
        <time>2022-01-16T12:31:31Z</time>
      </trkpt>
      <trkpt lat="43.2612120" lon="-2.9712080">
        <ele>13.6</ele>
        <time>2022-01-16T12:31:32Z</time>
      </trkpt>
      <trkpt lat="43.2612740" lon="-2.9713010">
        <ele>14.0</ele>
        <time>2022-01-16T12:31:33Z</time>
      </trkpt>
      <trkpt lat="43.2613440" lon="-2.9713960">
        <ele>14.2</ele>
        <time>2022-01-16T12:31:34Z</time>
      </trkpt>
      <trkpt lat="43.2614100" lon="-2.9714820">
        <ele>14.2</ele>
        <time>2022-01-16T12:31:35Z</time>
      </trkpt>
      <trkpt lat="43.2614760" lon="-2.9715690">
        <ele>14.4</ele>
        <time>2022-01-16T12:31:36Z</time>
      </trkpt>
      <trkpt lat="43.2615440" lon="-2.9716520">
        <ele>14.6</ele>
        <time>2022-01-16T12:31:37Z</time>
      </trkpt>
      <trkpt lat="43.2616380" lon="-2.9717730">
        <ele>14.8</ele>
        <time>2022-01-16T12:31:38Z</time>
      </trkpt>
      <trkpt lat="43.2617170" lon="-2.9718430">
        <ele>15.2</ele>
        <time>2022-01-16T12:31:39Z</time>
      </trkpt>
      <trkpt lat="43.2617970" lon="-2.9719080">
        <ele>15.4</ele>
        <time>2022-01-16T12:31:40Z</time>
      </trkpt>
      <trkpt lat="43.2618750" lon="-2.9719710">
        <ele>15.6</ele>
        <time>2022-01-16T12:31:41Z</time>
      </trkpt>
      <trkpt lat="43.2619470" lon="-2.9720430">
        <ele>16.0</ele>
        <time>2022-01-16T12:31:42Z</time>
      </trkpt>
      <trkpt lat="43.2620150" lon="-2.9721230">
        <ele>16.4</ele>
        <time>2022-01-16T12:31:43Z</time>
      </trkpt>
      <trkpt lat="43.2620780" lon="-2.9722240">
        <ele>17.0</ele>
        <time>2022-01-16T12:31:44Z</time>
      </trkpt>
      <trkpt lat="43.2621390" lon="-2.9723210">
        <ele>17.2</ele>
        <time>2022-01-16T12:31:45Z</time>
      </trkpt>
      <trkpt lat="43.2621890" lon="-2.9724350">
        <ele>17.4</ele>
        <time>2022-01-16T12:31:46Z</time>
      </trkpt>
      <trkpt lat="43.2622430" lon="-2.9725360">
        <ele>17.6</ele>
        <time>2022-01-16T12:31:47Z</time>
      </trkpt>
      <trkpt lat="43.2622940" lon="-2.9726370">
        <ele>17.6</ele>
        <time>2022-01-16T12:31:48Z</time>
      </trkpt>
      <trkpt lat="43.2623420" lon="-2.9727380">
        <ele>17.8</ele>
        <time>2022-01-16T12:31:49Z</time>
      </trkpt>
      <trkpt lat="43.2623890" lon="-2.9728420">
        <ele>18.0</ele>
        <time>2022-01-16T12:31:50Z</time>
      </trkpt>
      <trkpt lat="43.2624410" lon="-2.9729490">
        <ele>18.2</ele>
        <time>2022-01-16T12:31:51Z</time>
      </trkpt>
      <trkpt lat="43.2624970" lon="-2.9730640">
        <ele>18.4</ele>
        <time>2022-01-16T12:31:52Z</time>
      </trkpt>
      <trkpt lat="43.2625510" lon="-2.9731700">
        <ele>18.6</ele>
        <time>2022-01-16T12:31:53Z</time>
      </trkpt>
      <trkpt lat="43.2626060" lon="-2.9732710">
        <ele>18.8</ele>
        <time>2022-01-16T12:31:54Z</time>
      </trkpt>
      <trkpt lat="43.2626700" lon="-2.9733620">
        <ele>18.8</ele>
        <time>2022-01-16T12:31:55Z</time>
      </trkpt>
      <trkpt lat="43.2627420" lon="-2.9734400">
        <ele>19.0</ele>
        <time>2022-01-16T12:31:56Z</time>
      </trkpt>
      <trkpt lat="43.2628170" lon="-2.9735080">
        <ele>19.2</ele>
        <time>2022-01-16T12:31:57Z</time>
      </trkpt>
      <trkpt lat="43.2628960" lon="-2.9735690">
        <ele>19.6</ele>
        <time>2022-01-16T12:31:58Z</time>
      </trkpt>
      <trkpt lat="43.2629740" lon="-2.9736420">
        <ele>19.8</ele>
        <time>2022-01-16T12:31:59Z</time>
      </trkpt>
      <trkpt lat="43.2630620" lon="-2.9737000">
        <ele>19.8</ele>
        <time>2022-01-16T12:32:00Z</time>
      </trkpt>
      <trkpt lat="43.2631520" lon="-2.9737500">
        <ele>20.0</ele>
        <time>2022-01-16T12:32:01Z</time>
      </trkpt>
      <trkpt lat="43.2632410" lon="-2.9737950">
        <ele>20.0</ele>
        <time>2022-01-16T12:32:02Z</time>
      </trkpt>
      <trkpt lat="43.2633310" lon="-2.9738310">
        <ele>19.8</ele>
        <time>2022-01-16T12:32:03Z</time>
      </trkpt>
      <trkpt lat="43.2634240" lon="-2.9738530">
        <ele>19.8</ele>
        <time>2022-01-16T12:32:04Z</time>
      </trkpt>
      <trkpt lat="43.2635180" lon="-2.9738680">
        <ele>19.6</ele>
        <time>2022-01-16T12:32:05Z</time>
      </trkpt>
      <trkpt lat="43.2636120" lon="-2.9738740">
        <ele>19.6</ele>
        <time>2022-01-16T12:32:06Z</time>
      </trkpt>
      <trkpt lat="43.2637060" lon="-2.9738700">
        <ele>19.6</ele>
        <time>2022-01-16T12:32:07Z</time>
      </trkpt>
      <trkpt lat="43.2638020" lon="-2.9738440">
        <ele>19.6</ele>
        <time>2022-01-16T12:32:08Z</time>
      </trkpt>
      <trkpt lat="43.2638950" lon="-2.9738080">
        <ele>19.6</ele>
        <time>2022-01-16T12:32:09Z</time>
      </trkpt>
      <trkpt lat="43.2639850" lon="-2.9737640">
        <ele>19.6</ele>
        <time>2022-01-16T12:32:10Z</time>
      </trkpt>
      <trkpt lat="43.2640740" lon="-2.9737170">
        <ele>19.6</ele>
        <time>2022-01-16T12:32:11Z</time>
      </trkpt>
      <trkpt lat="43.2641650" lon="-2.9736700">
        <ele>19.6</ele>
        <time>2022-01-16T12:32:12Z</time>
      </trkpt>
      <trkpt lat="43.2642550" lon="-2.9736220">
        <ele>19.8</ele>
        <time>2022-01-16T12:32:13Z</time>
      </trkpt>
      <trkpt lat="43.2643440" lon="-2.9735670">
        <ele>19.8</ele>
        <time>2022-01-16T12:32:14Z</time>
      </trkpt>
      <trkpt lat="43.2644330" lon="-2.9735000">
        <ele>19.8</ele>
        <time>2022-01-16T12:32:15Z</time>
      </trkpt>
      <trkpt lat="43.2645230" lon="-2.9734240">
        <ele>19.6</ele>
        <time>2022-01-16T12:32:16Z</time>
      </trkpt>
      <trkpt lat="43.2646060" lon="-2.9733440">
        <ele>19.4</ele>
        <time>2022-01-16T12:32:17Z</time>
      </trkpt>
      <trkpt lat="43.2646850" lon="-2.9732580">
        <ele>19.4</ele>
        <time>2022-01-16T12:32:18Z</time>
      </trkpt>
      <trkpt lat="43.2647630" lon="-2.9731690">
        <ele>19.4</ele>
        <time>2022-01-16T12:32:19Z</time>
      </trkpt>
      <trkpt lat="43.2648440" lon="-2.9730850">
        <ele>19.2</ele>
        <time>2022-01-16T12:32:20Z</time>
      </trkpt>
      <trkpt lat="43.2649300" lon="-2.9730080">
        <ele>19.2</ele>
        <time>2022-01-16T12:32:21Z</time>
      </trkpt>
      <trkpt lat="43.2650200" lon="-2.9729340">
        <ele>19.2</ele>
        <time>2022-01-16T12:32:22Z</time>
      </trkpt>
      <trkpt lat="43.2651090" lon="-2.9728670">
        <ele>19.0</ele>
        <time>2022-01-16T12:32:23Z</time>
      </trkpt>
      <trkpt lat="43.2651940" lon="-2.9728000">
        <ele>18.8</ele>
        <time>2022-01-16T12:32:24Z</time>
      </trkpt>
      <trkpt lat="43.2652790" lon="-2.9727330">
        <ele>18.6</ele>
        <time>2022-01-16T12:32:25Z</time>
      </trkpt>
      <trkpt lat="43.2653690" lon="-2.9726710">
        <ele>18.6</ele>
        <time>2022-01-16T12:32:26Z</time>
      </trkpt>
      <trkpt lat="43.2654590" lon="-2.9726060">
        <ele>18.6</ele>
        <time>2022-01-16T12:32:27Z</time>
      </trkpt>
      <trkpt lat="43.2655530" lon="-2.9725470">
        <ele>18.6</ele>
        <time>2022-01-16T12:32:28Z</time>
      </trkpt>
      <trkpt lat="43.2656510" lon="-2.9724980">
        <ele>18.6</ele>
        <time>2022-01-16T12:32:29Z</time>
      </trkpt>
      <trkpt lat="43.2657510" lon="-2.9724580">
        <ele>18.4</ele>
        <time>2022-01-16T12:32:30Z</time>
      </trkpt>
      <trkpt lat="43.2658590" lon="-2.9724300">
        <ele>18.2</ele>
        <time>2022-01-16T12:32:31Z</time>
      </trkpt>
      <trkpt lat="43.2659680" lon="-2.9724200">
        <ele>18.0</ele>
        <time>2022-01-16T12:32:32Z</time>
      </trkpt>
      <trkpt lat="43.2660780" lon="-2.9724270">
        <ele>17.8</ele>
        <time>2022-01-16T12:32:33Z</time>
      </trkpt>
      <trkpt lat="43.2661860" lon="-2.9724470">
        <ele>17.8</ele>
        <time>2022-01-16T12:32:34Z</time>
      </trkpt>
      <trkpt lat="43.2662930" lon="-2.9724810">
        <ele>17.8</ele>
        <time>2022-01-16T12:32:35Z</time>
      </trkpt>
      <trkpt lat="43.2664000" lon="-2.9725180">
        <ele>18.0</ele>
        <time>2022-01-16T12:32:36Z</time>
      </trkpt>
      <trkpt lat="43.2665090" lon="-2.9725560">
        <ele>17.8</ele>
        <time>2022-01-16T12:32:37Z</time>
      </trkpt>
      <trkpt lat="43.2666210" lon="-2.9725970">
        <ele>17.8</ele>
        <time>2022-01-16T12:32:38Z</time>
      </trkpt>
      <trkpt lat="43.2667300" lon="-2.9726350">
        <ele>17.6</ele>
        <time>2022-01-16T12:32:39Z</time>
      </trkpt>
      <trkpt lat="43.2668440" lon="-2.9726710">
        <ele>17.0</ele>
        <time>2022-01-16T12:32:40Z</time>
      </trkpt>
      <trkpt lat="43.2669600" lon="-2.9727050">
        <ele>16.4</ele>
        <time>2022-01-16T12:32:41Z</time>
      </trkpt>
      <trkpt lat="43.2670780" lon="-2.9727380">
        <ele>15.8</ele>
        <time>2022-01-16T12:32:42Z</time>
      </trkpt>
      <trkpt lat="43.2671970" lon="-2.9727670">
        <ele>15.6</ele>
        <time>2022-01-16T12:32:43Z</time>
      </trkpt>
      <trkpt lat="43.2673170" lon="-2.9727930">
        <ele>15.2</ele>
        <time>2022-01-16T12:32:44Z</time>
      </trkpt>
      <trkpt lat="43.2674410" lon="-2.9728120">
        <ele>14.8</ele>
        <time>2022-01-16T12:32:45Z</time>
      </trkpt>
      <trkpt lat="43.2675640" lon="-2.9728300">
        <ele>14.4</ele>
        <time>2022-01-16T12:32:46Z</time>
      </trkpt>
      <trkpt lat="43.2676890" lon="-2.9728560">
        <ele>14.2</ele>
        <time>2022-01-16T12:32:47Z</time>
      </trkpt>
      <trkpt lat="43.2678110" lon="-2.9728900">
        <ele>14.2</ele>
        <time>2022-01-16T12:32:48Z</time>
      </trkpt>
      <trkpt lat="43.2679320" lon="-2.9729340">
        <ele>14.0</ele>
        <time>2022-01-16T12:32:49Z</time>
      </trkpt>
      <trkpt lat="43.2680520" lon="-2.9729870">
        <ele>14.0</ele>
        <time>2022-01-16T12:32:50Z</time>
      </trkpt>
      <trkpt lat="43.2681740" lon="-2.9730400">
        <ele>14.2</ele>
        <time>2022-01-16T12:32:51Z</time>
      </trkpt>
      <trkpt lat="43.2682940" lon="-2.9730930">
        <ele>14.2</ele>
        <time>2022-01-16T12:32:52Z</time>
      </trkpt>
      <trkpt lat="43.2684150" lon="-2.9731520">
        <ele>14.2</ele>
        <time>2022-01-16T12:32:53Z</time>
      </trkpt>
      <trkpt lat="43.2685370" lon="-2.9732120">
        <ele>13.8</ele>
        <time>2022-01-16T12:32:54Z</time>
      </trkpt>
      <trkpt lat="43.2686580" lon="-2.9732700">
        <ele>14.0</ele>
        <time>2022-01-16T12:32:55Z</time>
      </trkpt>
      <trkpt lat="43.2687790" lon="-2.9733260">
        <ele>14.0</ele>
        <time>2022-01-16T12:32:56Z</time>
      </trkpt>
      <trkpt lat="43.2688970" lon="-2.9733860">
        <ele>13.8</ele>
        <time>2022-01-16T12:32:57Z</time>
      </trkpt>
      <trkpt lat="43.2690130" lon="-2.9734520">
        <ele>13.8</ele>
        <time>2022-01-16T12:32:58Z</time>
      </trkpt>
      <trkpt lat="43.2691320" lon="-2.9735160">
        <ele>14.0</ele>
        <time>2022-01-16T12:32:59Z</time>
      </trkpt>
      <trkpt lat="43.2692490" lon="-2.9735830">
        <ele>14.0</ele>
        <time>2022-01-16T12:33:00Z</time>
      </trkpt>
      <trkpt lat="43.2693690" lon="-2.9736510">
        <ele>14.0</ele>
        <time>2022-01-16T12:33:01Z</time>
      </trkpt>
      <trkpt lat="43.2694840" lon="-2.9737210">
        <ele>14.0</ele>
        <time>2022-01-16T12:33:02Z</time>
      </trkpt>
      <trkpt lat="43.2695970" lon="-2.9737910">
        <ele>14.2</ele>
        <time>2022-01-16T12:33:03Z</time>
      </trkpt>
      <trkpt lat="43.2697070" lon="-2.9738600">
        <ele>14.2</ele>
        <time>2022-01-16T12:33:04Z</time>
      </trkpt>
      <trkpt lat="43.2698140" lon="-2.9739260">
        <ele>14.0</ele>
        <time>2022-01-16T12:33:05Z</time>
      </trkpt>
      <trkpt lat="43.2699230" lon="-2.9739920">
        <ele>14.0</ele>
        <time>2022-01-16T12:33:06Z</time>
      </trkpt>
      <trkpt lat="43.2700280" lon="-2.9740570">
        <ele>14.0</ele>
        <time>2022-01-16T12:33:07Z</time>
      </trkpt>
      <trkpt lat="43.2701310" lon="-2.9741230">
        <ele>14.0</ele>
        <time>2022-01-16T12:33:08Z</time>
      </trkpt>
      <trkpt lat="43.2702340" lon="-2.9741840">
        <ele>14.0</ele>
        <time>2022-01-16T12:33:09Z</time>
      </trkpt>
      <trkpt lat="43.2703320" lon="-2.9742410">
        <ele>13.8</ele>
        <time>2022-01-16T12:33:10Z</time>
      </trkpt>
      <trkpt lat="43.2704310" lon="-2.9742950">
        <ele>13.6</ele>
        <time>2022-01-16T12:33:11Z</time>
      </trkpt>
      <trkpt lat="43.2705290" lon="-2.9743500">
        <ele>13.6</ele>
        <time>2022-01-16T12:33:12Z</time>
      </trkpt>
      <trkpt lat="43.2706310" lon="-2.9743900">
        <ele>13.6</ele>
        <time>2022-01-16T12:33:13Z</time>
      </trkpt>
      <trkpt lat="43.2707320" lon="-2.9744220">
        <ele>13.4</ele>
        <time>2022-01-16T12:33:14Z</time>
      </trkpt>
      <trkpt lat="43.2708350" lon="-2.9744430">
        <ele>13.2</ele>
        <time>2022-01-16T12:33:15Z</time>
      </trkpt>
      <trkpt lat="43.2709360" lon="-2.9744570">
        <ele>13.4</ele>
        <time>2022-01-16T12:33:16Z</time>
      </trkpt>
      <trkpt lat="43.2710370" lon="-2.9744660">
        <ele>13.2</ele>
        <time>2022-01-16T12:33:17Z</time>
      </trkpt>
      <trkpt lat="43.2711350" lon="-2.9744690">
        <ele>13.0</ele>
        <time>2022-01-16T12:33:18Z</time>
      </trkpt>
      <trkpt lat="43.2712350" lon="-2.9744670">
        <ele>12.8</ele>
        <time>2022-01-16T12:33:19Z</time>
      </trkpt>
      <trkpt lat="43.2713310" lon="-2.9744670">
        <ele>12.8</ele>
        <time>2022-01-16T12:33:20Z</time>
      </trkpt>
      <trkpt lat="43.2714200" lon="-2.9744650">
        <ele>12.6</ele>
        <time>2022-01-16T12:33:21Z</time>
      </trkpt>
      <trkpt lat="43.2715100" lon="-2.9744400">
        <ele>12.6</ele>
        <time>2022-01-16T12:33:22Z</time>
      </trkpt>
      <trkpt lat="43.2715920" lon="-2.9744170">
        <ele>12.6</ele>
        <time>2022-01-16T12:33:23Z</time>
      </trkpt>
      <trkpt lat="43.2716730" lon="-2.9743990">
        <ele>12.6</ele>
        <time>2022-01-16T12:33:24Z</time>
      </trkpt>
      <trkpt lat="43.2717520" lon="-2.9743760">
        <ele>12.6</ele>
        <time>2022-01-16T12:33:25Z</time>
      </trkpt>
      <trkpt lat="43.2718310" lon="-2.9743520">
        <ele>12.6</ele>
        <time>2022-01-16T12:33:26Z</time>
      </trkpt>
      <trkpt lat="43.2719080" lon="-2.9743280">
        <ele>12.4</ele>
        <time>2022-01-16T12:33:27Z</time>
      </trkpt>
      <trkpt lat="43.2719830" lon="-2.9743000">
        <ele>12.2</ele>
        <time>2022-01-16T12:33:28Z</time>
      </trkpt>
      <trkpt lat="43.2720570" lon="-2.9742780">
        <ele>12.0</ele>
        <time>2022-01-16T12:33:29Z</time>
      </trkpt>
      <trkpt lat="43.2721300" lon="-2.9742470">
        <ele>12.0</ele>
        <time>2022-01-16T12:33:30Z</time>
      </trkpt>
      <trkpt lat="43.2721980" lon="-2.9742250">
        <ele>11.8</ele>
        <time>2022-01-16T12:33:31Z</time>
      </trkpt>
      <trkpt lat="43.2722670" lon="-2.9741960">
        <ele>11.8</ele>
        <time>2022-01-16T12:33:32Z</time>
      </trkpt>
      <trkpt lat="43.2723360" lon="-2.9741780">
        <ele>11.6</ele>
        <time>2022-01-16T12:33:33Z</time>
      </trkpt>
      <trkpt lat="43.2724040" lon="-2.9741580">
        <ele>11.6</ele>
        <time>2022-01-16T12:33:34Z</time>
      </trkpt>
      <trkpt lat="43.2724790" lon="-2.9741430">
        <ele>11.4</ele>
        <time>2022-01-16T12:33:35Z</time>
      </trkpt>
      <trkpt lat="43.2725500" lon="-2.9741270">
        <ele>11.4</ele>
        <time>2022-01-16T12:33:36Z</time>
      </trkpt>
      <trkpt lat="43.2726250" lon="-2.9741100">
        <ele>11.2</ele>
        <time>2022-01-16T12:33:37Z</time>
      </trkpt>
      <trkpt lat="43.2727030" lon="-2.9740960">
        <ele>11.2</ele>
        <time>2022-01-16T12:33:38Z</time>
      </trkpt>
      <trkpt lat="43.2727800" lon="-2.9740690">
        <ele>11.0</ele>
        <time>2022-01-16T12:33:39Z</time>
      </trkpt>
      <trkpt lat="43.2728570" lon="-2.9740520">
        <ele>10.6</ele>
        <time>2022-01-16T12:33:40Z</time>
      </trkpt>
      <trkpt lat="43.2729310" lon="-2.9740330">
        <ele>10.4</ele>
        <time>2022-01-16T12:33:41Z</time>
      </trkpt>
      <trkpt lat="43.2730060" lon="-2.9740150">
        <ele>10.4</ele>
        <time>2022-01-16T12:33:42Z</time>
      </trkpt>
      <trkpt lat="43.2730880" lon="-2.9740040">
        <ele>10.2</ele>
        <time>2022-01-16T12:33:43Z</time>
      </trkpt>
      <trkpt lat="43.2731670" lon="-2.9739940">
        <ele>10.0</ele>
        <time>2022-01-16T12:33:44Z</time>
      </trkpt>
      <trkpt lat="43.2732470" lon="-2.9739890">
        <ele>10.0</ele>
        <time>2022-01-16T12:33:45Z</time>
      </trkpt>
      <trkpt lat="43.2733220" lon="-2.9739860">
        <ele>10.0</ele>
        <time>2022-01-16T12:33:46Z</time>
      </trkpt>
      <trkpt lat="43.2733960" lon="-2.9739860">
        <ele>10.0</ele>
        <time>2022-01-16T12:33:47Z</time>
      </trkpt>
      <trkpt lat="43.2734680" lon="-2.9739800">
        <ele>10.0</ele>
        <time>2022-01-16T12:33:48Z</time>
      </trkpt>
      <trkpt lat="43.2735410" lon="-2.9739800">
        <ele>9.8</ele>
        <time>2022-01-16T12:33:49Z</time>
      </trkpt>
      <trkpt lat="43.2736130" lon="-2.9739740">
        <ele>9.8</ele>
        <time>2022-01-16T12:33:50Z</time>
      </trkpt>
      <trkpt lat="43.2736820" lon="-2.9739590">
        <ele>9.6</ele>
        <time>2022-01-16T12:33:51Z</time>
      </trkpt>
      <trkpt lat="43.2737530" lon="-2.9739430">
        <ele>9.4</ele>
        <time>2022-01-16T12:33:52Z</time>
      </trkpt>
      <trkpt lat="43.2738200" lon="-2.9739170">
        <ele>9.4</ele>
        <time>2022-01-16T12:33:53Z</time>
      </trkpt>
      <trkpt lat="43.2738880" lon="-2.9738960">
        <ele>9.2</ele>
        <time>2022-01-16T12:33:54Z</time>
      </trkpt>
      <trkpt lat="43.2739510" lon="-2.9738800">
        <ele>9.2</ele>
        <time>2022-01-16T12:33:55Z</time>
      </trkpt>
      <trkpt lat="43.2740080" lon="-2.9738610">
        <ele>8.8</ele>
        <time>2022-01-16T12:33:56Z</time>
      </trkpt>
      <trkpt lat="43.2740590" lon="-2.9738290">
        <ele>8.8</ele>
        <time>2022-01-16T12:33:57Z</time>
      </trkpt>
      <trkpt lat="43.2740930" lon="-2.9737550">
        <ele>8.8</ele>
        <time>2022-01-16T12:33:58Z</time>
      </trkpt>
      <trkpt lat="43.2741150" lon="-2.9736900">
        <ele>8.6</ele>
        <time>2022-01-16T12:33:59Z</time>
      </trkpt>
      <trkpt lat="43.2741220" lon="-2.9736590">
        <ele>8.6</ele>
        <time>2022-01-16T12:34:00Z</time>
      </trkpt>
      <trkpt lat="43.2741270" lon="-2.9736270">
        <ele>8.6</ele>
        <time>2022-01-16T12:34:01Z</time>
      </trkpt>
      <trkpt lat="43.2741290" lon="-2.9736070">
        <ele>8.6</ele>
        <time>2022-01-16T12:34:02Z</time>
      </trkpt>
      <trkpt lat="43.2741410" lon="-2.9735910">
        <ele>8.4</ele>
        <time>2022-01-16T12:34:03Z</time>
      </trkpt>
      <trkpt lat="43.2741630" lon="-2.9735750">
        <ele>8.4</ele>
        <time>2022-01-16T12:34:04Z</time>
      </trkpt>
      <trkpt lat="43.2741890" lon="-2.9735610">
        <ele>8.4</ele>
        <time>2022-01-16T12:34:05Z</time>
      </trkpt>
      <trkpt lat="43.2742230" lon="-2.9735460">
        <ele>8.4</ele>
        <time>2022-01-16T12:34:06Z</time>
      </trkpt>
      <trkpt lat="43.2742450" lon="-2.9735250">
        <ele>8.2</ele>
        <time>2022-01-16T12:34:07Z</time>
      </trkpt>
      <trkpt lat="43.2742680" lon="-2.9735020">
        <ele>8.2</ele>
        <time>2022-01-16T12:34:08Z</time>
      </trkpt>
      <trkpt lat="43.2742930" lon="-2.9734850">
        <ele>8.2</ele>
        <time>2022-01-16T12:34:09Z</time>
      </trkpt>
      <trkpt lat="43.2743150" lon="-2.9734690">
        <ele>8.2</ele>
        <time>2022-01-16T12:34:10Z</time>
      </trkpt>
      <trkpt lat="43.2743580" lon="-2.9734280">
        <ele>8.4</ele>
        <time>2022-01-16T12:34:11Z</time>
      </trkpt>
      <trkpt lat="43.2744190" lon="-2.9733860">
        <ele>8.4</ele>
        <time>2022-01-16T12:34:12Z</time>
      </trkpt>
      <trkpt lat="43.2744690" lon="-2.9733530">
        <ele>8.4</ele>
        <time>2022-01-16T12:34:13Z</time>
      </trkpt>
      <trkpt lat="43.2745220" lon="-2.9733250">
        <ele>8.4</ele>
        <time>2022-01-16T12:34:14Z</time>
      </trkpt>
      <trkpt lat="43.2745800" lon="-2.9732980">
        <ele>8.4</ele>
        <time>2022-01-16T12:34:15Z</time>
      </trkpt>
      <trkpt lat="43.2746260" lon="-2.9732680">
        <ele>8.4</ele>
        <time>2022-01-16T12:34:16Z</time>
      </trkpt>
      <trkpt lat="43.2746550" lon="-2.9732360">
        <ele>8.4</ele>
        <time>2022-01-16T12:34:17Z</time>
      </trkpt>
      <trkpt lat="43.2746800" lon="-2.9732070">
        <ele>8.4</ele>
        <time>2022-01-16T12:34:18Z</time>
      </trkpt>
      <trkpt lat="43.2747040" lon="-2.9731800">
        <ele>8.4</ele>
        <time>2022-01-16T12:34:19Z</time>
      </trkpt>
      <trkpt lat="43.2747260" lon="-2.9731570">
        <ele>8.2</ele>
        <time>2022-01-16T12:34:20Z</time>
      </trkpt>
      <trkpt lat="43.2747460" lon="-2.9731360">
        <ele>8.2</ele>
        <time>2022-01-16T12:34:21Z</time>
      </trkpt>
      <trkpt lat="43.2747630" lon="-2.9731230">
        <ele>8.2</ele>
        <time>2022-01-16T12:34:22Z</time>
      </trkpt>
      <trkpt lat="43.2747780" lon="-2.9731070">
        <ele>8.2</ele>
        <time>2022-01-16T12:34:23Z</time>
      </trkpt>
      <trkpt lat="43.2747990" lon="-2.9730980">
        <ele>8.2</ele>
        <time>2022-01-16T12:34:24Z</time>
      </trkpt>
      <trkpt lat="43.2748170" lon="-2.9730880">
        <ele>8.2</ele>
        <time>2022-01-16T12:34:25Z</time>
      </trkpt>
      <trkpt lat="43.2748320" lon="-2.9730730">
        <ele>8.2</ele>
        <time>2022-01-16T12:34:26Z</time>
      </trkpt>
      <trkpt lat="43.2748480" lon="-2.9730590">
        <ele>8.2</ele>
        <time>2022-01-16T12:34:27Z</time>
      </trkpt>
      <trkpt lat="43.2748660" lon="-2.9730520">
        <ele>8.2</ele>
        <time>2022-01-16T12:34:28Z</time>
      </trkpt>
      <trkpt lat="43.2748860" lon="-2.9730450">
        <ele>8.2</ele>
        <time>2022-01-16T12:34:29Z</time>
      </trkpt>
      <trkpt lat="43.2748990" lon="-2.9730390">
        <ele>8.2</ele>
        <time>2022-01-16T12:34:30Z</time>
      </trkpt>
      <trkpt lat="43.2749060" lon="-2.9730330">
        <ele>8.2</ele>
        <time>2022-01-16T12:34:31Z</time>
      </trkpt>
      <trkpt lat="43.2749100" lon="-2.9730210">
        <ele>8.0</ele>
        <time>2022-01-16T12:34:32Z</time>
      </trkpt>
      <trkpt lat="43.2749250" lon="-2.9730240">
        <ele>8.0</ele>
        <time>2022-01-16T12:34:33Z</time>
      </trkpt>
      <trkpt lat="43.2749810" lon="-2.9729800">
        <ele>8.0</ele>
        <time>2022-01-16T12:34:50Z</time>
      </trkpt>
      <trkpt lat="43.2750040" lon="-2.9729520">
        <ele>8.0</ele>
        <time>2022-01-16T12:34:51Z</time>
      </trkpt>
      <trkpt lat="43.2750270" lon="-2.9729220">
        <ele>8.0</ele>
        <time>2022-01-16T12:34:52Z</time>
      </trkpt>
      <trkpt lat="43.2750450" lon="-2.9728930">
        <ele>8.0</ele>
        <time>2022-01-16T12:34:53Z</time>
      </trkpt>
      <trkpt lat="43.2750610" lon="-2.9728500">
        <ele>8.0</ele>
        <time>2022-01-16T12:34:54Z</time>
      </trkpt>
      <trkpt lat="43.2750800" lon="-2.9728150">
        <ele>8.0</ele>
        <time>2022-01-16T12:34:55Z</time>
      </trkpt>
      <trkpt lat="43.2751040" lon="-2.9727860">
        <ele>7.8</ele>
        <time>2022-01-16T12:34:56Z</time>
      </trkpt>
      <trkpt lat="43.2751290" lon="-2.9727510">
        <ele>7.8</ele>
        <time>2022-01-16T12:34:57Z</time>
      </trkpt>
      <trkpt lat="43.2751590" lon="-2.9727170">
        <ele>7.8</ele>
        <time>2022-01-16T12:34:58Z</time>
      </trkpt>
      <trkpt lat="43.2751870" lon="-2.9726820">
        <ele>7.8</ele>
        <time>2022-01-16T12:34:59Z</time>
      </trkpt>
      <trkpt lat="43.2752180" lon="-2.9726440">
        <ele>7.8</ele>
        <time>2022-01-16T12:35:00Z</time>
      </trkpt>
      <trkpt lat="43.2752410" lon="-2.9726110">
        <ele>7.6</ele>
        <time>2022-01-16T12:35:01Z</time>
      </trkpt>
      <trkpt lat="43.2752640" lon="-2.9725760">
        <ele>7.6</ele>
        <time>2022-01-16T12:35:02Z</time>
      </trkpt>
      <trkpt lat="43.2752820" lon="-2.9725270">
        <ele>7.6</ele>
        <time>2022-01-16T12:35:03Z</time>
      </trkpt>
      <trkpt lat="43.2753020" lon="-2.9724870">
        <ele>7.4</ele>
        <time>2022-01-16T12:35:04Z</time>
      </trkpt>
      <trkpt lat="43.2753280" lon="-2.9724500">
        <ele>7.4</ele>
        <time>2022-01-16T12:35:05Z</time>
      </trkpt>
      <trkpt lat="43.2753470" lon="-2.9724100">
        <ele>7.4</ele>
        <time>2022-01-16T12:35:06Z</time>
      </trkpt>
      <trkpt lat="43.2753620" lon="-2.9723670">
        <ele>7.4</ele>
        <time>2022-01-16T12:35:07Z</time>
      </trkpt>
      <trkpt lat="43.2753920" lon="-2.9723240">
        <ele>7.4</ele>
        <time>2022-01-16T12:35:08Z</time>
      </trkpt>
      <trkpt lat="43.2754130" lon="-2.9722780">
        <ele>7.4</ele>
        <time>2022-01-16T12:35:09Z</time>
      </trkpt>
      <trkpt lat="43.2754360" lon="-2.9722380">
        <ele>7.4</ele>
        <time>2022-01-16T12:35:10Z</time>
      </trkpt>
      <trkpt lat="43.2754730" lon="-2.9722020">
        <ele>7.2</ele>
        <time>2022-01-16T12:35:11Z</time>
      </trkpt>
      <trkpt lat="43.2755030" lon="-2.9721580">
        <ele>7.0</ele>
        <time>2022-01-16T12:35:12Z</time>
      </trkpt>
      <trkpt lat="43.2755260" lon="-2.9721080">
        <ele>7.0</ele>
        <time>2022-01-16T12:35:13Z</time>
      </trkpt>
      <trkpt lat="43.2755520" lon="-2.9720590">
        <ele>6.8</ele>
        <time>2022-01-16T12:35:14Z</time>
      </trkpt>
      <trkpt lat="43.2755840" lon="-2.9720070">
        <ele>6.8</ele>
        <time>2022-01-16T12:35:15Z</time>
      </trkpt>
      <trkpt lat="43.2756160" lon="-2.9719470">
        <ele>6.6</ele>
        <time>2022-01-16T12:35:16Z</time>
      </trkpt>
      <trkpt lat="43.2756520" lon="-2.9718870">
        <ele>6.6</ele>
        <time>2022-01-16T12:35:17Z</time>
      </trkpt>
      <trkpt lat="43.2756840" lon="-2.9718250">
        <ele>6.4</ele>
        <time>2022-01-16T12:35:18Z</time>
      </trkpt>
      <trkpt lat="43.2757170" lon="-2.9717590">
        <ele>6.2</ele>
        <time>2022-01-16T12:35:19Z</time>
      </trkpt>
      <trkpt lat="43.2757550" lon="-2.9716940">
        <ele>6.0</ele>
        <time>2022-01-16T12:35:20Z</time>
      </trkpt>
      <trkpt lat="43.2757890" lon="-2.9716300">
        <ele>5.8</ele>
        <time>2022-01-16T12:35:21Z</time>
      </trkpt>
      <trkpt lat="43.2758230" lon="-2.9715600">
        <ele>5.6</ele>
        <time>2022-01-16T12:35:22Z</time>
      </trkpt>
      <trkpt lat="43.2758580" lon="-2.9714900">
        <ele>5.4</ele>
        <time>2022-01-16T12:35:23Z</time>
      </trkpt>
      <trkpt lat="43.2758920" lon="-2.9714210">
        <ele>5.2</ele>
        <time>2022-01-16T12:35:24Z</time>
      </trkpt>
      <trkpt lat="43.2759350" lon="-2.9713560">
        <ele>5.0</ele>
        <time>2022-01-16T12:35:25Z</time>
      </trkpt>
      <trkpt lat="43.2759750" lon="-2.9712900">
        <ele>5.0</ele>
        <time>2022-01-16T12:35:26Z</time>
      </trkpt>
      <trkpt lat="43.2760080" lon="-2.9712310">
        <ele>4.8</ele>
        <time>2022-01-16T12:35:27Z</time>
      </trkpt>
      <trkpt lat="43.2760500" lon="-2.9711800">
        <ele>4.6</ele>
        <time>2022-01-16T12:35:28Z</time>
      </trkpt>
      <trkpt lat="43.2760770" lon="-2.9711260">
        <ele>4.6</ele>
        <time>2022-01-16T12:35:29Z</time>
      </trkpt>
      <trkpt lat="43.2760950" lon="-2.9710690">
        <ele>4.4</ele>
        <time>2022-01-16T12:35:30Z</time>
      </trkpt>
      <trkpt lat="43.2761000" lon="-2.9710100">
        <ele>4.2</ele>
        <time>2022-01-16T12:35:31Z</time>
      </trkpt>
      <trkpt lat="43.2761080" lon="-2.9709470">
        <ele>4.2</ele>
        <time>2022-01-16T12:35:32Z</time>
      </trkpt>
      <trkpt lat="43.2761280" lon="-2.9708890">
        <ele>4.0</ele>
        <time>2022-01-16T12:35:33Z</time>
      </trkpt>
      <trkpt lat="43.2761460" lon="-2.9708440">
        <ele>3.8</ele>
        <time>2022-01-16T12:35:34Z</time>
      </trkpt>
      <trkpt lat="43.2761710" lon="-2.9708220">
        <ele>3.8</ele>
        <time>2022-01-16T12:35:35Z</time>
      </trkpt>
      <trkpt lat="43.2762090" lon="-2.9708420">
        <ele>3.6</ele>
        <time>2022-01-16T12:35:36Z</time>
      </trkpt>
      <trkpt lat="43.2762570" lon="-2.9708780">
        <ele>3.4</ele>
        <time>2022-01-16T12:35:37Z</time>
      </trkpt>
      <trkpt lat="43.2763000" lon="-2.9709210">
        <ele>3.4</ele>
        <time>2022-01-16T12:35:38Z</time>
      </trkpt>
      <trkpt lat="43.2763400" lon="-2.9709600">
        <ele>3.2</ele>
        <time>2022-01-16T12:35:39Z</time>
      </trkpt>
      <trkpt lat="43.2763800" lon="-2.9710140">
        <ele>3.0</ele>
        <time>2022-01-16T12:35:40Z</time>
      </trkpt>
      <trkpt lat="43.2764020" lon="-2.9710750">
        <ele>2.8</ele>
        <time>2022-01-16T12:35:41Z</time>
      </trkpt>
      <trkpt lat="43.2764030" lon="-2.9711470">
        <ele>2.6</ele>
        <time>2022-01-16T12:35:42Z</time>
      </trkpt>
      <trkpt lat="43.2764180" lon="-2.9712240">
        <ele>2.6</ele>
        <time>2022-01-16T12:35:43Z</time>
      </trkpt>
      <trkpt lat="43.2764480" lon="-2.9713040">
        <ele>2.2</ele>
        <time>2022-01-16T12:35:44Z</time>
      </trkpt>
      <trkpt lat="43.2764800" lon="-2.9713830">
        <ele>2.0</ele>
        <time>2022-01-16T12:35:45Z</time>
      </trkpt>
      <trkpt lat="43.2765040" lon="-2.9714620">
        <ele>1.8</ele>
        <time>2022-01-16T12:35:46Z</time>
      </trkpt>
      <trkpt lat="43.2765270" lon="-2.9715320">
        <ele>1.8</ele>
        <time>2022-01-16T12:35:47Z</time>
      </trkpt>
      <trkpt lat="43.2765520" lon="-2.9715700">
        <ele>1.6</ele>
        <time>2022-01-16T12:35:48Z</time>
      </trkpt>
      <trkpt lat="43.2765710" lon="-2.9715990">
        <ele>1.2</ele>
        <time>2022-01-16T12:35:49Z</time>
      </trkpt>
      <trkpt lat="43.2765860" lon="-2.9716180">
        <ele>1.2</ele>
        <time>2022-01-16T12:35:50Z</time>
      </trkpt>
      <trkpt lat="43.2766000" lon="-2.9716430">
        <ele>1.0</ele>
        <time>2022-01-16T12:35:51Z</time>
      </trkpt>
      <trkpt lat="43.2766080" lon="-2.9716690">
        <ele>1.0</ele>
        <time>2022-01-16T12:35:52Z</time>
      </trkpt>
      <trkpt lat="43.2766140" lon="-2.9716900">
        <ele>0.8</ele>
        <time>2022-01-16T12:35:53Z</time>
      </trkpt>
      <trkpt lat="43.2766150" lon="-2.9716920">
        <ele>0.8</ele>
        <time>2022-01-16T12:35:54Z</time>
      </trkpt>
      <trkpt lat="43.2766410" lon="-2.9717660">
        <ele>0.2</ele>
        <time>2022-01-16T12:36:28Z</time>
      </trkpt>
      <trkpt lat="43.2766550" lon="-2.9718030">
        <ele>0.2</ele>
        <time>2022-01-16T12:36:29Z</time>
      </trkpt>
      <trkpt lat="43.2766670" lon="-2.9718500">
        <ele>0.2</ele>
        <time>2022-01-16T12:36:30Z</time>
      </trkpt>
      <trkpt lat="43.2766780" lon="-2.9719000">
        <ele>0.0</ele>
        <time>2022-01-16T12:36:31Z</time>
      </trkpt>
      <trkpt lat="43.2766940" lon="-2.9719510">
        <ele>0.0</ele>
        <time>2022-01-16T12:36:32Z</time>
      </trkpt>
      <trkpt lat="43.2767080" lon="-2.9720110">
        <ele>-0.2</ele>
        <time>2022-01-16T12:36:33Z</time>
      </trkpt>
      <trkpt lat="43.2767160" lon="-2.9720750">
        <ele>-0.4</ele>
        <time>2022-01-16T12:36:34Z</time>
      </trkpt>
      <trkpt lat="43.2767280" lon="-2.9721370">
        <ele>-0.6</ele>
        <time>2022-01-16T12:36:35Z</time>
      </trkpt>
      <trkpt lat="43.2767390" lon="-2.9722080">
        <ele>-0.6</ele>
        <time>2022-01-16T12:36:36Z</time>
      </trkpt>
      <trkpt lat="43.2767530" lon="-2.9722690">
        <ele>-0.8</ele>
        <time>2022-01-16T12:36:37Z</time>
      </trkpt>
      <trkpt lat="43.2767660" lon="-2.9723280">
        <ele>-1.0</ele>
        <time>2022-01-16T12:36:38Z</time>
      </trkpt>
      <trkpt lat="43.2767830" lon="-2.9723830">
        <ele>-1.2</ele>
        <time>2022-01-16T12:36:39Z</time>
      </trkpt>
      <trkpt lat="43.2768070" lon="-2.9724390">
        <ele>-1.2</ele>
        <time>2022-01-16T12:36:40Z</time>
      </trkpt>
      <trkpt lat="43.2768280" lon="-2.9724950">
        <ele>-1.4</ele>
        <time>2022-01-16T12:36:41Z</time>
      </trkpt>
      <trkpt lat="43.2768500" lon="-2.9725380">
        <ele>-1.6</ele>
        <time>2022-01-16T12:36:42Z</time>
      </trkpt>
      <trkpt lat="43.2768660" lon="-2.9725940">
        <ele>-1.6</ele>
        <time>2022-01-16T12:36:43Z</time>
      </trkpt>
      <trkpt lat="43.2768800" lon="-2.9726360">
        <ele>-1.6</ele>
        <time>2022-01-16T12:36:44Z</time>
      </trkpt>
      <trkpt lat="43.2768910" lon="-2.9727110">
        <ele>-1.8</ele>
        <time>2022-01-16T12:36:45Z</time>
      </trkpt>
      <trkpt lat="43.2769040" lon="-2.9727700">
        <ele>-2.2</ele>
        <time>2022-01-16T12:36:46Z</time>
      </trkpt>
      <trkpt lat="43.2769280" lon="-2.9728420">
        <ele>-2.4</ele>
        <time>2022-01-16T12:36:47Z</time>
      </trkpt>
      <trkpt lat="43.2769550" lon="-2.9729160">
        <ele>-2.4</ele>
        <time>2022-01-16T12:36:48Z</time>
      </trkpt>
      <trkpt lat="43.2769770" lon="-2.9729890">
        <ele>-2.6</ele>
        <time>2022-01-16T12:36:49Z</time>
      </trkpt>
      <trkpt lat="43.2769850" lon="-2.9730760">
        <ele>-2.8</ele>
        <time>2022-01-16T12:36:50Z</time>
      </trkpt>
      <trkpt lat="43.2769940" lon="-2.9731600">
        <ele>-3.0</ele>
        <time>2022-01-16T12:36:51Z</time>
      </trkpt>
      <trkpt lat="43.2770140" lon="-2.9732320">
        <ele>-3.2</ele>
        <time>2022-01-16T12:36:52Z</time>
      </trkpt>
      <trkpt lat="43.2770380" lon="-2.9733040">
        <ele>-3.2</ele>
        <time>2022-01-16T12:36:53Z</time>
      </trkpt>
      <trkpt lat="43.2770490" lon="-2.9733710">
        <ele>-3.4</ele>
        <time>2022-01-16T12:36:54Z</time>
      </trkpt>
      <trkpt lat="43.2770700" lon="-2.9734500">
        <ele>-3.6</ele>
        <time>2022-01-16T12:36:55Z</time>
      </trkpt>
      <trkpt lat="43.2770960" lon="-2.9735330">
        <ele>-3.8</ele>
        <time>2022-01-16T12:36:56Z</time>
      </trkpt>
      <trkpt lat="43.2771270" lon="-2.9736150">
        <ele>-4.0</ele>
        <time>2022-01-16T12:36:57Z</time>
      </trkpt>
      <trkpt lat="43.2771570" lon="-2.9737030">
        <ele>-4.2</ele>
        <time>2022-01-16T12:36:58Z</time>
      </trkpt>
      <trkpt lat="43.2771810" lon="-2.9737990">
        <ele>-4.2</ele>
        <time>2022-01-16T12:36:59Z</time>
      </trkpt>
      <trkpt lat="43.2772080" lon="-2.9738870">
        <ele>-4.4</ele>
        <time>2022-01-16T12:37:00Z</time>
      </trkpt>
      <trkpt lat="43.2772340" lon="-2.9739740">
        <ele>-4.4</ele>
        <time>2022-01-16T12:37:01Z</time>
      </trkpt>
      <trkpt lat="43.2772610" lon="-2.9740600">
        <ele>-4.6</ele>
        <time>2022-01-16T12:37:02Z</time>
      </trkpt>
      <trkpt lat="43.2772860" lon="-2.9741460">
        <ele>-5.0</ele>
        <time>2022-01-16T12:37:03Z</time>
      </trkpt>
      <trkpt lat="43.2773100" lon="-2.9742310">
        <ele>-5.0</ele>
        <time>2022-01-16T12:37:04Z</time>
      </trkpt>
      <trkpt lat="43.2773370" lon="-2.9743190">
        <ele>-5.2</ele>
        <time>2022-01-16T12:37:05Z</time>
      </trkpt>
      <trkpt lat="43.2773610" lon="-2.9744040">
        <ele>-5.2</ele>
        <time>2022-01-16T12:37:06Z</time>
      </trkpt>
      <trkpt lat="43.2773890" lon="-2.9744930">
        <ele>-5.4</ele>
        <time>2022-01-16T12:37:07Z</time>
      </trkpt>
      <trkpt lat="43.2774190" lon="-2.9745900">
        <ele>-5.6</ele>
        <time>2022-01-16T12:37:08Z</time>
      </trkpt>
      <trkpt lat="43.2774480" lon="-2.9746910">
        <ele>-5.6</ele>
        <time>2022-01-16T12:37:09Z</time>
      </trkpt>
      <trkpt lat="43.2774780" lon="-2.9747910">
        <ele>-5.8</ele>
        <time>2022-01-16T12:37:10Z</time>
      </trkpt>
      <trkpt lat="43.2775070" lon="-2.9748920">
        <ele>-5.8</ele>
        <time>2022-01-16T12:37:11Z</time>
      </trkpt>
      <trkpt lat="43.2775350" lon="-2.9749920">
        <ele>-5.8</ele>
        <time>2022-01-16T12:37:12Z</time>
      </trkpt>
      <trkpt lat="43.2775650" lon="-2.9750920">
        <ele>-5.8</ele>
        <time>2022-01-16T12:37:13Z</time>
      </trkpt>
      <trkpt lat="43.2775960" lon="-2.9751880">
        <ele>-5.6</ele>
        <time>2022-01-16T12:37:14Z</time>
      </trkpt>
      <trkpt lat="43.2776260" lon="-2.9752840">
        <ele>-5.6</ele>
        <time>2022-01-16T12:37:15Z</time>
      </trkpt>
      <trkpt lat="43.2776610" lon="-2.9753760">
        <ele>-5.6</ele>
        <time>2022-01-16T12:37:16Z</time>
      </trkpt>
      <trkpt lat="43.2777050" lon="-2.9754620">
        <ele>-5.4</ele>
        <time>2022-01-16T12:37:17Z</time>
      </trkpt>
      <trkpt lat="43.2777510" lon="-2.9755410">
        <ele>-5.2</ele>
        <time>2022-01-16T12:37:18Z</time>
      </trkpt>
      <trkpt lat="43.2777870" lon="-2.9756270">
        <ele>-5.0</ele>
        <time>2022-01-16T12:37:19Z</time>
      </trkpt>
      <trkpt lat="43.2778120" lon="-2.9757230">
        <ele>-5.0</ele>
        <time>2022-01-16T12:37:20Z</time>
      </trkpt>
      <trkpt lat="43.2778220" lon="-2.9758300">
        <ele>-4.8</ele>
        <time>2022-01-16T12:37:21Z</time>
      </trkpt>
      <trkpt lat="43.2778300" lon="-2.9759340">
        <ele>-4.8</ele>
        <time>2022-01-16T12:37:22Z</time>
      </trkpt>
      <trkpt lat="43.2778440" lon="-2.9760340">
        <ele>-4.6</ele>
        <time>2022-01-16T12:37:23Z</time>
      </trkpt>
      <trkpt lat="43.2778670" lon="-2.9761310">
        <ele>-4.6</ele>
        <time>2022-01-16T12:37:24Z</time>
      </trkpt>
      <trkpt lat="43.2778980" lon="-2.9762260">
        <ele>-4.2</ele>
        <time>2022-01-16T12:37:25Z</time>
      </trkpt>
      <trkpt lat="43.2779280" lon="-2.9763220">
        <ele>-4.0</ele>
        <time>2022-01-16T12:37:26Z</time>
      </trkpt>
      <trkpt lat="43.2779610" lon="-2.9764120">
        <ele>-3.8</ele>
        <time>2022-01-16T12:37:27Z</time>
      </trkpt>
      <trkpt lat="43.2779920" lon="-2.9764990">
        <ele>-3.4</ele>
        <time>2022-01-16T12:37:28Z</time>
      </trkpt>
      <trkpt lat="43.2780180" lon="-2.9765860">
        <ele>-3.0</ele>
        <time>2022-01-16T12:37:29Z</time>
      </trkpt>
      <trkpt lat="43.2780430" lon="-2.9766730">
        <ele>-2.6</ele>
        <time>2022-01-16T12:37:30Z</time>
      </trkpt>
      <trkpt lat="43.2780710" lon="-2.9767560">
        <ele>-2.2</ele>
        <time>2022-01-16T12:37:31Z</time>
      </trkpt>
      <trkpt lat="43.2780980" lon="-2.9768340">
        <ele>-2.0</ele>
        <time>2022-01-16T12:37:32Z</time>
      </trkpt>
      <trkpt lat="43.2781260" lon="-2.9769100">
        <ele>-2.0</ele>
        <time>2022-01-16T12:37:33Z</time>
      </trkpt>
      <trkpt lat="43.2781550" lon="-2.9769930">
        <ele>-1.8</ele>
        <time>2022-01-16T12:37:34Z</time>
      </trkpt>
      <trkpt lat="43.2781830" lon="-2.9770810">
        <ele>-1.8</ele>
        <time>2022-01-16T12:37:35Z</time>
      </trkpt>
      <trkpt lat="43.2782100" lon="-2.9771740">
        <ele>-1.6</ele>
        <time>2022-01-16T12:37:36Z</time>
      </trkpt>
      <trkpt lat="43.2782400" lon="-2.9772650">
        <ele>-1.6</ele>
        <time>2022-01-16T12:37:37Z</time>
      </trkpt>
      <trkpt lat="43.2782710" lon="-2.9773580">
        <ele>-1.6</ele>
        <time>2022-01-16T12:37:38Z</time>
      </trkpt>
      <trkpt lat="43.2783010" lon="-2.9774490">
        <ele>-1.6</ele>
        <time>2022-01-16T12:37:39Z</time>
      </trkpt>
      <trkpt lat="43.2783310" lon="-2.9775420">
        <ele>-1.6</ele>
        <time>2022-01-16T12:37:40Z</time>
      </trkpt>
      <trkpt lat="43.2783610" lon="-2.9776360">
        <ele>-1.6</ele>
        <time>2022-01-16T12:37:41Z</time>
      </trkpt>
      <trkpt lat="43.2783920" lon="-2.9777320">
        <ele>-1.4</ele>
        <time>2022-01-16T12:37:42Z</time>
      </trkpt>
      <trkpt lat="43.2784250" lon="-2.9778280">
        <ele>-1.4</ele>
        <time>2022-01-16T12:37:43Z</time>
      </trkpt>
      <trkpt lat="43.2784580" lon="-2.9779240">
        <ele>-1.2</ele>
        <time>2022-01-16T12:37:44Z</time>
      </trkpt>
      <trkpt lat="43.2784910" lon="-2.9780170">
        <ele>-1.0</ele>
        <time>2022-01-16T12:37:45Z</time>
      </trkpt>
      <trkpt lat="43.2785240" lon="-2.9781060">
        <ele>-0.6</ele>
        <time>2022-01-16T12:37:46Z</time>
      </trkpt>
      <trkpt lat="43.2785590" lon="-2.9781930">
        <ele>-0.2</ele>
        <time>2022-01-16T12:37:47Z</time>
      </trkpt>
      <trkpt lat="43.2785950" lon="-2.9782760">
        <ele>0.0</ele>
        <time>2022-01-16T12:37:48Z</time>
      </trkpt>
      <trkpt lat="43.2786310" lon="-2.9783590">
        <ele>0.2</ele>
        <time>2022-01-16T12:37:49Z</time>
      </trkpt>
      <trkpt lat="43.2786740" lon="-2.9784280">
        <ele>0.6</ele>
        <time>2022-01-16T12:37:50Z</time>
      </trkpt>
      <trkpt lat="43.2787230" lon="-2.9784890">
        <ele>0.8</ele>
        <time>2022-01-16T12:37:51Z</time>
      </trkpt>
      <trkpt lat="43.2787770" lon="-2.9785410">
        <ele>1.2</ele>
        <time>2022-01-16T12:37:52Z</time>
      </trkpt>
      <trkpt lat="43.2788350" lon="-2.9785830">
        <ele>1.8</ele>
        <time>2022-01-16T12:37:53Z</time>
      </trkpt>
      <trkpt lat="43.2788940" lon="-2.9786160">
        <ele>2.2</ele>
        <time>2022-01-16T12:37:54Z</time>
      </trkpt>
      <trkpt lat="43.2789560" lon="-2.9786360">
        <ele>2.6</ele>
        <time>2022-01-16T12:37:55Z</time>
      </trkpt>
      <trkpt lat="43.2790180" lon="-2.9786490">
        <ele>3.0</ele>
        <time>2022-01-16T12:37:56Z</time>
      </trkpt>
      <trkpt lat="43.2790820" lon="-2.9786500">
        <ele>3.4</ele>
        <time>2022-01-16T12:37:57Z</time>
      </trkpt>
      <trkpt lat="43.2791450" lon="-2.9786480">
        <ele>3.6</ele>
        <time>2022-01-16T12:37:58Z</time>
      </trkpt>
      <trkpt lat="43.2792080" lon="-2.9786430">
        <ele>3.6</ele>
        <time>2022-01-16T12:37:59Z</time>
      </trkpt>
      <trkpt lat="43.2792720" lon="-2.9786330">
        <ele>3.6</ele>
        <time>2022-01-16T12:38:00Z</time>
      </trkpt>
      <trkpt lat="43.2793370" lon="-2.9786180">
        <ele>3.6</ele>
        <time>2022-01-16T12:38:01Z</time>
      </trkpt>
      <trkpt lat="43.2794030" lon="-2.9785970">
        <ele>3.6</ele>
        <time>2022-01-16T12:38:02Z</time>
      </trkpt>
      <trkpt lat="43.2794660" lon="-2.9785770">
        <ele>3.6</ele>
        <time>2022-01-16T12:38:03Z</time>
      </trkpt>
      <trkpt lat="43.2795270" lon="-2.9785600">
        <ele>3.6</ele>
        <time>2022-01-16T12:38:04Z</time>
      </trkpt>
      <trkpt lat="43.2795910" lon="-2.9785400">
        <ele>3.4</ele>
        <time>2022-01-16T12:38:05Z</time>
      </trkpt>
      <trkpt lat="43.2796600" lon="-2.9785180">
        <ele>3.2</ele>
        <time>2022-01-16T12:38:06Z</time>
      </trkpt>
      <trkpt lat="43.2797290" lon="-2.9784900">
        <ele>3.2</ele>
        <time>2022-01-16T12:38:07Z</time>
      </trkpt>
      <trkpt lat="43.2797970" lon="-2.9784680">
        <ele>3.2</ele>
        <time>2022-01-16T12:38:08Z</time>
      </trkpt>
      <trkpt lat="43.2798690" lon="-2.9784440">
        <ele>3.2</ele>
        <time>2022-01-16T12:38:09Z</time>
      </trkpt>
      <trkpt lat="43.2799430" lon="-2.9784150">
        <ele>3.0</ele>
        <time>2022-01-16T12:38:10Z</time>
      </trkpt>
      <trkpt lat="43.2800180" lon="-2.9783870">
        <ele>2.8</ele>
        <time>2022-01-16T12:38:11Z</time>
      </trkpt>
      <trkpt lat="43.2800930" lon="-2.9783600">
        <ele>2.6</ele>
        <time>2022-01-16T12:38:12Z</time>
      </trkpt>
      <trkpt lat="43.2801670" lon="-2.9783310">
        <ele>2.4</ele>
        <time>2022-01-16T12:38:13Z</time>
      </trkpt>
      <trkpt lat="43.2802430" lon="-2.9783020">
        <ele>2.4</ele>
        <time>2022-01-16T12:38:14Z</time>
      </trkpt>
      <trkpt lat="43.2803200" lon="-2.9782750">
        <ele>2.0</ele>
        <time>2022-01-16T12:38:15Z</time>
      </trkpt>
      <trkpt lat="43.2803920" lon="-2.9782510">
        <ele>2.0</ele>
        <time>2022-01-16T12:38:16Z</time>
      </trkpt>
      <trkpt lat="43.2804690" lon="-2.9782290">
        <ele>1.8</ele>
        <time>2022-01-16T12:38:17Z</time>
      </trkpt>
      <trkpt lat="43.2805440" lon="-2.9782010">
        <ele>1.6</ele>
        <time>2022-01-16T12:38:18Z</time>
      </trkpt>
      <trkpt lat="43.2806260" lon="-2.9781720">
        <ele>1.4</ele>
        <time>2022-01-16T12:38:19Z</time>
      </trkpt>
      <trkpt lat="43.2807050" lon="-2.9781430">
        <ele>1.0</ele>
        <time>2022-01-16T12:38:20Z</time>
      </trkpt>
      <trkpt lat="43.2807850" lon="-2.9781130">
        <ele>0.8</ele>
        <time>2022-01-16T12:38:21Z</time>
      </trkpt>
      <trkpt lat="43.2808680" lon="-2.9780830">
        <ele>0.6</ele>
        <time>2022-01-16T12:38:22Z</time>
      </trkpt>
      <trkpt lat="43.2809570" lon="-2.9780550">
        <ele>0.4</ele>
        <time>2022-01-16T12:38:23Z</time>
      </trkpt>
      <trkpt lat="43.2810430" lon="-2.9780230">
        <ele>0.2</ele>
        <time>2022-01-16T12:38:24Z</time>
      </trkpt>
      <trkpt lat="43.2811280" lon="-2.9779910">
        <ele>0.0</ele>
        <time>2022-01-16T12:38:25Z</time>
      </trkpt>
      <trkpt lat="43.2812110" lon="-2.9779540">
        <ele>-0.2</ele>
        <time>2022-01-16T12:38:26Z</time>
      </trkpt>
      <trkpt lat="43.2812860" lon="-2.9779230">
        <ele>-0.4</ele>
        <time>2022-01-16T12:38:27Z</time>
      </trkpt>
      <trkpt lat="43.2813680" lon="-2.9778910">
        <ele>-0.4</ele>
        <time>2022-01-16T12:38:28Z</time>
      </trkpt>
      <trkpt lat="43.2814490" lon="-2.9778550">
        <ele>-0.4</ele>
        <time>2022-01-16T12:38:29Z</time>
      </trkpt>
      <trkpt lat="43.2815300" lon="-2.9778150">
        <ele>-0.6</ele>
        <time>2022-01-16T12:38:30Z</time>
      </trkpt>
      <trkpt lat="43.2816140" lon="-2.9777740">
        <ele>-0.8</ele>
        <time>2022-01-16T12:38:31Z</time>
      </trkpt>
      <trkpt lat="43.2817010" lon="-2.9777330">
        <ele>-0.8</ele>
        <time>2022-01-16T12:38:32Z</time>
      </trkpt>
      <trkpt lat="43.2817850" lon="-2.9776940">
        <ele>-1.0</ele>
        <time>2022-01-16T12:38:33Z</time>
      </trkpt>
      <trkpt lat="43.2818660" lon="-2.9776570">
        <ele>-1.0</ele>
        <time>2022-01-16T12:38:34Z</time>
      </trkpt>
      <trkpt lat="43.2819460" lon="-2.9776260">
        <ele>-1.0</ele>
        <time>2022-01-16T12:38:35Z</time>
      </trkpt>
      <trkpt lat="43.2820300" lon="-2.9775890">
        <ele>-1.2</ele>
        <time>2022-01-16T12:38:36Z</time>
      </trkpt>
      <trkpt lat="43.2821120" lon="-2.9775530">
        <ele>-1.4</ele>
        <time>2022-01-16T12:38:37Z</time>
      </trkpt>
      <trkpt lat="43.2822000" lon="-2.9775190">
        <ele>-1.6</ele>
        <time>2022-01-16T12:38:38Z</time>
      </trkpt>
      <trkpt lat="43.2822810" lon="-2.9774760">
        <ele>-1.6</ele>
        <time>2022-01-16T12:38:39Z</time>
      </trkpt>
      <trkpt lat="43.2823650" lon="-2.9774300">
        <ele>-1.8</ele>
        <time>2022-01-16T12:38:40Z</time>
      </trkpt>
      <trkpt lat="43.2824420" lon="-2.9773790">
        <ele>-2.0</ele>
        <time>2022-01-16T12:38:41Z</time>
      </trkpt>
      <trkpt lat="43.2825220" lon="-2.9773330">
        <ele>-2.0</ele>
        <time>2022-01-16T12:38:42Z</time>
      </trkpt>
      <trkpt lat="43.2826060" lon="-2.9772880">
        <ele>-2.0</ele>
        <time>2022-01-16T12:38:43Z</time>
      </trkpt>
      <trkpt lat="43.2826900" lon="-2.9772480">
        <ele>-2.0</ele>
        <time>2022-01-16T12:38:44Z</time>
      </trkpt>
      <trkpt lat="43.2827740" lon="-2.9772040">
        <ele>-2.0</ele>
        <time>2022-01-16T12:38:45Z</time>
      </trkpt>
      <trkpt lat="43.2828520" lon="-2.9771610">
        <ele>-2.2</ele>
        <time>2022-01-16T12:38:46Z</time>
      </trkpt>
      <trkpt lat="43.2829340" lon="-2.9771190">
        <ele>-2.4</ele>
        <time>2022-01-16T12:38:47Z</time>
      </trkpt>
      <trkpt lat="43.2830180" lon="-2.9770770">
        <ele>-2.4</ele>
        <time>2022-01-16T12:38:48Z</time>
      </trkpt>
      <trkpt lat="43.2830990" lon="-2.9770360">
        <ele>-2.6</ele>
        <time>2022-01-16T12:38:49Z</time>
      </trkpt>
      <trkpt lat="43.2831830" lon="-2.9769960">
        <ele>-2.6</ele>
        <time>2022-01-16T12:38:50Z</time>
      </trkpt>
      <trkpt lat="43.2832700" lon="-2.9769590">
        <ele>-2.8</ele>
        <time>2022-01-16T12:38:51Z</time>
      </trkpt>
      <trkpt lat="43.2833520" lon="-2.9769200">
        <ele>-2.8</ele>
        <time>2022-01-16T12:38:52Z</time>
      </trkpt>
      <trkpt lat="43.2834300" lon="-2.9768790">
        <ele>-2.8</ele>
        <time>2022-01-16T12:38:53Z</time>
      </trkpt>
      <trkpt lat="43.2835150" lon="-2.9768420">
        <ele>-2.8</ele>
        <time>2022-01-16T12:38:54Z</time>
      </trkpt>
      <trkpt lat="43.2836030" lon="-2.9768030">
        <ele>-2.8</ele>
        <time>2022-01-16T12:38:55Z</time>
      </trkpt>
      <trkpt lat="43.2836870" lon="-2.9767610">
        <ele>-2.8</ele>
        <time>2022-01-16T12:38:56Z</time>
      </trkpt>
      <trkpt lat="43.2837750" lon="-2.9767230">
        <ele>-2.8</ele>
        <time>2022-01-16T12:38:57Z</time>
      </trkpt>
      <trkpt lat="43.2838570" lon="-2.9766860">
        <ele>-2.8</ele>
        <time>2022-01-16T12:38:58Z</time>
      </trkpt>
      <trkpt lat="43.2839390" lon="-2.9766460">
        <ele>-2.8</ele>
        <time>2022-01-16T12:38:59Z</time>
      </trkpt>
      <trkpt lat="43.2840190" lon="-2.9766070">
        <ele>-3.0</ele>
        <time>2022-01-16T12:39:00Z</time>
      </trkpt>
      <trkpt lat="43.2840960" lon="-2.9765680">
        <ele>-3.0</ele>
        <time>2022-01-16T12:39:01Z</time>
      </trkpt>
      <trkpt lat="43.2841660" lon="-2.9765320">
        <ele>-3.2</ele>
        <time>2022-01-16T12:39:02Z</time>
      </trkpt>
      <trkpt lat="43.2842410" lon="-2.9764960">
        <ele>-3.2</ele>
        <time>2022-01-16T12:39:03Z</time>
      </trkpt>
      <trkpt lat="43.2843170" lon="-2.9764570">
        <ele>-3.4</ele>
        <time>2022-01-16T12:39:04Z</time>
      </trkpt>
      <trkpt lat="43.2843950" lon="-2.9764160">
        <ele>-3.4</ele>
        <time>2022-01-16T12:39:05Z</time>
      </trkpt>
      <trkpt lat="43.2844780" lon="-2.9763740">
        <ele>-3.4</ele>
        <time>2022-01-16T12:39:06Z</time>
      </trkpt>
      <trkpt lat="43.2845620" lon="-2.9763350">
        <ele>-3.4</ele>
        <time>2022-01-16T12:39:07Z</time>
      </trkpt>
      <trkpt lat="43.2846510" lon="-2.9763010">
        <ele>-3.4</ele>
        <time>2022-01-16T12:39:08Z</time>
      </trkpt>
      <trkpt lat="43.2847370" lon="-2.9762680">
        <ele>-3.4</ele>
        <time>2022-01-16T12:39:09Z</time>
      </trkpt>
      <trkpt lat="43.2848240" lon="-2.9762330">
        <ele>-3.4</ele>
        <time>2022-01-16T12:39:10Z</time>
      </trkpt>
      <trkpt lat="43.2849070" lon="-2.9762010">
        <ele>-3.4</ele>
        <time>2022-01-16T12:39:11Z</time>
      </trkpt>
      <trkpt lat="43.2849940" lon="-2.9761740">
        <ele>-3.4</ele>
        <time>2022-01-16T12:39:12Z</time>
      </trkpt>
      <trkpt lat="43.2850810" lon="-2.9761490">
        <ele>-3.4</ele>
        <time>2022-01-16T12:39:13Z</time>
      </trkpt>
      <trkpt lat="43.2851600" lon="-2.9761240">
        <ele>-3.6</ele>
        <time>2022-01-16T12:39:14Z</time>
      </trkpt>
      <trkpt lat="43.2852320" lon="-2.9761060">
        <ele>-3.6</ele>
        <time>2022-01-16T12:39:15Z</time>
      </trkpt>
      <trkpt lat="43.2852950" lon="-2.9761050">
        <ele>-3.6</ele>
        <time>2022-01-16T12:39:16Z</time>
      </trkpt>
      <trkpt lat="43.2853210" lon="-2.9761720">
        <ele>-3.6</ele>
        <time>2022-01-16T12:39:17Z</time>
      </trkpt>
      <trkpt lat="43.2853240" lon="-2.9762240">
        <ele>-3.6</ele>
        <time>2022-01-16T12:39:18Z</time>
      </trkpt>
    </trkseg>
  </trk>
</gpx>
